<?xml version='1.0' encoding='UTF-8'?>
<gpx version="1.1" creator="https://www.komoot.de" xmlns="http://www.topografix.com/GPX/1/1" xmlns:xsi="http://www.w3.org/2001/XMLSchema-instance" xsi:schemaLocation="http://www.topografix.com/GPX/1/1 http://www.topografix.com/GPX/1/1/gpx.xsd">
  <metadata>
    <name>Radroute Nr. 23, Weinradweg Muskateller, Anfahrt von Hobersdorf</name>
    <author>
      <link href="https://www.komoot.de">
        <text>komoot</text>
        <type>text/html</type>
      </link>
    </author>
  </metadata>
  <trk>
    <name>Radroute Nr. 23, Weinradweg Muskateller, Anfahrt von Hobersdorf</name>
    <trkseg>
      <trkpt lat="48.583853" lon="16.649150">
        <ele>232.447900</ele>
        <time>2020-09-18T07:20:56.124Z</time>
      </trkpt>
      <trkpt lat="48.584050" lon="16.649037">
        <ele>232.447900</ele>
        <time>2020-09-18T07:21:14.892Z</time>
      </trkpt>
      <trkpt lat="48.584138" lon="16.648948">
        <ele>232.447900</ele>
        <time>2020-09-18T07:21:17.875Z</time>
      </trkpt>
      <trkpt lat="48.584239" lon="16.648851">
        <ele>232.447900</ele>
        <time>2020-09-18T07:21:20.883Z</time>
      </trkpt>
      <trkpt lat="48.584341" lon="16.648764">
        <ele>232.447900</ele>
        <time>2020-09-18T07:21:23.881Z</time>
      </trkpt>
      <trkpt lat="48.584446" lon="16.648696">
        <ele>232.447900</ele>
        <time>2020-09-18T07:21:26.888Z</time>
      </trkpt>
      <trkpt lat="48.584559" lon="16.648753">
        <ele>232.447900</ele>
        <time>2020-09-18T07:21:29.894Z</time>
      </trkpt>
      <trkpt lat="48.584642" lon="16.648903">
        <ele>232.439016</ele>
        <time>2020-09-18T07:21:32.886Z</time>
      </trkpt>
      <trkpt lat="48.584727" lon="16.649046">
        <ele>232.371599</ele>
        <time>2020-09-18T07:21:35.886Z</time>
      </trkpt>
      <trkpt lat="48.584825" lon="16.649183">
        <ele>232.300840</ele>
        <time>2020-09-18T07:21:38.882Z</time>
      </trkpt>
      <trkpt lat="48.584893" lon="16.649282">
        <ele>232.250793</ele>
        <time>2020-09-18T07:21:40.887Z</time>
      </trkpt>
      <trkpt lat="48.584962" lon="16.649378">
        <ele>232.201081</ele>
        <time>2020-09-18T07:21:42.930Z</time>
      </trkpt>
      <trkpt lat="48.585036" lon="16.649468">
        <ele>232.150733</ele>
        <time>2020-09-18T07:21:44.895Z</time>
      </trkpt>
      <trkpt lat="48.585117" lon="16.649548">
        <ele>232.099442</ele>
        <time>2020-09-18T07:21:46.924Z</time>
      </trkpt>
      <trkpt lat="48.585202" lon="16.649629">
        <ele>232.046177</ele>
        <time>2020-09-18T07:21:48.908Z</time>
      </trkpt>
      <trkpt lat="48.585285" lon="16.649712">
        <ele>231.993423</ele>
        <time>2020-09-18T07:21:50.906Z</time>
      </trkpt>
      <trkpt lat="48.585368" lon="16.649795">
        <ele>231.940668</ele>
        <time>2020-09-18T07:21:52.900Z</time>
      </trkpt>
      <trkpt lat="48.585455" lon="16.649869">
        <ele>231.887749</ele>
        <time>2020-09-18T07:21:54.906Z</time>
      </trkpt>
      <trkpt lat="48.585543" lon="16.649934">
        <ele>231.835828</ele>
        <time>2020-09-18T07:21:56.950Z</time>
      </trkpt>
      <trkpt lat="48.585630" lon="16.650000">
        <ele>231.784227</ele>
        <time>2020-09-18T07:21:58.900Z</time>
      </trkpt>
      <trkpt lat="48.585719" lon="16.650072">
        <ele>231.730716</ele>
        <time>2020-09-18T07:22:00.905Z</time>
      </trkpt>
      <trkpt lat="48.585806" lon="16.650136">
        <ele>231.679426</ele>
        <time>2020-09-18T07:22:02.898Z</time>
      </trkpt>
      <trkpt lat="48.585893" lon="16.650202">
        <ele>231.627825</ele>
        <time>2020-09-18T07:22:04.907Z</time>
      </trkpt>
      <trkpt lat="48.585983" lon="16.650266">
        <ele>231.575100</ele>
        <time>2020-09-18T07:22:06.894Z</time>
      </trkpt>
      <trkpt lat="48.586072" lon="16.650326">
        <ele>231.523442</ele>
        <time>2020-09-18T07:22:08.901Z</time>
      </trkpt>
      <trkpt lat="48.586157" lon="16.650384">
        <ele>231.481864</ele>
        <time>2020-09-18T07:22:10.912Z</time>
      </trkpt>
      <trkpt lat="48.586244" lon="16.650452">
        <ele>231.449934</ele>
        <time>2020-09-18T07:22:12.902Z</time>
      </trkpt>
      <trkpt lat="48.586328" lon="16.650527">
        <ele>231.418129</ele>
        <time>2020-09-18T07:22:14.902Z</time>
      </trkpt>
      <trkpt lat="48.586410" lon="16.650597">
        <ele>231.387428</ele>
        <time>2020-09-18T07:22:16.904Z</time>
      </trkpt>
      <trkpt lat="48.586494" lon="16.650671">
        <ele>231.355732</ele>
        <time>2020-09-18T07:22:18.896Z</time>
      </trkpt>
      <trkpt lat="48.586577" lon="16.650751">
        <ele>231.323641</ele>
        <time>2020-09-18T07:22:20.901Z</time>
      </trkpt>
      <trkpt lat="48.586654" lon="16.650838">
        <ele>231.292301</ele>
        <time>2020-09-18T07:22:22.905Z</time>
      </trkpt>
      <trkpt lat="48.586730" lon="16.650930">
        <ele>231.260559</ele>
        <time>2020-09-18T07:22:24.933Z</time>
      </trkpt>
      <trkpt lat="48.586803" lon="16.651031">
        <ele>231.228298</ele>
        <time>2020-09-18T07:22:26.926Z</time>
      </trkpt>
      <trkpt lat="48.586871" lon="16.651140">
        <ele>231.195987</ele>
        <time>2020-09-18T07:22:28.913Z</time>
      </trkpt>
      <trkpt lat="48.586942" lon="16.651246">
        <ele>231.163455</ele>
        <time>2020-09-18T07:22:30.904Z</time>
      </trkpt>
      <trkpt lat="48.587013" lon="16.651354">
        <ele>231.130618</ele>
        <time>2020-09-18T07:22:32.905Z</time>
      </trkpt>
      <trkpt lat="48.587082" lon="16.651467">
        <ele>231.097454</ele>
        <time>2020-09-18T07:22:34.925Z</time>
      </trkpt>
      <trkpt lat="48.587147" lon="16.651582">
        <ele>231.064833</ele>
        <time>2020-09-18T07:22:36.921Z</time>
      </trkpt>
      <trkpt lat="48.587207" lon="16.651687">
        <ele>231.034911</ele>
        <time>2020-09-18T07:22:38.922Z</time>
      </trkpt>
      <trkpt lat="48.587295" lon="16.651836">
        <ele>230.991835</ele>
        <time>2020-09-18T07:22:41.896Z</time>
      </trkpt>
      <trkpt lat="48.587356" lon="16.651938">
        <ele>230.962181</ele>
        <time>2020-09-18T07:22:43.929Z</time>
      </trkpt>
      <trkpt lat="48.587443" lon="16.652089">
        <ele>230.918997</ele>
        <time>2020-09-18T07:22:46.907Z</time>
      </trkpt>
      <trkpt lat="48.587529" lon="16.652237">
        <ele>230.878134</ele>
        <time>2020-09-18T07:22:49.897Z</time>
      </trkpt>
      <trkpt lat="48.587617" lon="16.652381">
        <ele>230.838027</ele>
        <time>2020-09-18T07:22:52.905Z</time>
      </trkpt>
      <trkpt lat="48.587703" lon="16.652527">
        <ele>230.798033</ele>
        <time>2020-09-18T07:22:55.922Z</time>
      </trkpt>
      <trkpt lat="48.587797" lon="16.652669">
        <ele>230.756936</ele>
        <time>2020-09-18T07:22:58.904Z</time>
      </trkpt>
      <trkpt lat="48.587864" lon="16.652762">
        <ele>230.728805</ele>
        <time>2020-09-18T07:23:00.895Z</time>
      </trkpt>
      <trkpt lat="48.587935" lon="16.652849">
        <ele>230.700540</ele>
        <time>2020-09-18T07:23:02.908Z</time>
      </trkpt>
      <trkpt lat="48.588030" lon="16.652975">
        <ele>230.661455</ele>
        <time>2020-09-18T07:23:05.940Z</time>
      </trkpt>
      <trkpt lat="48.588104" lon="16.653112">
        <ele>230.625271</ele>
        <time>2020-09-18T07:23:08.910Z</time>
      </trkpt>
      <trkpt lat="48.588169" lon="16.653270">
        <ele>230.587207</ele>
        <time>2020-09-18T07:23:11.906Z</time>
      </trkpt>
      <trkpt lat="48.588212" lon="16.653405">
        <ele>230.556555</ele>
        <time>2020-09-18T07:23:13.922Z</time>
      </trkpt>
      <trkpt lat="48.588258" lon="16.653556">
        <ele>230.522546</ele>
        <time>2020-09-18T07:23:15.902Z</time>
      </trkpt>
      <trkpt lat="48.588305" lon="16.653709">
        <ele>230.488036</ele>
        <time>2020-09-18T07:23:17.893Z</time>
      </trkpt>
      <trkpt lat="48.588349" lon="16.653860">
        <ele>230.454281</ele>
        <time>2020-09-18T07:23:19.905Z</time>
      </trkpt>
      <trkpt lat="48.588389" lon="16.654010">
        <ele>230.421196</ele>
        <time>2020-09-18T07:23:21.938Z</time>
      </trkpt>
      <trkpt lat="48.588426" lon="16.654164">
        <ele>230.387678</ele>
        <time>2020-09-18T07:23:23.901Z</time>
      </trkpt>
      <trkpt lat="48.588455" lon="16.654316">
        <ele>230.355315</ele>
        <time>2020-09-18T07:23:25.904Z</time>
      </trkpt>
      <trkpt lat="48.588477" lon="16.654455">
        <ele>230.329153</ele>
        <time>2020-09-18T07:23:27.892Z</time>
      </trkpt>
      <trkpt lat="48.588500" lon="16.654591">
        <ele>230.303875</ele>
        <time>2020-09-18T07:23:29.926Z</time>
      </trkpt>
      <trkpt lat="48.588512" lon="16.654727">
        <ele>230.279167</ele>
        <time>2020-09-18T07:23:31.902Z</time>
      </trkpt>
      <trkpt lat="48.588521" lon="16.654865">
        <ele>230.254196</ele>
        <time>2020-09-18T07:23:33.920Z</time>
      </trkpt>
      <trkpt lat="48.588527" lon="16.655066">
        <ele>230.217964</ele>
        <time>2020-09-18T07:23:36.918Z</time>
      </trkpt>
      <trkpt lat="48.588530" lon="16.655267">
        <ele>230.181760</ele>
        <time>2020-09-18T07:23:39.898Z</time>
      </trkpt>
      <trkpt lat="48.588534" lon="16.655471">
        <ele>230.145008</ele>
        <time>2020-09-18T07:23:42.920Z</time>
      </trkpt>
      <trkpt lat="48.588539" lon="16.655615">
        <ele>230.119041</ele>
        <time>2020-09-18T07:23:44.934Z</time>
      </trkpt>
      <trkpt lat="48.588547" lon="16.655762">
        <ele>230.092480</ele>
        <time>2020-09-18T07:23:46.926Z</time>
      </trkpt>
      <trkpt lat="48.588555" lon="16.655911">
        <ele>230.065561</ele>
        <time>2020-09-18T07:23:48.921Z</time>
      </trkpt>
      <trkpt lat="48.588562" lon="16.656056">
        <ele>230.039380</ele>
        <time>2020-09-18T07:23:50.918Z</time>
      </trkpt>
      <trkpt lat="48.588570" lon="16.656198">
        <ele>230.013717</ele>
        <time>2020-09-18T07:23:52.940Z</time>
      </trkpt>
      <trkpt lat="48.588579" lon="16.656337">
        <ele>229.988566</ele>
        <time>2020-09-18T07:23:54.906Z</time>
      </trkpt>
      <trkpt lat="48.588588" lon="16.656476">
        <ele>229.963416</ele>
        <time>2020-09-18T07:23:56.934Z</time>
      </trkpt>
      <trkpt lat="48.588597" lon="16.656611">
        <ele>229.938983</ele>
        <time>2020-09-18T07:23:58.912Z</time>
      </trkpt>
      <trkpt lat="48.588604" lon="16.656748">
        <ele>229.914239</ele>
        <time>2020-09-18T07:24:00.907Z</time>
      </trkpt>
      <trkpt lat="48.588615" lon="16.656887">
        <ele>229.889030</ele>
        <time>2020-09-18T07:24:02.895Z</time>
      </trkpt>
      <trkpt lat="48.588627" lon="16.657035">
        <ele>229.862179</ele>
        <time>2020-09-18T07:24:04.914Z</time>
      </trkpt>
      <trkpt lat="48.588632" lon="16.657180">
        <ele>229.850373</ele>
        <time>2020-09-18T07:24:06.904Z</time>
      </trkpt>
      <trkpt lat="48.588635" lon="16.657319">
        <ele>229.839105</ele>
        <time>2020-09-18T07:24:08.898Z</time>
      </trkpt>
      <trkpt lat="48.588639" lon="16.657457">
        <ele>229.827913</ele>
        <time>2020-09-18T07:24:10.903Z</time>
      </trkpt>
      <trkpt lat="48.588651" lon="16.657598">
        <ele>229.816394</ele>
        <time>2020-09-18T07:24:12.913Z</time>
      </trkpt>
      <trkpt lat="48.588667" lon="16.657738">
        <ele>229.804883</ele>
        <time>2020-09-18T07:24:14.923Z</time>
      </trkpt>
      <trkpt lat="48.588690" lon="16.657874">
        <ele>229.793509</ele>
        <time>2020-09-18T07:24:16.909Z</time>
      </trkpt>
      <trkpt lat="48.588712" lon="16.658010">
        <ele>229.782166</ele>
        <time>2020-09-18T07:24:18.911Z</time>
      </trkpt>
      <trkpt lat="48.588735" lon="16.658152">
        <ele>229.770320</ele>
        <time>2020-09-18T07:24:20.938Z</time>
      </trkpt>
      <trkpt lat="48.588757" lon="16.658294">
        <ele>229.758504</ele>
        <time>2020-09-18T07:24:22.906Z</time>
      </trkpt>
      <trkpt lat="48.588785" lon="16.658433">
        <ele>229.746731</ele>
        <time>2020-09-18T07:24:24.947Z</time>
      </trkpt>
      <trkpt lat="48.588813" lon="16.658565">
        <ele>229.735499</ele>
        <time>2020-09-18T07:24:26.903Z</time>
      </trkpt>
      <trkpt lat="48.588861" lon="16.658758">
        <ele>229.718793</ele>
        <time>2020-09-18T07:24:29.917Z</time>
      </trkpt>
      <trkpt lat="48.588892" lon="16.658898">
        <ele>229.706831</ele>
        <time>2020-09-18T07:24:31.900Z</time>
      </trkpt>
      <trkpt lat="48.588925" lon="16.659030">
        <ele>229.695398</ele>
        <time>2020-09-18T07:24:33.893Z</time>
      </trkpt>
      <trkpt lat="48.588962" lon="16.659159">
        <ele>229.684006</ele>
        <time>2020-09-18T07:24:35.930Z</time>
      </trkpt>
      <trkpt lat="48.589010" lon="16.659278">
        <ele>229.672713</ele>
        <time>2020-09-18T07:24:37.929Z</time>
      </trkpt>
      <trkpt lat="48.589056" lon="16.659399">
        <ele>229.661405</ele>
        <time>2020-09-18T07:24:39.906Z</time>
      </trkpt>
      <trkpt lat="48.589104" lon="16.659516">
        <ele>229.650250</ele>
        <time>2020-09-18T07:24:41.905Z</time>
      </trkpt>
      <trkpt lat="48.589153" lon="16.659633">
        <ele>229.640123</ele>
        <time>2020-09-18T07:24:43.901Z</time>
      </trkpt>
      <trkpt lat="48.589205" lon="16.659751">
        <ele>229.633191</ele>
        <time>2020-09-18T07:24:45.921Z</time>
      </trkpt>
      <trkpt lat="48.589252" lon="16.659874">
        <ele>229.626247</ele>
        <time>2020-09-18T07:24:47.911Z</time>
      </trkpt>
      <trkpt lat="48.589299" lon="16.659993">
        <ele>229.619471</ele>
        <time>2020-09-18T07:24:49.922Z</time>
      </trkpt>
      <trkpt lat="48.589373" lon="16.660160">
        <ele>229.609644</ele>
        <time>2020-09-18T07:24:52.902Z</time>
      </trkpt>
      <trkpt lat="48.589459" lon="16.660312">
        <ele>229.599866</ele>
        <time>2020-09-18T07:24:55.923Z</time>
      </trkpt>
      <trkpt lat="48.589525" lon="16.660417">
        <ele>229.592785</ele>
        <time>2020-09-18T07:24:57.918Z</time>
      </trkpt>
      <trkpt lat="48.589590" lon="16.660514">
        <ele>229.586035</ele>
        <time>2020-09-18T07:24:59.921Z</time>
      </trkpt>
      <trkpt lat="48.589683" lon="16.660644">
        <ele>229.576673</ele>
        <time>2020-09-18T07:25:02.897Z</time>
      </trkpt>
      <trkpt lat="48.589747" lon="16.660751">
        <ele>229.569621</ele>
        <time>2020-09-18T07:25:05.911Z</time>
      </trkpt>
      <trkpt lat="48.589810" lon="16.660884">
        <ele>229.561624</ele>
        <time>2020-09-18T07:25:09.909Z</time>
      </trkpt>
      <trkpt lat="48.589810" lon="16.661042">
        <ele>229.553900</ele>
        <time>2020-09-18T07:25:12.912Z</time>
      </trkpt>
      <trkpt lat="48.589771" lon="16.661203">
        <ele>229.545518</ele>
        <time>2020-09-18T07:25:15.919Z</time>
      </trkpt>
      <trkpt lat="48.589747" lon="16.661381">
        <ele>229.536637</ele>
        <time>2020-09-18T07:25:18.895Z</time>
      </trkpt>
      <trkpt lat="48.589736" lon="16.661557">
        <ele>229.527995</ele>
        <time>2020-09-18T07:25:21.926Z</time>
      </trkpt>
      <trkpt lat="48.589735" lon="16.661755">
        <ele>229.518315</ele>
        <time>2020-09-18T07:25:24.902Z</time>
      </trkpt>
      <trkpt lat="48.589750" lon="16.661900">
        <ele>229.511140</ele>
        <time>2020-09-18T07:25:26.915Z</time>
      </trkpt>
      <trkpt lat="48.589777" lon="16.662055">
        <ele>229.490657</ele>
        <time>2020-09-18T07:25:28.886Z</time>
      </trkpt>
      <trkpt lat="48.589813" lon="16.662212">
        <ele>229.464007</ele>
        <time>2020-09-18T07:25:30.899Z</time>
      </trkpt>
      <trkpt lat="48.589855" lon="16.662374">
        <ele>229.436101</ele>
        <time>2020-09-18T07:25:32.908Z</time>
      </trkpt>
      <trkpt lat="48.589900" lon="16.662533">
        <ele>229.408364</ele>
        <time>2020-09-18T07:25:34.910Z</time>
      </trkpt>
      <trkpt lat="48.589943" lon="16.662690">
        <ele>229.381112</ele>
        <time>2020-09-18T07:25:36.907Z</time>
      </trkpt>
      <trkpt lat="48.589987" lon="16.662850">
        <ele>229.353322</ele>
        <time>2020-09-18T07:25:38.978Z</time>
      </trkpt>
      <trkpt lat="48.590031" lon="16.663005">
        <ele>229.326270</ele>
        <time>2020-09-18T07:25:40.903Z</time>
      </trkpt>
      <trkpt lat="48.590077" lon="16.663154">
        <ele>229.299899</ele>
        <time>2020-09-18T07:25:42.923Z</time>
      </trkpt>
      <trkpt lat="48.590126" lon="16.663304">
        <ele>229.273068</ele>
        <time>2020-09-18T07:25:44.910Z</time>
      </trkpt>
      <trkpt lat="48.590173" lon="16.663450">
        <ele>229.247027</ele>
        <time>2020-09-18T07:25:46.901Z</time>
      </trkpt>
      <trkpt lat="48.590215" lon="16.663596">
        <ele>229.221493</ele>
        <time>2020-09-18T07:25:48.904Z</time>
      </trkpt>
      <trkpt lat="48.590256" lon="16.663744">
        <ele>229.195760</ele>
        <time>2020-09-18T07:25:50.914Z</time>
      </trkpt>
      <trkpt lat="48.590300" lon="16.663888">
        <ele>229.170320</ele>
        <time>2020-09-18T07:25:52.913Z</time>
      </trkpt>
      <trkpt lat="48.590348" lon="16.664031">
        <ele>229.144602</ele>
        <time>2020-09-18T07:25:54.913Z</time>
      </trkpt>
      <trkpt lat="48.590391" lon="16.664181">
        <ele>229.118383</ele>
        <time>2020-09-18T07:25:56.934Z</time>
      </trkpt>
      <trkpt lat="48.590433" lon="16.664328">
        <ele>229.092702</ele>
        <time>2020-09-18T07:25:58.932Z</time>
      </trkpt>
      <trkpt lat="48.590471" lon="16.664469">
        <ele>229.070207</ele>
        <time>2020-09-18T07:26:00.924Z</time>
      </trkpt>
      <trkpt lat="48.590508" lon="16.664608">
        <ele>229.056554</ele>
        <time>2020-09-18T07:26:02.931Z</time>
      </trkpt>
      <trkpt lat="48.590548" lon="16.664747">
        <ele>229.042741</ele>
        <time>2020-09-18T07:26:04.938Z</time>
      </trkpt>
      <trkpt lat="48.590591" lon="16.664886">
        <ele>229.028758</ele>
        <time>2020-09-18T07:26:06.920Z</time>
      </trkpt>
      <trkpt lat="48.590635" lon="16.665023">
        <ele>229.014881</ele>
        <time>2020-09-18T07:26:08.902Z</time>
      </trkpt>
      <trkpt lat="48.590681" lon="16.665156">
        <ele>229.001205</ele>
        <time>2020-09-18T07:26:10.895Z</time>
      </trkpt>
      <trkpt lat="48.590727" lon="16.665290">
        <ele>228.987448</ele>
        <time>2020-09-18T07:26:12.907Z</time>
      </trkpt>
      <trkpt lat="48.590767" lon="16.665416">
        <ele>228.974713</ele>
        <time>2020-09-18T07:26:14.915Z</time>
      </trkpt>
      <trkpt lat="48.590805" lon="16.665540">
        <ele>228.962260</ele>
        <time>2020-09-18T07:26:16.914Z</time>
      </trkpt>
      <trkpt lat="48.590862" lon="16.665723">
        <ele>228.943829</ele>
        <time>2020-09-18T07:26:19.899Z</time>
      </trkpt>
      <trkpt lat="48.590920" lon="16.665893">
        <ele>228.926399</ele>
        <time>2020-09-18T07:26:22.898Z</time>
      </trkpt>
      <trkpt lat="48.590972" lon="16.666060">
        <ele>228.909580</ele>
        <time>2020-09-18T07:26:25.933Z</time>
      </trkpt>
      <trkpt lat="48.591024" lon="16.666226">
        <ele>228.892844</ele>
        <time>2020-09-18T07:26:28.891Z</time>
      </trkpt>
      <trkpt lat="48.591076" lon="16.666392">
        <ele>228.876107</ele>
        <time>2020-09-18T07:26:31.915Z</time>
      </trkpt>
      <trkpt lat="48.591138" lon="16.666547">
        <ele>228.859602</ele>
        <time>2020-09-18T07:26:34.912Z</time>
      </trkpt>
      <trkpt lat="48.591224" lon="16.666682">
        <ele>228.842523</ele>
        <time>2020-09-18T07:26:37.890Z</time>
      </trkpt>
      <trkpt lat="48.591317" lon="16.666802">
        <ele>228.825679</ele>
        <time>2020-09-18T07:26:40.908Z</time>
      </trkpt>
      <trkpt lat="48.591417" lon="16.666909">
        <ele>228.833663</ele>
        <time>2020-09-18T07:26:43.935Z</time>
      </trkpt>
      <trkpt lat="48.591531" lon="16.666984">
        <ele>228.842904</ele>
        <time>2020-09-18T07:26:46.927Z</time>
      </trkpt>
      <trkpt lat="48.591643" lon="16.667054">
        <ele>228.851911</ele>
        <time>2020-09-18T07:26:49.927Z</time>
      </trkpt>
      <trkpt lat="48.591744" lon="16.667149">
        <ele>228.860752</ele>
        <time>2020-09-18T07:26:52.927Z</time>
      </trkpt>
      <trkpt lat="48.591853" lon="16.667255">
        <ele>228.870385</ele>
        <time>2020-09-18T07:26:55.916Z</time>
      </trkpt>
      <trkpt lat="48.591928" lon="16.667334">
        <ele>228.877179</ele>
        <time>2020-09-18T07:26:57.904Z</time>
      </trkpt>
      <trkpt lat="48.592013" lon="16.667423">
        <ele>228.884863</ele>
        <time>2020-09-18T07:26:59.912Z</time>
      </trkpt>
      <trkpt lat="48.592105" lon="16.667523">
        <ele>228.893285</ele>
        <time>2020-09-18T07:27:01.893Z</time>
      </trkpt>
      <trkpt lat="48.592199" lon="16.667621">
        <ele>228.901771</ele>
        <time>2020-09-18T07:27:03.928Z</time>
      </trkpt>
      <trkpt lat="48.592294" lon="16.667720">
        <ele>228.910347</ele>
        <time>2020-09-18T07:27:05.930Z</time>
      </trkpt>
      <trkpt lat="48.592387" lon="16.667825">
        <ele>228.918974</ele>
        <time>2020-09-18T07:27:07.909Z</time>
      </trkpt>
      <trkpt lat="48.592474" lon="16.667928">
        <ele>228.927186</ele>
        <time>2020-09-18T07:27:09.902Z</time>
      </trkpt>
      <trkpt lat="48.592544" lon="16.668033">
        <ele>228.934515</ele>
        <time>2020-09-18T07:27:11.914Z</time>
      </trkpt>
      <trkpt lat="48.592619" lon="16.668185">
        <ele>228.943837</ele>
        <time>2020-09-18T07:27:14.912Z</time>
      </trkpt>
      <trkpt lat="48.592681" lon="16.668337">
        <ele>228.952616</ele>
        <time>2020-09-18T07:27:17.935Z</time>
      </trkpt>
      <trkpt lat="48.592738" lon="16.668498">
        <ele>228.962819</ele>
        <time>2020-09-18T07:27:20.915Z</time>
      </trkpt>
      <trkpt lat="48.592795" lon="16.668669">
        <ele>228.976129</ele>
        <time>2020-09-18T07:27:23.902Z</time>
      </trkpt>
      <trkpt lat="48.592838" lon="16.668789">
        <ele>228.985616</ele>
        <time>2020-09-18T07:27:25.896Z</time>
      </trkpt>
      <trkpt lat="48.592882" lon="16.668919">
        <ele>228.995767</ele>
        <time>2020-09-18T07:27:27.924Z</time>
      </trkpt>
      <trkpt lat="48.592929" lon="16.669055">
        <ele>229.006434</ele>
        <time>2020-09-18T07:27:29.924Z</time>
      </trkpt>
      <trkpt lat="48.592977" lon="16.669203">
        <ele>229.017892</ele>
        <time>2020-09-18T07:27:31.904Z</time>
      </trkpt>
      <trkpt lat="48.593025" lon="16.669354">
        <ele>229.029537</ele>
        <time>2020-09-18T07:27:33.916Z</time>
      </trkpt>
      <trkpt lat="48.593079" lon="16.669512">
        <ele>229.041900</ele>
        <time>2020-09-18T07:27:35.895Z</time>
      </trkpt>
      <trkpt lat="48.593137" lon="16.669665">
        <ele>229.054158</ele>
        <time>2020-09-18T07:27:37.929Z</time>
      </trkpt>
      <trkpt lat="48.593203" lon="16.669825">
        <ele>229.067266</ele>
        <time>2020-09-18T07:27:39.918Z</time>
      </trkpt>
      <trkpt lat="48.593272" lon="16.669991">
        <ele>229.080894</ele>
        <time>2020-09-18T07:27:41.913Z</time>
      </trkpt>
      <trkpt lat="48.593346" lon="16.670148">
        <ele>229.094295</ele>
        <time>2020-09-18T07:27:43.910Z</time>
      </trkpt>
      <trkpt lat="48.593414" lon="16.670302">
        <ele>229.107166</ele>
        <time>2020-09-18T07:27:45.906Z</time>
      </trkpt>
      <trkpt lat="48.593476" lon="16.670462">
        <ele>229.120056</ele>
        <time>2020-09-18T07:27:47.916Z</time>
      </trkpt>
      <trkpt lat="48.593531" lon="16.670626">
        <ele>229.132838</ele>
        <time>2020-09-18T07:27:49.919Z</time>
      </trkpt>
      <trkpt lat="48.593567" lon="16.670792">
        <ele>229.144981</ele>
        <time>2020-09-18T07:27:51.899Z</time>
      </trkpt>
      <trkpt lat="48.593579" lon="16.670956">
        <ele>229.176811</ele>
        <time>2020-09-18T07:27:53.899Z</time>
      </trkpt>
      <trkpt lat="48.593586" lon="16.671111">
        <ele>229.212642</ele>
        <time>2020-09-18T07:27:55.916Z</time>
      </trkpt>
      <trkpt lat="48.593602" lon="16.671256">
        <ele>229.246546</ele>
        <time>2020-09-18T07:27:57.920Z</time>
      </trkpt>
      <trkpt lat="48.593626" lon="16.671394">
        <ele>229.279455</ele>
        <time>2020-09-18T07:27:59.896Z</time>
      </trkpt>
      <trkpt lat="48.593655" lon="16.671524">
        <ele>229.311096</ele>
        <time>2020-09-18T07:28:01.902Z</time>
      </trkpt>
      <trkpt lat="48.593702" lon="16.671709">
        <ele>229.356803</ele>
        <time>2020-09-18T07:28:04.915Z</time>
      </trkpt>
      <trkpt lat="48.593740" lon="16.671895">
        <ele>229.401700</ele>
        <time>2020-09-18T07:28:07.892Z</time>
      </trkpt>
      <trkpt lat="48.593769" lon="16.672075">
        <ele>229.444427</ele>
        <time>2020-09-18T07:28:10.902Z</time>
      </trkpt>
      <trkpt lat="48.593791" lon="16.672248">
        <ele>229.485057</ele>
        <time>2020-09-18T07:28:13.912Z</time>
      </trkpt>
      <trkpt lat="48.593771" lon="16.672428">
        <ele>229.527152</ele>
        <time>2020-09-18T07:28:16.891Z</time>
      </trkpt>
      <trkpt lat="48.593728" lon="16.672610">
        <ele>229.571725</ele>
        <time>2020-09-18T07:28:19.911Z</time>
      </trkpt>
      <trkpt lat="48.593735" lon="16.672746">
        <ele>229.603186</ele>
        <time>2020-09-18T07:28:21.910Z</time>
      </trkpt>
      <trkpt lat="48.593741" lon="16.672884">
        <ele>229.635081</ele>
        <time>2020-09-18T07:28:23.896Z</time>
      </trkpt>
      <trkpt lat="48.593749" lon="16.673083">
        <ele>229.681062</ele>
        <time>2020-09-18T07:28:26.924Z</time>
      </trkpt>
      <trkpt lat="48.593768" lon="16.673280">
        <ele>229.726976</ele>
        <time>2020-09-18T07:28:29.901Z</time>
      </trkpt>
      <trkpt lat="48.593793" lon="16.673416">
        <ele>229.759531</ele>
        <time>2020-09-18T07:28:31.915Z</time>
      </trkpt>
      <trkpt lat="48.593822" lon="16.673554">
        <ele>229.766794</ele>
        <time>2020-09-18T07:28:33.905Z</time>
      </trkpt>
      <trkpt lat="48.593852" lon="16.673688">
        <ele>229.752224</ele>
        <time>2020-09-18T07:28:35.901Z</time>
      </trkpt>
      <trkpt lat="48.593885" lon="16.673823">
        <ele>229.737402</ele>
        <time>2020-09-18T07:28:37.920Z</time>
      </trkpt>
      <trkpt lat="48.593910" lon="16.673957">
        <ele>229.723063</ele>
        <time>2020-09-18T07:28:39.907Z</time>
      </trkpt>
      <trkpt lat="48.593938" lon="16.674154">
        <ele>229.702311</ele>
        <time>2020-09-18T07:28:42.898Z</time>
      </trkpt>
      <trkpt lat="48.593960" lon="16.674291">
        <ele>229.687792</ele>
        <time>2020-09-18T07:28:44.904Z</time>
      </trkpt>
      <trkpt lat="48.593986" lon="16.674431">
        <ele>229.672816</ele>
        <time>2020-09-18T07:28:46.935Z</time>
      </trkpt>
      <trkpt lat="48.594013" lon="16.674566">
        <ele>229.658291</ele>
        <time>2020-09-18T07:28:48.890Z</time>
      </trkpt>
      <trkpt lat="48.594053" lon="16.674757">
        <ele>229.637658</ele>
        <time>2020-09-18T07:28:51.934Z</time>
      </trkpt>
      <trkpt lat="48.594094" lon="16.674945">
        <ele>229.617271</ele>
        <time>2020-09-18T07:28:54.902Z</time>
      </trkpt>
      <trkpt lat="48.594130" lon="16.675135">
        <ele>229.596917</ele>
        <time>2020-09-18T07:28:57.912Z</time>
      </trkpt>
      <trkpt lat="48.594152" lon="16.675269">
        <ele>229.582698</ele>
        <time>2020-09-18T07:28:59.915Z</time>
      </trkpt>
      <trkpt lat="48.594175" lon="16.675463">
        <ele>229.562400</ele>
        <time>2020-09-18T07:29:02.903Z</time>
      </trkpt>
      <trkpt lat="48.594198" lon="16.675648">
        <ele>229.543014</ele>
        <time>2020-09-18T07:29:05.902Z</time>
      </trkpt>
      <trkpt lat="48.594219" lon="16.675840">
        <ele>229.522972</ele>
        <time>2020-09-18T07:29:08.904Z</time>
      </trkpt>
      <trkpt lat="48.594229" lon="16.675975">
        <ele>229.508982</ele>
        <time>2020-09-18T07:29:10.887Z</time>
      </trkpt>
      <trkpt lat="48.594242" lon="16.676113">
        <ele>229.494392</ele>
        <time>2020-09-18T07:29:12.901Z</time>
      </trkpt>
      <trkpt lat="48.594251" lon="16.676251">
        <ele>229.459595</ele>
        <time>2020-09-18T07:29:14.930Z</time>
      </trkpt>
      <trkpt lat="48.594265" lon="16.676389">
        <ele>229.424562</ele>
        <time>2020-09-18T07:29:16.906Z</time>
      </trkpt>
      <trkpt lat="48.594281" lon="16.676537">
        <ele>229.386931</ele>
        <time>2020-09-18T07:29:18.919Z</time>
      </trkpt>
      <trkpt lat="48.594299" lon="16.676700">
        <ele>229.345463</ele>
        <time>2020-09-18T07:29:20.935Z</time>
      </trkpt>
      <trkpt lat="48.594315" lon="16.676873">
        <ele>229.301629</ele>
        <time>2020-09-18T07:29:22.900Z</time>
      </trkpt>
      <trkpt lat="48.594320" lon="16.677045">
        <ele>229.258427</ele>
        <time>2020-09-18T07:29:24.901Z</time>
      </trkpt>
      <trkpt lat="48.594320" lon="16.677219">
        <ele>229.214765</ele>
        <time>2020-09-18T07:29:26.905Z</time>
      </trkpt>
      <trkpt lat="48.594319" lon="16.677392">
        <ele>229.171352</ele>
        <time>2020-09-18T07:29:28.942Z</time>
      </trkpt>
      <trkpt lat="48.594318" lon="16.677562">
        <ele>229.128692</ele>
        <time>2020-09-18T07:29:30.909Z</time>
      </trkpt>
      <trkpt lat="48.594323" lon="16.677729">
        <ele>229.086743</ele>
        <time>2020-09-18T07:29:32.904Z</time>
      </trkpt>
      <trkpt lat="48.594330" lon="16.677892">
        <ele>229.045755</ele>
        <time>2020-09-18T07:29:34.909Z</time>
      </trkpt>
      <trkpt lat="48.594340" lon="16.678051">
        <ele>229.005677</ele>
        <time>2020-09-18T07:29:36.903Z</time>
      </trkpt>
      <trkpt lat="48.594350" lon="16.678217">
        <ele>228.963850</ele>
        <time>2020-09-18T07:29:38.894Z</time>
      </trkpt>
      <trkpt lat="48.594371" lon="16.678380">
        <ele>228.922179</ele>
        <time>2020-09-18T07:29:40.902Z</time>
      </trkpt>
      <trkpt lat="48.594397" lon="16.678540">
        <ele>228.880836</ele>
        <time>2020-09-18T07:29:42.903Z</time>
      </trkpt>
      <trkpt lat="48.594423" lon="16.678692">
        <ele>228.841439</ele>
        <time>2020-09-18T07:29:44.926Z</time>
      </trkpt>
      <trkpt lat="48.594451" lon="16.678845">
        <ele>228.798402</ele>
        <time>2020-09-18T07:29:46.908Z</time>
      </trkpt>
      <trkpt lat="48.594477" lon="16.678995">
        <ele>228.747928</ele>
        <time>2020-09-18T07:29:48.904Z</time>
      </trkpt>
      <trkpt lat="48.594503" lon="16.679148">
        <ele>228.696508</ele>
        <time>2020-09-18T07:29:50.919Z</time>
      </trkpt>
      <trkpt lat="48.594543" lon="16.679294">
        <ele>228.645068</ele>
        <time>2020-09-18T07:29:52.898Z</time>
      </trkpt>
      <trkpt lat="48.594583" lon="16.679446">
        <ele>228.591819</ele>
        <time>2020-09-18T07:29:54.898Z</time>
      </trkpt>
      <trkpt lat="48.594627" lon="16.679602">
        <ele>228.536616</ele>
        <time>2020-09-18T07:29:56.914Z</time>
      </trkpt>
      <trkpt lat="48.594666" lon="16.679766">
        <ele>228.479887</ele>
        <time>2020-09-18T07:29:58.913Z</time>
      </trkpt>
      <trkpt lat="48.594699" lon="16.679929">
        <ele>228.424400</ele>
        <time>2020-09-18T07:30:00.923Z</time>
      </trkpt>
      <trkpt lat="48.594713" lon="16.680086">
        <ele>228.372834</ele>
        <time>2020-09-18T07:30:02.930Z</time>
      </trkpt>
      <trkpt lat="48.594723" lon="16.680238">
        <ele>228.323113</ele>
        <time>2020-09-18T07:30:04.914Z</time>
      </trkpt>
      <trkpt lat="48.594729" lon="16.680386">
        <ele>228.274848</ele>
        <time>2020-09-18T07:30:06.890Z</time>
      </trkpt>
      <trkpt lat="48.594734" lon="16.680533">
        <ele>228.226936</ele>
        <time>2020-09-18T07:30:08.916Z</time>
      </trkpt>
      <trkpt lat="48.594738" lon="16.680683">
        <ele>228.178071</ele>
        <time>2020-09-18T07:30:10.904Z</time>
      </trkpt>
      <trkpt lat="48.594742" lon="16.680828">
        <ele>228.130832</ele>
        <time>2020-09-18T07:30:12.904Z</time>
      </trkpt>
      <trkpt lat="48.594745" lon="16.680972">
        <ele>228.083937</ele>
        <time>2020-09-18T07:30:14.916Z</time>
      </trkpt>
      <trkpt lat="48.594749" lon="16.681115">
        <ele>228.037348</ele>
        <time>2020-09-18T07:30:16.895Z</time>
      </trkpt>
      <trkpt lat="48.594757" lon="16.681256">
        <ele>227.991284</ele>
        <time>2020-09-18T07:30:18.912Z</time>
      </trkpt>
      <trkpt lat="48.594767" lon="16.681399">
        <ele>227.944477</ele>
        <time>2020-09-18T07:30:20.907Z</time>
      </trkpt>
      <trkpt lat="48.594777" lon="16.681541">
        <ele>227.907248</ele>
        <time>2020-09-18T07:30:22.919Z</time>
      </trkpt>
      <trkpt lat="48.594793" lon="16.681679">
        <ele>227.876111</ele>
        <time>2020-09-18T07:30:24.898Z</time>
      </trkpt>
      <trkpt lat="48.594815" lon="16.681814">
        <ele>227.845211</ele>
        <time>2020-09-18T07:30:26.943Z</time>
      </trkpt>
      <trkpt lat="48.594853" lon="16.681941">
        <ele>227.814233</ele>
        <time>2020-09-18T07:30:28.895Z</time>
      </trkpt>
      <trkpt lat="48.594905" lon="16.682068">
        <ele>227.781037</ele>
        <time>2020-09-18T07:30:30.900Z</time>
      </trkpt>
      <trkpt lat="48.594955" lon="16.682210">
        <ele>227.745285</ele>
        <time>2020-09-18T07:30:32.911Z</time>
      </trkpt>
      <trkpt lat="48.595002" lon="16.682360">
        <ele>227.708397</ele>
        <time>2020-09-18T07:30:34.918Z</time>
      </trkpt>
      <trkpt lat="48.595044" lon="16.682514">
        <ele>227.671376</ele>
        <time>2020-09-18T07:30:36.917Z</time>
      </trkpt>
      <trkpt lat="48.595083" lon="16.682667">
        <ele>227.634936</ele>
        <time>2020-09-18T07:30:38.925Z</time>
      </trkpt>
      <trkpt lat="48.595118" lon="16.682830">
        <ele>227.596849</ele>
        <time>2020-09-18T07:30:40.910Z</time>
      </trkpt>
      <trkpt lat="48.595147" lon="16.682993">
        <ele>227.559336</ele>
        <time>2020-09-18T07:30:42.916Z</time>
      </trkpt>
      <trkpt lat="48.595170" lon="16.683151">
        <ele>227.523382</ele>
        <time>2020-09-18T07:30:44.915Z</time>
      </trkpt>
      <trkpt lat="48.595186" lon="16.683304">
        <ele>227.488957</ele>
        <time>2020-09-18T07:30:46.910Z</time>
      </trkpt>
      <trkpt lat="48.595195" lon="16.683454">
        <ele>227.455484</ele>
        <time>2020-09-18T07:30:48.900Z</time>
      </trkpt>
      <trkpt lat="48.595199" lon="16.683605">
        <ele>227.421899</ele>
        <time>2020-09-18T07:30:50.914Z</time>
      </trkpt>
      <trkpt lat="48.595197" lon="16.683760">
        <ele>227.387445</ele>
        <time>2020-09-18T07:30:52.900Z</time>
      </trkpt>
      <trkpt lat="48.595192" lon="16.683915">
        <ele>227.352957</ele>
        <time>2020-09-18T07:30:54.907Z</time>
      </trkpt>
      <trkpt lat="48.595184" lon="16.684072">
        <ele>227.318844</ele>
        <time>2020-09-18T07:30:56.918Z</time>
      </trkpt>
      <trkpt lat="48.595175" lon="16.684229">
        <ele>227.290241</ele>
        <time>2020-09-18T07:30:58.915Z</time>
      </trkpt>
      <trkpt lat="48.595166" lon="16.684381">
        <ele>227.262543</ele>
        <time>2020-09-18T07:31:00.930Z</time>
      </trkpt>
      <trkpt lat="48.595161" lon="16.684533">
        <ele>227.234920</ele>
        <time>2020-09-18T07:31:02.892Z</time>
      </trkpt>
      <trkpt lat="48.595147" lon="16.684680">
        <ele>227.207964</ele>
        <time>2020-09-18T07:31:04.891Z</time>
      </trkpt>
      <trkpt lat="48.595136" lon="16.684828">
        <ele>227.180933</ele>
        <time>2020-09-18T07:31:06.915Z</time>
      </trkpt>
      <trkpt lat="48.595128" lon="16.684978">
        <ele>227.153619</ele>
        <time>2020-09-18T07:31:08.913Z</time>
      </trkpt>
      <trkpt lat="48.595123" lon="16.685129">
        <ele>227.126178</ele>
        <time>2020-09-18T07:31:10.902Z</time>
      </trkpt>
      <trkpt lat="48.595119" lon="16.685278">
        <ele>227.099112</ele>
        <time>2020-09-18T07:31:12.900Z</time>
      </trkpt>
      <trkpt lat="48.595118" lon="16.685422">
        <ele>227.072974</ele>
        <time>2020-09-18T07:31:14.917Z</time>
      </trkpt>
      <trkpt lat="48.595131" lon="16.685563">
        <ele>227.047135</ele>
        <time>2020-09-18T07:31:16.938Z</time>
      </trkpt>
      <trkpt lat="48.595141" lon="16.685707">
        <ele>227.020855</ele>
        <time>2020-09-18T07:31:18.908Z</time>
      </trkpt>
      <trkpt lat="48.595161" lon="16.685849">
        <ele>226.994504</ele>
        <time>2020-09-18T07:31:20.898Z</time>
      </trkpt>
      <trkpt lat="48.595190" lon="16.685991">
        <ele>226.967530</ele>
        <time>2020-09-18T07:31:22.892Z</time>
      </trkpt>
      <trkpt lat="48.595222" lon="16.686137">
        <ele>226.939614</ele>
        <time>2020-09-18T07:31:24.911Z</time>
      </trkpt>
      <trkpt lat="48.595261" lon="16.686289">
        <ele>226.910022</ele>
        <time>2020-09-18T07:31:26.905Z</time>
      </trkpt>
      <trkpt lat="48.595305" lon="16.686438">
        <ele>226.880405</ele>
        <time>2020-09-18T07:31:28.950Z</time>
      </trkpt>
      <trkpt lat="48.595346" lon="16.686574">
        <ele>226.853278</ele>
        <time>2020-09-18T07:31:30.921Z</time>
      </trkpt>
      <trkpt lat="48.595390" lon="16.686701">
        <ele>226.827134</ele>
        <time>2020-09-18T07:31:32.916Z</time>
      </trkpt>
      <trkpt lat="48.595436" lon="16.686819">
        <ele>226.800693</ele>
        <time>2020-09-18T07:31:34.895Z</time>
      </trkpt>
      <trkpt lat="48.595506" lon="16.686985">
        <ele>226.762690</ele>
        <time>2020-09-18T07:31:37.903Z</time>
      </trkpt>
      <trkpt lat="48.595574" lon="16.687153">
        <ele>226.724668</ele>
        <time>2020-09-18T07:31:40.893Z</time>
      </trkpt>
      <trkpt lat="48.595621" lon="16.687271">
        <ele>226.698078</ele>
        <time>2020-09-18T07:31:42.894Z</time>
      </trkpt>
      <trkpt lat="48.595673" lon="16.687394">
        <ele>226.669898</ele>
        <time>2020-09-18T07:31:44.906Z</time>
      </trkpt>
      <trkpt lat="48.595722" lon="16.687533">
        <ele>226.639492</ele>
        <time>2020-09-18T07:31:46.920Z</time>
      </trkpt>
      <trkpt lat="48.595772" lon="16.687675">
        <ele>226.608439</ele>
        <time>2020-09-18T07:31:48.891Z</time>
      </trkpt>
      <trkpt lat="48.595822" lon="16.687821">
        <ele>226.576701</ele>
        <time>2020-09-18T07:31:50.923Z</time>
      </trkpt>
      <trkpt lat="48.595874" lon="16.687970">
        <ele>226.544180</ele>
        <time>2020-09-18T07:31:52.944Z</time>
      </trkpt>
      <trkpt lat="48.595929" lon="16.688121">
        <ele>226.510903</ele>
        <time>2020-09-18T07:31:54.901Z</time>
      </trkpt>
      <trkpt lat="48.595986" lon="16.688272">
        <ele>226.477341</ele>
        <time>2020-09-18T07:31:56.926Z</time>
      </trkpt>
      <trkpt lat="48.596046" lon="16.688422">
        <ele>226.443502</ele>
        <time>2020-09-18T07:31:58.919Z</time>
      </trkpt>
      <trkpt lat="48.596107" lon="16.688575">
        <ele>226.409016</ele>
        <time>2020-09-18T07:32:00.934Z</time>
      </trkpt>
      <trkpt lat="48.596162" lon="16.688735">
        <ele>226.374208</ele>
        <time>2020-09-18T07:32:02.917Z</time>
      </trkpt>
      <trkpt lat="48.596217" lon="16.688895">
        <ele>226.339399</ele>
        <time>2020-09-18T07:32:04.904Z</time>
      </trkpt>
      <trkpt lat="48.596267" lon="16.689056">
        <ele>226.305065</ele>
        <time>2020-09-18T07:32:06.899Z</time>
      </trkpt>
      <trkpt lat="48.596316" lon="16.689220">
        <ele>226.260984</ele>
        <time>2020-09-18T07:32:08.911Z</time>
      </trkpt>
      <trkpt lat="48.596362" lon="16.689381">
        <ele>226.217790</ele>
        <time>2020-09-18T07:32:10.912Z</time>
      </trkpt>
      <trkpt lat="48.596407" lon="16.689542">
        <ele>226.174742</ele>
        <time>2020-09-18T07:32:12.903Z</time>
      </trkpt>
      <trkpt lat="48.596441" lon="16.689706">
        <ele>226.132413</ele>
        <time>2020-09-18T07:32:14.921Z</time>
      </trkpt>
      <trkpt lat="48.596462" lon="16.689873">
        <ele>226.090546</ele>
        <time>2020-09-18T07:32:16.941Z</time>
      </trkpt>
      <trkpt lat="48.596476" lon="16.690044">
        <ele>226.048109</ele>
        <time>2020-09-18T07:32:18.902Z</time>
      </trkpt>
      <trkpt lat="48.596487" lon="16.690206">
        <ele>226.008001</ele>
        <time>2020-09-18T07:32:20.921Z</time>
      </trkpt>
      <trkpt lat="48.596497" lon="16.690358">
        <ele>225.970380</ele>
        <time>2020-09-18T07:32:22.915Z</time>
      </trkpt>
      <trkpt lat="48.596507" lon="16.690505">
        <ele>225.933985</ele>
        <time>2020-09-18T07:32:24.914Z</time>
      </trkpt>
      <trkpt lat="48.596512" lon="16.690652">
        <ele>225.897733</ele>
        <time>2020-09-18T07:32:26.906Z</time>
      </trkpt>
      <trkpt lat="48.596498" lon="16.690793">
        <ele>225.862617</ele>
        <time>2020-09-18T07:32:28.911Z</time>
      </trkpt>
      <trkpt lat="48.596476" lon="16.690929">
        <ele>225.828135</ele>
        <time>2020-09-18T07:32:30.897Z</time>
      </trkpt>
      <trkpt lat="48.596451" lon="16.691063">
        <ele>225.793844</ele>
        <time>2020-09-18T07:32:32.920Z</time>
      </trkpt>
      <trkpt lat="48.596428" lon="16.691203">
        <ele>225.758316</ele>
        <time>2020-09-18T07:32:34.903Z</time>
      </trkpt>
      <trkpt lat="48.596406" lon="16.691335">
        <ele>225.724789</ele>
        <time>2020-09-18T07:32:36.925Z</time>
      </trkpt>
      <trkpt lat="48.596379" lon="16.691470">
        <ele>225.690053</ele>
        <time>2020-09-18T07:32:38.906Z</time>
      </trkpt>
      <trkpt lat="48.596355" lon="16.691604">
        <ele>225.655862</ele>
        <time>2020-09-18T07:32:40.896Z</time>
      </trkpt>
      <trkpt lat="48.596335" lon="16.691790">
        <ele>225.616690</ele>
        <time>2020-09-18T07:32:43.890Z</time>
      </trkpt>
      <trkpt lat="48.596337" lon="16.691965">
        <ele>225.586099</ele>
        <time>2020-09-18T07:32:46.950Z</time>
      </trkpt>
      <trkpt lat="48.596342" lon="16.692109">
        <ele>225.560896</ele>
        <time>2020-09-18T07:32:48.881Z</time>
      </trkpt>
      <trkpt lat="48.596345" lon="16.692277">
        <ele>225.531522</ele>
        <time>2020-09-18T07:32:50.899Z</time>
      </trkpt>
      <trkpt lat="48.596349" lon="16.692438">
        <ele>225.503363</ele>
        <time>2020-09-18T07:32:52.929Z</time>
      </trkpt>
      <trkpt lat="48.596357" lon="16.692596">
        <ele>225.475667</ele>
        <time>2020-09-18T07:32:54.941Z</time>
      </trkpt>
      <trkpt lat="48.596387" lon="16.692750">
        <ele>225.447608</ele>
        <time>2020-09-18T07:32:56.924Z</time>
      </trkpt>
      <trkpt lat="48.596430" lon="16.692904">
        <ele>225.418391</ele>
        <time>2020-09-18T07:32:58.901Z</time>
      </trkpt>
      <trkpt lat="48.596497" lon="16.693022">
        <ele>225.391209</ele>
        <time>2020-09-18T07:33:00.896Z</time>
      </trkpt>
      <trkpt lat="48.596583" lon="16.693100">
        <ele>225.364707</ele>
        <time>2020-09-18T07:33:02.894Z</time>
      </trkpt>
      <trkpt lat="48.596681" lon="16.693153">
        <ele>225.337201</ele>
        <time>2020-09-18T07:33:04.899Z</time>
      </trkpt>
      <trkpt lat="48.596784" lon="16.693194">
        <ele>225.309054</ele>
        <time>2020-09-18T07:33:06.892Z</time>
      </trkpt>
      <trkpt lat="48.596885" lon="16.693224">
        <ele>225.281852</ele>
        <time>2020-09-18T07:33:08.903Z</time>
      </trkpt>
      <trkpt lat="48.596984" lon="16.693251">
        <ele>225.255267</ele>
        <time>2020-09-18T07:33:10.900Z</time>
      </trkpt>
      <trkpt lat="48.597074" lon="16.693296">
        <ele>225.230216</ele>
        <time>2020-09-18T07:33:12.901Z</time>
      </trkpt>
      <trkpt lat="48.597167" lon="16.693369">
        <ele>225.202524</ele>
        <time>2020-09-18T07:33:14.899Z</time>
      </trkpt>
      <trkpt lat="48.597250" lon="16.693474">
        <ele>225.173925</ele>
        <time>2020-09-18T07:33:16.896Z</time>
      </trkpt>
      <trkpt lat="48.597329" lon="16.693584">
        <ele>225.145088</ele>
        <time>2020-09-18T07:33:18.902Z</time>
      </trkpt>
      <trkpt lat="48.597406" lon="16.693691">
        <ele>225.116519</ele>
        <time>2020-09-18T07:33:20.919Z</time>
      </trkpt>
      <trkpt lat="48.597480" lon="16.693792">
        <ele>225.089286</ele>
        <time>2020-09-18T07:33:22.902Z</time>
      </trkpt>
      <trkpt lat="48.597555" lon="16.693887">
        <ele>225.062558</ele>
        <time>2020-09-18T07:33:24.923Z</time>
      </trkpt>
      <trkpt lat="48.597628" lon="16.693973">
        <ele>225.037277</ele>
        <time>2020-09-18T07:33:26.916Z</time>
      </trkpt>
      <trkpt lat="48.597705" lon="16.694106">
        <ele>225.005341</ele>
        <time>2020-09-18T07:33:29.903Z</time>
      </trkpt>
      <trkpt lat="48.597757" lon="16.694251">
        <ele>224.975541</ele>
        <time>2020-09-18T07:33:32.933Z</time>
      </trkpt>
      <trkpt lat="48.597805" lon="16.694417">
        <ele>224.942808</ele>
        <time>2020-09-18T07:33:35.925Z</time>
      </trkpt>
      <trkpt lat="48.597848" lon="16.694593">
        <ele>224.908910</ele>
        <time>2020-09-18T07:33:38.901Z</time>
      </trkpt>
      <trkpt lat="48.597886" lon="16.694776">
        <ele>224.874256</ele>
        <time>2020-09-18T07:33:41.904Z</time>
      </trkpt>
      <trkpt lat="48.597927" lon="16.694956">
        <ele>224.839861</ele>
        <time>2020-09-18T07:33:44.916Z</time>
      </trkpt>
      <trkpt lat="48.597977" lon="16.695138">
        <ele>224.804255</ele>
        <time>2020-09-18T07:33:47.912Z</time>
      </trkpt>
      <trkpt lat="48.598010" lon="16.695275">
        <ele>224.777913</ele>
        <time>2020-09-18T07:33:49.902Z</time>
      </trkpt>
      <trkpt lat="48.598046" lon="16.695419">
        <ele>224.750100</ele>
        <time>2020-09-18T07:33:51.906Z</time>
      </trkpt>
      <trkpt lat="48.598089" lon="16.695568">
        <ele>224.720729</ele>
        <time>2020-09-18T07:33:53.927Z</time>
      </trkpt>
      <trkpt lat="48.598133" lon="16.695725">
        <ele>224.689923</ele>
        <time>2020-09-18T07:33:55.903Z</time>
      </trkpt>
      <trkpt lat="48.598181" lon="16.695884">
        <ele>224.658623</ele>
        <time>2020-09-18T07:33:57.914Z</time>
      </trkpt>
      <trkpt lat="48.598238" lon="16.696043">
        <ele>224.626921</ele>
        <time>2020-09-18T07:33:59.909Z</time>
      </trkpt>
      <trkpt lat="48.598303" lon="16.696196">
        <ele>224.595045</ele>
        <time>2020-09-18T07:34:01.895Z</time>
      </trkpt>
      <trkpt lat="48.598375" lon="16.696343">
        <ele>224.562981</ele>
        <time>2020-09-18T07:34:03.908Z</time>
      </trkpt>
      <trkpt lat="48.598445" lon="16.696490">
        <ele>224.531229</ele>
        <time>2020-09-18T07:34:05.945Z</time>
      </trkpt>
      <trkpt lat="48.598528" lon="16.696612">
        <ele>224.500549</ele>
        <time>2020-09-18T07:34:07.941Z</time>
      </trkpt>
      <trkpt lat="48.598625" lon="16.696713">
        <ele>224.469333</ele>
        <time>2020-09-18T07:34:09.906Z</time>
      </trkpt>
      <trkpt lat="48.598641" lon="16.696874">
        <ele>224.440795</ele>
        <time>2020-09-18T07:34:11.889Z</time>
      </trkpt>
      <trkpt lat="48.598647" lon="16.697028">
        <ele>224.413754</ele>
        <time>2020-09-18T07:34:13.894Z</time>
      </trkpt>
      <trkpt lat="48.598685" lon="16.697173">
        <ele>224.386415</ele>
        <time>2020-09-18T07:34:15.901Z</time>
      </trkpt>
      <trkpt lat="48.598724" lon="16.697306">
        <ele>224.360913</ele>
        <time>2020-09-18T07:34:17.906Z</time>
      </trkpt>
      <trkpt lat="48.598756" lon="16.697488">
        <ele>224.327903</ele>
        <time>2020-09-18T07:34:20.894Z</time>
      </trkpt>
      <trkpt lat="48.598753" lon="16.697642">
        <ele>224.300897</ele>
        <time>2020-09-18T07:34:23.941Z</time>
      </trkpt>
      <trkpt lat="48.598737" lon="16.697804">
        <ele>224.272186</ele>
        <time>2020-09-18T07:34:27.910Z</time>
      </trkpt>
      <trkpt lat="48.598721" lon="16.697939">
        <ele>224.248145</ele>
        <time>2020-09-18T07:34:31.928Z</time>
      </trkpt>
      <trkpt lat="48.598701" lon="16.698105">
        <ele>224.218569</ele>
        <time>2020-09-18T07:34:36.922Z</time>
      </trkpt>
      <trkpt lat="48.598678" lon="16.698253">
        <ele>224.191920</ele>
        <time>2020-09-18T07:34:40.917Z</time>
      </trkpt>
      <trkpt lat="48.598644" lon="16.698418">
        <ele>224.175027</ele>
        <time>2020-09-18T07:34:44.917Z</time>
      </trkpt>
      <trkpt lat="48.598620" lon="16.698564">
        <ele>224.160705</ele>
        <time>2020-09-18T07:34:47.933Z</time>
      </trkpt>
      <trkpt lat="48.598590" lon="16.698699">
        <ele>224.147148</ele>
        <time>2020-09-18T07:34:50.925Z</time>
      </trkpt>
      <trkpt lat="48.598543" lon="16.698819">
        <ele>224.133871</ele>
        <time>2020-09-18T07:34:53.910Z</time>
      </trkpt>
      <trkpt lat="48.598490" lon="16.698940">
        <ele>224.120055</ele>
        <time>2020-09-18T07:34:56.901Z</time>
      </trkpt>
      <trkpt lat="48.598439" lon="16.699070">
        <ele>224.105666</ele>
        <time>2020-09-18T07:34:59.933Z</time>
      </trkpt>
      <trkpt lat="48.598391" lon="16.699207">
        <ele>224.090907</ele>
        <time>2020-09-18T07:35:02.900Z</time>
      </trkpt>
      <trkpt lat="48.598325" lon="16.699358">
        <ele>224.073676</ele>
        <time>2020-09-18T07:35:05.918Z</time>
      </trkpt>
      <trkpt lat="48.598278" lon="16.699474">
        <ele>224.060726</ele>
        <time>2020-09-18T07:35:07.890Z</time>
      </trkpt>
      <trkpt lat="48.598233" lon="16.699601">
        <ele>224.047010</ele>
        <time>2020-09-18T07:35:09.908Z</time>
      </trkpt>
      <trkpt lat="48.598204" lon="16.699742">
        <ele>224.032953</ele>
        <time>2020-09-18T07:35:11.901Z</time>
      </trkpt>
      <trkpt lat="48.598180" lon="16.699913">
        <ele>224.016312</ele>
        <time>2020-09-18T07:35:13.896Z</time>
      </trkpt>
      <trkpt lat="48.598152" lon="16.700112">
        <ele>223.996943</ele>
        <time>2020-09-18T07:35:15.891Z</time>
      </trkpt>
      <trkpt lat="48.598129" lon="16.700321">
        <ele>223.976774</ele>
        <time>2020-09-18T07:35:17.951Z</time>
      </trkpt>
      <trkpt lat="48.598116" lon="16.700554">
        <ele>223.954514</ele>
        <time>2020-09-18T07:35:19.895Z</time>
      </trkpt>
      <trkpt lat="48.598119" lon="16.700804">
        <ele>223.923642</ele>
        <time>2020-09-18T07:35:21.903Z</time>
      </trkpt>
      <trkpt lat="48.598125" lon="16.701031">
        <ele>223.787574</ele>
        <time>2020-09-18T07:35:23.909Z</time>
      </trkpt>
      <trkpt lat="48.598135" lon="16.701219">
        <ele>223.674609</ele>
        <time>2020-09-18T07:35:25.918Z</time>
      </trkpt>
      <trkpt lat="48.598138" lon="16.701381">
        <ele>223.577543</ele>
        <time>2020-09-18T07:35:27.906Z</time>
      </trkpt>
      <trkpt lat="48.598137" lon="16.701529">
        <ele>223.488895</ele>
        <time>2020-09-18T07:35:29.934Z</time>
      </trkpt>
      <trkpt lat="48.598131" lon="16.701671">
        <ele>223.403672</ele>
        <time>2020-09-18T07:35:31.928Z</time>
      </trkpt>
      <trkpt lat="48.598123" lon="16.701838">
        <ele>223.303386</ele>
        <time>2020-09-18T07:35:33.913Z</time>
      </trkpt>
      <trkpt lat="48.598113" lon="16.702026">
        <ele>223.190422</ele>
        <time>2020-09-18T07:35:35.905Z</time>
      </trkpt>
      <trkpt lat="48.598101" lon="16.702222">
        <ele>223.072527</ele>
        <time>2020-09-18T07:35:37.913Z</time>
      </trkpt>
      <trkpt lat="48.598102" lon="16.702428">
        <ele>222.949142</ele>
        <time>2020-09-18T07:35:39.915Z</time>
      </trkpt>
      <trkpt lat="48.598116" lon="16.702620">
        <ele>222.833448</ele>
        <time>2020-09-18T07:35:41.919Z</time>
      </trkpt>
      <trkpt lat="48.598131" lon="16.702791">
        <ele>222.730132</ele>
        <time>2020-09-18T07:35:43.955Z</time>
      </trkpt>
      <trkpt lat="48.598143" lon="16.702947">
        <ele>222.636068</ele>
        <time>2020-09-18T07:35:45.899Z</time>
      </trkpt>
      <trkpt lat="48.598138" lon="16.703091">
        <ele>222.549701</ele>
        <time>2020-09-18T07:35:47.896Z</time>
      </trkpt>
      <trkpt lat="48.598136" lon="16.703235">
        <ele>222.463435</ele>
        <time>2020-09-18T07:35:49.901Z</time>
      </trkpt>
      <trkpt lat="48.598137" lon="16.703375">
        <ele>222.379578</ele>
        <time>2020-09-18T07:35:51.915Z</time>
      </trkpt>
      <trkpt lat="48.598143" lon="16.703528">
        <ele>222.272250</ele>
        <time>2020-09-18T07:35:53.899Z</time>
      </trkpt>
      <trkpt lat="48.598156" lon="16.703705">
        <ele>222.057469</ele>
        <time>2020-09-18T07:35:55.933Z</time>
      </trkpt>
      <trkpt lat="48.598182" lon="16.703913">
        <ele>221.802172</ele>
        <time>2020-09-18T07:35:57.907Z</time>
      </trkpt>
      <trkpt lat="48.598257" lon="16.704134">
        <ele>221.502593</ele>
        <time>2020-09-18T07:35:59.893Z</time>
      </trkpt>
      <trkpt lat="48.598347" lon="16.704358">
        <ele>221.186493</ele>
        <time>2020-09-18T07:36:01.902Z</time>
      </trkpt>
      <trkpt lat="48.598400" lon="16.704601">
        <ele>220.877900</ele>
        <time>2020-09-18T07:36:03.917Z</time>
      </trkpt>
      <trkpt lat="48.598445" lon="16.704839">
        <ele>220.579364</ele>
        <time>2020-09-18T07:36:05.903Z</time>
      </trkpt>
      <trkpt lat="48.598486" lon="16.705064">
        <ele>220.297895</ele>
        <time>2020-09-18T07:36:07.927Z</time>
      </trkpt>
      <trkpt lat="48.598529" lon="16.705273">
        <ele>220.033919</ele>
        <time>2020-09-18T07:36:09.931Z</time>
      </trkpt>
      <trkpt lat="48.598576" lon="16.705472">
        <ele>219.779074</ele>
        <time>2020-09-18T07:36:11.902Z</time>
      </trkpt>
      <trkpt lat="48.598608" lon="16.705666">
        <ele>219.537937</ele>
        <time>2020-09-18T07:36:13.901Z</time>
      </trkpt>
      <trkpt lat="48.598623" lon="16.705863">
        <ele>219.298780</ele>
        <time>2020-09-18T07:36:15.907Z</time>
      </trkpt>
      <trkpt lat="48.598630" lon="16.706057">
        <ele>219.064463</ele>
        <time>2020-09-18T07:36:17.903Z</time>
      </trkpt>
      <trkpt lat="48.598635" lon="16.706238">
        <ele>218.953573</ele>
        <time>2020-09-18T07:36:19.903Z</time>
      </trkpt>
      <trkpt lat="48.598643" lon="16.706408">
        <ele>218.872939</ele>
        <time>2020-09-18T07:36:21.906Z</time>
      </trkpt>
      <trkpt lat="48.598666" lon="16.706568">
        <ele>218.795472</ele>
        <time>2020-09-18T07:36:23.901Z</time>
      </trkpt>
      <trkpt lat="48.598699" lon="16.706726">
        <ele>218.717080</ele>
        <time>2020-09-18T07:36:25.928Z</time>
      </trkpt>
      <trkpt lat="48.598736" lon="16.706886">
        <ele>218.636886</ele>
        <time>2020-09-18T07:36:27.912Z</time>
      </trkpt>
      <trkpt lat="48.598772" lon="16.707055">
        <ele>218.552883</ele>
        <time>2020-09-18T07:36:29.926Z</time>
      </trkpt>
      <trkpt lat="48.598807" lon="16.707235">
        <ele>218.464117</ele>
        <time>2020-09-18T07:36:31.937Z</time>
      </trkpt>
      <trkpt lat="48.598834" lon="16.707429">
        <ele>218.370322</ele>
        <time>2020-09-18T07:36:33.917Z</time>
      </trkpt>
      <trkpt lat="48.598859" lon="16.707622">
        <ele>218.277275</ele>
        <time>2020-09-18T07:36:35.905Z</time>
      </trkpt>
      <trkpt lat="48.598877" lon="16.707809">
        <ele>218.187869</ele>
        <time>2020-09-18T07:36:37.927Z</time>
      </trkpt>
      <trkpt lat="48.598911" lon="16.707978">
        <ele>218.104294</ele>
        <time>2020-09-18T07:36:39.905Z</time>
      </trkpt>
      <trkpt lat="48.598965" lon="16.708135">
        <ele>218.020569</ele>
        <time>2020-09-18T07:36:41.917Z</time>
      </trkpt>
      <trkpt lat="48.599016" lon="16.708286">
        <ele>217.940351</ele>
        <time>2020-09-18T07:36:43.920Z</time>
      </trkpt>
      <trkpt lat="48.599067" lon="16.708430">
        <ele>217.863067</ele>
        <time>2020-09-18T07:36:45.924Z</time>
      </trkpt>
      <trkpt lat="48.599115" lon="16.708577">
        <ele>217.785503</ele>
        <time>2020-09-18T07:36:47.902Z</time>
      </trkpt>
      <trkpt lat="48.599163" lon="16.708724">
        <ele>217.730115</ele>
        <time>2020-09-18T07:36:49.897Z</time>
      </trkpt>
      <trkpt lat="48.599203" lon="16.708873">
        <ele>217.713601</ele>
        <time>2020-09-18T07:36:51.895Z</time>
      </trkpt>
      <trkpt lat="48.599236" lon="16.709021">
        <ele>217.697562</ele>
        <time>2020-09-18T07:36:53.920Z</time>
      </trkpt>
      <trkpt lat="48.599260" lon="16.709172">
        <ele>217.681613</ele>
        <time>2020-09-18T07:36:55.895Z</time>
      </trkpt>
      <trkpt lat="48.599276" lon="16.709321">
        <ele>217.666111</ele>
        <time>2020-09-18T07:36:57.896Z</time>
      </trkpt>
      <trkpt lat="48.599293" lon="16.709467">
        <ele>217.650887</ele>
        <time>2020-09-18T07:36:59.934Z</time>
      </trkpt>
      <trkpt lat="48.599303" lon="16.709614">
        <ele>217.635712</ele>
        <time>2020-09-18T07:37:01.903Z</time>
      </trkpt>
      <trkpt lat="48.599316" lon="16.709762">
        <ele>217.620379</ele>
        <time>2020-09-18T07:37:03.918Z</time>
      </trkpt>
      <trkpt lat="48.599334" lon="16.709909">
        <ele>217.605027</ele>
        <time>2020-09-18T07:37:05.900Z</time>
      </trkpt>
      <trkpt lat="48.599350" lon="16.710056">
        <ele>217.589727</ele>
        <time>2020-09-18T07:37:07.899Z</time>
      </trkpt>
      <trkpt lat="48.599361" lon="16.710201">
        <ele>217.574739</ele>
        <time>2020-09-18T07:37:09.907Z</time>
      </trkpt>
      <trkpt lat="48.599371" lon="16.710347">
        <ele>217.559665</ele>
        <time>2020-09-18T07:37:11.904Z</time>
      </trkpt>
      <trkpt lat="48.599384" lon="16.710498">
        <ele>217.544028</ele>
        <time>2020-09-18T07:37:13.908Z</time>
      </trkpt>
      <trkpt lat="48.599397" lon="16.710652">
        <ele>217.528085</ele>
        <time>2020-09-18T07:37:15.921Z</time>
      </trkpt>
      <trkpt lat="48.599404" lon="16.710807">
        <ele>217.512130</ele>
        <time>2020-09-18T07:37:17.902Z</time>
      </trkpt>
      <trkpt lat="48.599411" lon="16.710962">
        <ele>217.496175</ele>
        <time>2020-09-18T07:37:19.943Z</time>
      </trkpt>
      <trkpt lat="48.599422" lon="16.711111">
        <ele>217.480779</ele>
        <time>2020-09-18T07:37:21.917Z</time>
      </trkpt>
      <trkpt lat="48.599428" lon="16.711256">
        <ele>217.465859</ele>
        <time>2020-09-18T07:37:23.898Z</time>
      </trkpt>
      <trkpt lat="48.599433" lon="16.711398">
        <ele>217.423533</ele>
        <time>2020-09-18T07:37:25.933Z</time>
      </trkpt>
      <trkpt lat="48.599435" lon="16.711539">
        <ele>217.338633</ele>
        <time>2020-09-18T07:37:27.923Z</time>
      </trkpt>
      <trkpt lat="48.599432" lon="16.711737">
        <ele>217.219408</ele>
        <time>2020-09-18T07:37:30.917Z</time>
      </trkpt>
      <trkpt lat="48.599435" lon="16.711893">
        <ele>217.125457</ele>
        <time>2020-09-18T07:37:33.941Z</time>
      </trkpt>
      <trkpt lat="48.599437" lon="16.712046">
        <ele>217.033335</ele>
        <time>2020-09-18T07:37:36.913Z</time>
      </trkpt>
      <trkpt lat="48.599445" lon="16.712239">
        <ele>216.916923</ele>
        <time>2020-09-18T07:37:39.914Z</time>
      </trkpt>
      <trkpt lat="48.599470" lon="16.712372">
        <ele>216.833686</ele>
        <time>2020-09-18T07:37:41.908Z</time>
      </trkpt>
      <trkpt lat="48.599500" lon="16.712503">
        <ele>216.750231</ele>
        <time>2020-09-18T07:37:43.908Z</time>
      </trkpt>
      <trkpt lat="48.599533" lon="16.712638">
        <ele>216.663588</ele>
        <time>2020-09-18T07:37:45.901Z</time>
      </trkpt>
      <trkpt lat="48.599567" lon="16.712775">
        <ele>216.575500</ele>
        <time>2020-09-18T07:37:47.899Z</time>
      </trkpt>
      <trkpt lat="48.599598" lon="16.712914">
        <ele>216.487193</ele>
        <time>2020-09-18T07:37:49.887Z</time>
      </trkpt>
      <trkpt lat="48.599632" lon="16.713054">
        <ele>216.397411</ele>
        <time>2020-09-18T07:37:51.897Z</time>
      </trkpt>
      <trkpt lat="48.599666" lon="16.713197">
        <ele>216.305933</ele>
        <time>2020-09-18T07:37:53.906Z</time>
      </trkpt>
      <trkpt lat="48.599698" lon="16.713341">
        <ele>216.214483</ele>
        <time>2020-09-18T07:37:55.889Z</time>
      </trkpt>
      <trkpt lat="48.599729" lon="16.713486">
        <ele>216.122747</ele>
        <time>2020-09-18T07:37:57.893Z</time>
      </trkpt>
      <trkpt lat="48.599756" lon="16.713633">
        <ele>216.030905</ele>
        <time>2020-09-18T07:37:59.930Z</time>
      </trkpt>
      <trkpt lat="48.599784" lon="16.713777">
        <ele>215.940549</ele>
        <time>2020-09-18T07:38:01.935Z</time>
      </trkpt>
      <trkpt lat="48.599811" lon="16.713919">
        <ele>215.851604</ele>
        <time>2020-09-18T07:38:03.895Z</time>
      </trkpt>
      <trkpt lat="48.599840" lon="16.714061">
        <ele>215.779728</ele>
        <time>2020-09-18T07:38:05.894Z</time>
      </trkpt>
      <trkpt lat="48.599863" lon="16.714205">
        <ele>215.717813</ele>
        <time>2020-09-18T07:38:07.899Z</time>
      </trkpt>
      <trkpt lat="48.599884" lon="16.714354">
        <ele>215.654140</ele>
        <time>2020-09-18T07:38:09.912Z</time>
      </trkpt>
      <trkpt lat="48.599904" lon="16.714503">
        <ele>215.590596</ele>
        <time>2020-09-18T07:38:11.895Z</time>
      </trkpt>
      <trkpt lat="48.599924" lon="16.714655">
        <ele>215.525823</ele>
        <time>2020-09-18T07:38:13.905Z</time>
      </trkpt>
      <trkpt lat="48.599944" lon="16.714811">
        <ele>215.459409</ele>
        <time>2020-09-18T07:38:15.902Z</time>
      </trkpt>
      <trkpt lat="48.599961" lon="16.714960">
        <ele>215.396215</ele>
        <time>2020-09-18T07:38:17.905Z</time>
      </trkpt>
      <trkpt lat="48.599974" lon="16.715109">
        <ele>215.333401</ele>
        <time>2020-09-18T07:38:19.914Z</time>
      </trkpt>
      <trkpt lat="48.599982" lon="16.715262">
        <ele>215.269255</ele>
        <time>2020-09-18T07:38:21.925Z</time>
      </trkpt>
      <trkpt lat="48.599987" lon="16.715411">
        <ele>215.206901</ele>
        <time>2020-09-18T07:38:23.909Z</time>
      </trkpt>
      <trkpt lat="48.599996" lon="16.715555">
        <ele>215.146448</ele>
        <time>2020-09-18T07:38:25.899Z</time>
      </trkpt>
      <trkpt lat="48.599997" lon="16.715700">
        <ele>215.085842</ele>
        <time>2020-09-18T07:38:27.898Z</time>
      </trkpt>
      <trkpt lat="48.599987" lon="16.715845">
        <ele>215.024911</ele>
        <time>2020-09-18T07:38:29.909Z</time>
      </trkpt>
      <trkpt lat="48.599980" lon="16.715993">
        <ele>214.962897</ele>
        <time>2020-09-18T07:38:31.920Z</time>
      </trkpt>
      <trkpt lat="48.599945" lon="16.716128">
        <ele>214.902293</ele>
        <time>2020-09-18T07:38:33.894Z</time>
      </trkpt>
      <trkpt lat="48.599903" lon="16.716267">
        <ele>214.838421</ele>
        <time>2020-09-18T07:38:35.897Z</time>
      </trkpt>
      <trkpt lat="48.599905" lon="16.716415">
        <ele>214.776552</ele>
        <time>2020-09-18T07:38:37.902Z</time>
      </trkpt>
      <trkpt lat="48.599926" lon="16.716555">
        <ele>214.716553</ele>
        <time>2020-09-18T07:38:39.910Z</time>
      </trkpt>
      <trkpt lat="48.599937" lon="16.716691">
        <ele>214.665906</ele>
        <time>2020-09-18T07:38:41.903Z</time>
      </trkpt>
      <trkpt lat="48.599929" lon="16.716891">
        <ele>214.605597</ele>
        <time>2020-09-18T07:38:44.910Z</time>
      </trkpt>
      <trkpt lat="48.599880" lon="16.717082">
        <ele>214.543932</ele>
        <time>2020-09-18T07:38:47.924Z</time>
      </trkpt>
      <trkpt lat="48.599828" lon="16.717266">
        <ele>214.483704</ele>
        <time>2020-09-18T07:38:50.895Z</time>
      </trkpt>
      <trkpt lat="48.599784" lon="16.717448">
        <ele>214.425377</ele>
        <time>2020-09-18T07:38:53.931Z</time>
      </trkpt>
      <trkpt lat="48.599765" lon="16.717586">
        <ele>214.382949</ele>
        <time>2020-09-18T07:38:55.932Z</time>
      </trkpt>
      <trkpt lat="48.599748" lon="16.717724">
        <ele>214.340697</ele>
        <time>2020-09-18T07:38:57.905Z</time>
      </trkpt>
      <trkpt lat="48.599744" lon="16.717918">
        <ele>214.282275</ele>
        <time>2020-09-18T07:39:00.906Z</time>
      </trkpt>
      <trkpt lat="48.599748" lon="16.718119">
        <ele>214.221748</ele>
        <time>2020-09-18T07:39:03.926Z</time>
      </trkpt>
      <trkpt lat="48.599755" lon="16.718322">
        <ele>214.160563</ele>
        <time>2020-09-18T07:39:06.921Z</time>
      </trkpt>
      <trkpt lat="48.599758" lon="16.718525">
        <ele>214.099445</ele>
        <time>2020-09-18T07:39:09.895Z</time>
      </trkpt>
      <trkpt lat="48.599760" lon="16.718723">
        <ele>214.039841</ele>
        <time>2020-09-18T07:39:12.923Z</time>
      </trkpt>
      <trkpt lat="48.599762" lon="16.718916">
        <ele>213.981742</ele>
        <time>2020-09-18T07:39:15.924Z</time>
      </trkpt>
      <trkpt lat="48.599761" lon="16.719112">
        <ele>213.922745</ele>
        <time>2020-09-18T07:39:18.903Z</time>
      </trkpt>
      <trkpt lat="48.599770" lon="16.719247">
        <ele>213.881904</ele>
        <time>2020-09-18T07:39:20.911Z</time>
      </trkpt>
      <trkpt lat="48.599777" lon="16.719386">
        <ele>213.837477</ele>
        <time>2020-09-18T07:39:22.904Z</time>
      </trkpt>
      <trkpt lat="48.599787" lon="16.719522">
        <ele>213.792115</ele>
        <time>2020-09-18T07:39:24.908Z</time>
      </trkpt>
      <trkpt lat="48.599801" lon="16.719657">
        <ele>213.746814</ele>
        <time>2020-09-18T07:39:26.910Z</time>
      </trkpt>
      <trkpt lat="48.599820" lon="16.719855">
        <ele>213.680489</ele>
        <time>2020-09-18T07:39:29.906Z</time>
      </trkpt>
      <trkpt lat="48.599833" lon="16.720056">
        <ele>213.613538</ele>
        <time>2020-09-18T07:39:32.897Z</time>
      </trkpt>
      <trkpt lat="48.599849" lon="16.720252">
        <ele>213.548070</ele>
        <time>2020-09-18T07:39:35.932Z</time>
      </trkpt>
      <trkpt lat="48.599861" lon="16.720448">
        <ele>213.482817</ele>
        <time>2020-09-18T07:39:38.931Z</time>
      </trkpt>
      <trkpt lat="48.599870" lon="16.720646">
        <ele>213.417024</ele>
        <time>2020-09-18T07:39:41.902Z</time>
      </trkpt>
      <trkpt lat="48.599886" lon="16.720845">
        <ele>213.350569</ele>
        <time>2020-09-18T07:39:44.914Z</time>
      </trkpt>
      <trkpt lat="48.599907" lon="16.721039">
        <ele>213.285401</ele>
        <time>2020-09-18T07:39:47.918Z</time>
      </trkpt>
      <trkpt lat="48.599928" lon="16.721230">
        <ele>213.221214</ele>
        <time>2020-09-18T07:39:50.937Z</time>
      </trkpt>
      <trkpt lat="48.599946" lon="16.721416">
        <ele>213.158897</ele>
        <time>2020-09-18T07:39:53.943Z</time>
      </trkpt>
      <trkpt lat="48.599972" lon="16.721598">
        <ele>213.097172</ele>
        <time>2020-09-18T07:39:56.926Z</time>
      </trkpt>
      <trkpt lat="48.600017" lon="16.721769">
        <ele>213.036161</ele>
        <time>2020-09-18T07:39:59.907Z</time>
      </trkpt>
      <trkpt lat="48.600071" lon="16.721958">
        <ele>212.967909</ele>
        <time>2020-09-18T07:40:02.912Z</time>
      </trkpt>
      <trkpt lat="48.600104" lon="16.722109">
        <ele>212.939016</ele>
        <time>2020-09-18T07:40:04.907Z</time>
      </trkpt>
      <trkpt lat="48.600157" lon="16.722260">
        <ele>212.910792</ele>
        <time>2020-09-18T07:40:06.923Z</time>
      </trkpt>
      <trkpt lat="48.600214" lon="16.722417">
        <ele>212.881221</ele>
        <time>2020-09-18T07:40:08.913Z</time>
      </trkpt>
      <trkpt lat="48.600264" lon="16.722579">
        <ele>212.851705</ele>
        <time>2020-09-18T07:40:10.918Z</time>
      </trkpt>
      <trkpt lat="48.600307" lon="16.722753">
        <ele>212.821037</ele>
        <time>2020-09-18T07:40:12.894Z</time>
      </trkpt>
      <trkpt lat="48.600344" lon="16.722930">
        <ele>212.790388</ele>
        <time>2020-09-18T07:40:14.913Z</time>
      </trkpt>
      <trkpt lat="48.600377" lon="16.723108">
        <ele>212.759867</ele>
        <time>2020-09-18T07:40:16.901Z</time>
      </trkpt>
      <trkpt lat="48.600406" lon="16.723284">
        <ele>212.729921</ele>
        <time>2020-09-18T07:40:18.905Z</time>
      </trkpt>
      <trkpt lat="48.600433" lon="16.723457">
        <ele>212.700573</ele>
        <time>2020-09-18T07:40:20.922Z</time>
      </trkpt>
      <trkpt lat="48.600456" lon="16.723626">
        <ele>212.672086</ele>
        <time>2020-09-18T07:40:22.904Z</time>
      </trkpt>
      <trkpt lat="48.600475" lon="16.723795">
        <ele>212.643784</ele>
        <time>2020-09-18T07:40:24.940Z</time>
      </trkpt>
      <trkpt lat="48.600493" lon="16.723962">
        <ele>212.615848</ele>
        <time>2020-09-18T07:40:26.920Z</time>
      </trkpt>
      <trkpt lat="48.600510" lon="16.724127">
        <ele>212.588277</ele>
        <time>2020-09-18T07:40:28.924Z</time>
      </trkpt>
      <trkpt lat="48.600526" lon="16.724288">
        <ele>212.561397</ele>
        <time>2020-09-18T07:40:30.905Z</time>
      </trkpt>
      <trkpt lat="48.600544" lon="16.724447">
        <ele>212.534764</ele>
        <time>2020-09-18T07:40:32.893Z</time>
      </trkpt>
      <trkpt lat="48.600564" lon="16.724604">
        <ele>212.506722</ele>
        <time>2020-09-18T07:40:34.916Z</time>
      </trkpt>
      <trkpt lat="48.600589" lon="16.724754">
        <ele>212.473166</ele>
        <time>2020-09-18T07:40:36.910Z</time>
      </trkpt>
      <trkpt lat="48.600613" lon="16.724906">
        <ele>212.439267</ele>
        <time>2020-09-18T07:40:38.919Z</time>
      </trkpt>
      <trkpt lat="48.600640" lon="16.725050">
        <ele>212.406799</ele>
        <time>2020-09-18T07:40:40.939Z</time>
      </trkpt>
      <trkpt lat="48.600672" lon="16.725188">
        <ele>212.375077</ele>
        <time>2020-09-18T07:40:42.897Z</time>
      </trkpt>
      <trkpt lat="48.600699" lon="16.725320">
        <ele>212.345105</ele>
        <time>2020-09-18T07:40:44.912Z</time>
      </trkpt>
      <trkpt lat="48.600731" lon="16.725451">
        <ele>212.314811</ele>
        <time>2020-09-18T07:40:46.893Z</time>
      </trkpt>
      <trkpt lat="48.600767" lon="16.725578">
        <ele>212.284838</ele>
        <time>2020-09-18T07:40:48.906Z</time>
      </trkpt>
      <trkpt lat="48.600809" lon="16.725705">
        <ele>212.254036</ele>
        <time>2020-09-18T07:40:50.898Z</time>
      </trkpt>
      <trkpt lat="48.600855" lon="16.725833">
        <ele>212.222435</ele>
        <time>2020-09-18T07:40:52.919Z</time>
      </trkpt>
      <trkpt lat="48.600891" lon="16.725962">
        <ele>212.192063</ele>
        <time>2020-09-18T07:40:54.920Z</time>
      </trkpt>
      <trkpt lat="48.600926" lon="16.726088">
        <ele>212.162417</ele>
        <time>2020-09-18T07:40:56.928Z</time>
      </trkpt>
      <trkpt lat="48.600978" lon="16.726276">
        <ele>212.118213</ele>
        <time>2020-09-18T07:40:59.944Z</time>
      </trkpt>
      <trkpt lat="48.601026" lon="16.726460">
        <ele>212.075306</ele>
        <time>2020-09-18T07:41:02.947Z</time>
      </trkpt>
      <trkpt lat="48.601081" lon="16.726568">
        <ele>212.045737</ele>
        <time>2020-09-18T07:41:04.918Z</time>
      </trkpt>
      <trkpt lat="48.601159" lon="16.726731">
        <ele>212.002093</ele>
        <time>2020-09-18T07:41:07.902Z</time>
      </trkpt>
      <trkpt lat="48.601237" lon="16.726896">
        <ele>211.958096</ele>
        <time>2020-09-18T07:41:10.890Z</time>
      </trkpt>
      <trkpt lat="48.601313" lon="16.727065">
        <ele>211.906474</ele>
        <time>2020-09-18T07:41:13.896Z</time>
      </trkpt>
      <trkpt lat="48.601361" lon="16.727185">
        <ele>211.853535</ele>
        <time>2020-09-18T07:41:15.921Z</time>
      </trkpt>
      <trkpt lat="48.601424" lon="16.727362">
        <ele>211.777657</ele>
        <time>2020-09-18T07:41:18.914Z</time>
      </trkpt>
      <trkpt lat="48.601490" lon="16.727528">
        <ele>211.704542</ele>
        <time>2020-09-18T07:41:21.909Z</time>
      </trkpt>
      <trkpt lat="48.601556" lon="16.727688">
        <ele>211.633359</ele>
        <time>2020-09-18T07:41:24.925Z</time>
      </trkpt>
      <trkpt lat="48.601628" lon="16.727838">
        <ele>211.563394</ele>
        <time>2020-09-18T07:41:27.900Z</time>
      </trkpt>
      <trkpt lat="48.601710" lon="16.727989">
        <ele>211.489639</ele>
        <time>2020-09-18T07:41:30.910Z</time>
      </trkpt>
      <trkpt lat="48.601793" lon="16.728146">
        <ele>211.413764</ele>
        <time>2020-09-18T07:41:33.898Z</time>
      </trkpt>
      <trkpt lat="48.601878" lon="16.728296">
        <ele>211.339198</ele>
        <time>2020-09-18T07:41:36.937Z</time>
      </trkpt>
      <trkpt lat="48.601961" lon="16.728439">
        <ele>211.267376</ele>
        <time>2020-09-18T07:41:39.905Z</time>
      </trkpt>
      <trkpt lat="48.602044" lon="16.728582">
        <ele>211.195554</ele>
        <time>2020-09-18T07:41:42.908Z</time>
      </trkpt>
      <trkpt lat="48.602130" lon="16.728707">
        <ele>211.127464</ele>
        <time>2020-09-18T07:41:45.916Z</time>
      </trkpt>
      <trkpt lat="48.602169" lon="16.728865">
        <ele>211.063804</ele>
        <time>2020-09-18T07:41:48.908Z</time>
      </trkpt>
      <trkpt lat="48.602102" lon="16.728969">
        <ele>211.008997</ele>
        <time>2020-09-18T07:41:51.899Z</time>
      </trkpt>
      <trkpt lat="48.602008" lon="16.729040">
        <ele>210.949019</ele>
        <time>2020-09-18T07:41:54.893Z</time>
      </trkpt>
      <trkpt lat="48.601903" lon="16.729092">
        <ele>210.895652</ele>
        <time>2020-09-18T07:41:58.904Z</time>
      </trkpt>
      <trkpt lat="48.601805" lon="16.729140">
        <ele>210.888903</ele>
        <time>2020-09-18T07:42:02.926Z</time>
      </trkpt>
      <trkpt lat="48.601704" lon="16.729201">
        <ele>210.881777</ele>
        <time>2020-09-18T07:42:06.910Z</time>
      </trkpt>
      <trkpt lat="48.601607" lon="16.729250">
        <ele>210.875077</ele>
        <time>2020-09-18T07:42:10.933Z</time>
      </trkpt>
      <trkpt lat="48.601504" lon="16.729306">
        <ele>210.867905</ele>
        <time>2020-09-18T07:42:14.917Z</time>
      </trkpt>
      <trkpt lat="48.601398" lon="16.729368">
        <ele>210.860459</ele>
        <time>2020-09-18T07:42:18.895Z</time>
      </trkpt>
      <trkpt lat="48.601290" lon="16.729427">
        <ele>210.852935</ele>
        <time>2020-09-18T07:42:22.918Z</time>
      </trkpt>
      <trkpt lat="48.601207" lon="16.729478">
        <ele>210.847065</ele>
        <time>2020-09-18T07:42:25.901Z</time>
      </trkpt>
      <trkpt lat="48.601103" lon="16.729544">
        <ele>210.839675</ele>
        <time>2020-09-18T07:42:29.894Z</time>
      </trkpt>
      <trkpt lat="48.600995" lon="16.729610">
        <ele>210.832043</ele>
        <time>2020-09-18T07:42:33.909Z</time>
      </trkpt>
      <trkpt lat="48.600886" lon="16.729660">
        <ele>210.824580</ele>
        <time>2020-09-18T07:42:37.911Z</time>
      </trkpt>
      <trkpt lat="48.600802" lon="16.729707">
        <ele>210.818712</ele>
        <time>2020-09-18T07:42:40.902Z</time>
      </trkpt>
      <trkpt lat="48.600713" lon="16.729771">
        <ele>210.812255</ele>
        <time>2020-09-18T07:42:43.921Z</time>
      </trkpt>
      <trkpt lat="48.600610" lon="16.729828">
        <ele>210.805069</ele>
        <time>2020-09-18T07:42:47.911Z</time>
      </trkpt>
      <trkpt lat="48.600499" lon="16.729884">
        <ele>210.797402</ele>
        <time>2020-09-18T07:42:51.925Z</time>
      </trkpt>
      <trkpt lat="48.600394" lon="16.729943">
        <ele>210.790063</ele>
        <time>2020-09-18T07:42:55.898Z</time>
      </trkpt>
      <trkpt lat="48.600291" lon="16.730003">
        <ele>210.782831</ele>
        <time>2020-09-18T07:42:59.908Z</time>
      </trkpt>
      <trkpt lat="48.600190" lon="16.730060">
        <ele>210.787959</ele>
        <time>2020-09-18T07:43:03.917Z</time>
      </trkpt>
      <trkpt lat="48.600086" lon="16.730123">
        <ele>210.807765</ele>
        <time>2020-09-18T07:43:07.932Z</time>
      </trkpt>
      <trkpt lat="48.599981" lon="16.730180">
        <ele>210.827487</ele>
        <time>2020-09-18T07:43:11.894Z</time>
      </trkpt>
      <trkpt lat="48.599878" lon="16.730241">
        <ele>210.847043</ele>
        <time>2020-09-18T07:43:15.931Z</time>
      </trkpt>
      <trkpt lat="48.599774" lon="16.730297">
        <ele>210.866559</ele>
        <time>2020-09-18T07:43:19.903Z</time>
      </trkpt>
      <trkpt lat="48.599676" lon="16.730336">
        <ele>210.884474</ele>
        <time>2020-09-18T07:43:23.923Z</time>
      </trkpt>
      <trkpt lat="48.599574" lon="16.730396">
        <ele>210.903822</ele>
        <time>2020-09-18T07:43:27.914Z</time>
      </trkpt>
      <trkpt lat="48.599476" lon="16.730461">
        <ele>210.922740</ele>
        <time>2020-09-18T07:43:31.903Z</time>
      </trkpt>
      <trkpt lat="48.599379" lon="16.730512">
        <ele>210.940895</ele>
        <time>2020-09-18T07:43:35.907Z</time>
      </trkpt>
      <trkpt lat="48.599276" lon="16.730560">
        <ele>210.959949</ele>
        <time>2020-09-18T07:43:39.927Z</time>
      </trkpt>
      <trkpt lat="48.599180" lon="16.730603">
        <ele>210.977649</ele>
        <time>2020-09-18T07:43:43.931Z</time>
      </trkpt>
      <trkpt lat="48.599092" lon="16.730649">
        <ele>210.994110</ele>
        <time>2020-09-18T07:43:47.900Z</time>
      </trkpt>
      <trkpt lat="48.598989" lon="16.730673">
        <ele>211.012533</ele>
        <time>2020-09-18T07:43:51.905Z</time>
      </trkpt>
      <trkpt lat="48.598885" lon="16.730683">
        <ele>211.030956</ele>
        <time>2020-09-18T07:43:55.925Z</time>
      </trkpt>
      <trkpt lat="48.598779" lon="16.730689">
        <ele>211.049708</ele>
        <time>2020-09-18T07:43:59.914Z</time>
      </trkpt>
      <trkpt lat="48.598682" lon="16.730679">
        <ele>211.066896</ele>
        <time>2020-09-18T07:44:03.921Z</time>
      </trkpt>
      <trkpt lat="48.598567" lon="16.730687">
        <ele>211.087248</ele>
        <time>2020-09-18T07:44:07.903Z</time>
      </trkpt>
      <trkpt lat="48.598471" lon="16.730698">
        <ele>211.111276</ele>
        <time>2020-09-18T07:44:10.902Z</time>
      </trkpt>
      <trkpt lat="48.598366" lon="16.730695">
        <ele>211.147832</ele>
        <time>2020-09-18T07:44:13.915Z</time>
      </trkpt>
      <trkpt lat="48.598257" lon="16.730699">
        <ele>211.185785</ele>
        <time>2020-09-18T07:44:16.902Z</time>
      </trkpt>
      <trkpt lat="48.598151" lon="16.730716">
        <ele>211.222890</ele>
        <time>2020-09-18T07:44:19.904Z</time>
      </trkpt>
      <trkpt lat="48.598044" lon="16.730721">
        <ele>211.260154</ele>
        <time>2020-09-18T07:44:22.911Z</time>
      </trkpt>
      <trkpt lat="48.597932" lon="16.730739">
        <ele>211.299360</ele>
        <time>2020-09-18T07:44:25.905Z</time>
      </trkpt>
      <trkpt lat="48.597814" lon="16.730769">
        <ele>211.341011</ele>
        <time>2020-09-18T07:44:28.902Z</time>
      </trkpt>
      <trkpt lat="48.597701" lon="16.730791">
        <ele>211.380670</ele>
        <time>2020-09-18T07:44:31.910Z</time>
      </trkpt>
      <trkpt lat="48.597589" lon="16.730809">
        <ele>211.419876</ele>
        <time>2020-09-18T07:44:34.898Z</time>
      </trkpt>
      <trkpt lat="48.597482" lon="16.730840">
        <ele>211.457800</ele>
        <time>2020-09-18T07:44:37.904Z</time>
      </trkpt>
      <trkpt lat="48.597377" lon="16.730864">
        <ele>211.494765</ele>
        <time>2020-09-18T07:44:40.900Z</time>
      </trkpt>
      <trkpt lat="48.597275" lon="16.730887">
        <ele>211.530663</ele>
        <time>2020-09-18T07:44:43.908Z</time>
      </trkpt>
      <trkpt lat="48.597176" lon="16.730913">
        <ele>211.565640</ele>
        <time>2020-09-18T07:44:46.916Z</time>
      </trkpt>
      <trkpt lat="48.597074" lon="16.730932">
        <ele>211.601413</ele>
        <time>2020-09-18T07:44:49.935Z</time>
      </trkpt>
      <trkpt lat="48.596970" lon="16.730944">
        <ele>211.637720</ele>
        <time>2020-09-18T07:44:52.910Z</time>
      </trkpt>
      <trkpt lat="48.596874" lon="16.730954">
        <ele>211.671216</ele>
        <time>2020-09-18T07:44:55.889Z</time>
      </trkpt>
      <trkpt lat="48.596780" lon="16.730962">
        <ele>211.703989</ele>
        <time>2020-09-18T07:44:58.904Z</time>
      </trkpt>
      <trkpt lat="48.596688" lon="16.730969">
        <ele>211.741626</ele>
        <time>2020-09-18T07:45:01.905Z</time>
      </trkpt>
      <trkpt lat="48.596594" lon="16.730985">
        <ele>211.788751</ele>
        <time>2020-09-18T07:45:04.906Z</time>
      </trkpt>
      <trkpt lat="48.596502" lon="16.730988">
        <ele>211.834594</ele>
        <time>2020-09-18T07:45:07.925Z</time>
      </trkpt>
      <trkpt lat="48.596387" lon="16.730988">
        <ele>211.891884</ele>
        <time>2020-09-18T07:45:11.898Z</time>
      </trkpt>
      <trkpt lat="48.596296" lon="16.730981">
        <ele>211.937277</ele>
        <time>2020-09-18T07:45:14.904Z</time>
      </trkpt>
      <trkpt lat="48.596204" lon="16.730975">
        <ele>211.983152</ele>
        <time>2020-09-18T07:45:17.920Z</time>
      </trkpt>
      <trkpt lat="48.596108" lon="16.730962">
        <ele>212.031168</ele>
        <time>2020-09-18T07:45:20.945Z</time>
      </trkpt>
      <trkpt lat="48.596016" lon="16.730947">
        <ele>212.077266</ele>
        <time>2020-09-18T07:45:23.902Z</time>
      </trkpt>
      <trkpt lat="48.595904" lon="16.730939">
        <ele>212.133124</ele>
        <time>2020-09-18T07:45:27.912Z</time>
      </trkpt>
      <trkpt lat="48.595813" lon="16.730940">
        <ele>212.178460</ele>
        <time>2020-09-18T07:45:30.908Z</time>
      </trkpt>
      <trkpt lat="48.595723" lon="16.730914">
        <ele>212.224107</ele>
        <time>2020-09-18T07:45:33.894Z</time>
      </trkpt>
      <trkpt lat="48.595614" lon="16.730886">
        <ele>212.279186</ele>
        <time>2020-09-18T07:45:37.905Z</time>
      </trkpt>
      <trkpt lat="48.595507" lon="16.730859">
        <ele>212.333228</ele>
        <time>2020-09-18T07:45:41.925Z</time>
      </trkpt>
      <trkpt lat="48.595404" lon="16.730839">
        <ele>212.384962</ele>
        <time>2020-09-18T07:45:45.923Z</time>
      </trkpt>
      <trkpt lat="48.595300" lon="16.730835">
        <ele>212.436789</ele>
        <time>2020-09-18T07:45:49.912Z</time>
      </trkpt>
      <trkpt lat="48.595192" lon="16.730845">
        <ele>212.490693</ele>
        <time>2020-09-18T07:45:53.921Z</time>
      </trkpt>
      <trkpt lat="48.595087" lon="16.730863">
        <ele>212.543337</ele>
        <time>2020-09-18T07:45:57.915Z</time>
      </trkpt>
      <trkpt lat="48.594984" lon="16.730876">
        <ele>212.594828</ele>
        <time>2020-09-18T07:46:01.890Z</time>
      </trkpt>
      <trkpt lat="48.594879" lon="16.730897">
        <ele>212.722885</ele>
        <time>2020-09-18T07:46:05.911Z</time>
      </trkpt>
      <trkpt lat="48.594783" lon="16.730922">
        <ele>212.899986</ele>
        <time>2020-09-18T07:46:09.899Z</time>
      </trkpt>
      <trkpt lat="48.594691" lon="16.730942">
        <ele>213.068965</ele>
        <time>2020-09-18T07:46:13.918Z</time>
      </trkpt>
      <trkpt lat="48.594588" lon="16.730956">
        <ele>213.256977</ele>
        <time>2020-09-18T07:46:17.905Z</time>
      </trkpt>
      <trkpt lat="48.594490" lon="16.730959">
        <ele>213.435181</ele>
        <time>2020-09-18T07:46:21.907Z</time>
      </trkpt>
      <trkpt lat="48.594385" lon="16.730963">
        <ele>213.626135</ele>
        <time>2020-09-18T07:46:25.895Z</time>
      </trkpt>
      <trkpt lat="48.594267" lon="16.730973">
        <ele>213.840999</ele>
        <time>2020-09-18T07:46:29.910Z</time>
      </trkpt>
      <trkpt lat="48.594168" lon="16.730982">
        <ele>214.021309</ele>
        <time>2020-09-18T07:46:32.907Z</time>
      </trkpt>
      <trkpt lat="48.594053" lon="16.730998">
        <ele>214.231266</ele>
        <time>2020-09-18T07:46:35.907Z</time>
      </trkpt>
      <trkpt lat="48.593940" lon="16.730985">
        <ele>214.437298</ele>
        <time>2020-09-18T07:46:38.909Z</time>
      </trkpt>
      <trkpt lat="48.593834" lon="16.730950">
        <ele>214.634551</ele>
        <time>2020-09-18T07:46:41.922Z</time>
      </trkpt>
      <trkpt lat="48.593729" lon="16.730905">
        <ele>214.832965</ele>
        <time>2020-09-18T07:46:44.911Z</time>
      </trkpt>
      <trkpt lat="48.593630" lon="16.730860">
        <ele>215.020908</ele>
        <time>2020-09-18T07:46:47.901Z</time>
      </trkpt>
      <trkpt lat="48.593350" lon="16.730759">
        <ele>215.544244</ele>
        <time>2020-09-18T07:47:58.890Z</time>
      </trkpt>
      <trkpt lat="48.593218" lon="16.730723">
        <ele>215.788097</ele>
        <time>2020-09-18T07:48:01.892Z</time>
      </trkpt>
      <trkpt lat="48.593124" lon="16.730694">
        <ele>215.981774</ele>
        <time>2020-09-18T07:48:03.907Z</time>
      </trkpt>
      <trkpt lat="48.593034" lon="16.730661">
        <ele>216.194350</ele>
        <time>2020-09-18T07:48:05.906Z</time>
      </trkpt>
      <trkpt lat="48.592940" lon="16.730638">
        <ele>216.412928</ele>
        <time>2020-09-18T07:48:07.915Z</time>
      </trkpt>
      <trkpt lat="48.592848" lon="16.730615">
        <ele>216.626974</ele>
        <time>2020-09-18T07:48:09.901Z</time>
      </trkpt>
      <trkpt lat="48.592733" lon="16.730588">
        <ele>216.894112</ele>
        <time>2020-09-18T07:48:12.901Z</time>
      </trkpt>
      <trkpt lat="48.592642" lon="16.730565">
        <ele>217.105894</ele>
        <time>2020-09-18T07:48:15.889Z</time>
      </trkpt>
      <trkpt lat="48.592544" lon="16.730531">
        <ele>217.336692</ele>
        <time>2020-09-18T07:48:18.906Z</time>
      </trkpt>
      <trkpt lat="48.592425" lon="16.730500">
        <ele>217.613872</ele>
        <time>2020-09-18T07:48:21.888Z</time>
      </trkpt>
      <trkpt lat="48.592303" lon="16.730458">
        <ele>217.901082</ele>
        <time>2020-09-18T07:48:24.903Z</time>
      </trkpt>
      <trkpt lat="48.592180" lon="16.730421">
        <ele>218.188953</ele>
        <time>2020-09-18T07:48:27.886Z</time>
      </trkpt>
      <trkpt lat="48.592058" lon="16.730398">
        <ele>218.471164</ele>
        <time>2020-09-18T07:48:30.909Z</time>
      </trkpt>
      <trkpt lat="48.591949" lon="16.730434">
        <ele>218.727265</ele>
        <time>2020-09-18T07:48:33.893Z</time>
      </trkpt>
      <trkpt lat="48.591836" lon="16.730488">
        <ele>218.999297</ele>
        <time>2020-09-18T07:48:36.927Z</time>
      </trkpt>
      <trkpt lat="48.591726" lon="16.730537">
        <ele>219.262525</ele>
        <time>2020-09-18T07:48:39.890Z</time>
      </trkpt>
      <trkpt lat="48.591623" lon="16.730593">
        <ele>219.513776</ele>
        <time>2020-09-18T07:48:42.906Z</time>
      </trkpt>
      <trkpt lat="48.591522" lon="16.730646">
        <ele>219.759181</ele>
        <time>2020-09-18T07:48:45.894Z</time>
      </trkpt>
      <trkpt lat="48.591411" lon="16.730694">
        <ele>220.026151</ele>
        <time>2020-09-18T07:48:48.909Z</time>
      </trkpt>
      <trkpt lat="48.591301" lon="16.730720">
        <ele>220.360300</ele>
        <time>2020-09-18T07:48:51.889Z</time>
      </trkpt>
      <trkpt lat="48.591195" lon="16.730748">
        <ele>220.683253</ele>
        <time>2020-09-18T07:48:54.894Z</time>
      </trkpt>
      <trkpt lat="48.591087" lon="16.730782">
        <ele>221.014342</ele>
        <time>2020-09-18T07:48:57.893Z</time>
      </trkpt>
      <trkpt lat="48.590977" lon="16.730823">
        <ele>221.354365</ele>
        <time>2020-09-18T07:49:00.913Z</time>
      </trkpt>
      <trkpt lat="48.590857" lon="16.730873">
        <ele>221.727944</ele>
        <time>2020-09-18T07:49:03.897Z</time>
      </trkpt>
      <trkpt lat="48.590738" lon="16.730926">
        <ele>222.100268</ele>
        <time>2020-09-18T07:49:06.905Z</time>
      </trkpt>
      <trkpt lat="48.590617" lon="16.730961">
        <ele>222.470008</ele>
        <time>2020-09-18T07:49:09.896Z</time>
      </trkpt>
      <trkpt lat="48.590501" lon="16.730994">
        <ele>222.824264</ele>
        <time>2020-09-18T07:49:12.926Z</time>
      </trkpt>
      <trkpt lat="48.590413" lon="16.731027">
        <ele>223.096378</ele>
        <time>2020-09-18T07:49:14.895Z</time>
      </trkpt>
      <trkpt lat="48.590291" lon="16.731064">
        <ele>223.469827</ele>
        <time>2020-09-18T07:49:17.893Z</time>
      </trkpt>
      <trkpt lat="48.590174" lon="16.731110">
        <ele>223.832654</ele>
        <time>2020-09-18T07:49:20.915Z</time>
      </trkpt>
      <trkpt lat="48.590054" lon="16.731142">
        <ele>224.198365</ele>
        <time>2020-09-18T07:49:23.901Z</time>
      </trkpt>
      <trkpt lat="48.589932" lon="16.731188">
        <ele>224.575734</ele>
        <time>2020-09-18T07:49:26.893Z</time>
      </trkpt>
      <trkpt lat="48.589808" lon="16.731238">
        <ele>224.960900</ele>
        <time>2020-09-18T07:49:29.899Z</time>
      </trkpt>
      <trkpt lat="48.589689" lon="16.731284">
        <ele>225.329539</ele>
        <time>2020-09-18T07:49:32.900Z</time>
      </trkpt>
      <trkpt lat="48.589570" lon="16.731326">
        <ele>225.639372</ele>
        <time>2020-09-18T07:49:35.924Z</time>
      </trkpt>
      <trkpt lat="48.589460" lon="16.731366">
        <ele>225.909967</ele>
        <time>2020-09-18T07:49:38.885Z</time>
      </trkpt>
      <trkpt lat="48.589331" lon="16.731418">
        <ele>226.229281</ele>
        <time>2020-09-18T07:49:41.901Z</time>
      </trkpt>
      <trkpt lat="48.589239" lon="16.731449">
        <ele>226.454721</ele>
        <time>2020-09-18T07:49:43.908Z</time>
      </trkpt>
      <trkpt lat="48.589147" lon="16.731480">
        <ele>226.680161</ele>
        <time>2020-09-18T07:49:45.929Z</time>
      </trkpt>
      <trkpt lat="48.589057" lon="16.731511">
        <ele>226.900934</ele>
        <time>2020-09-18T07:49:47.892Z</time>
      </trkpt>
      <trkpt lat="48.588966" lon="16.731549">
        <ele>227.126733</ele>
        <time>2020-09-18T07:49:49.904Z</time>
      </trkpt>
      <trkpt lat="48.588837" lon="16.731595">
        <ele>227.443734</ele>
        <time>2020-09-18T07:49:52.892Z</time>
      </trkpt>
      <trkpt lat="48.588719" lon="16.731639">
        <ele>227.734418</ele>
        <time>2020-09-18T07:49:55.913Z</time>
      </trkpt>
      <trkpt lat="48.588606" lon="16.731679">
        <ele>228.011995</ele>
        <time>2020-09-18T07:49:58.912Z</time>
      </trkpt>
      <trkpt lat="48.588492" lon="16.731723">
        <ele>228.293400</ele>
        <time>2020-09-18T07:50:01.922Z</time>
      </trkpt>
      <trkpt lat="48.588367" lon="16.731766">
        <ele>228.600010</ele>
        <time>2020-09-18T07:50:04.910Z</time>
      </trkpt>
      <trkpt lat="48.588278" lon="16.731793">
        <ele>228.817119</ele>
        <time>2020-09-18T07:50:06.899Z</time>
      </trkpt>
      <trkpt lat="48.588151" lon="16.731839">
        <ele>229.129467</ele>
        <time>2020-09-18T07:50:09.908Z</time>
      </trkpt>
      <trkpt lat="48.588033" lon="16.731883">
        <ele>229.420151</ele>
        <time>2020-09-18T07:50:12.897Z</time>
      </trkpt>
      <trkpt lat="48.587917" lon="16.731929">
        <ele>229.706979</ele>
        <time>2020-09-18T07:50:15.897Z</time>
      </trkpt>
      <trkpt lat="48.587797" lon="16.731974">
        <ele>229.926543</ele>
        <time>2020-09-18T07:50:18.912Z</time>
      </trkpt>
      <trkpt lat="48.587672" lon="16.732023">
        <ele>230.152816</ele>
        <time>2020-09-18T07:50:21.914Z</time>
      </trkpt>
      <trkpt lat="48.587549" lon="16.732068">
        <ele>230.374563</ele>
        <time>2020-09-18T07:50:24.908Z</time>
      </trkpt>
      <trkpt lat="48.587419" lon="16.732109">
        <ele>230.607258</ele>
        <time>2020-09-18T07:50:27.897Z</time>
      </trkpt>
      <trkpt lat="48.587295" lon="16.732147">
        <ele>230.828955</ele>
        <time>2020-09-18T07:50:30.909Z</time>
      </trkpt>
      <trkpt lat="48.587177" lon="16.732187">
        <ele>231.040853</ele>
        <time>2020-09-18T07:50:33.906Z</time>
      </trkpt>
      <trkpt lat="48.587060" lon="16.732226">
        <ele>231.250789</ele>
        <time>2020-09-18T07:50:36.893Z</time>
      </trkpt>
      <trkpt lat="48.586940" lon="16.732264">
        <ele>231.465621</ele>
        <time>2020-09-18T07:50:39.936Z</time>
      </trkpt>
      <trkpt lat="48.586813" lon="16.732316">
        <ele>231.696173</ele>
        <time>2020-09-18T07:50:42.898Z</time>
      </trkpt>
      <trkpt lat="48.586685" lon="16.732367">
        <ele>231.928119</ele>
        <time>2020-09-18T07:50:45.912Z</time>
      </trkpt>
      <trkpt lat="48.586556" lon="16.732406">
        <ele>232.158633</ele>
        <time>2020-09-18T07:50:48.914Z</time>
      </trkpt>
      <trkpt lat="48.586465" lon="16.732435">
        <ele>232.321592</ele>
        <time>2020-09-18T07:50:50.909Z</time>
      </trkpt>
      <trkpt lat="48.586376" lon="16.732467">
        <ele>232.481891</ele>
        <time>2020-09-18T07:50:52.903Z</time>
      </trkpt>
      <trkpt lat="48.586263" lon="16.732500">
        <ele>232.683555</ele>
        <time>2020-09-18T07:50:55.884Z</time>
      </trkpt>
      <trkpt lat="48.586139" lon="16.732547">
        <ele>232.906929</ele>
        <time>2020-09-18T07:50:58.896Z</time>
      </trkpt>
      <trkpt lat="48.586018" lon="16.732593">
        <ele>233.121938</ele>
        <time>2020-09-18T07:51:01.899Z</time>
      </trkpt>
      <trkpt lat="48.585893" lon="16.732614">
        <ele>233.338674</ele>
        <time>2020-09-18T07:51:04.899Z</time>
      </trkpt>
      <trkpt lat="48.585799" lon="16.732599">
        <ele>233.501562</ele>
        <time>2020-09-18T07:51:06.907Z</time>
      </trkpt>
      <trkpt lat="48.585694" lon="16.732578">
        <ele>233.684083</ele>
        <time>2020-09-18T07:51:08.905Z</time>
      </trkpt>
      <trkpt lat="48.585583" lon="16.732544">
        <ele>233.879254</ele>
        <time>2020-09-18T07:51:10.900Z</time>
      </trkpt>
      <trkpt lat="48.585475" lon="16.732525">
        <ele>234.066624</ele>
        <time>2020-09-18T07:51:12.923Z</time>
      </trkpt>
      <trkpt lat="48.585369" lon="16.732509">
        <ele>234.250200</ele>
        <time>2020-09-18T07:51:14.899Z</time>
      </trkpt>
      <trkpt lat="48.585258" lon="16.732484">
        <ele>234.443595</ele>
        <time>2020-09-18T07:51:16.900Z</time>
      </trkpt>
      <trkpt lat="48.585148" lon="16.732460">
        <ele>234.635120</ele>
        <time>2020-09-18T07:51:18.885Z</time>
      </trkpt>
      <trkpt lat="48.585045" lon="16.732440">
        <ele>234.814075</ele>
        <time>2020-09-18T07:51:20.893Z</time>
      </trkpt>
      <trkpt lat="48.584932" lon="16.732422">
        <ele>235.009884</ele>
        <time>2020-09-18T07:51:22.889Z</time>
      </trkpt>
      <trkpt lat="48.584814" lon="16.732398">
        <ele>235.215063</ele>
        <time>2020-09-18T07:51:24.900Z</time>
      </trkpt>
      <trkpt lat="48.584696" lon="16.732375">
        <ele>235.420093</ele>
        <time>2020-09-18T07:51:26.889Z</time>
      </trkpt>
      <trkpt lat="48.584578" lon="16.732355">
        <ele>235.624714</ele>
        <time>2020-09-18T07:51:28.899Z</time>
      </trkpt>
      <trkpt lat="48.584462" lon="16.732334">
        <ele>235.826043</ele>
        <time>2020-09-18T07:51:30.919Z</time>
      </trkpt>
      <trkpt lat="48.584320" lon="16.732288">
        <ele>236.319045</ele>
        <time>2020-09-18T07:51:32.910Z</time>
      </trkpt>
      <trkpt lat="48.584202" lon="16.732266">
        <ele>236.987960</ele>
        <time>2020-09-18T07:51:34.893Z</time>
      </trkpt>
      <trkpt lat="48.584078" lon="16.732244">
        <ele>237.690390</ele>
        <time>2020-09-18T07:51:36.903Z</time>
      </trkpt>
      <trkpt lat="48.583941" lon="16.732218">
        <ele>238.467222</ele>
        <time>2020-09-18T07:51:38.913Z</time>
      </trkpt>
      <trkpt lat="48.583788" lon="16.732191">
        <ele>239.333867</ele>
        <time>2020-09-18T07:51:40.919Z</time>
      </trkpt>
      <trkpt lat="48.583646" lon="16.732153">
        <ele>240.145201</ele>
        <time>2020-09-18T07:51:42.902Z</time>
      </trkpt>
      <trkpt lat="48.583527" lon="16.732130">
        <ele>240.820163</ele>
        <time>2020-09-18T07:51:44.905Z</time>
      </trkpt>
      <trkpt lat="48.583417" lon="16.732114">
        <ele>241.441896</ele>
        <time>2020-09-18T07:51:46.890Z</time>
      </trkpt>
      <trkpt lat="48.583312" lon="16.732091">
        <ele>242.038811</ele>
        <time>2020-09-18T07:51:48.905Z</time>
      </trkpt>
      <trkpt lat="48.583216" lon="16.732072">
        <ele>242.583531</ele>
        <time>2020-09-18T07:51:50.909Z</time>
      </trkpt>
      <trkpt lat="48.583109" lon="16.732059">
        <ele>243.187469</ele>
        <time>2020-09-18T07:51:53.908Z</time>
      </trkpt>
      <trkpt lat="48.582989" lon="16.732046">
        <ele>243.864337</ele>
        <time>2020-09-18T07:51:56.896Z</time>
      </trkpt>
      <trkpt lat="48.582895" lon="16.732027">
        <ele>244.397902</ele>
        <time>2020-09-18T07:51:59.896Z</time>
      </trkpt>
      <trkpt lat="48.582790" lon="16.731995">
        <ele>245.000533</ele>
        <time>2020-09-18T07:52:02.898Z</time>
      </trkpt>
      <trkpt lat="48.582673" lon="16.731973">
        <ele>245.663865</ele>
        <time>2020-09-18T07:52:05.866Z</time>
      </trkpt>
      <trkpt lat="48.582562" lon="16.731955">
        <ele>246.244811</ele>
        <time>2020-09-18T07:52:08.882Z</time>
      </trkpt>
      <trkpt lat="48.582472" lon="16.731941">
        <ele>246.635874</ele>
        <time>2020-09-18T07:52:11.893Z</time>
      </trkpt>
      <trkpt lat="48.582363" lon="16.731920">
        <ele>247.110817</ele>
        <time>2020-09-18T07:52:15.889Z</time>
      </trkpt>
      <trkpt lat="48.581906" lon="16.731810">
        <ele>249.111000</ele>
        <time>2020-09-18T07:52:50.889Z</time>
      </trkpt>
      <trkpt lat="48.581783" lon="16.731769">
        <ele>249.655418</ele>
        <time>2020-09-18T07:52:53.881Z</time>
      </trkpt>
      <trkpt lat="48.581659" lon="16.731737">
        <ele>250.199140</ele>
        <time>2020-09-18T07:52:56.882Z</time>
      </trkpt>
      <trkpt lat="48.581532" lon="16.731711">
        <ele>250.753085</ele>
        <time>2020-09-18T07:52:59.884Z</time>
      </trkpt>
      <trkpt lat="48.581400" lon="16.731668">
        <ele>251.336729</ele>
        <time>2020-09-18T07:53:02.886Z</time>
      </trkpt>
      <trkpt lat="48.581311" lon="16.731640">
        <ele>251.729659</ele>
        <time>2020-09-18T07:53:04.885Z</time>
      </trkpt>
      <trkpt lat="48.581217" lon="16.731610">
        <ele>252.144913</ele>
        <time>2020-09-18T07:53:06.882Z</time>
      </trkpt>
      <trkpt lat="48.581118" lon="16.731587">
        <ele>252.577847</ele>
        <time>2020-09-18T07:53:08.887Z</time>
      </trkpt>
      <trkpt lat="48.581014" lon="16.731563">
        <ele>253.032576</ele>
        <time>2020-09-18T07:53:10.883Z</time>
      </trkpt>
      <trkpt lat="48.580902" lon="16.731530">
        <ele>253.525786</ele>
        <time>2020-09-18T07:53:12.887Z</time>
      </trkpt>
      <trkpt lat="48.580787" lon="16.731494">
        <ele>253.970893</ele>
        <time>2020-09-18T07:53:14.878Z</time>
      </trkpt>
      <trkpt lat="48.580668" lon="16.731459">
        <ele>254.302854</ele>
        <time>2020-09-18T07:53:16.884Z</time>
      </trkpt>
      <trkpt lat="48.580551" lon="16.731427">
        <ele>254.628430</ele>
        <time>2020-09-18T07:53:18.890Z</time>
      </trkpt>
      <trkpt lat="48.580434" lon="16.731400">
        <ele>254.952515</ele>
        <time>2020-09-18T07:53:20.881Z</time>
      </trkpt>
      <trkpt lat="48.580306" lon="16.731362">
        <ele>255.309705</ele>
        <time>2020-09-18T07:53:22.883Z</time>
      </trkpt>
      <trkpt lat="48.580175" lon="16.731318">
        <ele>255.677163</ele>
        <time>2020-09-18T07:53:24.882Z</time>
      </trkpt>
      <trkpt lat="48.580035" lon="16.731280">
        <ele>256.066648</ele>
        <time>2020-09-18T07:53:26.885Z</time>
      </trkpt>
      <trkpt lat="48.579887" lon="16.731236">
        <ele>256.479670</ele>
        <time>2020-09-18T07:53:28.885Z</time>
      </trkpt>
      <trkpt lat="48.579735" lon="16.731199">
        <ele>256.901245</ele>
        <time>2020-09-18T07:53:30.886Z</time>
      </trkpt>
      <trkpt lat="48.579581" lon="16.731158">
        <ele>257.329424</ele>
        <time>2020-09-18T07:53:32.924Z</time>
      </trkpt>
      <trkpt lat="48.579426" lon="16.731117">
        <ele>257.760300</ele>
        <time>2020-09-18T07:53:34.903Z</time>
      </trkpt>
      <trkpt lat="48.579275" lon="16.731078">
        <ele>258.179766</ele>
        <time>2020-09-18T07:53:36.896Z</time>
      </trkpt>
      <trkpt lat="48.579127" lon="16.731044">
        <ele>258.589679</ele>
        <time>2020-09-18T07:53:38.915Z</time>
      </trkpt>
      <trkpt lat="48.578985" lon="16.731011">
        <ele>259.028616</ele>
        <time>2020-09-18T07:53:40.906Z</time>
      </trkpt>
      <trkpt lat="48.578849" lon="16.730976">
        <ele>259.494538</ele>
        <time>2020-09-18T07:53:42.901Z</time>
      </trkpt>
      <trkpt lat="48.578717" lon="16.730941">
        <ele>259.947148</ele>
        <time>2020-09-18T07:53:44.902Z</time>
      </trkpt>
      <trkpt lat="48.578591" lon="16.730915">
        <ele>260.376634</ele>
        <time>2020-09-18T07:53:46.904Z</time>
      </trkpt>
      <trkpt lat="48.578476" lon="16.730906">
        <ele>260.765543</ele>
        <time>2020-09-18T07:53:48.920Z</time>
      </trkpt>
      <trkpt lat="48.578360" lon="16.730883">
        <ele>261.160665</ele>
        <time>2020-09-18T07:53:51.898Z</time>
      </trkpt>
      <trkpt lat="48.578267" lon="16.730843">
        <ele>261.487222</ele>
        <time>2020-09-18T07:53:54.899Z</time>
      </trkpt>
      <trkpt lat="48.578164" lon="16.730797">
        <ele>261.849950</ele>
        <time>2020-09-18T07:53:57.891Z</time>
      </trkpt>
      <trkpt lat="48.578043" lon="16.730815">
        <ele>262.260577</ele>
        <time>2020-09-18T07:54:00.889Z</time>
      </trkpt>
      <trkpt lat="48.577971" lon="16.730978">
        <ele>262.698501</ele>
        <time>2020-09-18T07:54:03.910Z</time>
      </trkpt>
      <trkpt lat="48.577971" lon="16.731147">
        <ele>263.076118</ele>
        <time>2020-09-18T07:54:06.911Z</time>
      </trkpt>
      <trkpt lat="48.577966" lon="16.731292">
        <ele>263.400548</ele>
        <time>2020-09-18T07:54:09.903Z</time>
      </trkpt>
      <trkpt lat="48.577963" lon="16.731450">
        <ele>263.753732</ele>
        <time>2020-09-18T07:54:12.900Z</time>
      </trkpt>
      <trkpt lat="48.577962" lon="16.731600">
        <ele>264.088912</ele>
        <time>2020-09-18T07:54:15.909Z</time>
      </trkpt>
      <trkpt lat="48.577956" lon="16.731758">
        <ele>264.442531</ele>
        <time>2020-09-18T07:54:18.923Z</time>
      </trkpt>
      <trkpt lat="48.577955" lon="16.731910">
        <ele>264.782179</ele>
        <time>2020-09-18T07:54:21.945Z</time>
      </trkpt>
      <trkpt lat="48.577956" lon="16.732062">
        <ele>265.164579</ele>
        <time>2020-09-18T07:54:24.917Z</time>
      </trkpt>
      <trkpt lat="48.577957" lon="16.732199">
        <ele>265.521180</ele>
        <time>2020-09-18T07:54:27.891Z</time>
      </trkpt>
      <trkpt lat="48.578010" lon="16.731921">
        <ele>266.274191</ele>
        <time>2020-09-18T07:54:57.897Z</time>
      </trkpt>
      <trkpt lat="48.578014" lon="16.731752">
        <ele>266.714340</ele>
        <time>2020-09-18T07:54:59.887Z</time>
      </trkpt>
      <trkpt lat="48.578020" lon="16.731605">
        <ele>267.097674</ele>
        <time>2020-09-18T07:55:01.901Z</time>
      </trkpt>
      <trkpt lat="48.578018" lon="16.731403">
        <ele>267.623491</ele>
        <time>2020-09-18T07:55:04.894Z</time>
      </trkpt>
      <trkpt lat="48.577991" lon="16.731148">
        <ele>268.295642</ele>
        <time>2020-09-18T07:55:07.888Z</time>
      </trkpt>
      <trkpt lat="48.577986" lon="16.730961">
        <ele>268.782757</ele>
        <time>2020-09-18T07:55:09.919Z</time>
      </trkpt>
      <trkpt lat="48.577984" lon="16.730793">
        <ele>269.220092</ele>
        <time>2020-09-18T07:55:12.917Z</time>
      </trkpt>
      <trkpt lat="48.577877" lon="16.730714">
        <ele>269.688571</ele>
        <time>2020-09-18T07:55:15.906Z</time>
      </trkpt>
      <trkpt lat="48.577783" lon="16.730702">
        <ele>270.059688</ele>
        <time>2020-09-18T07:55:17.896Z</time>
      </trkpt>
      <trkpt lat="48.577693" lon="16.730714">
        <ele>270.415127</ele>
        <time>2020-09-18T07:55:19.885Z</time>
      </trkpt>
      <trkpt lat="48.577587" lon="16.730717">
        <ele>270.832209</ele>
        <time>2020-09-18T07:55:21.894Z</time>
      </trkpt>
      <trkpt lat="48.577493" lon="16.730706">
        <ele>271.203116</ele>
        <time>2020-09-18T07:55:23.935Z</time>
      </trkpt>
      <trkpt lat="48.577383" lon="16.730712">
        <ele>271.636143</ele>
        <time>2020-09-18T07:55:25.913Z</time>
      </trkpt>
      <trkpt lat="48.577287" lon="16.730710">
        <ele>271.996775</ele>
        <time>2020-09-18T07:55:27.894Z</time>
      </trkpt>
      <trkpt lat="48.577166" lon="16.730695">
        <ele>272.366253</ele>
        <time>2020-09-18T07:55:29.905Z</time>
      </trkpt>
      <trkpt lat="48.577056" lon="16.730677">
        <ele>272.702974</ele>
        <time>2020-09-18T07:55:31.899Z</time>
      </trkpt>
      <trkpt lat="48.576926" lon="16.730653">
        <ele>273.101545</ele>
        <time>2020-09-18T07:55:34.904Z</time>
      </trkpt>
      <trkpt lat="48.576837" lon="16.730635">
        <ele>273.374814</ele>
        <time>2020-09-18T07:55:36.905Z</time>
      </trkpt>
      <trkpt lat="48.576742" lon="16.730634">
        <ele>273.663936</ele>
        <time>2020-09-18T07:55:38.917Z</time>
      </trkpt>
      <trkpt lat="48.576652" lon="16.730628">
        <ele>273.938100</ele>
        <time>2020-09-18T07:55:40.904Z</time>
      </trkpt>
      <trkpt lat="48.576563" lon="16.730650">
        <ele>274.212554</ele>
        <time>2020-09-18T07:55:42.921Z</time>
      </trkpt>
      <trkpt lat="48.576446" lon="16.730649">
        <ele>274.568627</ele>
        <time>2020-09-18T07:55:45.919Z</time>
      </trkpt>
      <trkpt lat="48.576345" lon="16.730626">
        <ele>274.879471</ele>
        <time>2020-09-18T07:55:48.898Z</time>
      </trkpt>
      <trkpt lat="48.576234" lon="16.730599">
        <ele>275.221626</ele>
        <time>2020-09-18T07:55:51.883Z</time>
      </trkpt>
      <trkpt lat="48.576115" lon="16.730573">
        <ele>275.587545</ele>
        <time>2020-09-18T07:55:54.891Z</time>
      </trkpt>
      <trkpt lat="48.576008" lon="16.730559">
        <ele>275.914397</ele>
        <time>2020-09-18T07:55:57.892Z</time>
      </trkpt>
      <trkpt lat="48.575907" lon="16.730545">
        <ele>276.223062</ele>
        <time>2020-09-18T07:56:00.887Z</time>
      </trkpt>
      <trkpt lat="48.575804" lon="16.730534">
        <ele>276.537305</ele>
        <time>2020-09-18T07:56:03.888Z</time>
      </trkpt>
      <trkpt lat="48.575702" lon="16.730525">
        <ele>276.848252</ele>
        <time>2020-09-18T07:56:06.890Z</time>
      </trkpt>
      <trkpt lat="48.575607" lon="16.730513">
        <ele>277.138374</ele>
        <time>2020-09-18T07:56:09.886Z</time>
      </trkpt>
      <trkpt lat="48.575498" lon="16.730503">
        <ele>277.492348</ele>
        <time>2020-09-18T07:56:12.902Z</time>
      </trkpt>
      <trkpt lat="48.575391" lon="16.730488">
        <ele>277.940518</ele>
        <time>2020-09-18T07:56:15.893Z</time>
      </trkpt>
      <trkpt lat="48.575274" lon="16.730476">
        <ele>278.429602</ele>
        <time>2020-09-18T07:56:18.911Z</time>
      </trkpt>
      <trkpt lat="48.575148" lon="16.730457">
        <ele>278.957708</ele>
        <time>2020-09-18T07:56:21.903Z</time>
      </trkpt>
      <trkpt lat="48.575023" lon="16.730440">
        <ele>279.481140</ele>
        <time>2020-09-18T07:56:24.939Z</time>
      </trkpt>
      <trkpt lat="48.574906" lon="16.730433">
        <ele>279.969484</ele>
        <time>2020-09-18T07:56:27.901Z</time>
      </trkpt>
      <trkpt lat="48.574793" lon="16.730417">
        <ele>280.442826</ele>
        <time>2020-09-18T07:56:30.898Z</time>
      </trkpt>
      <trkpt lat="48.574678" lon="16.730401">
        <ele>280.924474</ele>
        <time>2020-09-18T07:56:33.901Z</time>
      </trkpt>
      <trkpt lat="48.574560" lon="16.730384">
        <ele>281.418837</ele>
        <time>2020-09-18T07:56:36.898Z</time>
      </trkpt>
      <trkpt lat="48.574444" lon="16.730368">
        <ele>281.904638</ele>
        <time>2020-09-18T07:56:39.906Z</time>
      </trkpt>
      <trkpt lat="48.574327" lon="16.730359">
        <ele>282.393231</ele>
        <time>2020-09-18T07:56:42.918Z</time>
      </trkpt>
      <trkpt lat="48.574219" lon="16.730341">
        <ele>282.846387</ele>
        <time>2020-09-18T07:56:45.900Z</time>
      </trkpt>
      <trkpt lat="48.574255" lon="16.730180">
        <ele>283.315347</ele>
        <time>2020-09-18T07:56:51.895Z</time>
      </trkpt>
      <trkpt lat="48.574333" lon="16.730058">
        <ele>283.783495</ele>
        <time>2020-09-18T07:56:53.910Z</time>
      </trkpt>
      <trkpt lat="48.574380" lon="16.729892">
        <ele>284.281746</ele>
        <time>2020-09-18T07:56:55.930Z</time>
      </trkpt>
      <trkpt lat="48.574351" lon="16.729745">
        <ele>284.705036</ele>
        <time>2020-09-18T07:56:57.901Z</time>
      </trkpt>
      <trkpt lat="48.574357" lon="16.729544">
        <ele>285.495114</ele>
        <time>2020-09-18T07:56:59.914Z</time>
      </trkpt>
      <trkpt lat="48.574381" lon="16.729334">
        <ele>286.481743</ele>
        <time>2020-09-18T07:57:01.897Z</time>
      </trkpt>
      <trkpt lat="48.574414" lon="16.729126">
        <ele>287.472013</ele>
        <time>2020-09-18T07:57:03.916Z</time>
      </trkpt>
      <trkpt lat="48.574456" lon="16.728915">
        <ele>288.492123</ele>
        <time>2020-09-18T07:57:05.892Z</time>
      </trkpt>
      <trkpt lat="48.574494" lon="16.728694">
        <ele>289.549264</ele>
        <time>2020-09-18T07:57:07.897Z</time>
      </trkpt>
      <trkpt lat="48.574535" lon="16.728465">
        <ele>290.647587</ele>
        <time>2020-09-18T07:57:09.897Z</time>
      </trkpt>
      <trkpt lat="48.574563" lon="16.728225">
        <ele>291.775847</ele>
        <time>2020-09-18T07:57:11.915Z</time>
      </trkpt>
      <trkpt lat="48.574593" lon="16.727980">
        <ele>292.929374</ele>
        <time>2020-09-18T07:57:13.896Z</time>
      </trkpt>
      <trkpt lat="48.574624" lon="16.727723">
        <ele>294.138806</ele>
        <time>2020-09-18T07:57:15.899Z</time>
      </trkpt>
      <trkpt lat="48.574657" lon="16.727457">
        <ele>295.391755</ele>
        <time>2020-09-18T07:57:17.913Z</time>
      </trkpt>
      <trkpt lat="48.574726" lon="16.727218">
        <ele>296.598988</ele>
        <time>2020-09-18T07:57:19.910Z</time>
      </trkpt>
      <trkpt lat="48.574772" lon="16.726990">
        <ele>297.639312</ele>
        <time>2020-09-18T07:57:21.928Z</time>
      </trkpt>
      <trkpt lat="48.574809" lon="16.726807">
        <ele>298.249798</ele>
        <time>2020-09-18T07:57:23.923Z</time>
      </trkpt>
      <trkpt lat="48.574740" lon="16.726662">
        <ele>298.819618</ele>
        <time>2020-09-18T07:57:25.892Z</time>
      </trkpt>
      <trkpt lat="48.574613" lon="16.726685">
        <ele>299.436377</ele>
        <time>2020-09-18T07:57:27.891Z</time>
      </trkpt>
      <trkpt lat="48.574547" lon="16.726813">
        <ele>299.954105</ele>
        <time>2020-09-18T07:57:29.895Z</time>
      </trkpt>
      <trkpt lat="48.574496" lon="16.726945">
        <ele>300.441777</ele>
        <time>2020-09-18T07:57:31.899Z</time>
      </trkpt>
      <trkpt lat="48.574395" lon="16.727040">
        <ele>301.015396</ele>
        <time>2020-09-18T07:57:34.932Z</time>
      </trkpt>
      <trkpt lat="48.574294" lon="16.727121">
        <ele>301.566721</ele>
        <time>2020-09-18T07:57:37.907Z</time>
      </trkpt>
      <trkpt lat="48.574191" lon="16.727218">
        <ele>302.151900</ele>
        <time>2020-09-18T07:57:40.909Z</time>
      </trkpt>
      <trkpt lat="48.574083" lon="16.727302">
        <ele>302.737573</ele>
        <time>2020-09-18T07:57:43.903Z</time>
      </trkpt>
      <trkpt lat="48.573976" lon="16.727384">
        <ele>303.316050</ele>
        <time>2020-09-18T07:57:46.894Z</time>
      </trkpt>
      <trkpt lat="48.573875" lon="16.727473">
        <ele>303.879791</ele>
        <time>2020-09-18T07:57:49.897Z</time>
      </trkpt>
      <trkpt lat="48.573780" lon="16.727562">
        <ele>304.418735</ele>
        <time>2020-09-18T07:57:52.920Z</time>
      </trkpt>
      <trkpt lat="48.573688" lon="16.727649">
        <ele>304.942028</ele>
        <time>2020-09-18T07:57:55.903Z</time>
      </trkpt>
      <trkpt lat="48.573585" lon="16.727747">
        <ele>305.528902</ele>
        <time>2020-09-18T07:57:58.924Z</time>
      </trkpt>
      <trkpt lat="48.573482" lon="16.727846">
        <ele>306.117483</ele>
        <time>2020-09-18T07:58:01.890Z</time>
      </trkpt>
      <trkpt lat="48.573386" lon="16.727952">
        <ele>306.456999</ele>
        <time>2020-09-18T07:58:04.902Z</time>
      </trkpt>
      <trkpt lat="48.573291" lon="16.728067">
        <ele>306.779428</ele>
        <time>2020-09-18T07:58:07.917Z</time>
      </trkpt>
      <trkpt lat="48.573199" lon="16.728183">
        <ele>307.096814</ele>
        <time>2020-09-18T07:58:10.921Z</time>
      </trkpt>
      <trkpt lat="48.573107" lon="16.728301">
        <ele>307.416457</ele>
        <time>2020-09-18T07:58:13.919Z</time>
      </trkpt>
      <trkpt lat="48.573021" lon="16.728409">
        <ele>307.712656</ele>
        <time>2020-09-18T07:58:16.914Z</time>
      </trkpt>
      <trkpt lat="48.572932" lon="16.728515">
        <ele>308.012828</ele>
        <time>2020-09-18T07:58:19.923Z</time>
      </trkpt>
      <trkpt lat="48.572844" lon="16.728621">
        <ele>308.310925</ele>
        <time>2020-09-18T07:58:22.898Z</time>
      </trkpt>
      <trkpt lat="48.572754" lon="16.728731">
        <ele>308.617542</ele>
        <time>2020-09-18T07:58:25.912Z</time>
      </trkpt>
      <trkpt lat="48.572657" lon="16.728838">
        <ele>308.935661</ele>
        <time>2020-09-18T07:58:28.897Z</time>
      </trkpt>
      <trkpt lat="48.572563" lon="16.728944">
        <ele>309.246346</ele>
        <time>2020-09-18T07:58:31.922Z</time>
      </trkpt>
      <trkpt lat="48.572464" lon="16.729042">
        <ele>309.559846</ele>
        <time>2020-09-18T07:58:34.905Z</time>
      </trkpt>
      <trkpt lat="48.572360" lon="16.729136">
        <ele>309.880854</ele>
        <time>2020-09-18T07:58:37.933Z</time>
      </trkpt>
      <trkpt lat="48.572259" lon="16.729248">
        <ele>310.212701</ele>
        <time>2020-09-18T07:58:40.905Z</time>
      </trkpt>
      <trkpt lat="48.572156" lon="16.729357">
        <ele>310.545791</ele>
        <time>2020-09-18T07:58:43.906Z</time>
      </trkpt>
      <trkpt lat="48.572050" lon="16.729452">
        <ele>310.872248</ele>
        <time>2020-09-18T07:58:46.909Z</time>
      </trkpt>
      <trkpt lat="48.571948" lon="16.729549">
        <ele>311.167745</ele>
        <time>2020-09-18T07:58:49.921Z</time>
      </trkpt>
      <trkpt lat="48.571845" lon="16.729648">
        <ele>311.460971</ele>
        <time>2020-09-18T07:58:52.907Z</time>
      </trkpt>
      <trkpt lat="48.571746" lon="16.729746">
        <ele>311.745261</ele>
        <time>2020-09-18T07:58:55.893Z</time>
      </trkpt>
      <trkpt lat="48.571652" lon="16.729842">
        <ele>312.017790</ele>
        <time>2020-09-18T07:58:58.932Z</time>
      </trkpt>
      <trkpt lat="48.571551" lon="16.729922">
        <ele>312.291715</ele>
        <time>2020-09-18T07:59:01.926Z</time>
      </trkpt>
      <trkpt lat="48.571454" lon="16.730006">
        <ele>312.560270</ele>
        <time>2020-09-18T07:59:04.902Z</time>
      </trkpt>
      <trkpt lat="48.571358" lon="16.730086">
        <ele>312.823615</ele>
        <time>2020-09-18T07:59:07.905Z</time>
      </trkpt>
      <trkpt lat="48.571261" lon="16.730162">
        <ele>313.086080</ele>
        <time>2020-09-18T07:59:10.917Z</time>
      </trkpt>
      <trkpt lat="48.571164" lon="16.730234">
        <ele>313.345680</ele>
        <time>2020-09-18T07:59:13.894Z</time>
      </trkpt>
      <trkpt lat="48.571067" lon="16.730302">
        <ele>313.602541</ele>
        <time>2020-09-18T07:59:16.923Z</time>
      </trkpt>
      <trkpt lat="48.570966" lon="16.730361">
        <ele>313.862657</ele>
        <time>2020-09-18T07:59:19.905Z</time>
      </trkpt>
      <trkpt lat="48.570864" lon="16.730418">
        <ele>314.123895</ele>
        <time>2020-09-18T07:59:22.917Z</time>
      </trkpt>
      <trkpt lat="48.570756" lon="16.730475">
        <ele>314.398697</ele>
        <time>2020-09-18T07:59:25.918Z</time>
      </trkpt>
      <trkpt lat="48.570652" lon="16.730537">
        <ele>314.667260</ele>
        <time>2020-09-18T07:59:28.908Z</time>
      </trkpt>
      <trkpt lat="48.570550" lon="16.730591">
        <ele>314.926882</ele>
        <time>2020-09-18T07:59:31.900Z</time>
      </trkpt>
      <trkpt lat="48.570453" lon="16.730644">
        <ele>315.174657</ele>
        <time>2020-09-18T07:59:34.925Z</time>
      </trkpt>
      <trkpt lat="48.570357" lon="16.730699">
        <ele>315.640841</ele>
        <time>2020-09-18T07:59:37.899Z</time>
      </trkpt>
      <trkpt lat="48.570250" lon="16.730757">
        <ele>316.279621</ele>
        <time>2020-09-18T07:59:40.902Z</time>
      </trkpt>
      <trkpt lat="48.570147" lon="16.730798">
        <ele>316.878158</ele>
        <time>2020-09-18T07:59:43.921Z</time>
      </trkpt>
      <trkpt lat="48.570045" lon="16.730845">
        <ele>317.477385</ele>
        <time>2020-09-18T07:59:46.928Z</time>
      </trkpt>
      <trkpt lat="48.569940" lon="16.730893">
        <ele>318.093823</ele>
        <time>2020-09-18T07:59:49.910Z</time>
      </trkpt>
      <trkpt lat="48.569835" lon="16.730943">
        <ele>318.712456</ele>
        <time>2020-09-18T07:59:52.909Z</time>
      </trkpt>
      <trkpt lat="48.569731" lon="16.730998">
        <ele>319.331622</ele>
        <time>2020-09-18T07:59:55.900Z</time>
      </trkpt>
      <trkpt lat="48.569627" lon="16.731052">
        <ele>319.949569</ele>
        <time>2020-09-18T07:59:58.925Z</time>
      </trkpt>
      <trkpt lat="48.569518" lon="16.731099">
        <ele>320.586525</ele>
        <time>2020-09-18T08:00:01.906Z</time>
      </trkpt>
      <trkpt lat="48.569413" lon="16.731147">
        <ele>321.202964</ele>
        <time>2020-09-18T08:00:04.904Z</time>
      </trkpt>
      <trkpt lat="48.569303" lon="16.731195">
        <ele>321.846348</ele>
        <time>2020-09-18T08:00:07.916Z</time>
      </trkpt>
      <trkpt lat="48.569216" lon="16.731240">
        <ele>322.363077</ele>
        <time>2020-09-18T08:00:10.901Z</time>
      </trkpt>
      <trkpt lat="48.569040" lon="16.731402">
        <ele>323.521096</ele>
        <time>2020-09-18T08:00:50.913Z</time>
      </trkpt>
      <trkpt lat="48.568927" lon="16.731444">
        <ele>324.175009</ele>
        <time>2020-09-18T08:00:53.913Z</time>
      </trkpt>
      <trkpt lat="48.568807" lon="16.731481">
        <ele>324.863227</ele>
        <time>2020-09-18T08:00:56.917Z</time>
      </trkpt>
      <trkpt lat="48.568717" lon="16.731501">
        <ele>325.369404</ele>
        <time>2020-09-18T08:00:58.903Z</time>
      </trkpt>
      <trkpt lat="48.568624" lon="16.731509">
        <ele>325.625868</ele>
        <time>2020-09-18T08:01:00.924Z</time>
      </trkpt>
      <trkpt lat="48.568530" lon="16.731509">
        <ele>325.884671</ele>
        <time>2020-09-18T08:01:02.914Z</time>
      </trkpt>
      <trkpt lat="48.568436" lon="16.731505">
        <ele>326.143576</ele>
        <time>2020-09-18T08:01:04.894Z</time>
      </trkpt>
      <trkpt lat="48.568340" lon="16.731498">
        <ele>326.408193</ele>
        <time>2020-09-18T08:01:06.898Z</time>
      </trkpt>
      <trkpt lat="48.568241" lon="16.731483">
        <ele>326.682129</ele>
        <time>2020-09-18T08:01:08.884Z</time>
      </trkpt>
      <trkpt lat="48.568135" lon="16.731457">
        <ele>326.977789</ele>
        <time>2020-09-18T08:01:10.896Z</time>
      </trkpt>
      <trkpt lat="48.568027" lon="16.731427">
        <ele>327.280119</ele>
        <time>2020-09-18T08:01:12.902Z</time>
      </trkpt>
      <trkpt lat="48.567917" lon="16.731397">
        <ele>327.587866</ele>
        <time>2020-09-18T08:01:14.897Z</time>
      </trkpt>
      <trkpt lat="48.567803" lon="16.731367">
        <ele>327.906457</ele>
        <time>2020-09-18T08:01:16.892Z</time>
      </trkpt>
      <trkpt lat="48.567685" lon="16.731331">
        <ele>328.237891</ele>
        <time>2020-09-18T08:01:18.902Z</time>
      </trkpt>
      <trkpt lat="48.567566" lon="16.731300">
        <ele>328.570357</ele>
        <time>2020-09-18T08:01:20.925Z</time>
      </trkpt>
      <trkpt lat="48.567445" lon="16.731264">
        <ele>328.909892</ele>
        <time>2020-09-18T08:01:22.907Z</time>
      </trkpt>
      <trkpt lat="48.567323" lon="16.731229">
        <ele>329.251785</ele>
        <time>2020-09-18T08:01:24.898Z</time>
      </trkpt>
      <trkpt lat="48.567201" lon="16.731197">
        <ele>329.592700</ele>
        <time>2020-09-18T08:01:26.902Z</time>
      </trkpt>
      <trkpt lat="48.567078" lon="16.731180">
        <ele>329.932759</ele>
        <time>2020-09-18T08:01:28.902Z</time>
      </trkpt>
      <trkpt lat="48.566957" lon="16.731154">
        <ele>330.269250</ele>
        <time>2020-09-18T08:01:30.911Z</time>
      </trkpt>
      <trkpt lat="48.566837" lon="16.731125">
        <ele>330.527220</ele>
        <time>2020-09-18T08:01:32.907Z</time>
      </trkpt>
      <trkpt lat="48.566721" lon="16.731097">
        <ele>330.764357</ele>
        <time>2020-09-18T08:01:34.907Z</time>
      </trkpt>
      <trkpt lat="48.566605" lon="16.731064">
        <ele>331.002639</ele>
        <time>2020-09-18T08:01:36.914Z</time>
      </trkpt>
      <trkpt lat="48.566491" lon="16.731037">
        <ele>331.235579</ele>
        <time>2020-09-18T08:01:38.923Z</time>
      </trkpt>
      <trkpt lat="48.566379" lon="16.731013">
        <ele>331.463935</ele>
        <time>2020-09-18T08:01:40.938Z</time>
      </trkpt>
      <trkpt lat="48.566271" lon="16.730988">
        <ele>331.684497</ele>
        <time>2020-09-18T08:01:42.906Z</time>
      </trkpt>
      <trkpt lat="48.566164" lon="16.730969">
        <ele>331.901983</ele>
        <time>2020-09-18T08:01:44.894Z</time>
      </trkpt>
      <trkpt lat="48.566054" lon="16.730954">
        <ele>332.124941</ele>
        <time>2020-09-18T08:01:46.901Z</time>
      </trkpt>
      <trkpt lat="48.565943" lon="16.730952">
        <ele>332.349032</ele>
        <time>2020-09-18T08:01:48.892Z</time>
      </trkpt>
      <trkpt lat="48.565833" lon="16.730944">
        <ele>332.571346</ele>
        <time>2020-09-18T08:01:50.913Z</time>
      </trkpt>
      <trkpt lat="48.565721" lon="16.730932">
        <ele>332.798007</ele>
        <time>2020-09-18T08:01:52.900Z</time>
      </trkpt>
      <trkpt lat="48.565609" lon="16.730915">
        <ele>333.025238</ele>
        <time>2020-09-18T08:01:54.890Z</time>
      </trkpt>
      <trkpt lat="48.565497" lon="16.730906">
        <ele>333.251651</ele>
        <time>2020-09-18T08:01:56.897Z</time>
      </trkpt>
      <trkpt lat="48.565383" lon="16.730889">
        <ele>333.482900</ele>
        <time>2020-09-18T08:01:58.907Z</time>
      </trkpt>
      <trkpt lat="48.565261" lon="16.730886">
        <ele>333.729213</ele>
        <time>2020-09-18T08:02:00.902Z</time>
      </trkpt>
      <trkpt lat="48.565138" lon="16.730886">
        <ele>333.961416</ele>
        <time>2020-09-18T08:02:02.894Z</time>
      </trkpt>
      <trkpt lat="48.565014" lon="16.730886">
        <ele>334.077177</ele>
        <time>2020-09-18T08:02:04.907Z</time>
      </trkpt>
      <trkpt lat="48.564887" lon="16.730888">
        <ele>334.195745</ele>
        <time>2020-09-18T08:02:06.902Z</time>
      </trkpt>
      <trkpt lat="48.564754" lon="16.730884">
        <ele>334.319932</ele>
        <time>2020-09-18T08:02:08.919Z</time>
      </trkpt>
      <trkpt lat="48.564619" lon="16.730884">
        <ele>334.445961</ele>
        <time>2020-09-18T08:02:10.909Z</time>
      </trkpt>
      <trkpt lat="48.564483" lon="16.730881">
        <ele>334.572938</ele>
        <time>2020-09-18T08:02:12.895Z</time>
      </trkpt>
      <trkpt lat="48.564342" lon="16.730878">
        <ele>334.704582</ele>
        <time>2020-09-18T08:02:14.921Z</time>
      </trkpt>
      <trkpt lat="48.564198" lon="16.730867">
        <ele>334.839185</ele>
        <time>2020-09-18T08:02:16.921Z</time>
      </trkpt>
      <trkpt lat="48.564053" lon="16.730841">
        <ele>334.975500</ele>
        <time>2020-09-18T08:02:18.902Z</time>
      </trkpt>
      <trkpt lat="48.563911" lon="16.730795">
        <ele>335.111077</ele>
        <time>2020-09-18T08:02:20.891Z</time>
      </trkpt>
      <trkpt lat="48.563803" lon="16.730708">
        <ele>335.225333</ele>
        <time>2020-09-18T08:02:22.888Z</time>
      </trkpt>
      <trkpt lat="48.563706" lon="16.730634">
        <ele>335.326774</ele>
        <time>2020-09-18T08:02:24.920Z</time>
      </trkpt>
      <trkpt lat="48.563615" lon="16.730558">
        <ele>335.423839</ele>
        <time>2020-09-18T08:02:26.924Z</time>
      </trkpt>
      <trkpt lat="48.563379" lon="16.730333">
        <ele>335.672017</ele>
        <time>2020-09-18T08:03:02.902Z</time>
      </trkpt>
      <trkpt lat="48.563289" lon="16.730256">
        <ele>335.747922</ele>
        <time>2020-09-18T08:03:04.931Z</time>
      </trkpt>
      <trkpt lat="48.563187" lon="16.730180">
        <ele>335.831388</ele>
        <time>2020-09-18T08:03:06.919Z</time>
      </trkpt>
      <trkpt lat="48.563081" lon="16.730100">
        <ele>335.918347</ele>
        <time>2020-09-18T08:03:08.890Z</time>
      </trkpt>
      <trkpt lat="48.562972" lon="16.730021">
        <ele>336.007070</ele>
        <time>2020-09-18T08:03:10.914Z</time>
      </trkpt>
      <trkpt lat="48.562865" lon="16.729931">
        <ele>336.096945</ele>
        <time>2020-09-18T08:03:12.928Z</time>
      </trkpt>
      <trkpt lat="48.562757" lon="16.729838">
        <ele>336.188175</ele>
        <time>2020-09-18T08:03:14.909Z</time>
      </trkpt>
      <trkpt lat="48.562649" lon="16.729744">
        <ele>336.279647</ele>
        <time>2020-09-18T08:03:16.895Z</time>
      </trkpt>
      <trkpt lat="48.562539" lon="16.729649">
        <ele>336.372634</ele>
        <time>2020-09-18T08:03:18.901Z</time>
      </trkpt>
      <trkpt lat="48.562424" lon="16.729555">
        <ele>336.468591</ele>
        <time>2020-09-18T08:03:20.912Z</time>
      </trkpt>
      <trkpt lat="48.562308" lon="16.729463">
        <ele>336.564740</ele>
        <time>2020-09-18T08:03:22.918Z</time>
      </trkpt>
      <trkpt lat="48.562189" lon="16.729374">
        <ele>336.662188</ele>
        <time>2020-09-18T08:03:24.923Z</time>
      </trkpt>
      <trkpt lat="48.562070" lon="16.729280">
        <ele>336.760738</ele>
        <time>2020-09-18T08:03:26.903Z</time>
      </trkpt>
      <trkpt lat="48.561953" lon="16.729182">
        <ele>336.858917</ele>
        <time>2020-09-18T08:03:28.897Z</time>
      </trkpt>
      <trkpt lat="48.561839" lon="16.729088">
        <ele>336.947597</ele>
        <time>2020-09-18T08:03:30.924Z</time>
      </trkpt>
      <trkpt lat="48.561726" lon="16.728999">
        <ele>336.958230</ele>
        <time>2020-09-18T08:03:32.912Z</time>
      </trkpt>
      <trkpt lat="48.561613" lon="16.728910">
        <ele>336.968864</ele>
        <time>2020-09-18T08:03:34.923Z</time>
      </trkpt>
      <trkpt lat="48.561503" lon="16.728821">
        <ele>336.979276</ele>
        <time>2020-09-18T08:03:36.912Z</time>
      </trkpt>
      <trkpt lat="48.561393" lon="16.728735">
        <ele>336.989611</ele>
        <time>2020-09-18T08:03:38.912Z</time>
      </trkpt>
      <trkpt lat="48.561282" lon="16.728648">
        <ele>337.000045</ele>
        <time>2020-09-18T08:03:40.893Z</time>
      </trkpt>
      <trkpt lat="48.561170" lon="16.728566">
        <ele>337.010430</ele>
        <time>2020-09-18T08:03:42.878Z</time>
      </trkpt>
      <trkpt lat="48.561057" lon="16.728489">
        <ele>337.020774</ele>
        <time>2020-09-18T08:03:44.893Z</time>
      </trkpt>
      <trkpt lat="48.560941" lon="16.728413">
        <ele>337.031324</ele>
        <time>2020-09-18T08:03:46.898Z</time>
      </trkpt>
      <trkpt lat="48.560819" lon="16.728345">
        <ele>337.042175</ele>
        <time>2020-09-18T08:03:48.889Z</time>
      </trkpt>
      <trkpt lat="48.560697" lon="16.728278">
        <ele>337.053007</ele>
        <time>2020-09-18T08:03:50.892Z</time>
      </trkpt>
      <trkpt lat="48.560577" lon="16.728208">
        <ele>337.063740</ele>
        <time>2020-09-18T08:03:52.904Z</time>
      </trkpt>
      <trkpt lat="48.560454" lon="16.728146">
        <ele>337.074560</ele>
        <time>2020-09-18T08:03:54.906Z</time>
      </trkpt>
      <trkpt lat="48.560327" lon="16.728087">
        <ele>337.085647</ele>
        <time>2020-09-18T08:03:56.888Z</time>
      </trkpt>
      <trkpt lat="48.560203" lon="16.728017">
        <ele>337.096693</ele>
        <time>2020-09-18T08:03:58.934Z</time>
      </trkpt>
      <trkpt lat="48.560081" lon="16.727949">
        <ele>337.146114</ele>
        <time>2020-09-18T08:04:00.922Z</time>
      </trkpt>
      <trkpt lat="48.559959" lon="16.727884">
        <ele>337.195782</ele>
        <time>2020-09-18T08:04:02.906Z</time>
      </trkpt>
      <trkpt lat="48.559842" lon="16.727806">
        <ele>337.244881</ele>
        <time>2020-09-18T08:04:04.909Z</time>
      </trkpt>
      <trkpt lat="48.559727" lon="16.727723">
        <ele>337.293813</ele>
        <time>2020-09-18T08:04:06.914Z</time>
      </trkpt>
      <trkpt lat="48.559633" lon="16.727652">
        <ele>337.334162</ele>
        <time>2020-09-18T08:04:08.912Z</time>
      </trkpt>
      <trkpt lat="48.559552" lon="16.727590">
        <ele>337.369024</ele>
        <time>2020-09-18T08:04:11.911Z</time>
      </trkpt>
      <trkpt lat="48.559461" lon="16.727551">
        <ele>337.405341</ele>
        <time>2020-09-18T08:04:14.903Z</time>
      </trkpt>
      <trkpt lat="48.559352" lon="16.727493">
        <ele>337.449710</ele>
        <time>2020-09-18T08:04:17.912Z</time>
      </trkpt>
      <trkpt lat="48.559226" lon="16.727433">
        <ele>337.500432</ele>
        <time>2020-09-18T08:04:20.927Z</time>
      </trkpt>
      <trkpt lat="48.559138" lon="16.727394">
        <ele>337.535643</ele>
        <time>2020-09-18T08:04:22.907Z</time>
      </trkpt>
      <trkpt lat="48.559049" lon="16.727346">
        <ele>337.571925</ele>
        <time>2020-09-18T08:04:24.914Z</time>
      </trkpt>
      <trkpt lat="48.558955" lon="16.727288">
        <ele>337.610909</ele>
        <time>2020-09-18T08:04:26.898Z</time>
      </trkpt>
      <trkpt lat="48.558863" lon="16.727230">
        <ele>337.649183</ele>
        <time>2020-09-18T08:04:28.892Z</time>
      </trkpt>
      <trkpt lat="48.558772" lon="16.727170">
        <ele>337.687304</ele>
        <time>2020-09-18T08:04:30.924Z</time>
      </trkpt>
      <trkpt lat="48.558679" lon="16.727113">
        <ele>337.725836</ele>
        <time>2020-09-18T08:04:32.934Z</time>
      </trkpt>
      <trkpt lat="48.558587" lon="16.727055">
        <ele>337.764111</ele>
        <time>2020-09-18T08:04:34.900Z</time>
      </trkpt>
      <trkpt lat="48.558501" lon="16.726989">
        <ele>337.806459</ele>
        <time>2020-09-18T08:04:36.930Z</time>
      </trkpt>
      <trkpt lat="48.558416" lon="16.726924">
        <ele>337.857185</ele>
        <time>2020-09-18T08:04:38.915Z</time>
      </trkpt>
      <trkpt lat="48.558328" lon="16.726856">
        <ele>337.909815</ele>
        <time>2020-09-18T08:04:40.919Z</time>
      </trkpt>
      <trkpt lat="48.558243" lon="16.726792">
        <ele>337.960383</ele>
        <time>2020-09-18T08:04:42.896Z</time>
      </trkpt>
      <trkpt lat="48.558159" lon="16.726724">
        <ele>338.011125</ele>
        <time>2020-09-18T08:04:44.906Z</time>
      </trkpt>
      <trkpt lat="48.558078" lon="16.726661">
        <ele>338.059634</ele>
        <time>2020-09-18T08:04:46.908Z</time>
      </trkpt>
      <trkpt lat="48.557989" lon="16.726599">
        <ele>338.111818</ele>
        <time>2020-09-18T08:04:48.906Z</time>
      </trkpt>
      <trkpt lat="48.557901" lon="16.726538">
        <ele>338.163371</ele>
        <time>2020-09-18T08:04:50.901Z</time>
      </trkpt>
      <trkpt lat="48.557806" lon="16.726481">
        <ele>338.217798</ele>
        <time>2020-09-18T08:04:52.899Z</time>
      </trkpt>
      <trkpt lat="48.557714" lon="16.726428">
        <ele>338.270225</ele>
        <time>2020-09-18T08:04:54.929Z</time>
      </trkpt>
      <trkpt lat="48.557621" lon="16.726365">
        <ele>338.324493</ele>
        <time>2020-09-18T08:04:56.898Z</time>
      </trkpt>
      <trkpt lat="48.557526" lon="16.726296">
        <ele>338.380619</ele>
        <time>2020-09-18T08:04:58.899Z</time>
      </trkpt>
      <trkpt lat="48.557436" lon="16.726233">
        <ele>338.433434</ele>
        <time>2020-09-18T08:05:00.904Z</time>
      </trkpt>
      <trkpt lat="48.557347" lon="16.726168">
        <ele>338.486070</ele>
        <time>2020-09-18T08:05:02.909Z</time>
      </trkpt>
      <trkpt lat="48.557255" lon="16.726114">
        <ele>338.538623</ele>
        <time>2020-09-18T08:05:04.901Z</time>
      </trkpt>
      <trkpt lat="48.557164" lon="16.726067">
        <ele>338.589830</ele>
        <time>2020-09-18T08:05:06.900Z</time>
      </trkpt>
      <trkpt lat="48.557072" lon="16.726023">
        <ele>338.641213</ele>
        <time>2020-09-18T08:05:08.899Z</time>
      </trkpt>
      <trkpt lat="48.556980" lon="16.725979">
        <ele>338.692595</ele>
        <time>2020-09-18T08:05:10.885Z</time>
      </trkpt>
      <trkpt lat="48.556887" lon="16.725938">
        <ele>338.744180</ele>
        <time>2020-09-18T08:05:12.923Z</time>
      </trkpt>
      <trkpt lat="48.556790" lon="16.725891">
        <ele>338.755120</ele>
        <time>2020-09-18T08:05:14.917Z</time>
      </trkpt>
      <trkpt lat="48.556691" lon="16.725848">
        <ele>338.765410</ele>
        <time>2020-09-18T08:05:16.912Z</time>
      </trkpt>
      <trkpt lat="48.556593" lon="16.725808">
        <ele>338.775551</ele>
        <time>2020-09-18T08:05:18.893Z</time>
      </trkpt>
      <trkpt lat="48.556492" lon="16.725784">
        <ele>338.785764</ele>
        <time>2020-09-18T08:05:20.915Z</time>
      </trkpt>
      <trkpt lat="48.556388" lon="16.725763">
        <ele>338.796246</ele>
        <time>2020-09-18T08:05:22.915Z</time>
      </trkpt>
      <trkpt lat="48.556284" lon="16.725749">
        <ele>338.806676</ele>
        <time>2020-09-18T08:05:24.921Z</time>
      </trkpt>
      <trkpt lat="48.556178" lon="16.725733">
        <ele>338.817318</ele>
        <time>2020-09-18T08:05:26.925Z</time>
      </trkpt>
      <trkpt lat="48.556069" lon="16.725711">
        <ele>338.828303</ele>
        <time>2020-09-18T08:05:28.938Z</time>
      </trkpt>
      <trkpt lat="48.555955" lon="16.725680">
        <ele>338.839874</ele>
        <time>2020-09-18T08:05:30.900Z</time>
      </trkpt>
      <trkpt lat="48.555835" lon="16.725653">
        <ele>338.851994</ele>
        <time>2020-09-18T08:05:32.896Z</time>
      </trkpt>
      <trkpt lat="48.555708" lon="16.725613">
        <ele>338.864953</ele>
        <time>2020-09-18T08:05:34.940Z</time>
      </trkpt>
      <trkpt lat="48.555577" lon="16.725562">
        <ele>338.878467</ele>
        <time>2020-09-18T08:05:36.893Z</time>
      </trkpt>
      <trkpt lat="48.555449" lon="16.725499">
        <ele>338.891915</ele>
        <time>2020-09-18T08:05:38.914Z</time>
      </trkpt>
      <trkpt lat="48.555318" lon="16.725434">
        <ele>338.905689</ele>
        <time>2020-09-18T08:05:40.911Z</time>
      </trkpt>
      <trkpt lat="48.555183" lon="16.725358">
        <ele>338.920080</ele>
        <time>2020-09-18T08:05:42.921Z</time>
      </trkpt>
      <trkpt lat="48.555044" lon="16.725275">
        <ele>338.899447</ele>
        <time>2020-09-18T08:05:44.946Z</time>
      </trkpt>
      <trkpt lat="48.554899" lon="16.725192">
        <ele>338.861007</ele>
        <time>2020-09-18T08:05:46.896Z</time>
      </trkpt>
      <trkpt lat="48.554747" lon="16.725102">
        <ele>338.820534</ele>
        <time>2020-09-18T08:05:48.906Z</time>
      </trkpt>
      <trkpt lat="48.554592" lon="16.724995">
        <ele>338.778287</ele>
        <time>2020-09-18T08:05:50.897Z</time>
      </trkpt>
      <trkpt lat="48.554438" lon="16.724877">
        <ele>338.735480</ele>
        <time>2020-09-18T08:05:52.911Z</time>
      </trkpt>
      <trkpt lat="48.554283" lon="16.724746">
        <ele>338.691450</ele>
        <time>2020-09-18T08:05:54.904Z</time>
      </trkpt>
      <trkpt lat="48.554131" lon="16.724605">
        <ele>338.647231</ele>
        <time>2020-09-18T08:05:56.915Z</time>
      </trkpt>
      <trkpt lat="48.553985" lon="16.724449">
        <ele>338.602899</ele>
        <time>2020-09-18T08:05:58.904Z</time>
      </trkpt>
      <trkpt lat="48.553837" lon="16.724295">
        <ele>338.558348</ele>
        <time>2020-09-18T08:06:00.899Z</time>
      </trkpt>
      <trkpt lat="48.553763" lon="16.724213">
        <ele>338.535598</ele>
        <time>2020-09-18T08:06:01.896Z</time>
      </trkpt>
      <trkpt lat="48.553690" lon="16.724131">
        <ele>338.513046</ele>
        <time>2020-09-18T08:06:02.902Z</time>
      </trkpt>
      <trkpt lat="48.553618" lon="16.724048">
        <ele>338.490594</ele>
        <time>2020-09-18T08:06:03.894Z</time>
      </trkpt>
      <trkpt lat="48.553482" lon="16.723876">
        <ele>338.488586</ele>
        <time>2020-09-18T08:06:05.896Z</time>
      </trkpt>
      <trkpt lat="48.553348" lon="16.723704">
        <ele>338.501670</ele>
        <time>2020-09-18T08:06:07.904Z</time>
      </trkpt>
      <trkpt lat="48.553220" lon="16.723531">
        <ele>338.514450</ele>
        <time>2020-09-18T08:06:09.890Z</time>
      </trkpt>
      <trkpt lat="48.553097" lon="16.723359">
        <ele>338.526922</ele>
        <time>2020-09-18T08:06:11.898Z</time>
      </trkpt>
      <trkpt lat="48.552977" lon="16.723191">
        <ele>338.539097</ele>
        <time>2020-09-18T08:06:13.897Z</time>
      </trkpt>
      <trkpt lat="48.552866" lon="16.723035">
        <ele>338.550378</ele>
        <time>2020-09-18T08:06:15.922Z</time>
      </trkpt>
      <trkpt lat="48.552758" lon="16.722886">
        <ele>338.561261</ele>
        <time>2020-09-18T08:06:17.924Z</time>
      </trkpt>
      <trkpt lat="48.552659" lon="16.722740">
        <ele>338.571556</ele>
        <time>2020-09-18T08:06:19.928Z</time>
      </trkpt>
      <trkpt lat="48.552568" lon="16.722604">
        <ele>338.581082</ele>
        <time>2020-09-18T08:06:21.897Z</time>
      </trkpt>
      <trkpt lat="48.552487" lon="16.722485">
        <ele>338.589489</ele>
        <time>2020-09-18T08:06:23.912Z</time>
      </trkpt>
      <trkpt lat="48.552419" lon="16.722378">
        <ele>338.596796</ele>
        <time>2020-09-18T08:06:25.904Z</time>
      </trkpt>
      <trkpt lat="48.552356" lon="16.722276">
        <ele>338.603667</ele>
        <time>2020-09-18T08:06:27.900Z</time>
      </trkpt>
      <trkpt lat="48.552264" lon="16.722142">
        <ele>338.606725</ele>
        <time>2020-09-18T08:06:30.915Z</time>
      </trkpt>
      <trkpt lat="48.552179" lon="16.722013">
        <ele>338.483051</ele>
        <time>2020-09-18T08:06:33.913Z</time>
      </trkpt>
      <trkpt lat="48.552097" lon="16.721893">
        <ele>338.365864</ele>
        <time>2020-09-18T08:06:36.898Z</time>
      </trkpt>
      <trkpt lat="48.552011" lon="16.721780">
        <ele>338.248869</ele>
        <time>2020-09-18T08:06:39.913Z</time>
      </trkpt>
      <trkpt lat="48.551917" lon="16.721665">
        <ele>338.124710</ele>
        <time>2020-09-18T08:06:42.932Z</time>
      </trkpt>
      <trkpt lat="48.551811" lon="16.721547">
        <ele>337.989554</ele>
        <time>2020-09-18T08:06:45.925Z</time>
      </trkpt>
      <trkpt lat="48.551735" lon="16.721472">
        <ele>337.896372</ele>
        <time>2020-09-18T08:06:47.892Z</time>
      </trkpt>
      <trkpt lat="48.551656" lon="16.721386">
        <ele>337.796420</ele>
        <time>2020-09-18T08:06:49.929Z</time>
      </trkpt>
      <trkpt lat="48.551571" lon="16.721294">
        <ele>337.689088</ele>
        <time>2020-09-18T08:06:51.889Z</time>
      </trkpt>
      <trkpt lat="48.551480" lon="16.721187">
        <ele>337.570720</ele>
        <time>2020-09-18T08:06:53.908Z</time>
      </trkpt>
      <trkpt lat="48.551379" lon="16.721065">
        <ele>337.437980</ele>
        <time>2020-09-18T08:06:55.937Z</time>
      </trkpt>
      <trkpt lat="48.551269" lon="16.720924">
        <ele>337.289899</ele>
        <time>2020-09-18T08:06:57.904Z</time>
      </trkpt>
      <trkpt lat="48.551154" lon="16.720771">
        <ele>337.132603</ele>
        <time>2020-09-18T08:06:59.902Z</time>
      </trkpt>
      <trkpt lat="48.551034" lon="16.720612">
        <ele>336.968760</ele>
        <time>2020-09-18T08:07:01.900Z</time>
      </trkpt>
      <trkpt lat="48.550907" lon="16.720447">
        <ele>336.796819</ele>
        <time>2020-09-18T08:07:03.901Z</time>
      </trkpt>
      <trkpt lat="48.550776" lon="16.720275">
        <ele>336.742848</ele>
        <time>2020-09-18T08:07:05.909Z</time>
      </trkpt>
      <trkpt lat="48.550701" lon="16.720194">
        <ele>336.727717</ele>
        <time>2020-09-18T08:07:06.917Z</time>
      </trkpt>
      <trkpt lat="48.550629" lon="16.720105">
        <ele>336.712449</ele>
        <time>2020-09-18T08:07:07.911Z</time>
      </trkpt>
      <trkpt lat="48.550558" lon="16.720016">
        <ele>336.697308</ele>
        <time>2020-09-18T08:07:08.903Z</time>
      </trkpt>
      <trkpt lat="48.550487" lon="16.719926">
        <ele>336.682098</ele>
        <time>2020-09-18T08:07:09.892Z</time>
      </trkpt>
      <trkpt lat="48.550416" lon="16.719834">
        <ele>336.666746</ele>
        <time>2020-09-18T08:07:10.917Z</time>
      </trkpt>
      <trkpt lat="48.550343" lon="16.719744">
        <ele>336.651283</ele>
        <time>2020-09-18T08:07:11.899Z</time>
      </trkpt>
      <trkpt lat="48.550269" lon="16.719657">
        <ele>336.635894</ele>
        <time>2020-09-18T08:07:12.893Z</time>
      </trkpt>
      <trkpt lat="48.550194" lon="16.719573">
        <ele>336.620572</ele>
        <time>2020-09-18T08:07:13.907Z</time>
      </trkpt>
      <trkpt lat="48.550120" lon="16.719488">
        <ele>336.605315</ele>
        <time>2020-09-18T08:07:14.904Z</time>
      </trkpt>
      <trkpt lat="48.550047" lon="16.719402">
        <ele>336.590123</ele>
        <time>2020-09-18T08:07:15.926Z</time>
      </trkpt>
      <trkpt lat="48.549973" lon="16.719317">
        <ele>336.574866</ele>
        <time>2020-09-18T08:07:16.911Z</time>
      </trkpt>
      <trkpt lat="48.549900" lon="16.719232">
        <ele>336.559740</ele>
        <time>2020-09-18T08:07:17.914Z</time>
      </trkpt>
      <trkpt lat="48.549828" lon="16.719148">
        <ele>336.544810</ele>
        <time>2020-09-18T08:07:18.926Z</time>
      </trkpt>
      <trkpt lat="48.549756" lon="16.719063">
        <ele>336.529814</ele>
        <time>2020-09-18T08:07:19.908Z</time>
      </trkpt>
      <trkpt lat="48.549615" lon="16.718902">
        <ele>336.500807</ele>
        <time>2020-09-18T08:07:21.913Z</time>
      </trkpt>
      <trkpt lat="48.549481" lon="16.718746">
        <ele>336.473044</ele>
        <time>2020-09-18T08:07:23.923Z</time>
      </trkpt>
      <trkpt lat="48.549351" lon="16.718596">
        <ele>336.459352</ele>
        <time>2020-09-18T08:07:25.901Z</time>
      </trkpt>
      <trkpt lat="48.549228" lon="16.718454">
        <ele>336.447259</ele>
        <time>2020-09-18T08:07:27.912Z</time>
      </trkpt>
      <trkpt lat="48.549110" lon="16.718316">
        <ele>336.435602</ele>
        <time>2020-09-18T08:07:29.897Z</time>
      </trkpt>
      <trkpt lat="48.548992" lon="16.718185">
        <ele>336.424163</ele>
        <time>2020-09-18T08:07:31.903Z</time>
      </trkpt>
      <trkpt lat="48.548884" lon="16.718058">
        <ele>336.413472</ele>
        <time>2020-09-18T08:07:33.893Z</time>
      </trkpt>
      <trkpt lat="48.548781" lon="16.717931">
        <ele>336.403086</ele>
        <time>2020-09-18T08:07:35.933Z</time>
      </trkpt>
      <trkpt lat="48.548679" lon="16.717807">
        <ele>336.392859</ele>
        <time>2020-09-18T08:07:37.901Z</time>
      </trkpt>
      <trkpt lat="48.548575" lon="16.717691">
        <ele>336.382761</ele>
        <time>2020-09-18T08:07:39.914Z</time>
      </trkpt>
      <trkpt lat="48.548473" lon="16.717572">
        <ele>336.372693</ele>
        <time>2020-09-18T08:07:41.919Z</time>
      </trkpt>
      <trkpt lat="48.548377" lon="16.717449">
        <ele>336.362860</ele>
        <time>2020-09-18T08:07:43.895Z</time>
      </trkpt>
      <trkpt lat="48.548277" lon="16.717329">
        <ele>336.352884</ele>
        <time>2020-09-18T08:07:45.897Z</time>
      </trkpt>
      <trkpt lat="48.548178" lon="16.717205">
        <ele>336.342838</ele>
        <time>2020-09-18T08:07:47.894Z</time>
      </trkpt>
      <trkpt lat="48.548086" lon="16.717070">
        <ele>336.332819</ele>
        <time>2020-09-18T08:07:49.886Z</time>
      </trkpt>
      <trkpt lat="48.547992" lon="16.716941">
        <ele>336.310070</ele>
        <time>2020-09-18T08:07:51.893Z</time>
      </trkpt>
      <trkpt lat="48.547894" lon="16.716813">
        <ele>336.283519</ele>
        <time>2020-09-18T08:07:53.912Z</time>
      </trkpt>
      <trkpt lat="48.547790" lon="16.716681">
        <ele>336.255680</ele>
        <time>2020-09-18T08:07:55.896Z</time>
      </trkpt>
      <trkpt lat="48.547688" lon="16.716545">
        <ele>336.227797</ele>
        <time>2020-09-18T08:07:57.903Z</time>
      </trkpt>
      <trkpt lat="48.547582" lon="16.716412">
        <ele>336.199556</ele>
        <time>2020-09-18T08:07:59.900Z</time>
      </trkpt>
      <trkpt lat="48.547474" lon="16.716287">
        <ele>336.171672</ele>
        <time>2020-09-18T08:08:01.894Z</time>
      </trkpt>
      <trkpt lat="48.547369" lon="16.716164">
        <ele>336.144441</ele>
        <time>2020-09-18T08:08:03.910Z</time>
      </trkpt>
      <trkpt lat="48.547274" lon="16.716035">
        <ele>336.118261</ele>
        <time>2020-09-18T08:08:05.911Z</time>
      </trkpt>
      <trkpt lat="48.547178" lon="16.715912">
        <ele>336.092462</ele>
        <time>2020-09-18T08:08:07.932Z</time>
      </trkpt>
      <trkpt lat="48.547085" lon="16.715781">
        <ele>336.066401</ele>
        <time>2020-09-18T08:08:09.927Z</time>
      </trkpt>
      <trkpt lat="48.546992" lon="16.715656">
        <ele>336.040889</ele>
        <time>2020-09-18T08:08:11.898Z</time>
      </trkpt>
      <trkpt lat="48.546902" lon="16.715532">
        <ele>336.015924</ele>
        <time>2020-09-18T08:08:13.892Z</time>
      </trkpt>
      <trkpt lat="48.546815" lon="16.715421">
        <ele>335.992585</ele>
        <time>2020-09-18T08:08:15.901Z</time>
      </trkpt>
      <trkpt lat="48.546730" lon="16.715310">
        <ele>335.969557</ele>
        <time>2020-09-18T08:08:17.923Z</time>
      </trkpt>
      <trkpt lat="48.546651" lon="16.715197">
        <ele>336.020262</ele>
        <time>2020-09-18T08:08:19.917Z</time>
      </trkpt>
      <trkpt lat="48.546569" lon="16.715088">
        <ele>336.107411</ele>
        <time>2020-09-18T08:08:21.900Z</time>
      </trkpt>
      <trkpt lat="48.546487" lon="16.714982">
        <ele>336.193523</ele>
        <time>2020-09-18T08:08:23.925Z</time>
      </trkpt>
      <trkpt lat="48.546406" lon="16.714881">
        <ele>336.277324</ele>
        <time>2020-09-18T08:08:25.914Z</time>
      </trkpt>
      <trkpt lat="48.546323" lon="16.714784">
        <ele>336.361052</ele>
        <time>2020-09-18T08:08:27.906Z</time>
      </trkpt>
      <trkpt lat="48.546242" lon="16.714695">
        <ele>336.440968</ele>
        <time>2020-09-18T08:08:29.896Z</time>
      </trkpt>
      <trkpt lat="48.546159" lon="16.714610">
        <ele>336.520975</ele>
        <time>2020-09-18T08:08:31.901Z</time>
      </trkpt>
      <trkpt lat="48.546080" lon="16.714521">
        <ele>336.599606</ele>
        <time>2020-09-18T08:08:33.922Z</time>
      </trkpt>
      <trkpt lat="48.546008" lon="16.714436">
        <ele>336.672516</ele>
        <time>2020-09-18T08:08:35.915Z</time>
      </trkpt>
      <trkpt lat="48.545900" lon="16.714325">
        <ele>336.776740</ele>
        <time>2020-09-18T08:08:38.912Z</time>
      </trkpt>
      <trkpt lat="48.545796" lon="16.714219">
        <ele>336.876840</ele>
        <time>2020-09-18T08:08:41.899Z</time>
      </trkpt>
      <trkpt lat="48.545687" lon="16.714113">
        <ele>336.980272</ele>
        <time>2020-09-18T08:08:44.907Z</time>
      </trkpt>
      <trkpt lat="48.545611" lon="16.714038">
        <ele>337.052703</ele>
        <time>2020-09-18T08:08:46.916Z</time>
      </trkpt>
      <trkpt lat="48.545533" lon="16.713964">
        <ele>337.126193</ele>
        <time>2020-09-18T08:08:48.904Z</time>
      </trkpt>
      <trkpt lat="48.545428" lon="16.713868">
        <ele>337.224120</ele>
        <time>2020-09-18T08:08:51.919Z</time>
      </trkpt>
      <trkpt lat="48.545324" lon="16.713759">
        <ele>337.325116</ele>
        <time>2020-09-18T08:08:54.906Z</time>
      </trkpt>
      <trkpt lat="48.545249" lon="16.713678">
        <ele>337.399208</ele>
        <time>2020-09-18T08:08:56.897Z</time>
      </trkpt>
      <trkpt lat="48.545138" lon="16.713567">
        <ele>337.544874</ele>
        <time>2020-09-18T08:08:59.904Z</time>
      </trkpt>
      <trkpt lat="48.545060" lon="16.713489">
        <ele>337.647234</ele>
        <time>2020-09-18T08:09:01.932Z</time>
      </trkpt>
      <trkpt lat="48.544980" lon="16.713402">
        <ele>337.755101</ele>
        <time>2020-09-18T08:09:03.927Z</time>
      </trkpt>
      <trkpt lat="48.544898" lon="16.713313">
        <ele>337.865590</ele>
        <time>2020-09-18T08:09:05.917Z</time>
      </trkpt>
      <trkpt lat="48.544806" lon="16.713223">
        <ele>337.985529</ele>
        <time>2020-09-18T08:09:07.912Z</time>
      </trkpt>
      <trkpt lat="48.544714" lon="16.713129">
        <ele>338.107068</ele>
        <time>2020-09-18T08:09:09.901Z</time>
      </trkpt>
      <trkpt lat="48.544622" lon="16.713031">
        <ele>338.230253</ele>
        <time>2020-09-18T08:09:11.902Z</time>
      </trkpt>
      <trkpt lat="48.544521" lon="16.712929">
        <ele>338.363198</ele>
        <time>2020-09-18T08:09:13.900Z</time>
      </trkpt>
      <trkpt lat="48.544424" lon="16.712836">
        <ele>338.488916</ele>
        <time>2020-09-18T08:09:15.901Z</time>
      </trkpt>
      <trkpt lat="48.544308" lon="16.712722">
        <ele>338.640349</ele>
        <time>2020-09-18T08:09:18.916Z</time>
      </trkpt>
      <trkpt lat="48.544221" lon="16.712649">
        <ele>338.749251</ele>
        <time>2020-09-18T08:09:20.906Z</time>
      </trkpt>
      <trkpt lat="48.544133" lon="16.712576">
        <ele>338.859110</ele>
        <time>2020-09-18T08:09:22.915Z</time>
      </trkpt>
      <trkpt lat="48.544043" lon="16.712504">
        <ele>338.970552</ele>
        <time>2020-09-18T08:09:24.925Z</time>
      </trkpt>
      <trkpt lat="48.543956" lon="16.712434">
        <ele>339.078415</ele>
        <time>2020-09-18T08:09:26.899Z</time>
      </trkpt>
      <trkpt lat="48.543866" lon="16.712362">
        <ele>339.189857</ele>
        <time>2020-09-18T08:09:28.917Z</time>
      </trkpt>
      <trkpt lat="48.543779" lon="16.712284">
        <ele>339.300563</ele>
        <time>2020-09-18T08:09:30.900Z</time>
      </trkpt>
      <trkpt lat="48.543696" lon="16.712202">
        <ele>339.386757</ele>
        <time>2020-09-18T08:09:32.895Z</time>
      </trkpt>
      <trkpt lat="48.543604" lon="16.712109">
        <ele>339.445971</ele>
        <time>2020-09-18T08:09:34.903Z</time>
      </trkpt>
      <trkpt lat="48.543522" lon="16.712011">
        <ele>339.501903</ele>
        <time>2020-09-18T08:09:36.928Z</time>
      </trkpt>
      <trkpt lat="48.543441" lon="16.711903">
        <ele>339.559696</ele>
        <time>2020-09-18T08:09:38.887Z</time>
      </trkpt>
      <trkpt lat="48.543353" lon="16.711796">
        <ele>339.620124</ele>
        <time>2020-09-18T08:09:40.904Z</time>
      </trkpt>
      <trkpt lat="48.543266" lon="16.711693">
        <ele>339.679252</ele>
        <time>2020-09-18T08:09:42.921Z</time>
      </trkpt>
      <trkpt lat="48.543168" lon="16.711551">
        <ele>339.751893</ele>
        <time>2020-09-18T08:09:44.898Z</time>
      </trkpt>
      <trkpt lat="48.543057" lon="16.711397">
        <ele>339.832513</ele>
        <time>2020-09-18T08:09:46.910Z</time>
      </trkpt>
      <trkpt lat="48.542937" lon="16.711228">
        <ele>339.920274</ele>
        <time>2020-09-18T08:09:48.906Z</time>
      </trkpt>
      <trkpt lat="48.542801" lon="16.711069">
        <ele>340.012267</ele>
        <time>2020-09-18T08:09:50.916Z</time>
      </trkpt>
      <trkpt lat="48.542653" lon="16.710915">
        <ele>340.108400</ele>
        <time>2020-09-18T08:09:52.911Z</time>
      </trkpt>
      <trkpt lat="48.542575" lon="16.710837">
        <ele>340.158438</ele>
        <time>2020-09-18T08:09:53.928Z</time>
      </trkpt>
      <trkpt lat="48.542497" lon="16.710755">
        <ele>340.209272</ele>
        <time>2020-09-18T08:09:54.936Z</time>
      </trkpt>
      <trkpt lat="48.542422" lon="16.710669">
        <ele>340.259640</ele>
        <time>2020-09-18T08:09:55.897Z</time>
      </trkpt>
      <trkpt lat="48.542346" lon="16.710585">
        <ele>340.310015</ele>
        <time>2020-09-18T08:09:56.906Z</time>
      </trkpt>
      <trkpt lat="48.542270" lon="16.710502">
        <ele>340.342872</ele>
        <time>2020-09-18T08:09:57.924Z</time>
      </trkpt>
      <trkpt lat="48.542194" lon="16.710419">
        <ele>340.366467</ele>
        <time>2020-09-18T08:09:58.906Z</time>
      </trkpt>
      <trkpt lat="48.542116" lon="16.710338">
        <ele>340.390281</ele>
        <time>2020-09-18T08:09:59.921Z</time>
      </trkpt>
      <trkpt lat="48.542035" lon="16.710266">
        <ele>340.413926</ele>
        <time>2020-09-18T08:10:00.912Z</time>
      </trkpt>
      <trkpt lat="48.541955" lon="16.710191">
        <ele>340.437615</ele>
        <time>2020-09-18T08:10:01.897Z</time>
      </trkpt>
      <trkpt lat="48.541877" lon="16.710117">
        <ele>340.460789</ele>
        <time>2020-09-18T08:10:02.924Z</time>
      </trkpt>
      <trkpt lat="48.541801" lon="16.710045">
        <ele>340.483359</ele>
        <time>2020-09-18T08:10:03.922Z</time>
      </trkpt>
      <trkpt lat="48.541646" lon="16.709913">
        <ele>340.528126</ele>
        <time>2020-09-18T08:10:05.897Z</time>
      </trkpt>
      <trkpt lat="48.541500" lon="16.709769">
        <ele>340.571996</ele>
        <time>2020-09-18T08:10:07.907Z</time>
      </trkpt>
      <trkpt lat="48.541356" lon="16.709634">
        <ele>340.614635</ele>
        <time>2020-09-18T08:10:09.895Z</time>
      </trkpt>
      <trkpt lat="48.541222" lon="16.709503">
        <ele>340.654793</ele>
        <time>2020-09-18T08:10:11.897Z</time>
      </trkpt>
      <trkpt lat="48.541093" lon="16.709370">
        <ele>340.694088</ele>
        <time>2020-09-18T08:10:13.899Z</time>
      </trkpt>
      <trkpt lat="48.540966" lon="16.709241">
        <ele>340.732593</ele>
        <time>2020-09-18T08:10:15.926Z</time>
      </trkpt>
      <trkpt lat="48.540842" lon="16.709109">
        <ele>340.770759</ele>
        <time>2020-09-18T08:10:17.898Z</time>
      </trkpt>
      <trkpt lat="48.540722" lon="16.708972">
        <ele>340.720773</ele>
        <time>2020-09-18T08:10:19.925Z</time>
      </trkpt>
      <trkpt lat="48.540607" lon="16.708828">
        <ele>340.642901</ele>
        <time>2020-09-18T08:10:21.915Z</time>
      </trkpt>
      <trkpt lat="48.540495" lon="16.708668">
        <ele>340.562537</ele>
        <time>2020-09-18T08:10:23.922Z</time>
      </trkpt>
      <trkpt lat="48.540379" lon="16.708504">
        <ele>340.479708</ele>
        <time>2020-09-18T08:10:25.944Z</time>
      </trkpt>
      <trkpt lat="48.540264" lon="16.708328">
        <ele>340.394361</ele>
        <time>2020-09-18T08:10:27.922Z</time>
      </trkpt>
      <trkpt lat="48.540146" lon="16.708144">
        <ele>340.305948</ele>
        <time>2020-09-18T08:10:29.907Z</time>
      </trkpt>
      <trkpt lat="48.540025" lon="16.707950">
        <ele>340.213957</ele>
        <time>2020-09-18T08:10:31.899Z</time>
      </trkpt>
      <trkpt lat="48.539957" lon="16.707858">
        <ele>340.166367</ele>
        <time>2020-09-18T08:10:32.922Z</time>
      </trkpt>
      <trkpt lat="48.539884" lon="16.707767">
        <ele>340.117024</ele>
        <time>2020-09-18T08:10:33.927Z</time>
      </trkpt>
      <trkpt lat="48.539807" lon="16.707679">
        <ele>340.066688</ele>
        <time>2020-09-18T08:10:34.893Z</time>
      </trkpt>
      <trkpt lat="48.539727" lon="16.707593">
        <ele>340.015499</ele>
        <time>2020-09-18T08:10:35.891Z</time>
      </trkpt>
      <trkpt lat="48.539642" lon="16.707509">
        <ele>339.962547</ele>
        <time>2020-09-18T08:10:36.923Z</time>
      </trkpt>
      <trkpt lat="48.539556" lon="16.707419">
        <ele>339.908005</ele>
        <time>2020-09-18T08:10:37.937Z</time>
      </trkpt>
      <trkpt lat="48.539466" lon="16.707337">
        <ele>339.853213</ele>
        <time>2020-09-18T08:10:38.893Z</time>
      </trkpt>
      <trkpt lat="48.539374" lon="16.707253">
        <ele>339.864470</ele>
        <time>2020-09-18T08:10:39.923Z</time>
      </trkpt>
      <trkpt lat="48.539280" lon="16.707172">
        <ele>339.892024</ele>
        <time>2020-09-18T08:10:40.896Z</time>
      </trkpt>
      <trkpt lat="48.539183" lon="16.707094">
        <ele>339.920003</ele>
        <time>2020-09-18T08:10:41.915Z</time>
      </trkpt>
      <trkpt lat="48.539084" lon="16.707018">
        <ele>339.948278</ele>
        <time>2020-09-18T08:10:42.905Z</time>
      </trkpt>
      <trkpt lat="48.538986" lon="16.706943">
        <ele>339.976250</ele>
        <time>2020-09-18T08:10:43.910Z</time>
      </trkpt>
      <trkpt lat="48.538889" lon="16.706864">
        <ele>340.004309</ele>
        <time>2020-09-18T08:10:44.897Z</time>
      </trkpt>
      <trkpt lat="48.538790" lon="16.706788">
        <ele>340.032584</ele>
        <time>2020-09-18T08:10:45.906Z</time>
      </trkpt>
      <trkpt lat="48.538691" lon="16.706716">
        <ele>340.060560</ele>
        <time>2020-09-18T08:10:46.906Z</time>
      </trkpt>
      <trkpt lat="48.538592" lon="16.706646">
        <ele>340.088391</ele>
        <time>2020-09-18T08:10:47.928Z</time>
      </trkpt>
      <trkpt lat="48.538495" lon="16.706574">
        <ele>340.115910</ele>
        <time>2020-09-18T08:10:48.909Z</time>
      </trkpt>
      <trkpt lat="48.538398" lon="16.706519">
        <ele>340.142289</ele>
        <time>2020-09-18T08:10:49.912Z</time>
      </trkpt>
      <trkpt lat="48.538300" lon="16.706485">
        <ele>340.167891</ele>
        <time>2020-09-18T08:10:50.903Z</time>
      </trkpt>
      <trkpt lat="48.538203" lon="16.706452">
        <ele>340.193206</ele>
        <time>2020-09-18T08:10:51.902Z</time>
      </trkpt>
      <trkpt lat="48.538110" lon="16.706411">
        <ele>340.217873</ele>
        <time>2020-09-18T08:10:52.901Z</time>
      </trkpt>
      <trkpt lat="48.537939" lon="16.706375">
        <ele>340.261831</ele>
        <time>2020-09-18T08:10:54.917Z</time>
      </trkpt>
      <trkpt lat="48.537783" lon="16.706355">
        <ele>340.298928</ele>
        <time>2020-09-18T08:10:56.895Z</time>
      </trkpt>
      <trkpt lat="48.537644" lon="16.706328">
        <ele>340.262155</ele>
        <time>2020-09-18T08:10:58.890Z</time>
      </trkpt>
      <trkpt lat="48.537516" lon="16.706309">
        <ele>340.228408</ele>
        <time>2020-09-18T08:11:00.920Z</time>
      </trkpt>
      <trkpt lat="48.537398" lon="16.706298">
        <ele>340.197388</ele>
        <time>2020-09-18T08:11:02.937Z</time>
      </trkpt>
      <trkpt lat="48.537291" lon="16.706288">
        <ele>340.169259</ele>
        <time>2020-09-18T08:11:04.940Z</time>
      </trkpt>
      <trkpt lat="48.537191" lon="16.706278">
        <ele>340.142963</ele>
        <time>2020-09-18T08:11:06.896Z</time>
      </trkpt>
      <trkpt lat="48.537096" lon="16.706270">
        <ele>340.117997</ele>
        <time>2020-09-18T08:11:08.900Z</time>
      </trkpt>
      <trkpt lat="48.536963" lon="16.706256">
        <ele>340.083015</ele>
        <time>2020-09-18T08:11:11.921Z</time>
      </trkpt>
      <trkpt lat="48.536835" lon="16.706242">
        <ele>340.049342</ele>
        <time>2020-09-18T08:11:14.887Z</time>
      </trkpt>
      <trkpt lat="48.536703" lon="16.706216">
        <ele>340.014413</ele>
        <time>2020-09-18T08:11:17.904Z</time>
      </trkpt>
      <trkpt lat="48.536609" lon="16.706197">
        <ele>339.989529</ele>
        <time>2020-09-18T08:11:19.917Z</time>
      </trkpt>
      <trkpt lat="48.536504" lon="16.706171">
        <ele>339.961611</ele>
        <time>2020-09-18T08:11:21.919Z</time>
      </trkpt>
      <trkpt lat="48.536388" lon="16.706137">
        <ele>339.930606</ele>
        <time>2020-09-18T08:11:23.911Z</time>
      </trkpt>
      <trkpt lat="48.536263" lon="16.706101">
        <ele>339.897217</ele>
        <time>2020-09-18T08:11:25.910Z</time>
      </trkpt>
      <trkpt lat="48.536128" lon="16.706067">
        <ele>339.861305</ele>
        <time>2020-09-18T08:11:27.912Z</time>
      </trkpt>
      <trkpt lat="48.535986" lon="16.706033">
        <ele>339.820861</ele>
        <time>2020-09-18T08:11:29.911Z</time>
      </trkpt>
      <trkpt lat="48.535833" lon="16.705995">
        <ele>339.757168</ele>
        <time>2020-09-18T08:11:31.910Z</time>
      </trkpt>
      <trkpt lat="48.535678" lon="16.705955">
        <ele>339.692575</ele>
        <time>2020-09-18T08:11:33.896Z</time>
      </trkpt>
      <trkpt lat="48.535522" lon="16.705915">
        <ele>339.627577</ele>
        <time>2020-09-18T08:11:35.904Z</time>
      </trkpt>
      <trkpt lat="48.535368" lon="16.705879">
        <ele>339.563564</ele>
        <time>2020-09-18T08:11:37.903Z</time>
      </trkpt>
      <trkpt lat="48.535212" lon="16.705847">
        <ele>339.498895</ele>
        <time>2020-09-18T08:11:39.890Z</time>
      </trkpt>
      <trkpt lat="48.535056" lon="16.705816">
        <ele>339.434261</ele>
        <time>2020-09-18T08:11:41.893Z</time>
      </trkpt>
      <trkpt lat="48.534902" lon="16.705787">
        <ele>339.370512</ele>
        <time>2020-09-18T08:11:43.906Z</time>
      </trkpt>
      <trkpt lat="48.534750" lon="16.705767">
        <ele>339.307838</ele>
        <time>2020-09-18T08:11:45.927Z</time>
      </trkpt>
      <trkpt lat="48.534603" lon="16.705759">
        <ele>339.247415</ele>
        <time>2020-09-18T08:11:47.921Z</time>
      </trkpt>
      <trkpt lat="48.534457" lon="16.705751">
        <ele>339.187402</ele>
        <time>2020-09-18T08:11:49.886Z</time>
      </trkpt>
      <trkpt lat="48.534300" lon="16.705733">
        <ele>339.122725</ele>
        <time>2020-09-18T08:11:51.902Z</time>
      </trkpt>
      <trkpt lat="48.534138" lon="16.705703">
        <ele>339.061003</ele>
        <time>2020-09-18T08:11:53.900Z</time>
      </trkpt>
      <trkpt lat="48.533977" lon="16.705660">
        <ele>339.004394</ele>
        <time>2020-09-18T08:11:55.909Z</time>
      </trkpt>
      <trkpt lat="48.533821" lon="16.705594">
        <ele>338.948303</ele>
        <time>2020-09-18T08:11:57.901Z</time>
      </trkpt>
      <trkpt lat="48.533672" lon="16.705510">
        <ele>338.893236</ele>
        <time>2020-09-18T08:11:59.907Z</time>
      </trkpt>
      <trkpt lat="48.533530" lon="16.705412">
        <ele>338.839181</ele>
        <time>2020-09-18T08:12:01.905Z</time>
      </trkpt>
      <trkpt lat="48.533391" lon="16.705312">
        <ele>338.785872</ele>
        <time>2020-09-18T08:12:03.923Z</time>
      </trkpt>
      <trkpt lat="48.533258" lon="16.705211">
        <ele>338.734329</ele>
        <time>2020-09-18T08:12:05.888Z</time>
      </trkpt>
      <trkpt lat="48.533134" lon="16.705100">
        <ele>338.684420</ele>
        <time>2020-09-18T08:12:07.902Z</time>
      </trkpt>
      <trkpt lat="48.533020" lon="16.704981">
        <ele>338.636438</ele>
        <time>2020-09-18T08:12:09.918Z</time>
      </trkpt>
      <trkpt lat="48.532915" lon="16.704859">
        <ele>338.590568</ele>
        <time>2020-09-18T08:12:11.894Z</time>
      </trkpt>
      <trkpt lat="48.532814" lon="16.704752">
        <ele>338.547852</ele>
        <time>2020-09-18T08:12:13.899Z</time>
      </trkpt>
      <trkpt lat="48.532715" lon="16.704644">
        <ele>338.505567</ele>
        <time>2020-09-18T08:12:15.907Z</time>
      </trkpt>
      <trkpt lat="48.532625" lon="16.704537">
        <ele>338.465249</ele>
        <time>2020-09-18T08:12:17.951Z</time>
      </trkpt>
      <trkpt lat="48.532540" lon="16.704433">
        <ele>338.399535</ele>
        <time>2020-09-18T08:12:19.918Z</time>
      </trkpt>
      <trkpt lat="48.532459" lon="16.704344">
        <ele>338.339362</ele>
        <time>2020-09-18T08:12:21.909Z</time>
      </trkpt>
      <trkpt lat="48.532378" lon="16.704262">
        <ele>338.280785</ele>
        <time>2020-09-18T08:12:23.934Z</time>
      </trkpt>
      <trkpt lat="48.532299" lon="16.704184">
        <ele>338.224088</ele>
        <time>2020-09-18T08:12:25.914Z</time>
      </trkpt>
      <trkpt lat="48.532222" lon="16.704111">
        <ele>338.169475</ele>
        <time>2020-09-18T08:12:27.905Z</time>
      </trkpt>
      <trkpt lat="48.532112" lon="16.704008">
        <ele>338.091728</ele>
        <time>2020-09-18T08:12:30.902Z</time>
      </trkpt>
      <trkpt lat="48.532006" lon="16.703902">
        <ele>338.015360</ele>
        <time>2020-09-18T08:12:33.892Z</time>
      </trkpt>
      <trkpt lat="48.531899" lon="16.703802">
        <ele>337.939773</ele>
        <time>2020-09-18T08:12:36.947Z</time>
      </trkpt>
      <trkpt lat="48.531795" lon="16.703688">
        <ele>337.862578</ele>
        <time>2020-09-18T08:12:39.905Z</time>
      </trkpt>
      <trkpt lat="48.531684" lon="16.703583">
        <ele>337.783900</ele>
        <time>2020-09-18T08:12:42.901Z</time>
      </trkpt>
      <trkpt lat="48.531604" lon="16.703513">
        <ele>337.728361</ele>
        <time>2020-09-18T08:12:44.890Z</time>
      </trkpt>
      <trkpt lat="48.531518" lon="16.703440">
        <ele>337.669099</ele>
        <time>2020-09-18T08:12:46.905Z</time>
      </trkpt>
      <trkpt lat="48.531429" lon="16.703352">
        <ele>337.605197</ele>
        <time>2020-09-18T08:12:48.890Z</time>
      </trkpt>
      <trkpt lat="48.531336" lon="16.703249">
        <ele>337.535919</ele>
        <time>2020-09-18T08:12:50.902Z</time>
      </trkpt>
      <trkpt lat="48.531238" lon="16.703137">
        <ele>337.462093</ele>
        <time>2020-09-18T08:12:52.910Z</time>
      </trkpt>
      <trkpt lat="48.531126" lon="16.703011">
        <ele>337.371666</ele>
        <time>2020-09-18T08:12:54.912Z</time>
      </trkpt>
      <trkpt lat="48.531011" lon="16.702884">
        <ele>337.217732</ele>
        <time>2020-09-18T08:12:56.913Z</time>
      </trkpt>
      <trkpt lat="48.530885" lon="16.702745">
        <ele>337.049137</ele>
        <time>2020-09-18T08:12:58.916Z</time>
      </trkpt>
      <trkpt lat="48.530758" lon="16.702599">
        <ele>336.876681</ele>
        <time>2020-09-18T08:13:00.936Z</time>
      </trkpt>
      <trkpt lat="48.530626" lon="16.702443">
        <ele>336.695576</ele>
        <time>2020-09-18T08:13:02.906Z</time>
      </trkpt>
      <trkpt lat="48.530497" lon="16.702271">
        <ele>336.509641</ele>
        <time>2020-09-18T08:13:04.901Z</time>
      </trkpt>
      <trkpt lat="48.530393" lon="16.702058">
        <ele>336.320293</ele>
        <time>2020-09-18T08:13:06.892Z</time>
      </trkpt>
      <trkpt lat="48.530310" lon="16.701831">
        <ele>336.134761</ele>
        <time>2020-09-18T08:13:08.883Z</time>
      </trkpt>
      <trkpt lat="48.530249" lon="16.701595">
        <ele>335.953496</ele>
        <time>2020-09-18T08:13:10.879Z</time>
      </trkpt>
      <trkpt lat="48.530205" lon="16.701364">
        <ele>335.781513</ele>
        <time>2020-09-18T08:13:12.900Z</time>
      </trkpt>
      <trkpt lat="48.530170" lon="16.701133">
        <ele>335.611961</ele>
        <time>2020-09-18T08:13:14.900Z</time>
      </trkpt>
      <trkpt lat="48.530140" lon="16.700909">
        <ele>335.448443</ele>
        <time>2020-09-18T08:13:16.908Z</time>
      </trkpt>
      <trkpt lat="48.530109" lon="16.700691">
        <ele>335.418672</ele>
        <time>2020-09-18T08:13:18.903Z</time>
      </trkpt>
      <trkpt lat="48.530089" lon="16.700484">
        <ele>335.395021</ele>
        <time>2020-09-18T08:13:20.909Z</time>
      </trkpt>
      <trkpt lat="48.530087" lon="16.700284">
        <ele>335.372407</ele>
        <time>2020-09-18T08:13:22.923Z</time>
      </trkpt>
      <trkpt lat="48.530091" lon="16.700099">
        <ele>335.351480</ele>
        <time>2020-09-18T08:13:24.922Z</time>
      </trkpt>
      <trkpt lat="48.530090" lon="16.699922">
        <ele>335.331468</ele>
        <time>2020-09-18T08:13:26.897Z</time>
      </trkpt>
      <trkpt lat="48.530090" lon="16.699751">
        <ele>335.312134</ele>
        <time>2020-09-18T08:13:28.898Z</time>
      </trkpt>
      <trkpt lat="48.530091" lon="16.699586">
        <ele>335.293479</ele>
        <time>2020-09-18T08:13:30.907Z</time>
      </trkpt>
      <trkpt lat="48.530092" lon="16.699428">
        <ele>335.275615</ele>
        <time>2020-09-18T08:13:32.902Z</time>
      </trkpt>
      <trkpt lat="48.530096" lon="16.699270">
        <ele>335.257739</ele>
        <time>2020-09-18T08:13:34.933Z</time>
      </trkpt>
      <trkpt lat="48.530103" lon="16.699109">
        <ele>335.239497</ele>
        <time>2020-09-18T08:13:36.924Z</time>
      </trkpt>
      <trkpt lat="48.530113" lon="16.698951">
        <ele>335.221552</ele>
        <time>2020-09-18T08:13:38.901Z</time>
      </trkpt>
      <trkpt lat="48.530123" lon="16.698803">
        <ele>335.204733</ele>
        <time>2020-09-18T08:13:40.922Z</time>
      </trkpt>
      <trkpt lat="48.530133" lon="16.698659">
        <ele>335.188363</ele>
        <time>2020-09-18T08:13:42.914Z</time>
      </trkpt>
      <trkpt lat="48.530143" lon="16.698525">
        <ele>335.173117</ele>
        <time>2020-09-18T08:13:44.898Z</time>
      </trkpt>
      <trkpt lat="48.530157" lon="16.698389">
        <ele>335.157557</ele>
        <time>2020-09-18T08:13:46.895Z</time>
      </trkpt>
      <trkpt lat="48.530170" lon="16.698254">
        <ele>335.142133</ele>
        <time>2020-09-18T08:13:48.902Z</time>
      </trkpt>
      <trkpt lat="48.530183" lon="16.698119">
        <ele>335.193670</ele>
        <time>2020-09-18T08:13:50.916Z</time>
      </trkpt>
      <trkpt lat="48.530202" lon="16.697922">
        <ele>335.334252</ele>
        <time>2020-09-18T08:13:53.915Z</time>
      </trkpt>
      <trkpt lat="48.530215" lon="16.697787">
        <ele>335.430586</ele>
        <time>2020-09-18T08:13:55.899Z</time>
      </trkpt>
      <trkpt lat="48.530231" lon="16.697654">
        <ele>335.526043</ele>
        <time>2020-09-18T08:13:57.909Z</time>
      </trkpt>
      <trkpt lat="48.530252" lon="16.697454">
        <ele>335.669039</ele>
        <time>2020-09-18T08:14:00.900Z</time>
      </trkpt>
      <trkpt lat="48.530276" lon="16.697259">
        <ele>335.809099</ele>
        <time>2020-09-18T08:14:03.896Z</time>
      </trkpt>
      <trkpt lat="48.530301" lon="16.697071">
        <ele>335.944508</ele>
        <time>2020-09-18T08:14:06.915Z</time>
      </trkpt>
      <trkpt lat="48.530325" lon="16.696886">
        <ele>336.077630</ele>
        <time>2020-09-18T08:14:09.892Z</time>
      </trkpt>
      <trkpt lat="48.530353" lon="16.696704">
        <ele>336.209574</ele>
        <time>2020-09-18T08:14:12.920Z</time>
      </trkpt>
      <trkpt lat="48.530385" lon="16.696529">
        <ele>336.337777</ele>
        <time>2020-09-18T08:14:15.905Z</time>
      </trkpt>
      <trkpt lat="48.530417" lon="16.696356">
        <ele>336.464619</ele>
        <time>2020-09-18T08:14:18.929Z</time>
      </trkpt>
      <trkpt lat="48.530452" lon="16.696184">
        <ele>336.591683</ele>
        <time>2020-09-18T08:14:21.900Z</time>
      </trkpt>
      <trkpt lat="48.530488" lon="16.696010">
        <ele>336.720412</ele>
        <time>2020-09-18T08:14:24.904Z</time>
      </trkpt>
      <trkpt lat="48.530523" lon="16.695839">
        <ele>336.846801</ele>
        <time>2020-09-18T08:14:27.913Z</time>
      </trkpt>
      <trkpt lat="48.530562" lon="16.695664">
        <ele>336.977189</ele>
        <time>2020-09-18T08:14:30.919Z</time>
      </trkpt>
      <trkpt lat="48.530618" lon="16.695482">
        <ele>337.176814</ele>
        <time>2020-09-18T08:14:33.914Z</time>
      </trkpt>
      <trkpt lat="48.530675" lon="16.695302">
        <ele>337.443278</ele>
        <time>2020-09-18T08:14:36.914Z</time>
      </trkpt>
      <trkpt lat="48.530718" lon="16.695118">
        <ele>337.703866</ele>
        <time>2020-09-18T08:14:39.906Z</time>
      </trkpt>
      <trkpt lat="48.530758" lon="16.694932">
        <ele>337.965042</ele>
        <time>2020-09-18T08:14:42.933Z</time>
      </trkpt>
      <trkpt lat="48.530789" lon="16.694801">
        <ele>338.150830</ele>
        <time>2020-09-18T08:14:44.922Z</time>
      </trkpt>
      <trkpt lat="48.530823" lon="16.694668">
        <ele>338.341229</ele>
        <time>2020-09-18T08:14:46.903Z</time>
      </trkpt>
      <trkpt lat="48.530852" lon="16.694532">
        <ele>338.532043</ele>
        <time>2020-09-18T08:14:48.913Z</time>
      </trkpt>
      <trkpt lat="48.530880" lon="16.694395">
        <ele>338.723524</ele>
        <time>2020-09-18T08:14:50.898Z</time>
      </trkpt>
      <trkpt lat="48.530917" lon="16.694261">
        <ele>338.917416</ele>
        <time>2020-09-18T08:14:52.919Z</time>
      </trkpt>
      <trkpt lat="48.530952" lon="16.694129">
        <ele>339.107309</ele>
        <time>2020-09-18T08:14:54.911Z</time>
      </trkpt>
      <trkpt lat="48.530991" lon="16.694005">
        <ele>339.290641</ele>
        <time>2020-09-18T08:14:56.913Z</time>
      </trkpt>
      <trkpt lat="48.531035" lon="16.693871">
        <ele>339.490392</ele>
        <time>2020-09-18T08:14:58.915Z</time>
      </trkpt>
      <trkpt lat="48.531072" lon="16.693738">
        <ele>339.683051</ele>
        <time>2020-09-18T08:15:00.927Z</time>
      </trkpt>
      <trkpt lat="48.531107" lon="16.693602">
        <ele>339.877914</ele>
        <time>2020-09-18T08:15:02.904Z</time>
      </trkpt>
      <trkpt lat="48.531144" lon="16.693467">
        <ele>340.073039</ele>
        <time>2020-09-18T08:15:04.901Z</time>
      </trkpt>
      <trkpt lat="48.531182" lon="16.693336">
        <ele>340.264039</ele>
        <time>2020-09-18T08:15:06.892Z</time>
      </trkpt>
      <trkpt lat="48.531227" lon="16.693212">
        <ele>340.452878</ele>
        <time>2020-09-18T08:15:08.902Z</time>
      </trkpt>
      <trkpt lat="48.531263" lon="16.693078">
        <ele>340.646002</ele>
        <time>2020-09-18T08:15:10.888Z</time>
      </trkpt>
      <trkpt lat="48.531296" lon="16.692943">
        <ele>340.740971</ele>
        <time>2020-09-18T08:15:12.901Z</time>
      </trkpt>
      <trkpt lat="48.531328" lon="16.692807">
        <ele>340.814275</ele>
        <time>2020-09-18T08:15:14.892Z</time>
      </trkpt>
      <trkpt lat="48.531367" lon="16.692670">
        <ele>340.890014</ele>
        <time>2020-09-18T08:15:16.910Z</time>
      </trkpt>
      <trkpt lat="48.531408" lon="16.692535">
        <ele>340.965447</ele>
        <time>2020-09-18T08:15:18.933Z</time>
      </trkpt>
      <trkpt lat="48.531446" lon="16.692395">
        <ele>341.042293</ele>
        <time>2020-09-18T08:15:20.895Z</time>
      </trkpt>
      <trkpt lat="48.531479" lon="16.692248">
        <ele>341.121127</ele>
        <time>2020-09-18T08:15:22.928Z</time>
      </trkpt>
      <trkpt lat="48.531507" lon="16.692091">
        <ele>341.203708</ele>
        <time>2020-09-18T08:15:24.904Z</time>
      </trkpt>
      <trkpt lat="48.531538" lon="16.691929">
        <ele>341.289353</ele>
        <time>2020-09-18T08:15:26.927Z</time>
      </trkpt>
      <trkpt lat="48.531492" lon="16.691805">
        <ele>341.361540</ele>
        <time>2020-09-18T08:15:28.899Z</time>
      </trkpt>
      <trkpt lat="48.531375" lon="16.691860">
        <ele>341.455523</ele>
        <time>2020-09-18T08:15:30.899Z</time>
      </trkpt>
      <trkpt lat="48.531249" lon="16.691917">
        <ele>341.556405</ele>
        <time>2020-09-18T08:15:32.947Z</time>
      </trkpt>
      <trkpt lat="48.531121" lon="16.691961">
        <ele>341.657088</ele>
        <time>2020-09-18T08:15:34.901Z</time>
      </trkpt>
      <trkpt lat="48.530997" lon="16.692010">
        <ele>341.755395</ele>
        <time>2020-09-18T08:15:36.907Z</time>
      </trkpt>
      <trkpt lat="48.530873" lon="16.692059">
        <ele>341.853701</ele>
        <time>2020-09-18T08:15:38.898Z</time>
      </trkpt>
      <trkpt lat="48.530752" lon="16.692098">
        <ele>341.948595</ele>
        <time>2020-09-18T08:15:40.951Z</time>
      </trkpt>
      <trkpt lat="48.530635" lon="16.692142">
        <ele>342.041072</ele>
        <time>2020-09-18T08:15:42.898Z</time>
      </trkpt>
      <trkpt lat="48.530516" lon="16.692182">
        <ele>341.975026</ele>
        <time>2020-09-18T08:15:44.906Z</time>
      </trkpt>
      <trkpt lat="48.530399" lon="16.692223">
        <ele>341.867878</ele>
        <time>2020-09-18T08:15:46.896Z</time>
      </trkpt>
      <trkpt lat="48.530285" lon="16.692271">
        <ele>341.762302</ele>
        <time>2020-09-18T08:15:48.923Z</time>
      </trkpt>
      <trkpt lat="48.530173" lon="16.692317">
        <ele>341.658759</ele>
        <time>2020-09-18T08:15:50.911Z</time>
      </trkpt>
      <trkpt lat="48.530052" lon="16.692357">
        <ele>341.548260</ele>
        <time>2020-09-18T08:15:52.913Z</time>
      </trkpt>
      <trkpt lat="48.529930" lon="16.692399">
        <ele>341.436634</ele>
        <time>2020-09-18T08:15:54.900Z</time>
      </trkpt>
      <trkpt lat="48.529797" lon="16.692456">
        <ele>341.313301</ele>
        <time>2020-09-18T08:15:56.898Z</time>
      </trkpt>
      <trkpt lat="48.529653" lon="16.692522">
        <ele>341.179054</ele>
        <time>2020-09-18T08:15:58.923Z</time>
      </trkpt>
      <trkpt lat="48.529496" lon="16.692601">
        <ele>341.031426</ele>
        <time>2020-09-18T08:16:00.899Z</time>
      </trkpt>
      <trkpt lat="48.529319" lon="16.692677">
        <ele>340.867268</ele>
        <time>2020-09-18T08:16:02.902Z</time>
      </trkpt>
      <trkpt lat="48.529225" lon="16.692725">
        <ele>340.778747</ele>
        <time>2020-09-18T08:16:03.908Z</time>
      </trkpt>
      <trkpt lat="48.529126" lon="16.692769">
        <ele>340.686685</ele>
        <time>2020-09-18T08:16:04.914Z</time>
      </trkpt>
      <trkpt lat="48.529024" lon="16.692814">
        <ele>340.591888</ele>
        <time>2020-09-18T08:16:05.897Z</time>
      </trkpt>
      <trkpt lat="48.528920" lon="16.692864">
        <ele>340.494523</ele>
        <time>2020-09-18T08:16:06.900Z</time>
      </trkpt>
      <trkpt lat="48.528815" lon="16.692914">
        <ele>340.413810</ele>
        <time>2020-09-18T08:16:07.939Z</time>
      </trkpt>
      <trkpt lat="48.528707" lon="16.692964">
        <ele>340.342449</ele>
        <time>2020-09-18T08:16:08.914Z</time>
      </trkpt>
      <trkpt lat="48.528598" lon="16.693008">
        <ele>340.271174</ele>
        <time>2020-09-18T08:16:09.927Z</time>
      </trkpt>
      <trkpt lat="48.528490" lon="16.693064">
        <ele>340.199038</ele>
        <time>2020-09-18T08:16:10.945Z</time>
      </trkpt>
      <trkpt lat="48.528379" lon="16.693112">
        <ele>340.126098</ele>
        <time>2020-09-18T08:16:11.906Z</time>
      </trkpt>
      <trkpt lat="48.528273" lon="16.693162">
        <ele>340.055944</ele>
        <time>2020-09-18T08:16:12.893Z</time>
      </trkpt>
      <trkpt lat="48.528165" lon="16.693217">
        <ele>339.983943</ele>
        <time>2020-09-18T08:16:13.910Z</time>
      </trkpt>
      <trkpt lat="48.528057" lon="16.693278">
        <ele>339.911100</ele>
        <time>2020-09-18T08:16:14.915Z</time>
      </trkpt>
      <trkpt lat="48.527948" lon="16.693344">
        <ele>339.836913</ele>
        <time>2020-09-18T08:16:15.901Z</time>
      </trkpt>
      <trkpt lat="48.527842" lon="16.693419">
        <ele>339.762964</ele>
        <time>2020-09-18T08:16:16.922Z</time>
      </trkpt>
      <trkpt lat="48.527745" lon="16.693501">
        <ele>339.692738</ele>
        <time>2020-09-18T08:16:17.906Z</time>
      </trkpt>
      <trkpt lat="48.527647" lon="16.693589">
        <ele>339.620709</ele>
        <time>2020-09-18T08:16:18.900Z</time>
      </trkpt>
      <trkpt lat="48.527550" lon="16.693675">
        <ele>339.549650</ele>
        <time>2020-09-18T08:16:19.919Z</time>
      </trkpt>
      <trkpt lat="48.527459" lon="16.693771">
        <ele>339.479523</ele>
        <time>2020-09-18T08:16:20.904Z</time>
      </trkpt>
      <trkpt lat="48.527373" lon="16.693874">
        <ele>339.410181</ele>
        <time>2020-09-18T08:16:21.907Z</time>
      </trkpt>
      <trkpt lat="48.527285" lon="16.693972">
        <ele>339.341106</ele>
        <time>2020-09-18T08:16:22.909Z</time>
      </trkpt>
      <trkpt lat="48.527199" lon="16.694072">
        <ele>339.149521</ele>
        <time>2020-09-18T08:16:23.913Z</time>
      </trkpt>
      <trkpt lat="48.527114" lon="16.694173">
        <ele>338.904243</ele>
        <time>2020-09-18T08:16:24.904Z</time>
      </trkpt>
      <trkpt lat="48.527029" lon="16.694274">
        <ele>338.658964</ele>
        <time>2020-09-18T08:16:25.913Z</time>
      </trkpt>
      <trkpt lat="48.526945" lon="16.694374">
        <ele>338.416396</ele>
        <time>2020-09-18T08:16:26.905Z</time>
      </trkpt>
      <trkpt lat="48.526861" lon="16.694474">
        <ele>338.173828</ele>
        <time>2020-09-18T08:16:27.906Z</time>
      </trkpt>
      <trkpt lat="48.526777" lon="16.694571">
        <ele>337.934022</ele>
        <time>2020-09-18T08:16:28.914Z</time>
      </trkpt>
      <trkpt lat="48.526694" lon="16.694667">
        <ele>337.696931</ele>
        <time>2020-09-18T08:16:29.915Z</time>
      </trkpt>
      <trkpt lat="48.526610" lon="16.694760">
        <ele>337.460727</ele>
        <time>2020-09-18T08:16:30.925Z</time>
      </trkpt>
      <trkpt lat="48.526525" lon="16.694849">
        <ele>337.226164</ele>
        <time>2020-09-18T08:16:31.912Z</time>
      </trkpt>
      <trkpt lat="48.526442" lon="16.694935">
        <ele>336.997893</ele>
        <time>2020-09-18T08:16:32.894Z</time>
      </trkpt>
      <trkpt lat="48.526315" lon="16.695062">
        <ele>336.652465</ele>
        <time>2020-09-18T08:16:34.930Z</time>
      </trkpt>
      <trkpt lat="48.526102" lon="16.695382">
        <ele>335.971090</ele>
        <time>2020-09-18T08:17:06.910Z</time>
      </trkpt>
      <trkpt lat="48.526008" lon="16.695482">
        <ele>335.710335</ele>
        <time>2020-09-18T08:17:08.898Z</time>
      </trkpt>
      <trkpt lat="48.525902" lon="16.695599">
        <ele>335.412583</ele>
        <time>2020-09-18T08:17:10.905Z</time>
      </trkpt>
      <trkpt lat="48.525779" lon="16.695731">
        <ele>335.057677</ele>
        <time>2020-09-18T08:17:12.886Z</time>
      </trkpt>
      <trkpt lat="48.525642" lon="16.695877">
        <ele>334.649143</ele>
        <time>2020-09-18T08:17:14.897Z</time>
      </trkpt>
      <trkpt lat="48.525500" lon="16.696035">
        <ele>334.219401</ele>
        <time>2020-09-18T08:17:16.917Z</time>
      </trkpt>
      <trkpt lat="48.525427" lon="16.696118">
        <ele>333.996766</ele>
        <time>2020-09-18T08:17:17.904Z</time>
      </trkpt>
      <trkpt lat="48.525352" lon="16.696201">
        <ele>333.770220</ele>
        <time>2020-09-18T08:17:18.901Z</time>
      </trkpt>
      <trkpt lat="48.525273" lon="16.696285">
        <ele>333.534818</ele>
        <time>2020-09-18T08:17:19.901Z</time>
      </trkpt>
      <trkpt lat="48.525191" lon="16.696368">
        <ele>333.294305</ele>
        <time>2020-09-18T08:17:20.941Z</time>
      </trkpt>
      <trkpt lat="48.525105" lon="16.696448">
        <ele>333.048211</ele>
        <time>2020-09-18T08:17:21.922Z</time>
      </trkpt>
      <trkpt lat="48.525019" lon="16.696535">
        <ele>332.796010</ele>
        <time>2020-09-18T08:17:22.900Z</time>
      </trkpt>
      <trkpt lat="48.524935" lon="16.696629">
        <ele>332.541282</ele>
        <time>2020-09-18T08:17:23.926Z</time>
      </trkpt>
      <trkpt lat="48.524850" lon="16.696724">
        <ele>332.283636</ele>
        <time>2020-09-18T08:17:24.910Z</time>
      </trkpt>
      <trkpt lat="48.524765" lon="16.696822">
        <ele>332.023080</ele>
        <time>2020-09-18T08:17:25.897Z</time>
      </trkpt>
      <trkpt lat="48.524680" lon="16.696920">
        <ele>331.762525</ele>
        <time>2020-09-18T08:17:26.896Z</time>
      </trkpt>
      <trkpt lat="48.524592" lon="16.697014">
        <ele>331.499903</ele>
        <time>2020-09-18T08:17:27.890Z</time>
      </trkpt>
      <trkpt lat="48.524506" lon="16.697110">
        <ele>331.239338</ele>
        <time>2020-09-18T08:17:28.895Z</time>
      </trkpt>
      <trkpt lat="48.524423" lon="16.697209">
        <ele>330.981641</ele>
        <time>2020-09-18T08:17:29.899Z</time>
      </trkpt>
      <trkpt lat="48.524340" lon="16.697311">
        <ele>330.782199</ele>
        <time>2020-09-18T08:17:30.925Z</time>
      </trkpt>
      <trkpt lat="48.524259" lon="16.697414">
        <ele>330.638508</ele>
        <time>2020-09-18T08:17:31.895Z</time>
      </trkpt>
      <trkpt lat="48.524178" lon="16.697517">
        <ele>330.494816</ele>
        <time>2020-09-18T08:17:32.923Z</time>
      </trkpt>
      <trkpt lat="48.524098" lon="16.697621">
        <ele>330.351575</ele>
        <time>2020-09-18T08:17:33.921Z</time>
      </trkpt>
      <trkpt lat="48.524019" lon="16.697726">
        <ele>330.208766</ele>
        <time>2020-09-18T08:17:34.912Z</time>
      </trkpt>
      <trkpt lat="48.523939" lon="16.697831">
        <ele>330.064937</ele>
        <time>2020-09-18T08:17:35.899Z</time>
      </trkpt>
      <trkpt lat="48.523861" lon="16.697936">
        <ele>329.923144</ele>
        <time>2020-09-18T08:17:36.906Z</time>
      </trkpt>
      <trkpt lat="48.523784" lon="16.698044">
        <ele>329.780540</ele>
        <time>2020-09-18T08:17:37.937Z</time>
      </trkpt>
      <trkpt lat="48.523708" lon="16.698153">
        <ele>329.638310</ele>
        <time>2020-09-18T08:17:38.902Z</time>
      </trkpt>
      <trkpt lat="48.523629" lon="16.698257">
        <ele>329.496094</ele>
        <time>2020-09-18T08:17:39.898Z</time>
      </trkpt>
      <trkpt lat="48.523551" lon="16.698364">
        <ele>329.353098</ele>
        <time>2020-09-18T08:17:40.940Z</time>
      </trkpt>
      <trkpt lat="48.523474" lon="16.698471">
        <ele>329.211104</ele>
        <time>2020-09-18T08:17:41.924Z</time>
      </trkpt>
      <trkpt lat="48.523391" lon="16.698573">
        <ele>329.065894</ele>
        <time>2020-09-18T08:17:42.918Z</time>
      </trkpt>
      <trkpt lat="48.523308" lon="16.698679">
        <ele>328.918389</ele>
        <time>2020-09-18T08:17:43.895Z</time>
      </trkpt>
      <trkpt lat="48.523229" lon="16.698792">
        <ele>328.770731</ele>
        <time>2020-09-18T08:17:44.905Z</time>
      </trkpt>
      <trkpt lat="48.523149" lon="16.698905">
        <ele>328.622084</ele>
        <time>2020-09-18T08:17:45.910Z</time>
      </trkpt>
      <trkpt lat="48.523069" lon="16.699020">
        <ele>328.472204</ele>
        <time>2020-09-18T08:17:46.901Z</time>
      </trkpt>
      <trkpt lat="48.522990" lon="16.699140">
        <ele>328.292878</ele>
        <time>2020-09-18T08:17:47.910Z</time>
      </trkpt>
      <trkpt lat="48.522910" lon="16.699257">
        <ele>328.099930</ele>
        <time>2020-09-18T08:17:48.905Z</time>
      </trkpt>
      <trkpt lat="48.522829" lon="16.699374">
        <ele>327.905735</ele>
        <time>2020-09-18T08:17:49.942Z</time>
      </trkpt>
      <trkpt lat="48.522747" lon="16.699490">
        <ele>327.711070</ele>
        <time>2020-09-18T08:17:50.931Z</time>
      </trkpt>
      <trkpt lat="48.522664" lon="16.699609">
        <ele>327.512783</ele>
        <time>2020-09-18T08:17:51.916Z</time>
      </trkpt>
      <trkpt lat="48.522575" lon="16.699719">
        <ele>327.313530</ele>
        <time>2020-09-18T08:17:52.904Z</time>
      </trkpt>
      <trkpt lat="48.522481" lon="16.699825">
        <ele>327.110280</ele>
        <time>2020-09-18T08:17:53.901Z</time>
      </trkpt>
      <trkpt lat="48.522396" lon="16.699943">
        <ele>326.910244</ele>
        <time>2020-09-18T08:17:54.925Z</time>
      </trkpt>
      <trkpt lat="48.522314" lon="16.700074">
        <ele>326.703429</ele>
        <time>2020-09-18T08:17:55.898Z</time>
      </trkpt>
      <trkpt lat="48.522223" lon="16.700193">
        <ele>326.494873</ele>
        <time>2020-09-18T08:17:56.911Z</time>
      </trkpt>
      <trkpt lat="48.522140" lon="16.700329">
        <ele>326.282681</ele>
        <time>2020-09-18T08:17:57.908Z</time>
      </trkpt>
      <trkpt lat="48.522053" lon="16.700463">
        <ele>326.067378</ele>
        <time>2020-09-18T08:17:58.887Z</time>
      </trkpt>
      <trkpt lat="48.521962" lon="16.700594">
        <ele>325.849558</ele>
        <time>2020-09-18T08:17:59.909Z</time>
      </trkpt>
      <trkpt lat="48.521869" lon="16.700725">
        <ele>325.629217</ele>
        <time>2020-09-18T08:18:00.900Z</time>
      </trkpt>
      <trkpt lat="48.521776" lon="16.700857">
        <ele>325.408092</ele>
        <time>2020-09-18T08:18:01.898Z</time>
      </trkpt>
      <trkpt lat="48.521681" lon="16.700990">
        <ele>325.265687</ele>
        <time>2020-09-18T08:18:02.918Z</time>
      </trkpt>
      <trkpt lat="48.521586" lon="16.701121">
        <ele>325.196292</ele>
        <time>2020-09-18T08:18:03.884Z</time>
      </trkpt>
      <trkpt lat="48.521491" lon="16.701249">
        <ele>325.127616</ele>
        <time>2020-09-18T08:18:04.909Z</time>
      </trkpt>
      <trkpt lat="48.521394" lon="16.701373">
        <ele>325.059062</ele>
        <time>2020-09-18T08:18:05.917Z</time>
      </trkpt>
      <trkpt lat="48.521297" lon="16.701492">
        <ele>324.991649</ele>
        <time>2020-09-18T08:18:06.908Z</time>
      </trkpt>
      <trkpt lat="48.521200" lon="16.701608">
        <ele>324.924907</ele>
        <time>2020-09-18T08:18:07.903Z</time>
      </trkpt>
      <trkpt lat="48.521103" lon="16.701719">
        <ele>324.859258</ele>
        <time>2020-09-18T08:18:08.905Z</time>
      </trkpt>
      <trkpt lat="48.521003" lon="16.701824">
        <ele>324.793560</ele>
        <time>2020-09-18T08:18:09.892Z</time>
      </trkpt>
      <trkpt lat="48.520903" lon="16.701927">
        <ele>324.728267</ele>
        <time>2020-09-18T08:18:10.904Z</time>
      </trkpt>
      <trkpt lat="48.520801" lon="16.702027">
        <ele>324.662670</ele>
        <time>2020-09-18T08:18:11.910Z</time>
      </trkpt>
      <trkpt lat="48.520699" lon="16.702124">
        <ele>324.597651</ele>
        <time>2020-09-18T08:18:12.882Z</time>
      </trkpt>
      <trkpt lat="48.520597" lon="16.702219">
        <ele>324.533009</ele>
        <time>2020-09-18T08:18:13.906Z</time>
      </trkpt>
      <trkpt lat="48.520492" lon="16.702306">
        <ele>324.468407</ele>
        <time>2020-09-18T08:18:14.913Z</time>
      </trkpt>
      <trkpt lat="48.520387" lon="16.702388">
        <ele>324.404646</ele>
        <time>2020-09-18T08:18:15.925Z</time>
      </trkpt>
      <trkpt lat="48.520274" lon="16.702434">
        <ele>324.341521</ele>
        <time>2020-09-18T08:18:16.923Z</time>
      </trkpt>
      <trkpt lat="48.520169" lon="16.702501">
        <ele>323.937011</ele>
        <time>2020-09-18T08:18:17.925Z</time>
      </trkpt>
      <trkpt lat="48.520071" lon="16.702582">
        <ele>323.483845</ele>
        <time>2020-09-18T08:18:18.905Z</time>
      </trkpt>
      <trkpt lat="48.519979" lon="16.702675">
        <ele>323.034762</ele>
        <time>2020-09-18T08:18:19.886Z</time>
      </trkpt>
      <trkpt lat="48.519898" lon="16.702795">
        <ele>322.574461</ele>
        <time>2020-09-18T08:18:20.906Z</time>
      </trkpt>
      <trkpt lat="48.519818" lon="16.702911">
        <ele>322.124556</ele>
        <time>2020-09-18T08:18:21.897Z</time>
      </trkpt>
      <trkpt lat="48.519739" lon="16.703029">
        <ele>321.673804</ele>
        <time>2020-09-18T08:18:22.890Z</time>
      </trkpt>
      <trkpt lat="48.519659" lon="16.703128">
        <ele>321.254240</ele>
        <time>2020-09-18T08:18:23.893Z</time>
      </trkpt>
      <trkpt lat="48.519592" lon="16.703229">
        <ele>320.870206</ele>
        <time>2020-09-18T08:18:24.902Z</time>
      </trkpt>
      <trkpt lat="48.519530" lon="16.703327">
        <ele>320.506115</ele>
        <time>2020-09-18T08:18:25.894Z</time>
      </trkpt>
      <trkpt lat="48.519410" lon="16.703505">
        <ele>319.823767</ele>
        <time>2020-09-18T08:18:27.909Z</time>
      </trkpt>
      <trkpt lat="48.519301" lon="16.703643">
        <ele>319.246772</ele>
        <time>2020-09-18T08:18:29.923Z</time>
      </trkpt>
      <trkpt lat="48.519179" lon="16.703687">
        <ele>318.738004</ele>
        <time>2020-09-18T08:18:31.892Z</time>
      </trkpt>
      <trkpt lat="48.519077" lon="16.703737">
        <ele>318.303021</ele>
        <time>2020-09-18T08:18:33.892Z</time>
      </trkpt>
      <trkpt lat="48.519052" lon="16.703909">
        <ele>317.829924</ele>
        <time>2020-09-18T08:18:35.909Z</time>
      </trkpt>
      <trkpt lat="48.519049" lon="16.704103">
        <ele>317.308574</ele>
        <time>2020-09-18T08:18:37.890Z</time>
      </trkpt>
      <trkpt lat="48.519050" lon="16.704289">
        <ele>316.810148</ele>
        <time>2020-09-18T08:18:39.900Z</time>
      </trkpt>
      <trkpt lat="48.519047" lon="16.704466">
        <ele>316.337175</ele>
        <time>2020-09-18T08:18:41.892Z</time>
      </trkpt>
      <trkpt lat="48.519030" lon="16.704639">
        <ele>315.869985</ele>
        <time>2020-09-18T08:18:43.896Z</time>
      </trkpt>
      <trkpt lat="48.519013" lon="16.704806">
        <ele>315.418643</ele>
        <time>2020-09-18T08:18:45.890Z</time>
      </trkpt>
      <trkpt lat="48.518994" lon="16.704971">
        <ele>314.971269</ele>
        <time>2020-09-18T08:18:47.914Z</time>
      </trkpt>
      <trkpt lat="48.518974" lon="16.705136">
        <ele>314.523187</ele>
        <time>2020-09-18T08:18:49.903Z</time>
      </trkpt>
      <trkpt lat="48.518948" lon="16.705295">
        <ele>314.085700</ele>
        <time>2020-09-18T08:18:51.899Z</time>
      </trkpt>
      <trkpt lat="48.518923" lon="16.705457">
        <ele>313.641361</ele>
        <time>2020-09-18T08:18:53.904Z</time>
      </trkpt>
      <trkpt lat="48.518899" lon="16.705620">
        <ele>313.195313</ele>
        <time>2020-09-18T08:18:55.913Z</time>
      </trkpt>
      <trkpt lat="48.518871" lon="16.705788">
        <ele>312.732546</ele>
        <time>2020-09-18T08:18:57.920Z</time>
      </trkpt>
      <trkpt lat="48.518823" lon="16.705953">
        <ele>312.251146</ele>
        <time>2020-09-18T08:18:59.931Z</time>
      </trkpt>
      <trkpt lat="48.518787" lon="16.706102">
        <ele>311.827470</ele>
        <time>2020-09-18T08:19:01.900Z</time>
      </trkpt>
      <trkpt lat="48.518750" lon="16.706252">
        <ele>311.399893</ele>
        <time>2020-09-18T08:19:03.939Z</time>
      </trkpt>
      <trkpt lat="48.518710" lon="16.706422">
        <ele>310.917971</ele>
        <time>2020-09-18T08:19:05.921Z</time>
      </trkpt>
      <trkpt lat="48.518674" lon="16.706569">
        <ele>310.499309</ele>
        <time>2020-09-18T08:19:07.910Z</time>
      </trkpt>
      <trkpt lat="48.518627" lon="16.706783">
        <ele>309.897044</ele>
        <time>2020-09-18T08:19:10.903Z</time>
      </trkpt>
      <trkpt lat="48.518594" lon="16.706927">
        <ele>309.524257</ele>
        <time>2020-09-18T08:19:12.903Z</time>
      </trkpt>
      <trkpt lat="48.518559" lon="16.707078">
        <ele>309.146796</ele>
        <time>2020-09-18T08:19:14.916Z</time>
      </trkpt>
      <trkpt lat="48.518537" lon="16.707228">
        <ele>308.784306</ele>
        <time>2020-09-18T08:19:16.901Z</time>
      </trkpt>
      <trkpt lat="48.518503" lon="16.707395">
        <ele>308.372085</ele>
        <time>2020-09-18T08:19:18.915Z</time>
      </trkpt>
      <trkpt lat="48.518476" lon="16.707561">
        <ele>307.968780</ele>
        <time>2020-09-18T08:19:20.900Z</time>
      </trkpt>
      <trkpt lat="48.518446" lon="16.707725">
        <ele>307.567344</ele>
        <time>2020-09-18T08:19:22.907Z</time>
      </trkpt>
      <trkpt lat="48.518409" lon="16.707874">
        <ele>307.191892</ele>
        <time>2020-09-18T08:19:24.919Z</time>
      </trkpt>
      <trkpt lat="48.518377" lon="16.708047">
        <ele>306.768089</ele>
        <time>2020-09-18T08:19:26.917Z</time>
      </trkpt>
      <trkpt lat="48.518349" lon="16.708215">
        <ele>306.359344</ele>
        <time>2020-09-18T08:19:28.912Z</time>
      </trkpt>
      <trkpt lat="48.518313" lon="16.708377">
        <ele>305.956173</ele>
        <time>2020-09-18T08:19:30.898Z</time>
      </trkpt>
      <trkpt lat="48.518278" lon="16.708541">
        <ele>305.549633</ele>
        <time>2020-09-18T08:19:32.893Z</time>
      </trkpt>
      <trkpt lat="48.518244" lon="16.708707">
        <ele>305.139664</ele>
        <time>2020-09-18T08:19:34.911Z</time>
      </trkpt>
      <trkpt lat="48.518216" lon="16.708871">
        <ele>304.740064</ele>
        <time>2020-09-18T08:19:36.891Z</time>
      </trkpt>
      <trkpt lat="48.518183" lon="16.709014">
        <ele>304.382770</ele>
        <time>2020-09-18T08:19:38.893Z</time>
      </trkpt>
      <trkpt lat="48.518158" lon="16.709168">
        <ele>304.008658</ele>
        <time>2020-09-18T08:19:40.892Z</time>
      </trkpt>
      <trkpt lat="48.518133" lon="16.709320">
        <ele>303.639128</ele>
        <time>2020-09-18T08:19:42.890Z</time>
      </trkpt>
      <trkpt lat="48.518106" lon="16.709472">
        <ele>303.255477</ele>
        <time>2020-09-18T08:19:44.898Z</time>
      </trkpt>
      <trkpt lat="48.518072" lon="16.709625">
        <ele>302.831459</ele>
        <time>2020-09-18T08:19:46.889Z</time>
      </trkpt>
      <trkpt lat="48.518036" lon="16.709782">
        <ele>302.394933</ele>
        <time>2020-09-18T08:19:48.893Z</time>
      </trkpt>
      <trkpt lat="48.518000" lon="16.709933">
        <ele>301.973273</ele>
        <time>2020-09-18T08:19:50.894Z</time>
      </trkpt>
      <trkpt lat="48.517961" lon="16.710086">
        <ele>301.542536</ele>
        <time>2020-09-18T08:19:52.891Z</time>
      </trkpt>
      <trkpt lat="48.517925" lon="16.710249">
        <ele>301.091083</ele>
        <time>2020-09-18T08:19:54.888Z</time>
      </trkpt>
      <trkpt lat="48.517856" lon="16.710391">
        <ele>300.628360</ele>
        <time>2020-09-18T08:19:56.894Z</time>
      </trkpt>
      <trkpt lat="48.517779" lon="16.710502">
        <ele>300.206049</ele>
        <time>2020-09-18T08:19:58.889Z</time>
      </trkpt>
      <trkpt lat="48.517700" lon="16.710610">
        <ele>299.783296</ele>
        <time>2020-09-18T08:20:00.891Z</time>
      </trkpt>
      <trkpt lat="48.517624" lon="16.710714">
        <ele>299.376418</ele>
        <time>2020-09-18T08:20:02.891Z</time>
      </trkpt>
      <trkpt lat="48.517555" lon="16.710837">
        <ele>298.952915</ele>
        <time>2020-09-18T08:20:04.895Z</time>
      </trkpt>
      <trkpt lat="48.517488" lon="16.710949">
        <ele>298.556393</ele>
        <time>2020-09-18T08:20:06.889Z</time>
      </trkpt>
      <trkpt lat="48.517420" lon="16.711046">
        <ele>298.185298</ele>
        <time>2020-09-18T08:20:08.882Z</time>
      </trkpt>
      <trkpt lat="48.517335" lon="16.711120">
        <ele>297.796089</ele>
        <time>2020-09-18T08:20:10.883Z</time>
      </trkpt>
      <trkpt lat="48.517227" lon="16.711165">
        <ele>297.351674</ele>
        <time>2020-09-18T08:20:12.905Z</time>
      </trkpt>
      <trkpt lat="48.517112" lon="16.711168">
        <ele>296.895442</ele>
        <time>2020-09-18T08:20:15.906Z</time>
      </trkpt>
      <trkpt lat="48.517020" lon="16.711152">
        <ele>296.528098</ele>
        <time>2020-09-18T08:20:18.908Z</time>
      </trkpt>
      <trkpt lat="48.516916" lon="16.711129">
        <ele>296.140302</ele>
        <time>2020-09-18T08:20:22.915Z</time>
      </trkpt>
      <trkpt lat="48.516816" lon="16.711113">
        <ele>295.830319</ele>
        <time>2020-09-18T08:20:26.910Z</time>
      </trkpt>
      <trkpt lat="48.516669" lon="16.711091">
        <ele>295.374962</ele>
        <time>2020-09-18T08:20:56.933Z</time>
      </trkpt>
      <trkpt lat="48.516574" lon="16.711036">
        <ele>295.061323</ele>
        <time>2020-09-18T08:21:00.898Z</time>
      </trkpt>
      <trkpt lat="48.516491" lon="16.710982">
        <ele>294.782723</ele>
        <time>2020-09-18T08:21:03.936Z</time>
      </trkpt>
      <trkpt lat="48.516404" lon="16.710932">
        <ele>294.495764</ele>
        <time>2020-09-18T08:21:06.925Z</time>
      </trkpt>
      <trkpt lat="48.516295" lon="16.710861">
        <ele>294.129822</ele>
        <time>2020-09-18T08:21:10.915Z</time>
      </trkpt>
      <trkpt lat="48.516204" lon="16.710811">
        <ele>293.831308</ele>
        <time>2020-09-18T08:21:13.922Z</time>
      </trkpt>
      <trkpt lat="48.516102" lon="16.710743">
        <ele>293.487593</ele>
        <time>2020-09-18T08:21:17.901Z</time>
      </trkpt>
      <trkpt lat="48.516000" lon="16.710679">
        <ele>293.147095</ele>
        <time>2020-09-18T08:21:21.931Z</time>
      </trkpt>
      <trkpt lat="48.515889" lon="16.710620">
        <ele>292.784342</ele>
        <time>2020-09-18T08:21:25.905Z</time>
      </trkpt>
      <trkpt lat="48.515796" lon="16.710567">
        <ele>292.477917</ele>
        <time>2020-09-18T08:21:28.920Z</time>
      </trkpt>
      <trkpt lat="48.515703" lon="16.710511">
        <ele>292.169275</ele>
        <time>2020-09-18T08:21:31.900Z</time>
      </trkpt>
      <trkpt lat="48.515612" lon="16.710459">
        <ele>291.869339</ele>
        <time>2020-09-18T08:21:34.902Z</time>
      </trkpt>
      <trkpt lat="48.515511" lon="16.710404">
        <ele>291.538364</ele>
        <time>2020-09-18T08:21:37.919Z</time>
      </trkpt>
      <trkpt lat="48.515404" lon="16.710339">
        <ele>291.182827</ele>
        <time>2020-09-18T08:21:40.894Z</time>
      </trkpt>
      <trkpt lat="48.515302" lon="16.710271">
        <ele>290.839111</ele>
        <time>2020-09-18T08:21:43.896Z</time>
      </trkpt>
      <trkpt lat="48.515197" lon="16.710214">
        <ele>291.073313</ele>
        <time>2020-09-18T08:21:46.909Z</time>
      </trkpt>
      <trkpt lat="48.515092" lon="16.710160">
        <ele>291.708507</ele>
        <time>2020-09-18T08:21:49.899Z</time>
      </trkpt>
      <trkpt lat="48.514989" lon="16.710104">
        <ele>292.335401</ele>
        <time>2020-09-18T08:21:52.897Z</time>
      </trkpt>
      <trkpt lat="48.514889" lon="16.710052">
        <ele>292.941050</ele>
        <time>2020-09-18T08:21:55.899Z</time>
      </trkpt>
      <trkpt lat="48.514789" lon="16.709997">
        <ele>293.550501</ele>
        <time>2020-09-18T08:21:58.914Z</time>
      </trkpt>
      <trkpt lat="48.514696" lon="16.709941">
        <ele>294.123848</ele>
        <time>2020-09-18T08:22:01.914Z</time>
      </trkpt>
      <trkpt lat="48.514598" lon="16.709883">
        <ele>294.726611</ele>
        <time>2020-09-18T08:22:04.908Z</time>
      </trkpt>
      <trkpt lat="48.514500" lon="16.709820">
        <ele>295.336552</ele>
        <time>2020-09-18T08:22:07.905Z</time>
      </trkpt>
      <trkpt lat="48.514407" lon="16.709755">
        <ele>295.923406</ele>
        <time>2020-09-18T08:22:10.899Z</time>
      </trkpt>
      <trkpt lat="48.514327" lon="16.709685">
        <ele>296.452901</ele>
        <time>2020-09-18T08:22:13.908Z</time>
      </trkpt>
      <trkpt lat="48.514283" lon="16.709612">
        <ele>296.827282</ele>
        <time>2020-09-18T08:22:32.800Z</time>
      </trkpt>
      <trkpt lat="48.514180" lon="16.709536">
        <ele>297.483776</ele>
        <time>2020-09-18T08:25:12.908Z</time>
      </trkpt>
      <trkpt lat="48.514096" lon="16.709451">
        <ele>298.062853</ele>
        <time>2020-09-18T08:25:15.927Z</time>
      </trkpt>
      <trkpt lat="48.514015" lon="16.709370">
        <ele>298.619221</ele>
        <time>2020-09-18T08:25:18.909Z</time>
      </trkpt>
      <trkpt lat="48.513928" lon="16.709294">
        <ele>299.194810</ele>
        <time>2020-09-18T08:25:21.899Z</time>
      </trkpt>
      <trkpt lat="48.513837" lon="16.709217">
        <ele>299.792180</ele>
        <time>2020-09-18T08:25:24.933Z</time>
      </trkpt>
      <trkpt lat="48.513739" lon="16.709132">
        <ele>300.439391</ele>
        <time>2020-09-18T08:25:27.905Z</time>
      </trkpt>
      <trkpt lat="48.513638" lon="16.709039">
        <ele>301.005814</ele>
        <time>2020-09-18T08:25:30.911Z</time>
      </trkpt>
      <trkpt lat="48.513530" lon="16.708955">
        <ele>301.056837</ele>
        <time>2020-09-18T08:25:33.920Z</time>
      </trkpt>
      <trkpt lat="48.513424" lon="16.708860">
        <ele>301.108607</ele>
        <time>2020-09-18T08:25:36.938Z</time>
      </trkpt>
      <trkpt lat="48.513318" lon="16.708767">
        <ele>301.160096</ele>
        <time>2020-09-18T08:25:39.922Z</time>
      </trkpt>
      <trkpt lat="48.513201" lon="16.708670">
        <ele>301.216154</ele>
        <time>2020-09-18T08:25:42.899Z</time>
      </trkpt>
      <trkpt lat="48.513112" lon="16.708602">
        <ele>301.258046</ele>
        <time>2020-09-18T08:25:44.895Z</time>
      </trkpt>
      <trkpt lat="48.513017" lon="16.708519">
        <ele>301.304142</ele>
        <time>2020-09-18T08:25:46.930Z</time>
      </trkpt>
      <trkpt lat="48.512911" lon="16.708424">
        <ele>301.355913</ele>
        <time>2020-09-18T08:25:48.921Z</time>
      </trkpt>
      <trkpt lat="48.512789" lon="16.708315">
        <ele>301.415450</ele>
        <time>2020-09-18T08:25:50.910Z</time>
      </trkpt>
      <trkpt lat="48.512652" lon="16.708194">
        <ele>301.482109</ele>
        <time>2020-09-18T08:25:52.939Z</time>
      </trkpt>
      <trkpt lat="48.512499" lon="16.708064">
        <ele>301.555842</ele>
        <time>2020-09-18T08:25:54.915Z</time>
      </trkpt>
      <trkpt lat="48.512417" lon="16.707995">
        <ele>301.595268</ele>
        <time>2020-09-18T08:25:55.916Z</time>
      </trkpt>
      <trkpt lat="48.512332" lon="16.707921">
        <ele>301.636476</ele>
        <time>2020-09-18T08:25:56.942Z</time>
      </trkpt>
      <trkpt lat="48.512244" lon="16.707842">
        <ele>301.679475</ele>
        <time>2020-09-18T08:25:57.942Z</time>
      </trkpt>
      <trkpt lat="48.512150" lon="16.707758">
        <ele>301.725350</ele>
        <time>2020-09-18T08:25:58.935Z</time>
      </trkpt>
      <trkpt lat="48.512052" lon="16.707668">
        <ele>301.724064</ele>
        <time>2020-09-18T08:25:59.907Z</time>
      </trkpt>
      <trkpt lat="48.511951" lon="16.707576">
        <ele>301.657669</ele>
        <time>2020-09-18T08:26:00.938Z</time>
      </trkpt>
      <trkpt lat="48.511847" lon="16.707485">
        <ele>301.590011</ele>
        <time>2020-09-18T08:26:01.921Z</time>
      </trkpt>
      <trkpt lat="48.511744" lon="16.707394">
        <ele>301.522839</ele>
        <time>2020-09-18T08:26:02.923Z</time>
      </trkpt>
      <trkpt lat="48.511648" lon="16.707310">
        <ele>301.460385</ele>
        <time>2020-09-18T08:26:03.938Z</time>
      </trkpt>
      <trkpt lat="48.511558" lon="16.707233">
        <ele>301.402158</ele>
        <time>2020-09-18T08:26:04.903Z</time>
      </trkpt>
      <trkpt lat="48.511476" lon="16.707162">
        <ele>301.348952</ele>
        <time>2020-09-18T08:26:05.915Z</time>
      </trkpt>
      <trkpt lat="48.511335" lon="16.707051">
        <ele>301.259447</ele>
        <time>2020-09-18T08:26:07.915Z</time>
      </trkpt>
      <trkpt lat="48.511215" lon="16.706985">
        <ele>301.187563</ele>
        <time>2020-09-18T08:26:09.902Z</time>
      </trkpt>
      <trkpt lat="48.511110" lon="16.706939">
        <ele>301.126026</ele>
        <time>2020-09-18T08:26:11.908Z</time>
      </trkpt>
      <trkpt lat="48.511011" lon="16.706905">
        <ele>301.068881</ele>
        <time>2020-09-18T08:26:13.918Z</time>
      </trkpt>
      <trkpt lat="48.510916" lon="16.706868">
        <ele>301.013660</ele>
        <time>2020-09-18T08:26:15.942Z</time>
      </trkpt>
      <trkpt lat="48.510820" lon="16.706823">
        <ele>300.957082</ele>
        <time>2020-09-18T08:26:17.915Z</time>
      </trkpt>
      <trkpt lat="48.510720" lon="16.706778">
        <ele>300.898350</ele>
        <time>2020-09-18T08:26:19.893Z</time>
      </trkpt>
      <trkpt lat="48.510542" lon="16.706697">
        <ele>300.793711</ele>
        <time>2020-09-18T08:26:53.895Z</time>
      </trkpt>
      <trkpt lat="48.510424" lon="16.706643">
        <ele>300.696390</ele>
        <time>2020-09-18T08:26:56.885Z</time>
      </trkpt>
      <trkpt lat="48.510327" lon="16.706590">
        <ele>300.535266</ele>
        <time>2020-09-18T08:26:58.887Z</time>
      </trkpt>
      <trkpt lat="48.510210" lon="16.706534">
        <ele>300.343557</ele>
        <time>2020-09-18T08:27:00.888Z</time>
      </trkpt>
      <trkpt lat="48.510074" lon="16.706476">
        <ele>300.122823</ele>
        <time>2020-09-18T08:27:02.879Z</time>
      </trkpt>
      <trkpt lat="48.509923" lon="16.706410">
        <ele>299.877288</ele>
        <time>2020-09-18T08:27:04.888Z</time>
      </trkpt>
      <trkpt lat="48.509755" lon="16.706336">
        <ele>299.603945</ele>
        <time>2020-09-18T08:27:06.889Z</time>
      </trkpt>
      <trkpt lat="48.509665" lon="16.706295">
        <ele>299.457112</ele>
        <time>2020-09-18T08:27:07.882Z</time>
      </trkpt>
      <trkpt lat="48.509574" lon="16.706251">
        <ele>299.307865</ele>
        <time>2020-09-18T08:27:08.883Z</time>
      </trkpt>
      <trkpt lat="48.509479" lon="16.706205">
        <ele>299.152037</ele>
        <time>2020-09-18T08:27:09.895Z</time>
      </trkpt>
      <trkpt lat="48.509380" lon="16.706159">
        <ele>298.990249</ele>
        <time>2020-09-18T08:27:10.883Z</time>
      </trkpt>
      <trkpt lat="48.509278" lon="16.706115">
        <ele>298.824557</ele>
        <time>2020-09-18T08:27:11.887Z</time>
      </trkpt>
      <trkpt lat="48.509174" lon="16.706071">
        <ele>298.655859</ele>
        <time>2020-09-18T08:27:12.882Z</time>
      </trkpt>
      <trkpt lat="48.509067" lon="16.706019">
        <ele>298.480288</ele>
        <time>2020-09-18T08:27:13.888Z</time>
      </trkpt>
      <trkpt lat="48.508957" lon="16.705969">
        <ele>298.300858</ele>
        <time>2020-09-18T08:27:14.886Z</time>
      </trkpt>
      <trkpt lat="48.508846" lon="16.705915">
        <ele>298.118705</ele>
        <time>2020-09-18T08:27:15.894Z</time>
      </trkpt>
      <trkpt lat="48.508735" lon="16.705865">
        <ele>297.937779</ele>
        <time>2020-09-18T08:27:16.883Z</time>
      </trkpt>
      <trkpt lat="48.508627" lon="16.705819">
        <ele>297.739710</ele>
        <time>2020-09-18T08:27:17.884Z</time>
      </trkpt>
      <trkpt lat="48.508521" lon="16.705775">
        <ele>297.544736</ele>
        <time>2020-09-18T08:27:18.887Z</time>
      </trkpt>
      <trkpt lat="48.508418" lon="16.705732">
        <ele>297.355203</ele>
        <time>2020-09-18T08:27:19.893Z</time>
      </trkpt>
      <trkpt lat="48.508317" lon="16.705685">
        <ele>297.167756</ele>
        <time>2020-09-18T08:27:20.886Z</time>
      </trkpt>
      <trkpt lat="48.508216" lon="16.705640">
        <ele>296.980988</ele>
        <time>2020-09-18T08:27:21.884Z</time>
      </trkpt>
      <trkpt lat="48.508116" lon="16.705597">
        <ele>296.796578</ele>
        <time>2020-09-18T08:27:22.890Z</time>
      </trkpt>
      <trkpt lat="48.508016" lon="16.705553">
        <ele>296.611842</ele>
        <time>2020-09-18T08:27:23.883Z</time>
      </trkpt>
      <trkpt lat="48.507915" lon="16.705507">
        <ele>296.424738</ele>
        <time>2020-09-18T08:27:24.888Z</time>
      </trkpt>
      <trkpt lat="48.507811" lon="16.705457">
        <ele>296.231160</ele>
        <time>2020-09-18T08:27:25.882Z</time>
      </trkpt>
      <trkpt lat="48.507703" lon="16.705405">
        <ele>296.030108</ele>
        <time>2020-09-18T08:27:26.887Z</time>
      </trkpt>
      <trkpt lat="48.507592" lon="16.705352">
        <ele>295.823631</ele>
        <time>2020-09-18T08:27:27.884Z</time>
      </trkpt>
      <trkpt lat="48.507477" lon="16.705299">
        <ele>295.610378</ele>
        <time>2020-09-18T08:27:28.883Z</time>
      </trkpt>
      <trkpt lat="48.507356" lon="16.705242">
        <ele>295.385571</ele>
        <time>2020-09-18T08:27:29.887Z</time>
      </trkpt>
      <trkpt lat="48.507229" lon="16.705184">
        <ele>295.150247</ele>
        <time>2020-09-18T08:27:30.881Z</time>
      </trkpt>
      <trkpt lat="48.507100" lon="16.705122">
        <ele>294.910142</ele>
        <time>2020-09-18T08:27:31.883Z</time>
      </trkpt>
      <trkpt lat="48.506966" lon="16.705059">
        <ele>294.709028</ele>
        <time>2020-09-18T08:27:32.889Z</time>
      </trkpt>
      <trkpt lat="48.506829" lon="16.704997">
        <ele>294.607786</ele>
        <time>2020-09-18T08:27:33.882Z</time>
      </trkpt>
      <trkpt lat="48.506689" lon="16.704932">
        <ele>294.504103</ele>
        <time>2020-09-18T08:27:34.880Z</time>
      </trkpt>
      <trkpt lat="48.506545" lon="16.704873">
        <ele>294.398483</ele>
        <time>2020-09-18T08:27:35.885Z</time>
      </trkpt>
      <trkpt lat="48.506401" lon="16.704809">
        <ele>294.292224</ele>
        <time>2020-09-18T08:27:36.883Z</time>
      </trkpt>
      <trkpt lat="48.506252" lon="16.704746">
        <ele>294.182693</ele>
        <time>2020-09-18T08:27:37.887Z</time>
      </trkpt>
      <trkpt lat="48.506102" lon="16.704682">
        <ele>294.072353</ele>
        <time>2020-09-18T08:27:38.882Z</time>
      </trkpt>
      <trkpt lat="48.505953" lon="16.704619">
        <ele>293.962822</ele>
        <time>2020-09-18T08:27:39.885Z</time>
      </trkpt>
      <trkpt lat="48.505804" lon="16.704557">
        <ele>293.853416</ele>
        <time>2020-09-18T08:27:40.882Z</time>
      </trkpt>
      <trkpt lat="48.505657" lon="16.704494">
        <ele>293.745248</ele>
        <time>2020-09-18T08:27:41.888Z</time>
      </trkpt>
      <trkpt lat="48.505513" lon="16.704430">
        <ele>293.638989</ele>
        <time>2020-09-18T08:27:42.893Z</time>
      </trkpt>
      <trkpt lat="48.505372" lon="16.704367">
        <ele>293.534899</ele>
        <time>2020-09-18T08:27:43.884Z</time>
      </trkpt>
      <trkpt lat="48.505233" lon="16.704297">
        <ele>293.485362</ele>
        <time>2020-09-18T08:27:44.882Z</time>
      </trkpt>
      <trkpt lat="48.505098" lon="16.704242">
        <ele>293.533648</ele>
        <time>2020-09-18T08:27:45.886Z</time>
      </trkpt>
      <trkpt lat="48.504965" lon="16.704185">
        <ele>293.581391</ele>
        <time>2020-09-18T08:27:46.881Z</time>
      </trkpt>
      <trkpt lat="48.504838" lon="16.704113">
        <ele>293.628238</ele>
        <time>2020-09-18T08:27:47.883Z</time>
      </trkpt>
      <trkpt lat="48.504712" lon="16.704050">
        <ele>293.674074</ele>
        <time>2020-09-18T08:27:48.888Z</time>
      </trkpt>
      <trkpt lat="48.504586" lon="16.703994">
        <ele>293.719431</ele>
        <time>2020-09-18T08:27:49.882Z</time>
      </trkpt>
      <trkpt lat="48.504461" lon="16.703934">
        <ele>293.764726</ele>
        <time>2020-09-18T08:27:50.882Z</time>
      </trkpt>
      <trkpt lat="48.504339" lon="16.703877">
        <ele>293.808828</ele>
        <time>2020-09-18T08:27:51.882Z</time>
      </trkpt>
      <trkpt lat="48.504220" lon="16.703821">
        <ele>293.851872</ele>
        <time>2020-09-18T08:27:52.884Z</time>
      </trkpt>
      <trkpt lat="48.504103" lon="16.703768">
        <ele>293.894055</ele>
        <time>2020-09-18T08:27:53.885Z</time>
      </trkpt>
      <trkpt lat="48.503989" lon="16.703721">
        <ele>293.934863</ele>
        <time>2020-09-18T08:27:54.882Z</time>
      </trkpt>
      <trkpt lat="48.503873" lon="16.703678">
        <ele>293.976111</ele>
        <time>2020-09-18T08:27:55.886Z</time>
      </trkpt>
      <trkpt lat="48.503760" lon="16.703637">
        <ele>294.016243</ele>
        <time>2020-09-18T08:27:56.883Z</time>
      </trkpt>
      <trkpt lat="48.503648" lon="16.703593">
        <ele>294.056208</ele>
        <time>2020-09-18T08:27:57.883Z</time>
      </trkpt>
      <trkpt lat="48.503533" lon="16.703557">
        <ele>294.062029</ele>
        <time>2020-09-18T08:27:58.878Z</time>
      </trkpt>
      <trkpt lat="48.503424" lon="16.703506">
        <ele>293.931714</ele>
        <time>2020-09-18T08:27:59.881Z</time>
      </trkpt>
      <trkpt lat="48.503316" lon="16.703467">
        <ele>293.804904</ele>
        <time>2020-09-18T08:28:00.878Z</time>
      </trkpt>
      <trkpt lat="48.503215" lon="16.703424">
        <ele>293.685067</ele>
        <time>2020-09-18T08:28:01.888Z</time>
      </trkpt>
      <trkpt lat="48.503120" lon="16.703381">
        <ele>293.571809</ele>
        <time>2020-09-18T08:28:02.882Z</time>
      </trkpt>
      <trkpt lat="48.503029" lon="16.703340">
        <ele>293.463362</ele>
        <time>2020-09-18T08:28:03.904Z</time>
      </trkpt>
      <trkpt lat="48.502941" lon="16.703303">
        <ele>293.359044</ele>
        <time>2020-09-18T08:28:04.892Z</time>
      </trkpt>
      <trkpt lat="48.502776" lon="16.703228">
        <ele>293.162265</ele>
        <time>2020-09-18T08:28:06.889Z</time>
      </trkpt>
      <trkpt lat="48.502629" lon="16.703159">
        <ele>292.986469</ele>
        <time>2020-09-18T08:28:08.929Z</time>
      </trkpt>
      <trkpt lat="48.502497" lon="16.703102">
        <ele>292.829685</ele>
        <time>2020-09-18T08:28:10.928Z</time>
      </trkpt>
      <trkpt lat="48.502377" lon="16.703051">
        <ele>292.687323</ele>
        <time>2020-09-18T08:28:12.903Z</time>
      </trkpt>
      <trkpt lat="48.502268" lon="16.703004">
        <ele>292.557871</ele>
        <time>2020-09-18T08:28:14.921Z</time>
      </trkpt>
      <trkpt lat="48.502167" lon="16.702959">
        <ele>292.437615</ele>
        <time>2020-09-18T08:28:16.925Z</time>
      </trkpt>
      <trkpt lat="48.502074" lon="16.702916">
        <ele>292.326542</ele>
        <time>2020-09-18T08:28:18.923Z</time>
      </trkpt>
      <trkpt lat="48.501986" lon="16.702872">
        <ele>292.220681</ele>
        <time>2020-09-18T08:28:20.917Z</time>
      </trkpt>
      <trkpt lat="48.501900" lon="16.702829">
        <ele>292.117225</ele>
        <time>2020-09-18T08:28:22.909Z</time>
      </trkpt>
      <trkpt lat="48.501771" lon="16.702774">
        <ele>291.907100</ele>
        <time>2020-09-18T08:28:25.925Z</time>
      </trkpt>
      <trkpt lat="48.501646" lon="16.702721">
        <ele>291.639041</ele>
        <time>2020-09-18T08:28:28.906Z</time>
      </trkpt>
      <trkpt lat="48.501522" lon="16.702673">
        <ele>291.374751</ele>
        <time>2020-09-18T08:28:31.901Z</time>
      </trkpt>
      <trkpt lat="48.501400" lon="16.702623">
        <ele>291.113755</ele>
        <time>2020-09-18T08:28:34.904Z</time>
      </trkpt>
      <trkpt lat="48.501275" lon="16.702570">
        <ele>290.845696</ele>
        <time>2020-09-18T08:28:37.904Z</time>
      </trkpt>
      <trkpt lat="48.501156" lon="16.702513">
        <ele>290.587938</ele>
        <time>2020-09-18T08:28:40.884Z</time>
      </trkpt>
      <trkpt lat="48.501034" lon="16.702452">
        <ele>290.322601</ele>
        <time>2020-09-18T08:28:43.910Z</time>
      </trkpt>
      <trkpt lat="48.500946" lon="16.702423">
        <ele>290.136640</ele>
        <time>2020-09-18T08:28:45.931Z</time>
      </trkpt>
      <trkpt lat="48.500858" lon="16.702389">
        <ele>289.949101</ele>
        <time>2020-09-18T08:28:47.893Z</time>
      </trkpt>
      <trkpt lat="48.500766" lon="16.702347">
        <ele>289.750663</ele>
        <time>2020-09-18T08:28:49.905Z</time>
      </trkpt>
      <trkpt lat="48.500674" lon="16.702296">
        <ele>289.548317</ele>
        <time>2020-09-18T08:28:51.926Z</time>
      </trkpt>
      <trkpt lat="48.500578" lon="16.702246">
        <ele>289.338650</ele>
        <time>2020-09-18T08:28:53.928Z</time>
      </trkpt>
      <trkpt lat="48.500484" lon="16.702205">
        <ele>289.136641</ele>
        <time>2020-09-18T08:28:55.912Z</time>
      </trkpt>
      <trkpt lat="48.500391" lon="16.702168">
        <ele>288.938079</ele>
        <time>2020-09-18T08:28:57.903Z</time>
      </trkpt>
      <trkpt lat="48.500296" lon="16.702122">
        <ele>288.732099</ele>
        <time>2020-09-18T08:28:59.936Z</time>
      </trkpt>
      <trkpt lat="48.500202" lon="16.702075">
        <ele>288.527659</ele>
        <time>2020-09-18T08:29:01.916Z</time>
      </trkpt>
      <trkpt lat="48.500111" lon="16.702031">
        <ele>288.330378</ele>
        <time>2020-09-18T08:29:03.890Z</time>
      </trkpt>
      <trkpt lat="48.500015" lon="16.701987">
        <ele>288.229231</ele>
        <time>2020-09-18T08:29:05.890Z</time>
      </trkpt>
      <trkpt lat="48.499914" lon="16.701946">
        <ele>288.128803</ele>
        <time>2020-09-18T08:29:07.924Z</time>
      </trkpt>
      <trkpt lat="48.499807" lon="16.701900">
        <ele>288.021973</ele>
        <time>2020-09-18T08:29:09.894Z</time>
      </trkpt>
      <trkpt lat="48.499697" lon="16.701852">
        <ele>287.912023</ele>
        <time>2020-09-18T08:29:11.922Z</time>
      </trkpt>
      <trkpt lat="48.499578" lon="16.701802">
        <ele>287.793413</ele>
        <time>2020-09-18T08:29:13.916Z</time>
      </trkpt>
      <trkpt lat="48.499459" lon="16.701746">
        <ele>287.673721</ele>
        <time>2020-09-18T08:29:15.896Z</time>
      </trkpt>
      <trkpt lat="48.499338" lon="16.701682">
        <ele>287.550607</ele>
        <time>2020-09-18T08:29:17.940Z</time>
      </trkpt>
      <trkpt lat="48.499207" lon="16.701630">
        <ele>287.420541</ele>
        <time>2020-09-18T08:29:19.912Z</time>
      </trkpt>
      <trkpt lat="48.499067" lon="16.701565">
        <ele>287.279894</ele>
        <time>2020-09-18T08:29:21.907Z</time>
      </trkpt>
      <trkpt lat="48.498919" lon="16.701501">
        <ele>287.132064</ele>
        <time>2020-09-18T08:29:23.903Z</time>
      </trkpt>
      <trkpt lat="48.498766" lon="16.701432">
        <ele>286.978732</ele>
        <time>2020-09-18T08:29:25.919Z</time>
      </trkpt>
      <trkpt lat="48.498604" lon="16.701355">
        <ele>286.815645</ele>
        <time>2020-09-18T08:29:27.924Z</time>
      </trkpt>
      <trkpt lat="48.498435" lon="16.701279">
        <ele>286.646318</ele>
        <time>2020-09-18T08:29:29.903Z</time>
      </trkpt>
      <trkpt lat="48.498346" lon="16.701240">
        <ele>286.551075</ele>
        <time>2020-09-18T08:29:30.907Z</time>
      </trkpt>
      <trkpt lat="48.498256" lon="16.701199">
        <ele>286.445537</ele>
        <time>2020-09-18T08:29:31.949Z</time>
      </trkpt>
      <trkpt lat="48.498163" lon="16.701157">
        <ele>286.336560</ele>
        <time>2020-09-18T08:29:32.920Z</time>
      </trkpt>
      <trkpt lat="48.498069" lon="16.701112">
        <ele>286.225852</ele>
        <time>2020-09-18T08:29:33.892Z</time>
      </trkpt>
      <trkpt lat="48.497974" lon="16.701069">
        <ele>286.114510</ele>
        <time>2020-09-18T08:29:34.924Z</time>
      </trkpt>
      <trkpt lat="48.497878" lon="16.701025">
        <ele>286.001879</ele>
        <time>2020-09-18T08:29:35.925Z</time>
      </trkpt>
      <trkpt lat="48.497780" lon="16.700982">
        <ele>285.887307</ele>
        <time>2020-09-18T08:29:36.909Z</time>
      </trkpt>
      <trkpt lat="48.497681" lon="16.700938">
        <ele>285.771449</ele>
        <time>2020-09-18T08:29:37.914Z</time>
      </trkpt>
      <trkpt lat="48.497581" lon="16.700894">
        <ele>285.654514</ele>
        <time>2020-09-18T08:29:38.898Z</time>
      </trkpt>
      <trkpt lat="48.497480" lon="16.700848">
        <ele>285.536079</ele>
        <time>2020-09-18T08:29:39.911Z</time>
      </trkpt>
      <trkpt lat="48.497378" lon="16.700804">
        <ele>285.416987</ele>
        <time>2020-09-18T08:29:40.898Z</time>
      </trkpt>
      <trkpt lat="48.497281" lon="16.700760">
        <ele>285.303281</ele>
        <time>2020-09-18T08:29:41.938Z</time>
      </trkpt>
      <trkpt lat="48.497195" lon="16.700718">
        <ele>285.201807</ele>
        <time>2020-09-18T08:29:42.903Z</time>
      </trkpt>
      <trkpt lat="48.497057" lon="16.700655">
        <ele>285.039953</ele>
        <time>2020-09-18T08:29:44.911Z</time>
      </trkpt>
      <trkpt lat="48.496975" lon="16.700550">
        <ele>284.919225</ele>
        <time>2020-09-18T08:29:46.893Z</time>
      </trkpt>
      <trkpt lat="48.496987" lon="16.700396">
        <ele>284.803874</ele>
        <time>2020-09-18T08:29:48.898Z</time>
      </trkpt>
      <trkpt lat="48.497034" lon="16.700272">
        <ele>284.697606</ele>
        <time>2020-09-18T08:29:50.905Z</time>
      </trkpt>
      <trkpt lat="48.497085" lon="16.700156">
        <ele>284.594047</ele>
        <time>2020-09-18T08:29:52.905Z</time>
      </trkpt>
      <trkpt lat="48.497144" lon="16.700014">
        <ele>284.451108</ele>
        <time>2020-09-18T08:29:55.905Z</time>
      </trkpt>
      <trkpt lat="48.497204" lon="16.699879">
        <ele>284.309312</ele>
        <time>2020-09-18T08:29:58.903Z</time>
      </trkpt>
      <trkpt lat="48.497270" lon="16.699743">
        <ele>284.162267</ele>
        <time>2020-09-18T08:30:01.940Z</time>
      </trkpt>
      <trkpt lat="48.497335" lon="16.699605">
        <ele>284.014577</ele>
        <time>2020-09-18T08:30:04.894Z</time>
      </trkpt>
      <trkpt lat="48.497405" lon="16.699449">
        <ele>283.850235</ele>
        <time>2020-09-18T08:30:07.938Z</time>
      </trkpt>
      <trkpt lat="48.497481" lon="16.699287">
        <ele>283.677092</ele>
        <time>2020-09-18T08:30:10.933Z</time>
      </trkpt>
      <trkpt lat="48.497535" lon="16.699179">
        <ele>283.559074</ele>
        <time>2020-09-18T08:30:12.902Z</time>
      </trkpt>
      <trkpt lat="48.497591" lon="16.699072">
        <ele>283.440137</ele>
        <time>2020-09-18T08:30:14.902Z</time>
      </trkpt>
      <trkpt lat="48.497643" lon="16.698958">
        <ele>283.319413</ele>
        <time>2020-09-18T08:30:16.918Z</time>
      </trkpt>
      <trkpt lat="48.497693" lon="16.698841">
        <ele>283.197971</ele>
        <time>2020-09-18T08:30:18.891Z</time>
      </trkpt>
      <trkpt lat="48.497763" lon="16.698669">
        <ele>283.021898</ele>
        <time>2020-09-18T08:30:21.929Z</time>
      </trkpt>
      <trkpt lat="48.497842" lon="16.698513">
        <ele>282.850632</ele>
        <time>2020-09-18T08:30:24.911Z</time>
      </trkpt>
      <trkpt lat="48.497921" lon="16.698368">
        <ele>282.686887</ele>
        <time>2020-09-18T08:30:27.916Z</time>
      </trkpt>
      <trkpt lat="48.497997" lon="16.698222">
        <ele>282.524935</ele>
        <time>2020-09-18T08:30:30.920Z</time>
      </trkpt>
      <trkpt lat="48.498064" lon="16.698059">
        <ele>282.357618</ele>
        <time>2020-09-18T08:30:33.922Z</time>
      </trkpt>
      <trkpt lat="48.498126" lon="16.697886">
        <ele>282.196054</ele>
        <time>2020-09-18T08:30:36.911Z</time>
      </trkpt>
      <trkpt lat="48.498193" lon="16.697727">
        <ele>282.108529</ele>
        <time>2020-09-18T08:30:39.919Z</time>
      </trkpt>
      <trkpt lat="48.498260" lon="16.697571">
        <ele>282.022176</ele>
        <time>2020-09-18T08:30:42.892Z</time>
      </trkpt>
      <trkpt lat="48.498328" lon="16.697414">
        <ele>281.935052</ele>
        <time>2020-09-18T08:30:45.885Z</time>
      </trkpt>
      <trkpt lat="48.498392" lon="16.697261">
        <ele>281.851007</ele>
        <time>2020-09-18T08:30:48.901Z</time>
      </trkpt>
      <trkpt lat="48.498456" lon="16.697117">
        <ele>281.770466</ele>
        <time>2020-09-18T08:30:51.926Z</time>
      </trkpt>
      <trkpt lat="48.498516" lon="16.696964">
        <ele>281.687883</ele>
        <time>2020-09-18T08:30:54.916Z</time>
      </trkpt>
      <trkpt lat="48.498580" lon="16.696799">
        <ele>281.599075</ele>
        <time>2020-09-18T08:30:57.897Z</time>
      </trkpt>
      <trkpt lat="48.498634" lon="16.696616">
        <ele>281.506023</ele>
        <time>2020-09-18T08:31:00.885Z</time>
      </trkpt>
      <trkpt lat="48.498681" lon="16.696435">
        <ele>281.415723</ele>
        <time>2020-09-18T08:31:03.920Z</time>
      </trkpt>
      <trkpt lat="48.498723" lon="16.696250">
        <ele>281.324887</ele>
        <time>2020-09-18T08:31:06.917Z</time>
      </trkpt>
      <trkpt lat="48.498760" lon="16.696068">
        <ele>281.236458</ele>
        <time>2020-09-18T08:31:09.896Z</time>
      </trkpt>
      <trkpt lat="48.498796" lon="16.695876">
        <ele>281.143772</ele>
        <time>2020-09-18T08:31:12.898Z</time>
      </trkpt>
      <trkpt lat="48.498830" lon="16.695683">
        <ele>281.051009</ele>
        <time>2020-09-18T08:31:15.939Z</time>
      </trkpt>
      <trkpt lat="48.498873" lon="16.695492">
        <ele>280.957308</ele>
        <time>2020-09-18T08:31:18.901Z</time>
      </trkpt>
      <trkpt lat="48.498926" lon="16.695306">
        <ele>280.954220</ele>
        <time>2020-09-18T08:31:21.920Z</time>
      </trkpt>
      <trkpt lat="48.498968" lon="16.695181">
        <ele>280.960165</ele>
        <time>2020-09-18T08:31:23.903Z</time>
      </trkpt>
      <trkpt lat="48.499029" lon="16.695007">
        <ele>280.968515</ele>
        <time>2020-09-18T08:31:26.894Z</time>
      </trkpt>
      <trkpt lat="48.499097" lon="16.694839">
        <ele>280.976865</ele>
        <time>2020-09-18T08:31:29.908Z</time>
      </trkpt>
      <trkpt lat="48.499169" lon="16.694671">
        <ele>280.985352</ele>
        <time>2020-09-18T08:31:32.909Z</time>
      </trkpt>
      <trkpt lat="48.499243" lon="16.694511">
        <ele>280.993628</ele>
        <time>2020-09-18T08:31:35.911Z</time>
      </trkpt>
      <trkpt lat="48.499304" lon="16.694341">
        <ele>281.001828</ele>
        <time>2020-09-18T08:31:38.886Z</time>
      </trkpt>
      <trkpt lat="48.499371" lon="16.694176">
        <ele>281.010036</ele>
        <time>2020-09-18T08:31:41.899Z</time>
      </trkpt>
      <trkpt lat="48.499434" lon="16.694016">
        <ele>281.017931</ele>
        <time>2020-09-18T08:31:44.912Z</time>
      </trkpt>
      <trkpt lat="48.499499" lon="16.693854">
        <ele>281.025964</ele>
        <time>2020-09-18T08:31:47.909Z</time>
      </trkpt>
      <trkpt lat="48.499567" lon="16.693697">
        <ele>281.033920</ele>
        <time>2020-09-18T08:31:50.911Z</time>
      </trkpt>
      <trkpt lat="48.499639" lon="16.693542">
        <ele>281.041949</ele>
        <time>2020-09-18T08:31:53.933Z</time>
      </trkpt>
      <trkpt lat="48.499712" lon="16.693384">
        <ele>281.050119</ele>
        <time>2020-09-18T08:31:56.905Z</time>
      </trkpt>
      <trkpt lat="48.499784" lon="16.693231">
        <ele>281.058079</ele>
        <time>2020-09-18T08:31:59.939Z</time>
      </trkpt>
      <trkpt lat="48.499857" lon="16.693081">
        <ele>281.117413</ele>
        <time>2020-09-18T08:32:02.923Z</time>
      </trkpt>
      <trkpt lat="48.499927" lon="16.692927">
        <ele>281.221711</ele>
        <time>2020-09-18T08:32:05.900Z</time>
      </trkpt>
      <trkpt lat="48.499996" lon="16.692764">
        <ele>281.329735</ele>
        <time>2020-09-18T08:32:08.927Z</time>
      </trkpt>
      <trkpt lat="48.500058" lon="16.692596">
        <ele>281.437131</ele>
        <time>2020-09-18T08:32:11.889Z</time>
      </trkpt>
      <trkpt lat="48.500116" lon="16.692428">
        <ele>281.542927</ele>
        <time>2020-09-18T08:32:14.916Z</time>
      </trkpt>
      <trkpt lat="48.500178" lon="16.692265">
        <ele>281.647893</ele>
        <time>2020-09-18T08:32:17.921Z</time>
      </trkpt>
      <trkpt lat="48.500233" lon="16.692100">
        <ele>281.751045</ele>
        <time>2020-09-18T08:32:20.917Z</time>
      </trkpt>
      <trkpt lat="48.500282" lon="16.691937">
        <ele>281.851008</ele>
        <time>2020-09-18T08:32:23.929Z</time>
      </trkpt>
      <trkpt lat="48.500329" lon="16.691769">
        <ele>281.952853</ele>
        <time>2020-09-18T08:32:26.938Z</time>
      </trkpt>
      <trkpt lat="48.500377" lon="16.691598">
        <ele>282.056569</ele>
        <time>2020-09-18T08:32:29.922Z</time>
      </trkpt>
      <trkpt lat="48.500420" lon="16.691425">
        <ele>282.159760</ele>
        <time>2020-09-18T08:32:32.899Z</time>
      </trkpt>
      <trkpt lat="48.500461" lon="16.691255">
        <ele>282.260795</ele>
        <time>2020-09-18T08:32:35.893Z</time>
      </trkpt>
      <trkpt lat="48.500504" lon="16.691085">
        <ele>282.362419</ele>
        <time>2020-09-18T08:32:38.908Z</time>
      </trkpt>
      <trkpt lat="48.500544" lon="16.690918">
        <ele>282.461591</ele>
        <time>2020-09-18T08:32:41.899Z</time>
      </trkpt>
      <trkpt lat="48.500576" lon="16.690754">
        <ele>282.557070</ele>
        <time>2020-09-18T08:32:44.918Z</time>
      </trkpt>
      <trkpt lat="48.500616" lon="16.690597">
        <ele>282.718672</ele>
        <time>2020-09-18T08:32:47.911Z</time>
      </trkpt>
      <trkpt lat="48.500658" lon="16.690443">
        <ele>282.897542</ele>
        <time>2020-09-18T08:32:50.909Z</time>
      </trkpt>
      <trkpt lat="48.500698" lon="16.690288">
        <ele>283.076203</ele>
        <time>2020-09-18T08:32:53.929Z</time>
      </trkpt>
      <trkpt lat="48.500735" lon="16.690125">
        <ele>283.261265</ele>
        <time>2020-09-18T08:32:56.919Z</time>
      </trkpt>
      <trkpt lat="48.500782" lon="16.689962">
        <ele>283.452197</ele>
        <time>2020-09-18T08:32:59.899Z</time>
      </trkpt>
      <trkpt lat="48.500830" lon="16.689802">
        <ele>283.640841</ele>
        <time>2020-09-18T08:33:02.916Z</time>
      </trkpt>
      <trkpt lat="48.500875" lon="16.689636">
        <ele>283.833480</ele>
        <time>2020-09-18T08:33:05.898Z</time>
      </trkpt>
      <trkpt lat="48.500926" lon="16.689479">
        <ele>284.021283</ele>
        <time>2020-09-18T08:33:08.920Z</time>
      </trkpt>
      <trkpt lat="48.500976" lon="16.689311">
        <ele>284.219092</ele>
        <time>2020-09-18T08:33:11.885Z</time>
      </trkpt>
      <trkpt lat="48.501022" lon="16.689147">
        <ele>284.410370</ele>
        <time>2020-09-18T08:33:14.906Z</time>
      </trkpt>
      <trkpt lat="48.501061" lon="16.688985">
        <ele>284.595497</ele>
        <time>2020-09-18T08:33:17.923Z</time>
      </trkpt>
      <trkpt lat="48.501108" lon="16.688820">
        <ele>284.788399</ele>
        <time>2020-09-18T08:33:20.925Z</time>
      </trkpt>
      <trkpt lat="48.501161" lon="16.688654">
        <ele>284.986312</ele>
        <time>2020-09-18T08:33:23.928Z</time>
      </trkpt>
      <trkpt lat="48.501213" lon="16.688494">
        <ele>285.177720</ele>
        <time>2020-09-18T08:33:26.943Z</time>
      </trkpt>
      <trkpt lat="48.501257" lon="16.688334">
        <ele>285.363783</ele>
        <time>2020-09-18T08:33:29.908Z</time>
      </trkpt>
      <trkpt lat="48.501301" lon="16.688174">
        <ele>285.565496</ele>
        <time>2020-09-18T08:33:32.905Z</time>
      </trkpt>
      <trkpt lat="48.501340" lon="16.688008">
        <ele>285.806992</ele>
        <time>2020-09-18T08:33:35.908Z</time>
      </trkpt>
      <trkpt lat="48.501376" lon="16.687842">
        <ele>286.046485</ele>
        <time>2020-09-18T08:33:38.909Z</time>
      </trkpt>
      <trkpt lat="48.501421" lon="16.687685">
        <ele>286.281033</ele>
        <time>2020-09-18T08:33:41.902Z</time>
      </trkpt>
      <trkpt lat="48.501463" lon="16.687524">
        <ele>286.518281</ele>
        <time>2020-09-18T08:33:44.892Z</time>
      </trkpt>
      <trkpt lat="48.501506" lon="16.687362">
        <ele>286.757568</ele>
        <time>2020-09-18T08:33:47.918Z</time>
      </trkpt>
      <trkpt lat="48.501552" lon="16.687197">
        <ele>287.003017</ele>
        <time>2020-09-18T08:33:50.910Z</time>
      </trkpt>
      <trkpt lat="48.501598" lon="16.687033">
        <ele>287.247203</ele>
        <time>2020-09-18T08:33:53.931Z</time>
      </trkpt>
      <trkpt lat="48.501641" lon="16.686870">
        <ele>287.487762</ele>
        <time>2020-09-18T08:33:56.924Z</time>
      </trkpt>
      <trkpt lat="48.501679" lon="16.686707">
        <ele>287.724689</ele>
        <time>2020-09-18T08:33:59.914Z</time>
      </trkpt>
      <trkpt lat="48.501714" lon="16.686545">
        <ele>287.958324</ele>
        <time>2020-09-18T08:34:02.917Z</time>
      </trkpt>
      <trkpt lat="48.501746" lon="16.686380">
        <ele>288.194054</ele>
        <time>2020-09-18T08:34:05.913Z</time>
      </trkpt>
      <trkpt lat="48.501779" lon="16.686211">
        <ele>288.435630</ele>
        <time>2020-09-18T08:34:08.890Z</time>
      </trkpt>
      <trkpt lat="48.501810" lon="16.686044">
        <ele>288.673427</ele>
        <time>2020-09-18T08:34:11.928Z</time>
      </trkpt>
      <trkpt lat="48.501841" lon="16.685865">
        <ele>288.927106</ele>
        <time>2020-09-18T08:34:14.905Z</time>
      </trkpt>
      <trkpt lat="48.501870" lon="16.685730">
        <ele>289.121695</ele>
        <time>2020-09-18T08:34:16.911Z</time>
      </trkpt>
      <trkpt lat="48.501905" lon="16.685590">
        <ele>289.276473</ele>
        <time>2020-09-18T08:34:18.904Z</time>
      </trkpt>
      <trkpt lat="48.501942" lon="16.685439">
        <ele>289.397534</ele>
        <time>2020-09-18T08:34:20.905Z</time>
      </trkpt>
      <trkpt lat="48.501977" lon="16.685277">
        <ele>289.525663</ele>
        <time>2020-09-18T08:34:22.912Z</time>
      </trkpt>
      <trkpt lat="48.502008" lon="16.685098">
        <ele>289.664785</ele>
        <time>2020-09-18T08:34:24.899Z</time>
      </trkpt>
      <trkpt lat="48.502040" lon="16.684917">
        <ele>289.805651</ele>
        <time>2020-09-18T08:34:26.923Z</time>
      </trkpt>
      <trkpt lat="48.502076" lon="16.684712">
        <ele>289.965125</ele>
        <time>2020-09-18T08:34:28.900Z</time>
      </trkpt>
      <trkpt lat="48.502112" lon="16.684498">
        <ele>290.131149</ele>
        <time>2020-09-18T08:34:30.898Z</time>
      </trkpt>
      <trkpt lat="48.502144" lon="16.684277">
        <ele>290.301253</ele>
        <time>2020-09-18T08:34:32.901Z</time>
      </trkpt>
      <trkpt lat="48.502170" lon="16.684049">
        <ele>290.475219</ele>
        <time>2020-09-18T08:34:34.915Z</time>
      </trkpt>
      <trkpt lat="48.502206" lon="16.683812">
        <ele>290.658055</ele>
        <time>2020-09-18T08:34:36.904Z</time>
      </trkpt>
      <trkpt lat="48.502227" lon="16.683561">
        <ele>290.848294</ele>
        <time>2020-09-18T08:34:38.925Z</time>
      </trkpt>
      <trkpt lat="48.502249" lon="16.683307">
        <ele>291.040916</ele>
        <time>2020-09-18T08:34:40.932Z</time>
      </trkpt>
      <trkpt lat="48.502278" lon="16.683050">
        <ele>291.236950</ele>
        <time>2020-09-18T08:34:42.907Z</time>
      </trkpt>
      <trkpt lat="48.502298" lon="16.682794">
        <ele>291.359332</ele>
        <time>2020-09-18T08:34:44.910Z</time>
      </trkpt>
      <trkpt lat="48.502327" lon="16.682540">
        <ele>291.473685</ele>
        <time>2020-09-18T08:34:46.892Z</time>
      </trkpt>
      <trkpt lat="48.502364" lon="16.682293">
        <ele>291.586038</ele>
        <time>2020-09-18T08:34:48.911Z</time>
      </trkpt>
      <trkpt lat="48.502422" lon="16.682061">
        <ele>291.696052</ele>
        <time>2020-09-18T08:34:50.927Z</time>
      </trkpt>
      <trkpt lat="48.502476" lon="16.681850">
        <ele>291.796407</ele>
        <time>2020-09-18T08:34:52.893Z</time>
      </trkpt>
      <trkpt lat="48.502505" lon="16.681646">
        <ele>291.888976</ele>
        <time>2020-09-18T08:34:54.891Z</time>
      </trkpt>
      <trkpt lat="48.502510" lon="16.681453">
        <ele>291.974669</ele>
        <time>2020-09-18T08:34:56.893Z</time>
      </trkpt>
      <trkpt lat="48.502531" lon="16.681260">
        <ele>292.061444</ele>
        <time>2020-09-18T08:34:58.919Z</time>
      </trkpt>
      <trkpt lat="48.502573" lon="16.681049">
        <ele>292.159192</ele>
        <time>2020-09-18T08:35:00.891Z</time>
      </trkpt>
      <trkpt lat="48.502595" lon="16.680823">
        <ele>292.260537</ele>
        <time>2020-09-18T08:35:02.925Z</time>
      </trkpt>
      <trkpt lat="48.502633" lon="16.680621">
        <ele>292.353700</ele>
        <time>2020-09-18T08:35:04.901Z</time>
      </trkpt>
      <trkpt lat="48.502684" lon="16.680463">
        <ele>292.431676</ele>
        <time>2020-09-18T08:35:06.910Z</time>
      </trkpt>
      <trkpt lat="48.502749" lon="16.680352">
        <ele>292.387198</ele>
        <time>2020-09-18T08:35:08.892Z</time>
      </trkpt>
      <trkpt lat="48.502798" lon="16.680232">
        <ele>292.261044</ele>
        <time>2020-09-18T08:35:11.881Z</time>
      </trkpt>
      <trkpt lat="48.502848" lon="16.680119">
        <ele>292.139434</ele>
        <time>2020-09-18T08:35:13.895Z</time>
      </trkpt>
      <trkpt lat="48.502928" lon="16.679980">
        <ele>291.974653</ele>
        <time>2020-09-18T08:35:15.890Z</time>
      </trkpt>
      <trkpt lat="48.503020" lon="16.679821">
        <ele>291.785729</ele>
        <time>2020-09-18T08:35:17.918Z</time>
      </trkpt>
      <trkpt lat="48.503136" lon="16.679657">
        <ele>291.571034</ele>
        <time>2020-09-18T08:35:19.904Z</time>
      </trkpt>
      <trkpt lat="48.503264" lon="16.679485">
        <ele>291.339542</ele>
        <time>2020-09-18T08:35:21.913Z</time>
      </trkpt>
      <trkpt lat="48.503397" lon="16.679314">
        <ele>291.103544</ele>
        <time>2020-09-18T08:35:23.895Z</time>
      </trkpt>
      <trkpt lat="48.503504" lon="16.679134">
        <ele>290.887118</ele>
        <time>2020-09-18T08:35:25.906Z</time>
      </trkpt>
      <trkpt lat="48.503577" lon="16.678934">
        <ele>290.682762</ele>
        <time>2020-09-18T08:35:27.899Z</time>
      </trkpt>
      <trkpt lat="48.503627" lon="16.678722">
        <ele>290.481368</ele>
        <time>2020-09-18T08:35:29.895Z</time>
      </trkpt>
      <trkpt lat="48.503696" lon="16.678516">
        <ele>290.274786</ele>
        <time>2020-09-18T08:35:31.891Z</time>
      </trkpt>
      <trkpt lat="48.503752" lon="16.678293">
        <ele>290.061355</ele>
        <time>2020-09-18T08:35:33.901Z</time>
      </trkpt>
      <trkpt lat="48.503795" lon="16.678091">
        <ele>289.433703</ele>
        <time>2020-09-18T08:35:35.890Z</time>
      </trkpt>
      <trkpt lat="48.503829" lon="16.677946">
        <ele>288.919175</ele>
        <time>2020-09-18T08:35:37.890Z</time>
      </trkpt>
      <trkpt lat="48.503845" lon="16.677758">
        <ele>288.285117</ele>
        <time>2020-09-18T08:35:40.896Z</time>
      </trkpt>
      <trkpt lat="48.503876" lon="16.677612">
        <ele>287.772258</ele>
        <time>2020-09-18T08:35:42.899Z</time>
      </trkpt>
      <trkpt lat="48.503915" lon="16.677450">
        <ele>287.195679</ele>
        <time>2020-09-18T08:35:44.898Z</time>
      </trkpt>
      <trkpt lat="48.503950" lon="16.677305">
        <ele>286.679445</ele>
        <time>2020-09-18T08:35:46.896Z</time>
      </trkpt>
      <trkpt lat="48.503858" lon="16.677201">
        <ele>286.099118</ele>
        <time>2020-09-18T08:35:50.892Z</time>
      </trkpt>
      <trkpt lat="48.503758" lon="16.677276">
        <ele>285.535340</ele>
        <time>2020-09-18T08:35:52.913Z</time>
      </trkpt>
      <trkpt lat="48.503658" lon="16.677309">
        <ele>285.018535</ele>
        <time>2020-09-18T08:35:54.890Z</time>
      </trkpt>
      <trkpt lat="48.503610" lon="16.677159">
        <ele>284.461302</ele>
        <time>2020-09-18T08:35:57.899Z</time>
      </trkpt>
      <trkpt lat="48.503650" lon="16.677037">
        <ele>284.005957</ele>
        <time>2020-09-18T08:35:59.906Z</time>
      </trkpt>
      <trkpt lat="48.503705" lon="16.676896">
        <ele>283.458618</ele>
        <time>2020-09-18T08:36:01.910Z</time>
      </trkpt>
      <trkpt lat="48.503785" lon="16.676730">
        <ele>282.771964</ele>
        <time>2020-09-18T08:36:03.895Z</time>
      </trkpt>
      <trkpt lat="48.503905" lon="16.676573">
        <ele>281.970165</ele>
        <time>2020-09-18T08:36:05.908Z</time>
      </trkpt>
      <trkpt lat="48.504034" lon="16.676393">
        <ele>281.083182</ele>
        <time>2020-09-18T08:36:07.899Z</time>
      </trkpt>
      <trkpt lat="48.504099" lon="16.676299">
        <ele>280.789757</ele>
        <time>2020-09-18T08:36:08.923Z</time>
      </trkpt>
      <trkpt lat="48.504211" lon="16.676136">
        <ele>280.397484</ele>
        <time>2020-09-18T08:36:10.887Z</time>
      </trkpt>
      <trkpt lat="48.504301" lon="16.676031">
        <ele>280.110684</ele>
        <time>2020-09-18T08:36:12.933Z</time>
      </trkpt>
      <trkpt lat="48.504360" lon="16.675903">
        <ele>279.850210</ele>
        <time>2020-09-18T08:36:15.906Z</time>
      </trkpt>
      <trkpt lat="48.504297" lon="16.675760">
        <ele>279.563344</ele>
        <time>2020-09-18T08:36:18.892Z</time>
      </trkpt>
      <trkpt lat="48.504200" lon="16.675687">
        <ele>279.290067</ele>
        <time>2020-09-18T08:36:20.899Z</time>
      </trkpt>
      <trkpt lat="48.504099" lon="16.675604">
        <ele>279.000123</ele>
        <time>2020-09-18T08:36:22.892Z</time>
      </trkpt>
      <trkpt lat="48.504000" lon="16.675525">
        <ele>278.717781</ele>
        <time>2020-09-18T08:36:24.898Z</time>
      </trkpt>
      <trkpt lat="48.503911" lon="16.675463">
        <ele>278.470643</ele>
        <time>2020-09-18T08:36:27.903Z</time>
      </trkpt>
      <trkpt lat="48.503783" lon="16.675464">
        <ele>278.147920</ele>
        <time>2020-09-18T08:36:30.902Z</time>
      </trkpt>
      <trkpt lat="48.503680" lon="16.675480">
        <ele>277.886861</ele>
        <time>2020-09-18T08:36:32.898Z</time>
      </trkpt>
      <trkpt lat="48.503578" lon="16.675477">
        <ele>277.629647</ele>
        <time>2020-09-18T08:36:34.926Z</time>
      </trkpt>
      <trkpt lat="48.503483" lon="16.675454">
        <ele>277.387068</ele>
        <time>2020-09-18T08:36:36.913Z</time>
      </trkpt>
      <trkpt lat="48.503380" lon="16.675421">
        <ele>277.121594</ele>
        <time>2020-09-18T08:36:38.914Z</time>
      </trkpt>
      <trkpt lat="48.503277" lon="16.675386">
        <ele>276.855406</ele>
        <time>2020-09-18T08:36:40.918Z</time>
      </trkpt>
      <trkpt lat="48.503164" lon="16.675334">
        <ele>276.557558</ele>
        <time>2020-09-18T08:36:42.911Z</time>
      </trkpt>
      <trkpt lat="48.503056" lon="16.675244">
        <ele>276.166493</ele>
        <time>2020-09-18T08:36:44.905Z</time>
      </trkpt>
      <trkpt lat="48.502965" lon="16.675092">
        <ele>275.662343</ele>
        <time>2020-09-18T08:36:46.913Z</time>
      </trkpt>
      <trkpt lat="48.502879" lon="16.674949">
        <ele>275.187076</ele>
        <time>2020-09-18T08:36:48.901Z</time>
      </trkpt>
      <trkpt lat="48.502784" lon="16.674816">
        <ele>274.705790</ele>
        <time>2020-09-18T08:36:50.894Z</time>
      </trkpt>
      <trkpt lat="48.502681" lon="16.674689">
        <ele>274.211785</ele>
        <time>2020-09-18T08:36:52.919Z</time>
      </trkpt>
      <trkpt lat="48.502578" lon="16.674563">
        <ele>273.719334</ele>
        <time>2020-09-18T08:36:54.905Z</time>
      </trkpt>
      <trkpt lat="48.502469" lon="16.674459">
        <ele>273.240365</ele>
        <time>2020-09-18T08:36:56.903Z</time>
      </trkpt>
      <trkpt lat="48.502351" lon="16.674399">
        <ele>272.777881</ele>
        <time>2020-09-18T08:36:58.907Z</time>
      </trkpt>
      <trkpt lat="48.502228" lon="16.674356">
        <ele>272.308935</ele>
        <time>2020-09-18T08:37:00.906Z</time>
      </trkpt>
      <trkpt lat="48.502105" lon="16.674355">
        <ele>271.852079</ele>
        <time>2020-09-18T08:37:02.933Z</time>
      </trkpt>
      <trkpt lat="48.501976" lon="16.674356">
        <ele>271.372938</ele>
        <time>2020-09-18T08:37:04.904Z</time>
      </trkpt>
      <trkpt lat="48.501846" lon="16.674388">
        <ele>270.883708</ele>
        <time>2020-09-18T08:37:06.887Z</time>
      </trkpt>
      <trkpt lat="48.501711" lon="16.674421">
        <ele>270.375754</ele>
        <time>2020-09-18T08:37:08.881Z</time>
      </trkpt>
      <trkpt lat="48.501576" lon="16.674475">
        <ele>269.857021</ele>
        <time>2020-09-18T08:37:10.889Z</time>
      </trkpt>
      <trkpt lat="48.501453" lon="16.674549">
        <ele>269.364694</ele>
        <time>2020-09-18T08:37:12.902Z</time>
      </trkpt>
      <trkpt lat="48.501330" lon="16.674618">
        <ele>268.876626</ele>
        <time>2020-09-18T08:37:14.932Z</time>
      </trkpt>
      <trkpt lat="48.501207" lon="16.674687">
        <ele>268.388557</ele>
        <time>2020-09-18T08:37:16.912Z</time>
      </trkpt>
      <trkpt lat="48.501087" lon="16.674764">
        <ele>267.903562</ele>
        <time>2020-09-18T08:37:18.887Z</time>
      </trkpt>
      <trkpt lat="48.500968" lon="16.674835">
        <ele>267.427621</ele>
        <time>2020-09-18T08:37:20.899Z</time>
      </trkpt>
      <trkpt lat="48.500847" lon="16.674901">
        <ele>266.949081</ele>
        <time>2020-09-18T08:37:22.909Z</time>
      </trkpt>
      <trkpt lat="48.500729" lon="16.674974">
        <ele>266.474748</ele>
        <time>2020-09-18T08:37:24.906Z</time>
      </trkpt>
      <trkpt lat="48.500612" lon="16.675049">
        <ele>266.001950</ele>
        <time>2020-09-18T08:37:26.923Z</time>
      </trkpt>
      <trkpt lat="48.500501" lon="16.675131">
        <ele>265.542288</ele>
        <time>2020-09-18T08:37:28.916Z</time>
      </trkpt>
      <trkpt lat="48.500397" lon="16.675221">
        <ele>265.096388</ele>
        <time>2020-09-18T08:37:30.926Z</time>
      </trkpt>
      <trkpt lat="48.500296" lon="16.675310">
        <ele>264.661381</ele>
        <time>2020-09-18T08:37:32.897Z</time>
      </trkpt>
      <trkpt lat="48.500212" lon="16.675375">
        <ele>264.310275</ele>
        <time>2020-09-18T08:37:34.893Z</time>
      </trkpt>
      <trkpt lat="48.500127" lon="16.675436">
        <ele>263.960202</ele>
        <time>2020-09-18T08:37:37.927Z</time>
      </trkpt>
      <trkpt lat="48.500037" lon="16.675504">
        <ele>263.585847</ele>
        <time>2020-09-18T08:37:40.912Z</time>
      </trkpt>
      <trkpt lat="48.499922" lon="16.675549">
        <ele>263.143972</ele>
        <time>2020-09-18T08:37:43.917Z</time>
      </trkpt>
      <trkpt lat="48.499793" lon="16.675597">
        <ele>262.749541</ele>
        <time>2020-09-18T08:37:46.900Z</time>
      </trkpt>
      <trkpt lat="48.499697" lon="16.675603">
        <ele>262.482322</ele>
        <time>2020-09-18T08:37:48.892Z</time>
      </trkpt>
      <trkpt lat="48.499615" lon="16.675520">
        <ele>262.207723</ele>
        <time>2020-09-18T08:37:50.896Z</time>
      </trkpt>
      <trkpt lat="48.499577" lon="16.675341">
        <ele>261.861335</ele>
        <time>2020-09-18T08:37:53.895Z</time>
      </trkpt>
      <trkpt lat="48.499516" lon="16.675181">
        <ele>261.521155</ele>
        <time>2020-09-18T08:37:56.903Z</time>
      </trkpt>
      <trkpt lat="48.499379" lon="16.675221">
        <ele>261.133073</ele>
        <time>2020-09-18T08:37:59.897Z</time>
      </trkpt>
      <trkpt lat="48.499284" lon="16.675271">
        <ele>260.853257</ele>
        <time>2020-09-18T08:38:01.905Z</time>
      </trkpt>
      <trkpt lat="48.499191" lon="16.675322">
        <ele>260.578063</ele>
        <time>2020-09-18T08:38:03.921Z</time>
      </trkpt>
      <trkpt lat="48.499096" lon="16.675382">
        <ele>260.291649</ele>
        <time>2020-09-18T08:38:05.934Z</time>
      </trkpt>
      <trkpt lat="48.498997" lon="16.675444">
        <ele>259.993549</ele>
        <time>2020-09-18T08:38:07.925Z</time>
      </trkpt>
      <trkpt lat="48.498892" lon="16.675505">
        <ele>259.680638</ele>
        <time>2020-09-18T08:38:09.907Z</time>
      </trkpt>
      <trkpt lat="48.498788" lon="16.675570">
        <ele>259.367575</ele>
        <time>2020-09-18T08:38:11.892Z</time>
      </trkpt>
      <trkpt lat="48.498683" lon="16.675636">
        <ele>259.051236</ele>
        <time>2020-09-18T08:38:13.907Z</time>
      </trkpt>
      <trkpt lat="48.498574" lon="16.675706">
        <ele>258.721784</ele>
        <time>2020-09-18T08:38:15.917Z</time>
      </trkpt>
      <trkpt lat="48.498467" lon="16.675776">
        <ele>258.397443</ele>
        <time>2020-09-18T08:38:17.902Z</time>
      </trkpt>
      <trkpt lat="48.498358" lon="16.675847">
        <ele>258.067264</ele>
        <time>2020-09-18T08:38:19.899Z</time>
      </trkpt>
      <trkpt lat="48.498244" lon="16.675920">
        <ele>257.818699</ele>
        <time>2020-09-18T08:38:21.925Z</time>
      </trkpt>
      <trkpt lat="48.498128" lon="16.675990">
        <ele>257.575304</ele>
        <time>2020-09-18T08:38:23.897Z</time>
      </trkpt>
      <trkpt lat="48.498012" lon="16.676063">
        <ele>257.330445</ele>
        <time>2020-09-18T08:38:25.923Z</time>
      </trkpt>
      <trkpt lat="48.497894" lon="16.676151">
        <ele>257.074013</ele>
        <time>2020-09-18T08:38:27.902Z</time>
      </trkpt>
      <trkpt lat="48.497776" lon="16.676244">
        <ele>256.814656</ele>
        <time>2020-09-18T08:38:29.915Z</time>
      </trkpt>
      <trkpt lat="48.497654" lon="16.676341">
        <ele>256.546000</ele>
        <time>2020-09-18T08:38:31.900Z</time>
      </trkpt>
      <trkpt lat="48.497534" lon="16.676447">
        <ele>256.275104</ele>
        <time>2020-09-18T08:38:33.899Z</time>
      </trkpt>
      <trkpt lat="48.497415" lon="16.676557">
        <ele>256.003227</ele>
        <time>2020-09-18T08:38:35.924Z</time>
      </trkpt>
      <trkpt lat="48.497292" lon="16.676663">
        <ele>255.727271</ele>
        <time>2020-09-18T08:38:37.884Z</time>
      </trkpt>
      <trkpt lat="48.497169" lon="16.676760">
        <ele>255.456888</ele>
        <time>2020-09-18T08:38:39.894Z</time>
      </trkpt>
      <trkpt lat="48.497049" lon="16.676859">
        <ele>255.190443</ele>
        <time>2020-09-18T08:38:41.909Z</time>
      </trkpt>
      <trkpt lat="48.496928" lon="16.676961">
        <ele>254.920419</ele>
        <time>2020-09-18T08:38:43.907Z</time>
      </trkpt>
      <trkpt lat="48.496809" lon="16.677059">
        <ele>254.656303</ele>
        <time>2020-09-18T08:38:45.898Z</time>
      </trkpt>
      <trkpt lat="48.496693" lon="16.677159">
        <ele>254.425291</ele>
        <time>2020-09-18T08:38:47.920Z</time>
      </trkpt>
      <trkpt lat="48.496578" lon="16.677258">
        <ele>254.220254</ele>
        <time>2020-09-18T08:38:49.890Z</time>
      </trkpt>
      <trkpt lat="48.496461" lon="16.677355">
        <ele>254.013517</ele>
        <time>2020-09-18T08:38:51.898Z</time>
      </trkpt>
      <trkpt lat="48.496341" lon="16.677443">
        <ele>253.806896</ele>
        <time>2020-09-18T08:38:53.915Z</time>
      </trkpt>
      <trkpt lat="48.496218" lon="16.677526">
        <ele>253.598234</ele>
        <time>2020-09-18T08:38:55.898Z</time>
      </trkpt>
      <trkpt lat="48.496096" lon="16.677609">
        <ele>253.390984</ele>
        <time>2020-09-18T08:38:57.937Z</time>
      </trkpt>
      <trkpt lat="48.495970" lon="16.677677">
        <ele>253.183750</ele>
        <time>2020-09-18T08:38:59.891Z</time>
      </trkpt>
      <trkpt lat="48.495844" lon="16.677737">
        <ele>252.979134</ele>
        <time>2020-09-18T08:39:01.908Z</time>
      </trkpt>
      <trkpt lat="48.495715" lon="16.677789">
        <ele>252.772352</ele>
        <time>2020-09-18T08:39:03.920Z</time>
      </trkpt>
      <trkpt lat="48.495584" lon="16.677844">
        <ele>252.561771</ele>
        <time>2020-09-18T08:39:05.915Z</time>
      </trkpt>
      <trkpt lat="48.495451" lon="16.677889">
        <ele>252.350686</ele>
        <time>2020-09-18T08:39:07.919Z</time>
      </trkpt>
      <trkpt lat="48.495317" lon="16.677926">
        <ele>252.139720</ele>
        <time>2020-09-18T08:39:09.896Z</time>
      </trkpt>
      <trkpt lat="48.495181" lon="16.677964">
        <ele>251.925522</ele>
        <time>2020-09-18T08:39:11.906Z</time>
      </trkpt>
      <trkpt lat="48.495046" lon="16.678006">
        <ele>251.726092</ele>
        <time>2020-09-18T08:39:13.902Z</time>
      </trkpt>
      <trkpt lat="48.494913" lon="16.678046">
        <ele>251.587698</ele>
        <time>2020-09-18T08:39:15.902Z</time>
      </trkpt>
      <trkpt lat="48.494781" lon="16.678076">
        <ele>251.451473</ele>
        <time>2020-09-18T08:39:17.909Z</time>
      </trkpt>
      <trkpt lat="48.494647" lon="16.678101">
        <ele>251.313686</ele>
        <time>2020-09-18T08:39:19.910Z</time>
      </trkpt>
      <trkpt lat="48.494513" lon="16.678117">
        <ele>251.176513</ele>
        <time>2020-09-18T08:39:21.921Z</time>
      </trkpt>
      <trkpt lat="48.494383" lon="16.678128">
        <ele>251.043641</ele>
        <time>2020-09-18T08:39:23.914Z</time>
      </trkpt>
      <trkpt lat="48.494253" lon="16.678134">
        <ele>250.910915</ele>
        <time>2020-09-18T08:39:25.930Z</time>
      </trkpt>
      <trkpt lat="48.494123" lon="16.678138">
        <ele>250.778223</ele>
        <time>2020-09-18T08:39:27.928Z</time>
      </trkpt>
      <trkpt lat="48.493991" lon="16.678137">
        <ele>250.643517</ele>
        <time>2020-09-18T08:39:29.902Z</time>
      </trkpt>
      <trkpt lat="48.493853" lon="16.678141">
        <ele>250.502663</ele>
        <time>2020-09-18T08:39:31.888Z</time>
      </trkpt>
      <trkpt lat="48.493712" lon="16.678143">
        <ele>250.358767</ele>
        <time>2020-09-18T08:39:33.900Z</time>
      </trkpt>
      <trkpt lat="48.493566" lon="16.678146">
        <ele>250.209761</ele>
        <time>2020-09-18T08:39:35.903Z</time>
      </trkpt>
      <trkpt lat="48.493421" lon="16.678143">
        <ele>250.061776</ele>
        <time>2020-09-18T08:39:37.899Z</time>
      </trkpt>
      <trkpt lat="48.493275" lon="16.678140">
        <ele>249.912710</ele>
        <time>2020-09-18T08:39:39.914Z</time>
      </trkpt>
      <trkpt lat="48.493128" lon="16.678139">
        <ele>249.760843</ele>
        <time>2020-09-18T08:39:41.936Z</time>
      </trkpt>
      <trkpt lat="48.492980" lon="16.678136">
        <ele>249.607931</ele>
        <time>2020-09-18T08:39:43.907Z</time>
      </trkpt>
      <trkpt lat="48.492836" lon="16.678133">
        <ele>249.459151</ele>
        <time>2020-09-18T08:39:45.888Z</time>
      </trkpt>
      <trkpt lat="48.492692" lon="16.678133">
        <ele>249.310385</ele>
        <time>2020-09-18T08:39:47.895Z</time>
      </trkpt>
      <trkpt lat="48.492547" lon="16.678132">
        <ele>249.160585</ele>
        <time>2020-09-18T08:39:49.910Z</time>
      </trkpt>
      <trkpt lat="48.492405" lon="16.678132">
        <ele>249.013886</ele>
        <time>2020-09-18T08:39:51.914Z</time>
      </trkpt>
      <trkpt lat="48.492266" lon="16.678129">
        <ele>248.870271</ele>
        <time>2020-09-18T08:39:53.912Z</time>
      </trkpt>
      <trkpt lat="48.492126" lon="16.678128">
        <ele>248.725636</ele>
        <time>2020-09-18T08:39:55.938Z</time>
      </trkpt>
      <trkpt lat="48.491987" lon="16.678127">
        <ele>248.582034</ele>
        <time>2020-09-18T08:39:57.910Z</time>
      </trkpt>
      <trkpt lat="48.491847" lon="16.678113">
        <ele>248.437083</ele>
        <time>2020-09-18T08:39:59.922Z</time>
      </trkpt>
      <trkpt lat="48.491706" lon="16.678095">
        <ele>248.290896</ele>
        <time>2020-09-18T08:40:01.889Z</time>
      </trkpt>
      <trkpt lat="48.491568" lon="16.678051">
        <ele>248.145181</ele>
        <time>2020-09-18T08:40:03.893Z</time>
      </trkpt>
      <trkpt lat="48.491430" lon="16.678001">
        <ele>247.996977</ele>
        <time>2020-09-18T08:40:05.898Z</time>
      </trkpt>
      <trkpt lat="48.491291" lon="16.677933">
        <ele>247.842096</ele>
        <time>2020-09-18T08:40:07.883Z</time>
      </trkpt>
      <trkpt lat="48.491157" lon="16.677854">
        <ele>247.689608</ele>
        <time>2020-09-18T08:40:09.897Z</time>
      </trkpt>
      <trkpt lat="48.491034" lon="16.677747">
        <ele>247.539121</ele>
        <time>2020-09-18T08:40:11.897Z</time>
      </trkpt>
      <trkpt lat="48.490912" lon="16.677634">
        <ele>247.387389</ele>
        <time>2020-09-18T08:40:13.912Z</time>
      </trkpt>
      <trkpt lat="48.490787" lon="16.677529">
        <ele>247.235749</ele>
        <time>2020-09-18T08:40:15.927Z</time>
      </trkpt>
      <trkpt lat="48.490664" lon="16.677424">
        <ele>247.085958</ele>
        <time>2020-09-18T08:40:17.891Z</time>
      </trkpt>
      <trkpt lat="48.490541" lon="16.677320">
        <ele>246.936512</ele>
        <time>2020-09-18T08:40:19.930Z</time>
      </trkpt>
      <trkpt lat="48.490419" lon="16.677219">
        <ele>246.789015</ele>
        <time>2020-09-18T08:40:21.912Z</time>
      </trkpt>
      <trkpt lat="48.490297" lon="16.677118">
        <ele>246.641517</ele>
        <time>2020-09-18T08:40:23.896Z</time>
      </trkpt>
      <trkpt lat="48.490173" lon="16.677016">
        <ele>246.491823</ele>
        <time>2020-09-18T08:40:25.913Z</time>
      </trkpt>
      <trkpt lat="48.490048" lon="16.676911">
        <ele>246.340183</ele>
        <time>2020-09-18T08:40:27.901Z</time>
      </trkpt>
      <trkpt lat="48.489921" lon="16.676808">
        <ele>246.187357</ele>
        <time>2020-09-18T08:40:29.910Z</time>
      </trkpt>
      <trkpt lat="48.489794" lon="16.676707">
        <ele>246.026762</ele>
        <time>2020-09-18T08:40:31.896Z</time>
      </trkpt>
      <trkpt lat="48.489667" lon="16.676612">
        <ele>245.865772</ele>
        <time>2020-09-18T08:40:33.925Z</time>
      </trkpt>
      <trkpt lat="48.489537" lon="16.676528">
        <ele>245.705159</ele>
        <time>2020-09-18T08:40:35.932Z</time>
      </trkpt>
      <trkpt lat="48.489407" lon="16.676450">
        <ele>245.546270</ele>
        <time>2020-09-18T08:40:37.906Z</time>
      </trkpt>
      <trkpt lat="48.489280" lon="16.676368">
        <ele>245.389382</ele>
        <time>2020-09-18T08:40:39.912Z</time>
      </trkpt>
      <trkpt lat="48.489151" lon="16.676287">
        <ele>245.230693</ele>
        <time>2020-09-18T08:40:41.932Z</time>
      </trkpt>
      <trkpt lat="48.489023" lon="16.676210">
        <ele>245.074192</ele>
        <time>2020-09-18T08:40:43.902Z</time>
      </trkpt>
      <trkpt lat="48.488895" lon="16.676134">
        <ele>244.917969</ele>
        <time>2020-09-18T08:40:45.915Z</time>
      </trkpt>
      <trkpt lat="48.488771" lon="16.676057">
        <ele>244.765678</ele>
        <time>2020-09-18T08:40:47.917Z</time>
      </trkpt>
      <trkpt lat="48.488647" lon="16.675981">
        <ele>244.613673</ele>
        <time>2020-09-18T08:40:49.909Z</time>
      </trkpt>
      <trkpt lat="48.488524" lon="16.675902">
        <ele>244.461849</ele>
        <time>2020-09-18T08:40:51.893Z</time>
      </trkpt>
      <trkpt lat="48.488401" lon="16.675829">
        <ele>244.311736</ele>
        <time>2020-09-18T08:40:53.915Z</time>
      </trkpt>
      <trkpt lat="48.488283" lon="16.675756">
        <ele>244.166893</ele>
        <time>2020-09-18T08:40:55.895Z</time>
      </trkpt>
      <trkpt lat="48.488167" lon="16.675686">
        <ele>244.037406</ele>
        <time>2020-09-18T08:40:57.907Z</time>
      </trkpt>
      <trkpt lat="48.488055" lon="16.675618">
        <ele>243.920225</ele>
        <time>2020-09-18T08:40:59.901Z</time>
      </trkpt>
      <trkpt lat="48.487944" lon="16.675552">
        <ele>243.804421</ele>
        <time>2020-09-18T08:41:01.938Z</time>
      </trkpt>
      <trkpt lat="48.487836" lon="16.675493">
        <ele>243.692934</ele>
        <time>2020-09-18T08:41:03.914Z</time>
      </trkpt>
      <trkpt lat="48.487728" lon="16.675433">
        <ele>243.581226</ele>
        <time>2020-09-18T08:41:05.902Z</time>
      </trkpt>
      <trkpt lat="48.487619" lon="16.675375">
        <ele>243.469041</ele>
        <time>2020-09-18T08:41:07.929Z</time>
      </trkpt>
      <trkpt lat="48.487506" lon="16.675339">
        <ele>243.356942</ele>
        <time>2020-09-18T08:41:09.902Z</time>
      </trkpt>
      <trkpt lat="48.487388" lon="16.675313">
        <ele>243.241194</ele>
        <time>2020-09-18T08:41:11.909Z</time>
      </trkpt>
      <trkpt lat="48.487267" lon="16.675307">
        <ele>243.123685</ele>
        <time>2020-09-18T08:41:13.887Z</time>
      </trkpt>
      <trkpt lat="48.487147" lon="16.675322">
        <ele>243.006811</ele>
        <time>2020-09-18T08:41:15.919Z</time>
      </trkpt>
      <trkpt lat="48.487034" lon="16.675353">
        <ele>242.895332</ele>
        <time>2020-09-18T08:41:17.898Z</time>
      </trkpt>
      <trkpt lat="48.486924" lon="16.675412">
        <ele>242.782017</ele>
        <time>2020-09-18T08:41:19.891Z</time>
      </trkpt>
      <trkpt lat="48.486819" lon="16.675489">
        <ele>242.668701</ele>
        <time>2020-09-18T08:41:21.887Z</time>
      </trkpt>
      <trkpt lat="48.486723" lon="16.675583">
        <ele>242.557618</ele>
        <time>2020-09-18T08:41:23.895Z</time>
      </trkpt>
      <trkpt lat="48.486634" lon="16.675692">
        <ele>242.446354</ele>
        <time>2020-09-18T08:41:25.893Z</time>
      </trkpt>
      <trkpt lat="48.486548" lon="16.675798">
        <ele>242.339754</ele>
        <time>2020-09-18T08:41:27.905Z</time>
      </trkpt>
      <trkpt lat="48.486470" lon="16.675900">
        <ele>242.244150</ele>
        <time>2020-09-18T08:41:29.903Z</time>
      </trkpt>
      <trkpt lat="48.486386" lon="16.676007">
        <ele>242.142327</ele>
        <time>2020-09-18T08:41:31.897Z</time>
      </trkpt>
      <trkpt lat="48.486298" lon="16.676119">
        <ele>242.035693</ele>
        <time>2020-09-18T08:41:33.903Z</time>
      </trkpt>
      <trkpt lat="48.486216" lon="16.676235">
        <ele>241.931581</ele>
        <time>2020-09-18T08:41:35.916Z</time>
      </trkpt>
      <trkpt lat="48.486136" lon="16.676351">
        <ele>241.828811</ele>
        <time>2020-09-18T08:41:37.921Z</time>
      </trkpt>
      <trkpt lat="48.486063" lon="16.676477">
        <ele>241.726075</ele>
        <time>2020-09-18T08:41:39.945Z</time>
      </trkpt>
      <trkpt lat="48.486007" lon="16.676616">
        <ele>241.626216</ele>
        <time>2020-09-18T08:41:41.903Z</time>
      </trkpt>
      <trkpt lat="48.485968" lon="16.676747">
        <ele>241.538055</ele>
        <time>2020-09-18T08:41:43.922Z</time>
      </trkpt>
      <trkpt lat="48.485932" lon="16.676878">
        <ele>241.450996</ele>
        <time>2020-09-18T08:41:48.899Z</time>
      </trkpt>
      <trkpt lat="48.485858" lon="16.676769">
        <ele>241.355208</ele>
        <time>2020-09-18T08:42:00.891Z</time>
      </trkpt>
      <trkpt lat="48.485784" lon="16.676649">
        <ele>241.254587</ele>
        <time>2020-09-18T08:42:03.887Z</time>
      </trkpt>
      <trkpt lat="48.485710" lon="16.676514">
        <ele>241.147040</ele>
        <time>2020-09-18T08:42:06.897Z</time>
      </trkpt>
      <trkpt lat="48.485631" lon="16.676387">
        <ele>241.040117</ele>
        <time>2020-09-18T08:42:09.920Z</time>
      </trkpt>
      <trkpt lat="48.485554" lon="16.676263">
        <ele>240.935804</ele>
        <time>2020-09-18T08:42:12.888Z</time>
      </trkpt>
      <trkpt lat="48.485493" lon="16.676133">
        <ele>240.838022</ele>
        <time>2020-09-18T08:42:15.897Z</time>
      </trkpt>
      <trkpt lat="48.485453" lon="16.675990">
        <ele>240.742736</ele>
        <time>2020-09-18T08:42:18.908Z</time>
      </trkpt>
      <trkpt lat="48.485404" lon="16.675857">
        <ele>240.631395</ele>
        <time>2020-09-18T08:42:21.894Z</time>
      </trkpt>
      <trkpt lat="48.485333" lon="16.675765">
        <ele>240.513169</ele>
        <time>2020-09-18T08:42:26.897Z</time>
      </trkpt>
      <trkpt lat="48.485425" lon="16.675957">
        <ele>240.314806</ele>
        <time>2020-09-18T08:43:04.910Z</time>
      </trkpt>
      <trkpt lat="48.485480" lon="16.676080">
        <ele>240.190578</ele>
        <time>2020-09-18T08:43:08.897Z</time>
      </trkpt>
      <trkpt lat="48.485523" lon="16.676215">
        <ele>240.065173</ele>
        <time>2020-09-18T08:43:14.906Z</time>
      </trkpt>
      <trkpt lat="48.485428" lon="16.676310">
        <ele>239.921202</ele>
        <time>2020-09-18T08:43:36.914Z</time>
      </trkpt>
      <trkpt lat="48.485318" lon="16.676410">
        <ele>239.758974</ele>
        <time>2020-09-18T08:43:39.914Z</time>
      </trkpt>
      <trkpt lat="48.485238" lon="16.676484">
        <ele>239.640437</ele>
        <time>2020-09-18T08:43:41.893Z</time>
      </trkpt>
      <trkpt lat="48.485167" lon="16.676577">
        <ele>239.521664</ele>
        <time>2020-09-18T08:43:43.909Z</time>
      </trkpt>
      <trkpt lat="48.485110" lon="16.676705">
        <ele>239.392552</ele>
        <time>2020-09-18T08:43:45.890Z</time>
      </trkpt>
      <trkpt lat="48.485066" lon="16.676835">
        <ele>239.270337</ele>
        <time>2020-09-18T08:43:47.906Z</time>
      </trkpt>
      <trkpt lat="48.485030" lon="16.676972">
        <ele>239.146946</ele>
        <time>2020-09-18T08:43:49.918Z</time>
      </trkpt>
      <trkpt lat="48.485006" lon="16.677114">
        <ele>239.024249</ele>
        <time>2020-09-18T08:43:51.897Z</time>
      </trkpt>
      <trkpt lat="48.484989" lon="16.677262">
        <ele>238.898486</ele>
        <time>2020-09-18T08:43:53.892Z</time>
      </trkpt>
      <trkpt lat="48.484962" lon="16.677423">
        <ele>238.759437</ele>
        <time>2020-09-18T08:43:55.903Z</time>
      </trkpt>
      <trkpt lat="48.484911" lon="16.677590">
        <ele>238.605485</ele>
        <time>2020-09-18T08:43:57.883Z</time>
      </trkpt>
      <trkpt lat="48.484859" lon="16.677735">
        <ele>238.467449</ele>
        <time>2020-09-18T08:43:59.899Z</time>
      </trkpt>
      <trkpt lat="48.484825" lon="16.677887">
        <ele>238.420952</ele>
        <time>2020-09-18T08:44:01.885Z</time>
      </trkpt>
      <trkpt lat="48.484780" lon="16.678024">
        <ele>238.413294</ele>
        <time>2020-09-18T08:44:03.899Z</time>
      </trkpt>
      <trkpt lat="48.484742" lon="16.678156">
        <ele>238.406087</ele>
        <time>2020-09-18T08:44:05.907Z</time>
      </trkpt>
      <trkpt lat="48.484716" lon="16.678311">
        <ele>238.398079</ele>
        <time>2020-09-18T08:44:07.893Z</time>
      </trkpt>
      <trkpt lat="48.484698" lon="16.678482">
        <ele>238.389407</ele>
        <time>2020-09-18T08:44:09.941Z</time>
      </trkpt>
      <trkpt lat="48.484702" lon="16.678657">
        <ele>238.380637</ele>
        <time>2020-09-18T08:44:11.888Z</time>
      </trkpt>
      <trkpt lat="48.484730" lon="16.678826">
        <ele>238.371912</ele>
        <time>2020-09-18T08:44:13.905Z</time>
      </trkpt>
      <trkpt lat="48.484752" lon="16.678988">
        <ele>238.363630</ele>
        <time>2020-09-18T08:44:15.911Z</time>
      </trkpt>
      <trkpt lat="48.484756" lon="16.679135">
        <ele>238.356262</ele>
        <time>2020-09-18T08:44:17.908Z</time>
      </trkpt>
      <trkpt lat="48.484756" lon="16.679286">
        <ele>238.348699</ele>
        <time>2020-09-18T08:44:19.910Z</time>
      </trkpt>
      <trkpt lat="48.484733" lon="16.679439">
        <ele>238.340842</ele>
        <time>2020-09-18T08:44:21.889Z</time>
      </trkpt>
      <trkpt lat="48.484694" lon="16.679583">
        <ele>238.333051</ele>
        <time>2020-09-18T08:44:23.896Z</time>
      </trkpt>
      <trkpt lat="48.484659" lon="16.679729">
        <ele>238.325275</ele>
        <time>2020-09-18T08:44:25.888Z</time>
      </trkpt>
      <trkpt lat="48.484620" lon="16.679873">
        <ele>238.317484</ele>
        <time>2020-09-18T08:44:27.893Z</time>
      </trkpt>
      <trkpt lat="48.484587" lon="16.680016">
        <ele>238.309900</ele>
        <time>2020-09-18T08:44:29.899Z</time>
      </trkpt>
      <trkpt lat="48.484547" lon="16.680162">
        <ele>238.301988</ele>
        <time>2020-09-18T08:44:31.934Z</time>
      </trkpt>
      <trkpt lat="48.484506" lon="16.680307">
        <ele>238.294092</ele>
        <time>2020-09-18T08:44:33.911Z</time>
      </trkpt>
      <trkpt lat="48.484464" lon="16.680455">
        <ele>238.300898</ele>
        <time>2020-09-18T08:44:35.917Z</time>
      </trkpt>
      <trkpt lat="48.484426" lon="16.680602">
        <ele>238.318533</ele>
        <time>2020-09-18T08:44:37.930Z</time>
      </trkpt>
      <trkpt lat="48.484395" lon="16.680746">
        <ele>238.335455</ele>
        <time>2020-09-18T08:44:39.889Z</time>
      </trkpt>
      <trkpt lat="48.484368" lon="16.680888">
        <ele>238.351967</ele>
        <time>2020-09-18T08:44:41.901Z</time>
      </trkpt>
      <trkpt lat="48.484371" lon="16.681068">
        <ele>238.372091</ele>
        <time>2020-09-18T08:44:44.899Z</time>
      </trkpt>
      <trkpt lat="48.484471" lon="16.681086">
        <ele>238.389073</ele>
        <time>2020-09-18T08:44:46.906Z</time>
      </trkpt>
      <trkpt lat="48.484566" lon="16.681081">
        <ele>238.405102</ele>
        <time>2020-09-18T08:44:48.915Z</time>
      </trkpt>
      <trkpt lat="48.484684" lon="16.681070">
        <ele>238.425038</ele>
        <time>2020-09-18T08:44:51.898Z</time>
      </trkpt>
      <trkpt lat="48.484812" lon="16.681086">
        <ele>238.446696</ele>
        <time>2020-09-18T08:44:54.893Z</time>
      </trkpt>
      <trkpt lat="48.484933" lon="16.681137">
        <ele>238.467881</ele>
        <time>2020-09-18T08:44:57.898Z</time>
      </trkpt>
      <trkpt lat="48.485026" lon="16.681227">
        <ele>238.486512</ele>
        <time>2020-09-18T08:45:00.890Z</time>
      </trkpt>
      <trkpt lat="48.484985" lon="16.681411">
        <ele>238.508208</ele>
        <time>2020-09-18T08:45:03.888Z</time>
      </trkpt>
      <trkpt lat="48.484934" lon="16.681527">
        <ele>238.523766</ele>
        <time>2020-09-18T08:45:05.894Z</time>
      </trkpt>
      <trkpt lat="48.484883" lon="16.681641">
        <ele>238.539138</ele>
        <time>2020-09-18T08:45:07.889Z</time>
      </trkpt>
      <trkpt lat="48.484809" lon="16.681815">
        <ele>238.562244</ele>
        <time>2020-09-18T08:45:10.908Z</time>
      </trkpt>
      <trkpt lat="48.484765" lon="16.681941">
        <ele>238.578162</ele>
        <time>2020-09-18T08:45:12.902Z</time>
      </trkpt>
      <trkpt lat="48.484708" lon="16.682061">
        <ele>238.595014</ele>
        <time>2020-09-18T08:45:14.930Z</time>
      </trkpt>
      <trkpt lat="48.484573" lon="16.682065">
        <ele>238.628649</ele>
        <time>2020-09-18T08:45:17.892Z</time>
      </trkpt>
      <trkpt lat="48.484475" lon="16.682017">
        <ele>238.654315</ele>
        <time>2020-09-18T08:45:19.890Z</time>
      </trkpt>
      <trkpt lat="48.484371" lon="16.681977">
        <ele>238.681050</ele>
        <time>2020-09-18T08:45:21.898Z</time>
      </trkpt>
      <trkpt lat="48.484265" lon="16.681937">
        <ele>238.708268</ele>
        <time>2020-09-18T08:45:23.892Z</time>
      </trkpt>
      <trkpt lat="48.484162" lon="16.681905">
        <ele>238.734464</ele>
        <time>2020-09-18T08:45:25.888Z</time>
      </trkpt>
      <trkpt lat="48.484053" lon="16.681887">
        <ele>238.761778</ele>
        <time>2020-09-18T08:45:27.913Z</time>
      </trkpt>
      <trkpt lat="48.483953" lon="16.681865">
        <ele>238.786951</ele>
        <time>2020-09-18T08:45:29.908Z</time>
      </trkpt>
      <trkpt lat="48.483855" lon="16.681846">
        <ele>238.811564</ele>
        <time>2020-09-18T08:45:31.915Z</time>
      </trkpt>
      <trkpt lat="48.483756" lon="16.681827">
        <ele>238.836424</ele>
        <time>2020-09-18T08:45:33.933Z</time>
      </trkpt>
      <trkpt lat="48.483659" lon="16.681815">
        <ele>238.860667</ele>
        <time>2020-09-18T08:45:35.891Z</time>
      </trkpt>
      <trkpt lat="48.483563" lon="16.681800">
        <ele>238.884709</ele>
        <time>2020-09-18T08:45:37.930Z</time>
      </trkpt>
      <trkpt lat="48.483460" lon="16.681794">
        <ele>238.910385</ele>
        <time>2020-09-18T08:45:39.893Z</time>
      </trkpt>
      <trkpt lat="48.483360" lon="16.681801">
        <ele>238.935322</ele>
        <time>2020-09-18T08:45:41.894Z</time>
      </trkpt>
      <trkpt lat="48.483263" lon="16.681796">
        <ele>238.959499</ele>
        <time>2020-09-18T08:45:43.917Z</time>
      </trkpt>
      <trkpt lat="48.483171" lon="16.681817">
        <ele>238.982677</ele>
        <time>2020-09-18T08:45:45.908Z</time>
      </trkpt>
      <trkpt lat="48.483142" lon="16.682003">
        <ele>239.014226</ele>
        <time>2020-09-18T08:45:48.903Z</time>
      </trkpt>
      <trkpt lat="48.483153" lon="16.682205">
        <ele>239.045016</ele>
        <time>2020-09-18T08:45:51.897Z</time>
      </trkpt>
      <trkpt lat="48.483159" lon="16.682347">
        <ele>239.057530</ele>
        <time>2020-09-18T08:45:53.900Z</time>
      </trkpt>
      <trkpt lat="48.483160" lon="16.682485">
        <ele>239.069667</ele>
        <time>2020-09-18T08:45:55.903Z</time>
      </trkpt>
      <trkpt lat="48.483171" lon="16.682676">
        <ele>239.086528</ele>
        <time>2020-09-18T08:45:58.900Z</time>
      </trkpt>
      <trkpt lat="48.483183" lon="16.682845">
        <ele>239.101476</ele>
        <time>2020-09-18T08:46:01.905Z</time>
      </trkpt>
      <trkpt lat="48.483180" lon="16.683002">
        <ele>239.115289</ele>
        <time>2020-09-18T08:46:04.919Z</time>
      </trkpt>
      <trkpt lat="48.483164" lon="16.683148">
        <ele>239.128303</ele>
        <time>2020-09-18T08:46:07.902Z</time>
      </trkpt>
      <trkpt lat="48.483155" lon="16.683288">
        <ele>239.140674</ele>
        <time>2020-09-18T08:46:10.911Z</time>
      </trkpt>
      <trkpt lat="48.483137" lon="16.683447">
        <ele>239.154859</ele>
        <time>2020-09-18T08:46:13.911Z</time>
      </trkpt>
      <trkpt lat="48.483117" lon="16.683645">
        <ele>239.172474</ele>
        <time>2020-09-18T08:46:16.900Z</time>
      </trkpt>
      <trkpt lat="48.483098" lon="16.683790">
        <ele>239.185473</ele>
        <time>2020-09-18T08:46:18.903Z</time>
      </trkpt>
      <trkpt lat="48.483081" lon="16.683927">
        <ele>239.197730</ele>
        <time>2020-09-18T08:46:20.906Z</time>
      </trkpt>
      <trkpt lat="48.483071" lon="16.684072">
        <ele>239.210551</ele>
        <time>2020-09-18T08:46:22.909Z</time>
      </trkpt>
      <trkpt lat="48.483063" lon="16.684208">
        <ele>239.222559</ele>
        <time>2020-09-18T08:46:24.904Z</time>
      </trkpt>
      <trkpt lat="48.483050" lon="16.684343">
        <ele>239.234556</ele>
        <time>2020-09-18T08:46:26.902Z</time>
      </trkpt>
      <trkpt lat="48.483036" lon="16.684536">
        <ele>239.251631</ele>
        <time>2020-09-18T08:46:29.902Z</time>
      </trkpt>
      <trkpt lat="48.483021" lon="16.684722">
        <ele>239.268110</ele>
        <time>2020-09-18T08:46:32.917Z</time>
      </trkpt>
      <trkpt lat="48.483003" lon="16.684900">
        <ele>239.255457</ele>
        <time>2020-09-18T08:46:35.894Z</time>
      </trkpt>
      <trkpt lat="48.482981" lon="16.685035">
        <ele>239.163216</ele>
        <time>2020-09-18T08:46:37.885Z</time>
      </trkpt>
      <trkpt lat="48.482959" lon="16.685180">
        <ele>239.064518</ele>
        <time>2020-09-18T08:46:39.903Z</time>
      </trkpt>
      <trkpt lat="48.482933" lon="16.685335">
        <ele>238.958432</ele>
        <time>2020-09-18T08:46:41.886Z</time>
      </trkpt>
      <trkpt lat="48.482900" lon="16.685501">
        <ele>238.843442</ele>
        <time>2020-09-18T08:46:43.920Z</time>
      </trkpt>
      <trkpt lat="48.482865" lon="16.685635">
        <ele>238.747877</ele>
        <time>2020-09-18T08:46:45.895Z</time>
      </trkpt>
      <trkpt lat="48.482893" lon="16.685766">
        <ele>238.656550</ele>
        <time>2020-09-18T08:46:47.893Z</time>
      </trkpt>
      <trkpt lat="48.482990" lon="16.685863">
        <ele>238.540058</ele>
        <time>2020-09-18T08:46:49.908Z</time>
      </trkpt>
      <trkpt lat="48.483101" lon="16.685984">
        <ele>238.402976</ele>
        <time>2020-09-18T08:46:51.887Z</time>
      </trkpt>
      <trkpt lat="48.483183" lon="16.686133">
        <ele>238.274479</ele>
        <time>2020-09-18T08:46:53.893Z</time>
      </trkpt>
      <trkpt lat="48.483284" lon="16.686220">
        <ele>238.158058</ele>
        <time>2020-09-18T08:46:55.910Z</time>
      </trkpt>
      <trkpt lat="48.483391" lon="16.686270">
        <ele>238.045930</ele>
        <time>2020-09-18T08:46:57.888Z</time>
      </trkpt>
      <trkpt lat="48.483495" lon="16.686338">
        <ele>237.932469</ele>
        <time>2020-09-18T08:46:59.921Z</time>
      </trkpt>
      <trkpt lat="48.483530" lon="16.686481">
        <ele>237.831326</ele>
        <time>2020-09-18T08:47:01.911Z</time>
      </trkpt>
      <trkpt lat="48.483543" lon="16.686640">
        <ele>237.725029</ele>
        <time>2020-09-18T08:47:03.917Z</time>
      </trkpt>
      <trkpt lat="48.483548" lon="16.686800">
        <ele>237.618751</ele>
        <time>2020-09-18T08:47:05.911Z</time>
      </trkpt>
      <trkpt lat="48.483569" lon="16.686955">
        <ele>237.513781</ele>
        <time>2020-09-18T08:47:07.890Z</time>
      </trkpt>
      <trkpt lat="48.483592" lon="16.687105">
        <ele>237.400671</ele>
        <time>2020-09-18T08:47:09.911Z</time>
      </trkpt>
      <trkpt lat="48.483613" lon="16.687256">
        <ele>237.281934</ele>
        <time>2020-09-18T08:47:11.883Z</time>
      </trkpt>
      <trkpt lat="48.483638" lon="16.687413">
        <ele>237.157671</ele>
        <time>2020-09-18T08:47:13.901Z</time>
      </trkpt>
      <trkpt lat="48.483663" lon="16.687567">
        <ele>237.035653</ele>
        <time>2020-09-18T08:47:15.901Z</time>
      </trkpt>
      <trkpt lat="48.483683" lon="16.687718">
        <ele>236.917148</ele>
        <time>2020-09-18T08:47:17.916Z</time>
      </trkpt>
      <trkpt lat="48.483702" lon="16.687868">
        <ele>236.799622</ele>
        <time>2020-09-18T08:47:19.931Z</time>
      </trkpt>
      <trkpt lat="48.483722" lon="16.688015">
        <ele>236.684135</ele>
        <time>2020-09-18T08:47:21.904Z</time>
      </trkpt>
      <trkpt lat="48.483745" lon="16.688158">
        <ele>236.570891</ele>
        <time>2020-09-18T08:47:23.898Z</time>
      </trkpt>
      <trkpt lat="48.483764" lon="16.688302">
        <ele>236.457897</ele>
        <time>2020-09-18T08:47:25.896Z</time>
      </trkpt>
      <trkpt lat="48.483785" lon="16.688445">
        <ele>236.345178</ele>
        <time>2020-09-18T08:47:27.892Z</time>
      </trkpt>
      <trkpt lat="48.483801" lon="16.688591">
        <ele>236.231294</ele>
        <time>2020-09-18T08:47:29.894Z</time>
      </trkpt>
      <trkpt lat="48.483822" lon="16.688746">
        <ele>236.109542</ele>
        <time>2020-09-18T08:47:31.905Z</time>
      </trkpt>
      <trkpt lat="48.483840" lon="16.688902">
        <ele>235.987682</ele>
        <time>2020-09-18T08:47:33.913Z</time>
      </trkpt>
      <trkpt lat="48.483869" lon="16.689059">
        <ele>235.862254</ele>
        <time>2020-09-18T08:47:35.917Z</time>
      </trkpt>
      <trkpt lat="48.483898" lon="16.689218">
        <ele>235.735343</ele>
        <time>2020-09-18T08:47:37.891Z</time>
      </trkpt>
      <trkpt lat="48.483922" lon="16.689385">
        <ele>235.603837</ele>
        <time>2020-09-18T08:47:39.908Z</time>
      </trkpt>
      <trkpt lat="48.483946" lon="16.689550">
        <ele>235.473835</ele>
        <time>2020-09-18T08:47:41.945Z</time>
      </trkpt>
      <trkpt lat="48.483966" lon="16.689714">
        <ele>235.384664</ele>
        <time>2020-09-18T08:47:43.931Z</time>
      </trkpt>
      <trkpt lat="48.483986" lon="16.689876">
        <ele>235.365030</ele>
        <time>2020-09-18T08:47:45.901Z</time>
      </trkpt>
      <trkpt lat="48.484005" lon="16.690035">
        <ele>235.345780</ele>
        <time>2020-09-18T08:47:47.894Z</time>
      </trkpt>
      <trkpt lat="48.484025" lon="16.690196">
        <ele>235.326263</ele>
        <time>2020-09-18T08:47:49.902Z</time>
      </trkpt>
      <trkpt lat="48.484046" lon="16.690357">
        <ele>235.306713</ele>
        <time>2020-09-18T08:47:51.892Z</time>
      </trkpt>
      <trkpt lat="48.484067" lon="16.690516">
        <ele>235.287396</ele>
        <time>2020-09-18T08:47:53.914Z</time>
      </trkpt>
      <trkpt lat="48.484080" lon="16.690673">
        <ele>235.268544</ele>
        <time>2020-09-18T08:47:55.904Z</time>
      </trkpt>
      <trkpt lat="48.484091" lon="16.690827">
        <ele>235.250089</ele>
        <time>2020-09-18T08:47:57.907Z</time>
      </trkpt>
      <trkpt lat="48.484098" lon="16.690977">
        <ele>235.232173</ele>
        <time>2020-09-18T08:47:59.900Z</time>
      </trkpt>
      <trkpt lat="48.484105" lon="16.691124">
        <ele>235.214613</ele>
        <time>2020-09-18T08:48:01.914Z</time>
      </trkpt>
      <trkpt lat="48.484104" lon="16.691265">
        <ele>235.197812</ele>
        <time>2020-09-18T08:48:03.912Z</time>
      </trkpt>
      <trkpt lat="48.484110" lon="16.691414">
        <ele>235.180026</ele>
        <time>2020-09-18T08:48:05.904Z</time>
      </trkpt>
      <trkpt lat="48.484118" lon="16.691562">
        <ele>235.162334</ele>
        <time>2020-09-18T08:48:07.897Z</time>
      </trkpt>
      <trkpt lat="48.484119" lon="16.691711">
        <ele>235.144580</ele>
        <time>2020-09-18T08:48:09.897Z</time>
      </trkpt>
      <trkpt lat="48.484111" lon="16.691866">
        <ele>235.126056</ele>
        <time>2020-09-18T08:48:11.915Z</time>
      </trkpt>
      <trkpt lat="48.484096" lon="16.692012">
        <ele>235.108453</ele>
        <time>2020-09-18T08:48:13.891Z</time>
      </trkpt>
      <trkpt lat="48.484070" lon="16.692157">
        <ele>235.090556</ele>
        <time>2020-09-18T08:48:15.921Z</time>
      </trkpt>
      <trkpt lat="48.484047" lon="16.692310">
        <ele>235.071863</ele>
        <time>2020-09-18T08:48:17.928Z</time>
      </trkpt>
      <trkpt lat="48.484023" lon="16.692459">
        <ele>235.066274</ele>
        <time>2020-09-18T08:48:19.912Z</time>
      </trkpt>
      <trkpt lat="48.483995" lon="16.692603">
        <ele>235.063585</ele>
        <time>2020-09-18T08:48:21.903Z</time>
      </trkpt>
      <trkpt lat="48.483966" lon="16.692749">
        <ele>235.060853</ele>
        <time>2020-09-18T08:48:23.890Z</time>
      </trkpt>
      <trkpt lat="48.483937" lon="16.692895">
        <ele>235.058122</ele>
        <time>2020-09-18T08:48:25.903Z</time>
      </trkpt>
      <trkpt lat="48.483904" lon="16.693036">
        <ele>235.055442</ele>
        <time>2020-09-18T08:48:27.904Z</time>
      </trkpt>
      <trkpt lat="48.483874" lon="16.693180">
        <ele>235.052737</ele>
        <time>2020-09-18T08:48:29.901Z</time>
      </trkpt>
      <trkpt lat="48.483840" lon="16.693323">
        <ele>235.050015</ele>
        <time>2020-09-18T08:48:31.917Z</time>
      </trkpt>
      <trkpt lat="48.483819" lon="16.693471">
        <ele>235.047302</ele>
        <time>2020-09-18T08:48:33.910Z</time>
      </trkpt>
      <trkpt lat="48.483794" lon="16.693614">
        <ele>235.044652</ele>
        <time>2020-09-18T08:48:35.910Z</time>
      </trkpt>
      <trkpt lat="48.483765" lon="16.693760">
        <ele>235.041920</ele>
        <time>2020-09-18T08:48:37.925Z</time>
      </trkpt>
      <trkpt lat="48.483726" lon="16.693896">
        <ele>235.039265</ele>
        <time>2020-09-18T08:48:39.900Z</time>
      </trkpt>
      <trkpt lat="48.483687" lon="16.694032">
        <ele>235.036609</ele>
        <time>2020-09-18T08:48:41.920Z</time>
      </trkpt>
      <trkpt lat="48.483650" lon="16.694172">
        <ele>235.033908</ele>
        <time>2020-09-18T08:48:43.911Z</time>
      </trkpt>
      <trkpt lat="48.483612" lon="16.694316">
        <ele>235.031130</ele>
        <time>2020-09-18T08:48:45.924Z</time>
      </trkpt>
      <trkpt lat="48.483591" lon="16.694469">
        <ele>235.028330</ele>
        <time>2020-09-18T08:48:47.894Z</time>
      </trkpt>
      <trkpt lat="48.483559" lon="16.694619">
        <ele>235.025506</ele>
        <time>2020-09-18T08:48:49.893Z</time>
      </trkpt>
      <trkpt lat="48.483521" lon="16.694770">
        <ele>235.022612</ele>
        <time>2020-09-18T08:48:51.901Z</time>
      </trkpt>
      <trkpt lat="48.483476" lon="16.694913">
        <ele>235.019712</ele>
        <time>2020-09-18T08:48:53.891Z</time>
      </trkpt>
      <trkpt lat="48.483435" lon="16.695064">
        <ele>235.015179</ele>
        <time>2020-09-18T08:48:55.886Z</time>
      </trkpt>
      <trkpt lat="48.483392" lon="16.695215">
        <ele>235.010613</ele>
        <time>2020-09-18T08:48:57.898Z</time>
      </trkpt>
      <trkpt lat="48.483353" lon="16.695362">
        <ele>235.006214</ele>
        <time>2020-09-18T08:48:59.914Z</time>
      </trkpt>
      <trkpt lat="48.483308" lon="16.695512">
        <ele>235.001639</ele>
        <time>2020-09-18T08:49:01.908Z</time>
      </trkpt>
      <trkpt lat="48.483260" lon="16.695652">
        <ele>234.997260</ele>
        <time>2020-09-18T08:49:03.888Z</time>
      </trkpt>
      <trkpt lat="48.483212" lon="16.695792">
        <ele>234.992881</ele>
        <time>2020-09-18T08:49:05.917Z</time>
      </trkpt>
      <trkpt lat="48.483169" lon="16.695936">
        <ele>234.988493</ele>
        <time>2020-09-18T08:49:07.917Z</time>
      </trkpt>
      <trkpt lat="48.483123" lon="16.696075">
        <ele>234.984177</ele>
        <time>2020-09-18T08:49:09.897Z</time>
      </trkpt>
      <trkpt lat="48.483073" lon="16.696206">
        <ele>234.979977</ele>
        <time>2020-09-18T08:49:11.904Z</time>
      </trkpt>
      <trkpt lat="48.483017" lon="16.696332">
        <ele>234.975763</ele>
        <time>2020-09-18T08:49:13.893Z</time>
      </trkpt>
      <trkpt lat="48.482962" lon="16.696458">
        <ele>234.971571</ele>
        <time>2020-09-18T08:49:15.903Z</time>
      </trkpt>
      <trkpt lat="48.482918" lon="16.696591">
        <ele>234.967441</ele>
        <time>2020-09-18T08:49:17.913Z</time>
      </trkpt>
      <trkpt lat="48.482868" lon="16.696718">
        <ele>234.963338</ele>
        <time>2020-09-18T08:49:19.913Z</time>
      </trkpt>
      <trkpt lat="48.482820" lon="16.696851">
        <ele>234.959130</ele>
        <time>2020-09-18T08:49:21.909Z</time>
      </trkpt>
      <trkpt lat="48.482771" lon="16.696987">
        <ele>234.954830</ele>
        <time>2020-09-18T08:49:23.922Z</time>
      </trkpt>
      <trkpt lat="48.482724" lon="16.697121">
        <ele>234.950618</ele>
        <time>2020-09-18T08:49:25.919Z</time>
      </trkpt>
      <trkpt lat="48.482686" lon="16.697261">
        <ele>234.946415</ele>
        <time>2020-09-18T08:49:27.920Z</time>
      </trkpt>
      <trkpt lat="48.482651" lon="16.697400">
        <ele>234.929887</ele>
        <time>2020-09-18T08:49:29.903Z</time>
      </trkpt>
      <trkpt lat="48.482615" lon="16.697541">
        <ele>234.902209</ele>
        <time>2020-09-18T08:49:31.895Z</time>
      </trkpt>
      <trkpt lat="48.482579" lon="16.697688">
        <ele>234.873503</ele>
        <time>2020-09-18T08:49:33.902Z</time>
      </trkpt>
      <trkpt lat="48.482543" lon="16.697838">
        <ele>234.844281</ele>
        <time>2020-09-18T08:49:35.897Z</time>
      </trkpt>
      <trkpt lat="48.482500" lon="16.697988">
        <ele>234.814346</ele>
        <time>2020-09-18T08:49:37.881Z</time>
      </trkpt>
      <trkpt lat="48.482445" lon="16.698130">
        <ele>234.784220</ele>
        <time>2020-09-18T08:49:39.904Z</time>
      </trkpt>
      <trkpt lat="48.482380" lon="16.698256">
        <ele>234.754973</ele>
        <time>2020-09-18T08:49:41.892Z</time>
      </trkpt>
      <trkpt lat="48.482309" lon="16.698369">
        <ele>234.726453</ele>
        <time>2020-09-18T08:49:43.893Z</time>
      </trkpt>
      <trkpt lat="48.482243" lon="16.698492">
        <ele>234.697465</ele>
        <time>2020-09-18T08:49:45.928Z</time>
      </trkpt>
      <trkpt lat="48.482174" lon="16.698619">
        <ele>234.667386</ele>
        <time>2020-09-18T08:49:47.916Z</time>
      </trkpt>
      <trkpt lat="48.482100" lon="16.698740">
        <ele>234.637229</ele>
        <time>2020-09-18T08:49:49.892Z</time>
      </trkpt>
      <trkpt lat="48.482015" lon="16.698854">
        <ele>234.605799</ele>
        <time>2020-09-18T08:49:51.929Z</time>
      </trkpt>
      <trkpt lat="48.481931" lon="16.698963">
        <ele>234.575180</ele>
        <time>2020-09-18T08:49:53.910Z</time>
      </trkpt>
      <trkpt lat="48.481842" lon="16.699066">
        <ele>234.544182</ele>
        <time>2020-09-18T08:49:55.909Z</time>
      </trkpt>
      <trkpt lat="48.481754" lon="16.699179">
        <ele>234.512247</ele>
        <time>2020-09-18T08:49:57.909Z</time>
      </trkpt>
      <trkpt lat="48.481666" lon="16.699292">
        <ele>234.480312</ele>
        <time>2020-09-18T08:49:59.931Z</time>
      </trkpt>
      <trkpt lat="48.481586" lon="16.699416">
        <ele>234.448616</ele>
        <time>2020-09-18T08:50:01.933Z</time>
      </trkpt>
      <trkpt lat="48.481504" lon="16.699543">
        <ele>234.360073</ele>
        <time>2020-09-18T08:50:03.917Z</time>
      </trkpt>
      <trkpt lat="48.481418" lon="16.699674">
        <ele>234.265827</ele>
        <time>2020-09-18T08:50:05.891Z</time>
      </trkpt>
      <trkpt lat="48.481335" lon="16.699810">
        <ele>234.171330</ele>
        <time>2020-09-18T08:50:07.907Z</time>
      </trkpt>
      <trkpt lat="48.481264" lon="16.699962">
        <ele>234.076279</ele>
        <time>2020-09-18T08:50:09.908Z</time>
      </trkpt>
      <trkpt lat="48.481217" lon="16.700127">
        <ele>233.984478</ele>
        <time>2020-09-18T08:50:11.904Z</time>
      </trkpt>
      <trkpt lat="48.481172" lon="16.700288">
        <ele>233.895162</ele>
        <time>2020-09-18T08:50:13.931Z</time>
      </trkpt>
      <trkpt lat="48.481137" lon="16.700450">
        <ele>233.808065</ele>
        <time>2020-09-18T08:50:15.897Z</time>
      </trkpt>
      <trkpt lat="48.481103" lon="16.700619">
        <ele>233.717785</ele>
        <time>2020-09-18T08:50:17.918Z</time>
      </trkpt>
      <trkpt lat="48.481073" lon="16.700786">
        <ele>233.629340</ele>
        <time>2020-09-18T08:50:19.885Z</time>
      </trkpt>
      <trkpt lat="48.481033" lon="16.700942">
        <ele>233.543839</ele>
        <time>2020-09-18T08:50:21.900Z</time>
      </trkpt>
      <trkpt lat="48.480994" lon="16.701097">
        <ele>233.459091</ele>
        <time>2020-09-18T08:50:23.904Z</time>
      </trkpt>
      <trkpt lat="48.480958" lon="16.701253">
        <ele>233.374654</ele>
        <time>2020-09-18T08:50:25.914Z</time>
      </trkpt>
      <trkpt lat="48.480914" lon="16.701404">
        <ele>233.290338</ele>
        <time>2020-09-18T08:50:27.921Z</time>
      </trkpt>
      <trkpt lat="48.480868" lon="16.701562">
        <ele>233.202125</ele>
        <time>2020-09-18T08:50:29.909Z</time>
      </trkpt>
      <trkpt lat="48.480835" lon="16.701733">
        <ele>233.111085</ele>
        <time>2020-09-18T08:50:31.899Z</time>
      </trkpt>
      <trkpt lat="48.480778" lon="16.701860">
        <ele>233.049031</ele>
        <time>2020-09-18T08:50:33.925Z</time>
      </trkpt>
      <trkpt lat="48.480679" lon="16.701812">
        <ele>233.016102</ele>
        <time>2020-09-18T08:50:35.886Z</time>
      </trkpt>
      <trkpt lat="48.480583" lon="16.701824">
        <ele>232.985598</ele>
        <time>2020-09-18T08:50:37.898Z</time>
      </trkpt>
      <trkpt lat="48.480507" lon="16.701943">
        <ele>232.950912</ele>
        <time>2020-09-18T08:50:39.909Z</time>
      </trkpt>
      <trkpt lat="48.480450" lon="16.702102">
        <ele>232.912969</ele>
        <time>2020-09-18T08:50:41.889Z</time>
      </trkpt>
      <trkpt lat="48.480389" lon="16.702258">
        <ele>232.874950</ele>
        <time>2020-09-18T08:50:43.906Z</time>
      </trkpt>
      <trkpt lat="48.480330" lon="16.702419">
        <ele>232.836334</ele>
        <time>2020-09-18T08:50:45.914Z</time>
      </trkpt>
      <trkpt lat="48.480275" lon="16.702579">
        <ele>232.798502</ele>
        <time>2020-09-18T08:50:47.899Z</time>
      </trkpt>
      <trkpt lat="48.480225" lon="16.702731">
        <ele>232.762883</ele>
        <time>2020-09-18T08:50:49.903Z</time>
      </trkpt>
      <trkpt lat="48.480172" lon="16.702876">
        <ele>232.728126</ele>
        <time>2020-09-18T08:50:51.903Z</time>
      </trkpt>
      <trkpt lat="48.480120" lon="16.703010">
        <ele>232.695533</ele>
        <time>2020-09-18T08:50:53.893Z</time>
      </trkpt>
      <trkpt lat="48.480065" lon="16.703132">
        <ele>232.664563</ele>
        <time>2020-09-18T08:50:55.903Z</time>
      </trkpt>
      <trkpt lat="48.480000" lon="16.703246">
        <ele>232.632999</ele>
        <time>2020-09-18T08:50:57.905Z</time>
      </trkpt>
      <trkpt lat="48.479927" lon="16.703339">
        <ele>232.602742</ele>
        <time>2020-09-18T08:50:59.903Z</time>
      </trkpt>
      <trkpt lat="48.479852" lon="16.703418">
        <ele>232.573776</ele>
        <time>2020-09-18T08:51:01.899Z</time>
      </trkpt>
      <trkpt lat="48.479752" lon="16.703527">
        <ele>232.534708</ele>
        <time>2020-09-18T08:51:04.953Z</time>
      </trkpt>
      <trkpt lat="48.479672" lon="16.703619">
        <ele>232.502854</ele>
        <time>2020-09-18T08:51:07.899Z</time>
      </trkpt>
      <trkpt lat="48.479610" lon="16.703725">
        <ele>232.534783</ele>
        <time>2020-09-18T08:51:10.917Z</time>
      </trkpt>
      <trkpt lat="48.479543" lon="16.703845">
        <ele>232.616617</ele>
        <time>2020-09-18T08:51:13.892Z</time>
      </trkpt>
      <trkpt lat="48.479484" lon="16.703971">
        <ele>232.697081</ele>
        <time>2020-09-18T08:51:16.904Z</time>
      </trkpt>
      <trkpt lat="48.479423" lon="16.704095">
        <ele>232.777622</ele>
        <time>2020-09-18T08:51:19.914Z</time>
      </trkpt>
      <trkpt lat="48.479361" lon="16.704235">
        <ele>232.865442</ele>
        <time>2020-09-18T08:51:22.905Z</time>
      </trkpt>
      <trkpt lat="48.479305" lon="16.704387">
        <ele>232.956146</ele>
        <time>2020-09-18T08:51:25.930Z</time>
      </trkpt>
      <trkpt lat="48.479250" lon="16.704536">
        <ele>233.045100</ele>
        <time>2020-09-18T08:51:28.911Z</time>
      </trkpt>
      <trkpt lat="48.479195" lon="16.704684">
        <ele>233.133599</ele>
        <time>2020-09-18T08:51:31.895Z</time>
      </trkpt>
      <trkpt lat="48.479145" lon="16.704832">
        <ele>233.220242</ele>
        <time>2020-09-18T08:51:34.908Z</time>
      </trkpt>
      <trkpt lat="48.479101" lon="16.704981">
        <ele>233.305323</ele>
        <time>2020-09-18T08:51:37.906Z</time>
      </trkpt>
      <trkpt lat="48.479055" lon="16.705131">
        <ele>233.391529</ele>
        <time>2020-09-18T08:51:40.921Z</time>
      </trkpt>
      <trkpt lat="48.479005" lon="16.705279">
        <ele>233.478172</ele>
        <time>2020-09-18T08:51:43.897Z</time>
      </trkpt>
      <trkpt lat="48.478953" lon="16.705421">
        <ele>233.562789</ele>
        <time>2020-09-18T08:51:46.902Z</time>
      </trkpt>
      <trkpt lat="48.478907" lon="16.705567">
        <ele>233.647106</ele>
        <time>2020-09-18T08:51:49.924Z</time>
      </trkpt>
      <trkpt lat="48.478862" lon="16.705718">
        <ele>233.733460</ele>
        <time>2020-09-18T08:51:52.919Z</time>
      </trkpt>
      <trkpt lat="48.478824" lon="16.705865">
        <ele>233.815759</ele>
        <time>2020-09-18T08:51:55.921Z</time>
      </trkpt>
      <trkpt lat="48.478791" lon="16.706015">
        <ele>233.898195</ele>
        <time>2020-09-18T08:51:58.923Z</time>
      </trkpt>
      <trkpt lat="48.478755" lon="16.706170">
        <ele>233.930948</ele>
        <time>2020-09-18T08:52:01.932Z</time>
      </trkpt>
      <trkpt lat="48.478738" lon="16.706312">
        <ele>233.954989</ele>
        <time>2020-09-18T08:52:04.902Z</time>
      </trkpt>
      <trkpt lat="48.478744" lon="16.706470">
        <ele>233.981356</ele>
        <time>2020-09-18T08:52:07.898Z</time>
      </trkpt>
      <trkpt lat="48.478715" lon="16.706635">
        <ele>234.009796</ele>
        <time>2020-09-18T08:52:10.931Z</time>
      </trkpt>
      <trkpt lat="48.478658" lon="16.706782">
        <ele>234.038170</ele>
        <time>2020-09-18T08:52:13.892Z</time>
      </trkpt>
      <trkpt lat="48.478574" lon="16.706934">
        <ele>234.071140</ele>
        <time>2020-09-18T08:52:16.919Z</time>
      </trkpt>
      <trkpt lat="48.478511" lon="16.707037">
        <ele>234.094490</ele>
        <time>2020-09-18T08:52:18.917Z</time>
      </trkpt>
      <trkpt lat="48.478450" lon="16.707140">
        <ele>234.117502</ele>
        <time>2020-09-18T08:52:20.898Z</time>
      </trkpt>
      <trkpt lat="48.478390" lon="16.707249">
        <ele>234.141107</ele>
        <time>2020-09-18T08:52:22.917Z</time>
      </trkpt>
      <trkpt lat="48.478333" lon="16.707362">
        <ele>234.164765</ele>
        <time>2020-09-18T08:52:24.896Z</time>
      </trkpt>
      <trkpt lat="48.478273" lon="16.707472">
        <ele>234.188498</ele>
        <time>2020-09-18T08:52:26.902Z</time>
      </trkpt>
      <trkpt lat="48.478174" lon="16.707609">
        <ele>234.222264</ele>
        <time>2020-09-18T08:52:29.888Z</time>
      </trkpt>
      <trkpt lat="48.478101" lon="16.707690">
        <ele>234.245040</ele>
        <time>2020-09-18T08:52:31.880Z</time>
      </trkpt>
      <trkpt lat="48.478003" lon="16.707806">
        <ele>234.276348</ele>
        <time>2020-09-18T08:52:34.904Z</time>
      </trkpt>
      <trkpt lat="48.477914" lon="16.707916">
        <ele>234.305266</ele>
        <time>2020-09-18T08:52:37.928Z</time>
      </trkpt>
      <trkpt lat="48.477820" lon="16.708034">
        <ele>234.336002</ele>
        <time>2020-09-18T08:52:40.908Z</time>
      </trkpt>
      <trkpt lat="48.477751" lon="16.708130">
        <ele>234.356598</ele>
        <time>2020-09-18T08:52:42.899Z</time>
      </trkpt>
      <trkpt lat="48.477684" lon="16.708234">
        <ele>234.329813</ele>
        <time>2020-09-18T08:52:44.885Z</time>
      </trkpt>
      <trkpt lat="48.477614" lon="16.708337">
        <ele>234.302568</ele>
        <time>2020-09-18T08:52:46.891Z</time>
      </trkpt>
      <trkpt lat="48.477547" lon="16.708460">
        <ele>234.273164</ele>
        <time>2020-09-18T08:52:48.914Z</time>
      </trkpt>
      <trkpt lat="48.477463" lon="16.708555">
        <ele>234.243913</ele>
        <time>2020-09-18T08:52:50.920Z</time>
      </trkpt>
      <trkpt lat="48.477361" lon="16.708636">
        <ele>234.211797</ele>
        <time>2020-09-18T08:52:52.915Z</time>
      </trkpt>
      <trkpt lat="48.477267" lon="16.708743">
        <ele>234.178987</ele>
        <time>2020-09-18T08:52:54.898Z</time>
      </trkpt>
      <trkpt lat="48.477187" lon="16.708889">
        <ele>234.144001</ele>
        <time>2020-09-18T08:52:56.922Z</time>
      </trkpt>
      <trkpt lat="48.477126" lon="16.709006">
        <ele>234.116508</ele>
        <time>2020-09-18T08:52:58.905Z</time>
      </trkpt>
      <trkpt lat="48.477066" lon="16.709116">
        <ele>234.090198</ele>
        <time>2020-09-18T08:53:00.906Z</time>
      </trkpt>
      <trkpt lat="48.476988" lon="16.709277">
        <ele>234.053366</ele>
        <time>2020-09-18T08:53:03.934Z</time>
      </trkpt>
      <trkpt lat="48.476936" lon="16.709400">
        <ele>234.026421</ele>
        <time>2020-09-18T08:53:05.914Z</time>
      </trkpt>
      <trkpt lat="48.476887" lon="16.709547">
        <ele>233.996031</ele>
        <time>2020-09-18T08:53:07.938Z</time>
      </trkpt>
      <trkpt lat="48.476834" lon="16.709704">
        <ele>233.963489</ele>
        <time>2020-09-18T08:53:09.915Z</time>
      </trkpt>
      <trkpt lat="48.476776" lon="16.709862">
        <ele>233.930131</ele>
        <time>2020-09-18T08:53:11.901Z</time>
      </trkpt>
      <trkpt lat="48.476716" lon="16.710052">
        <ele>233.891259</ele>
        <time>2020-09-18T08:53:13.894Z</time>
      </trkpt>
      <trkpt lat="48.476658" lon="16.710224">
        <ele>233.854996</ele>
        <time>2020-09-18T08:53:15.945Z</time>
      </trkpt>
      <trkpt lat="48.476598" lon="16.710393">
        <ele>233.804124</ele>
        <time>2020-09-18T08:53:17.912Z</time>
      </trkpt>
      <trkpt lat="48.476542" lon="16.710553">
        <ele>233.756112</ele>
        <time>2020-09-18T08:53:19.908Z</time>
      </trkpt>
      <trkpt lat="48.476487" lon="16.710708">
        <ele>233.709460</ele>
        <time>2020-09-18T08:53:21.897Z</time>
      </trkpt>
      <trkpt lat="48.476421" lon="16.710846">
        <ele>233.664305</ele>
        <time>2020-09-18T08:53:23.906Z</time>
      </trkpt>
      <trkpt lat="48.476350" lon="16.711025">
        <ele>233.608952</ele>
        <time>2020-09-18T08:53:25.918Z</time>
      </trkpt>
      <trkpt lat="48.476325" lon="16.711288">
        <ele>233.538448</ele>
        <time>2020-09-18T08:53:27.895Z</time>
      </trkpt>
      <trkpt lat="48.476327" lon="16.711429">
        <ele>233.501024</ele>
        <time>2020-09-18T08:53:28.897Z</time>
      </trkpt>
      <trkpt lat="48.476334" lon="16.711575">
        <ele>233.462180</ele>
        <time>2020-09-18T08:53:29.925Z</time>
      </trkpt>
      <trkpt lat="48.476343" lon="16.711721">
        <ele>233.423270</ele>
        <time>2020-09-18T08:53:30.894Z</time>
      </trkpt>
      <trkpt lat="48.476340" lon="16.711866">
        <ele>233.384774</ele>
        <time>2020-09-18T08:53:31.919Z</time>
      </trkpt>
      <trkpt lat="48.476329" lon="16.712013">
        <ele>233.345518</ele>
        <time>2020-09-18T08:53:32.910Z</time>
      </trkpt>
      <trkpt lat="48.476311" lon="16.712165">
        <ele>233.304545</ele>
        <time>2020-09-18T08:53:33.903Z</time>
      </trkpt>
      <trkpt lat="48.476295" lon="16.712307">
        <ele>233.266323</ele>
        <time>2020-09-18T08:53:34.922Z</time>
      </trkpt>
      <trkpt lat="48.476273" lon="16.712442">
        <ele>233.229433</ele>
        <time>2020-09-18T08:53:35.916Z</time>
      </trkpt>
      <trkpt lat="48.476230" lon="16.712691">
        <ele>233.161153</ele>
        <time>2020-09-18T08:53:37.911Z</time>
      </trkpt>
      <trkpt lat="48.476204" lon="16.712890">
        <ele>233.055150</ele>
        <time>2020-09-18T08:53:39.901Z</time>
      </trkpt>
      <trkpt lat="48.476181" lon="16.713077">
        <ele>232.916126</ele>
        <time>2020-09-18T08:53:41.897Z</time>
      </trkpt>
      <trkpt lat="48.476106" lon="16.713221">
        <ele>232.782266</ele>
        <time>2020-09-18T08:53:43.890Z</time>
      </trkpt>
      <trkpt lat="48.476026" lon="16.713355">
        <ele>232.650450</ele>
        <time>2020-09-18T08:53:45.927Z</time>
      </trkpt>
      <trkpt lat="48.475953" lon="16.713483">
        <ele>232.527026</ele>
        <time>2020-09-18T08:53:47.907Z</time>
      </trkpt>
      <trkpt lat="48.475883" lon="16.713608">
        <ele>232.407417</ele>
        <time>2020-09-18T08:53:49.898Z</time>
      </trkpt>
      <trkpt lat="48.475814" lon="16.713723">
        <ele>232.294038</ele>
        <time>2020-09-18T08:53:51.891Z</time>
      </trkpt>
      <trkpt lat="48.475749" lon="16.713843">
        <ele>232.180763</ele>
        <time>2020-09-18T08:53:53.895Z</time>
      </trkpt>
      <trkpt lat="48.475686" lon="16.713956">
        <ele>232.072836</ele>
        <time>2020-09-18T08:53:55.902Z</time>
      </trkpt>
      <trkpt lat="48.475618" lon="16.714069">
        <ele>231.961280</ele>
        <time>2020-09-18T08:53:57.897Z</time>
      </trkpt>
      <trkpt lat="48.475552" lon="16.714174">
        <ele>231.855511</ele>
        <time>2020-09-18T08:53:59.904Z</time>
      </trkpt>
      <trkpt lat="48.475481" lon="16.714278">
        <ele>231.746386</ele>
        <time>2020-09-18T08:54:01.910Z</time>
      </trkpt>
      <trkpt lat="48.475408" lon="16.714383">
        <ele>231.635165</ele>
        <time>2020-09-18T08:54:03.912Z</time>
      </trkpt>
      <trkpt lat="48.475347" lon="16.714485">
        <ele>231.534750</ele>
        <time>2020-09-18T08:54:05.904Z</time>
      </trkpt>
      <trkpt lat="48.475285" lon="16.714586">
        <ele>231.434130</ele>
        <time>2020-09-18T08:54:07.905Z</time>
      </trkpt>
      <trkpt lat="48.475206" lon="16.714736">
        <ele>231.294093</ele>
        <time>2020-09-18T08:54:10.930Z</time>
      </trkpt>
      <trkpt lat="48.475141" lon="16.714892">
        <ele>231.159406</ele>
        <time>2020-09-18T08:54:13.920Z</time>
      </trkpt>
      <trkpt lat="48.475082" lon="16.715055">
        <ele>231.019476</ele>
        <time>2020-09-18T08:54:16.914Z</time>
      </trkpt>
      <trkpt lat="48.475021" lon="16.715238">
        <ele>230.864943</ele>
        <time>2020-09-18T08:54:19.904Z</time>
      </trkpt>
      <trkpt lat="48.474973" lon="16.715368">
        <ele>230.752680</ele>
        <time>2020-09-18T08:54:21.923Z</time>
      </trkpt>
      <trkpt lat="48.474920" lon="16.715501">
        <ele>230.635606</ele>
        <time>2020-09-18T08:54:23.918Z</time>
      </trkpt>
      <trkpt lat="48.474860" lon="16.715628">
        <ele>230.517951</ele>
        <time>2020-09-18T08:54:25.901Z</time>
      </trkpt>
      <trkpt lat="48.474798" lon="16.715752">
        <ele>230.400776</ele>
        <time>2020-09-18T08:54:27.907Z</time>
      </trkpt>
      <trkpt lat="48.474734" lon="16.715883">
        <ele>230.278006</ele>
        <time>2020-09-18T08:54:29.918Z</time>
      </trkpt>
      <trkpt lat="48.474667" lon="16.716007">
        <ele>230.157318</ele>
        <time>2020-09-18T08:54:31.927Z</time>
      </trkpt>
      <trkpt lat="48.474604" lon="16.716132">
        <ele>230.038854</ele>
        <time>2020-09-18T08:54:33.927Z</time>
      </trkpt>
      <trkpt lat="48.474556" lon="16.716262">
        <ele>229.926590</ele>
        <time>2020-09-18T08:54:35.906Z</time>
      </trkpt>
      <trkpt lat="48.474530" lon="16.716419">
        <ele>229.804501</ele>
        <time>2020-09-18T08:54:37.895Z</time>
      </trkpt>
      <trkpt lat="48.474481" lon="16.716564">
        <ele>229.681714</ele>
        <time>2020-09-18T08:54:39.902Z</time>
      </trkpt>
      <trkpt lat="48.474413" lon="16.716701">
        <ele>229.552595</ele>
        <time>2020-09-18T08:54:41.903Z</time>
      </trkpt>
      <trkpt lat="48.474341" lon="16.716843">
        <ele>229.417721</ele>
        <time>2020-09-18T08:54:43.905Z</time>
      </trkpt>
      <trkpt lat="48.474282" lon="16.716994">
        <ele>229.285484</ele>
        <time>2020-09-18T08:54:45.919Z</time>
      </trkpt>
      <trkpt lat="48.474214" lon="16.717142">
        <ele>229.149631</ele>
        <time>2020-09-18T08:54:47.906Z</time>
      </trkpt>
      <trkpt lat="48.474152" lon="16.717295">
        <ele>229.040973</ele>
        <time>2020-09-18T08:54:49.901Z</time>
      </trkpt>
      <trkpt lat="48.474093" lon="16.717456">
        <ele>228.942099</ele>
        <time>2020-09-18T08:54:51.894Z</time>
      </trkpt>
      <trkpt lat="48.474011" lon="16.717585">
        <ele>228.846042</ele>
        <time>2020-09-18T08:54:53.890Z</time>
      </trkpt>
      <trkpt lat="48.473900" lon="16.717665">
        <ele>228.746307</ele>
        <time>2020-09-18T08:54:55.887Z</time>
      </trkpt>
      <trkpt lat="48.473791" lon="16.717748">
        <ele>228.647316</ele>
        <time>2020-09-18T08:54:57.905Z</time>
      </trkpt>
      <trkpt lat="48.473693" lon="16.717841">
        <ele>228.553448</ele>
        <time>2020-09-18T08:54:59.934Z</time>
      </trkpt>
      <trkpt lat="48.473614" lon="16.717964">
        <ele>228.461401</ele>
        <time>2020-09-18T08:55:01.895Z</time>
      </trkpt>
      <trkpt lat="48.473546" lon="16.718095">
        <ele>228.371976</ele>
        <time>2020-09-18T08:55:03.910Z</time>
      </trkpt>
      <trkpt lat="48.473484" lon="16.718228">
        <ele>228.284588</ele>
        <time>2020-09-18T08:55:05.917Z</time>
      </trkpt>
      <trkpt lat="48.473421" lon="16.718352">
        <ele>228.200619</ele>
        <time>2020-09-18T08:55:07.911Z</time>
      </trkpt>
      <trkpt lat="48.473360" lon="16.718473">
        <ele>228.118916</ele>
        <time>2020-09-18T08:55:09.915Z</time>
      </trkpt>
      <trkpt lat="48.473301" lon="16.718594">
        <ele>228.038184</ele>
        <time>2020-09-18T08:55:11.901Z</time>
      </trkpt>
      <trkpt lat="48.473242" lon="16.718713">
        <ele>227.958316</ele>
        <time>2020-09-18T08:55:13.900Z</time>
      </trkpt>
      <trkpt lat="48.473184" lon="16.718831">
        <ele>227.879362</ele>
        <time>2020-09-18T08:55:15.898Z</time>
      </trkpt>
      <trkpt lat="48.473132" lon="16.718945">
        <ele>227.804987</ele>
        <time>2020-09-18T08:55:17.911Z</time>
      </trkpt>
      <trkpt lat="48.473086" lon="16.719068">
        <ele>227.729082</ele>
        <time>2020-09-18T08:55:19.922Z</time>
      </trkpt>
      <trkpt lat="48.473026" lon="16.719241">
        <ele>227.631601</ele>
        <time>2020-09-18T08:55:22.885Z</time>
      </trkpt>
      <trkpt lat="48.472971" lon="16.719348">
        <ele>227.580906</ele>
        <time>2020-09-18T08:55:24.892Z</time>
      </trkpt>
      <trkpt lat="48.472908" lon="16.719458">
        <ele>227.526478</ele>
        <time>2020-09-18T08:55:26.901Z</time>
      </trkpt>
      <trkpt lat="48.472836" lon="16.719557">
        <ele>227.471453</ele>
        <time>2020-09-18T08:55:28.910Z</time>
      </trkpt>
      <trkpt lat="48.472764" lon="16.719651">
        <ele>227.417673</ele>
        <time>2020-09-18T08:55:30.925Z</time>
      </trkpt>
      <trkpt lat="48.472692" lon="16.719749">
        <ele>227.362900</ele>
        <time>2020-09-18T08:55:32.918Z</time>
      </trkpt>
      <trkpt lat="48.472624" lon="16.719839">
        <ele>227.311806</ele>
        <time>2020-09-18T08:55:34.898Z</time>
      </trkpt>
      <trkpt lat="48.472525" lon="16.719970">
        <ele>227.237427</ele>
        <time>2020-09-18T08:55:37.914Z</time>
      </trkpt>
      <trkpt lat="48.472426" lon="16.720101">
        <ele>227.163048</ele>
        <time>2020-09-18T08:55:40.916Z</time>
      </trkpt>
      <trkpt lat="48.472358" lon="16.720194">
        <ele>227.111206</ele>
        <time>2020-09-18T08:55:42.900Z</time>
      </trkpt>
      <trkpt lat="48.472287" lon="16.720296">
        <ele>227.055829</ele>
        <time>2020-09-18T08:55:44.894Z</time>
      </trkpt>
      <trkpt lat="48.472214" lon="16.720394">
        <ele>227.000635</ele>
        <time>2020-09-18T08:55:46.887Z</time>
      </trkpt>
      <trkpt lat="48.472147" lon="16.720492">
        <ele>226.947925</ele>
        <time>2020-09-18T08:55:48.901Z</time>
      </trkpt>
      <trkpt lat="48.472087" lon="16.720608">
        <ele>226.892835</ele>
        <time>2020-09-18T08:55:50.900Z</time>
      </trkpt>
      <trkpt lat="48.472042" lon="16.720750">
        <ele>226.833903</ele>
        <time>2020-09-18T08:55:52.902Z</time>
      </trkpt>
      <trkpt lat="48.472000" lon="16.720890">
        <ele>226.776364</ele>
        <time>2020-09-18T08:55:54.898Z</time>
      </trkpt>
      <trkpt lat="48.471949" lon="16.721035">
        <ele>226.714903</ele>
        <time>2020-09-18T08:55:56.910Z</time>
      </trkpt>
      <trkpt lat="48.471893" lon="16.721175">
        <ele>226.653679</ele>
        <time>2020-09-18T08:55:58.931Z</time>
      </trkpt>
      <trkpt lat="48.471841" lon="16.721323">
        <ele>226.633824</ele>
        <time>2020-09-18T08:56:00.924Z</time>
      </trkpt>
      <trkpt lat="48.471788" lon="16.721480">
        <ele>226.635281</ele>
        <time>2020-09-18T08:56:02.906Z</time>
      </trkpt>
      <trkpt lat="48.471733" lon="16.721644">
        <ele>226.636801</ele>
        <time>2020-09-18T08:56:04.919Z</time>
      </trkpt>
      <trkpt lat="48.471681" lon="16.721813">
        <ele>226.638342</ele>
        <time>2020-09-18T08:56:06.902Z</time>
      </trkpt>
      <trkpt lat="48.471636" lon="16.721983">
        <ele>226.639856</ele>
        <time>2020-09-18T08:56:08.916Z</time>
      </trkpt>
      <trkpt lat="48.471585" lon="16.722147">
        <ele>226.641355</ele>
        <time>2020-09-18T08:56:10.903Z</time>
      </trkpt>
      <trkpt lat="48.471538" lon="16.722303">
        <ele>226.642772</ele>
        <time>2020-09-18T08:56:12.888Z</time>
      </trkpt>
      <trkpt lat="48.471496" lon="16.722452">
        <ele>226.644111</ele>
        <time>2020-09-18T08:56:14.886Z</time>
      </trkpt>
      <trkpt lat="48.471444" lon="16.722572">
        <ele>226.645297</ele>
        <time>2020-09-18T08:56:16.899Z</time>
      </trkpt>
      <trkpt lat="48.471395" lon="16.722694">
        <ele>226.646477</ele>
        <time>2020-09-18T08:56:18.892Z</time>
      </trkpt>
      <trkpt lat="48.471338" lon="16.722809">
        <ele>226.647665</ele>
        <time>2020-09-18T08:56:20.900Z</time>
      </trkpt>
      <trkpt lat="48.471284" lon="16.722925">
        <ele>226.648837</ele>
        <time>2020-09-18T08:56:22.899Z</time>
      </trkpt>
      <trkpt lat="48.471231" lon="16.723040">
        <ele>226.649996</ele>
        <time>2020-09-18T08:56:24.914Z</time>
      </trkpt>
      <trkpt lat="48.471161" lon="16.723152">
        <ele>226.651269</ele>
        <time>2020-09-18T08:56:26.905Z</time>
      </trkpt>
      <trkpt lat="48.471098" lon="16.723260">
        <ele>226.652459</ele>
        <time>2020-09-18T08:56:28.902Z</time>
      </trkpt>
      <trkpt lat="48.471032" lon="16.723363">
        <ele>226.653644</ele>
        <time>2020-09-18T08:56:30.914Z</time>
      </trkpt>
      <trkpt lat="48.470958" lon="16.723479">
        <ele>226.654975</ele>
        <time>2020-09-18T08:56:32.908Z</time>
      </trkpt>
      <trkpt lat="48.470890" lon="16.723589">
        <ele>226.681020</ele>
        <time>2020-09-18T08:56:34.905Z</time>
      </trkpt>
      <trkpt lat="48.470819" lon="16.723706">
        <ele>226.719237</ele>
        <time>2020-09-18T08:56:36.903Z</time>
      </trkpt>
      <trkpt lat="48.470743" lon="16.723834">
        <ele>226.760640</ele>
        <time>2020-09-18T08:56:38.888Z</time>
      </trkpt>
      <trkpt lat="48.470672" lon="16.723954">
        <ele>226.799394</ele>
        <time>2020-09-18T08:56:40.901Z</time>
      </trkpt>
      <trkpt lat="48.470591" lon="16.724067">
        <ele>226.839493</ele>
        <time>2020-09-18T08:56:42.897Z</time>
      </trkpt>
      <trkpt lat="48.470515" lon="16.724187">
        <ele>226.879481</ele>
        <time>2020-09-18T08:56:44.901Z</time>
      </trkpt>
      <trkpt lat="48.470436" lon="16.724302">
        <ele>226.919383</ele>
        <time>2020-09-18T08:56:46.910Z</time>
      </trkpt>
      <trkpt lat="48.470373" lon="16.724431">
        <ele>226.957989</ele>
        <time>2020-09-18T08:56:48.910Z</time>
      </trkpt>
      <trkpt lat="48.470307" lon="16.724560">
        <ele>226.997251</ele>
        <time>2020-09-18T08:56:50.900Z</time>
      </trkpt>
      <trkpt lat="48.470242" lon="16.724689">
        <ele>227.036293</ele>
        <time>2020-09-18T08:56:52.897Z</time>
      </trkpt>
      <trkpt lat="48.470183" lon="16.724816">
        <ele>227.073659</ele>
        <time>2020-09-18T08:56:54.911Z</time>
      </trkpt>
      <trkpt lat="48.470131" lon="16.724933">
        <ele>227.107599</ele>
        <time>2020-09-18T08:56:56.930Z</time>
      </trkpt>
      <trkpt lat="48.470071" lon="16.725046">
        <ele>227.142483</ele>
        <time>2020-09-18T08:56:58.909Z</time>
      </trkpt>
      <trkpt lat="48.470006" lon="16.725150">
        <ele>227.176922</ele>
        <time>2020-09-18T08:57:00.917Z</time>
      </trkpt>
      <trkpt lat="48.469901" lon="16.725270">
        <ele>227.224800</ele>
        <time>2020-09-18T08:57:03.918Z</time>
      </trkpt>
      <trkpt lat="48.469790" lon="16.725381">
        <ele>227.273202</ele>
        <time>2020-09-18T08:57:06.896Z</time>
      </trkpt>
      <trkpt lat="48.469685" lon="16.725481">
        <ele>227.276341</ele>
        <time>2020-09-18T08:57:09.902Z</time>
      </trkpt>
      <trkpt lat="48.469598" lon="16.725597">
        <ele>227.128244</ele>
        <time>2020-09-18T08:57:12.904Z</time>
      </trkpt>
      <trkpt lat="48.469537" lon="16.725719">
        <ele>226.999035</ele>
        <time>2020-09-18T08:57:15.912Z</time>
      </trkpt>
      <trkpt lat="48.469462" lon="16.725865">
        <ele>226.842859</ele>
        <time>2020-09-18T08:57:19.898Z</time>
      </trkpt>
      <trkpt lat="48.469385" lon="16.726009">
        <ele>226.686428</ele>
        <time>2020-09-18T08:57:22.893Z</time>
      </trkpt>
      <trkpt lat="48.469334" lon="16.726135">
        <ele>226.561598</ele>
        <time>2020-09-18T08:57:24.911Z</time>
      </trkpt>
      <trkpt lat="48.469288" lon="16.726297">
        <ele>226.412577</ele>
        <time>2020-09-18T08:57:26.917Z</time>
      </trkpt>
      <trkpt lat="48.469280" lon="16.726557">
        <ele>226.192485</ele>
        <time>2020-09-18T08:57:28.916Z</time>
      </trkpt>
      <trkpt lat="48.469302" lon="16.726700">
        <ele>226.068352</ele>
        <time>2020-09-18T08:57:29.891Z</time>
      </trkpt>
      <trkpt lat="48.469360" lon="16.726889">
        <ele>225.892246</ele>
        <time>2020-09-18T08:57:31.896Z</time>
      </trkpt>
      <trkpt lat="48.469346" lon="16.727024">
        <ele>225.776703</ele>
        <time>2020-09-18T08:57:33.886Z</time>
      </trkpt>
      <trkpt lat="48.469229" lon="16.727114">
        <ele>225.609198</ele>
        <time>2020-09-18T08:57:36.898Z</time>
      </trkpt>
      <trkpt lat="48.469119" lon="16.727217">
        <ele>225.444070</ele>
        <time>2020-09-18T08:57:39.896Z</time>
      </trkpt>
      <trkpt lat="48.469037" lon="16.727321">
        <ele>225.307428</ele>
        <time>2020-09-18T08:57:41.891Z</time>
      </trkpt>
      <trkpt lat="48.468956" lon="16.727428">
        <ele>225.170103</ele>
        <time>2020-09-18T08:57:43.904Z</time>
      </trkpt>
      <trkpt lat="48.468865" lon="16.727585">
        <ele>225.010151</ele>
        <time>2020-09-18T08:57:46.903Z</time>
      </trkpt>
      <trkpt lat="48.468802" lon="16.727708">
        <ele>224.979719</ele>
        <time>2020-09-18T08:57:48.893Z</time>
      </trkpt>
      <trkpt lat="48.468743" lon="16.727815">
        <ele>224.952471</ele>
        <time>2020-09-18T08:57:50.891Z</time>
      </trkpt>
      <trkpt lat="48.468681" lon="16.727919">
        <ele>224.925088</ele>
        <time>2020-09-18T08:57:52.918Z</time>
      </trkpt>
      <trkpt lat="48.468608" lon="16.728026">
        <ele>224.895028</ele>
        <time>2020-09-18T08:57:54.901Z</time>
      </trkpt>
      <trkpt lat="48.468532" lon="16.728129">
        <ele>224.864856</ele>
        <time>2020-09-18T08:57:56.912Z</time>
      </trkpt>
      <trkpt lat="48.468456" lon="16.728236">
        <ele>224.834154</ele>
        <time>2020-09-18T08:57:58.885Z</time>
      </trkpt>
      <trkpt lat="48.468377" lon="16.728342">
        <ele>224.802930</ele>
        <time>2020-09-18T08:58:00.922Z</time>
      </trkpt>
      <trkpt lat="48.468299" lon="16.728449">
        <ele>224.771794</ele>
        <time>2020-09-18T08:58:02.904Z</time>
      </trkpt>
      <trkpt lat="48.468223" lon="16.728554">
        <ele>224.741359</ele>
        <time>2020-09-18T08:58:04.942Z</time>
      </trkpt>
      <trkpt lat="48.468150" lon="16.728651">
        <ele>224.712629</ele>
        <time>2020-09-18T08:58:06.893Z</time>
      </trkpt>
      <trkpt lat="48.468078" lon="16.728748">
        <ele>224.684120</ele>
        <time>2020-09-18T08:58:08.905Z</time>
      </trkpt>
      <trkpt lat="48.468003" lon="16.728838">
        <ele>224.655817</ele>
        <time>2020-09-18T08:58:10.923Z</time>
      </trkpt>
      <trkpt lat="48.467923" lon="16.728921">
        <ele>224.627143</ele>
        <time>2020-09-18T08:58:12.900Z</time>
      </trkpt>
      <trkpt lat="48.467842" lon="16.729005">
        <ele>224.598115</ele>
        <time>2020-09-18T08:58:14.908Z</time>
      </trkpt>
      <trkpt lat="48.467757" lon="16.729091">
        <ele>224.567890</ele>
        <time>2020-09-18T08:58:16.885Z</time>
      </trkpt>
      <trkpt lat="48.467667" lon="16.729181">
        <ele>224.536002</ele>
        <time>2020-09-18T08:58:18.903Z</time>
      </trkpt>
      <trkpt lat="48.467575" lon="16.729272">
        <ele>224.503513</ele>
        <time>2020-09-18T08:58:20.939Z</time>
      </trkpt>
      <trkpt lat="48.467473" lon="16.729351">
        <ele>224.468101</ele>
        <time>2020-09-18T08:58:22.916Z</time>
      </trkpt>
      <trkpt lat="48.467381" lon="16.729432">
        <ele>224.433230</ele>
        <time>2020-09-18T08:58:24.919Z</time>
      </trkpt>
      <trkpt lat="48.467281" lon="16.729522">
        <ele>224.395111</ele>
        <time>2020-09-18T08:58:26.900Z</time>
      </trkpt>
      <trkpt lat="48.467179" lon="16.729599">
        <ele>224.357773</ele>
        <time>2020-09-18T08:58:28.906Z</time>
      </trkpt>
      <trkpt lat="48.467072" lon="16.729677">
        <ele>224.318871</ele>
        <time>2020-09-18T08:58:30.932Z</time>
      </trkpt>
      <trkpt lat="48.466967" lon="16.729752">
        <ele>224.280841</ele>
        <time>2020-09-18T08:58:32.917Z</time>
      </trkpt>
      <trkpt lat="48.466868" lon="16.729829">
        <ele>224.244379</ele>
        <time>2020-09-18T08:58:34.903Z</time>
      </trkpt>
      <trkpt lat="48.466767" lon="16.729902">
        <ele>224.207717</ele>
        <time>2020-09-18T08:58:36.887Z</time>
      </trkpt>
      <trkpt lat="48.466674" lon="16.729966">
        <ele>224.174255</ele>
        <time>2020-09-18T08:58:38.891Z</time>
      </trkpt>
      <trkpt lat="48.466579" lon="16.730028">
        <ele>224.140371</ele>
        <time>2020-09-18T08:58:40.919Z</time>
      </trkpt>
      <trkpt lat="48.466478" lon="16.730098">
        <ele>224.103986</ele>
        <time>2020-09-18T08:58:42.906Z</time>
      </trkpt>
      <trkpt lat="48.466376" lon="16.730166">
        <ele>224.067480</ele>
        <time>2020-09-18T08:58:44.904Z</time>
      </trkpt>
      <trkpt lat="48.466272" lon="16.730237">
        <ele>224.030112</ele>
        <time>2020-09-18T08:58:46.921Z</time>
      </trkpt>
      <trkpt lat="48.466176" lon="16.730311">
        <ele>223.994820</ele>
        <time>2020-09-18T08:58:48.924Z</time>
      </trkpt>
      <trkpt lat="48.466084" lon="16.730376">
        <ele>223.961564</ele>
        <time>2020-09-18T08:58:50.903Z</time>
      </trkpt>
      <trkpt lat="48.466025" lon="16.730509">
        <ele>223.926832</ele>
        <time>2020-09-18T08:58:52.883Z</time>
      </trkpt>
      <trkpt lat="48.466039" lon="16.730706">
        <ele>223.875515</ele>
        <time>2020-09-18T08:58:54.884Z</time>
      </trkpt>
      <trkpt lat="48.466090" lon="16.730876">
        <ele>223.805352</ele>
        <time>2020-09-18T08:58:56.896Z</time>
      </trkpt>
      <trkpt lat="48.466139" lon="16.731035">
        <ele>223.739422</ele>
        <time>2020-09-18T08:58:58.895Z</time>
      </trkpt>
      <trkpt lat="48.466181" lon="16.731194">
        <ele>223.675064</ele>
        <time>2020-09-18T08:59:00.923Z</time>
      </trkpt>
      <trkpt lat="48.466188" lon="16.731355">
        <ele>223.614394</ele>
        <time>2020-09-18T08:59:02.907Z</time>
      </trkpt>
      <trkpt lat="48.466132" lon="16.731482">
        <ele>223.557043</ele>
        <time>2020-09-18T08:59:04.895Z</time>
      </trkpt>
      <trkpt lat="48.466014" lon="16.731585">
        <ele>223.479725</ele>
        <time>2020-09-18T08:59:07.913Z</time>
      </trkpt>
      <trkpt lat="48.465932" lon="16.731670">
        <ele>223.423297</ele>
        <time>2020-09-18T08:59:09.903Z</time>
      </trkpt>
      <trkpt lat="48.465853" lon="16.731765">
        <ele>223.365997</ele>
        <time>2020-09-18T08:59:11.927Z</time>
      </trkpt>
      <trkpt lat="48.465779" lon="16.731870">
        <ele>223.308378</ele>
        <time>2020-09-18T08:59:13.910Z</time>
      </trkpt>
      <trkpt lat="48.465707" lon="16.731986">
        <ele>223.248629</ele>
        <time>2020-09-18T08:59:15.895Z</time>
      </trkpt>
      <trkpt lat="48.465632" lon="16.732100">
        <ele>223.188242</ele>
        <time>2020-09-18T08:59:17.910Z</time>
      </trkpt>
      <trkpt lat="48.465553" lon="16.732210">
        <ele>223.127266</ele>
        <time>2020-09-18T08:59:19.915Z</time>
      </trkpt>
      <trkpt lat="48.465476" lon="16.732324">
        <ele>223.066074</ele>
        <time>2020-09-18T08:59:21.896Z</time>
      </trkpt>
      <trkpt lat="48.465392" lon="16.732430">
        <ele>223.003961</ele>
        <time>2020-09-18T08:59:23.899Z</time>
      </trkpt>
      <trkpt lat="48.465305" lon="16.732524">
        <ele>222.943268</ele>
        <time>2020-09-18T08:59:25.922Z</time>
      </trkpt>
      <trkpt lat="48.465221" lon="16.732627">
        <ele>222.881873</ele>
        <time>2020-09-18T08:59:27.921Z</time>
      </trkpt>
      <trkpt lat="48.465139" lon="16.732735">
        <ele>222.853467</ele>
        <time>2020-09-18T08:59:29.931Z</time>
      </trkpt>
      <trkpt lat="48.465056" lon="16.732840">
        <ele>222.829246</ele>
        <time>2020-09-18T08:59:31.917Z</time>
      </trkpt>
      <trkpt lat="48.464968" lon="16.732938">
        <ele>222.804789</ele>
        <time>2020-09-18T08:59:33.899Z</time>
      </trkpt>
      <trkpt lat="48.464879" lon="16.733027">
        <ele>222.780913</ele>
        <time>2020-09-18T08:59:35.893Z</time>
      </trkpt>
      <trkpt lat="48.464788" lon="16.733103">
        <ele>222.757656</ele>
        <time>2020-09-18T08:59:37.908Z</time>
      </trkpt>
      <trkpt lat="48.464695" lon="16.733183">
        <ele>222.733719</ele>
        <time>2020-09-18T08:59:39.906Z</time>
      </trkpt>
      <trkpt lat="48.464604" lon="16.733265">
        <ele>222.710018</ele>
        <time>2020-09-18T08:59:41.932Z</time>
      </trkpt>
      <trkpt lat="48.464517" lon="16.733347">
        <ele>222.687080</ele>
        <time>2020-09-18T08:59:43.901Z</time>
      </trkpt>
      <trkpt lat="48.464432" lon="16.733427">
        <ele>222.664679</ele>
        <time>2020-09-18T08:59:45.911Z</time>
      </trkpt>
      <trkpt lat="48.464354" lon="16.733500">
        <ele>222.644155</ele>
        <time>2020-09-18T08:59:47.889Z</time>
      </trkpt>
      <trkpt lat="48.464232" lon="16.733592">
        <ele>222.613658</ele>
        <time>2020-09-18T08:59:50.893Z</time>
      </trkpt>
      <trkpt lat="48.464132" lon="16.733613">
        <ele>222.591085</ele>
        <time>2020-09-18T08:59:52.896Z</time>
      </trkpt>
      <trkpt lat="48.464035" lon="16.733609">
        <ele>222.569389</ele>
        <time>2020-09-18T08:59:54.898Z</time>
      </trkpt>
      <trkpt lat="48.463931" lon="16.733600">
        <ele>222.546099</ele>
        <time>2020-09-18T08:59:56.900Z</time>
      </trkpt>
      <trkpt lat="48.463824" lon="16.733585">
        <ele>222.522073</ele>
        <time>2020-09-18T08:59:58.909Z</time>
      </trkpt>
      <trkpt lat="48.463717" lon="16.733562">
        <ele>222.497908</ele>
        <time>2020-09-18T09:00:00.907Z</time>
      </trkpt>
      <trkpt lat="48.463609" lon="16.733551">
        <ele>222.473707</ele>
        <time>2020-09-18T09:00:02.902Z</time>
      </trkpt>
      <trkpt lat="48.463499" lon="16.733535">
        <ele>222.431403</ele>
        <time>2020-09-18T09:00:04.931Z</time>
      </trkpt>
      <trkpt lat="48.463389" lon="16.733516">
        <ele>222.388519</ele>
        <time>2020-09-18T09:00:06.924Z</time>
      </trkpt>
      <trkpt lat="48.463282" lon="16.733496">
        <ele>222.346758</ele>
        <time>2020-09-18T09:00:08.918Z</time>
      </trkpt>
      <trkpt lat="48.463189" lon="16.733507">
        <ele>222.310627</ele>
        <time>2020-09-18T09:00:10.895Z</time>
      </trkpt>
      <trkpt lat="48.463121" lon="16.733643">
        <ele>222.266880</ele>
        <time>2020-09-18T09:00:13.909Z</time>
      </trkpt>
      <trkpt lat="48.463155" lon="16.733781">
        <ele>222.229070</ele>
        <time>2020-09-18T09:00:16.889Z</time>
      </trkpt>
      <trkpt lat="48.463106" lon="16.733919">
        <ele>222.188865</ele>
        <time>2020-09-18T09:00:20.906Z</time>
      </trkpt>
      <trkpt lat="48.463164" lon="16.734085">
        <ele>222.140674</ele>
        <time>2020-09-18T09:00:24.900Z</time>
      </trkpt>
      <trkpt lat="48.463240" lon="16.734220">
        <ele>222.095191</ele>
        <time>2020-09-18T09:00:27.906Z</time>
      </trkpt>
      <trkpt lat="48.463315" lon="16.734363">
        <ele>222.048364</ele>
        <time>2020-09-18T09:00:30.882Z</time>
      </trkpt>
      <trkpt lat="48.463393" lon="16.734517">
        <ele>221.998594</ele>
        <time>2020-09-18T09:00:33.917Z</time>
      </trkpt>
      <trkpt lat="48.463469" lon="16.734682">
        <ele>221.946996</ele>
        <time>2020-09-18T09:00:36.931Z</time>
      </trkpt>
      <trkpt lat="48.463515" lon="16.734868">
        <ele>221.896011</ele>
        <time>2020-09-18T09:00:39.913Z</time>
      </trkpt>
      <trkpt lat="48.463545" lon="16.734997">
        <ele>221.860901</ele>
        <time>2020-09-18T09:00:41.902Z</time>
      </trkpt>
      <trkpt lat="48.463571" lon="16.735130">
        <ele>221.825289</ele>
        <time>2020-09-18T09:00:43.911Z</time>
      </trkpt>
      <trkpt lat="48.463616" lon="16.735322">
        <ele>221.768517</ele>
        <time>2020-09-18T09:00:46.891Z</time>
      </trkpt>
      <trkpt lat="48.463648" lon="16.735451">
        <ele>221.686396</ele>
        <time>2020-09-18T09:00:48.922Z</time>
      </trkpt>
      <trkpt lat="48.463687" lon="16.735632">
        <ele>221.572922</ele>
        <time>2020-09-18T09:00:51.899Z</time>
      </trkpt>
      <trkpt lat="48.463728" lon="16.735815">
        <ele>221.457750</ele>
        <time>2020-09-18T09:00:54.907Z</time>
      </trkpt>
      <trkpt lat="48.463771" lon="16.736000">
        <ele>221.340866</ele>
        <time>2020-09-18T09:00:57.894Z</time>
      </trkpt>
      <trkpt lat="48.463799" lon="16.736130">
        <ele>221.259368</ele>
        <time>2020-09-18T09:00:59.906Z</time>
      </trkpt>
      <trkpt lat="48.463828" lon="16.736324">
        <ele>221.140795</ele>
        <time>2020-09-18T09:01:02.895Z</time>
      </trkpt>
      <trkpt lat="48.463855" lon="16.736453">
        <ele>221.060140</ele>
        <time>2020-09-18T09:01:04.898Z</time>
      </trkpt>
      <trkpt lat="48.463885" lon="16.736581">
        <ele>220.979194</ele>
        <time>2020-09-18T09:01:06.890Z</time>
      </trkpt>
      <trkpt lat="48.463909" lon="16.736778">
        <ele>220.859769</ele>
        <time>2020-09-18T09:01:09.897Z</time>
      </trkpt>
      <trkpt lat="48.463924" lon="16.736916">
        <ele>220.776390</ele>
        <time>2020-09-18T09:01:11.892Z</time>
      </trkpt>
      <trkpt lat="48.463938" lon="16.737051">
        <ele>220.694920</ele>
        <time>2020-09-18T09:01:13.929Z</time>
      </trkpt>
      <trkpt lat="48.463969" lon="16.737248">
        <ele>220.574199</ele>
        <time>2020-09-18T09:01:16.903Z</time>
      </trkpt>
      <trkpt lat="48.463994" lon="16.737439">
        <ele>220.458120</ele>
        <time>2020-09-18T09:01:19.917Z</time>
      </trkpt>
      <trkpt lat="48.464015" lon="16.737626">
        <ele>220.345036</ele>
        <time>2020-09-18T09:01:22.893Z</time>
      </trkpt>
      <trkpt lat="48.464043" lon="16.737797">
        <ele>220.240017</ele>
        <time>2020-09-18T09:01:25.892Z</time>
      </trkpt>
      <trkpt lat="48.464072" lon="16.737994">
        <ele>220.130733</ele>
        <time>2020-09-18T09:01:28.885Z</time>
      </trkpt>
      <trkpt lat="48.464088" lon="16.738188">
        <ele>220.046839</ele>
        <time>2020-09-18T09:01:31.902Z</time>
      </trkpt>
      <trkpt lat="48.464106" lon="16.738375">
        <ele>219.965749</ele>
        <time>2020-09-18T09:01:34.931Z</time>
      </trkpt>
      <trkpt lat="48.464125" lon="16.738563">
        <ele>219.884140</ele>
        <time>2020-09-18T09:01:37.894Z</time>
      </trkpt>
      <trkpt lat="48.464142" lon="16.738700">
        <ele>219.824327</ele>
        <time>2020-09-18T09:01:39.890Z</time>
      </trkpt>
      <trkpt lat="48.464156" lon="16.738841">
        <ele>219.763145</ele>
        <time>2020-09-18T09:01:41.903Z</time>
      </trkpt>
      <trkpt lat="48.464169" lon="16.738977">
        <ele>219.704179</ele>
        <time>2020-09-18T09:01:43.901Z</time>
      </trkpt>
      <trkpt lat="48.464180" lon="16.739112">
        <ele>219.645810</ele>
        <time>2020-09-18T09:01:45.924Z</time>
      </trkpt>
      <trkpt lat="48.464193" lon="16.739311">
        <ele>219.559998</ele>
        <time>2020-09-18T09:01:48.913Z</time>
      </trkpt>
      <trkpt lat="48.464205" lon="16.739508">
        <ele>219.475103</ele>
        <time>2020-09-18T09:01:51.900Z</time>
      </trkpt>
      <trkpt lat="48.464210" lon="16.739705">
        <ele>219.390501</ele>
        <time>2020-09-18T09:01:54.885Z</time>
      </trkpt>
      <trkpt lat="48.464214" lon="16.739902">
        <ele>219.305922</ele>
        <time>2020-09-18T09:01:57.919Z</time>
      </trkpt>
      <trkpt lat="48.464214" lon="16.740104">
        <ele>219.219237</ele>
        <time>2020-09-18T09:02:00.896Z</time>
      </trkpt>
      <trkpt lat="48.464209" lon="16.740240">
        <ele>219.160785</ele>
        <time>2020-09-18T09:02:02.903Z</time>
      </trkpt>
      <trkpt lat="48.464201" lon="16.740376">
        <ele>219.102193</ele>
        <time>2020-09-18T09:02:04.890Z</time>
      </trkpt>
      <trkpt lat="48.464190" lon="16.740576">
        <ele>219.016071</ele>
        <time>2020-09-18T09:02:07.899Z</time>
      </trkpt>
      <trkpt lat="48.464181" lon="16.740780">
        <ele>218.948957</ele>
        <time>2020-09-18T09:02:10.897Z</time>
      </trkpt>
      <trkpt lat="48.464175" lon="16.740919">
        <ele>218.907666</ele>
        <time>2020-09-18T09:02:12.910Z</time>
      </trkpt>
      <trkpt lat="48.464169" lon="16.741112">
        <ele>218.850391</ele>
        <time>2020-09-18T09:02:15.896Z</time>
      </trkpt>
      <trkpt lat="48.464157" lon="16.741293">
        <ele>218.796469</ele>
        <time>2020-09-18T09:02:18.882Z</time>
      </trkpt>
      <trkpt lat="48.464146" lon="16.741532">
        <ele>218.725451</ele>
        <time>2020-09-18T09:02:51.919Z</time>
      </trkpt>
      <trkpt lat="48.464137" lon="16.741670">
        <ele>218.684346</ele>
        <time>2020-09-18T09:02:54.931Z</time>
      </trkpt>
      <trkpt lat="48.464134" lon="16.741830">
        <ele>218.636898</ele>
        <time>2020-09-18T09:02:57.898Z</time>
      </trkpt>
      <trkpt lat="48.464123" lon="16.742003">
        <ele>218.585379</ele>
        <time>2020-09-18T09:03:00.916Z</time>
      </trkpt>
      <trkpt lat="48.464113" lon="16.742177">
        <ele>218.533606</ele>
        <time>2020-09-18T09:03:03.895Z</time>
      </trkpt>
      <trkpt lat="48.464108" lon="16.742357">
        <ele>218.480201</ele>
        <time>2020-09-18T09:03:06.896Z</time>
      </trkpt>
      <trkpt lat="48.464102" lon="16.742492">
        <ele>218.440093</ele>
        <time>2020-09-18T09:03:08.895Z</time>
      </trkpt>
      <trkpt lat="48.464092" lon="16.742690">
        <ele>218.381229</ele>
        <time>2020-09-18T09:03:11.919Z</time>
      </trkpt>
      <trkpt lat="48.464081" lon="16.742889">
        <ele>218.322034</ele>
        <time>2020-09-18T09:03:14.923Z</time>
      </trkpt>
      <trkpt lat="48.464070" lon="16.743027">
        <ele>218.280832</ele>
        <time>2020-09-18T09:03:16.893Z</time>
      </trkpt>
      <trkpt lat="48.464055" lon="16.743167">
        <ele>218.238793</ele>
        <time>2020-09-18T09:03:18.932Z</time>
      </trkpt>
      <trkpt lat="48.464034" lon="16.743300">
        <ele>218.198264</ele>
        <time>2020-09-18T09:03:20.899Z</time>
      </trkpt>
      <trkpt lat="48.463997" lon="16.743490">
        <ele>218.152020</ele>
        <time>2020-09-18T09:03:23.917Z</time>
      </trkpt>
      <trkpt lat="48.463967" lon="16.743652">
        <ele>218.114249</ele>
        <time>2020-09-18T09:03:26.899Z</time>
      </trkpt>
      <trkpt lat="48.463924" lon="16.743799">
        <ele>218.078168</ele>
        <time>2020-09-18T09:03:38.899Z</time>
      </trkpt>
      <trkpt lat="48.463902" lon="16.743938">
        <ele>218.046077</ele>
        <time>2020-09-18T09:03:41.914Z</time>
      </trkpt>
      <trkpt lat="48.463884" lon="16.744094">
        <ele>218.010518</ele>
        <time>2020-09-18T09:03:44.899Z</time>
      </trkpt>
      <trkpt lat="48.463866" lon="16.744278">
        <ele>217.968751</ele>
        <time>2020-09-18T09:03:47.938Z</time>
      </trkpt>
      <trkpt lat="48.463853" lon="16.744468">
        <ele>217.925857</ele>
        <time>2020-09-18T09:03:50.892Z</time>
      </trkpt>
      <trkpt lat="48.463855" lon="16.744665">
        <ele>217.881613</ele>
        <time>2020-09-18T09:03:53.893Z</time>
      </trkpt>
      <trkpt lat="48.463864" lon="16.744865">
        <ele>217.836596</ele>
        <time>2020-09-18T09:03:56.913Z</time>
      </trkpt>
      <trkpt lat="48.463869" lon="16.745002">
        <ele>217.805784</ele>
        <time>2020-09-18T09:03:58.894Z</time>
      </trkpt>
      <trkpt lat="48.463874" lon="16.745138">
        <ele>217.775196</ele>
        <time>2020-09-18T09:04:00.902Z</time>
      </trkpt>
      <trkpt lat="48.463887" lon="16.745272">
        <ele>217.744784</ele>
        <time>2020-09-18T09:04:02.904Z</time>
      </trkpt>
      <trkpt lat="48.463895" lon="16.745408">
        <ele>217.714124</ele>
        <time>2020-09-18T09:04:04.932Z</time>
      </trkpt>
      <trkpt lat="48.463899" lon="16.745545">
        <ele>217.683328</ele>
        <time>2020-09-18T09:04:06.912Z</time>
      </trkpt>
      <trkpt lat="48.463902" lon="16.745682">
        <ele>217.652546</ele>
        <time>2020-09-18T09:04:08.917Z</time>
      </trkpt>
      <trkpt lat="48.463908" lon="16.745821">
        <ele>217.621265</ele>
        <time>2020-09-18T09:04:10.910Z</time>
      </trkpt>
      <trkpt lat="48.463918" lon="16.746021">
        <ele>217.579838</ele>
        <time>2020-09-18T09:04:13.941Z</time>
      </trkpt>
      <trkpt lat="48.463925" lon="16.746216">
        <ele>217.564361</ele>
        <time>2020-09-18T09:04:16.924Z</time>
      </trkpt>
      <trkpt lat="48.463932" lon="16.746355">
        <ele>217.553314</ele>
        <time>2020-09-18T09:04:18.921Z</time>
      </trkpt>
      <trkpt lat="48.463939" lon="16.746489">
        <ele>217.542661</ele>
        <time>2020-09-18T09:04:20.900Z</time>
      </trkpt>
      <trkpt lat="48.463945" lon="16.746627">
        <ele>217.531701</ele>
        <time>2020-09-18T09:04:22.911Z</time>
      </trkpt>
      <trkpt lat="48.463952" lon="16.746764">
        <ele>217.520812</ele>
        <time>2020-09-18T09:04:24.900Z</time>
      </trkpt>
      <trkpt lat="48.463962" lon="16.746901">
        <ele>217.509889</ele>
        <time>2020-09-18T09:04:26.911Z</time>
      </trkpt>
      <trkpt lat="48.463970" lon="16.747044">
        <ele>217.498516</ele>
        <time>2020-09-18T09:04:28.931Z</time>
      </trkpt>
      <trkpt lat="48.463976" lon="16.747191">
        <ele>217.486844</ele>
        <time>2020-09-18T09:04:30.891Z</time>
      </trkpt>
      <trkpt lat="48.463979" lon="16.747336">
        <ele>217.475347</ele>
        <time>2020-09-18T09:04:32.923Z</time>
      </trkpt>
      <trkpt lat="48.463988" lon="16.747480">
        <ele>217.463884</ele>
        <time>2020-09-18T09:04:34.898Z</time>
      </trkpt>
      <trkpt lat="48.464003" lon="16.747617">
        <ele>217.452880</ele>
        <time>2020-09-18T09:04:36.893Z</time>
      </trkpt>
      <trkpt lat="48.464014" lon="16.747808">
        <ele>217.437686</ele>
        <time>2020-09-18T09:04:39.889Z</time>
      </trkpt>
      <trkpt lat="48.464029" lon="16.748008">
        <ele>217.421735</ele>
        <time>2020-09-18T09:04:42.906Z</time>
      </trkpt>
      <trkpt lat="48.464038" lon="16.748143">
        <ele>217.410982</ele>
        <time>2020-09-18T09:04:44.900Z</time>
      </trkpt>
      <trkpt lat="48.464049" lon="16.748343">
        <ele>217.395078</ele>
        <time>2020-09-18T09:04:47.931Z</time>
      </trkpt>
      <trkpt lat="48.464055" lon="16.748545">
        <ele>217.379053</ele>
        <time>2020-09-18T09:04:50.924Z</time>
      </trkpt>
      <trkpt lat="48.464064" lon="16.748685">
        <ele>217.367906</ele>
        <time>2020-09-18T09:04:52.899Z</time>
      </trkpt>
      <trkpt lat="48.464088" lon="16.748828">
        <ele>217.347621</ele>
        <time>2020-09-18T09:04:54.899Z</time>
      </trkpt>
      <trkpt lat="48.464116" lon="16.748967">
        <ele>217.326795</ele>
        <time>2020-09-18T09:04:56.899Z</time>
      </trkpt>
      <trkpt lat="48.464128" lon="16.749111">
        <ele>217.305988</ele>
        <time>2020-09-18T09:04:58.937Z</time>
      </trkpt>
      <trkpt lat="48.464136" lon="16.749256">
        <ele>217.285129</ele>
        <time>2020-09-18T09:05:00.899Z</time>
      </trkpt>
      <trkpt lat="48.464142" lon="16.749401">
        <ele>217.264301</ele>
        <time>2020-09-18T09:05:02.914Z</time>
      </trkpt>
      <trkpt lat="48.464148" lon="16.749545">
        <ele>217.243616</ele>
        <time>2020-09-18T09:05:04.891Z</time>
      </trkpt>
      <trkpt lat="48.464156" lon="16.749693">
        <ele>217.222328</ele>
        <time>2020-09-18T09:05:06.897Z</time>
      </trkpt>
      <trkpt lat="48.464160" lon="16.749842">
        <ele>217.200950</ele>
        <time>2020-09-18T09:05:08.901Z</time>
      </trkpt>
      <trkpt lat="48.464167" lon="16.749994">
        <ele>217.179106</ele>
        <time>2020-09-18T09:05:10.916Z</time>
      </trkpt>
      <trkpt lat="48.464177" lon="16.750147">
        <ele>217.157065</ele>
        <time>2020-09-18T09:05:12.897Z</time>
      </trkpt>
      <trkpt lat="48.464189" lon="16.750303">
        <ele>217.134551</ele>
        <time>2020-09-18T09:05:14.897Z</time>
      </trkpt>
      <trkpt lat="48.464198" lon="16.750458">
        <ele>217.112245</ele>
        <time>2020-09-18T09:05:16.918Z</time>
      </trkpt>
      <trkpt lat="48.464207" lon="16.750614">
        <ele>217.089796</ele>
        <time>2020-09-18T09:05:18.893Z</time>
      </trkpt>
      <trkpt lat="48.464213" lon="16.750765">
        <ele>217.068109</ele>
        <time>2020-09-18T09:05:20.911Z</time>
      </trkpt>
      <trkpt lat="48.464219" lon="16.750911">
        <ele>217.047138</ele>
        <time>2020-09-18T09:05:22.916Z</time>
      </trkpt>
      <trkpt lat="48.464225" lon="16.751058">
        <ele>217.026024</ele>
        <time>2020-09-18T09:05:24.916Z</time>
      </trkpt>
      <trkpt lat="48.464234" lon="16.751206">
        <ele>217.004718</ele>
        <time>2020-09-18T09:05:26.896Z</time>
      </trkpt>
      <trkpt lat="48.464243" lon="16.751356">
        <ele>216.983126</ele>
        <time>2020-09-18T09:05:28.903Z</time>
      </trkpt>
      <trkpt lat="48.464257" lon="16.751506">
        <ele>216.973900</ele>
        <time>2020-09-18T09:05:30.922Z</time>
      </trkpt>
      <trkpt lat="48.464268" lon="16.751657">
        <ele>216.968551</ele>
        <time>2020-09-18T09:05:32.917Z</time>
      </trkpt>
      <trkpt lat="48.464273" lon="16.751812">
        <ele>216.963086</ele>
        <time>2020-09-18T09:05:34.908Z</time>
      </trkpt>
      <trkpt lat="48.464278" lon="16.751966">
        <ele>216.957656</ele>
        <time>2020-09-18T09:05:36.893Z</time>
      </trkpt>
      <trkpt lat="48.464281" lon="16.752118">
        <ele>216.952301</ele>
        <time>2020-09-18T09:05:38.895Z</time>
      </trkpt>
      <trkpt lat="48.464285" lon="16.752271">
        <ele>216.946909</ele>
        <time>2020-09-18T09:05:40.942Z</time>
      </trkpt>
      <trkpt lat="48.464296" lon="16.752419">
        <ele>216.941665</ele>
        <time>2020-09-18T09:05:42.891Z</time>
      </trkpt>
      <trkpt lat="48.464307" lon="16.752563">
        <ele>216.936560</ele>
        <time>2020-09-18T09:05:44.908Z</time>
      </trkpt>
      <trkpt lat="48.464318" lon="16.752713">
        <ele>216.931246</ele>
        <time>2020-09-18T09:05:46.897Z</time>
      </trkpt>
      <trkpt lat="48.464331" lon="16.752865">
        <ele>216.925849</ele>
        <time>2020-09-18T09:05:48.889Z</time>
      </trkpt>
      <trkpt lat="48.464345" lon="16.753014">
        <ele>216.920550</ele>
        <time>2020-09-18T09:05:50.900Z</time>
      </trkpt>
      <trkpt lat="48.464360" lon="16.753158">
        <ele>216.915416</ele>
        <time>2020-09-18T09:05:52.882Z</time>
      </trkpt>
      <trkpt lat="48.464377" lon="16.753297">
        <ele>216.910439</ele>
        <time>2020-09-18T09:05:54.901Z</time>
      </trkpt>
      <trkpt lat="48.464403" lon="16.753446">
        <ele>216.905013</ele>
        <time>2020-09-18T09:05:56.905Z</time>
      </trkpt>
      <trkpt lat="48.464433" lon="16.753591">
        <ele>216.899665</ele>
        <time>2020-09-18T09:05:58.898Z</time>
      </trkpt>
      <trkpt lat="48.464463" lon="16.753731">
        <ele>216.894483</ele>
        <time>2020-09-18T09:06:00.881Z</time>
      </trkpt>
      <trkpt lat="48.464490" lon="16.753865">
        <ele>216.889552</ele>
        <time>2020-09-18T09:06:02.886Z</time>
      </trkpt>
      <trkpt lat="48.464517" lon="16.753996">
        <ele>216.884721</ele>
        <time>2020-09-18T09:06:04.902Z</time>
      </trkpt>
      <trkpt lat="48.464549" lon="16.754133">
        <ele>216.885107</ele>
        <time>2020-09-18T09:06:06.904Z</time>
      </trkpt>
      <trkpt lat="48.464583" lon="16.754274">
        <ele>216.890056</ele>
        <time>2020-09-18T09:06:08.886Z</time>
      </trkpt>
      <trkpt lat="48.464618" lon="16.754411">
        <ele>216.894899</ele>
        <time>2020-09-18T09:06:10.904Z</time>
      </trkpt>
      <trkpt lat="48.464653" lon="16.754548">
        <ele>216.899742</ele>
        <time>2020-09-18T09:06:12.879Z</time>
      </trkpt>
      <trkpt lat="48.464689" lon="16.754681">
        <ele>216.904481</ele>
        <time>2020-09-18T09:06:14.906Z</time>
      </trkpt>
      <trkpt lat="48.464729" lon="16.754815">
        <ele>216.909328</ele>
        <time>2020-09-18T09:06:16.901Z</time>
      </trkpt>
      <trkpt lat="48.464776" lon="16.754949">
        <ele>216.914329</ele>
        <time>2020-09-18T09:06:18.881Z</time>
      </trkpt>
      <trkpt lat="48.464825" lon="16.755077">
        <ele>216.919204</ele>
        <time>2020-09-18T09:06:20.901Z</time>
      </trkpt>
      <trkpt lat="48.464875" lon="16.755209">
        <ele>216.924219</ele>
        <time>2020-09-18T09:06:22.879Z</time>
      </trkpt>
      <trkpt lat="48.464922" lon="16.755344">
        <ele>216.929249</ele>
        <time>2020-09-18T09:06:24.921Z</time>
      </trkpt>
      <trkpt lat="48.464967" lon="16.755475">
        <ele>216.934116</ele>
        <time>2020-09-18T09:06:26.897Z</time>
      </trkpt>
      <trkpt lat="48.465012" lon="16.755608">
        <ele>216.939041</ele>
        <time>2020-09-18T09:06:28.918Z</time>
      </trkpt>
      <trkpt lat="48.465058" lon="16.755743">
        <ele>216.944048</ele>
        <time>2020-09-18T09:06:30.888Z</time>
      </trkpt>
      <trkpt lat="48.465104" lon="16.755875">
        <ele>216.948967</ele>
        <time>2020-09-18T09:06:32.905Z</time>
      </trkpt>
      <trkpt lat="48.465150" lon="16.756007">
        <ele>216.953886</ele>
        <time>2020-09-18T09:06:34.902Z</time>
      </trkpt>
      <trkpt lat="48.465200" lon="16.756136">
        <ele>216.958815</ele>
        <time>2020-09-18T09:06:36.945Z</time>
      </trkpt>
      <trkpt lat="48.465250" lon="16.756263">
        <ele>216.963687</ele>
        <time>2020-09-18T09:06:38.920Z</time>
      </trkpt>
      <trkpt lat="48.465301" lon="16.756387">
        <ele>216.968500</ele>
        <time>2020-09-18T09:06:40.889Z</time>
      </trkpt>
      <trkpt lat="48.465351" lon="16.756511">
        <ele>216.970768</ele>
        <time>2020-09-18T09:06:42.910Z</time>
      </trkpt>
      <trkpt lat="48.465398" lon="16.756646">
        <ele>216.966494</ele>
        <time>2020-09-18T09:06:44.894Z</time>
      </trkpt>
      <trkpt lat="48.465444" lon="16.756783">
        <ele>216.962190</ele>
        <time>2020-09-18T09:06:46.929Z</time>
      </trkpt>
      <trkpt lat="48.465485" lon="16.756919">
        <ele>216.958002</ele>
        <time>2020-09-18T09:06:48.908Z</time>
      </trkpt>
      <trkpt lat="48.465526" lon="16.757057">
        <ele>216.953764</ele>
        <time>2020-09-18T09:06:50.890Z</time>
      </trkpt>
      <trkpt lat="48.465570" lon="16.757191">
        <ele>216.949573</ele>
        <time>2020-09-18T09:06:52.903Z</time>
      </trkpt>
      <trkpt lat="48.465614" lon="16.757327">
        <ele>216.945331</ele>
        <time>2020-09-18T09:06:54.896Z</time>
      </trkpt>
      <trkpt lat="48.465651" lon="16.757465">
        <ele>216.941159</ele>
        <time>2020-09-18T09:06:56.913Z</time>
      </trkpt>
      <trkpt lat="48.465685" lon="16.757599">
        <ele>216.937138</ele>
        <time>2020-09-18T09:06:58.893Z</time>
      </trkpt>
      <trkpt lat="48.465719" lon="16.757730">
        <ele>216.933195</ele>
        <time>2020-09-18T09:07:00.908Z</time>
      </trkpt>
      <trkpt lat="48.465753" lon="16.757861">
        <ele>216.929252</ele>
        <time>2020-09-18T09:07:02.888Z</time>
      </trkpt>
      <trkpt lat="48.465784" lon="16.757989">
        <ele>216.925432</ele>
        <time>2020-09-18T09:07:04.906Z</time>
      </trkpt>
      <trkpt lat="48.465816" lon="16.758120">
        <ele>216.921519</ele>
        <time>2020-09-18T09:07:06.897Z</time>
      </trkpt>
      <trkpt lat="48.465845" lon="16.758249">
        <ele>216.917701</ele>
        <time>2020-09-18T09:07:08.918Z</time>
      </trkpt>
      <trkpt lat="48.465871" lon="16.758383">
        <ele>216.913788</ele>
        <time>2020-09-18T09:07:10.915Z</time>
      </trkpt>
      <trkpt lat="48.465899" lon="16.758517">
        <ele>216.909850</ele>
        <time>2020-09-18T09:07:12.896Z</time>
      </trkpt>
      <trkpt lat="48.465926" lon="16.758657">
        <ele>216.905763</ele>
        <time>2020-09-18T09:07:14.917Z</time>
      </trkpt>
      <trkpt lat="48.465949" lon="16.758796">
        <ele>216.901748</ele>
        <time>2020-09-18T09:07:16.938Z</time>
      </trkpt>
      <trkpt lat="48.465974" lon="16.758931">
        <ele>216.897819</ele>
        <time>2020-09-18T09:07:18.914Z</time>
      </trkpt>
      <trkpt lat="48.465996" lon="16.759066">
        <ele>216.885364</ele>
        <time>2020-09-18T09:07:20.924Z</time>
      </trkpt>
      <trkpt lat="48.466016" lon="16.759201">
        <ele>216.864656</ele>
        <time>2020-09-18T09:07:22.908Z</time>
      </trkpt>
      <trkpt lat="48.466038" lon="16.759341">
        <ele>216.843117</ele>
        <time>2020-09-18T09:07:24.896Z</time>
      </trkpt>
      <trkpt lat="48.466060" lon="16.759475">
        <ele>216.822452</ele>
        <time>2020-09-18T09:07:26.901Z</time>
      </trkpt>
      <trkpt lat="48.466085" lon="16.759606">
        <ele>216.802045</ele>
        <time>2020-09-18T09:07:28.922Z</time>
      </trkpt>
      <trkpt lat="48.466103" lon="16.759740">
        <ele>216.781578</ele>
        <time>2020-09-18T09:07:30.911Z</time>
      </trkpt>
      <trkpt lat="48.466121" lon="16.759874">
        <ele>216.761110</ele>
        <time>2020-09-18T09:07:32.922Z</time>
      </trkpt>
      <trkpt lat="48.466143" lon="16.760015">
        <ele>216.739426</ele>
        <time>2020-09-18T09:07:34.936Z</time>
      </trkpt>
      <trkpt lat="48.466164" lon="16.760160">
        <ele>216.717208</ele>
        <time>2020-09-18T09:07:36.926Z</time>
      </trkpt>
      <trkpt lat="48.466179" lon="16.760308">
        <ele>216.694795</ele>
        <time>2020-09-18T09:07:38.909Z</time>
      </trkpt>
      <trkpt lat="48.466193" lon="16.760452">
        <ele>216.673008</ele>
        <time>2020-09-18T09:07:40.890Z</time>
      </trkpt>
      <trkpt lat="48.466209" lon="16.760599">
        <ele>216.650707</ele>
        <time>2020-09-18T09:07:42.903Z</time>
      </trkpt>
      <trkpt lat="48.466224" lon="16.760744">
        <ele>216.628738</ele>
        <time>2020-09-18T09:07:44.924Z</time>
      </trkpt>
      <trkpt lat="48.466238" lon="16.760885">
        <ele>216.607395</ele>
        <time>2020-09-18T09:07:46.893Z</time>
      </trkpt>
      <trkpt lat="48.466245" lon="16.761032">
        <ele>216.585333</ele>
        <time>2020-09-18T09:07:48.889Z</time>
      </trkpt>
      <trkpt lat="48.466250" lon="16.761182">
        <ele>216.562849</ele>
        <time>2020-09-18T09:07:50.883Z</time>
      </trkpt>
      <trkpt lat="48.466254" lon="16.761333">
        <ele>216.540227</ele>
        <time>2020-09-18T09:07:52.884Z</time>
      </trkpt>
      <trkpt lat="48.466258" lon="16.761485">
        <ele>216.517454</ele>
        <time>2020-09-18T09:07:54.886Z</time>
      </trkpt>
      <trkpt lat="48.466261" lon="16.761630">
        <ele>216.495737</ele>
        <time>2020-09-18T09:07:56.903Z</time>
      </trkpt>
      <trkpt lat="48.466266" lon="16.761773">
        <ele>216.466237</ele>
        <time>2020-09-18T09:07:58.905Z</time>
      </trkpt>
      <trkpt lat="48.466274" lon="16.761914">
        <ele>216.434040</ele>
        <time>2020-09-18T09:08:00.922Z</time>
      </trkpt>
      <trkpt lat="48.466270" lon="16.762061">
        <ele>216.400567</ele>
        <time>2020-09-18T09:08:02.912Z</time>
      </trkpt>
      <trkpt lat="48.466268" lon="16.762211">
        <ele>216.366433</ele>
        <time>2020-09-18T09:08:04.931Z</time>
      </trkpt>
      <trkpt lat="48.466263" lon="16.762362">
        <ele>216.332036</ele>
        <time>2020-09-18T09:08:06.906Z</time>
      </trkpt>
      <trkpt lat="48.466260" lon="16.762515">
        <ele>216.297211</ele>
        <time>2020-09-18T09:08:08.900Z</time>
      </trkpt>
      <trkpt lat="48.466256" lon="16.762671">
        <ele>216.261692</ele>
        <time>2020-09-18T09:08:10.934Z</time>
      </trkpt>
      <trkpt lat="48.466250" lon="16.762834">
        <ele>216.224550</ele>
        <time>2020-09-18T09:08:12.923Z</time>
      </trkpt>
      <trkpt lat="48.466240" lon="16.763000">
        <ele>216.186628</ele>
        <time>2020-09-18T09:08:14.899Z</time>
      </trkpt>
      <trkpt lat="48.466230" lon="16.763167">
        <ele>216.148478</ele>
        <time>2020-09-18T09:08:16.899Z</time>
      </trkpt>
      <trkpt lat="48.466222" lon="16.763335">
        <ele>216.110157</ele>
        <time>2020-09-18T09:08:18.916Z</time>
      </trkpt>
      <trkpt lat="48.466213" lon="16.763498">
        <ele>216.072944</ele>
        <time>2020-09-18T09:08:20.924Z</time>
      </trkpt>
      <trkpt lat="48.466203" lon="16.763657">
        <ele>216.036607</ele>
        <time>2020-09-18T09:08:22.920Z</time>
      </trkpt>
      <trkpt lat="48.466191" lon="16.763817">
        <ele>215.999972</ele>
        <time>2020-09-18T09:08:24.927Z</time>
      </trkpt>
      <trkpt lat="48.466178" lon="16.763983">
        <ele>215.961943</ele>
        <time>2020-09-18T09:08:26.923Z</time>
      </trkpt>
      <trkpt lat="48.466162" lon="16.764152">
        <ele>215.923103</ele>
        <time>2020-09-18T09:08:28.912Z</time>
      </trkpt>
      <trkpt lat="48.466145" lon="16.764322">
        <ele>215.883988</ele>
        <time>2020-09-18T09:08:30.906Z</time>
      </trkpt>
      <trkpt lat="48.466123" lon="16.764491">
        <ele>215.850121</ele>
        <time>2020-09-18T09:08:32.923Z</time>
      </trkpt>
      <trkpt lat="48.466105" lon="16.764660">
        <ele>215.818615</ele>
        <time>2020-09-18T09:08:34.934Z</time>
      </trkpt>
      <trkpt lat="48.466090" lon="16.764828">
        <ele>215.787412</ele>
        <time>2020-09-18T09:08:36.916Z</time>
      </trkpt>
      <trkpt lat="48.466077" lon="16.764991">
        <ele>215.757192</ele>
        <time>2020-09-18T09:08:38.904Z</time>
      </trkpt>
      <trkpt lat="48.466063" lon="16.765156">
        <ele>215.726573</ele>
        <time>2020-09-18T09:08:40.901Z</time>
      </trkpt>
      <trkpt lat="48.466046" lon="16.765321">
        <ele>215.695837</ele>
        <time>2020-09-18T09:08:42.905Z</time>
      </trkpt>
      <trkpt lat="48.466029" lon="16.765482">
        <ele>215.665828</ele>
        <time>2020-09-18T09:08:44.911Z</time>
      </trkpt>
      <trkpt lat="48.466012" lon="16.765644">
        <ele>215.635638</ele>
        <time>2020-09-18T09:08:46.903Z</time>
      </trkpt>
      <trkpt lat="48.465995" lon="16.765809">
        <ele>215.604902</ele>
        <time>2020-09-18T09:08:48.933Z</time>
      </trkpt>
      <trkpt lat="48.465978" lon="16.765974">
        <ele>215.574166</ele>
        <time>2020-09-18T09:08:50.913Z</time>
      </trkpt>
      <trkpt lat="48.465964" lon="16.766139">
        <ele>215.543546</ele>
        <time>2020-09-18T09:08:52.926Z</time>
      </trkpt>
      <trkpt lat="48.465950" lon="16.766303">
        <ele>215.513110</ele>
        <time>2020-09-18T09:08:54.923Z</time>
      </trkpt>
      <trkpt lat="48.465936" lon="16.766466">
        <ele>215.482856</ele>
        <time>2020-09-18T09:08:56.914Z</time>
      </trkpt>
      <trkpt lat="48.465922" lon="16.766627">
        <ele>215.452967</ele>
        <time>2020-09-18T09:08:58.915Z</time>
      </trkpt>
      <trkpt lat="48.465909" lon="16.766788">
        <ele>215.423112</ele>
        <time>2020-09-18T09:09:00.900Z</time>
      </trkpt>
      <trkpt lat="48.465895" lon="16.766950">
        <ele>215.393041</ele>
        <time>2020-09-18T09:09:02.903Z</time>
      </trkpt>
      <trkpt lat="48.465881" lon="16.767115">
        <ele>215.360146</ele>
        <time>2020-09-18T09:09:04.937Z</time>
      </trkpt>
      <trkpt lat="48.465869" lon="16.767283">
        <ele>215.322562</ele>
        <time>2020-09-18T09:09:06.922Z</time>
      </trkpt>
      <trkpt lat="48.465855" lon="16.767450">
        <ele>215.285120</ele>
        <time>2020-09-18T09:09:08.933Z</time>
      </trkpt>
      <trkpt lat="48.465843" lon="16.767622">
        <ele>215.246651</ele>
        <time>2020-09-18T09:09:10.913Z</time>
      </trkpt>
      <trkpt lat="48.465831" lon="16.767793">
        <ele>215.208403</ele>
        <time>2020-09-18T09:09:12.892Z</time>
      </trkpt>
      <trkpt lat="48.465821" lon="16.767960">
        <ele>215.171105</ele>
        <time>2020-09-18T09:09:14.928Z</time>
      </trkpt>
      <trkpt lat="48.465816" lon="16.768132">
        <ele>215.132810</ele>
        <time>2020-09-18T09:09:16.913Z</time>
      </trkpt>
      <trkpt lat="48.465820" lon="16.768307">
        <ele>215.093862</ele>
        <time>2020-09-18T09:09:18.897Z</time>
      </trkpt>
      <trkpt lat="48.465832" lon="16.768478">
        <ele>215.055614</ele>
        <time>2020-09-18T09:09:20.905Z</time>
      </trkpt>
      <trkpt lat="48.465847" lon="16.768647">
        <ele>215.017687</ele>
        <time>2020-09-18T09:09:22.921Z</time>
      </trkpt>
      <trkpt lat="48.465860" lon="16.768815">
        <ele>214.980065</ele>
        <time>2020-09-18T09:09:24.930Z</time>
      </trkpt>
      <trkpt lat="48.465871" lon="16.768979">
        <ele>214.943401</ele>
        <time>2020-09-18T09:09:26.894Z</time>
      </trkpt>
      <trkpt lat="48.465884" lon="16.769142">
        <ele>214.906883</ele>
        <time>2020-09-18T09:09:28.904Z</time>
      </trkpt>
      <trkpt lat="48.465895" lon="16.769301">
        <ele>214.871324</ele>
        <time>2020-09-18T09:09:30.912Z</time>
      </trkpt>
      <trkpt lat="48.465911" lon="16.769461">
        <ele>214.835333</ele>
        <time>2020-09-18T09:09:32.912Z</time>
      </trkpt>
      <trkpt lat="48.465933" lon="16.769620">
        <ele>214.799205</ele>
        <time>2020-09-18T09:09:34.922Z</time>
      </trkpt>
      <trkpt lat="48.465958" lon="16.769777">
        <ele>214.763361</ele>
        <time>2020-09-18T09:09:36.914Z</time>
      </trkpt>
      <trkpt lat="48.465990" lon="16.769933">
        <ele>214.727425</ele>
        <time>2020-09-18T09:09:38.899Z</time>
      </trkpt>
      <trkpt lat="48.466021" lon="16.770086">
        <ele>214.692218</ele>
        <time>2020-09-18T09:09:40.899Z</time>
      </trkpt>
      <trkpt lat="48.466053" lon="16.770242">
        <ele>214.656282</ele>
        <time>2020-09-18T09:09:42.941Z</time>
      </trkpt>
      <trkpt lat="48.466084" lon="16.770406">
        <ele>214.618752</ele>
        <time>2020-09-18T09:09:44.919Z</time>
      </trkpt>
      <trkpt lat="48.466114" lon="16.770565">
        <ele>214.582372</ele>
        <time>2020-09-18T09:09:46.923Z</time>
      </trkpt>
      <trkpt lat="48.466154" lon="16.770724">
        <ele>214.544948</ele>
        <time>2020-09-18T09:09:48.911Z</time>
      </trkpt>
      <trkpt lat="48.466203" lon="16.770879">
        <ele>214.507159</ele>
        <time>2020-09-18T09:09:50.915Z</time>
      </trkpt>
      <trkpt lat="48.466255" lon="16.771032">
        <ele>214.469323</ele>
        <time>2020-09-18T09:09:52.898Z</time>
      </trkpt>
      <trkpt lat="48.466309" lon="16.771184">
        <ele>214.431374</ele>
        <time>2020-09-18T09:09:54.909Z</time>
      </trkpt>
      <trkpt lat="48.466358" lon="16.771337">
        <ele>214.393982</ele>
        <time>2020-09-18T09:09:56.911Z</time>
      </trkpt>
      <trkpt lat="48.466409" lon="16.771492">
        <ele>214.355902</ele>
        <time>2020-09-18T09:09:58.915Z</time>
      </trkpt>
      <trkpt lat="48.466460" lon="16.771643">
        <ele>214.318609</ele>
        <time>2020-09-18T09:10:00.920Z</time>
      </trkpt>
      <trkpt lat="48.466511" lon="16.771791">
        <ele>214.281904</ele>
        <time>2020-09-18T09:10:02.906Z</time>
      </trkpt>
      <trkpt lat="48.466560" lon="16.771937">
        <ele>214.245893</ele>
        <time>2020-09-18T09:10:04.913Z</time>
      </trkpt>
      <trkpt lat="48.466608" lon="16.772082">
        <ele>214.210227</ele>
        <time>2020-09-18T09:10:06.892Z</time>
      </trkpt>
      <trkpt lat="48.466658" lon="16.772225">
        <ele>214.174650</ele>
        <time>2020-09-18T09:10:08.925Z</time>
      </trkpt>
      <trkpt lat="48.466708" lon="16.772367">
        <ele>214.145503</ele>
        <time>2020-09-18T09:10:10.915Z</time>
      </trkpt>
      <trkpt lat="48.466755" lon="16.772510">
        <ele>214.116872</ele>
        <time>2020-09-18T09:10:12.944Z</time>
      </trkpt>
      <trkpt lat="48.466804" lon="16.772653">
        <ele>214.087996</ele>
        <time>2020-09-18T09:10:14.897Z</time>
      </trkpt>
      <trkpt lat="48.466856" lon="16.772793">
        <ele>214.059209</ele>
        <time>2020-09-18T09:10:16.927Z</time>
      </trkpt>
      <trkpt lat="48.466908" lon="16.772934">
        <ele>214.030266</ele>
        <time>2020-09-18T09:10:18.921Z</time>
      </trkpt>
      <trkpt lat="48.466961" lon="16.773076">
        <ele>214.001034</ele>
        <time>2020-09-18T09:10:20.901Z</time>
      </trkpt>
      <trkpt lat="48.467008" lon="16.773221">
        <ele>213.972081</ele>
        <time>2020-09-18T09:10:22.918Z</time>
      </trkpt>
      <trkpt lat="48.467053" lon="16.773371">
        <ele>213.942546</ele>
        <time>2020-09-18T09:10:24.897Z</time>
      </trkpt>
      <trkpt lat="48.467101" lon="16.773511">
        <ele>213.914273</ele>
        <time>2020-09-18T09:10:26.926Z</time>
      </trkpt>
      <trkpt lat="48.467150" lon="16.773652">
        <ele>213.885715</ele>
        <time>2020-09-18T09:10:28.924Z</time>
      </trkpt>
      <trkpt lat="48.467195" lon="16.773798">
        <ele>213.856833</ele>
        <time>2020-09-18T09:10:30.903Z</time>
      </trkpt>
      <trkpt lat="48.467237" lon="16.773946">
        <ele>213.827954</ele>
        <time>2020-09-18T09:10:32.908Z</time>
      </trkpt>
      <trkpt lat="48.467275" lon="16.774096">
        <ele>213.799149</ele>
        <time>2020-09-18T09:10:34.909Z</time>
      </trkpt>
      <trkpt lat="48.467309" lon="16.774242">
        <ele>213.771389</ele>
        <time>2020-09-18T09:10:36.902Z</time>
      </trkpt>
      <trkpt lat="48.467344" lon="16.774390">
        <ele>213.743202</ele>
        <time>2020-09-18T09:10:38.938Z</time>
      </trkpt>
      <trkpt lat="48.467376" lon="16.774538">
        <ele>213.715276</ele>
        <time>2020-09-18T09:10:40.931Z</time>
      </trkpt>
      <trkpt lat="48.467407" lon="16.774688">
        <ele>213.687091</ele>
        <time>2020-09-18T09:10:42.915Z</time>
      </trkpt>
      <trkpt lat="48.467431" lon="16.774836">
        <ele>213.644385</ele>
        <time>2020-09-18T09:10:44.912Z</time>
      </trkpt>
      <trkpt lat="48.467454" lon="16.774987">
        <ele>213.600539</ele>
        <time>2020-09-18T09:10:46.888Z</time>
      </trkpt>
      <trkpt lat="48.467477" lon="16.775138">
        <ele>213.556693</ele>
        <time>2020-09-18T09:10:48.902Z</time>
      </trkpt>
      <trkpt lat="48.467503" lon="16.775286">
        <ele>213.513364</ele>
        <time>2020-09-18T09:10:50.915Z</time>
      </trkpt>
      <trkpt lat="48.467520" lon="16.775437">
        <ele>213.470020</ele>
        <time>2020-09-18T09:10:52.907Z</time>
      </trkpt>
      <trkpt lat="48.467528" lon="16.775591">
        <ele>213.426305</ele>
        <time>2020-09-18T09:10:54.913Z</time>
      </trkpt>
      <trkpt lat="48.467533" lon="16.775747">
        <ele>213.382105</ele>
        <time>2020-09-18T09:10:56.902Z</time>
      </trkpt>
      <trkpt lat="48.467540" lon="16.775900">
        <ele>213.338704</ele>
        <time>2020-09-18T09:10:58.904Z</time>
      </trkpt>
      <trkpt lat="48.467564" lon="16.776051">
        <ele>213.294760</ele>
        <time>2020-09-18T09:11:00.934Z</time>
      </trkpt>
      <trkpt lat="48.467582" lon="16.776208">
        <ele>213.249670</ele>
        <time>2020-09-18T09:11:02.898Z</time>
      </trkpt>
      <trkpt lat="48.467598" lon="16.776368">
        <ele>213.203879</ele>
        <time>2020-09-18T09:11:04.905Z</time>
      </trkpt>
      <trkpt lat="48.467612" lon="16.776530">
        <ele>213.157645</ele>
        <time>2020-09-18T09:11:06.917Z</time>
      </trkpt>
      <trkpt lat="48.467623" lon="16.776687">
        <ele>213.112967</ele>
        <time>2020-09-18T09:11:08.902Z</time>
      </trkpt>
      <trkpt lat="48.467626" lon="16.776839">
        <ele>213.069933</ele>
        <time>2020-09-18T09:11:10.906Z</time>
      </trkpt>
      <trkpt lat="48.467639" lon="16.776995">
        <ele>213.025438</ele>
        <time>2020-09-18T09:11:12.936Z</time>
      </trkpt>
      <trkpt lat="48.467654" lon="16.777155">
        <ele>212.979708</ele>
        <time>2020-09-18T09:11:14.927Z</time>
      </trkpt>
      <trkpt lat="48.467669" lon="16.777315">
        <ele>212.933978</ele>
        <time>2020-09-18T09:11:16.907Z</time>
      </trkpt>
      <trkpt lat="48.467683" lon="16.777473">
        <ele>212.897139</ele>
        <time>2020-09-18T09:11:18.906Z</time>
      </trkpt>
      <trkpt lat="48.467697" lon="16.777626">
        <ele>212.865554</ele>
        <time>2020-09-18T09:11:20.902Z</time>
      </trkpt>
      <trkpt lat="48.467708" lon="16.777782">
        <ele>212.833472</ele>
        <time>2020-09-18T09:11:22.908Z</time>
      </trkpt>
      <trkpt lat="48.467717" lon="16.777936">
        <ele>212.801858</ele>
        <time>2020-09-18T09:11:24.910Z</time>
      </trkpt>
      <trkpt lat="48.467726" lon="16.778088">
        <ele>212.770650</ele>
        <time>2020-09-18T09:11:26.890Z</time>
      </trkpt>
      <trkpt lat="48.467725" lon="16.778237">
        <ele>212.740179</ele>
        <time>2020-09-18T09:11:28.895Z</time>
      </trkpt>
      <trkpt lat="48.467727" lon="16.778381">
        <ele>212.710725</ele>
        <time>2020-09-18T09:11:30.892Z</time>
      </trkpt>
      <trkpt lat="48.467753" lon="16.778536">
        <ele>212.678029</ele>
        <time>2020-09-18T09:11:34.909Z</time>
      </trkpt>
      <trkpt lat="48.467851" lon="16.778487">
        <ele>212.646186</ele>
        <time>2020-09-18T09:11:38.886Z</time>
      </trkpt>
      <trkpt lat="48.467957" lon="16.778437">
        <ele>212.611931</ele>
        <time>2020-09-18T09:11:41.898Z</time>
      </trkpt>
      <trkpt lat="48.468064" lon="16.778356">
        <ele>212.575006</ele>
        <time>2020-09-18T09:11:44.916Z</time>
      </trkpt>
      <trkpt lat="48.468173" lon="16.778264">
        <ele>212.536482</ele>
        <time>2020-09-18T09:11:47.895Z</time>
      </trkpt>
      <trkpt lat="48.468281" lon="16.778179">
        <ele>212.498910</ele>
        <time>2020-09-18T09:11:50.906Z</time>
      </trkpt>
      <trkpt lat="48.468386" lon="16.778099">
        <ele>212.462628</ele>
        <time>2020-09-18T09:11:53.910Z</time>
      </trkpt>
      <trkpt lat="48.468492" lon="16.778017">
        <ele>212.425885</ele>
        <time>2020-09-18T09:11:56.927Z</time>
      </trkpt>
      <trkpt lat="48.468598" lon="16.777952">
        <ele>212.390593</ele>
        <time>2020-09-18T09:11:59.904Z</time>
      </trkpt>
      <trkpt lat="48.468701" lon="16.778026">
        <ele>212.358433</ele>
        <time>2020-09-18T09:12:02.895Z</time>
      </trkpt>
      <trkpt lat="48.468773" lon="16.778153">
        <ele>212.336379</ele>
        <time>2020-09-18T09:12:05.905Z</time>
      </trkpt>
      <trkpt lat="48.468845" lon="16.778284">
        <ele>212.313921</ele>
        <time>2020-09-18T09:12:08.912Z</time>
      </trkpt>
      <trkpt lat="48.468889" lon="16.778450">
        <ele>212.290325</ele>
        <time>2020-09-18T09:12:11.916Z</time>
      </trkpt>
      <trkpt lat="48.468920" lon="16.778628">
        <ele>212.266034</ele>
        <time>2020-09-18T09:12:14.906Z</time>
      </trkpt>
      <trkpt lat="48.468954" lon="16.778806">
        <ele>212.241586</ele>
        <time>2020-09-18T09:12:17.912Z</time>
      </trkpt>
      <trkpt lat="48.468999" lon="16.778980">
        <ele>212.216935</ele>
        <time>2020-09-18T09:12:20.900Z</time>
      </trkpt>
      <trkpt lat="48.469031" lon="16.779170">
        <ele>212.191061</ele>
        <time>2020-09-18T09:12:23.927Z</time>
      </trkpt>
      <trkpt lat="48.469056" lon="16.779360">
        <ele>212.165495</ele>
        <time>2020-09-18T09:12:26.915Z</time>
      </trkpt>
      <trkpt lat="48.469085" lon="16.779545">
        <ele>212.140404</ele>
        <time>2020-09-18T09:12:29.895Z</time>
      </trkpt>
      <trkpt lat="48.469117" lon="16.779729">
        <ele>212.115297</ele>
        <time>2020-09-18T09:12:32.904Z</time>
      </trkpt>
      <trkpt lat="48.469154" lon="16.779910">
        <ele>212.090298</ele>
        <time>2020-09-18T09:12:35.911Z</time>
      </trkpt>
      <trkpt lat="48.469194" lon="16.780092">
        <ele>212.064992</ele>
        <time>2020-09-18T09:12:38.927Z</time>
      </trkpt>
      <trkpt lat="48.469244" lon="16.780276">
        <ele>212.038746</ele>
        <time>2020-09-18T09:12:41.928Z</time>
      </trkpt>
      <trkpt lat="48.469303" lon="16.780458">
        <ele>212.012007</ele>
        <time>2020-09-18T09:12:44.894Z</time>
      </trkpt>
      <trkpt lat="48.469338" lon="16.780585">
        <ele>211.988048</ele>
        <time>2020-09-18T09:12:46.900Z</time>
      </trkpt>
      <trkpt lat="48.469391" lon="16.780772">
        <ele>211.948261</ele>
        <time>2020-09-18T09:12:49.916Z</time>
      </trkpt>
      <trkpt lat="48.469432" lon="16.780898">
        <ele>211.920803</ele>
        <time>2020-09-18T09:12:51.933Z</time>
      </trkpt>
      <trkpt lat="48.469471" lon="16.781023">
        <ele>211.893776</ele>
        <time>2020-09-18T09:12:53.920Z</time>
      </trkpt>
      <trkpt lat="48.469508" lon="16.781150">
        <ele>211.866637</ele>
        <time>2020-09-18T09:12:55.910Z</time>
      </trkpt>
      <trkpt lat="48.469543" lon="16.781283">
        <ele>211.838643</ele>
        <time>2020-09-18T09:12:57.911Z</time>
      </trkpt>
      <trkpt lat="48.469573" lon="16.781417">
        <ele>211.810974</ele>
        <time>2020-09-18T09:12:59.897Z</time>
      </trkpt>
      <trkpt lat="48.469613" lon="16.781548">
        <ele>211.782759</ele>
        <time>2020-09-18T09:13:01.905Z</time>
      </trkpt>
      <trkpt lat="48.469651" lon="16.781678">
        <ele>211.754964</ele>
        <time>2020-09-18T09:13:03.916Z</time>
      </trkpt>
      <trkpt lat="48.469689" lon="16.781808">
        <ele>211.727170</ele>
        <time>2020-09-18T09:13:05.916Z</time>
      </trkpt>
      <trkpt lat="48.469727" lon="16.781945">
        <ele>211.698117</ele>
        <time>2020-09-18T09:13:07.910Z</time>
      </trkpt>
      <trkpt lat="48.469759" lon="16.782080">
        <ele>211.670069</ele>
        <time>2020-09-18T09:13:09.892Z</time>
      </trkpt>
      <trkpt lat="48.469792" lon="16.782216">
        <ele>211.641737</ele>
        <time>2020-09-18T09:13:11.891Z</time>
      </trkpt>
      <trkpt lat="48.469830" lon="16.782348">
        <ele>211.613584</ele>
        <time>2020-09-18T09:13:13.893Z</time>
      </trkpt>
      <trkpt lat="48.469869" lon="16.782481">
        <ele>211.585134</ele>
        <time>2020-09-18T09:13:15.899Z</time>
      </trkpt>
      <trkpt lat="48.469907" lon="16.782612">
        <ele>211.557160</ele>
        <time>2020-09-18T09:13:17.897Z</time>
      </trkpt>
      <trkpt lat="48.469943" lon="16.782748">
        <ele>211.528512</ele>
        <time>2020-09-18T09:13:19.937Z</time>
      </trkpt>
      <trkpt lat="48.469977" lon="16.782879">
        <ele>211.500990</ele>
        <time>2020-09-18T09:13:21.904Z</time>
      </trkpt>
      <trkpt lat="48.470013" lon="16.783010">
        <ele>211.473890</ele>
        <time>2020-09-18T09:13:23.886Z</time>
      </trkpt>
      <trkpt lat="48.470052" lon="16.783139">
        <ele>211.455392</ele>
        <time>2020-09-18T09:13:25.894Z</time>
      </trkpt>
      <trkpt lat="48.470085" lon="16.783268">
        <ele>211.437353</ele>
        <time>2020-09-18T09:13:27.920Z</time>
      </trkpt>
      <trkpt lat="48.470121" lon="16.783396">
        <ele>211.419212</ele>
        <time>2020-09-18T09:13:29.917Z</time>
      </trkpt>
      <trkpt lat="48.470154" lon="16.783529">
        <ele>211.400685</ele>
        <time>2020-09-18T09:13:31.901Z</time>
      </trkpt>
      <trkpt lat="48.470185" lon="16.783663">
        <ele>211.382169</ele>
        <time>2020-09-18T09:13:33.914Z</time>
      </trkpt>
      <trkpt lat="48.470211" lon="16.783795">
        <ele>211.364203</ele>
        <time>2020-09-18T09:13:35.891Z</time>
      </trkpt>
      <trkpt lat="48.470236" lon="16.783931">
        <ele>211.345790</ele>
        <time>2020-09-18T09:13:37.893Z</time>
      </trkpt>
      <trkpt lat="48.470260" lon="16.784079">
        <ele>211.325912</ele>
        <time>2020-09-18T09:13:39.912Z</time>
      </trkpt>
      <trkpt lat="48.470276" lon="16.784235">
        <ele>211.305317</ele>
        <time>2020-09-18T09:13:41.899Z</time>
      </trkpt>
      <trkpt lat="48.470279" lon="16.784400">
        <ele>211.283781</ele>
        <time>2020-09-18T09:13:43.912Z</time>
      </trkpt>
      <trkpt lat="48.470264" lon="16.784575">
        <ele>211.260760</ele>
        <time>2020-09-18T09:13:45.909Z</time>
      </trkpt>
      <trkpt lat="48.470243" lon="16.784748">
        <ele>211.237814</ele>
        <time>2020-09-18T09:13:47.886Z</time>
      </trkpt>
      <trkpt lat="48.470225" lon="16.784920">
        <ele>211.215095</ele>
        <time>2020-09-18T09:13:49.889Z</time>
      </trkpt>
      <trkpt lat="48.470206" lon="16.785089">
        <ele>211.192732</ele>
        <time>2020-09-18T09:13:51.893Z</time>
      </trkpt>
      <trkpt lat="48.470190" lon="16.785258">
        <ele>211.170459</ele>
        <time>2020-09-18T09:13:53.915Z</time>
      </trkpt>
      <trkpt lat="48.470175" lon="16.785423">
        <ele>211.148730</ele>
        <time>2020-09-18T09:13:55.892Z</time>
      </trkpt>
      <trkpt lat="48.470155" lon="16.785588">
        <ele>211.126846</ele>
        <time>2020-09-18T09:13:57.924Z</time>
      </trkpt>
      <trkpt lat="48.470141" lon="16.785756">
        <ele>211.114294</ele>
        <time>2020-09-18T09:13:59.901Z</time>
      </trkpt>
      <trkpt lat="48.470130" lon="16.785926">
        <ele>211.104906</ele>
        <time>2020-09-18T09:14:01.904Z</time>
      </trkpt>
      <trkpt lat="48.470106" lon="16.786095">
        <ele>211.095407</ele>
        <time>2020-09-18T09:14:03.904Z</time>
      </trkpt>
      <trkpt lat="48.470078" lon="16.786258">
        <ele>211.086153</ele>
        <time>2020-09-18T09:14:05.905Z</time>
      </trkpt>
      <trkpt lat="48.470054" lon="16.786417">
        <ele>211.077190</ele>
        <time>2020-09-18T09:14:07.918Z</time>
      </trkpt>
      <trkpt lat="48.470034" lon="16.786562">
        <ele>211.069050</ele>
        <time>2020-09-18T09:14:09.906Z</time>
      </trkpt>
      <trkpt lat="48.470029" lon="16.786713">
        <ele>211.060741</ele>
        <time>2020-09-18T09:14:11.884Z</time>
      </trkpt>
      <trkpt lat="48.470033" lon="16.786869">
        <ele>211.052160</ele>
        <time>2020-09-18T09:14:13.905Z</time>
      </trkpt>
      <trkpt lat="48.470046" lon="16.787013">
        <ele>211.044173</ele>
        <time>2020-09-18T09:14:15.912Z</time>
      </trkpt>
      <trkpt lat="48.470062" lon="16.787154">
        <ele>211.036311</ele>
        <time>2020-09-18T09:14:17.931Z</time>
      </trkpt>
      <trkpt lat="48.470084" lon="16.787288">
        <ele>211.028724</ele>
        <time>2020-09-18T09:14:19.897Z</time>
      </trkpt>
      <trkpt lat="48.470112" lon="16.787418">
        <ele>211.021211</ele>
        <time>2020-09-18T09:14:21.917Z</time>
      </trkpt>
      <trkpt lat="48.470131" lon="16.787602">
        <ele>211.010976</ele>
        <time>2020-09-18T09:14:24.914Z</time>
      </trkpt>
      <trkpt lat="48.470135" lon="16.787780">
        <ele>211.001188</ele>
        <time>2020-09-18T09:14:27.916Z</time>
      </trkpt>
      <trkpt lat="48.470136" lon="16.787962">
        <ele>210.991184</ele>
        <time>2020-09-18T09:14:30.913Z</time>
      </trkpt>
      <trkpt lat="48.470135" lon="16.788152">
        <ele>210.980742</ele>
        <time>2020-09-18T09:14:33.902Z</time>
      </trkpt>
      <trkpt lat="48.470135" lon="16.788349">
        <ele>210.972178</ele>
        <time>2020-09-18T09:14:36.916Z</time>
      </trkpt>
      <trkpt lat="48.470129" lon="16.788547">
        <ele>210.972380</ele>
        <time>2020-09-18T09:14:39.904Z</time>
      </trkpt>
      <trkpt lat="48.470112" lon="16.788741">
        <ele>210.972580</ele>
        <time>2020-09-18T09:14:42.893Z</time>
      </trkpt>
      <trkpt lat="48.470099" lon="16.788935">
        <ele>210.972780</ele>
        <time>2020-09-18T09:14:45.911Z</time>
      </trkpt>
      <trkpt lat="48.470086" lon="16.789130">
        <ele>210.972980</ele>
        <time>2020-09-18T09:14:48.914Z</time>
      </trkpt>
      <trkpt lat="48.470066" lon="16.789323">
        <ele>210.973180</ele>
        <time>2020-09-18T09:14:51.906Z</time>
      </trkpt>
      <trkpt lat="48.470049" lon="16.789523">
        <ele>210.973386</ele>
        <time>2020-09-18T09:14:54.907Z</time>
      </trkpt>
      <trkpt lat="48.470039" lon="16.789661">
        <ele>210.973528</ele>
        <time>2020-09-18T09:14:56.896Z</time>
      </trkpt>
      <trkpt lat="48.470030" lon="16.789802">
        <ele>210.973673</ele>
        <time>2020-09-18T09:14:58.907Z</time>
      </trkpt>
      <trkpt lat="48.470015" lon="16.789939">
        <ele>210.973815</ele>
        <time>2020-09-18T09:15:00.904Z</time>
      </trkpt>
      <trkpt lat="48.470009" lon="16.790084">
        <ele>210.973963</ele>
        <time>2020-09-18T09:15:02.906Z</time>
      </trkpt>
      <trkpt lat="48.470003" lon="16.790233">
        <ele>210.974116</ele>
        <time>2020-09-18T09:15:04.924Z</time>
      </trkpt>
      <trkpt lat="48.469989" lon="16.790387">
        <ele>210.974275</ele>
        <time>2020-09-18T09:15:06.908Z</time>
      </trkpt>
      <trkpt lat="48.469973" lon="16.790543">
        <ele>210.974436</ele>
        <time>2020-09-18T09:15:08.897Z</time>
      </trkpt>
      <trkpt lat="48.469964" lon="16.790704">
        <ele>210.974602</ele>
        <time>2020-09-18T09:15:10.930Z</time>
      </trkpt>
      <trkpt lat="48.469948" lon="16.790858">
        <ele>210.974761</ele>
        <time>2020-09-18T09:15:12.897Z</time>
      </trkpt>
      <trkpt lat="48.469930" lon="16.791009">
        <ele>210.974795</ele>
        <time>2020-09-18T09:15:14.921Z</time>
      </trkpt>
      <trkpt lat="48.469911" lon="16.791156">
        <ele>210.972492</ele>
        <time>2020-09-18T09:15:16.907Z</time>
      </trkpt>
      <trkpt lat="48.469892" lon="16.791308">
        <ele>210.970114</ele>
        <time>2020-09-18T09:15:18.913Z</time>
      </trkpt>
      <trkpt lat="48.469875" lon="16.791459">
        <ele>210.967760</ele>
        <time>2020-09-18T09:15:20.888Z</time>
      </trkpt>
      <trkpt lat="48.469860" lon="16.791607">
        <ele>210.965458</ele>
        <time>2020-09-18T09:15:22.901Z</time>
      </trkpt>
      <trkpt lat="48.469846" lon="16.791756">
        <ele>210.963144</ele>
        <time>2020-09-18T09:15:24.890Z</time>
      </trkpt>
      <trkpt lat="48.469833" lon="16.791900">
        <ele>210.960910</ele>
        <time>2020-09-18T09:15:26.910Z</time>
      </trkpt>
      <trkpt lat="48.469817" lon="16.792045">
        <ele>210.958650</ele>
        <time>2020-09-18T09:15:28.889Z</time>
      </trkpt>
      <trkpt lat="48.469800" lon="16.792191">
        <ele>210.956371</ele>
        <time>2020-09-18T09:15:30.919Z</time>
      </trkpt>
      <trkpt lat="48.469787" lon="16.792336">
        <ele>210.954121</ele>
        <time>2020-09-18T09:15:32.942Z</time>
      </trkpt>
      <trkpt lat="48.469773" lon="16.792477">
        <ele>210.951929</ele>
        <time>2020-09-18T09:15:34.898Z</time>
      </trkpt>
      <trkpt lat="48.469758" lon="16.792678">
        <ele>210.948820</ele>
        <time>2020-09-18T09:15:37.892Z</time>
      </trkpt>
      <trkpt lat="48.469733" lon="16.792867">
        <ele>210.945857</ele>
        <time>2020-09-18T09:15:40.898Z</time>
      </trkpt>
      <trkpt lat="48.469712" lon="16.793044">
        <ele>210.943092</ele>
        <time>2020-09-18T09:15:43.909Z</time>
      </trkpt>
      <trkpt lat="48.469691" lon="16.793216">
        <ele>210.940403</ele>
        <time>2020-09-18T09:15:46.917Z</time>
      </trkpt>
      <trkpt lat="48.469678" lon="16.793392">
        <ele>210.937681</ele>
        <time>2020-09-18T09:15:49.903Z</time>
      </trkpt>
      <trkpt lat="48.469659" lon="16.793574">
        <ele>210.934848</ele>
        <time>2020-09-18T09:15:52.897Z</time>
      </trkpt>
      <trkpt lat="48.469644" lon="16.793767">
        <ele>210.922218</ele>
        <time>2020-09-18T09:15:55.909Z</time>
      </trkpt>
      <trkpt lat="48.469637" lon="16.793971">
        <ele>210.896511</ele>
        <time>2020-09-18T09:15:58.914Z</time>
      </trkpt>
      <trkpt lat="48.469627" lon="16.794121">
        <ele>210.877538</ele>
        <time>2020-09-18T09:16:00.888Z</time>
      </trkpt>
      <trkpt lat="48.469620" lon="16.794276">
        <ele>210.857987</ele>
        <time>2020-09-18T09:16:02.890Z</time>
      </trkpt>
      <trkpt lat="48.469602" lon="16.794443">
        <ele>210.836694</ele>
        <time>2020-09-18T09:16:04.887Z</time>
      </trkpt>
      <trkpt lat="48.469582" lon="16.794618">
        <ele>210.814346</ele>
        <time>2020-09-18T09:16:06.891Z</time>
      </trkpt>
      <trkpt lat="48.469563" lon="16.794796">
        <ele>210.791657</ele>
        <time>2020-09-18T09:16:08.903Z</time>
      </trkpt>
      <trkpt lat="48.469541" lon="16.794982">
        <ele>210.767879</ele>
        <time>2020-09-18T09:16:10.902Z</time>
      </trkpt>
      <trkpt lat="48.469518" lon="16.795173">
        <ele>210.743449</ele>
        <time>2020-09-18T09:16:12.929Z</time>
      </trkpt>
      <trkpt lat="48.469490" lon="16.795362">
        <ele>210.719077</ele>
        <time>2020-09-18T09:16:14.924Z</time>
      </trkpt>
      <trkpt lat="48.469463" lon="16.795552">
        <ele>210.694623</ele>
        <time>2020-09-18T09:16:16.903Z</time>
      </trkpt>
      <trkpt lat="48.469439" lon="16.795745">
        <ele>210.669911</ele>
        <time>2020-09-18T09:16:18.894Z</time>
      </trkpt>
      <trkpt lat="48.469416" lon="16.795938">
        <ele>210.645233</ele>
        <time>2020-09-18T09:16:20.895Z</time>
      </trkpt>
      <trkpt lat="48.469388" lon="16.796123">
        <ele>210.621352</ele>
        <time>2020-09-18T09:16:22.921Z</time>
      </trkpt>
      <trkpt lat="48.469353" lon="16.796292">
        <ele>210.599070</ele>
        <time>2020-09-18T09:16:24.925Z</time>
      </trkpt>
      <trkpt lat="48.469309" lon="16.796450">
        <ele>210.600421</ele>
        <time>2020-09-18T09:16:26.907Z</time>
      </trkpt>
      <trkpt lat="48.469262" lon="16.796603">
        <ele>210.613216</ele>
        <time>2020-09-18T09:16:28.900Z</time>
      </trkpt>
      <trkpt lat="48.469211" lon="16.796750">
        <ele>210.625806</ele>
        <time>2020-09-18T09:16:30.898Z</time>
      </trkpt>
      <trkpt lat="48.469160" lon="16.796900">
        <ele>210.638599</ele>
        <time>2020-09-18T09:16:32.891Z</time>
      </trkpt>
      <trkpt lat="48.469110" lon="16.797048">
        <ele>210.651203</ele>
        <time>2020-09-18T09:16:34.904Z</time>
      </trkpt>
      <trkpt lat="48.469058" lon="16.797198">
        <ele>210.664048</ele>
        <time>2020-09-18T09:16:36.889Z</time>
      </trkpt>
      <trkpt lat="48.469006" lon="16.797342">
        <ele>210.676491</ele>
        <time>2020-09-18T09:16:38.921Z</time>
      </trkpt>
      <trkpt lat="48.468953" lon="16.797479">
        <ele>210.688528</ele>
        <time>2020-09-18T09:16:40.920Z</time>
      </trkpt>
      <trkpt lat="48.468900" lon="16.797608">
        <ele>210.700044</ele>
        <time>2020-09-18T09:16:42.913Z</time>
      </trkpt>
      <trkpt lat="48.468847" lon="16.797734">
        <ele>210.711367</ele>
        <time>2020-09-18T09:16:44.927Z</time>
      </trkpt>
      <trkpt lat="48.468792" lon="16.797859">
        <ele>210.722752</ele>
        <time>2020-09-18T09:16:46.927Z</time>
      </trkpt>
      <trkpt lat="48.468737" lon="16.797984">
        <ele>210.734136</ele>
        <time>2020-09-18T09:16:48.917Z</time>
      </trkpt>
      <trkpt lat="48.468678" lon="16.798107">
        <ele>210.745657</ele>
        <time>2020-09-18T09:16:50.899Z</time>
      </trkpt>
      <trkpt lat="48.468617" lon="16.798224">
        <ele>210.756951</ele>
        <time>2020-09-18T09:16:52.899Z</time>
      </trkpt>
      <trkpt lat="48.468556" lon="16.798330">
        <ele>210.767603</ele>
        <time>2020-09-18T09:16:54.905Z</time>
      </trkpt>
      <trkpt lat="48.468496" lon="16.798438">
        <ele>210.778295</ele>
        <time>2020-09-18T09:16:56.908Z</time>
      </trkpt>
      <trkpt lat="48.468436" lon="16.798550">
        <ele>210.789222</ele>
        <time>2020-09-18T09:16:58.923Z</time>
      </trkpt>
      <trkpt lat="48.468375" lon="16.798656">
        <ele>210.818688</ele>
        <time>2020-09-18T09:17:00.916Z</time>
      </trkpt>
      <trkpt lat="48.468329" lon="16.798803">
        <ele>210.935878</ele>
        <time>2020-09-18T09:17:03.891Z</time>
      </trkpt>
      <trkpt lat="48.468435" lon="16.798847">
        <ele>211.055424</ele>
        <time>2020-09-18T09:17:07.892Z</time>
      </trkpt>
      <trkpt lat="48.468530" lon="16.798899">
        <ele>211.165316</ele>
        <time>2020-09-18T09:17:10.892Z</time>
      </trkpt>
      <trkpt lat="48.468618" lon="16.798951">
        <ele>211.268085</ele>
        <time>2020-09-18T09:17:13.930Z</time>
      </trkpt>
      <trkpt lat="48.468719" lon="16.799001">
        <ele>211.383673</ele>
        <time>2020-09-18T09:17:16.907Z</time>
      </trkpt>
      <trkpt lat="48.468820" lon="16.799033">
        <ele>211.495893</ele>
        <time>2020-09-18T09:17:19.918Z</time>
      </trkpt>
      <trkpt lat="48.468914" lon="16.799065">
        <ele>211.600676</ele>
        <time>2020-09-18T09:17:22.911Z</time>
      </trkpt>
      <trkpt lat="48.469022" lon="16.799105">
        <ele>211.721599</ele>
        <time>2020-09-18T09:17:26.928Z</time>
      </trkpt>
      <trkpt lat="48.469122" lon="16.799134">
        <ele>211.832327</ele>
        <time>2020-09-18T09:17:30.918Z</time>
      </trkpt>
      <trkpt lat="48.469233" lon="16.799142">
        <ele>211.953161</ele>
        <time>2020-09-18T09:17:34.914Z</time>
      </trkpt>
      <trkpt lat="48.469344" lon="16.799169">
        <ele>212.075418</ele>
        <time>2020-09-18T09:17:38.929Z</time>
      </trkpt>
      <trkpt lat="48.469451" lon="16.799192">
        <ele>212.192941</ele>
        <time>2020-09-18T09:17:42.898Z</time>
      </trkpt>
      <trkpt lat="48.469551" lon="16.799195">
        <ele>212.301698</ele>
        <time>2020-09-18T09:17:46.917Z</time>
      </trkpt>
      <trkpt lat="48.469656" lon="16.799228">
        <ele>212.418323</ele>
        <time>2020-09-18T09:17:50.890Z</time>
      </trkpt>
      <trkpt lat="48.469758" lon="16.799224">
        <ele>212.529271</ele>
        <time>2020-09-18T09:17:55.898Z</time>
      </trkpt>
      <trkpt lat="48.469848" lon="16.799241">
        <ele>212.627897</ele>
        <time>2020-09-18T09:17:59.910Z</time>
      </trkpt>
      <trkpt lat="48.469938" lon="16.799286">
        <ele>212.730997</ele>
        <time>2020-09-18T09:18:04.893Z</time>
      </trkpt>
      <trkpt lat="48.470208" lon="16.799137">
        <ele>213.412525</ele>
        <time>2020-09-18T09:18:49.892Z</time>
      </trkpt>
      <trkpt lat="48.470312" lon="16.799033">
        <ele>213.720695</ele>
        <time>2020-09-18T09:18:52.891Z</time>
      </trkpt>
      <trkpt lat="48.470387" lon="16.798952">
        <ele>213.948509</ele>
        <time>2020-09-18T09:18:54.907Z</time>
      </trkpt>
      <trkpt lat="48.470469" lon="16.798844">
        <ele>214.217366</ele>
        <time>2020-09-18T09:18:57.900Z</time>
      </trkpt>
      <trkpt lat="48.470540" lon="16.798747">
        <ele>214.453953</ele>
        <time>2020-09-18T09:19:00.898Z</time>
      </trkpt>
      <trkpt lat="48.470627" lon="16.798687">
        <ele>214.690210</ele>
        <time>2020-09-18T09:19:03.916Z</time>
      </trkpt>
      <trkpt lat="48.470771" lon="16.798575">
        <ele>215.090343</ele>
        <time>2020-09-18T09:19:37.900Z</time>
      </trkpt>
      <trkpt lat="48.470857" lon="16.798518">
        <ele>215.322336</ele>
        <time>2020-09-18T09:19:40.895Z</time>
      </trkpt>
      <trkpt lat="48.470949" lon="16.798455">
        <ele>215.571867</ele>
        <time>2020-09-18T09:19:43.885Z</time>
      </trkpt>
      <trkpt lat="48.471037" lon="16.798400">
        <ele>215.807118</ele>
        <time>2020-09-18T09:19:46.894Z</time>
      </trkpt>
      <trkpt lat="48.471126" lon="16.798293">
        <ele>216.088201</ele>
        <time>2020-09-18T09:19:50.909Z</time>
      </trkpt>
      <trkpt lat="48.471198" lon="16.798152">
        <ele>216.379612</ele>
        <time>2020-09-18T09:19:54.903Z</time>
      </trkpt>
      <trkpt lat="48.471252" lon="16.797995">
        <ele>216.669216</ele>
        <time>2020-09-18T09:19:58.906Z</time>
      </trkpt>
      <trkpt lat="48.471329" lon="16.797874">
        <ele>216.943834</ele>
        <time>2020-09-18T09:20:01.899Z</time>
      </trkpt>
      <trkpt lat="48.471415" lon="16.797780">
        <ele>217.206268</ele>
        <time>2020-09-18T09:20:04.882Z</time>
      </trkpt>
      <trkpt lat="48.471503" lon="16.797671">
        <ele>217.491092</ele>
        <time>2020-09-18T09:20:07.895Z</time>
      </trkpt>
      <trkpt lat="48.471573" lon="16.797540">
        <ele>217.770112</ele>
        <time>2020-09-18T09:20:10.906Z</time>
      </trkpt>
      <trkpt lat="48.471654" lon="16.797402">
        <ele>218.075763</ele>
        <time>2020-09-18T09:20:13.883Z</time>
      </trkpt>
      <trkpt lat="48.471718" lon="16.797303">
        <ele>218.305067</ele>
        <time>2020-09-18T09:20:15.896Z</time>
      </trkpt>
      <trkpt lat="48.471823" lon="16.797206">
        <ele>218.613052</ele>
        <time>2020-09-18T09:20:18.894Z</time>
      </trkpt>
      <trkpt lat="48.471926" lon="16.797092">
        <ele>218.932607</ele>
        <time>2020-09-18T09:20:21.888Z</time>
      </trkpt>
      <trkpt lat="48.472000" lon="16.796995">
        <ele>219.177834</ele>
        <time>2020-09-18T09:20:23.890Z</time>
      </trkpt>
      <trkpt lat="48.472092" lon="16.796894">
        <ele>219.462455</ele>
        <time>2020-09-18T09:20:25.923Z</time>
      </trkpt>
      <trkpt lat="48.472178" lon="16.796796">
        <ele>219.732057</ele>
        <time>2020-09-18T09:20:27.933Z</time>
      </trkpt>
      <trkpt lat="48.472253" lon="16.796709">
        <ele>219.968717</ele>
        <time>2020-09-18T09:20:29.920Z</time>
      </trkpt>
      <trkpt lat="48.472342" lon="16.796674">
        <ele>220.198776</ele>
        <time>2020-09-18T09:20:31.898Z</time>
      </trkpt>
      <trkpt lat="48.472461" lon="16.796679">
        <ele>220.496547</ele>
        <time>2020-09-18T09:20:34.956Z</time>
      </trkpt>
      <trkpt lat="48.472575" lon="16.796648">
        <ele>220.786293</ele>
        <time>2020-09-18T09:20:37.917Z</time>
      </trkpt>
      <trkpt lat="48.472686" lon="16.796612">
        <ele>221.070285</ele>
        <time>2020-09-18T09:20:40.930Z</time>
      </trkpt>
      <trkpt lat="48.472801" lon="16.796617">
        <ele>221.358055</ele>
        <time>2020-09-18T09:20:43.895Z</time>
      </trkpt>
      <trkpt lat="48.472912" lon="16.796646">
        <ele>221.639834</ele>
        <time>2020-09-18T09:20:46.898Z</time>
      </trkpt>
      <trkpt lat="48.473007" lon="16.796655">
        <ele>221.765268</ele>
        <time>2020-09-18T09:20:49.945Z</time>
      </trkpt>
      <trkpt lat="48.473108" lon="16.796671">
        <ele>221.863310</ele>
        <time>2020-09-18T09:20:52.902Z</time>
      </trkpt>
      <trkpt lat="48.473218" lon="16.796690">
        <ele>221.970198</ele>
        <time>2020-09-18T09:20:55.897Z</time>
      </trkpt>
      <trkpt lat="48.473336" lon="16.796740">
        <ele>222.088525</ele>
        <time>2020-09-18T09:20:58.911Z</time>
      </trkpt>
      <trkpt lat="48.473446" lon="16.796779">
        <ele>222.197614</ele>
        <time>2020-09-18T09:21:01.910Z</time>
      </trkpt>
      <trkpt lat="48.473581" lon="16.796802">
        <ele>222.328772</ele>
        <time>2020-09-18T09:21:04.900Z</time>
      </trkpt>
      <trkpt lat="48.473684" lon="16.796784">
        <ele>222.428874</ele>
        <time>2020-09-18T09:21:06.894Z</time>
      </trkpt>
      <trkpt lat="48.473794" lon="16.796751">
        <ele>222.537148</ele>
        <time>2020-09-18T09:21:08.898Z</time>
      </trkpt>
      <trkpt lat="48.473913" lon="16.796729">
        <ele>222.652891</ele>
        <time>2020-09-18T09:21:10.891Z</time>
      </trkpt>
      <trkpt lat="48.474032" lon="16.796761">
        <ele>222.769585</ele>
        <time>2020-09-18T09:21:12.885Z</time>
      </trkpt>
      <trkpt lat="48.474160" lon="16.796796">
        <ele>222.895171</ele>
        <time>2020-09-18T09:21:14.899Z</time>
      </trkpt>
      <trkpt lat="48.474296" lon="16.796846">
        <ele>223.030309</ele>
        <time>2020-09-18T09:21:16.922Z</time>
      </trkpt>
      <trkpt lat="48.474440" lon="16.796905">
        <ele>223.174364</ele>
        <time>2020-09-18T09:21:18.906Z</time>
      </trkpt>
      <trkpt lat="48.474588" lon="16.796965">
        <ele>223.322315</ele>
        <time>2020-09-18T09:21:20.897Z</time>
      </trkpt>
      <trkpt lat="48.474736" lon="16.797034">
        <ele>223.474959</ele>
        <time>2020-09-18T09:21:22.910Z</time>
      </trkpt>
      <trkpt lat="48.474882" lon="16.797121">
        <ele>223.637952</ele>
        <time>2020-09-18T09:21:24.895Z</time>
      </trkpt>
      <trkpt lat="48.475030" lon="16.797201">
        <ele>223.801190</ele>
        <time>2020-09-18T09:21:26.909Z</time>
      </trkpt>
      <trkpt lat="48.475176" lon="16.797293">
        <ele>223.965479</ele>
        <time>2020-09-18T09:21:28.917Z</time>
      </trkpt>
      <trkpt lat="48.475321" lon="16.797378">
        <ele>224.127003</ele>
        <time>2020-09-18T09:21:30.935Z</time>
      </trkpt>
      <trkpt lat="48.475464" lon="16.797400">
        <ele>224.276251</ele>
        <time>2020-09-18T09:21:32.896Z</time>
      </trkpt>
      <trkpt lat="48.475597" lon="16.797340">
        <ele>224.420390</ele>
        <time>2020-09-18T09:21:34.893Z</time>
      </trkpt>
      <trkpt lat="48.475701" lon="16.797215">
        <ele>224.558461</ele>
        <time>2020-09-18T09:21:36.884Z</time>
      </trkpt>
      <trkpt lat="48.475800" lon="16.797104">
        <ele>224.686540</ele>
        <time>2020-09-18T09:21:38.909Z</time>
      </trkpt>
      <trkpt lat="48.475883" lon="16.796976">
        <ele>224.809786</ele>
        <time>2020-09-18T09:21:40.901Z</time>
      </trkpt>
      <trkpt lat="48.475948" lon="16.796844">
        <ele>224.922969</ele>
        <time>2020-09-18T09:21:42.896Z</time>
      </trkpt>
      <trkpt lat="48.475995" lon="16.796708">
        <ele>225.028538</ele>
        <time>2020-09-18T09:21:44.908Z</time>
      </trkpt>
      <trkpt lat="48.476030" lon="16.796576">
        <ele>225.126396</ele>
        <time>2020-09-18T09:21:46.895Z</time>
      </trkpt>
      <trkpt lat="48.476057" lon="16.796399">
        <ele>225.251414</ele>
        <time>2020-09-18T09:21:49.939Z</time>
      </trkpt>
      <trkpt lat="48.476079" lon="16.796242">
        <ele>225.435001</ele>
        <time>2020-09-18T09:21:52.921Z</time>
      </trkpt>
      <trkpt lat="48.476096" lon="16.796095">
        <ele>225.656096</ele>
        <time>2020-09-18T09:21:55.913Z</time>
      </trkpt>
      <trkpt lat="48.476112" lon="16.795960">
        <ele>225.859292</ele>
        <time>2020-09-18T09:21:58.891Z</time>
      </trkpt>
      <trkpt lat="48.476130" lon="16.795822">
        <ele>226.067683</ele>
        <time>2020-09-18T09:22:01.888Z</time>
      </trkpt>
      <trkpt lat="48.476155" lon="16.795645">
        <ele>226.335824</ele>
        <time>2020-09-18T09:22:05.909Z</time>
      </trkpt>
      <trkpt lat="48.476175" lon="16.795506">
        <ele>226.546571</ele>
        <time>2020-09-18T09:22:08.930Z</time>
      </trkpt>
      <trkpt lat="48.476205" lon="16.795373">
        <ele>226.754727</ele>
        <time>2020-09-18T09:22:11.927Z</time>
      </trkpt>
      <trkpt lat="48.476237" lon="16.795201">
        <ele>227.019419</ele>
        <time>2020-09-18T09:22:15.907Z</time>
      </trkpt>
      <trkpt lat="48.476269" lon="16.795030">
        <ele>227.282684</ele>
        <time>2020-09-18T09:22:19.894Z</time>
      </trkpt>
      <trkpt lat="48.476303" lon="16.794877">
        <ele>227.521776</ele>
        <time>2020-09-18T09:22:23.899Z</time>
      </trkpt>
      <trkpt lat="48.476334" lon="16.794715">
        <ele>227.771605</ele>
        <time>2020-09-18T09:22:27.897Z</time>
      </trkpt>
      <trkpt lat="48.476360" lon="16.794582">
        <ele>227.977055</ele>
        <time>2020-09-18T09:22:30.917Z</time>
      </trkpt>
      <trkpt lat="48.476377" lon="16.794426">
        <ele>228.211296</ele>
        <time>2020-09-18T09:22:33.903Z</time>
      </trkpt>
      <trkpt lat="48.476397" lon="16.794270">
        <ele>228.446718</ele>
        <time>2020-09-18T09:22:36.933Z</time>
      </trkpt>
      <trkpt lat="48.476458" lon="16.794138">
        <ele>228.685127</ele>
        <time>2020-09-18T09:22:39.882Z</time>
      </trkpt>
      <trkpt lat="48.476521" lon="16.793997">
        <ele>228.937062</ele>
        <time>2020-09-18T09:22:42.902Z</time>
      </trkpt>
      <trkpt lat="48.476586" lon="16.793851">
        <ele>229.197639</ele>
        <time>2020-09-18T09:22:45.900Z</time>
      </trkpt>
      <trkpt lat="48.476654" lon="16.793695">
        <ele>229.489872</ele>
        <time>2020-09-18T09:22:48.893Z</time>
      </trkpt>
      <trkpt lat="48.476718" lon="16.793537">
        <ele>229.791687</ele>
        <time>2020-09-18T09:22:51.902Z</time>
      </trkpt>
      <trkpt lat="48.476785" lon="16.793371">
        <ele>230.108475</ele>
        <time>2020-09-18T09:22:54.921Z</time>
      </trkpt>
      <trkpt lat="48.476857" lon="16.793208">
        <ele>230.427746</ele>
        <time>2020-09-18T09:22:57.922Z</time>
      </trkpt>
      <trkpt lat="48.476923" lon="16.793040">
        <ele>230.746061</ele>
        <time>2020-09-18T09:23:00.898Z</time>
      </trkpt>
      <trkpt lat="48.476988" lon="16.792867">
        <ele>231.070195</ele>
        <time>2020-09-18T09:23:03.889Z</time>
      </trkpt>
      <trkpt lat="48.477058" lon="16.792704">
        <ele>231.386765</ele>
        <time>2020-09-18T09:23:06.898Z</time>
      </trkpt>
      <trkpt lat="48.477121" lon="16.792531">
        <ele>231.708502</ele>
        <time>2020-09-18T09:23:09.894Z</time>
      </trkpt>
      <trkpt lat="48.477191" lon="16.792361">
        <ele>232.034706</ele>
        <time>2020-09-18T09:23:12.907Z</time>
      </trkpt>
      <trkpt lat="48.477244" lon="16.792250">
        <ele>232.257683</ele>
        <time>2020-09-18T09:23:14.893Z</time>
      </trkpt>
      <trkpt lat="48.477299" lon="16.792138">
        <ele>232.484876</ele>
        <time>2020-09-18T09:23:16.908Z</time>
      </trkpt>
      <trkpt lat="48.477355" lon="16.792029">
        <ele>232.709656</ele>
        <time>2020-09-18T09:23:18.922Z</time>
      </trkpt>
      <trkpt lat="48.477411" lon="16.791920">
        <ele>232.934436</ele>
        <time>2020-09-18T09:23:20.897Z</time>
      </trkpt>
      <trkpt lat="48.477473" lon="16.791815">
        <ele>233.163636</ele>
        <time>2020-09-18T09:23:22.902Z</time>
      </trkpt>
      <trkpt lat="48.477542" lon="16.791722">
        <ele>233.391151</ele>
        <time>2020-09-18T09:23:24.893Z</time>
      </trkpt>
      <trkpt lat="48.477611" lon="16.791633">
        <ele>233.614376</ele>
        <time>2020-09-18T09:23:26.899Z</time>
      </trkpt>
      <trkpt lat="48.477677" lon="16.791541">
        <ele>233.778055</ele>
        <time>2020-09-18T09:23:28.922Z</time>
      </trkpt>
      <trkpt lat="48.477771" lon="16.791408">
        <ele>233.902580</ele>
        <time>2020-09-18T09:23:31.899Z</time>
      </trkpt>
      <trkpt lat="48.477864" lon="16.791286">
        <ele>234.021663</ele>
        <time>2020-09-18T09:23:34.926Z</time>
      </trkpt>
      <trkpt lat="48.477958" lon="16.791163">
        <ele>234.141896</ele>
        <time>2020-09-18T09:23:37.919Z</time>
      </trkpt>
      <trkpt lat="48.478047" lon="16.791037">
        <ele>234.259829</ele>
        <time>2020-09-18T09:23:40.921Z</time>
      </trkpt>
      <trkpt lat="48.478143" lon="16.790915">
        <ele>234.381115</ele>
        <time>2020-09-18T09:23:43.913Z</time>
      </trkpt>
      <trkpt lat="48.478240" lon="16.790793">
        <ele>234.503141</ele>
        <time>2020-09-18T09:23:46.926Z</time>
      </trkpt>
      <trkpt lat="48.478339" lon="16.790674">
        <ele>234.625451</ele>
        <time>2020-09-18T09:23:49.909Z</time>
      </trkpt>
      <trkpt lat="48.478435" lon="16.790550">
        <ele>234.747565</ele>
        <time>2020-09-18T09:23:52.933Z</time>
      </trkpt>
      <trkpt lat="48.478532" lon="16.790419">
        <ele>234.873360</ele>
        <time>2020-09-18T09:23:55.901Z</time>
      </trkpt>
      <trkpt lat="48.478625" lon="16.790289">
        <ele>234.995866</ele>
        <time>2020-09-18T09:23:58.911Z</time>
      </trkpt>
      <trkpt lat="48.478723" lon="16.790167">
        <ele>235.118636</ele>
        <time>2020-09-18T09:24:01.908Z</time>
      </trkpt>
      <trkpt lat="48.478820" lon="16.790045">
        <ele>235.240661</ele>
        <time>2020-09-18T09:24:04.912Z</time>
      </trkpt>
      <trkpt lat="48.478917" lon="16.789924">
        <ele>235.362277</ele>
        <time>2020-09-18T09:24:07.940Z</time>
      </trkpt>
      <trkpt lat="48.479013" lon="16.789801">
        <ele>235.483147</ele>
        <time>2020-09-18T09:24:10.900Z</time>
      </trkpt>
      <trkpt lat="48.479107" lon="16.789679">
        <ele>235.583554</ele>
        <time>2020-09-18T09:24:13.910Z</time>
      </trkpt>
      <trkpt lat="48.479200" lon="16.789559">
        <ele>235.682647</ele>
        <time>2020-09-18T09:24:16.906Z</time>
      </trkpt>
      <trkpt lat="48.479294" lon="16.789433">
        <ele>235.784466</ele>
        <time>2020-09-18T09:24:19.922Z</time>
      </trkpt>
      <trkpt lat="48.479388" lon="16.789305">
        <ele>235.887002</ele>
        <time>2020-09-18T09:24:22.893Z</time>
      </trkpt>
      <trkpt lat="48.479477" lon="16.789187">
        <ele>235.982944</ele>
        <time>2020-09-18T09:24:25.901Z</time>
      </trkpt>
      <trkpt lat="48.479568" lon="16.789065">
        <ele>236.081522</ele>
        <time>2020-09-18T09:24:28.925Z</time>
      </trkpt>
      <trkpt lat="48.479653" lon="16.788948">
        <ele>236.174693</ele>
        <time>2020-09-18T09:24:31.890Z</time>
      </trkpt>
      <trkpt lat="48.479726" lon="16.788817">
        <ele>236.266551</ele>
        <time>2020-09-18T09:24:34.900Z</time>
      </trkpt>
      <trkpt lat="48.479782" lon="16.788663">
        <ele>236.360831</ele>
        <time>2020-09-18T09:24:37.895Z</time>
      </trkpt>
      <trkpt lat="48.479826" lon="16.788498">
        <ele>236.456292</ele>
        <time>2020-09-18T09:24:40.890Z</time>
      </trkpt>
      <trkpt lat="48.479864" lon="16.788339">
        <ele>236.547013</ele>
        <time>2020-09-18T09:24:43.925Z</time>
      </trkpt>
      <trkpt lat="48.479896" lon="16.788172">
        <ele>236.640319</ele>
        <time>2020-09-18T09:24:46.909Z</time>
      </trkpt>
      <trkpt lat="48.479924" lon="16.787999">
        <ele>236.735904</ele>
        <time>2020-09-18T09:24:49.907Z</time>
      </trkpt>
      <trkpt lat="48.479938" lon="16.787826">
        <ele>236.829451</ele>
        <time>2020-09-18T09:24:52.933Z</time>
      </trkpt>
      <trkpt lat="48.479954" lon="16.787664">
        <ele>236.917364</ele>
        <time>2020-09-18T09:24:55.930Z</time>
      </trkpt>
      <trkpt lat="48.479976" lon="16.787498">
        <ele>237.042535</ele>
        <time>2020-09-18T09:24:58.926Z</time>
      </trkpt>
      <trkpt lat="48.479993" lon="16.787312">
        <ele>237.190696</ele>
        <time>2020-09-18T09:25:01.902Z</time>
      </trkpt>
      <trkpt lat="48.480019" lon="16.787135">
        <ele>237.333755</ele>
        <time>2020-09-18T09:25:04.918Z</time>
      </trkpt>
      <trkpt lat="48.480049" lon="16.786955">
        <ele>237.480213</ele>
        <time>2020-09-18T09:25:07.898Z</time>
      </trkpt>
      <trkpt lat="48.480060" lon="16.786784">
        <ele>237.615783</ele>
        <time>2020-09-18T09:25:10.919Z</time>
      </trkpt>
      <trkpt lat="48.480076" lon="16.786614">
        <ele>237.751275</ele>
        <time>2020-09-18T09:25:13.910Z</time>
      </trkpt>
      <trkpt lat="48.480094" lon="16.786453">
        <ele>237.880114</ele>
        <time>2020-09-18T09:25:16.912Z</time>
      </trkpt>
      <trkpt lat="48.480113" lon="16.786281">
        <ele>238.017710</ele>
        <time>2020-09-18T09:25:19.917Z</time>
      </trkpt>
      <trkpt lat="48.480140" lon="16.786100">
        <ele>238.164108</ele>
        <time>2020-09-18T09:25:22.932Z</time>
      </trkpt>
      <trkpt lat="48.480158" lon="16.785927">
        <ele>238.302293</ele>
        <time>2020-09-18T09:25:25.900Z</time>
      </trkpt>
      <trkpt lat="48.480181" lon="16.785753">
        <ele>238.442299</ele>
        <time>2020-09-18T09:25:28.886Z</time>
      </trkpt>
      <trkpt lat="48.480200" lon="16.785577">
        <ele>238.583010</ele>
        <time>2020-09-18T09:25:31.894Z</time>
      </trkpt>
      <trkpt lat="48.480217" lon="16.785386">
        <ele>238.735080</ele>
        <time>2020-09-18T09:25:34.898Z</time>
      </trkpt>
      <trkpt lat="48.480226" lon="16.785186">
        <ele>238.893262</ele>
        <time>2020-09-18T09:25:37.898Z</time>
      </trkpt>
      <trkpt lat="48.480238" lon="16.784987">
        <ele>239.050940</ele>
        <time>2020-09-18T09:25:40.891Z</time>
      </trkpt>
      <trkpt lat="48.480258" lon="16.784789">
        <ele>239.191657</ele>
        <time>2020-09-18T09:25:43.894Z</time>
      </trkpt>
      <trkpt lat="48.480269" lon="16.784587">
        <ele>239.330692</ele>
        <time>2020-09-18T09:25:46.907Z</time>
      </trkpt>
      <trkpt lat="48.480280" lon="16.784449">
        <ele>239.426040</ele>
        <time>2020-09-18T09:25:48.888Z</time>
      </trkpt>
      <trkpt lat="48.480304" lon="16.784254">
        <ele>239.562093</ele>
        <time>2020-09-18T09:25:51.927Z</time>
      </trkpt>
      <trkpt lat="48.480326" lon="16.784050">
        <ele>239.703874</ele>
        <time>2020-09-18T09:25:54.915Z</time>
      </trkpt>
      <trkpt lat="48.480334" lon="16.783909">
        <ele>239.800952</ele>
        <time>2020-09-18T09:25:56.922Z</time>
      </trkpt>
      <trkpt lat="48.480346" lon="16.783772">
        <ele>239.895748</ele>
        <time>2020-09-18T09:25:58.893Z</time>
      </trkpt>
      <trkpt lat="48.480360" lon="16.783626">
        <ele>239.996944</ele>
        <time>2020-09-18T09:26:00.897Z</time>
      </trkpt>
      <trkpt lat="48.480379" lon="16.783487">
        <ele>240.094302</ele>
        <time>2020-09-18T09:26:02.886Z</time>
      </trkpt>
      <trkpt lat="48.480395" lon="16.783342">
        <ele>240.195139</ele>
        <time>2020-09-18T09:26:04.917Z</time>
      </trkpt>
      <trkpt lat="48.480403" lon="16.783188">
        <ele>240.301104</ele>
        <time>2020-09-18T09:26:06.899Z</time>
      </trkpt>
      <trkpt lat="48.480417" lon="16.783032">
        <ele>240.409094</ele>
        <time>2020-09-18T09:26:08.891Z</time>
      </trkpt>
      <trkpt lat="48.480431" lon="16.782881">
        <ele>240.513685</ele>
        <time>2020-09-18T09:26:10.897Z</time>
      </trkpt>
      <trkpt lat="48.480467" lon="16.782736">
        <ele>240.619901</ele>
        <time>2020-09-18T09:26:12.886Z</time>
      </trkpt>
      <trkpt lat="48.480559" lon="16.782679">
        <ele>240.722824</ele>
        <time>2020-09-18T09:26:14.914Z</time>
      </trkpt>
      <trkpt lat="48.480654" lon="16.782673">
        <ele>240.821222</ele>
        <time>2020-09-18T09:26:16.892Z</time>
      </trkpt>
      <trkpt lat="48.480781" lon="16.782710">
        <ele>240.949479</ele>
        <time>2020-09-18T09:26:19.910Z</time>
      </trkpt>
      <trkpt lat="48.480901" lon="16.782728">
        <ele>241.034035</ele>
        <time>2020-09-18T09:26:22.904Z</time>
      </trkpt>
      <trkpt lat="48.481025" lon="16.782730">
        <ele>241.120986</ele>
        <time>2020-09-18T09:26:25.901Z</time>
      </trkpt>
      <trkpt lat="48.481140" lon="16.782728">
        <ele>241.201627</ele>
        <time>2020-09-18T09:26:28.908Z</time>
      </trkpt>
      <trkpt lat="48.481253" lon="16.782745">
        <ele>241.281253</ele>
        <time>2020-09-18T09:26:31.923Z</time>
      </trkpt>
      <trkpt lat="48.481369" lon="16.782757">
        <ele>241.362780</ele>
        <time>2020-09-18T09:26:34.895Z</time>
      </trkpt>
      <trkpt lat="48.481478" lon="16.782772">
        <ele>241.439526</ele>
        <time>2020-09-18T09:26:37.915Z</time>
      </trkpt>
      <trkpt lat="48.481589" lon="16.782789">
        <ele>241.517756</ele>
        <time>2020-09-18T09:26:40.897Z</time>
      </trkpt>
      <trkpt lat="48.481705" lon="16.782808">
        <ele>241.599571</ele>
        <time>2020-09-18T09:26:43.903Z</time>
      </trkpt>
      <trkpt lat="48.481824" lon="16.782826">
        <ele>241.683429</ele>
        <time>2020-09-18T09:26:46.896Z</time>
      </trkpt>
      <trkpt lat="48.481947" lon="16.782843">
        <ele>241.770035</ele>
        <time>2020-09-18T09:26:49.915Z</time>
      </trkpt>
      <trkpt lat="48.482067" lon="16.782851">
        <ele>241.854258</ele>
        <time>2020-09-18T09:26:52.922Z</time>
      </trkpt>
      <trkpt lat="48.482188" lon="16.782861">
        <ele>241.939228</ele>
        <time>2020-09-18T09:26:55.902Z</time>
      </trkpt>
      <trkpt lat="48.482315" lon="16.782882">
        <ele>242.028811</ele>
        <time>2020-09-18T09:26:58.913Z</time>
      </trkpt>
      <trkpt lat="48.482441" lon="16.782912">
        <ele>242.118253</ele>
        <time>2020-09-18T09:27:01.929Z</time>
      </trkpt>
      <trkpt lat="48.482568" lon="16.782945">
        <ele>242.210821</ele>
        <time>2020-09-18T09:27:04.928Z</time>
      </trkpt>
      <trkpt lat="48.482700" lon="16.782978">
        <ele>242.325928</ele>
        <time>2020-09-18T09:27:07.900Z</time>
      </trkpt>
      <trkpt lat="48.482796" lon="16.783001">
        <ele>242.409550</ele>
        <time>2020-09-18T09:27:09.918Z</time>
      </trkpt>
      <trkpt lat="48.482891" lon="16.782990">
        <ele>242.491517</ele>
        <time>2020-09-18T09:27:11.888Z</time>
      </trkpt>
      <trkpt lat="48.482964" lon="16.782863">
        <ele>242.587374</ele>
        <time>2020-09-18T09:27:14.904Z</time>
      </trkpt>
      <trkpt lat="48.483007" lon="16.782737">
        <ele>242.668187</ele>
        <time>2020-09-18T09:27:17.908Z</time>
      </trkpt>
      <trkpt lat="48.483052" lon="16.782611">
        <ele>242.749802</ele>
        <time>2020-09-18T09:27:20.891Z</time>
      </trkpt>
      <trkpt lat="48.483097" lon="16.782469">
        <ele>242.839554</ele>
        <time>2020-09-18T09:27:23.908Z</time>
      </trkpt>
      <trkpt lat="48.483150" lon="16.782335">
        <ele>242.928534</ele>
        <time>2020-09-18T09:27:26.922Z</time>
      </trkpt>
      <trkpt lat="48.483203" lon="16.782198">
        <ele>243.018988</ele>
        <time>2020-09-18T09:27:29.896Z</time>
      </trkpt>
      <trkpt lat="48.483264" lon="16.782053">
        <ele>243.116919</ele>
        <time>2020-09-18T09:27:32.910Z</time>
      </trkpt>
      <trkpt lat="48.483307" lon="16.781894">
        <ele>243.214842</ele>
        <time>2020-09-18T09:27:35.908Z</time>
      </trkpt>
      <trkpt lat="48.483365" lon="16.781755">
        <ele>243.308501</ele>
        <time>2020-09-18T09:27:38.893Z</time>
      </trkpt>
      <trkpt lat="48.483421" lon="16.781607">
        <ele>243.405678</ele>
        <time>2020-09-18T09:27:41.921Z</time>
      </trkpt>
      <trkpt lat="48.483474" lon="16.781476">
        <ele>243.493193</ele>
        <time>2020-09-18T09:27:44.901Z</time>
      </trkpt>
      <trkpt lat="48.483525" lon="16.781343">
        <ele>243.580810</ele>
        <time>2020-09-18T09:27:47.898Z</time>
      </trkpt>
      <trkpt lat="48.483574" lon="16.781207">
        <ele>243.669077</ele>
        <time>2020-09-18T09:27:50.903Z</time>
      </trkpt>
      <trkpt lat="48.483622" lon="16.781064">
        <ele>243.765983</ele>
        <time>2020-09-18T09:27:53.898Z</time>
      </trkpt>
      <trkpt lat="48.483672" lon="16.780910">
        <ele>243.901524</ele>
        <time>2020-09-18T09:27:56.919Z</time>
      </trkpt>
      <trkpt lat="48.483718" lon="16.780770">
        <ele>244.025032</ele>
        <time>2020-09-18T09:27:59.901Z</time>
      </trkpt>
      <trkpt lat="48.483775" lon="16.780623">
        <ele>244.159643</ele>
        <time>2020-09-18T09:28:02.893Z</time>
      </trkpt>
      <trkpt lat="48.483835" lon="16.780483">
        <ele>244.291416</ele>
        <time>2020-09-18T09:28:05.919Z</time>
      </trkpt>
      <trkpt lat="48.483883" lon="16.780315">
        <ele>244.436016</ele>
        <time>2020-09-18T09:28:08.906Z</time>
      </trkpt>
      <trkpt lat="48.483928" lon="16.780158">
        <ele>244.571215</ele>
        <time>2020-09-18T09:28:11.893Z</time>
      </trkpt>
      <trkpt lat="48.483984" lon="16.779996">
        <ele>244.715628</ele>
        <time>2020-09-18T09:28:14.896Z</time>
      </trkpt>
      <trkpt lat="48.484034" lon="16.779838">
        <ele>244.854016</ele>
        <time>2020-09-18T09:28:17.901Z</time>
      </trkpt>
      <trkpt lat="48.484074" lon="16.779672">
        <ele>244.993624</ele>
        <time>2020-09-18T09:28:20.923Z</time>
      </trkpt>
      <trkpt lat="48.484112" lon="16.779506">
        <ele>245.132436</ele>
        <time>2020-09-18T09:28:23.914Z</time>
      </trkpt>
      <trkpt lat="48.484178" lon="16.779364">
        <ele>245.269518</ele>
        <time>2020-09-18T09:28:26.888Z</time>
      </trkpt>
      <trkpt lat="48.484280" lon="16.779395">
        <ele>245.393593</ele>
        <time>2020-09-18T09:28:29.911Z</time>
      </trkpt>
      <trkpt lat="48.484392" lon="16.779489">
        <ele>245.546425</ele>
        <time>2020-09-18T09:28:32.902Z</time>
      </trkpt>
      <trkpt lat="48.484492" lon="16.779565">
        <ele>245.679948</ele>
        <time>2020-09-18T09:28:35.896Z</time>
      </trkpt>
      <trkpt lat="48.484602" lon="16.779640">
        <ele>245.823893</ele>
        <time>2020-09-18T09:28:38.930Z</time>
      </trkpt>
      <trkpt lat="48.484715" lon="16.779736">
        <ele>245.918442</ele>
        <time>2020-09-18T09:28:41.906Z</time>
      </trkpt>
      <trkpt lat="48.484830" lon="16.779841">
        <ele>245.968615</ele>
        <time>2020-09-18T09:28:44.882Z</time>
      </trkpt>
      <trkpt lat="48.484913" lon="16.779911">
        <ele>246.004107</ele>
        <time>2020-09-18T09:28:46.921Z</time>
      </trkpt>
      <trkpt lat="48.485004" lon="16.779983">
        <ele>246.042461</ele>
        <time>2020-09-18T09:28:48.929Z</time>
      </trkpt>
      <trkpt lat="48.485098" lon="16.780069">
        <ele>246.083494</ele>
        <time>2020-09-18T09:28:50.916Z</time>
      </trkpt>
      <trkpt lat="48.485199" lon="16.780156">
        <ele>246.126904</ele>
        <time>2020-09-18T09:28:52.920Z</time>
      </trkpt>
      <trkpt lat="48.485303" lon="16.780249">
        <ele>246.172029</ele>
        <time>2020-09-18T09:28:54.905Z</time>
      </trkpt>
      <trkpt lat="48.485416" lon="16.780339">
        <ele>246.219723</ele>
        <time>2020-09-18T09:28:56.908Z</time>
      </trkpt>
      <trkpt lat="48.485526" lon="16.780422">
        <ele>246.265630</ele>
        <time>2020-09-18T09:28:58.904Z</time>
      </trkpt>
      <trkpt lat="48.485629" lon="16.780499">
        <ele>246.308536</ele>
        <time>2020-09-18T09:29:00.918Z</time>
      </trkpt>
      <trkpt lat="48.485717" lon="16.780571">
        <ele>246.345902</ele>
        <time>2020-09-18T09:29:02.903Z</time>
      </trkpt>
      <trkpt lat="48.485830" lon="16.780664">
        <ele>246.393947</ele>
        <time>2020-09-18T09:29:05.922Z</time>
      </trkpt>
      <trkpt lat="48.485938" lon="16.780744">
        <ele>246.438855</ele>
        <time>2020-09-18T09:29:08.887Z</time>
      </trkpt>
      <trkpt lat="48.486036" lon="16.780822">
        <ele>246.480212</ele>
        <time>2020-09-18T09:29:11.900Z</time>
      </trkpt>
      <trkpt lat="48.486130" lon="16.780888">
        <ele>246.518911</ele>
        <time>2020-09-18T09:29:14.918Z</time>
      </trkpt>
      <trkpt lat="48.486231" lon="16.780945">
        <ele>246.559161</ele>
        <time>2020-09-18T09:29:17.902Z</time>
      </trkpt>
      <trkpt lat="48.486323" lon="16.781017">
        <ele>246.639472</ele>
        <time>2020-09-18T09:29:20.901Z</time>
      </trkpt>
      <trkpt lat="48.486414" lon="16.781086">
        <ele>246.722149</ele>
        <time>2020-09-18T09:29:23.920Z</time>
      </trkpt>
      <trkpt lat="48.486506" lon="16.781158">
        <ele>246.806283</ele>
        <time>2020-09-18T09:29:26.906Z</time>
      </trkpt>
      <trkpt lat="48.486603" lon="16.781231">
        <ele>246.894279</ele>
        <time>2020-09-18T09:29:29.891Z</time>
      </trkpt>
      <trkpt lat="48.486703" lon="16.781315">
        <ele>246.987191</ele>
        <time>2020-09-18T09:29:32.892Z</time>
      </trkpt>
      <trkpt lat="48.486790" lon="16.781416">
        <ele>247.076304</ele>
        <time>2020-09-18T09:29:35.903Z</time>
      </trkpt>
      <trkpt lat="48.486883" lon="16.781499">
        <ele>247.164019</ele>
        <time>2020-09-18T09:29:38.932Z</time>
      </trkpt>
      <trkpt lat="48.486987" lon="16.781570">
        <ele>247.256686</ele>
        <time>2020-09-18T09:29:41.909Z</time>
      </trkpt>
      <trkpt lat="48.487090" lon="16.781635">
        <ele>247.347319</ele>
        <time>2020-09-18T09:29:44.900Z</time>
      </trkpt>
      <trkpt lat="48.487195" lon="16.781714">
        <ele>247.442567</ele>
        <time>2020-09-18T09:29:47.914Z</time>
      </trkpt>
      <trkpt lat="48.487295" lon="16.781797">
        <ele>247.535219</ele>
        <time>2020-09-18T09:29:50.892Z</time>
      </trkpt>
      <trkpt lat="48.487404" lon="16.781867">
        <ele>247.631385</ele>
        <time>2020-09-18T09:29:53.924Z</time>
      </trkpt>
      <trkpt lat="48.487518" lon="16.781949">
        <ele>247.733908</ele>
        <time>2020-09-18T09:29:56.891Z</time>
      </trkpt>
      <trkpt lat="48.487631" lon="16.782032">
        <ele>247.835932</ele>
        <time>2020-09-18T09:29:59.918Z</time>
      </trkpt>
      <trkpt lat="48.487744" lon="16.782113">
        <ele>247.937491</ele>
        <time>2020-09-18T09:30:02.909Z</time>
      </trkpt>
      <trkpt lat="48.487858" lon="16.782187">
        <ele>248.039099</ele>
        <time>2020-09-18T09:30:05.901Z</time>
      </trkpt>
      <trkpt lat="48.487971" lon="16.782263">
        <ele>248.145050</ele>
        <time>2020-09-18T09:30:08.904Z</time>
      </trkpt>
      <trkpt lat="48.488075" lon="16.782342">
        <ele>248.244765</ele>
        <time>2020-09-18T09:30:11.904Z</time>
      </trkpt>
      <trkpt lat="48.488183" lon="16.782417">
        <ele>248.346582</ele>
        <time>2020-09-18T09:30:14.918Z</time>
      </trkpt>
      <trkpt lat="48.488292" lon="16.782492">
        <ele>248.449177</ele>
        <time>2020-09-18T09:30:17.908Z</time>
      </trkpt>
      <trkpt lat="48.488405" lon="16.782577">
        <ele>248.557309</ele>
        <time>2020-09-18T09:30:20.896Z</time>
      </trkpt>
      <trkpt lat="48.488521" lon="16.782659">
        <ele>248.667013</ele>
        <time>2020-09-18T09:30:23.891Z</time>
      </trkpt>
      <trkpt lat="48.488605" lon="16.782712">
        <ele>248.744986</ele>
        <time>2020-09-18T09:30:25.885Z</time>
      </trkpt>
      <trkpt lat="48.488689" lon="16.782771">
        <ele>248.824336</ele>
        <time>2020-09-18T09:30:27.887Z</time>
      </trkpt>
      <trkpt lat="48.488779" lon="16.782834">
        <ele>248.909302</ele>
        <time>2020-09-18T09:30:29.915Z</time>
      </trkpt>
      <trkpt lat="48.488902" lon="16.782892">
        <ele>249.019663</ele>
        <time>2020-09-18T09:30:32.888Z</time>
      </trkpt>
      <trkpt lat="48.488995" lon="16.782810">
        <ele>249.111909</ele>
        <time>2020-09-18T09:30:35.919Z</time>
      </trkpt>
      <trkpt lat="48.489048" lon="16.782688">
        <ele>249.194704</ele>
        <time>2020-09-18T09:30:38.889Z</time>
      </trkpt>
      <trkpt lat="48.489105" lon="16.782556">
        <ele>249.284125</ele>
        <time>2020-09-18T09:30:41.920Z</time>
      </trkpt>
      <trkpt lat="48.489157" lon="16.782414">
        <ele>249.376206</ele>
        <time>2020-09-18T09:30:44.901Z</time>
      </trkpt>
      <trkpt lat="48.489214" lon="16.782278">
        <ele>249.467537</ele>
        <time>2020-09-18T09:30:47.892Z</time>
      </trkpt>
      <trkpt lat="48.489317" lon="16.782062">
        <ele>249.655721</ele>
        <time>2020-09-18T09:31:26.889Z</time>
      </trkpt>
      <trkpt lat="48.489388" lon="16.781924">
        <ele>249.821018</ele>
        <time>2020-09-18T09:31:30.921Z</time>
      </trkpt>
      <trkpt lat="48.489441" lon="16.781797">
        <ele>249.963020</ele>
        <time>2020-09-18T09:31:33.901Z</time>
      </trkpt>
      <trkpt lat="48.489501" lon="16.781663">
        <ele>250.116031</ele>
        <time>2020-09-18T09:31:36.894Z</time>
      </trkpt>
      <trkpt lat="48.489567" lon="16.781518">
        <ele>250.282465</ele>
        <time>2020-09-18T09:31:39.906Z</time>
      </trkpt>
      <trkpt lat="48.489635" lon="16.781368">
        <ele>250.454416</ele>
        <time>2020-09-18T09:31:42.897Z</time>
      </trkpt>
      <trkpt lat="48.489700" lon="16.781214">
        <ele>250.627166</ele>
        <time>2020-09-18T09:31:45.923Z</time>
      </trkpt>
      <trkpt lat="48.489771" lon="16.781059">
        <ele>250.805441</ele>
        <time>2020-09-18T09:31:48.887Z</time>
      </trkpt>
      <trkpt lat="48.489841" lon="16.780893">
        <ele>250.991602</ele>
        <time>2020-09-18T09:31:51.930Z</time>
      </trkpt>
      <trkpt lat="48.489908" lon="16.780725">
        <ele>251.177118</ele>
        <time>2020-09-18T09:31:54.906Z</time>
      </trkpt>
      <trkpt lat="48.489974" lon="16.780554">
        <ele>251.364348</ele>
        <time>2020-09-18T09:31:57.900Z</time>
      </trkpt>
      <trkpt lat="48.490023" lon="16.780438">
        <ele>251.494501</ele>
        <time>2020-09-18T09:31:59.894Z</time>
      </trkpt>
      <trkpt lat="48.490079" lon="16.780323">
        <ele>251.629523</ele>
        <time>2020-09-18T09:32:01.933Z</time>
      </trkpt>
      <trkpt lat="48.490133" lon="16.780203">
        <ele>251.766761</ele>
        <time>2020-09-18T09:32:03.907Z</time>
      </trkpt>
      <trkpt lat="48.490183" lon="16.780081">
        <ele>251.902480</ele>
        <time>2020-09-18T09:32:05.916Z</time>
      </trkpt>
      <trkpt lat="48.490235" lon="16.779961">
        <ele>252.038135</ele>
        <time>2020-09-18T09:32:07.909Z</time>
      </trkpt>
      <trkpt lat="48.490289" lon="16.779842">
        <ele>252.147174</ele>
        <time>2020-09-18T09:32:09.888Z</time>
      </trkpt>
      <trkpt lat="48.490344" lon="16.779725">
        <ele>252.198170</ele>
        <time>2020-09-18T09:32:11.888Z</time>
      </trkpt>
      <trkpt lat="48.490399" lon="16.779603">
        <ele>252.250627</ele>
        <time>2020-09-18T09:32:13.899Z</time>
      </trkpt>
      <trkpt lat="48.490449" lon="16.779480">
        <ele>252.301926</ele>
        <time>2020-09-18T09:32:15.928Z</time>
      </trkpt>
      <trkpt lat="48.490498" lon="16.779359">
        <ele>252.352339</ele>
        <time>2020-09-18T09:32:17.893Z</time>
      </trkpt>
      <trkpt lat="48.490553" lon="16.779235">
        <ele>252.405385</ele>
        <time>2020-09-18T09:32:19.916Z</time>
      </trkpt>
      <trkpt lat="48.490608" lon="16.779116">
        <ele>252.456963</ele>
        <time>2020-09-18T09:32:21.910Z</time>
      </trkpt>
      <trkpt lat="48.490663" lon="16.778992">
        <ele>252.510009</ele>
        <time>2020-09-18T09:32:23.916Z</time>
      </trkpt>
      <trkpt lat="48.490716" lon="16.778869">
        <ele>252.562167</ele>
        <time>2020-09-18T09:32:25.910Z</time>
      </trkpt>
      <trkpt lat="48.490768" lon="16.778752">
        <ele>252.612250</ele>
        <time>2020-09-18T09:32:27.908Z</time>
      </trkpt>
      <trkpt lat="48.490819" lon="16.778628">
        <ele>252.664133</ele>
        <time>2020-09-18T09:32:29.922Z</time>
      </trkpt>
      <trkpt lat="48.490872" lon="16.778503">
        <ele>252.716888</ele>
        <time>2020-09-18T09:32:31.929Z</time>
      </trkpt>
      <trkpt lat="48.490931" lon="16.778382">
        <ele>252.770294</ele>
        <time>2020-09-18T09:32:33.930Z</time>
      </trkpt>
      <trkpt lat="48.490986" lon="16.778255">
        <ele>252.824229</ele>
        <time>2020-09-18T09:32:35.904Z</time>
      </trkpt>
      <trkpt lat="48.491038" lon="16.778124">
        <ele>252.878516</ele>
        <time>2020-09-18T09:32:37.894Z</time>
      </trkpt>
      <trkpt lat="48.491092" lon="16.777994">
        <ele>252.933061</ele>
        <time>2020-09-18T09:32:39.904Z</time>
      </trkpt>
      <trkpt lat="48.491150" lon="16.777855">
        <ele>252.991456</ele>
        <time>2020-09-18T09:32:41.903Z</time>
      </trkpt>
      <trkpt lat="48.491208" lon="16.777722">
        <ele>253.048057</ele>
        <time>2020-09-18T09:32:43.909Z</time>
      </trkpt>
      <trkpt lat="48.491271" lon="16.777586">
        <ele>253.099851</ele>
        <time>2020-09-18T09:32:45.901Z</time>
      </trkpt>
      <trkpt lat="48.491332" lon="16.777445">
        <ele>253.122341</ele>
        <time>2020-09-18T09:32:47.903Z</time>
      </trkpt>
      <trkpt lat="48.491391" lon="16.777303">
        <ele>253.144727</ele>
        <time>2020-09-18T09:32:49.924Z</time>
      </trkpt>
      <trkpt lat="48.491449" lon="16.777160">
        <ele>253.167120</ele>
        <time>2020-09-18T09:32:51.902Z</time>
      </trkpt>
      <trkpt lat="48.491509" lon="16.777014">
        <ele>253.190065</ele>
        <time>2020-09-18T09:32:53.898Z</time>
      </trkpt>
      <trkpt lat="48.491570" lon="16.776871">
        <ele>253.212780</ele>
        <time>2020-09-18T09:32:55.920Z</time>
      </trkpt>
      <trkpt lat="48.491632" lon="16.776725">
        <ele>253.235941</ele>
        <time>2020-09-18T09:32:57.892Z</time>
      </trkpt>
      <trkpt lat="48.491695" lon="16.776581">
        <ele>253.258987</ele>
        <time>2020-09-18T09:32:59.887Z</time>
      </trkpt>
      <trkpt lat="48.491762" lon="16.776433">
        <ele>253.282927</ele>
        <time>2020-09-18T09:33:01.921Z</time>
      </trkpt>
      <trkpt lat="48.491826" lon="16.776281">
        <ele>253.306980</ele>
        <time>2020-09-18T09:33:03.912Z</time>
      </trkpt>
      <trkpt lat="48.491890" lon="16.776129">
        <ele>253.331033</ele>
        <time>2020-09-18T09:33:05.890Z</time>
      </trkpt>
      <trkpt lat="48.491959" lon="16.775979">
        <ele>253.355421</ele>
        <time>2020-09-18T09:33:07.910Z</time>
      </trkpt>
      <trkpt lat="48.492065" lon="16.775743">
        <ele>253.393499</ele>
        <time>2020-09-18T09:33:10.901Z</time>
      </trkpt>
      <trkpt lat="48.492136" lon="16.775579">
        <ele>253.419664</ele>
        <time>2020-09-18T09:33:12.891Z</time>
      </trkpt>
      <trkpt lat="48.492206" lon="16.775413">
        <ele>253.445943</ele>
        <time>2020-09-18T09:33:14.914Z</time>
      </trkpt>
      <trkpt lat="48.492278" lon="16.775239">
        <ele>253.439763</ele>
        <time>2020-09-18T09:33:16.909Z</time>
      </trkpt>
      <trkpt lat="48.492356" lon="16.775066">
        <ele>253.406472</ele>
        <time>2020-09-18T09:33:18.894Z</time>
      </trkpt>
      <trkpt lat="48.492430" lon="16.774889">
        <ele>253.373174</ele>
        <time>2020-09-18T09:33:20.910Z</time>
      </trkpt>
      <trkpt lat="48.492500" lon="16.774720">
        <ele>253.341465</ele>
        <time>2020-09-18T09:33:22.907Z</time>
      </trkpt>
      <trkpt lat="48.492572" lon="16.774559">
        <ele>253.310563</ele>
        <time>2020-09-18T09:33:24.880Z</time>
      </trkpt>
      <trkpt lat="48.492642" lon="16.774401">
        <ele>253.280324</ele>
        <time>2020-09-18T09:33:26.911Z</time>
      </trkpt>
      <trkpt lat="48.492708" lon="16.774242">
        <ele>253.250473</ele>
        <time>2020-09-18T09:33:28.937Z</time>
      </trkpt>
      <trkpt lat="48.492772" lon="16.774083">
        <ele>253.220875</ele>
        <time>2020-09-18T09:33:30.904Z</time>
      </trkpt>
      <trkpt lat="48.492839" lon="16.773920">
        <ele>253.190358</ele>
        <time>2020-09-18T09:33:32.916Z</time>
      </trkpt>
      <trkpt lat="48.492914" lon="16.773741">
        <ele>253.156663</ele>
        <time>2020-09-18T09:33:34.905Z</time>
      </trkpt>
      <trkpt lat="48.493001" lon="16.773547">
        <ele>253.119394</ele>
        <time>2020-09-18T09:33:36.897Z</time>
      </trkpt>
      <trkpt lat="48.493094" lon="16.773331">
        <ele>253.078411</ele>
        <time>2020-09-18T09:33:38.926Z</time>
      </trkpt>
      <trkpt lat="48.493182" lon="16.773103">
        <ele>253.036432</ele>
        <time>2020-09-18T09:33:40.915Z</time>
      </trkpt>
      <trkpt lat="48.493280" lon="16.772896">
        <ele>252.859837</ele>
        <time>2020-09-18T09:33:42.884Z</time>
      </trkpt>
      <trkpt lat="48.493392" lon="16.772746">
        <ele>252.662057</ele>
        <time>2020-09-18T09:33:44.890Z</time>
      </trkpt>
      <trkpt lat="48.493504" lon="16.772633">
        <ele>252.484118</ele>
        <time>2020-09-18T09:33:46.891Z</time>
      </trkpt>
      <trkpt lat="48.493599" lon="16.772530">
        <ele>252.329621</ele>
        <time>2020-09-18T09:33:48.901Z</time>
      </trkpt>
      <trkpt lat="48.493683" lon="16.772441">
        <ele>252.194064</ele>
        <time>2020-09-18T09:33:50.898Z</time>
      </trkpt>
      <trkpt lat="48.493759" lon="16.772360">
        <ele>252.071177</ele>
        <time>2020-09-18T09:33:52.900Z</time>
      </trkpt>
      <trkpt lat="48.493870" lon="16.772247">
        <ele>251.894335</ele>
        <time>2020-09-18T09:33:55.913Z</time>
      </trkpt>
      <trkpt lat="48.493951" lon="16.772163">
        <ele>251.764529</ele>
        <time>2020-09-18T09:33:57.900Z</time>
      </trkpt>
      <trkpt lat="48.494032" lon="16.772068">
        <ele>251.629038</ele>
        <time>2020-09-18T09:33:59.916Z</time>
      </trkpt>
      <trkpt lat="48.494124" lon="16.771974">
        <ele>251.482298</ele>
        <time>2020-09-18T09:34:01.916Z</time>
      </trkpt>
      <trkpt lat="48.494222" lon="16.771878">
        <ele>251.327987</ele>
        <time>2020-09-18T09:34:03.902Z</time>
      </trkpt>
      <trkpt lat="48.494328" lon="16.771767">
        <ele>251.157583</ele>
        <time>2020-09-18T09:34:05.898Z</time>
      </trkpt>
      <trkpt lat="48.494440" lon="16.771640">
        <ele>250.972554</ele>
        <time>2020-09-18T09:34:07.929Z</time>
      </trkpt>
      <trkpt lat="48.494560" lon="16.771505">
        <ele>250.774871</ele>
        <time>2020-09-18T09:34:09.909Z</time>
      </trkpt>
      <trkpt lat="48.494685" lon="16.771373">
        <ele>250.565697</ele>
        <time>2020-09-18T09:34:11.905Z</time>
      </trkpt>
      <trkpt lat="48.494808" lon="16.771243">
        <ele>250.347681</ele>
        <time>2020-09-18T09:34:13.902Z</time>
      </trkpt>
      <trkpt lat="48.494926" lon="16.771127">
        <ele>250.143222</ele>
        <time>2020-09-18T09:34:15.902Z</time>
      </trkpt>
      <trkpt lat="48.495026" lon="16.771027">
        <ele>249.969057</ele>
        <time>2020-09-18T09:34:17.896Z</time>
      </trkpt>
      <trkpt lat="48.495113" lon="16.770940">
        <ele>249.817533</ele>
        <time>2020-09-18T09:34:19.907Z</time>
      </trkpt>
      <trkpt lat="48.495191" lon="16.770857">
        <ele>249.678969</ele>
        <time>2020-09-18T09:34:21.928Z</time>
      </trkpt>
      <trkpt lat="48.495296" lon="16.770739">
        <ele>249.488901</ele>
        <time>2020-09-18T09:34:24.921Z</time>
      </trkpt>
      <trkpt lat="48.495395" lon="16.770634">
        <ele>249.313223</ele>
        <time>2020-09-18T09:34:27.902Z</time>
      </trkpt>
      <trkpt lat="48.495492" lon="16.770538">
        <ele>249.144813</ele>
        <time>2020-09-18T09:34:30.911Z</time>
      </trkpt>
      <trkpt lat="48.495592" lon="16.770435">
        <ele>248.969037</ele>
        <time>2020-09-18T09:34:33.891Z</time>
      </trkpt>
      <trkpt lat="48.495698" lon="16.770314">
        <ele>248.776076</ele>
        <time>2020-09-18T09:34:36.894Z</time>
      </trkpt>
      <trkpt lat="48.495804" lon="16.770195">
        <ele>248.584269</ele>
        <time>2020-09-18T09:34:39.912Z</time>
      </trkpt>
      <trkpt lat="48.495909" lon="16.770083">
        <ele>248.397592</ele>
        <time>2020-09-18T09:34:42.926Z</time>
      </trkpt>
      <trkpt lat="48.496011" lon="16.769980">
        <ele>248.219411</ele>
        <time>2020-09-18T09:34:45.896Z</time>
      </trkpt>
      <trkpt lat="48.496104" lon="16.769878">
        <ele>248.052500</ele>
        <time>2020-09-18T09:34:48.896Z</time>
      </trkpt>
      <trkpt lat="48.496192" lon="16.769779">
        <ele>247.925041</ele>
        <time>2020-09-18T09:34:51.888Z</time>
      </trkpt>
      <trkpt lat="48.496280" lon="16.769684">
        <ele>247.802210</ele>
        <time>2020-09-18T09:34:54.890Z</time>
      </trkpt>
      <trkpt lat="48.496371" lon="16.769580">
        <ele>247.672622</ele>
        <time>2020-09-18T09:34:57.897Z</time>
      </trkpt>
      <trkpt lat="48.496466" lon="16.769488">
        <ele>247.544478</ele>
        <time>2020-09-18T09:35:00.895Z</time>
      </trkpt>
      <trkpt lat="48.496559" lon="16.769382">
        <ele>247.412172</ele>
        <time>2020-09-18T09:35:03.882Z</time>
      </trkpt>
      <trkpt lat="48.496652" lon="16.769269">
        <ele>247.276627</ele>
        <time>2020-09-18T09:35:06.948Z</time>
      </trkpt>
      <trkpt lat="48.496752" lon="16.769161">
        <ele>247.137027</ele>
        <time>2020-09-18T09:35:09.899Z</time>
      </trkpt>
      <trkpt lat="48.496865" lon="16.769044">
        <ele>246.981455</ele>
        <time>2020-09-18T09:35:12.910Z</time>
      </trkpt>
      <trkpt lat="48.496948" lon="16.768948">
        <ele>246.862738</ele>
        <time>2020-09-18T09:35:14.924Z</time>
      </trkpt>
      <trkpt lat="48.497036" lon="16.768854">
        <ele>246.740344</ele>
        <time>2020-09-18T09:35:16.895Z</time>
      </trkpt>
      <trkpt lat="48.497125" lon="16.768757">
        <ele>246.615714</ele>
        <time>2020-09-18T09:35:18.900Z</time>
      </trkpt>
      <trkpt lat="48.497214" lon="16.768660">
        <ele>246.491084</ele>
        <time>2020-09-18T09:35:20.904Z</time>
      </trkpt>
      <trkpt lat="48.497298" lon="16.768572">
        <ele>246.374999</ele>
        <time>2020-09-18T09:35:22.906Z</time>
      </trkpt>
      <trkpt lat="48.497375" lon="16.768495">
        <ele>246.270136</ele>
        <time>2020-09-18T09:35:24.905Z</time>
      </trkpt>
      <trkpt lat="48.497483" lon="16.768386">
        <ele>246.122640</ele>
        <time>2020-09-18T09:35:27.915Z</time>
      </trkpt>
      <trkpt lat="48.497580" lon="16.768286">
        <ele>246.006844</ele>
        <time>2020-09-18T09:35:30.906Z</time>
      </trkpt>
      <trkpt lat="48.497671" lon="16.768181">
        <ele>246.152983</ele>
        <time>2020-09-18T09:35:33.928Z</time>
      </trkpt>
      <trkpt lat="48.497762" lon="16.768083">
        <ele>246.295605</ele>
        <time>2020-09-18T09:35:36.914Z</time>
      </trkpt>
      <trkpt lat="48.497857" lon="16.767984">
        <ele>246.442890</ele>
        <time>2020-09-18T09:35:39.934Z</time>
      </trkpt>
      <trkpt lat="48.497953" lon="16.767884">
        <ele>246.591704</ele>
        <time>2020-09-18T09:35:42.936Z</time>
      </trkpt>
      <trkpt lat="48.498048" lon="16.767789">
        <ele>246.737094</ele>
        <time>2020-09-18T09:35:45.918Z</time>
      </trkpt>
      <trkpt lat="48.498142" lon="16.767698">
        <ele>246.879567</ele>
        <time>2020-09-18T09:35:48.912Z</time>
      </trkpt>
      <trkpt lat="48.498239" lon="16.767594">
        <ele>247.031366</ele>
        <time>2020-09-18T09:35:51.928Z</time>
      </trkpt>
      <trkpt lat="48.498334" lon="16.767474">
        <ele>247.189415</ele>
        <time>2020-09-18T09:35:54.907Z</time>
      </trkpt>
      <trkpt lat="48.498425" lon="16.767365">
        <ele>247.337631</ele>
        <time>2020-09-18T09:35:57.915Z</time>
      </trkpt>
      <trkpt lat="48.498511" lon="16.767267">
        <ele>247.475110</ele>
        <time>2020-09-18T09:36:00.907Z</time>
      </trkpt>
      <trkpt lat="48.498598" lon="16.767169">
        <ele>247.613609</ele>
        <time>2020-09-18T09:36:03.902Z</time>
      </trkpt>
      <trkpt lat="48.498686" lon="16.767067">
        <ele>247.755167</ele>
        <time>2020-09-18T09:36:06.890Z</time>
      </trkpt>
      <trkpt lat="48.498774" lon="16.766967">
        <ele>247.895701</ele>
        <time>2020-09-18T09:36:09.923Z</time>
      </trkpt>
      <trkpt lat="48.498867" lon="16.766869">
        <ele>248.040407</ele>
        <time>2020-09-18T09:36:12.934Z</time>
      </trkpt>
      <trkpt lat="48.498965" lon="16.766768">
        <ele>248.191802</ele>
        <time>2020-09-18T09:36:15.909Z</time>
      </trkpt>
      <trkpt lat="48.499056" lon="16.766666">
        <ele>248.334740</ele>
        <time>2020-09-18T09:36:18.899Z</time>
      </trkpt>
      <trkpt lat="48.499154" lon="16.766565">
        <ele>248.480409</ele>
        <time>2020-09-18T09:36:21.905Z</time>
      </trkpt>
      <trkpt lat="48.499253" lon="16.766463">
        <ele>248.627551</ele>
        <time>2020-09-18T09:36:24.910Z</time>
      </trkpt>
      <trkpt lat="48.499348" lon="16.766362">
        <ele>248.770194</ele>
        <time>2020-09-18T09:36:27.927Z</time>
      </trkpt>
      <trkpt lat="48.499441" lon="16.766263">
        <ele>248.909894</ele>
        <time>2020-09-18T09:36:30.925Z</time>
      </trkpt>
      <trkpt lat="48.499534" lon="16.766166">
        <ele>249.048662</ele>
        <time>2020-09-18T09:36:33.911Z</time>
      </trkpt>
      <trkpt lat="48.499630" lon="16.766066">
        <ele>249.191846</ele>
        <time>2020-09-18T09:36:36.905Z</time>
      </trkpt>
      <trkpt lat="48.499726" lon="16.765964">
        <ele>249.335961</ele>
        <time>2020-09-18T09:36:39.916Z</time>
      </trkpt>
      <trkpt lat="48.499830" lon="16.765863">
        <ele>249.487769</ele>
        <time>2020-09-18T09:36:42.901Z</time>
      </trkpt>
      <trkpt lat="48.499933" lon="16.765758">
        <ele>249.640343</ele>
        <time>2020-09-18T09:36:45.936Z</time>
      </trkpt>
      <trkpt lat="48.500032" lon="16.765642">
        <ele>249.794192</ele>
        <time>2020-09-18T09:36:48.899Z</time>
      </trkpt>
      <trkpt lat="48.500136" lon="16.765525">
        <ele>249.953418</ele>
        <time>2020-09-18T09:36:51.914Z</time>
      </trkpt>
      <trkpt lat="48.500213" lon="16.765441">
        <ele>250.070043</ele>
        <time>2020-09-18T09:36:53.899Z</time>
      </trkpt>
      <trkpt lat="48.500294" lon="16.765353">
        <ele>250.192554</ele>
        <time>2020-09-18T09:36:55.902Z</time>
      </trkpt>
      <trkpt lat="48.500385" lon="16.765256">
        <ele>250.329309</ele>
        <time>2020-09-18T09:36:57.898Z</time>
      </trkpt>
      <trkpt lat="48.500483" lon="16.765152">
        <ele>250.476367</ele>
        <time>2020-09-18T09:36:59.914Z</time>
      </trkpt>
      <trkpt lat="48.500585" lon="16.765042">
        <ele>250.858928</ele>
        <time>2020-09-18T09:37:01.895Z</time>
      </trkpt>
      <trkpt lat="48.500678" lon="16.764941">
        <ele>251.246461</ele>
        <time>2020-09-18T09:37:03.912Z</time>
      </trkpt>
      <trkpt lat="48.500760" lon="16.764845">
        <ele>251.597476</ele>
        <time>2020-09-18T09:37:05.894Z</time>
      </trkpt>
      <trkpt lat="48.500839" lon="16.764762">
        <ele>251.923050</ele>
        <time>2020-09-18T09:37:07.906Z</time>
      </trkpt>
      <trkpt lat="48.500915" lon="16.764687">
        <ele>252.230182</ele>
        <time>2020-09-18T09:37:09.912Z</time>
      </trkpt>
      <trkpt lat="48.500991" lon="16.764610">
        <ele>252.539789</ele>
        <time>2020-09-18T09:37:11.901Z</time>
      </trkpt>
      <trkpt lat="48.501072" lon="16.764526">
        <ele>252.872201</ele>
        <time>2020-09-18T09:37:13.921Z</time>
      </trkpt>
      <trkpt lat="48.501159" lon="16.764431">
        <ele>253.235407</ele>
        <time>2020-09-18T09:37:15.933Z</time>
      </trkpt>
      <trkpt lat="48.501253" lon="16.764331">
        <ele>253.624392</ele>
        <time>2020-09-18T09:37:17.897Z</time>
      </trkpt>
      <trkpt lat="48.501346" lon="16.764231">
        <ele>254.010618</ele>
        <time>2020-09-18T09:37:19.898Z</time>
      </trkpt>
      <trkpt lat="48.501433" lon="16.764137">
        <ele>254.372514</ele>
        <time>2020-09-18T09:37:21.911Z</time>
      </trkpt>
      <trkpt lat="48.501508" lon="16.764051">
        <ele>254.691100</ele>
        <time>2020-09-18T09:37:23.926Z</time>
      </trkpt>
      <trkpt lat="48.501609" lon="16.763948">
        <ele>255.103390</ele>
        <time>2020-09-18T09:37:26.912Z</time>
      </trkpt>
      <trkpt lat="48.501696" lon="16.763851">
        <ele>255.469240</ele>
        <time>2020-09-18T09:37:29.917Z</time>
      </trkpt>
      <trkpt lat="48.501778" lon="16.763760">
        <ele>255.813499</ele>
        <time>2020-09-18T09:37:32.908Z</time>
      </trkpt>
      <trkpt lat="48.501866" lon="16.763665">
        <ele>256.179449</ele>
        <time>2020-09-18T09:37:35.926Z</time>
      </trkpt>
      <trkpt lat="48.501951" lon="16.763566">
        <ele>256.542601</ele>
        <time>2020-09-18T09:37:38.895Z</time>
      </trkpt>
      <trkpt lat="48.502040" lon="16.763471">
        <ele>256.997504</ele>
        <time>2020-09-18T09:37:41.915Z</time>
      </trkpt>
      <trkpt lat="48.502152" lon="16.763452">
        <ele>257.478957</ele>
        <time>2020-09-18T09:37:45.896Z</time>
      </trkpt>
      <trkpt lat="48.502180" lon="16.763485">
        <ele>257.630717</ele>
        <time>2020-09-18T09:37:58.713Z</time>
      </trkpt>
      <trkpt lat="48.502283" lon="16.763581">
        <ele>258.147852</ele>
        <time>2020-09-18T09:42:18.886Z</time>
      </trkpt>
      <trkpt lat="48.502397" lon="16.763678">
        <ele>258.706898</ele>
        <time>2020-09-18T09:42:21.890Z</time>
      </trkpt>
      <trkpt lat="48.502516" lon="16.763763">
        <ele>259.269299</ele>
        <time>2020-09-18T09:42:24.886Z</time>
      </trkpt>
      <trkpt lat="48.502599" lon="16.763822">
        <ele>259.661216</ele>
        <time>2020-09-18T09:42:26.886Z</time>
      </trkpt>
      <trkpt lat="48.502686" lon="16.763885">
        <ele>260.073427</ele>
        <time>2020-09-18T09:42:28.882Z</time>
      </trkpt>
      <trkpt lat="48.502779" lon="16.763954">
        <ele>260.516112</ele>
        <time>2020-09-18T09:42:30.895Z</time>
      </trkpt>
      <trkpt lat="48.502878" lon="16.764023">
        <ele>260.981936</ele>
        <time>2020-09-18T09:42:32.885Z</time>
      </trkpt>
      <trkpt lat="48.502975" lon="16.764085">
        <ele>261.431927</ele>
        <time>2020-09-18T09:42:34.887Z</time>
      </trkpt>
      <trkpt lat="48.503083" lon="16.764153">
        <ele>261.931818</ele>
        <time>2020-09-18T09:42:36.879Z</time>
      </trkpt>
      <trkpt lat="48.503199" lon="16.764233">
        <ele>262.476629</ele>
        <time>2020-09-18T09:42:38.879Z</time>
      </trkpt>
      <trkpt lat="48.503325" lon="16.764321">
        <ele>263.069710</ele>
        <time>2020-09-18T09:42:40.883Z</time>
      </trkpt>
      <trkpt lat="48.503463" lon="16.764412">
        <ele>263.713028</ele>
        <time>2020-09-18T09:42:42.895Z</time>
      </trkpt>
      <trkpt lat="48.503611" lon="16.764511">
        <ele>264.190558</ele>
        <time>2020-09-18T09:42:44.900Z</time>
      </trkpt>
      <trkpt lat="48.503758" lon="16.764616">
        <ele>263.804825</ele>
        <time>2020-09-18T09:42:46.918Z</time>
      </trkpt>
      <trkpt lat="48.503900" lon="16.764722">
        <ele>263.429083</ele>
        <time>2020-09-18T09:42:48.916Z</time>
      </trkpt>
      <trkpt lat="48.504035" lon="16.764808">
        <ele>263.081533</ele>
        <time>2020-09-18T09:42:50.889Z</time>
      </trkpt>
      <trkpt lat="48.504160" lon="16.764887">
        <ele>262.760111</ele>
        <time>2020-09-18T09:42:52.897Z</time>
      </trkpt>
      <trkpt lat="48.504278" lon="16.764972">
        <ele>262.449993</ele>
        <time>2020-09-18T09:42:54.907Z</time>
      </trkpt>
      <trkpt lat="48.504395" lon="16.765064">
        <ele>262.137087</ele>
        <time>2020-09-18T09:42:56.903Z</time>
      </trkpt>
      <trkpt lat="48.504519" lon="16.765158">
        <ele>261.807967</ele>
        <time>2020-09-18T09:42:58.918Z</time>
      </trkpt>
      <trkpt lat="48.504650" lon="16.765263">
        <ele>261.456162</ele>
        <time>2020-09-18T09:43:00.901Z</time>
      </trkpt>
      <trkpt lat="48.504794" lon="16.765352">
        <ele>261.087092</ele>
        <time>2020-09-18T09:43:02.899Z</time>
      </trkpt>
      <trkpt lat="48.504941" lon="16.765462">
        <ele>260.697935</ele>
        <time>2020-09-18T09:43:04.901Z</time>
      </trkpt>
      <trkpt lat="48.505099" lon="16.765562">
        <ele>260.291571</ele>
        <time>2020-09-18T09:43:06.909Z</time>
      </trkpt>
      <trkpt lat="48.505260" lon="16.765670">
        <ele>259.914991</ele>
        <time>2020-09-18T09:43:08.912Z</time>
      </trkpt>
      <trkpt lat="48.505423" lon="16.765777">
        <ele>259.630284</ele>
        <time>2020-09-18T09:43:10.884Z</time>
      </trkpt>
      <trkpt lat="48.505583" lon="16.765878">
        <ele>259.352496</ele>
        <time>2020-09-18T09:43:12.890Z</time>
      </trkpt>
      <trkpt lat="48.505732" lon="16.765981">
        <ele>259.089997</ele>
        <time>2020-09-18T09:43:14.889Z</time>
      </trkpt>
      <trkpt lat="48.505865" lon="16.766084">
        <ele>258.850560</ele>
        <time>2020-09-18T09:43:16.907Z</time>
      </trkpt>
      <trkpt lat="48.505987" lon="16.766166">
        <ele>258.636649</ele>
        <time>2020-09-18T09:43:18.900Z</time>
      </trkpt>
      <trkpt lat="48.506103" lon="16.766215">
        <ele>258.443708</ele>
        <time>2020-09-18T09:43:20.896Z</time>
      </trkpt>
      <trkpt lat="48.506216" lon="16.766218">
        <ele>258.262684</ele>
        <time>2020-09-18T09:43:22.889Z</time>
      </trkpt>
      <trkpt lat="48.506324" lon="16.766201">
        <ele>258.088759</ele>
        <time>2020-09-18T09:43:24.891Z</time>
      </trkpt>
      <trkpt lat="48.506430" lon="16.766170">
        <ele>257.915817</ele>
        <time>2020-09-18T09:43:26.903Z</time>
      </trkpt>
      <trkpt lat="48.506536" lon="16.766140">
        <ele>257.743074</ele>
        <time>2020-09-18T09:43:28.924Z</time>
      </trkpt>
      <trkpt lat="48.506643" lon="16.766120">
        <ele>257.570379</ele>
        <time>2020-09-18T09:43:30.919Z</time>
      </trkpt>
      <trkpt lat="48.506752" lon="16.766105">
        <ele>257.395066</ele>
        <time>2020-09-18T09:43:32.911Z</time>
      </trkpt>
      <trkpt lat="48.506863" lon="16.766088">
        <ele>257.216360</ele>
        <time>2020-09-18T09:43:34.903Z</time>
      </trkpt>
      <trkpt lat="48.506973" lon="16.766063">
        <ele>257.127034</ele>
        <time>2020-09-18T09:43:36.897Z</time>
      </trkpt>
      <trkpt lat="48.507085" lon="16.766037">
        <ele>257.142773</ele>
        <time>2020-09-18T09:43:38.906Z</time>
      </trkpt>
      <trkpt lat="48.507196" lon="16.766008">
        <ele>257.158419</ele>
        <time>2020-09-18T09:43:40.896Z</time>
      </trkpt>
      <trkpt lat="48.507303" lon="16.765980">
        <ele>257.173502</ele>
        <time>2020-09-18T09:43:42.923Z</time>
      </trkpt>
      <trkpt lat="48.507403" lon="16.765965">
        <ele>257.187460</ele>
        <time>2020-09-18T09:43:44.907Z</time>
      </trkpt>
      <trkpt lat="48.507495" lon="16.765944">
        <ele>257.200383</ele>
        <time>2020-09-18T09:43:46.901Z</time>
      </trkpt>
      <trkpt lat="48.507622" lon="16.765920">
        <ele>257.218160</ele>
        <time>2020-09-18T09:43:49.894Z</time>
      </trkpt>
      <trkpt lat="48.507737" lon="16.765893">
        <ele>257.234325</ele>
        <time>2020-09-18T09:43:52.919Z</time>
      </trkpt>
      <trkpt lat="48.507844" lon="16.765865">
        <ele>257.249408</ele>
        <time>2020-09-18T09:43:55.901Z</time>
      </trkpt>
      <trkpt lat="48.507945" lon="16.765847">
        <ele>257.263534</ele>
        <time>2020-09-18T09:43:58.911Z</time>
      </trkpt>
      <trkpt lat="48.508041" lon="16.765832">
        <ele>257.276939</ele>
        <time>2020-09-18T09:44:01.908Z</time>
      </trkpt>
      <trkpt lat="48.508143" lon="16.765812">
        <ele>257.291225</ele>
        <time>2020-09-18T09:44:04.901Z</time>
      </trkpt>
      <trkpt lat="48.508239" lon="16.765799">
        <ele>257.304612</ele>
        <time>2020-09-18T09:44:07.890Z</time>
      </trkpt>
      <trkpt lat="48.508333" lon="16.765792">
        <ele>257.317684</ele>
        <time>2020-09-18T09:44:10.910Z</time>
      </trkpt>
      <trkpt lat="48.508429" lon="16.765844">
        <ele>257.331850</ele>
        <time>2020-09-18T09:44:13.899Z</time>
      </trkpt>
      <trkpt lat="48.508500" lon="16.765928">
        <ele>257.344380</ele>
        <time>2020-09-18T09:44:16.903Z</time>
      </trkpt>
      <trkpt lat="48.508540" lon="16.766079">
        <ele>257.359344</ele>
        <time>2020-09-18T09:44:20.906Z</time>
      </trkpt>
      <trkpt lat="48.508552" lon="16.766257">
        <ele>257.336055</ele>
        <time>2020-09-18T09:44:24.919Z</time>
      </trkpt>
      <trkpt lat="48.508568" lon="16.766437">
        <ele>257.242879</ele>
        <time>2020-09-18T09:44:28.893Z</time>
      </trkpt>
      <trkpt lat="48.508581" lon="16.766588">
        <ele>257.164757</ele>
        <time>2020-09-18T09:44:31.921Z</time>
      </trkpt>
      <trkpt lat="48.508593" lon="16.766757">
        <ele>257.077555</ele>
        <time>2020-09-18T09:44:34.928Z</time>
      </trkpt>
      <trkpt lat="48.508616" lon="16.766942">
        <ele>256.980984</ele>
        <time>2020-09-18T09:44:37.904Z</time>
      </trkpt>
      <trkpt lat="48.508640" lon="16.767142">
        <ele>256.876705</ele>
        <time>2020-09-18T09:44:40.926Z</time>
      </trkpt>
      <trkpt lat="48.508647" lon="16.767279">
        <ele>256.806209</ele>
        <time>2020-09-18T09:44:42.906Z</time>
      </trkpt>
      <trkpt lat="48.508661" lon="16.767414">
        <ele>256.736104</ele>
        <time>2020-09-18T09:44:44.903Z</time>
      </trkpt>
      <trkpt lat="48.508677" lon="16.767600">
        <ele>256.639876</ele>
        <time>2020-09-18T09:44:47.902Z</time>
      </trkpt>
      <trkpt lat="48.508692" lon="16.767769">
        <ele>256.552396</ele>
        <time>2020-09-18T09:44:50.907Z</time>
      </trkpt>
      <trkpt lat="48.508712" lon="16.767924">
        <ele>256.471379</ele>
        <time>2020-09-18T09:44:53.922Z</time>
      </trkpt>
      <trkpt lat="48.508727" lon="16.768086">
        <ele>256.387458</ele>
        <time>2020-09-18T09:44:56.900Z</time>
      </trkpt>
      <trkpt lat="48.508743" lon="16.768251">
        <ele>256.301903</ele>
        <time>2020-09-18T09:44:59.914Z</time>
      </trkpt>
      <trkpt lat="48.508757" lon="16.768421">
        <ele>256.214014</ele>
        <time>2020-09-18T09:45:02.885Z</time>
      </trkpt>
      <trkpt lat="48.508767" lon="16.768586">
        <ele>256.129008</ele>
        <time>2020-09-18T09:45:05.935Z</time>
      </trkpt>
      <trkpt lat="48.508775" lon="16.768736">
        <ele>256.051801</ele>
        <time>2020-09-18T09:45:08.917Z</time>
      </trkpt>
      <trkpt lat="48.508781" lon="16.768873">
        <ele>255.981361</ele>
        <time>2020-09-18T09:45:11.924Z</time>
      </trkpt>
      <trkpt lat="48.508794" lon="16.769046">
        <ele>255.959195</ele>
        <time>2020-09-18T09:45:15.908Z</time>
      </trkpt>
      <trkpt lat="48.508815" lon="16.769186">
        <ele>255.943841</ele>
        <time>2020-09-18T09:45:18.899Z</time>
      </trkpt>
      <trkpt lat="48.508836" lon="16.769330">
        <ele>255.928070</ele>
        <time>2020-09-18T09:45:21.923Z</time>
      </trkpt>
      <trkpt lat="48.508848" lon="16.769485">
        <ele>255.911378</ele>
        <time>2020-09-18T09:45:24.907Z</time>
      </trkpt>
      <trkpt lat="48.508869" lon="16.769659">
        <ele>255.892461</ele>
        <time>2020-09-18T09:45:27.920Z</time>
      </trkpt>
      <trkpt lat="48.508888" lon="16.769853">
        <ele>255.871484</ele>
        <time>2020-09-18T09:45:30.927Z</time>
      </trkpt>
      <trkpt lat="48.508900" lon="16.769994">
        <ele>255.856279</ele>
        <time>2020-09-18T09:45:32.894Z</time>
      </trkpt>
      <trkpt lat="48.508914" lon="16.770146">
        <ele>255.839864</ele>
        <time>2020-09-18T09:45:34.905Z</time>
      </trkpt>
      <trkpt lat="48.508931" lon="16.770306">
        <ele>255.822532</ele>
        <time>2020-09-18T09:45:36.938Z</time>
      </trkpt>
      <trkpt lat="48.508949" lon="16.770461">
        <ele>255.805700</ele>
        <time>2020-09-18T09:45:38.909Z</time>
      </trkpt>
      <trkpt lat="48.508966" lon="16.770610">
        <ele>255.789528</ele>
        <time>2020-09-18T09:45:40.907Z</time>
      </trkpt>
      <trkpt lat="48.508980" lon="16.770750">
        <ele>255.774384</ele>
        <time>2020-09-18T09:45:42.913Z</time>
      </trkpt>
      <trkpt lat="48.509001" lon="16.770921">
        <ele>255.755782</ele>
        <time>2020-09-18T09:45:45.929Z</time>
      </trkpt>
      <trkpt lat="48.509032" lon="16.771058">
        <ele>255.740297</ele>
        <time>2020-09-18T09:45:48.887Z</time>
      </trkpt>
      <trkpt lat="48.509142" lon="16.771103">
        <ele>255.721897</ele>
        <time>2020-09-18T09:45:52.910Z</time>
      </trkpt>
      <trkpt lat="48.509253" lon="16.771038">
        <ele>255.702674</ele>
        <time>2020-09-18T09:45:56.907Z</time>
      </trkpt>
      <trkpt lat="48.509347" lon="16.770993">
        <ele>255.686753</ele>
        <time>2020-09-18T09:45:59.911Z</time>
      </trkpt>
      <trkpt lat="48.509446" lon="16.770961">
        <ele>255.652627</ele>
        <time>2020-09-18T09:46:02.907Z</time>
      </trkpt>
      <trkpt lat="48.509546" lon="16.770914">
        <ele>255.617026</ele>
        <time>2020-09-18T09:46:05.911Z</time>
      </trkpt>
      <trkpt lat="48.509644" lon="16.770862">
        <ele>255.581717</ele>
        <time>2020-09-18T09:46:08.903Z</time>
      </trkpt>
      <trkpt lat="48.509746" lon="16.770824">
        <ele>255.546006</ele>
        <time>2020-09-18T09:46:11.900Z</time>
      </trkpt>
      <trkpt lat="48.509846" lon="16.770791">
        <ele>255.511212</ele>
        <time>2020-09-18T09:46:14.918Z</time>
      </trkpt>
      <trkpt lat="48.509947" lon="16.770743">
        <ele>255.475219</ele>
        <time>2020-09-18T09:46:17.916Z</time>
      </trkpt>
      <trkpt lat="48.510045" lon="16.770697">
        <ele>255.440335</ele>
        <time>2020-09-18T09:46:20.929Z</time>
      </trkpt>
      <trkpt lat="48.510138" lon="16.770659">
        <ele>255.407586</ele>
        <time>2020-09-18T09:46:23.930Z</time>
      </trkpt>
      <trkpt lat="48.510237" lon="16.770626">
        <ele>255.373124</ele>
        <time>2020-09-18T09:46:26.943Z</time>
      </trkpt>
      <trkpt lat="48.510337" lon="16.770591">
        <ele>255.338231</ele>
        <time>2020-09-18T09:46:29.912Z</time>
      </trkpt>
      <trkpt lat="48.510437" lon="16.770543">
        <ele>255.302563</ele>
        <time>2020-09-18T09:46:32.906Z</time>
      </trkpt>
      <trkpt lat="48.510531" lon="16.770500">
        <ele>255.269176</ele>
        <time>2020-09-18T09:46:35.933Z</time>
      </trkpt>
      <trkpt lat="48.510628" lon="16.770462">
        <ele>255.235113</ele>
        <time>2020-09-18T09:46:38.893Z</time>
      </trkpt>
      <trkpt lat="48.510726" lon="16.770418">
        <ele>255.200359</ele>
        <time>2020-09-18T09:46:41.896Z</time>
      </trkpt>
      <trkpt lat="48.510827" lon="16.770391">
        <ele>255.165494</ele>
        <time>2020-09-18T09:46:44.899Z</time>
      </trkpt>
      <trkpt lat="48.510926" lon="16.770359">
        <ele>255.131080</ele>
        <time>2020-09-18T09:46:47.900Z</time>
      </trkpt>
      <trkpt lat="48.511024" lon="16.770316">
        <ele>255.096391</ele>
        <time>2020-09-18T09:46:50.908Z</time>
      </trkpt>
      <trkpt lat="48.511125" lon="16.770268">
        <ele>255.039501</ele>
        <time>2020-09-18T09:46:53.904Z</time>
      </trkpt>
      <trkpt lat="48.511222" lon="16.770220">
        <ele>254.955539</ele>
        <time>2020-09-18T09:46:56.932Z</time>
      </trkpt>
      <trkpt lat="48.511317" lon="16.770178">
        <ele>254.874117</ele>
        <time>2020-09-18T09:46:59.909Z</time>
      </trkpt>
      <trkpt lat="48.511413" lon="16.770137">
        <ele>254.792056</ele>
        <time>2020-09-18T09:47:02.904Z</time>
      </trkpt>
      <trkpt lat="48.511520" lon="16.770101">
        <ele>254.701887</ele>
        <time>2020-09-18T09:47:05.914Z</time>
      </trkpt>
      <trkpt lat="48.511627" lon="16.770057">
        <ele>254.610670</ele>
        <time>2020-09-18T09:47:08.932Z</time>
      </trkpt>
      <trkpt lat="48.511732" lon="16.770006">
        <ele>254.519945</ele>
        <time>2020-09-18T09:47:11.889Z</time>
      </trkpt>
      <trkpt lat="48.511842" lon="16.769977">
        <ele>254.428098</ele>
        <time>2020-09-18T09:47:14.897Z</time>
      </trkpt>
      <trkpt lat="48.511951" lon="16.769937">
        <ele>254.335832</ele>
        <time>2020-09-18T09:47:17.910Z</time>
      </trkpt>
      <trkpt lat="48.512058" lon="16.769892">
        <ele>254.244471</ele>
        <time>2020-09-18T09:47:20.899Z</time>
      </trkpt>
      <trkpt lat="48.512164" lon="16.769843">
        <ele>254.153287</ele>
        <time>2020-09-18T09:47:23.923Z</time>
      </trkpt>
      <trkpt lat="48.512269" lon="16.769798">
        <ele>254.063509</ele>
        <time>2020-09-18T09:47:26.885Z</time>
      </trkpt>
      <trkpt lat="48.512377" lon="16.769766">
        <ele>253.972982</ele>
        <time>2020-09-18T09:47:29.921Z</time>
      </trkpt>
      <trkpt lat="48.512487" lon="16.769724">
        <ele>253.879656</ele>
        <time>2020-09-18T09:47:32.910Z</time>
      </trkpt>
      <trkpt lat="48.512597" lon="16.769679">
        <ele>253.785915</ele>
        <time>2020-09-18T09:47:35.897Z</time>
      </trkpt>
      <trkpt lat="48.512715" lon="16.769634">
        <ele>253.685808</ele>
        <time>2020-09-18T09:47:38.888Z</time>
      </trkpt>
      <trkpt lat="48.512840" lon="16.769580">
        <ele>253.589559</ele>
        <time>2020-09-18T09:47:41.892Z</time>
      </trkpt>
      <trkpt lat="48.512967" lon="16.769529">
        <ele>253.550131</ele>
        <time>2020-09-18T09:47:44.939Z</time>
      </trkpt>
      <trkpt lat="48.513090" lon="16.769480">
        <ele>253.511966</ele>
        <time>2020-09-18T09:47:47.900Z</time>
      </trkpt>
      <trkpt lat="48.513208" lon="16.769439">
        <ele>253.475638</ele>
        <time>2020-09-18T09:47:50.892Z</time>
      </trkpt>
      <trkpt lat="48.513315" lon="16.769398">
        <ele>253.442518</ele>
        <time>2020-09-18T09:47:53.900Z</time>
      </trkpt>
      <trkpt lat="48.513416" lon="16.769362">
        <ele>253.411383</ele>
        <time>2020-09-18T09:47:56.905Z</time>
      </trkpt>
      <trkpt lat="48.513512" lon="16.769325">
        <ele>253.381658</ele>
        <time>2020-09-18T09:47:59.900Z</time>
      </trkpt>
      <trkpt lat="48.513607" lon="16.769289">
        <ele>253.352272</ele>
        <time>2020-09-18T09:48:02.896Z</time>
      </trkpt>
      <trkpt lat="48.513700" lon="16.769252">
        <ele>253.323417</ele>
        <time>2020-09-18T09:48:05.911Z</time>
      </trkpt>
      <trkpt lat="48.513791" lon="16.769216">
        <ele>253.295194</ele>
        <time>2020-09-18T09:48:08.906Z</time>
      </trkpt>
      <trkpt lat="48.513903" lon="16.769177">
        <ele>253.260709</ele>
        <time>2020-09-18T09:48:12.889Z</time>
      </trkpt>
      <trkpt lat="48.513992" lon="16.769153">
        <ele>253.233585</ele>
        <time>2020-09-18T09:48:15.915Z</time>
      </trkpt>
      <trkpt lat="48.514084" lon="16.769138">
        <ele>253.205823</ele>
        <time>2020-09-18T09:48:18.931Z</time>
      </trkpt>
      <trkpt lat="48.514182" lon="16.769109">
        <ele>253.175862</ele>
        <time>2020-09-18T09:48:21.890Z</time>
      </trkpt>
      <trkpt lat="48.514285" lon="16.769079">
        <ele>253.144390</ele>
        <time>2020-09-18T09:48:24.916Z</time>
      </trkpt>
      <trkpt lat="48.514397" lon="16.769060">
        <ele>253.110577</ele>
        <time>2020-09-18T09:48:27.889Z</time>
      </trkpt>
      <trkpt lat="48.514514" lon="16.769029">
        <ele>253.074938</ele>
        <time>2020-09-18T09:48:30.879Z</time>
      </trkpt>
      <trkpt lat="48.514639" lon="16.768995">
        <ele>253.040467</ele>
        <time>2020-09-18T09:48:33.901Z</time>
      </trkpt>
      <trkpt lat="48.514769" lon="16.768981">
        <ele>253.008753</ele>
        <time>2020-09-18T09:48:36.910Z</time>
      </trkpt>
      <trkpt lat="48.514899" lon="16.768951">
        <ele>252.976752</ele>
        <time>2020-09-18T09:48:39.930Z</time>
      </trkpt>
      <trkpt lat="48.515021" lon="16.768907">
        <ele>252.946230</ele>
        <time>2020-09-18T09:48:42.903Z</time>
      </trkpt>
      <trkpt lat="48.515144" lon="16.768877">
        <ele>252.915911</ele>
        <time>2020-09-18T09:48:45.913Z</time>
      </trkpt>
      <trkpt lat="48.515270" lon="16.768862">
        <ele>252.885156</ele>
        <time>2020-09-18T09:48:48.945Z</time>
      </trkpt>
      <trkpt lat="48.515395" lon="16.768842">
        <ele>252.854569</ele>
        <time>2020-09-18T09:48:51.925Z</time>
      </trkpt>
      <trkpt lat="48.515516" lon="16.768815">
        <ele>252.824805</ele>
        <time>2020-09-18T09:48:54.904Z</time>
      </trkpt>
      <trkpt lat="48.515642" lon="16.768782">
        <ele>252.793687</ele>
        <time>2020-09-18T09:48:57.907Z</time>
      </trkpt>
      <trkpt lat="48.515733" lon="16.768751">
        <ele>252.770987</ele>
        <time>2020-09-18T09:48:59.920Z</time>
      </trkpt>
      <trkpt lat="48.515827" lon="16.768723">
        <ele>252.747672</ele>
        <time>2020-09-18T09:49:01.895Z</time>
      </trkpt>
      <trkpt lat="48.515922" lon="16.768698">
        <ele>252.724207</ele>
        <time>2020-09-18T09:49:03.906Z</time>
      </trkpt>
      <trkpt lat="48.516017" lon="16.768678">
        <ele>252.700866</ele>
        <time>2020-09-18T09:49:05.927Z</time>
      </trkpt>
      <trkpt lat="48.516112" lon="16.768659">
        <ele>252.677547</ele>
        <time>2020-09-18T09:49:07.900Z</time>
      </trkpt>
      <trkpt lat="48.516205" lon="16.768637">
        <ele>252.654641</ele>
        <time>2020-09-18T09:49:09.893Z</time>
      </trkpt>
      <trkpt lat="48.516333" lon="16.768605">
        <ele>252.623070</ele>
        <time>2020-09-18T09:49:12.903Z</time>
      </trkpt>
      <trkpt lat="48.516455" lon="16.768576">
        <ele>252.619956</ele>
        <time>2020-09-18T09:49:15.911Z</time>
      </trkpt>
      <trkpt lat="48.516566" lon="16.768549">
        <ele>252.621632</ele>
        <time>2020-09-18T09:49:18.911Z</time>
      </trkpt>
      <trkpt lat="48.516665" lon="16.768522">
        <ele>252.623132</ele>
        <time>2020-09-18T09:49:21.924Z</time>
      </trkpt>
      <trkpt lat="48.516762" lon="16.768502">
        <ele>252.624592</ele>
        <time>2020-09-18T09:49:24.895Z</time>
      </trkpt>
      <trkpt lat="48.516860" lon="16.768484">
        <ele>252.626064</ele>
        <time>2020-09-18T09:49:27.890Z</time>
      </trkpt>
      <trkpt lat="48.516962" lon="16.768463">
        <ele>252.627599</ele>
        <time>2020-09-18T09:49:30.893Z</time>
      </trkpt>
      <trkpt lat="48.517067" lon="16.768432">
        <ele>252.629194</ele>
        <time>2020-09-18T09:49:33.907Z</time>
      </trkpt>
      <trkpt lat="48.517178" lon="16.768415">
        <ele>252.630857</ele>
        <time>2020-09-18T09:49:36.913Z</time>
      </trkpt>
      <trkpt lat="48.517285" lon="16.768405">
        <ele>252.632456</ele>
        <time>2020-09-18T09:49:39.909Z</time>
      </trkpt>
      <trkpt lat="48.517391" lon="16.768376">
        <ele>252.634062</ele>
        <time>2020-09-18T09:49:42.881Z</time>
      </trkpt>
      <trkpt lat="48.517504" lon="16.768353">
        <ele>252.635762</ele>
        <time>2020-09-18T09:49:45.916Z</time>
      </trkpt>
      <trkpt lat="48.517624" lon="16.768329">
        <ele>252.637567</ele>
        <time>2020-09-18T09:49:48.926Z</time>
      </trkpt>
      <trkpt lat="48.517745" lon="16.768295">
        <ele>252.639402</ele>
        <time>2020-09-18T09:49:51.901Z</time>
      </trkpt>
      <trkpt lat="48.517863" lon="16.768269">
        <ele>252.641180</ele>
        <time>2020-09-18T09:49:54.894Z</time>
      </trkpt>
      <trkpt lat="48.517974" lon="16.768237">
        <ele>252.642865</ele>
        <time>2020-09-18T09:49:57.915Z</time>
      </trkpt>
      <trkpt lat="48.518080" lon="16.768211">
        <ele>252.644466</ele>
        <time>2020-09-18T09:50:00.920Z</time>
      </trkpt>
      <trkpt lat="48.518190" lon="16.768197">
        <ele>252.653368</ele>
        <time>2020-09-18T09:50:03.916Z</time>
      </trkpt>
      <trkpt lat="48.518297" lon="16.768176">
        <ele>252.668037</ele>
        <time>2020-09-18T09:50:06.903Z</time>
      </trkpt>
      <trkpt lat="48.518403" lon="16.768152">
        <ele>252.682609</ele>
        <time>2020-09-18T09:50:09.908Z</time>
      </trkpt>
      <trkpt lat="48.518505" lon="16.768137">
        <ele>252.696542</ele>
        <time>2020-09-18T09:50:12.932Z</time>
      </trkpt>
      <trkpt lat="48.518609" lon="16.768116">
        <ele>252.710807</ele>
        <time>2020-09-18T09:50:15.930Z</time>
      </trkpt>
      <trkpt lat="48.518710" lon="16.768094">
        <ele>252.724681</ele>
        <time>2020-09-18T09:50:18.909Z</time>
      </trkpt>
      <trkpt lat="48.518808" lon="16.768067">
        <ele>252.738224</ele>
        <time>2020-09-18T09:50:21.937Z</time>
      </trkpt>
      <trkpt lat="48.518916" lon="16.768030">
        <ele>252.753281</ele>
        <time>2020-09-18T09:50:24.931Z</time>
      </trkpt>
      <trkpt lat="48.519031" lon="16.767985">
        <ele>252.769432</ele>
        <time>2020-09-18T09:50:27.922Z</time>
      </trkpt>
      <trkpt lat="48.519152" lon="16.767950">
        <ele>252.786181</ele>
        <time>2020-09-18T09:50:30.925Z</time>
      </trkpt>
      <trkpt lat="48.519272" lon="16.767916">
        <ele>252.802781</ele>
        <time>2020-09-18T09:50:33.918Z</time>
      </trkpt>
      <trkpt lat="48.519397" lon="16.767870">
        <ele>252.820272</ele>
        <time>2020-09-18T09:50:36.896Z</time>
      </trkpt>
      <trkpt lat="48.519484" lon="16.767836">
        <ele>252.832490</ele>
        <time>2020-09-18T09:50:38.926Z</time>
      </trkpt>
      <trkpt lat="48.519577" lon="16.767815">
        <ele>252.845275</ele>
        <time>2020-09-18T09:50:40.903Z</time>
      </trkpt>
      <trkpt lat="48.519674" lon="16.767792">
        <ele>252.858624</ele>
        <time>2020-09-18T09:50:42.893Z</time>
      </trkpt>
      <trkpt lat="48.519775" lon="16.767766">
        <ele>252.872553</ele>
        <time>2020-09-18T09:50:44.905Z</time>
      </trkpt>
      <trkpt lat="48.519879" lon="16.767728">
        <ele>252.887100</ele>
        <time>2020-09-18T09:50:46.936Z</time>
      </trkpt>
      <trkpt lat="48.519990" lon="16.767691">
        <ele>252.817723</ele>
        <time>2020-09-18T09:50:48.891Z</time>
      </trkpt>
      <trkpt lat="48.520111" lon="16.767656">
        <ele>252.723512</ele>
        <time>2020-09-18T09:50:50.899Z</time>
      </trkpt>
      <trkpt lat="48.520242" lon="16.767612">
        <ele>252.620887</ele>
        <time>2020-09-18T09:50:52.904Z</time>
      </trkpt>
      <trkpt lat="48.520372" lon="16.767595">
        <ele>252.521104</ele>
        <time>2020-09-18T09:50:54.905Z</time>
      </trkpt>
      <trkpt lat="48.520513" lon="16.767614">
        <ele>252.412853</ele>
        <time>2020-09-18T09:50:56.886Z</time>
      </trkpt>
      <trkpt lat="48.520656" lon="16.767645">
        <ele>252.302380</ele>
        <time>2020-09-18T09:50:58.899Z</time>
      </trkpt>
      <trkpt lat="48.520813" lon="16.767662">
        <ele>252.182014</ele>
        <time>2020-09-18T09:51:00.899Z</time>
      </trkpt>
      <trkpt lat="48.520972" lon="16.767676">
        <ele>252.060221</ele>
        <time>2020-09-18T09:51:02.897Z</time>
      </trkpt>
      <trkpt lat="48.521133" lon="16.767699">
        <ele>251.936555</ele>
        <time>2020-09-18T09:51:04.905Z</time>
      </trkpt>
      <trkpt lat="48.521291" lon="16.767730">
        <ele>251.814716</ele>
        <time>2020-09-18T09:51:06.909Z</time>
      </trkpt>
      <trkpt lat="48.521451" lon="16.767756">
        <ele>251.691658</ele>
        <time>2020-09-18T09:51:08.889Z</time>
      </trkpt>
      <trkpt lat="48.521614" lon="16.767756">
        <ele>251.567013</ele>
        <time>2020-09-18T09:51:10.900Z</time>
      </trkpt>
      <trkpt lat="48.521782" lon="16.767747">
        <ele>251.374344</ele>
        <time>2020-09-18T09:51:12.901Z</time>
      </trkpt>
      <trkpt lat="48.521950" lon="16.767753">
        <ele>251.137235</ele>
        <time>2020-09-18T09:51:14.904Z</time>
      </trkpt>
      <trkpt lat="48.522122" lon="16.767762">
        <ele>250.894404</ele>
        <time>2020-09-18T09:51:16.907Z</time>
      </trkpt>
      <trkpt lat="48.522299" lon="16.767760">
        <ele>250.644656</ele>
        <time>2020-09-18T09:51:18.937Z</time>
      </trkpt>
      <trkpt lat="48.522389" lon="16.767736">
        <ele>250.515704</ele>
        <time>2020-09-18T09:51:19.943Z</time>
      </trkpt>
      <trkpt lat="48.522477" lon="16.767708">
        <ele>250.388812</ele>
        <time>2020-09-18T09:51:20.909Z</time>
      </trkpt>
      <trkpt lat="48.522654" lon="16.767662">
        <ele>250.135398</ele>
        <time>2020-09-18T09:51:22.912Z</time>
      </trkpt>
      <trkpt lat="48.522826" lon="16.767631">
        <ele>249.890990</ele>
        <time>2020-09-18T09:51:24.887Z</time>
      </trkpt>
      <trkpt lat="48.522991" lon="16.767589">
        <ele>249.654895</ele>
        <time>2020-09-18T09:51:26.917Z</time>
      </trkpt>
      <trkpt lat="48.523144" lon="16.767546">
        <ele>249.435309</ele>
        <time>2020-09-18T09:51:28.900Z</time>
      </trkpt>
      <trkpt lat="48.523267" lon="16.767528">
        <ele>249.260948</ele>
        <time>2020-09-18T09:51:30.907Z</time>
      </trkpt>
      <trkpt lat="48.523382" lon="16.767536">
        <ele>249.098515</ele>
        <time>2020-09-18T09:51:32.941Z</time>
      </trkpt>
      <trkpt lat="48.523487" lon="16.767522">
        <ele>248.923342</ele>
        <time>2020-09-18T09:51:34.894Z</time>
      </trkpt>
      <trkpt lat="48.523565" lon="16.767644">
        <ele>248.608071</ele>
        <time>2020-09-18T09:51:37.883Z</time>
      </trkpt>
      <trkpt lat="48.523559" lon="16.767789">
        <ele>248.337954</ele>
        <time>2020-09-18T09:51:39.900Z</time>
      </trkpt>
      <trkpt lat="48.523562" lon="16.767931">
        <ele>248.073806</ele>
        <time>2020-09-18T09:51:41.889Z</time>
      </trkpt>
      <trkpt lat="48.523573" lon="16.768074">
        <ele>247.806146</ele>
        <time>2020-09-18T09:51:43.907Z</time>
      </trkpt>
      <trkpt lat="48.523580" lon="16.768213">
        <ele>247.546964</ele>
        <time>2020-09-18T09:51:45.910Z</time>
      </trkpt>
      <trkpt lat="48.523586" lon="16.768354">
        <ele>247.284269</ele>
        <time>2020-09-18T09:51:47.905Z</time>
      </trkpt>
      <trkpt lat="48.523590" lon="16.768494">
        <ele>247.023732</ele>
        <time>2020-09-18T09:51:49.891Z</time>
      </trkpt>
      <trkpt lat="48.523593" lon="16.768633">
        <ele>246.765160</ele>
        <time>2020-09-18T09:51:51.894Z</time>
      </trkpt>
      <trkpt lat="48.523619" lon="16.768833">
        <ele>246.386214</ele>
        <time>2020-09-18T09:51:54.891Z</time>
      </trkpt>
      <trkpt lat="48.523645" lon="16.768967">
        <ele>246.126604</ele>
        <time>2020-09-18T09:51:56.891Z</time>
      </trkpt>
      <trkpt lat="48.523673" lon="16.769108">
        <ele>245.852920</ele>
        <time>2020-09-18T09:51:58.891Z</time>
      </trkpt>
      <trkpt lat="48.523700" lon="16.769249">
        <ele>245.580029</ele>
        <time>2020-09-18T09:52:00.889Z</time>
      </trkpt>
      <trkpt lat="48.523727" lon="16.769385">
        <ele>245.316056</ele>
        <time>2020-09-18T09:52:02.886Z</time>
      </trkpt>
      <trkpt lat="48.523763" lon="16.769516">
        <ele>245.052361</ele>
        <time>2020-09-18T09:52:04.889Z</time>
      </trkpt>
      <trkpt lat="48.523810" lon="16.769637">
        <ele>244.791558</ele>
        <time>2020-09-18T09:52:06.888Z</time>
      </trkpt>
      <trkpt lat="48.523852" lon="16.769759">
        <ele>244.535918</ele>
        <time>2020-09-18T09:52:08.892Z</time>
      </trkpt>
      <trkpt lat="48.523925" lon="16.769922">
        <ele>244.170079</ele>
        <time>2020-09-18T09:52:11.889Z</time>
      </trkpt>
      <trkpt lat="48.523990" lon="16.770021">
        <ele>243.922083</ele>
        <time>2020-09-18T09:52:13.891Z</time>
      </trkpt>
      <trkpt lat="48.524082" lon="16.770159">
        <ele>243.805730</ele>
        <time>2020-09-18T09:52:16.900Z</time>
      </trkpt>
      <trkpt lat="48.524153" lon="16.770251">
        <ele>243.721786</ele>
        <time>2020-09-18T09:52:18.903Z</time>
      </trkpt>
      <trkpt lat="48.524225" lon="16.770335">
        <ele>243.640150</ele>
        <time>2020-09-18T09:52:20.928Z</time>
      </trkpt>
      <trkpt lat="48.524301" lon="16.770418">
        <ele>243.555995</ele>
        <time>2020-09-18T09:52:22.891Z</time>
      </trkpt>
      <trkpt lat="48.524390" lon="16.770490">
        <ele>243.465403</ele>
        <time>2020-09-18T09:52:24.890Z</time>
      </trkpt>
      <trkpt lat="48.524472" lon="16.770554">
        <ele>243.382584</ele>
        <time>2020-09-18T09:52:26.922Z</time>
      </trkpt>
      <trkpt lat="48.524555" lon="16.770617">
        <ele>243.299236</ele>
        <time>2020-09-18T09:52:28.884Z</time>
      </trkpt>
      <trkpt lat="48.524639" lon="16.770675">
        <ele>243.216364</ele>
        <time>2020-09-18T09:52:30.892Z</time>
      </trkpt>
      <trkpt lat="48.524766" lon="16.770679">
        <ele>243.102394</ele>
        <time>2020-09-18T09:52:33.892Z</time>
      </trkpt>
      <trkpt lat="48.524841" lon="16.770540">
        <ele>242.995857</ele>
        <time>2020-09-18T09:52:36.929Z</time>
      </trkpt>
      <trkpt lat="48.524905" lon="16.770351">
        <ele>242.869722</ele>
        <time>2020-09-18T09:52:39.899Z</time>
      </trkpt>
      <trkpt lat="48.524947" lon="16.770231">
        <ele>242.789071</ele>
        <time>2020-09-18T09:52:41.892Z</time>
      </trkpt>
      <trkpt lat="48.525004" lon="16.770059">
        <ele>242.674785</ele>
        <time>2020-09-18T09:52:44.892Z</time>
      </trkpt>
      <trkpt lat="48.525045" lon="16.769872">
        <ele>242.557737</ele>
        <time>2020-09-18T09:52:47.907Z</time>
      </trkpt>
      <trkpt lat="48.525080" lon="16.769685">
        <ele>242.442267</ele>
        <time>2020-09-18T09:52:50.896Z</time>
      </trkpt>
      <trkpt lat="48.525112" lon="16.769495">
        <ele>242.325773</ele>
        <time>2020-09-18T09:52:53.890Z</time>
      </trkpt>
      <trkpt lat="48.525144" lon="16.769317">
        <ele>242.360596</ele>
        <time>2020-09-18T09:52:56.893Z</time>
      </trkpt>
      <trkpt lat="48.525174" lon="16.769143">
        <ele>242.412166</ele>
        <time>2020-09-18T09:52:59.924Z</time>
      </trkpt>
      <trkpt lat="48.525192" lon="16.768962">
        <ele>242.464664</ele>
        <time>2020-09-18T09:53:02.920Z</time>
      </trkpt>
      <trkpt lat="48.525199" lon="16.768793">
        <ele>242.513232</ele>
        <time>2020-09-18T09:53:05.906Z</time>
      </trkpt>
      <trkpt lat="48.525193" lon="16.768640">
        <ele>242.557192</ele>
        <time>2020-09-18T09:53:08.921Z</time>
      </trkpt>
      <trkpt lat="48.525193" lon="16.768467">
        <ele>242.606813</ele>
        <time>2020-09-18T09:53:12.928Z</time>
      </trkpt>
      <trkpt lat="48.525194" lon="16.768320">
        <ele>242.648978</ele>
        <time>2020-09-18T09:53:16.923Z</time>
      </trkpt>
      <trkpt lat="48.525193" lon="16.768172">
        <ele>242.691431</ele>
        <time>2020-09-18T09:53:20.913Z</time>
      </trkpt>
      <trkpt lat="48.525201" lon="16.768008">
        <ele>242.738597</ele>
        <time>2020-09-18T09:53:25.925Z</time>
      </trkpt>
      <trkpt lat="48.525194" lon="16.767846">
        <ele>242.785161</ele>
        <time>2020-09-18T09:53:30.891Z</time>
      </trkpt>
      <trkpt lat="48.525184" lon="16.767705">
        <ele>242.825835</ele>
        <time>2020-09-18T09:53:34.923Z</time>
      </trkpt>
      <trkpt lat="48.525186" lon="16.767553">
        <ele>242.869441</ele>
        <time>2020-09-18T09:53:38.933Z</time>
      </trkpt>
      <trkpt lat="48.525180" lon="16.767400">
        <ele>242.913402</ele>
        <time>2020-09-18T09:53:42.921Z</time>
      </trkpt>
      <trkpt lat="48.525173" lon="16.767254">
        <ele>242.955387</ele>
        <time>2020-09-18T09:53:46.912Z</time>
      </trkpt>
      <trkpt lat="48.525163" lon="16.767099">
        <ele>243.000056</ele>
        <time>2020-09-18T09:53:50.936Z</time>
      </trkpt>
      <trkpt lat="48.525158" lon="16.766928">
        <ele>243.049150</ele>
        <time>2020-09-18T09:53:54.890Z</time>
      </trkpt>
      <trkpt lat="48.525144" lon="16.766747">
        <ele>243.122534</ele>
        <time>2020-09-18T09:53:58.909Z</time>
      </trkpt>
      <trkpt lat="48.525150" lon="16.766607">
        <ele>243.258404</ele>
        <time>2020-09-18T09:54:01.915Z</time>
      </trkpt>
      <trkpt lat="48.525154" lon="16.766453">
        <ele>243.407663</ele>
        <time>2020-09-18T09:54:04.930Z</time>
      </trkpt>
      <trkpt lat="48.525160" lon="16.766299">
        <ele>243.557065</ele>
        <time>2020-09-18T09:54:07.900Z</time>
      </trkpt>
      <trkpt lat="48.525169" lon="16.766142">
        <ele>243.709683</ele>
        <time>2020-09-18T09:54:10.905Z</time>
      </trkpt>
      <trkpt lat="48.525189" lon="16.765985">
        <ele>243.864520</ele>
        <time>2020-09-18T09:54:13.892Z</time>
      </trkpt>
      <trkpt lat="48.525203" lon="16.765820">
        <ele>244.025623</ele>
        <time>2020-09-18T09:54:16.899Z</time>
      </trkpt>
      <trkpt lat="48.525216" lon="16.765660">
        <ele>244.181740</ele>
        <time>2020-09-18T09:54:19.902Z</time>
      </trkpt>
      <trkpt lat="48.525240" lon="16.765501">
        <ele>244.339675</ele>
        <time>2020-09-18T09:54:22.888Z</time>
      </trkpt>
      <trkpt lat="48.525257" lon="16.765343">
        <ele>244.494699</ele>
        <time>2020-09-18T09:54:25.931Z</time>
      </trkpt>
      <trkpt lat="48.525269" lon="16.765181">
        <ele>244.652569</ele>
        <time>2020-09-18T09:54:28.894Z</time>
      </trkpt>
      <trkpt lat="48.525283" lon="16.765014">
        <ele>244.815594</ele>
        <time>2020-09-18T09:54:31.909Z</time>
      </trkpt>
      <trkpt lat="48.525306" lon="16.764844">
        <ele>244.983634</ele>
        <time>2020-09-18T09:54:34.911Z</time>
      </trkpt>
      <trkpt lat="48.525325" lon="16.764663">
        <ele>245.161114</ele>
        <time>2020-09-18T09:54:37.915Z</time>
      </trkpt>
      <trkpt lat="48.525343" lon="16.764473">
        <ele>245.346996</ele>
        <time>2020-09-18T09:54:40.898Z</time>
      </trkpt>
      <trkpt lat="48.525374" lon="16.764277">
        <ele>245.542153</ele>
        <time>2020-09-18T09:54:43.907Z</time>
      </trkpt>
      <trkpt lat="48.525389" lon="16.764143">
        <ele>245.673768</ele>
        <time>2020-09-18T09:54:45.898Z</time>
      </trkpt>
      <trkpt lat="48.525404" lon="16.764009">
        <ele>245.775419</ele>
        <time>2020-09-18T09:54:47.913Z</time>
      </trkpt>
      <trkpt lat="48.525417" lon="16.763872">
        <ele>245.860885</ele>
        <time>2020-09-18T09:54:49.893Z</time>
      </trkpt>
      <trkpt lat="48.525436" lon="16.763734">
        <ele>245.947926</ele>
        <time>2020-09-18T09:54:51.907Z</time>
      </trkpt>
      <trkpt lat="48.525456" lon="16.763540">
        <ele>246.069169</ele>
        <time>2020-09-18T09:54:54.909Z</time>
      </trkpt>
      <trkpt lat="48.525479" lon="16.763346">
        <ele>246.190873</ele>
        <time>2020-09-18T09:54:57.922Z</time>
      </trkpt>
      <trkpt lat="48.525497" lon="16.763210">
        <ele>246.276518</ele>
        <time>2020-09-18T09:54:59.915Z</time>
      </trkpt>
      <trkpt lat="48.525516" lon="16.763077">
        <ele>246.360538</ele>
        <time>2020-09-18T09:55:01.926Z</time>
      </trkpt>
      <trkpt lat="48.525543" lon="16.762939">
        <ele>246.449397</ele>
        <time>2020-09-18T09:55:03.915Z</time>
      </trkpt>
      <trkpt lat="48.525576" lon="16.762791">
        <ele>246.545832</ele>
        <time>2020-09-18T09:55:05.892Z</time>
      </trkpt>
      <trkpt lat="48.525614" lon="16.762634">
        <ele>246.649055</ele>
        <time>2020-09-18T09:55:07.900Z</time>
      </trkpt>
      <trkpt lat="48.525658" lon="16.762462">
        <ele>246.762918</ele>
        <time>2020-09-18T09:55:09.918Z</time>
      </trkpt>
      <trkpt lat="48.525698" lon="16.762283">
        <ele>246.879577</ele>
        <time>2020-09-18T09:55:11.899Z</time>
      </trkpt>
      <trkpt lat="48.525734" lon="16.762112">
        <ele>246.990381</ele>
        <time>2020-09-18T09:55:13.941Z</time>
      </trkpt>
      <trkpt lat="48.525765" lon="16.761946">
        <ele>247.096887</ele>
        <time>2020-09-18T09:55:15.898Z</time>
      </trkpt>
      <trkpt lat="48.525792" lon="16.761786">
        <ele>247.198848</ele>
        <time>2020-09-18T09:55:17.920Z</time>
      </trkpt>
      <trkpt lat="48.525820" lon="16.761634">
        <ele>247.296275</ele>
        <time>2020-09-18T09:55:19.894Z</time>
      </trkpt>
      <trkpt lat="48.525846" lon="16.761489">
        <ele>247.389039</ele>
        <time>2020-09-18T09:55:21.921Z</time>
      </trkpt>
      <trkpt lat="48.525866" lon="16.761354">
        <ele>247.523453</ele>
        <time>2020-09-18T09:55:23.902Z</time>
      </trkpt>
      <trkpt lat="48.525893" lon="16.761174">
        <ele>247.712177</ele>
        <time>2020-09-18T09:55:26.901Z</time>
      </trkpt>
      <trkpt lat="48.525927" lon="16.761012">
        <ele>247.885952</ele>
        <time>2020-09-18T09:55:29.907Z</time>
      </trkpt>
      <trkpt lat="48.525961" lon="16.760860">
        <ele>248.050008</ele>
        <time>2020-09-18T09:55:32.907Z</time>
      </trkpt>
      <trkpt lat="48.525993" lon="16.760701">
        <ele>248.219937</ele>
        <time>2020-09-18T09:55:35.916Z</time>
      </trkpt>
      <trkpt lat="48.526026" lon="16.760546">
        <ele>248.386423</ele>
        <time>2020-09-18T09:55:38.894Z</time>
      </trkpt>
      <trkpt lat="48.526070" lon="16.760400">
        <ele>248.550448</ele>
        <time>2020-09-18T09:55:41.902Z</time>
      </trkpt>
      <trkpt lat="48.526122" lon="16.760251">
        <ele>248.722670</ele>
        <time>2020-09-18T09:55:44.911Z</time>
      </trkpt>
      <trkpt lat="48.526181" lon="16.760115">
        <ele>248.888918</ele>
        <time>2020-09-18T09:55:47.908Z</time>
      </trkpt>
      <trkpt lat="48.526241" lon="16.759994">
        <ele>249.043487</ele>
        <time>2020-09-18T09:55:50.928Z</time>
      </trkpt>
      <trkpt lat="48.526299" lon="16.759878">
        <ele>249.192112</ele>
        <time>2020-09-18T09:55:53.903Z</time>
      </trkpt>
      <trkpt lat="48.526352" lon="16.759766">
        <ele>249.332870</ele>
        <time>2020-09-18T09:55:56.902Z</time>
      </trkpt>
      <trkpt lat="48.526400" lon="16.759631">
        <ele>249.489552</ele>
        <time>2020-09-18T09:55:59.913Z</time>
      </trkpt>
      <trkpt lat="48.526451" lon="16.759483">
        <ele>249.660151</ele>
        <time>2020-09-18T09:56:02.893Z</time>
      </trkpt>
      <trkpt lat="48.526541" lon="16.759340">
        <ele>249.861873</ele>
        <time>2020-09-18T09:56:05.890Z</time>
      </trkpt>
      <trkpt lat="48.526659" lon="16.759379">
        <ele>250.048379</ele>
        <time>2020-09-18T09:56:08.921Z</time>
      </trkpt>
      <trkpt lat="48.526772" lon="16.759416">
        <ele>250.195537</ele>
        <time>2020-09-18T09:56:11.917Z</time>
      </trkpt>
      <trkpt lat="48.526886" lon="16.759446">
        <ele>250.262138</ele>
        <time>2020-09-18T09:56:14.895Z</time>
      </trkpt>
      <trkpt lat="48.526999" lon="16.759480">
        <ele>250.328453</ele>
        <time>2020-09-18T09:56:17.901Z</time>
      </trkpt>
      <trkpt lat="48.527124" lon="16.759496">
        <ele>250.400654</ele>
        <time>2020-09-18T09:56:20.909Z</time>
      </trkpt>
      <trkpt lat="48.527252" lon="16.759506">
        <ele>250.474421</ele>
        <time>2020-09-18T09:56:23.921Z</time>
      </trkpt>
      <trkpt lat="48.527342" lon="16.759515">
        <ele>250.526334</ele>
        <time>2020-09-18T09:56:25.937Z</time>
      </trkpt>
      <trkpt lat="48.527440" lon="16.759526">
        <ele>250.582892</ele>
        <time>2020-09-18T09:56:27.924Z</time>
      </trkpt>
      <trkpt lat="48.527546" lon="16.759529">
        <ele>250.643910</ele>
        <time>2020-09-18T09:56:29.928Z</time>
      </trkpt>
      <trkpt lat="48.527658" lon="16.759526">
        <ele>250.708381</ele>
        <time>2020-09-18T09:56:31.921Z</time>
      </trkpt>
      <trkpt lat="48.527783" lon="16.759523">
        <ele>250.780333</ele>
        <time>2020-09-18T09:56:33.899Z</time>
      </trkpt>
      <trkpt lat="48.527917" lon="16.759524">
        <ele>250.857456</ele>
        <time>2020-09-18T09:56:35.894Z</time>
      </trkpt>
      <trkpt lat="48.528060" lon="16.759534">
        <ele>250.939847</ele>
        <time>2020-09-18T09:56:37.894Z</time>
      </trkpt>
      <trkpt lat="48.528207" lon="16.759553">
        <ele>251.024761</ele>
        <time>2020-09-18T09:56:39.900Z</time>
      </trkpt>
      <trkpt lat="48.528355" lon="16.759582">
        <ele>251.110655</ele>
        <time>2020-09-18T09:56:41.899Z</time>
      </trkpt>
      <trkpt lat="48.528504" lon="16.759619">
        <ele>251.197563</ele>
        <time>2020-09-18T09:56:43.900Z</time>
      </trkpt>
      <trkpt lat="48.528655" lon="16.759651">
        <ele>251.231503</ele>
        <time>2020-09-18T09:56:45.917Z</time>
      </trkpt>
      <trkpt lat="48.528804" lon="16.759681">
        <ele>251.254439</ele>
        <time>2020-09-18T09:56:47.904Z</time>
      </trkpt>
      <trkpt lat="48.528948" lon="16.759709">
        <ele>251.276592</ele>
        <time>2020-09-18T09:56:49.897Z</time>
      </trkpt>
      <trkpt lat="48.529079" lon="16.759733">
        <ele>251.296727</ele>
        <time>2020-09-18T09:56:51.891Z</time>
      </trkpt>
      <trkpt lat="48.529197" lon="16.759748">
        <ele>251.314795</ele>
        <time>2020-09-18T09:56:53.901Z</time>
      </trkpt>
      <trkpt lat="48.529310" lon="16.759765">
        <ele>251.332122</ele>
        <time>2020-09-18T09:56:55.888Z</time>
      </trkpt>
      <trkpt lat="48.529417" lon="16.759781">
        <ele>251.348528</ele>
        <time>2020-09-18T09:56:57.884Z</time>
      </trkpt>
      <trkpt lat="48.529517" lon="16.759797">
        <ele>251.363872</ele>
        <time>2020-09-18T09:56:59.894Z</time>
      </trkpt>
      <trkpt lat="48.529613" lon="16.759812">
        <ele>251.378598</ele>
        <time>2020-09-18T09:57:01.898Z</time>
      </trkpt>
      <trkpt lat="48.529742" lon="16.759839">
        <ele>251.398469</ele>
        <time>2020-09-18T09:57:04.910Z</time>
      </trkpt>
      <trkpt lat="48.529853" lon="16.759861">
        <ele>251.415551</ele>
        <time>2020-09-18T09:57:07.901Z</time>
      </trkpt>
      <trkpt lat="48.529951" lon="16.759881">
        <ele>251.430639</ele>
        <time>2020-09-18T09:57:10.911Z</time>
      </trkpt>
      <trkpt lat="48.530043" lon="16.759904">
        <ele>251.444868</ele>
        <time>2020-09-18T09:57:13.913Z</time>
      </trkpt>
      <trkpt lat="48.530161" lon="16.759934">
        <ele>251.463126</ele>
        <time>2020-09-18T09:57:17.922Z</time>
      </trkpt>
      <trkpt lat="48.530255" lon="16.759969">
        <ele>251.477898</ele>
        <time>2020-09-18T09:57:20.928Z</time>
      </trkpt>
      <trkpt lat="48.530348" lon="16.760006">
        <ele>251.548407</ele>
        <time>2020-09-18T09:57:23.930Z</time>
      </trkpt>
      <trkpt lat="48.530442" lon="16.760045">
        <ele>251.700670</ele>
        <time>2020-09-18T09:57:26.950Z</time>
      </trkpt>
      <trkpt lat="48.530533" lon="16.760087">
        <ele>251.849297</ele>
        <time>2020-09-18T09:57:29.931Z</time>
      </trkpt>
      <trkpt lat="48.530627" lon="16.760127">
        <ele>252.001838</ele>
        <time>2020-09-18T09:57:32.903Z</time>
      </trkpt>
      <trkpt lat="48.530725" lon="16.760165">
        <ele>252.159873</ele>
        <time>2020-09-18T09:57:35.891Z</time>
      </trkpt>
      <trkpt lat="48.530831" lon="16.760209">
        <ele>252.331580</ele>
        <time>2020-09-18T09:57:38.931Z</time>
      </trkpt>
      <trkpt lat="48.530935" lon="16.760263">
        <ele>252.503356</ele>
        <time>2020-09-18T09:57:41.897Z</time>
      </trkpt>
      <trkpt lat="48.531038" lon="16.760316">
        <ele>252.673319</ele>
        <time>2020-09-18T09:57:44.907Z</time>
      </trkpt>
      <trkpt lat="48.531142" lon="16.760377">
        <ele>252.847584</ele>
        <time>2020-09-18T09:57:47.925Z</time>
      </trkpt>
      <trkpt lat="48.531248" lon="16.760450">
        <ele>253.029554</ele>
        <time>2020-09-18T09:57:50.939Z</time>
      </trkpt>
      <trkpt lat="48.531357" lon="16.760533">
        <ele>253.220226</ele>
        <time>2020-09-18T09:57:53.893Z</time>
      </trkpt>
      <trkpt lat="48.531463" lon="16.760603">
        <ele>253.400930</ele>
        <time>2020-09-18T09:57:56.930Z</time>
      </trkpt>
      <trkpt lat="48.531559" lon="16.760674">
        <ele>253.567894</ele>
        <time>2020-09-18T09:57:59.895Z</time>
      </trkpt>
      <trkpt lat="48.531661" lon="16.760728">
        <ele>253.736718</ele>
        <time>2020-09-18T09:58:02.904Z</time>
      </trkpt>
      <trkpt lat="48.531765" lon="16.760746">
        <ele>253.900223</ele>
        <time>2020-09-18T09:58:05.901Z</time>
      </trkpt>
      <trkpt lat="48.531848" lon="16.760675">
        <ele>254.049219</ele>
        <time>2020-09-18T09:58:08.896Z</time>
      </trkpt>
      <trkpt lat="48.531931" lon="16.760547">
        <ele>254.234515</ele>
        <time>2020-09-18T09:58:11.879Z</time>
      </trkpt>
      <trkpt lat="48.532011" lon="16.760403">
        <ele>254.367455</ele>
        <time>2020-09-18T09:58:14.886Z</time>
      </trkpt>
      <trkpt lat="48.532090" lon="16.760264">
        <ele>254.469366</ele>
        <time>2020-09-18T09:58:17.894Z</time>
      </trkpt>
      <trkpt lat="48.532161" lon="16.760137">
        <ele>254.561836</ele>
        <time>2020-09-18T09:58:20.919Z</time>
      </trkpt>
      <trkpt lat="48.532226" lon="16.760007">
        <ele>254.652464</ele>
        <time>2020-09-18T09:58:23.890Z</time>
      </trkpt>
      <trkpt lat="48.532296" lon="16.759884">
        <ele>254.742695</ele>
        <time>2020-09-18T09:58:26.905Z</time>
      </trkpt>
      <trkpt lat="48.532370" lon="16.759757">
        <ele>254.836811</ele>
        <time>2020-09-18T09:58:29.905Z</time>
      </trkpt>
      <trkpt lat="48.532450" lon="16.759631">
        <ele>254.933927</ele>
        <time>2020-09-18T09:58:32.898Z</time>
      </trkpt>
      <trkpt lat="48.532525" lon="16.759494">
        <ele>255.032821</ele>
        <time>2020-09-18T09:58:35.924Z</time>
      </trkpt>
      <trkpt lat="48.532602" lon="16.759358">
        <ele>255.132371</ele>
        <time>2020-09-18T09:58:38.899Z</time>
      </trkpt>
      <trkpt lat="48.532670" lon="16.759241">
        <ele>255.218980</ele>
        <time>2020-09-18T09:58:41.897Z</time>
      </trkpt>
      <trkpt lat="48.532737" lon="16.759146">
        <ele>255.296194</ele>
        <time>2020-09-18T09:58:44.912Z</time>
      </trkpt>
      <trkpt lat="48.532837" lon="16.759056">
        <ele>255.394000</ele>
        <time>2020-09-18T09:58:48.904Z</time>
      </trkpt>
      <trkpt lat="48.532932" lon="16.758996">
        <ele>255.480514</ele>
        <time>2020-09-18T09:58:51.902Z</time>
      </trkpt>
      <trkpt lat="48.533019" lon="16.758901">
        <ele>255.570715</ele>
        <time>2020-09-18T09:58:54.903Z</time>
      </trkpt>
      <trkpt lat="48.533110" lon="16.758813">
        <ele>255.661502</ele>
        <time>2020-09-18T09:58:57.900Z</time>
      </trkpt>
      <trkpt lat="48.533205" lon="16.758741">
        <ele>255.750805</ele>
        <time>2020-09-18T09:59:00.898Z</time>
      </trkpt>
      <trkpt lat="48.533295" lon="16.758660">
        <ele>255.836202</ele>
        <time>2020-09-18T09:59:03.904Z</time>
      </trkpt>
      <trkpt lat="48.533385" lon="16.758574">
        <ele>255.918284</ele>
        <time>2020-09-18T09:59:06.907Z</time>
      </trkpt>
      <trkpt lat="48.533460" lon="16.758497">
        <ele>255.988178</ele>
        <time>2020-09-18T09:59:10.899Z</time>
      </trkpt>
      <trkpt lat="48.533553" lon="16.758387">
        <ele>256.079221</ele>
        <time>2020-09-18T09:59:46.884Z</time>
      </trkpt>
      <trkpt lat="48.533652" lon="16.758294">
        <ele>256.169077</ele>
        <time>2020-09-18T09:59:50.886Z</time>
      </trkpt>
      <trkpt lat="48.533741" lon="16.758215">
        <ele>256.248640</ele>
        <time>2020-09-18T09:59:53.884Z</time>
      </trkpt>
      <trkpt lat="48.533825" lon="16.758122">
        <ele>256.328912</ele>
        <time>2020-09-18T09:59:56.884Z</time>
      </trkpt>
      <trkpt lat="48.533919" lon="16.758025">
        <ele>256.416655</ele>
        <time>2020-09-18T09:59:59.881Z</time>
      </trkpt>
      <trkpt lat="48.534014" lon="16.757953">
        <ele>256.498574</ele>
        <time>2020-09-18T10:00:02.881Z</time>
      </trkpt>
      <trkpt lat="48.534117" lon="16.757879">
        <ele>256.586481</ele>
        <time>2020-09-18T10:00:05.888Z</time>
      </trkpt>
      <trkpt lat="48.534236" lon="16.757851">
        <ele>256.679300</ele>
        <time>2020-09-18T10:00:08.879Z</time>
      </trkpt>
      <trkpt lat="48.534364" lon="16.757863">
        <ele>256.778139</ele>
        <time>2020-09-18T10:00:11.891Z</time>
      </trkpt>
      <trkpt lat="48.534455" lon="16.757870">
        <ele>256.848364</ele>
        <time>2020-09-18T10:00:13.897Z</time>
      </trkpt>
      <trkpt lat="48.534552" lon="16.757874">
        <ele>256.923149</ele>
        <time>2020-09-18T10:00:15.888Z</time>
      </trkpt>
      <trkpt lat="48.534651" lon="16.757876">
        <ele>256.999455</ele>
        <time>2020-09-18T10:00:17.883Z</time>
      </trkpt>
      <trkpt lat="48.534754" lon="16.757879">
        <ele>257.078851</ele>
        <time>2020-09-18T10:00:19.900Z</time>
      </trkpt>
      <trkpt lat="48.534856" lon="16.757886">
        <ele>257.157543</ele>
        <time>2020-09-18T10:00:21.896Z</time>
      </trkpt>
      <trkpt lat="48.534954" lon="16.757894">
        <ele>257.179407</ele>
        <time>2020-09-18T10:00:23.895Z</time>
      </trkpt>
      <trkpt lat="48.535048" lon="16.757894">
        <ele>257.154279</ele>
        <time>2020-09-18T10:00:25.893Z</time>
      </trkpt>
      <trkpt lat="48.535180" lon="16.757902">
        <ele>257.118966</ele>
        <time>2020-09-18T10:00:28.902Z</time>
      </trkpt>
      <trkpt lat="48.535308" lon="16.757926">
        <ele>257.084488</ele>
        <time>2020-09-18T10:00:31.901Z</time>
      </trkpt>
      <trkpt lat="48.535425" lon="16.757942">
        <ele>257.053085</ele>
        <time>2020-09-18T10:00:34.887Z</time>
      </trkpt>
      <trkpt lat="48.535529" lon="16.757947">
        <ele>257.025270</ele>
        <time>2020-09-18T10:00:37.892Z</time>
      </trkpt>
      <trkpt lat="48.535642" lon="16.757949">
        <ele>256.995062</ele>
        <time>2020-09-18T10:00:40.888Z</time>
      </trkpt>
      <trkpt lat="48.535763" lon="16.757950">
        <ele>256.962717</ele>
        <time>2020-09-18T10:00:43.892Z</time>
      </trkpt>
      <trkpt lat="48.535855" lon="16.757957">
        <ele>256.938093</ele>
        <time>2020-09-18T10:00:45.894Z</time>
      </trkpt>
      <trkpt lat="48.535950" lon="16.757956">
        <ele>256.912698</ele>
        <time>2020-09-18T10:00:47.885Z</time>
      </trkpt>
      <trkpt lat="48.536053" lon="16.757961">
        <ele>256.885151</ele>
        <time>2020-09-18T10:00:49.878Z</time>
      </trkpt>
      <trkpt lat="48.536161" lon="16.757966">
        <ele>256.856268</ele>
        <time>2020-09-18T10:00:51.884Z</time>
      </trkpt>
      <trkpt lat="48.536265" lon="16.757974">
        <ele>256.828432</ele>
        <time>2020-09-18T10:00:53.885Z</time>
      </trkpt>
      <trkpt lat="48.536367" lon="16.757980">
        <ele>256.801146</ele>
        <time>2020-09-18T10:00:55.878Z</time>
      </trkpt>
      <trkpt lat="48.536467" lon="16.757989">
        <ele>256.774367</ele>
        <time>2020-09-18T10:00:57.884Z</time>
      </trkpt>
      <trkpt lat="48.536561" lon="16.757996">
        <ele>256.749210</ele>
        <time>2020-09-18T10:00:59.881Z</time>
      </trkpt>
      <trkpt lat="48.536682" lon="16.758002">
        <ele>256.716848</ele>
        <time>2020-09-18T10:01:02.900Z</time>
      </trkpt>
      <trkpt lat="48.536801" lon="16.757997">
        <ele>256.677555</ele>
        <time>2020-09-18T10:01:05.908Z</time>
      </trkpt>
      <trkpt lat="48.536918" lon="16.757994">
        <ele>256.637757</ele>
        <time>2020-09-18T10:01:08.918Z</time>
      </trkpt>
      <trkpt lat="48.537027" lon="16.758004">
        <ele>256.600617</ele>
        <time>2020-09-18T10:01:11.909Z</time>
      </trkpt>
      <trkpt lat="48.537143" lon="16.758012">
        <ele>256.561124</ele>
        <time>2020-09-18T10:01:14.920Z</time>
      </trkpt>
      <trkpt lat="48.537261" lon="16.758027">
        <ele>256.520850</ele>
        <time>2020-09-18T10:01:17.921Z</time>
      </trkpt>
      <trkpt lat="48.537380" lon="16.758035">
        <ele>256.480337</ele>
        <time>2020-09-18T10:01:20.909Z</time>
      </trkpt>
      <trkpt lat="48.537507" lon="16.758055">
        <ele>256.436910</ele>
        <time>2020-09-18T10:01:23.892Z</time>
      </trkpt>
      <trkpt lat="48.537639" lon="16.758069">
        <ele>256.391906</ele>
        <time>2020-09-18T10:01:26.890Z</time>
      </trkpt>
      <trkpt lat="48.537737" lon="16.758074">
        <ele>256.358557</ele>
        <time>2020-09-18T10:01:28.902Z</time>
      </trkpt>
      <trkpt lat="48.537839" lon="16.758087">
        <ele>256.323743</ele>
        <time>2020-09-18T10:01:30.897Z</time>
      </trkpt>
      <trkpt lat="48.537943" lon="16.758097">
        <ele>256.288300</ele>
        <time>2020-09-18T10:01:32.891Z</time>
      </trkpt>
      <trkpt lat="48.538043" lon="16.758108">
        <ele>256.254200</ele>
        <time>2020-09-18T10:01:34.888Z</time>
      </trkpt>
      <trkpt lat="48.538147" lon="16.758121">
        <ele>256.218708</ele>
        <time>2020-09-18T10:01:36.894Z</time>
      </trkpt>
      <trkpt lat="48.538247" lon="16.758129">
        <ele>256.184650</ele>
        <time>2020-09-18T10:01:38.896Z</time>
      </trkpt>
      <trkpt lat="48.538346" lon="16.758130">
        <ele>256.150979</ele>
        <time>2020-09-18T10:01:40.914Z</time>
      </trkpt>
      <trkpt lat="48.538444" lon="16.758129">
        <ele>256.117648</ele>
        <time>2020-09-18T10:01:42.899Z</time>
      </trkpt>
      <trkpt lat="48.538562" lon="16.758145">
        <ele>256.022638</ele>
        <time>2020-09-18T10:01:44.900Z</time>
      </trkpt>
      <trkpt lat="48.538678" lon="16.758157">
        <ele>255.890547</ele>
        <time>2020-09-18T10:01:46.884Z</time>
      </trkpt>
      <trkpt lat="48.538788" lon="16.758174">
        <ele>255.764928</ele>
        <time>2020-09-18T10:01:48.894Z</time>
      </trkpt>
      <trkpt lat="48.538911" lon="16.758184">
        <ele>255.624991</ele>
        <time>2020-09-18T10:01:50.903Z</time>
      </trkpt>
      <trkpt lat="48.539046" lon="16.758189">
        <ele>255.471577</ele>
        <time>2020-09-18T10:01:52.900Z</time>
      </trkpt>
      <trkpt lat="48.539187" lon="16.758203">
        <ele>255.311048</ele>
        <time>2020-09-18T10:01:54.930Z</time>
      </trkpt>
      <trkpt lat="48.539337" lon="16.758213">
        <ele>255.140473</ele>
        <time>2020-09-18T10:01:56.893Z</time>
      </trkpt>
      <trkpt lat="48.539482" lon="16.758221">
        <ele>254.975635</ele>
        <time>2020-09-18T10:01:58.905Z</time>
      </trkpt>
      <trkpt lat="48.539622" lon="16.758235">
        <ele>254.816239</ele>
        <time>2020-09-18T10:02:00.897Z</time>
      </trkpt>
      <trkpt lat="48.539772" lon="16.758239">
        <ele>254.645804</ele>
        <time>2020-09-18T10:02:02.911Z</time>
      </trkpt>
      <trkpt lat="48.539934" lon="16.758252">
        <ele>254.461504</ele>
        <time>2020-09-18T10:02:04.903Z</time>
      </trkpt>
      <trkpt lat="48.540111" lon="16.758267">
        <ele>254.260105</ele>
        <time>2020-09-18T10:02:06.900Z</time>
      </trkpt>
      <trkpt lat="48.540203" lon="16.758267">
        <ele>254.155588</ele>
        <time>2020-09-18T10:02:07.897Z</time>
      </trkpt>
      <trkpt lat="48.540372" lon="16.758194">
        <ele>253.923550</ele>
        <time>2020-09-18T10:02:09.885Z</time>
      </trkpt>
      <trkpt lat="48.540454" lon="16.758131">
        <ele>253.785717</ele>
        <time>2020-09-18T10:02:10.912Z</time>
      </trkpt>
      <trkpt lat="48.540541" lon="16.758076">
        <ele>253.644417</ele>
        <time>2020-09-18T10:02:11.910Z</time>
      </trkpt>
      <trkpt lat="48.540631" lon="16.758046">
        <ele>253.506335</ele>
        <time>2020-09-18T10:02:12.893Z</time>
      </trkpt>
      <trkpt lat="48.540723" lon="16.758016">
        <ele>253.365326</ele>
        <time>2020-09-18T10:02:13.892Z</time>
      </trkpt>
      <trkpt lat="48.540815" lon="16.758002">
        <ele>253.226794</ele>
        <time>2020-09-18T10:02:14.881Z</time>
      </trkpt>
      <trkpt lat="48.540906" lon="16.758004">
        <ele>253.090444</ele>
        <time>2020-09-18T10:02:15.879Z</time>
      </trkpt>
      <trkpt lat="48.541075" lon="16.757998">
        <ele>252.837180</ele>
        <time>2020-09-18T10:02:17.914Z</time>
      </trkpt>
      <trkpt lat="48.541231" lon="16.757995">
        <ele>252.603443</ele>
        <time>2020-09-18T10:02:19.910Z</time>
      </trkpt>
      <trkpt lat="48.541373" lon="16.757989">
        <ele>252.390616</ele>
        <time>2020-09-18T10:02:21.894Z</time>
      </trkpt>
      <trkpt lat="48.541503" lon="16.758012">
        <ele>252.194520</ele>
        <time>2020-09-18T10:02:23.896Z</time>
      </trkpt>
      <trkpt lat="48.541623" lon="16.758042">
        <ele>252.012290</ele>
        <time>2020-09-18T10:02:25.903Z</time>
      </trkpt>
      <trkpt lat="48.541726" lon="16.758080">
        <ele>251.853440</ele>
        <time>2020-09-18T10:02:27.904Z</time>
      </trkpt>
      <trkpt lat="48.541829" lon="16.758095">
        <ele>251.698410</ele>
        <time>2020-09-18T10:02:39.899Z</time>
      </trkpt>
      <trkpt lat="48.542049" lon="16.758096">
        <ele>251.368807</ele>
        <time>2020-09-18T10:03:20.901Z</time>
      </trkpt>
      <trkpt lat="48.542173" lon="16.758112">
        <ele>250.963478</ele>
        <time>2020-09-18T10:03:23.910Z</time>
      </trkpt>
      <trkpt lat="48.542301" lon="16.758108">
        <ele>250.538829</ele>
        <time>2020-09-18T10:03:26.905Z</time>
      </trkpt>
      <trkpt lat="48.542432" lon="16.758101">
        <ele>250.104050</ele>
        <time>2020-09-18T10:03:29.889Z</time>
      </trkpt>
      <trkpt lat="48.542555" lon="16.758107">
        <ele>249.695864</ele>
        <time>2020-09-18T10:03:32.916Z</time>
      </trkpt>
      <trkpt lat="48.542650" lon="16.758102">
        <ele>249.380571</ele>
        <time>2020-09-18T10:03:36.912Z</time>
      </trkpt>
      <trkpt lat="48.542777" lon="16.758065">
        <ele>248.951566</ele>
        <time>2020-09-18T10:03:51.920Z</time>
      </trkpt>
      <trkpt lat="48.542900" lon="16.758034">
        <ele>248.537953</ele>
        <time>2020-09-18T10:03:54.888Z</time>
      </trkpt>
      <trkpt lat="48.542995" lon="16.758026">
        <ele>248.222362</ele>
        <time>2020-09-18T10:03:56.884Z</time>
      </trkpt>
      <trkpt lat="48.543117" lon="16.758019">
        <ele>247.817414</ele>
        <time>2020-09-18T10:03:59.896Z</time>
      </trkpt>
      <trkpt lat="48.543233" lon="16.758020">
        <ele>247.432653</ele>
        <time>2020-09-18T10:04:02.894Z</time>
      </trkpt>
      <trkpt lat="48.543340" lon="16.758031">
        <ele>247.076928</ele>
        <time>2020-09-18T10:04:05.907Z</time>
      </trkpt>
      <trkpt lat="48.543443" lon="16.758043">
        <ele>246.734277</ele>
        <time>2020-09-18T10:04:08.911Z</time>
      </trkpt>
      <trkpt lat="48.543539" lon="16.758070">
        <ele>246.410386</ele>
        <time>2020-09-18T10:04:11.885Z</time>
      </trkpt>
      <trkpt lat="48.543628" lon="16.758125">
        <ele>246.091435</ele>
        <time>2020-09-18T10:04:14.883Z</time>
      </trkpt>
      <trkpt lat="48.543715" lon="16.758212">
        <ele>245.745359</ele>
        <time>2020-09-18T10:04:17.879Z</time>
      </trkpt>
      <trkpt lat="48.543808" lon="16.758295">
        <ele>245.398062</ele>
        <time>2020-09-18T10:04:20.929Z</time>
      </trkpt>
      <trkpt lat="48.543881" lon="16.758394">
        <ele>245.439391</ele>
        <time>2020-09-18T10:04:23.888Z</time>
      </trkpt>
      <trkpt lat="48.543968" lon="16.758495">
        <ele>245.485615</ele>
        <time>2020-09-18T10:04:27.887Z</time>
      </trkpt>
      <trkpt lat="48.544050" lon="16.758578">
        <ele>245.527197</ele>
        <time>2020-09-18T10:04:30.896Z</time>
      </trkpt>
      <trkpt lat="48.544133" lon="16.758647">
        <ele>245.567108</ele>
        <time>2020-09-18T10:04:33.904Z</time>
      </trkpt>
      <trkpt lat="48.544231" lon="16.758733">
        <ele>245.614854</ele>
        <time>2020-09-18T10:04:37.896Z</time>
      </trkpt>
      <trkpt lat="48.544315" lon="16.758811">
        <ele>245.656391</ele>
        <time>2020-09-18T10:04:40.916Z</time>
      </trkpt>
      <trkpt lat="48.544412" lon="16.758906">
        <ele>245.705092</ele>
        <time>2020-09-18T10:04:43.893Z</time>
      </trkpt>
      <trkpt lat="48.544515" lon="16.758992">
        <ele>245.754670</ele>
        <time>2020-09-18T10:04:46.890Z</time>
      </trkpt>
      <trkpt lat="48.544628" lon="16.759080">
        <ele>245.808227</ele>
        <time>2020-09-18T10:04:49.894Z</time>
      </trkpt>
      <trkpt lat="48.544734" lon="16.759181">
        <ele>245.861022</ele>
        <time>2020-09-18T10:04:52.930Z</time>
      </trkpt>
      <trkpt lat="48.544848" lon="16.759274">
        <ele>245.915603</ele>
        <time>2020-09-18T10:04:55.905Z</time>
      </trkpt>
      <trkpt lat="48.544929" lon="16.759336">
        <ele>245.953856</ele>
        <time>2020-09-18T10:04:57.887Z</time>
      </trkpt>
      <trkpt lat="48.545055" lon="16.759414">
        <ele>246.011220</ele>
        <time>2020-09-18T10:05:00.890Z</time>
      </trkpt>
      <trkpt lat="48.545159" lon="16.759467">
        <ele>246.057458</ele>
        <time>2020-09-18T10:05:03.896Z</time>
      </trkpt>
      <trkpt lat="48.545220" lon="16.759605">
        <ele>246.103734</ele>
        <time>2020-09-18T10:05:07.896Z</time>
      </trkpt>
      <trkpt lat="48.545211" lon="16.759764">
        <ele>246.148239</ele>
        <time>2020-09-18T10:05:10.901Z</time>
      </trkpt>
      <trkpt lat="48.545177" lon="16.759927">
        <ele>246.182207</ele>
        <time>2020-09-18T10:05:13.909Z</time>
      </trkpt>
      <trkpt lat="48.545135" lon="16.760110">
        <ele>246.218346</ele>
        <time>2020-09-18T10:05:16.895Z</time>
      </trkpt>
      <trkpt lat="48.545102" lon="16.760307">
        <ele>246.256261</ele>
        <time>2020-09-18T10:05:19.894Z</time>
      </trkpt>
      <trkpt lat="48.545077" lon="16.760444">
        <ele>246.282777</ele>
        <time>2020-09-18T10:05:21.933Z</time>
      </trkpt>
      <trkpt lat="48.545036" lon="16.760571">
        <ele>246.309141</ele>
        <time>2020-09-18T10:05:23.931Z</time>
      </trkpt>
      <trkpt lat="48.544980" lon="16.760677">
        <ele>246.334444</ele>
        <time>2020-09-18T10:05:25.876Z</time>
      </trkpt>
      <trkpt lat="48.544929" lon="16.760794">
        <ele>246.360582</ele>
        <time>2020-09-18T10:05:27.903Z</time>
      </trkpt>
      <trkpt lat="48.544890" lon="16.760976">
        <ele>246.396275</ele>
        <time>2020-09-18T10:05:30.892Z</time>
      </trkpt>
      <trkpt lat="48.544868" lon="16.761171">
        <ele>246.433184</ele>
        <time>2020-09-18T10:05:33.907Z</time>
      </trkpt>
      <trkpt lat="48.544843" lon="16.761370">
        <ele>246.470977</ele>
        <time>2020-09-18T10:05:36.901Z</time>
      </trkpt>
      <trkpt lat="48.544826" lon="16.761566">
        <ele>246.507860</ele>
        <time>2020-09-18T10:05:39.888Z</time>
      </trkpt>
      <trkpt lat="48.544819" lon="16.761768">
        <ele>246.545602</ele>
        <time>2020-09-18T10:05:42.910Z</time>
      </trkpt>
      <trkpt lat="48.544820" lon="16.761910">
        <ele>246.572099</ele>
        <time>2020-09-18T10:05:44.890Z</time>
      </trkpt>
      <trkpt lat="48.544805" lon="16.762051">
        <ele>246.598745</ele>
        <time>2020-09-18T10:05:46.891Z</time>
      </trkpt>
      <trkpt lat="48.544782" lon="16.762188">
        <ele>246.625117</ele>
        <time>2020-09-18T10:05:48.911Z</time>
      </trkpt>
      <trkpt lat="48.544766" lon="16.762326">
        <ele>246.651258</ele>
        <time>2020-09-18T10:05:50.893Z</time>
      </trkpt>
      <trkpt lat="48.544751" lon="16.762461">
        <ele>246.666086</ele>
        <time>2020-09-18T10:05:52.908Z</time>
      </trkpt>
      <trkpt lat="48.544735" lon="16.762658">
        <ele>246.677269</ele>
        <time>2020-09-18T10:05:55.897Z</time>
      </trkpt>
      <trkpt lat="48.544747" lon="16.762944">
        <ele>246.693415</ele>
        <time>2020-09-18T10:06:34.898Z</time>
      </trkpt>
      <trkpt lat="48.544722" lon="16.763099">
        <ele>246.702404</ele>
        <time>2020-09-18T10:06:37.907Z</time>
      </trkpt>
      <trkpt lat="48.544712" lon="16.763269">
        <ele>246.712020</ele>
        <time>2020-09-18T10:06:40.902Z</time>
      </trkpt>
      <trkpt lat="48.544696" lon="16.763440">
        <ele>246.721751</ele>
        <time>2020-09-18T10:06:43.899Z</time>
      </trkpt>
      <trkpt lat="48.544683" lon="16.763580">
        <ele>246.729716</ele>
        <time>2020-09-18T10:06:46.916Z</time>
      </trkpt>
      <trkpt lat="48.544727" lon="16.763717">
        <ele>246.738296</ele>
        <time>2020-09-18T10:06:52.889Z</time>
      </trkpt>
      <trkpt lat="48.544831" lon="16.763786">
        <ele>246.747963</ele>
        <time>2020-09-18T10:06:56.891Z</time>
      </trkpt>
      <trkpt lat="48.544931" lon="16.763844">
        <ele>246.757080</ele>
        <time>2020-09-18T10:07:00.904Z</time>
      </trkpt>
      <trkpt lat="48.545027" lon="16.763906">
        <ele>246.765966</ele>
        <time>2020-09-18T10:07:03.885Z</time>
      </trkpt>
      <trkpt lat="48.545128" lon="16.763959">
        <ele>246.775065</ele>
        <time>2020-09-18T10:07:06.890Z</time>
      </trkpt>
      <trkpt lat="48.545231" lon="16.764011">
        <ele>246.784308</ele>
        <time>2020-09-18T10:07:09.903Z</time>
      </trkpt>
      <trkpt lat="48.545284" lon="16.764132">
        <ele>246.792483</ele>
        <time>2020-09-18T10:07:12.884Z</time>
      </trkpt>
      <trkpt lat="48.545258" lon="16.764327">
        <ele>246.803690</ele>
        <time>2020-09-18T10:07:15.885Z</time>
      </trkpt>
      <trkpt lat="48.545247" lon="16.764477">
        <ele>246.812194</ele>
        <time>2020-09-18T10:07:17.905Z</time>
      </trkpt>
      <trkpt lat="48.545234" lon="16.764646">
        <ele>246.778880</ele>
        <time>2020-09-18T10:07:19.913Z</time>
      </trkpt>
      <trkpt lat="48.545212" lon="16.764819">
        <ele>246.730082</ele>
        <time>2020-09-18T10:07:21.893Z</time>
      </trkpt>
      <trkpt lat="48.545175" lon="16.764992">
        <ele>246.679721</ele>
        <time>2020-09-18T10:07:23.922Z</time>
      </trkpt>
      <trkpt lat="48.545124" lon="16.765176">
        <ele>246.624465</ele>
        <time>2020-09-18T10:07:25.893Z</time>
      </trkpt>
      <trkpt lat="48.545083" lon="16.765383">
        <ele>246.564614</ele>
        <time>2020-09-18T10:07:27.886Z</time>
      </trkpt>
      <trkpt lat="48.545057" lon="16.765615">
        <ele>246.499434</ele>
        <time>2020-09-18T10:07:29.911Z</time>
      </trkpt>
      <trkpt lat="48.545025" lon="16.765859">
        <ele>246.430531</ele>
        <time>2020-09-18T10:07:31.906Z</time>
      </trkpt>
      <trkpt lat="48.544979" lon="16.766113">
        <ele>246.357586</ele>
        <time>2020-09-18T10:07:33.913Z</time>
      </trkpt>
      <trkpt lat="48.544938" lon="16.766378">
        <ele>246.282202</ele>
        <time>2020-09-18T10:07:35.889Z</time>
      </trkpt>
      <trkpt lat="48.544922" lon="16.766511">
        <ele>246.244756</ele>
        <time>2020-09-18T10:07:36.913Z</time>
      </trkpt>
      <trkpt lat="48.544881" lon="16.766772">
        <ele>246.170450</ele>
        <time>2020-09-18T10:07:38.899Z</time>
      </trkpt>
      <trkpt lat="48.544841" lon="16.767026">
        <ele>246.098127</ele>
        <time>2020-09-18T10:07:40.909Z</time>
      </trkpt>
      <trkpt lat="48.544808" lon="16.767233">
        <ele>245.989652</ele>
        <time>2020-09-18T10:07:42.900Z</time>
      </trkpt>
      <trkpt lat="48.544785" lon="16.767408">
        <ele>245.832917</ele>
        <time>2020-09-18T10:07:44.926Z</time>
      </trkpt>
      <trkpt lat="48.544795" lon="16.767768">
        <ele>245.516383</ele>
        <time>2020-09-18T10:08:03.901Z</time>
      </trkpt>
      <trkpt lat="48.544849" lon="16.767906">
        <ele>245.375559</ele>
        <time>2020-09-18T10:08:06.921Z</time>
      </trkpt>
      <trkpt lat="48.544901" lon="16.768046">
        <ele>245.234537</ele>
        <time>2020-09-18T10:08:09.907Z</time>
      </trkpt>
      <trkpt lat="48.544966" lon="16.768207">
        <ele>245.068876</ele>
        <time>2020-09-18T10:08:12.891Z</time>
      </trkpt>
      <trkpt lat="48.545040" lon="16.768364">
        <ele>244.899569</ele>
        <time>2020-09-18T10:08:15.898Z</time>
      </trkpt>
      <trkpt lat="48.545107" lon="16.768462">
        <ele>244.775812</ele>
        <time>2020-09-18T10:08:17.909Z</time>
      </trkpt>
      <trkpt lat="48.545187" lon="16.768539">
        <ele>244.649936</ele>
        <time>2020-09-18T10:08:19.929Z</time>
      </trkpt>
      <trkpt lat="48.545274" lon="16.768600">
        <ele>244.522661</ele>
        <time>2020-09-18T10:08:21.910Z</time>
      </trkpt>
      <trkpt lat="48.545387" lon="16.768712">
        <ele>244.343317</ele>
        <time>2020-09-18T10:08:24.887Z</time>
      </trkpt>
      <trkpt lat="48.545453" lon="16.768807">
        <ele>244.222342</ele>
        <time>2020-09-18T10:08:26.887Z</time>
      </trkpt>
      <trkpt lat="48.545523" lon="16.768944">
        <ele>244.070315</ele>
        <time>2020-09-18T10:08:29.876Z</time>
      </trkpt>
      <trkpt lat="48.545602" lon="16.769062">
        <ele>243.922889</ele>
        <time>2020-09-18T10:08:32.893Z</time>
      </trkpt>
      <trkpt lat="48.545688" lon="16.769182">
        <ele>243.767533</ele>
        <time>2020-09-18T10:08:35.914Z</time>
      </trkpt>
      <trkpt lat="48.545778" lon="16.769305">
        <ele>243.634653</ele>
        <time>2020-09-18T10:08:38.887Z</time>
      </trkpt>
      <trkpt lat="48.545881" lon="16.769394">
        <ele>243.541719</ele>
        <time>2020-09-18T10:08:41.890Z</time>
      </trkpt>
      <trkpt lat="48.545966" lon="16.769474">
        <ele>243.463282</ele>
        <time>2020-09-18T10:08:44.894Z</time>
      </trkpt>
      <trkpt lat="48.546078" lon="16.769587">
        <ele>243.357798</ele>
        <time>2020-09-18T10:09:16.890Z</time>
      </trkpt>
      <trkpt lat="48.546193" lon="16.769634">
        <ele>243.264492</ele>
        <time>2020-09-18T10:09:20.894Z</time>
      </trkpt>
      <trkpt lat="48.546300" lon="16.769632">
        <ele>243.180685</ele>
        <time>2020-09-18T10:09:23.895Z</time>
      </trkpt>
      <trkpt lat="48.546405" lon="16.769624">
        <ele>243.098345</ele>
        <time>2020-09-18T10:09:26.900Z</time>
      </trkpt>
      <trkpt lat="48.546500" lon="16.769627">
        <ele>243.023926</ele>
        <time>2020-09-18T10:09:29.891Z</time>
      </trkpt>
      <trkpt lat="48.546592" lon="16.769642">
        <ele>242.951454</ele>
        <time>2020-09-18T10:09:32.881Z</time>
      </trkpt>
      <trkpt lat="48.546686" lon="16.769641">
        <ele>242.877832</ele>
        <time>2020-09-18T10:09:35.909Z</time>
      </trkpt>
      <trkpt lat="48.546780" lon="16.769641">
        <ele>242.804212</ele>
        <time>2020-09-18T10:09:38.907Z</time>
      </trkpt>
      <trkpt lat="48.546874" lon="16.769629">
        <ele>242.730330</ele>
        <time>2020-09-18T10:09:41.917Z</time>
      </trkpt>
      <trkpt lat="48.546966" lon="16.769617">
        <ele>242.658008</ele>
        <time>2020-09-18T10:09:44.912Z</time>
      </trkpt>
      <trkpt lat="48.547071" lon="16.769599">
        <ele>242.575245</ele>
        <time>2020-09-18T10:09:48.899Z</time>
      </trkpt>
      <trkpt lat="48.547178" lon="16.769609">
        <ele>242.491283</ele>
        <time>2020-09-18T10:09:52.912Z</time>
      </trkpt>
      <trkpt lat="48.547281" lon="16.769606">
        <ele>242.410600</ele>
        <time>2020-09-18T10:09:56.907Z</time>
      </trkpt>
      <trkpt lat="48.547396" lon="16.769606">
        <ele>242.320533</ele>
        <time>2020-09-18T10:10:00.892Z</time>
      </trkpt>
      <trkpt lat="48.547501" lon="16.769609">
        <ele>242.268491</ele>
        <time>2020-09-18T10:10:04.895Z</time>
      </trkpt>
      <trkpt lat="48.547593" lon="16.769611">
        <ele>242.273440</ele>
        <time>2020-09-18T10:10:08.906Z</time>
      </trkpt>
      <trkpt lat="48.547664" lon="16.769699">
        <ele>242.278379</ele>
        <time>2020-09-18T10:10:13.900Z</time>
      </trkpt>
      <trkpt lat="48.547661" lon="16.769854">
        <ele>242.283900</ele>
        <time>2020-09-18T10:10:17.919Z</time>
      </trkpt>
      <trkpt lat="48.547672" lon="16.770019">
        <ele>242.289804</ele>
        <time>2020-09-18T10:10:21.901Z</time>
      </trkpt>
      <trkpt lat="48.547690" lon="16.770185">
        <ele>242.295794</ele>
        <time>2020-09-18T10:10:25.894Z</time>
      </trkpt>
      <trkpt lat="48.547698" lon="16.770366">
        <ele>242.302252</ele>
        <time>2020-09-18T10:10:29.922Z</time>
      </trkpt>
      <trkpt lat="48.547710" lon="16.770512">
        <ele>242.307490</ele>
        <time>2020-09-18T10:10:32.895Z</time>
      </trkpt>
      <trkpt lat="48.547723" lon="16.770666">
        <ele>242.313018</ele>
        <time>2020-09-18T10:10:35.911Z</time>
      </trkpt>
      <trkpt lat="48.547730" lon="16.770823">
        <ele>242.318620</ele>
        <time>2020-09-18T10:10:38.893Z</time>
      </trkpt>
      <trkpt lat="48.547732" lon="16.770984">
        <ele>242.324354</ele>
        <time>2020-09-18T10:10:41.903Z</time>
      </trkpt>
      <trkpt lat="48.547748" lon="16.771138">
        <ele>242.329904</ele>
        <time>2020-09-18T10:10:44.887Z</time>
      </trkpt>
      <trkpt lat="48.547834" lon="16.771184">
        <ele>242.334811</ele>
        <time>2020-09-18T10:10:47.892Z</time>
      </trkpt>
      <trkpt lat="48.547940" lon="16.771178">
        <ele>242.340516</ele>
        <time>2020-09-18T10:10:51.909Z</time>
      </trkpt>
      <trkpt lat="48.548043" lon="16.771181">
        <ele>242.346056</ele>
        <time>2020-09-18T10:10:55.929Z</time>
      </trkpt>
      <trkpt lat="48.548150" lon="16.771203">
        <ele>242.351864</ele>
        <time>2020-09-18T10:10:59.893Z</time>
      </trkpt>
      <trkpt lat="48.548241" lon="16.771220">
        <ele>242.356796</ele>
        <time>2020-09-18T10:11:02.920Z</time>
      </trkpt>
      <trkpt lat="48.548351" lon="16.771254">
        <ele>242.362834</ele>
        <time>2020-09-18T10:11:05.896Z</time>
      </trkpt>
      <trkpt lat="48.548434" lon="16.771306">
        <ele>242.377720</ele>
        <time>2020-09-18T10:11:07.897Z</time>
      </trkpt>
      <trkpt lat="48.548524" lon="16.771361">
        <ele>242.394925</ele>
        <time>2020-09-18T10:11:09.905Z</time>
      </trkpt>
      <trkpt lat="48.548620" lon="16.771413">
        <ele>242.412998</ele>
        <time>2020-09-18T10:11:11.914Z</time>
      </trkpt>
      <trkpt lat="48.548727" lon="16.771474">
        <ele>242.433265</ele>
        <time>2020-09-18T10:11:13.918Z</time>
      </trkpt>
      <trkpt lat="48.548847" lon="16.771540">
        <ele>242.455896</ele>
        <time>2020-09-18T10:11:15.908Z</time>
      </trkpt>
      <trkpt lat="48.548973" lon="16.771607">
        <ele>242.479568</ele>
        <time>2020-09-18T10:11:17.908Z</time>
      </trkpt>
      <trkpt lat="48.549108" lon="16.771679">
        <ele>242.504939</ele>
        <time>2020-09-18T10:11:19.915Z</time>
      </trkpt>
      <trkpt lat="48.549257" lon="16.771761">
        <ele>242.533041</ele>
        <time>2020-09-18T10:11:21.913Z</time>
      </trkpt>
      <trkpt lat="48.549421" lon="16.771850">
        <ele>242.563923</ele>
        <time>2020-09-18T10:11:23.920Z</time>
      </trkpt>
      <trkpt lat="48.549508" lon="16.771895">
        <ele>242.580219</ele>
        <time>2020-09-18T10:11:24.899Z</time>
      </trkpt>
      <trkpt lat="48.549599" lon="16.771941">
        <ele>242.597224</ele>
        <time>2020-09-18T10:11:25.905Z</time>
      </trkpt>
      <trkpt lat="48.549690" lon="16.771987">
        <ele>242.614230</ele>
        <time>2020-09-18T10:11:26.933Z</time>
      </trkpt>
      <trkpt lat="48.549774" lon="16.772052">
        <ele>242.630955</ele>
        <time>2020-09-18T10:11:27.926Z</time>
      </trkpt>
      <trkpt lat="48.549846" lon="16.772141">
        <ele>242.647441</ele>
        <time>2020-09-18T10:11:28.882Z</time>
      </trkpt>
      <trkpt lat="48.549951" lon="16.772361">
        <ele>242.679258</ele>
        <time>2020-09-18T10:11:30.885Z</time>
      </trkpt>
      <trkpt lat="48.550054" lon="16.772566">
        <ele>242.839306</ele>
        <time>2020-09-18T10:11:32.905Z</time>
      </trkpt>
      <trkpt lat="48.550143" lon="16.772765">
        <ele>243.000904</ele>
        <time>2020-09-18T10:11:34.910Z</time>
      </trkpt>
      <trkpt lat="48.550215" lon="16.772956">
        <ele>243.148799</ele>
        <time>2020-09-18T10:11:36.886Z</time>
      </trkpt>
      <trkpt lat="48.550236" lon="16.773165">
        <ele>243.291040</ele>
        <time>2020-09-18T10:11:38.903Z</time>
      </trkpt>
      <trkpt lat="48.550233" lon="16.773369">
        <ele>243.428340</ele>
        <time>2020-09-18T10:11:40.891Z</time>
      </trkpt>
      <trkpt lat="48.550219" lon="16.773557">
        <ele>243.555637</ele>
        <time>2020-09-18T10:11:42.898Z</time>
      </trkpt>
      <trkpt lat="48.550220" lon="16.773730">
        <ele>243.672048</ele>
        <time>2020-09-18T10:11:44.910Z</time>
      </trkpt>
      <trkpt lat="48.550237" lon="16.773891">
        <ele>243.781750</ele>
        <time>2020-09-18T10:11:46.913Z</time>
      </trkpt>
      <trkpt lat="48.550274" lon="16.774023">
        <ele>243.878203</ele>
        <time>2020-09-18T10:11:48.925Z</time>
      </trkpt>
      <trkpt lat="48.550332" lon="16.774164">
        <ele>243.989904</ele>
        <time>2020-09-18T10:11:51.896Z</time>
      </trkpt>
      <trkpt lat="48.550413" lon="16.774233">
        <ele>244.084426</ele>
        <time>2020-09-18T10:11:54.879Z</time>
      </trkpt>
      <trkpt lat="48.550513" lon="16.774322">
        <ele>244.202403</ele>
        <time>2020-09-18T10:11:58.898Z</time>
      </trkpt>
      <trkpt lat="48.550599" lon="16.774403">
        <ele>244.305419</ele>
        <time>2020-09-18T10:12:02.911Z</time>
      </trkpt>
      <trkpt lat="48.550686" lon="16.774489">
        <ele>244.411102</ele>
        <time>2020-09-18T10:12:06.890Z</time>
      </trkpt>
      <trkpt lat="48.550765" lon="16.774566">
        <ele>244.506667</ele>
        <time>2020-09-18T10:12:10.923Z</time>
      </trkpt>
      <trkpt lat="48.550842" lon="16.774646">
        <ele>244.697963</ele>
        <time>2020-09-18T10:12:14.914Z</time>
      </trkpt>
      <trkpt lat="48.550928" lon="16.774736">
        <ele>244.916415</ele>
        <time>2020-09-18T10:12:18.906Z</time>
      </trkpt>
      <trkpt lat="48.551004" lon="16.774815">
        <ele>245.109045</ele>
        <time>2020-09-18T10:12:22.901Z</time>
      </trkpt>
      <trkpt lat="48.551080" lon="16.774893">
        <ele>245.300895</ele>
        <time>2020-09-18T10:12:26.924Z</time>
      </trkpt>
      <trkpt lat="48.551171" lon="16.774962">
        <ele>245.513499</ele>
        <time>2020-09-18T10:12:30.899Z</time>
      </trkpt>
      <trkpt lat="48.551262" lon="16.775039">
        <ele>245.731288</ele>
        <time>2020-09-18T10:12:34.908Z</time>
      </trkpt>
      <trkpt lat="48.551352" lon="16.775139">
        <ele>245.964569</ele>
        <time>2020-09-18T10:12:38.931Z</time>
      </trkpt>
      <trkpt lat="48.551428" lon="16.775220">
        <ele>246.158779</ele>
        <time>2020-09-18T10:12:41.922Z</time>
      </trkpt>
      <trkpt lat="48.551509" lon="16.775319">
        <ele>246.376333</ele>
        <time>2020-09-18T10:12:44.921Z</time>
      </trkpt>
      <trkpt lat="48.551592" lon="16.775419">
        <ele>246.598008</ele>
        <time>2020-09-18T10:12:47.880Z</time>
      </trkpt>
      <trkpt lat="48.551689" lon="16.775532">
        <ele>246.853776</ele>
        <time>2020-09-18T10:12:50.941Z</time>
      </trkpt>
      <trkpt lat="48.551769" lon="16.775615">
        <ele>247.056420</ele>
        <time>2020-09-18T10:12:52.913Z</time>
      </trkpt>
      <trkpt lat="48.551862" lon="16.775717">
        <ele>247.296389</ele>
        <time>2020-09-18T10:12:54.884Z</time>
      </trkpt>
      <trkpt lat="48.551953" lon="16.775817">
        <ele>247.531355</ele>
        <time>2020-09-18T10:12:56.943Z</time>
      </trkpt>
      <trkpt lat="48.552041" lon="16.775920">
        <ele>247.763800</ele>
        <time>2020-09-18T10:12:58.901Z</time>
      </trkpt>
      <trkpt lat="48.552125" lon="16.776007">
        <ele>247.976458</ele>
        <time>2020-09-18T10:13:00.938Z</time>
      </trkpt>
      <trkpt lat="48.552208" lon="16.776080">
        <ele>248.176998</ele>
        <time>2020-09-18T10:13:02.926Z</time>
      </trkpt>
      <trkpt lat="48.552290" lon="16.776146">
        <ele>248.254124</ele>
        <time>2020-09-18T10:13:04.896Z</time>
      </trkpt>
      <trkpt lat="48.552374" lon="16.776213">
        <ele>248.231750</ele>
        <time>2020-09-18T10:13:06.908Z</time>
      </trkpt>
      <trkpt lat="48.552456" lon="16.776271">
        <ele>248.210423</ele>
        <time>2020-09-18T10:13:08.906Z</time>
      </trkpt>
      <trkpt lat="48.552568" lon="16.776343">
        <ele>248.181752</ele>
        <time>2020-09-18T10:13:11.914Z</time>
      </trkpt>
      <trkpt lat="48.552666" lon="16.776410">
        <ele>248.156415</ele>
        <time>2020-09-18T10:13:14.883Z</time>
      </trkpt>
      <trkpt lat="48.552759" lon="16.776469">
        <ele>248.132655</ele>
        <time>2020-09-18T10:13:17.892Z</time>
      </trkpt>
      <trkpt lat="48.552860" lon="16.776522">
        <ele>248.107471</ele>
        <time>2020-09-18T10:13:20.920Z</time>
      </trkpt>
      <trkpt lat="48.552974" lon="16.776585">
        <ele>248.078878</ele>
        <time>2020-09-18T10:13:23.924Z</time>
      </trkpt>
      <trkpt lat="48.553097" lon="16.776652">
        <ele>248.048080</ele>
        <time>2020-09-18T10:13:26.900Z</time>
      </trkpt>
      <trkpt lat="48.553184" lon="16.776704">
        <ele>248.026041</ele>
        <time>2020-09-18T10:13:28.890Z</time>
      </trkpt>
      <trkpt lat="48.553275" lon="16.776757">
        <ele>248.003069</ele>
        <time>2020-09-18T10:13:30.930Z</time>
      </trkpt>
      <trkpt lat="48.553381" lon="16.776817">
        <ele>247.976406</ele>
        <time>2020-09-18T10:13:32.911Z</time>
      </trkpt>
      <trkpt lat="48.553511" lon="16.776888">
        <ele>247.943845</ele>
        <time>2020-09-18T10:13:34.900Z</time>
      </trkpt>
      <trkpt lat="48.553660" lon="16.776978">
        <ele>247.906047</ele>
        <time>2020-09-18T10:13:36.912Z</time>
      </trkpt>
      <trkpt lat="48.553834" lon="16.777084">
        <ele>247.861855</ele>
        <time>2020-09-18T10:13:38.904Z</time>
      </trkpt>
      <trkpt lat="48.553929" lon="16.777136">
        <ele>247.834787</ele>
        <time>2020-09-18T10:13:39.912Z</time>
      </trkpt>
      <trkpt lat="48.554020" lon="16.777185">
        <ele>247.794543</ele>
        <time>2020-09-18T10:13:40.900Z</time>
      </trkpt>
      <trkpt lat="48.554103" lon="16.777242">
        <ele>247.756563</ele>
        <time>2020-09-18T10:13:41.895Z</time>
      </trkpt>
      <trkpt lat="48.554255" lon="16.777342">
        <ele>247.687500</ele>
        <time>2020-09-18T10:13:43.895Z</time>
      </trkpt>
      <trkpt lat="48.554402" lon="16.777422">
        <ele>247.622412</ele>
        <time>2020-09-18T10:13:45.886Z</time>
      </trkpt>
      <trkpt lat="48.554552" lon="16.777475">
        <ele>247.558239</ele>
        <time>2020-09-18T10:13:47.902Z</time>
      </trkpt>
      <trkpt lat="48.554697" lon="16.777560">
        <ele>247.493448</ele>
        <time>2020-09-18T10:13:49.906Z</time>
      </trkpt>
      <trkpt lat="48.554830" lon="16.777668">
        <ele>247.430548</ele>
        <time>2020-09-18T10:13:51.906Z</time>
      </trkpt>
      <trkpt lat="48.554963" lon="16.777765">
        <ele>247.369026</ele>
        <time>2020-09-18T10:13:53.900Z</time>
      </trkpt>
      <trkpt lat="48.555084" lon="16.777858">
        <ele>247.312472</ele>
        <time>2020-09-18T10:13:55.878Z</time>
      </trkpt>
      <trkpt lat="48.555197" lon="16.777940">
        <ele>247.260251</ele>
        <time>2020-09-18T10:13:57.904Z</time>
      </trkpt>
      <trkpt lat="48.555302" lon="16.778020">
        <ele>247.211263</ele>
        <time>2020-09-18T10:13:59.894Z</time>
      </trkpt>
      <trkpt lat="48.555411" lon="16.778051">
        <ele>247.165059</ele>
        <time>2020-09-18T10:14:01.893Z</time>
      </trkpt>
      <trkpt lat="48.555517" lon="16.778002">
        <ele>247.118881</ele>
        <time>2020-09-18T10:14:03.900Z</time>
      </trkpt>
      <trkpt lat="48.555610" lon="16.777901">
        <ele>247.084109</ele>
        <time>2020-09-18T10:14:05.900Z</time>
      </trkpt>
      <trkpt lat="48.555697" lon="16.777824">
        <ele>247.066964</ele>
        <time>2020-09-18T10:14:07.914Z</time>
      </trkpt>
      <trkpt lat="48.555794" lon="16.777751">
        <ele>247.048536</ele>
        <time>2020-09-18T10:14:09.900Z</time>
      </trkpt>
      <trkpt lat="48.555883" lon="16.777686">
        <ele>247.031727</ele>
        <time>2020-09-18T10:14:11.882Z</time>
      </trkpt>
      <trkpt lat="48.555965" lon="16.777631">
        <ele>247.016471</ele>
        <time>2020-09-18T10:14:13.881Z</time>
      </trkpt>
      <trkpt lat="48.556083" lon="16.777561">
        <ele>246.994914</ele>
        <time>2020-09-18T10:14:16.898Z</time>
      </trkpt>
      <trkpt lat="48.556198" lon="16.777538">
        <ele>246.975188</ele>
        <time>2020-09-18T10:14:19.885Z</time>
      </trkpt>
      <trkpt lat="48.556307" lon="16.777539">
        <ele>246.956653</ele>
        <time>2020-09-18T10:14:22.923Z</time>
      </trkpt>
      <trkpt lat="48.556419" lon="16.777565">
        <ele>246.937385</ele>
        <time>2020-09-18T10:14:25.904Z</time>
      </trkpt>
      <trkpt lat="48.556519" lon="16.777603">
        <ele>246.919850</ele>
        <time>2020-09-18T10:14:28.916Z</time>
      </trkpt>
      <trkpt lat="48.556614" lon="16.777635">
        <ele>246.903300</ele>
        <time>2020-09-18T10:14:31.920Z</time>
      </trkpt>
      <trkpt lat="48.556710" lon="16.777640">
        <ele>246.886965</ele>
        <time>2020-09-18T10:14:34.883Z</time>
      </trkpt>
      <trkpt lat="48.556806" lon="16.777611">
        <ele>246.870318</ele>
        <time>2020-09-18T10:14:37.913Z</time>
      </trkpt>
      <trkpt lat="48.556907" lon="16.777555">
        <ele>246.852024</ele>
        <time>2020-09-18T10:14:40.918Z</time>
      </trkpt>
      <trkpt lat="48.557015" lon="16.777482">
        <ele>246.831905</ele>
        <time>2020-09-18T10:14:43.931Z</time>
      </trkpt>
      <trkpt lat="48.557124" lon="16.777430">
        <ele>246.812468</ele>
        <time>2020-09-18T10:14:47.893Z</time>
      </trkpt>
      <trkpt lat="48.557221" lon="16.777383">
        <ele>246.795146</ele>
        <time>2020-09-18T10:14:50.908Z</time>
      </trkpt>
      <trkpt lat="48.557320" lon="16.777293">
        <ele>246.682147</ele>
        <time>2020-09-18T10:14:54.891Z</time>
      </trkpt>
      <trkpt lat="48.557424" lon="16.777230">
        <ele>246.510882</ele>
        <time>2020-09-18T10:14:57.898Z</time>
      </trkpt>
      <trkpt lat="48.557529" lon="16.777151">
        <ele>246.331592</ele>
        <time>2020-09-18T10:15:00.883Z</time>
      </trkpt>
      <trkpt lat="48.557633" lon="16.777072">
        <ele>246.153668</ele>
        <time>2020-09-18T10:15:03.887Z</time>
      </trkpt>
      <trkpt lat="48.557729" lon="16.776998">
        <ele>245.988939</ele>
        <time>2020-09-18T10:15:06.890Z</time>
      </trkpt>
      <trkpt lat="48.557827" lon="16.776936">
        <ele>245.826544</ele>
        <time>2020-09-18T10:15:09.889Z</time>
      </trkpt>
      <trkpt lat="48.557930" lon="16.776887">
        <ele>245.661489</ele>
        <time>2020-09-18T10:15:12.920Z</time>
      </trkpt>
      <trkpt lat="48.558029" lon="16.776857">
        <ele>245.507155</ele>
        <time>2020-09-18T10:15:15.916Z</time>
      </trkpt>
      <trkpt lat="48.558142" lon="16.776872">
        <ele>245.333770</ele>
        <time>2020-09-18T10:15:18.884Z</time>
      </trkpt>
      <trkpt lat="48.558238" lon="16.776903">
        <ele>245.183720</ele>
        <time>2020-09-18T10:15:21.885Z</time>
      </trkpt>
      <trkpt lat="48.558342" lon="16.776939">
        <ele>245.020638</ele>
        <time>2020-09-18T10:15:25.894Z</time>
      </trkpt>
      <trkpt lat="48.558555" lon="16.777022">
        <ele>244.684415</ele>
        <time>2020-09-18T10:15:57.875Z</time>
      </trkpt>
      <trkpt lat="48.558669" lon="16.777047">
        <ele>244.508340</ele>
        <time>2020-09-18T10:16:01.881Z</time>
      </trkpt>
      <trkpt lat="48.558780" lon="16.777055">
        <ele>244.338484</ele>
        <time>2020-09-18T10:16:05.887Z</time>
      </trkpt>
      <trkpt lat="48.558891" lon="16.777067">
        <ele>244.168388</ele>
        <time>2020-09-18T10:16:09.889Z</time>
      </trkpt>
      <trkpt lat="48.558981" lon="16.777085">
        <ele>244.032965</ele>
        <time>2020-09-18T10:16:12.882Z</time>
      </trkpt>
      <trkpt lat="48.559076" lon="16.777105">
        <ele>243.945088</ele>
        <time>2020-09-18T10:16:15.884Z</time>
      </trkpt>
      <trkpt lat="48.559192" lon="16.777148">
        <ele>243.835661</ele>
        <time>2020-09-18T10:16:18.892Z</time>
      </trkpt>
      <trkpt lat="48.559291" lon="16.777170">
        <ele>243.743984</ele>
        <time>2020-09-18T10:16:20.883Z</time>
      </trkpt>
      <trkpt lat="48.559407" lon="16.777194">
        <ele>243.636717</ele>
        <time>2020-09-18T10:16:22.882Z</time>
      </trkpt>
      <trkpt lat="48.559533" lon="16.777219">
        <ele>243.520288</ele>
        <time>2020-09-18T10:16:24.881Z</time>
      </trkpt>
      <trkpt lat="48.559665" lon="16.777242">
        <ele>243.398552</ele>
        <time>2020-09-18T10:16:26.899Z</time>
      </trkpt>
      <trkpt lat="48.559798" lon="16.777267">
        <ele>243.275762</ele>
        <time>2020-09-18T10:16:28.884Z</time>
      </trkpt>
      <trkpt lat="48.559932" lon="16.777298">
        <ele>243.151565</ele>
        <time>2020-09-18T10:16:30.883Z</time>
      </trkpt>
      <trkpt lat="48.560070" lon="16.777328">
        <ele>243.023832</ele>
        <time>2020-09-18T10:16:32.891Z</time>
      </trkpt>
      <trkpt lat="48.560206" lon="16.777352">
        <ele>242.898386</ele>
        <time>2020-09-18T10:16:34.877Z</time>
      </trkpt>
      <trkpt lat="48.560337" lon="16.777379">
        <ele>242.777256</ele>
        <time>2020-09-18T10:16:36.887Z</time>
      </trkpt>
      <trkpt lat="48.560458" lon="16.777414">
        <ele>242.664386</ele>
        <time>2020-09-18T10:16:38.907Z</time>
      </trkpt>
      <trkpt lat="48.560569" lon="16.777467">
        <ele>242.557735</ele>
        <time>2020-09-18T10:16:40.893Z</time>
      </trkpt>
      <trkpt lat="48.560657" lon="16.777554">
        <ele>242.461387</ele>
        <time>2020-09-18T10:16:42.885Z</time>
      </trkpt>
      <trkpt lat="48.560732" lon="16.777643">
        <ele>242.381510</ele>
        <time>2020-09-18T10:16:44.889Z</time>
      </trkpt>
      <trkpt lat="48.560839" lon="16.777726">
        <ele>242.322651</ele>
        <time>2020-09-18T10:16:47.884Z</time>
      </trkpt>
      <trkpt lat="48.560940" lon="16.777769">
        <ele>242.271300</ele>
        <time>2020-09-18T10:16:50.882Z</time>
      </trkpt>
      <trkpt lat="48.561037" lon="16.777777">
        <ele>242.223760</ele>
        <time>2020-09-18T10:16:53.896Z</time>
      </trkpt>
      <trkpt lat="48.561150" lon="16.777754">
        <ele>242.167962</ele>
        <time>2020-09-18T10:16:57.886Z</time>
      </trkpt>
      <trkpt lat="48.561242" lon="16.777713">
        <ele>242.121023</ele>
        <time>2020-09-18T10:17:00.885Z</time>
      </trkpt>
      <trkpt lat="48.561344" lon="16.777664">
        <ele>242.068645</ele>
        <time>2020-09-18T10:17:03.883Z</time>
      </trkpt>
      <trkpt lat="48.561454" lon="16.777593">
        <ele>242.010109</ele>
        <time>2020-09-18T10:17:06.884Z</time>
      </trkpt>
      <trkpt lat="48.561570" lon="16.777511">
        <ele>241.947437</ele>
        <time>2020-09-18T10:17:09.875Z</time>
      </trkpt>
      <trkpt lat="48.561685" lon="16.777400">
        <ele>241.880657</ele>
        <time>2020-09-18T10:17:12.877Z</time>
      </trkpt>
      <trkpt lat="48.561762" lon="16.777317">
        <ele>241.834370</ele>
        <time>2020-09-18T10:17:14.896Z</time>
      </trkpt>
      <trkpt lat="48.561835" lon="16.777235">
        <ele>241.789856</ele>
        <time>2020-09-18T10:17:16.888Z</time>
      </trkpt>
      <trkpt lat="48.561916" lon="16.777146">
        <ele>241.740845</ele>
        <time>2020-09-18T10:17:18.879Z</time>
      </trkpt>
      <trkpt lat="48.561995" lon="16.777054">
        <ele>241.692035</ele>
        <time>2020-09-18T10:17:20.881Z</time>
      </trkpt>
      <trkpt lat="48.562076" lon="16.776961">
        <ele>241.642251</ele>
        <time>2020-09-18T10:17:22.884Z</time>
      </trkpt>
      <trkpt lat="48.562152" lon="16.776874">
        <ele>241.595591</ele>
        <time>2020-09-18T10:17:24.886Z</time>
      </trkpt>
      <trkpt lat="48.562223" lon="16.776786">
        <ele>241.550652</ele>
        <time>2020-09-18T10:17:26.895Z</time>
      </trkpt>
      <trkpt lat="48.562294" lon="16.776697">
        <ele>241.515053</ele>
        <time>2020-09-18T10:17:28.889Z</time>
      </trkpt>
      <trkpt lat="48.562364" lon="16.776608">
        <ele>241.567508</ele>
        <time>2020-09-18T10:17:30.891Z</time>
      </trkpt>
      <trkpt lat="48.562432" lon="16.776518">
        <ele>241.619341</ele>
        <time>2020-09-18T10:17:32.891Z</time>
      </trkpt>
      <trkpt lat="48.562513" lon="16.776438">
        <ele>241.674827</ele>
        <time>2020-09-18T10:17:34.884Z</time>
      </trkpt>
      <trkpt lat="48.562594" lon="16.776360">
        <ele>241.729901</ele>
        <time>2020-09-18T10:17:36.892Z</time>
      </trkpt>
      <trkpt lat="48.562678" lon="16.776277">
        <ele>241.787450</ele>
        <time>2020-09-18T10:17:38.898Z</time>
      </trkpt>
      <trkpt lat="48.562757" lon="16.776189">
        <ele>241.843726</ele>
        <time>2020-09-18T10:17:40.896Z</time>
      </trkpt>
      <trkpt lat="48.562829" lon="16.776105">
        <ele>241.895883</ele>
        <time>2020-09-18T10:17:42.906Z</time>
      </trkpt>
      <trkpt lat="48.562940" lon="16.775997">
        <ele>241.971583</ele>
        <time>2020-09-18T10:17:45.901Z</time>
      </trkpt>
      <trkpt lat="48.563049" lon="16.775899">
        <ele>242.044309</ele>
        <time>2020-09-18T10:17:48.893Z</time>
      </trkpt>
      <trkpt lat="48.563158" lon="16.775807">
        <ele>242.115897</ele>
        <time>2020-09-18T10:17:51.917Z</time>
      </trkpt>
      <trkpt lat="48.563262" lon="16.775729">
        <ele>242.182471</ele>
        <time>2020-09-18T10:17:54.922Z</time>
      </trkpt>
      <trkpt lat="48.563359" lon="16.775647">
        <ele>242.246202</ele>
        <time>2020-09-18T10:17:57.918Z</time>
      </trkpt>
      <trkpt lat="48.563449" lon="16.775564">
        <ele>242.306659</ele>
        <time>2020-09-18T10:18:00.913Z</time>
      </trkpt>
      <trkpt lat="48.563527" lon="16.775496">
        <ele>242.358293</ele>
        <time>2020-09-18T10:18:03.926Z</time>
      </trkpt>
      <trkpt lat="48.563606" lon="16.775429">
        <ele>242.410238</ele>
        <time>2020-09-18T10:18:06.917Z</time>
      </trkpt>
      <trkpt lat="48.563702" lon="16.775363">
        <ele>242.470713</ele>
        <time>2020-09-18T10:18:09.915Z</time>
      </trkpt>
      <trkpt lat="48.563804" lon="16.775288">
        <ele>242.535755</ele>
        <time>2020-09-18T10:18:12.882Z</time>
      </trkpt>
      <trkpt lat="48.563907" lon="16.775199">
        <ele>242.695521</ele>
        <time>2020-09-18T10:18:15.912Z</time>
      </trkpt>
      <trkpt lat="48.564010" lon="16.775108">
        <ele>242.864242</ele>
        <time>2020-09-18T10:18:18.893Z</time>
      </trkpt>
      <trkpt lat="48.564110" lon="16.775034">
        <ele>243.021698</ele>
        <time>2020-09-18T10:18:21.915Z</time>
      </trkpt>
      <trkpt lat="48.564227" lon="16.774961">
        <ele>243.200697</ele>
        <time>2020-09-18T10:18:24.893Z</time>
      </trkpt>
      <trkpt lat="48.564338" lon="16.774887">
        <ele>243.372259</ele>
        <time>2020-09-18T10:18:27.902Z</time>
      </trkpt>
      <trkpt lat="48.564451" lon="16.774798">
        <ele>243.552455</ele>
        <time>2020-09-18T10:18:30.934Z</time>
      </trkpt>
      <trkpt lat="48.564548" lon="16.774720">
        <ele>243.707835</ele>
        <time>2020-09-18T10:18:33.910Z</time>
      </trkpt>
      <trkpt lat="48.564668" lon="16.774667">
        <ele>243.884627</ele>
        <time>2020-09-18T10:18:36.898Z</time>
      </trkpt>
      <trkpt lat="48.564781" lon="16.774599">
        <ele>244.056625</ele>
        <time>2020-09-18T10:18:39.902Z</time>
      </trkpt>
      <trkpt lat="48.564887" lon="16.774511">
        <ele>244.227651</ele>
        <time>2020-09-18T10:18:42.902Z</time>
      </trkpt>
      <trkpt lat="48.564987" lon="16.774408">
        <ele>244.398787</ele>
        <time>2020-09-18T10:18:45.898Z</time>
      </trkpt>
      <trkpt lat="48.565066" lon="16.774292">
        <ele>244.554556</ele>
        <time>2020-09-18T10:18:48.934Z</time>
      </trkpt>
      <trkpt lat="48.565155" lon="16.774186">
        <ele>244.714803</ele>
        <time>2020-09-18T10:18:51.900Z</time>
      </trkpt>
      <trkpt lat="48.565244" lon="16.774083">
        <ele>244.873327</ele>
        <time>2020-09-18T10:18:54.899Z</time>
      </trkpt>
      <trkpt lat="48.565325" lon="16.773993">
        <ele>245.015500</ele>
        <time>2020-09-18T10:18:57.907Z</time>
      </trkpt>
      <trkpt lat="48.565404" lon="16.773895">
        <ele>245.157715</ele>
        <time>2020-09-18T10:19:00.895Z</time>
      </trkpt>
      <trkpt lat="48.565485" lon="16.773792">
        <ele>245.302805</ele>
        <time>2020-09-18T10:19:03.898Z</time>
      </trkpt>
      <trkpt lat="48.565577" lon="16.773684">
        <ele>245.462472</ele>
        <time>2020-09-18T10:19:06.897Z</time>
      </trkpt>
      <trkpt lat="48.565660" lon="16.773551">
        <ele>245.628277</ele>
        <time>2020-09-18T10:19:09.904Z</time>
      </trkpt>
      <trkpt lat="48.565743" lon="16.773416">
        <ele>245.795406</ele>
        <time>2020-09-18T10:19:12.898Z</time>
      </trkpt>
      <trkpt lat="48.565833" lon="16.773293">
        <ele>245.961719</ele>
        <time>2020-09-18T10:19:15.903Z</time>
      </trkpt>
      <trkpt lat="48.565925" lon="16.773181">
        <ele>246.123637</ele>
        <time>2020-09-18T10:19:18.892Z</time>
      </trkpt>
      <trkpt lat="48.566012" lon="16.773058">
        <ele>246.286923</ele>
        <time>2020-09-18T10:19:21.933Z</time>
      </trkpt>
      <trkpt lat="48.566090" lon="16.772926">
        <ele>246.447425</ele>
        <time>2020-09-18T10:19:24.914Z</time>
      </trkpt>
      <trkpt lat="48.566175" lon="16.772787">
        <ele>246.619078</ele>
        <time>2020-09-18T10:19:27.889Z</time>
      </trkpt>
      <trkpt lat="48.566253" lon="16.772647">
        <ele>246.785062</ele>
        <time>2020-09-18T10:19:30.926Z</time>
      </trkpt>
      <trkpt lat="48.566328" lon="16.772490">
        <ele>246.960680</ele>
        <time>2020-09-18T10:19:33.905Z</time>
      </trkpt>
      <trkpt lat="48.566404" lon="16.772346">
        <ele>247.127733</ele>
        <time>2020-09-18T10:19:36.909Z</time>
      </trkpt>
      <trkpt lat="48.566478" lon="16.772203">
        <ele>247.292375</ele>
        <time>2020-09-18T10:19:39.884Z</time>
      </trkpt>
      <trkpt lat="48.566563" lon="16.772081">
        <ele>247.453044</ele>
        <time>2020-09-18T10:19:42.941Z</time>
      </trkpt>
      <trkpt lat="48.566640" lon="16.771957">
        <ele>247.595687</ele>
        <time>2020-09-18T10:19:45.910Z</time>
      </trkpt>
      <trkpt lat="48.566718" lon="16.771815">
        <ele>247.729333</ele>
        <time>2020-09-18T10:19:48.893Z</time>
      </trkpt>
      <trkpt lat="48.566785" lon="16.771671">
        <ele>247.856812</ele>
        <time>2020-09-18T10:19:51.900Z</time>
      </trkpt>
      <trkpt lat="48.566867" lon="16.771524">
        <ele>247.996044</ele>
        <time>2020-09-18T10:19:54.891Z</time>
      </trkpt>
      <trkpt lat="48.566956" lon="16.771398">
        <ele>248.129507</ele>
        <time>2020-09-18T10:19:57.921Z</time>
      </trkpt>
      <trkpt lat="48.567040" lon="16.771284">
        <ele>248.253063</ele>
        <time>2020-09-18T10:20:00.914Z</time>
      </trkpt>
      <trkpt lat="48.567129" lon="16.771164">
        <ele>248.383593</ele>
        <time>2020-09-18T10:20:03.898Z</time>
      </trkpt>
      <trkpt lat="48.567241" lon="16.771082">
        <ele>248.519789</ele>
        <time>2020-09-18T10:20:06.881Z</time>
      </trkpt>
      <trkpt lat="48.567326" lon="16.771024">
        <ele>248.621852</ele>
        <time>2020-09-18T10:20:08.910Z</time>
      </trkpt>
      <trkpt lat="48.567410" lon="16.770961">
        <ele>248.724477</ele>
        <time>2020-09-18T10:20:10.877Z</time>
      </trkpt>
      <trkpt lat="48.567510" lon="16.770919">
        <ele>248.838061</ele>
        <time>2020-09-18T10:20:12.899Z</time>
      </trkpt>
      <trkpt lat="48.567603" lon="16.770882">
        <ele>248.943304</ele>
        <time>2020-09-18T10:20:14.879Z</time>
      </trkpt>
      <trkpt lat="48.567696" lon="16.770835">
        <ele>249.050620</ele>
        <time>2020-09-18T10:20:16.888Z</time>
      </trkpt>
      <trkpt lat="48.567784" lon="16.770787">
        <ele>249.153004</ele>
        <time>2020-09-18T10:20:18.883Z</time>
      </trkpt>
      <trkpt lat="48.567858" lon="16.770709">
        <ele>249.251740</ele>
        <time>2020-09-18T10:20:20.884Z</time>
      </trkpt>
      <trkpt lat="48.567922" lon="16.770609">
        <ele>249.352485</ele>
        <time>2020-09-18T10:20:22.905Z</time>
      </trkpt>
      <trkpt lat="48.567977" lon="16.770485">
        <ele>249.460588</ele>
        <time>2020-09-18T10:20:24.892Z</time>
      </trkpt>
      <trkpt lat="48.568029" lon="16.770371">
        <ele>249.580018</ele>
        <time>2020-09-18T10:20:26.900Z</time>
      </trkpt>
      <trkpt lat="48.568099" lon="16.770247">
        <ele>249.751021</ele>
        <time>2020-09-18T10:20:28.898Z</time>
      </trkpt>
      <trkpt lat="48.568180" lon="16.770128">
        <ele>249.930129</ele>
        <time>2020-09-18T10:20:30.923Z</time>
      </trkpt>
      <trkpt lat="48.568244" lon="16.770004">
        <ele>250.095116</ele>
        <time>2020-09-18T10:20:32.911Z</time>
      </trkpt>
      <trkpt lat="48.568311" lon="16.769878">
        <ele>250.264700</ele>
        <time>2020-09-18T10:20:34.917Z</time>
      </trkpt>
      <trkpt lat="48.568379" lon="16.769758">
        <ele>250.430451</ele>
        <time>2020-09-18T10:20:36.902Z</time>
      </trkpt>
      <trkpt lat="48.568445" lon="16.769648">
        <ele>250.586234</ele>
        <time>2020-09-18T10:20:38.892Z</time>
      </trkpt>
      <trkpt lat="48.568508" lon="16.769542">
        <ele>250.735714</ele>
        <time>2020-09-18T10:20:40.906Z</time>
      </trkpt>
      <trkpt lat="48.568591" lon="16.769405">
        <ele>250.930588</ele>
        <time>2020-09-18T10:20:43.910Z</time>
      </trkpt>
      <trkpt lat="48.568685" lon="16.769421">
        <ele>251.080565</ele>
        <time>2020-09-18T10:20:46.893Z</time>
      </trkpt>
      <trkpt lat="48.568770" lon="16.769520">
        <ele>251.250710</ele>
        <time>2020-09-18T10:20:49.917Z</time>
      </trkpt>
      <trkpt lat="48.568866" lon="16.769609">
        <ele>251.429273</ele>
        <time>2020-09-18T10:20:52.893Z</time>
      </trkpt>
      <trkpt lat="48.568965" lon="16.769704">
        <ele>251.615204</ele>
        <time>2020-09-18T10:20:55.896Z</time>
      </trkpt>
      <trkpt lat="48.569063" lon="16.769801">
        <ele>251.800941</ele>
        <time>2020-09-18T10:20:58.886Z</time>
      </trkpt>
      <trkpt lat="48.569167" lon="16.769891">
        <ele>251.990950</ele>
        <time>2020-09-18T10:21:01.937Z</time>
      </trkpt>
      <trkpt lat="48.569274" lon="16.769989">
        <ele>252.189319</ele>
        <time>2020-09-18T10:21:04.920Z</time>
      </trkpt>
      <trkpt lat="48.569384" lon="16.770100">
        <ele>252.402370</ele>
        <time>2020-09-18T10:21:07.898Z</time>
      </trkpt>
      <trkpt lat="48.569492" lon="16.770200">
        <ele>252.626193</ele>
        <time>2020-09-18T10:21:10.897Z</time>
      </trkpt>
      <trkpt lat="48.569604" lon="16.770287">
        <ele>252.848727</ele>
        <time>2020-09-18T10:21:13.885Z</time>
      </trkpt>
      <trkpt lat="48.569713" lon="16.770376">
        <ele>253.067660</ele>
        <time>2020-09-18T10:21:16.904Z</time>
      </trkpt>
      <trkpt lat="48.569820" lon="16.770475">
        <ele>253.289366</ele>
        <time>2020-09-18T10:21:19.935Z</time>
      </trkpt>
      <trkpt lat="48.569932" lon="16.770563">
        <ele>253.512436</ele>
        <time>2020-09-18T10:21:22.916Z</time>
      </trkpt>
      <trkpt lat="48.570053" lon="16.770656">
        <ele>253.752324</ele>
        <time>2020-09-18T10:21:25.903Z</time>
      </trkpt>
      <trkpt lat="48.570137" lon="16.770727">
        <ele>253.922402</ele>
        <time>2020-09-18T10:21:27.894Z</time>
      </trkpt>
      <trkpt lat="48.570225" lon="16.770800">
        <ele>254.099797</ele>
        <time>2020-09-18T10:21:29.912Z</time>
      </trkpt>
      <trkpt lat="48.570319" lon="16.770875">
        <ele>254.287636</ele>
        <time>2020-09-18T10:21:31.886Z</time>
      </trkpt>
      <trkpt lat="48.570423" lon="16.770956">
        <ele>254.494388</ele>
        <time>2020-09-18T10:21:33.911Z</time>
      </trkpt>
      <trkpt lat="48.570526" lon="16.771031">
        <ele>254.696428</ele>
        <time>2020-09-18T10:21:35.907Z</time>
      </trkpt>
      <trkpt lat="48.570638" lon="16.771118">
        <ele>254.918961</ele>
        <time>2020-09-18T10:21:37.912Z</time>
      </trkpt>
      <trkpt lat="48.570763" lon="16.771216">
        <ele>255.167806</ele>
        <time>2020-09-18T10:21:39.900Z</time>
      </trkpt>
      <trkpt lat="48.570894" lon="16.771322">
        <ele>255.430394</ele>
        <time>2020-09-18T10:21:41.883Z</time>
      </trkpt>
      <trkpt lat="48.571022" lon="16.771427">
        <ele>255.624219</ele>
        <time>2020-09-18T10:21:43.917Z</time>
      </trkpt>
      <trkpt lat="48.571143" lon="16.771521">
        <ele>255.755112</ele>
        <time>2020-09-18T10:21:45.894Z</time>
      </trkpt>
      <trkpt lat="48.571251" lon="16.771604">
        <ele>255.871680</ele>
        <time>2020-09-18T10:21:47.888Z</time>
      </trkpt>
      <trkpt lat="48.571346" lon="16.771678">
        <ele>255.974504</ele>
        <time>2020-09-18T10:21:49.889Z</time>
      </trkpt>
      <trkpt lat="48.571429" lon="16.771739">
        <ele>256.063299</ele>
        <time>2020-09-18T10:21:51.923Z</time>
      </trkpt>
      <trkpt lat="48.571543" lon="16.771811">
        <ele>256.182169</ele>
        <time>2020-09-18T10:21:54.915Z</time>
      </trkpt>
      <trkpt lat="48.571643" lon="16.771876">
        <ele>256.286898</ele>
        <time>2020-09-18T10:21:57.913Z</time>
      </trkpt>
      <trkpt lat="48.571735" lon="16.771928">
        <ele>256.381398</ele>
        <time>2020-09-18T10:22:00.882Z</time>
      </trkpt>
      <trkpt lat="48.571834" lon="16.771984">
        <ele>256.483097</ele>
        <time>2020-09-18T10:22:03.907Z</time>
      </trkpt>
      <trkpt lat="48.571938" lon="16.772027">
        <ele>256.586831</ele>
        <time>2020-09-18T10:22:06.893Z</time>
      </trkpt>
      <trkpt lat="48.572047" lon="16.772066">
        <ele>256.694597</ele>
        <time>2020-09-18T10:22:09.917Z</time>
      </trkpt>
      <trkpt lat="48.572166" lon="16.772114">
        <ele>256.813093</ele>
        <time>2020-09-18T10:22:12.926Z</time>
      </trkpt>
      <trkpt lat="48.572289" lon="16.772172">
        <ele>256.937056</ele>
        <time>2020-09-18T10:22:15.892Z</time>
      </trkpt>
      <trkpt lat="48.572415" lon="16.772217">
        <ele>257.061617</ele>
        <time>2020-09-18T10:22:18.893Z</time>
      </trkpt>
      <trkpt lat="48.572502" lon="16.772254">
        <ele>257.148569</ele>
        <time>2020-09-18T10:22:20.887Z</time>
      </trkpt>
      <trkpt lat="48.572589" lon="16.772297">
        <ele>257.236633</ele>
        <time>2020-09-18T10:22:22.918Z</time>
      </trkpt>
      <trkpt lat="48.572678" lon="16.772335">
        <ele>257.371583</ele>
        <time>2020-09-18T10:22:24.907Z</time>
      </trkpt>
      <trkpt lat="48.572767" lon="16.772368">
        <ele>257.546213</ele>
        <time>2020-09-18T10:22:26.919Z</time>
      </trkpt>
      <trkpt lat="48.572896" lon="16.772413">
        <ele>257.798502</ele>
        <time>2020-09-18T10:22:29.921Z</time>
      </trkpt>
      <trkpt lat="48.573018" lon="16.772463">
        <ele>258.039384</ele>
        <time>2020-09-18T10:22:32.912Z</time>
      </trkpt>
      <trkpt lat="48.573143" lon="16.772517">
        <ele>258.287127</ele>
        <time>2020-09-18T10:22:35.910Z</time>
      </trkpt>
      <trkpt lat="48.573231" lon="16.772560">
        <ele>258.463369</ele>
        <time>2020-09-18T10:22:37.908Z</time>
      </trkpt>
      <trkpt lat="48.573357" lon="16.772616">
        <ele>258.713644</ele>
        <time>2020-09-18T10:22:40.926Z</time>
      </trkpt>
      <trkpt lat="48.573488" lon="16.772663">
        <ele>258.970218</ele>
        <time>2020-09-18T10:22:43.904Z</time>
      </trkpt>
      <trkpt lat="48.573579" lon="16.772695">
        <ele>259.148262</ele>
        <time>2020-09-18T10:22:45.912Z</time>
      </trkpt>
      <trkpt lat="48.573672" lon="16.772734">
        <ele>259.332181</ele>
        <time>2020-09-18T10:22:47.903Z</time>
      </trkpt>
      <trkpt lat="48.573760" lon="16.772772">
        <ele>259.506586</ele>
        <time>2020-09-18T10:22:49.913Z</time>
      </trkpt>
      <trkpt lat="48.573885" lon="16.772827">
        <ele>259.754678</ele>
        <time>2020-09-18T10:22:52.916Z</time>
      </trkpt>
      <trkpt lat="48.574011" lon="16.772877">
        <ele>260.002925</ele>
        <time>2020-09-18T10:22:55.912Z</time>
      </trkpt>
      <trkpt lat="48.574135" lon="16.772922">
        <ele>260.245939</ele>
        <time>2020-09-18T10:22:58.890Z</time>
      </trkpt>
      <trkpt lat="48.574255" lon="16.772967">
        <ele>260.481547</ele>
        <time>2020-09-18T10:23:01.929Z</time>
      </trkpt>
      <trkpt lat="48.574363" lon="16.773028">
        <ele>260.701256</ele>
        <time>2020-09-18T10:23:04.894Z</time>
      </trkpt>
      <trkpt lat="48.574414" lon="16.773188">
        <ele>260.879600</ele>
        <time>2020-09-18T10:23:07.881Z</time>
      </trkpt>
      <trkpt lat="48.574409" lon="16.773327">
        <ele>261.018571</ele>
        <time>2020-09-18T10:23:09.898Z</time>
      </trkpt>
      <trkpt lat="48.574403" lon="16.773474">
        <ele>261.165602</ele>
        <time>2020-09-18T10:23:11.900Z</time>
      </trkpt>
      <trkpt lat="48.574398" lon="16.773620">
        <ele>261.311551</ele>
        <time>2020-09-18T10:23:13.887Z</time>
      </trkpt>
      <trkpt lat="48.574392" lon="16.773771">
        <ele>261.462569</ele>
        <time>2020-09-18T10:23:15.919Z</time>
      </trkpt>
      <trkpt lat="48.574393" lon="16.773922">
        <ele>261.613322</ele>
        <time>2020-09-18T10:23:17.885Z</time>
      </trkpt>
      <trkpt lat="48.574392" lon="16.774070">
        <ele>261.761080</ele>
        <time>2020-09-18T10:23:19.894Z</time>
      </trkpt>
      <trkpt lat="48.574390" lon="16.774216">
        <ele>261.906866</ele>
        <time>2020-09-18T10:23:21.890Z</time>
      </trkpt>
      <trkpt lat="48.574383" lon="16.774364">
        <ele>262.054993</ele>
        <time>2020-09-18T10:23:23.910Z</time>
      </trkpt>
      <trkpt lat="48.574378" lon="16.774508">
        <ele>262.198949</ele>
        <time>2020-09-18T10:23:25.915Z</time>
      </trkpt>
      <trkpt lat="48.574372" lon="16.774653">
        <ele>262.343987</ele>
        <time>2020-09-18T10:23:27.897Z</time>
      </trkpt>
      <trkpt lat="48.574374" lon="16.774800">
        <ele>262.490771</ele>
        <time>2020-09-18T10:23:29.910Z</time>
      </trkpt>
      <trkpt lat="48.574374" lon="16.774945">
        <ele>262.635527</ele>
        <time>2020-09-18T10:23:31.892Z</time>
      </trkpt>
      <trkpt lat="48.574377" lon="16.775090">
        <ele>262.780353</ele>
        <time>2020-09-18T10:23:33.927Z</time>
      </trkpt>
      <trkpt lat="48.574380" lon="16.775234">
        <ele>262.924182</ele>
        <time>2020-09-18T10:23:35.913Z</time>
      </trkpt>
      <trkpt lat="48.574384" lon="16.775380">
        <ele>263.070061</ele>
        <time>2020-09-18T10:23:37.922Z</time>
      </trkpt>
      <trkpt lat="48.574388" lon="16.775528">
        <ele>263.217935</ele>
        <time>2020-09-18T10:23:39.899Z</time>
      </trkpt>
      <trkpt lat="48.574391" lon="16.775674">
        <ele>263.363759</ele>
        <time>2020-09-18T10:23:41.939Z</time>
      </trkpt>
      <trkpt lat="48.574394" lon="16.775820">
        <ele>263.450529</ele>
        <time>2020-09-18T10:23:43.920Z</time>
      </trkpt>
      <trkpt lat="48.574397" lon="16.775969">
        <ele>263.501109</ele>
        <time>2020-09-18T10:23:45.894Z</time>
      </trkpt>
      <trkpt lat="48.574403" lon="16.776121">
        <ele>263.552775</ele>
        <time>2020-09-18T10:23:47.905Z</time>
      </trkpt>
      <trkpt lat="48.574410" lon="16.776269">
        <ele>263.603120</ele>
        <time>2020-09-18T10:23:49.911Z</time>
      </trkpt>
      <trkpt lat="48.574418" lon="16.776414">
        <ele>263.652489</ele>
        <time>2020-09-18T10:23:51.922Z</time>
      </trkpt>
      <trkpt lat="48.574421" lon="16.776563">
        <ele>263.703069</ele>
        <time>2020-09-18T10:23:53.898Z</time>
      </trkpt>
      <trkpt lat="48.574423" lon="16.776712">
        <ele>263.753635</ele>
        <time>2020-09-18T10:23:55.939Z</time>
      </trkpt>
      <trkpt lat="48.574420" lon="16.776857">
        <ele>263.802858</ele>
        <time>2020-09-18T10:23:57.915Z</time>
      </trkpt>
      <trkpt lat="48.574422" lon="16.776998">
        <ele>263.850711</ele>
        <time>2020-09-18T10:23:59.904Z</time>
      </trkpt>
      <trkpt lat="48.574426" lon="16.777145">
        <ele>263.900631</ele>
        <time>2020-09-18T10:24:01.911Z</time>
      </trkpt>
      <trkpt lat="48.574433" lon="16.777293">
        <ele>263.950976</ele>
        <time>2020-09-18T10:24:03.898Z</time>
      </trkpt>
      <trkpt lat="48.574440" lon="16.777438">
        <ele>264.000305</ele>
        <time>2020-09-18T10:24:05.898Z</time>
      </trkpt>
      <trkpt lat="48.574448" lon="16.777581">
        <ele>264.048999</ele>
        <time>2020-09-18T10:24:07.911Z</time>
      </trkpt>
      <trkpt lat="48.574451" lon="16.777725">
        <ele>264.097882</ele>
        <time>2020-09-18T10:24:09.914Z</time>
      </trkpt>
      <trkpt lat="48.574453" lon="16.777863">
        <ele>264.144717</ele>
        <time>2020-09-18T10:24:11.911Z</time>
      </trkpt>
      <trkpt lat="48.574460" lon="16.778063">
        <ele>264.212673</ele>
        <time>2020-09-18T10:24:14.886Z</time>
      </trkpt>
      <trkpt lat="48.574464" lon="16.778260">
        <ele>264.279547</ele>
        <time>2020-09-18T10:24:17.904Z</time>
      </trkpt>
      <trkpt lat="48.574468" lon="16.778458">
        <ele>264.343127</ele>
        <time>2020-09-18T10:24:20.887Z</time>
      </trkpt>
      <trkpt lat="48.574471" lon="16.778594">
        <ele>264.349958</ele>
        <time>2020-09-18T10:24:22.913Z</time>
      </trkpt>
      <trkpt lat="48.574470" lon="16.778731">
        <ele>264.356836</ele>
        <time>2020-09-18T10:24:24.918Z</time>
      </trkpt>
      <trkpt lat="48.574474" lon="16.778877">
        <ele>264.364172</ele>
        <time>2020-09-18T10:24:26.898Z</time>
      </trkpt>
      <trkpt lat="48.574482" lon="16.779025">
        <ele>264.371626</ele>
        <time>2020-09-18T10:24:28.910Z</time>
      </trkpt>
      <trkpt lat="48.574489" lon="16.779169">
        <ele>264.378874</ele>
        <time>2020-09-18T10:24:30.896Z</time>
      </trkpt>
      <trkpt lat="48.574495" lon="16.779313">
        <ele>264.386117</ele>
        <time>2020-09-18T10:24:32.931Z</time>
      </trkpt>
      <trkpt lat="48.574496" lon="16.779462">
        <ele>264.393597</ele>
        <time>2020-09-18T10:24:34.909Z</time>
      </trkpt>
      <trkpt lat="48.574496" lon="16.779608">
        <ele>264.400926</ele>
        <time>2020-09-18T10:24:36.907Z</time>
      </trkpt>
      <trkpt lat="48.574496" lon="16.779755">
        <ele>264.408306</ele>
        <time>2020-09-18T10:24:38.907Z</time>
      </trkpt>
      <trkpt lat="48.574499" lon="16.779904">
        <ele>264.415789</ele>
        <time>2020-09-18T10:24:40.933Z</time>
      </trkpt>
      <trkpt lat="48.574504" lon="16.780053">
        <ele>264.423278</ele>
        <time>2020-09-18T10:24:42.896Z</time>
      </trkpt>
      <trkpt lat="48.574501" lon="16.780205">
        <ele>264.430912</ele>
        <time>2020-09-18T10:24:44.889Z</time>
      </trkpt>
      <trkpt lat="48.574493" lon="16.780354">
        <ele>264.438416</ele>
        <time>2020-09-18T10:24:46.903Z</time>
      </trkpt>
      <trkpt lat="48.574487" lon="16.780504">
        <ele>264.445960</ele>
        <time>2020-09-18T10:24:48.920Z</time>
      </trkpt>
      <trkpt lat="48.574486" lon="16.780656">
        <ele>264.453591</ele>
        <time>2020-09-18T10:24:50.900Z</time>
      </trkpt>
      <trkpt lat="48.574485" lon="16.780804">
        <ele>264.461021</ele>
        <time>2020-09-18T10:24:52.914Z</time>
      </trkpt>
      <trkpt lat="48.574484" lon="16.780954">
        <ele>264.468551</ele>
        <time>2020-09-18T10:24:54.906Z</time>
      </trkpt>
      <trkpt lat="48.574479" lon="16.781107">
        <ele>264.476241</ele>
        <time>2020-09-18T10:24:56.891Z</time>
      </trkpt>
      <trkpt lat="48.574470" lon="16.781259">
        <ele>264.475500</ele>
        <time>2020-09-18T10:24:58.928Z</time>
      </trkpt>
      <trkpt lat="48.574463" lon="16.781412">
        <ele>264.470107</ele>
        <time>2020-09-18T10:25:00.902Z</time>
      </trkpt>
      <trkpt lat="48.574460" lon="16.781562">
        <ele>264.464829</ele>
        <time>2020-09-18T10:25:02.901Z</time>
      </trkpt>
      <trkpt lat="48.574461" lon="16.781711">
        <ele>264.459589</ele>
        <time>2020-09-18T10:25:04.905Z</time>
      </trkpt>
      <trkpt lat="48.574460" lon="16.781859">
        <ele>264.454384</ele>
        <time>2020-09-18T10:25:06.903Z</time>
      </trkpt>
      <trkpt lat="48.574456" lon="16.782006">
        <ele>264.449210</ele>
        <time>2020-09-18T10:25:08.923Z</time>
      </trkpt>
      <trkpt lat="48.574451" lon="16.782150">
        <ele>264.444139</ele>
        <time>2020-09-18T10:25:10.885Z</time>
      </trkpt>
      <trkpt lat="48.574444" lon="16.782290">
        <ele>264.439202</ele>
        <time>2020-09-18T10:25:12.922Z</time>
      </trkpt>
      <trkpt lat="48.574438" lon="16.782429">
        <ele>264.434303</ele>
        <time>2020-09-18T10:25:14.898Z</time>
      </trkpt>
      <trkpt lat="48.574432" lon="16.782565">
        <ele>264.429510</ele>
        <time>2020-09-18T10:25:16.902Z</time>
      </trkpt>
      <trkpt lat="48.574426" lon="16.782701">
        <ele>264.424716</ele>
        <time>2020-09-18T10:25:18.907Z</time>
      </trkpt>
      <trkpt lat="48.574415" lon="16.782893">
        <ele>264.417939</ele>
        <time>2020-09-18T10:25:21.934Z</time>
      </trkpt>
      <trkpt lat="48.574408" lon="16.783075">
        <ele>264.411528</ele>
        <time>2020-09-18T10:25:24.905Z</time>
      </trkpt>
      <trkpt lat="48.574400" lon="16.783254">
        <ele>264.405218</ele>
        <time>2020-09-18T10:25:27.900Z</time>
      </trkpt>
      <trkpt lat="48.574393" lon="16.783438">
        <ele>264.398737</ele>
        <time>2020-09-18T10:25:30.894Z</time>
      </trkpt>
      <trkpt lat="48.574390" lon="16.783627">
        <ele>264.392088</ele>
        <time>2020-09-18T10:25:33.949Z</time>
      </trkpt>
      <trkpt lat="48.574392" lon="16.783821">
        <ele>264.385265</ele>
        <time>2020-09-18T10:25:36.906Z</time>
      </trkpt>
      <trkpt lat="48.574393" lon="16.783957">
        <ele>264.379444</ele>
        <time>2020-09-18T10:25:38.892Z</time>
      </trkpt>
      <trkpt lat="48.574383" lon="16.784158">
        <ele>264.369799</ele>
        <time>2020-09-18T10:25:41.914Z</time>
      </trkpt>
      <trkpt lat="48.574374" lon="16.784296">
        <ele>264.363164</ele>
        <time>2020-09-18T10:25:43.911Z</time>
      </trkpt>
      <trkpt lat="48.574374" lon="16.784433">
        <ele>264.356609</ele>
        <time>2020-09-18T10:25:45.886Z</time>
      </trkpt>
      <trkpt lat="48.574373" lon="16.784569">
        <ele>264.350101</ele>
        <time>2020-09-18T10:25:47.893Z</time>
      </trkpt>
      <trkpt lat="48.574368" lon="16.784776">
        <ele>264.340189</ele>
        <time>2020-09-18T10:25:50.924Z</time>
      </trkpt>
      <trkpt lat="48.574360" lon="16.784920">
        <ele>264.333275</ele>
        <time>2020-09-18T10:25:52.893Z</time>
      </trkpt>
      <trkpt lat="48.574355" lon="16.785063">
        <ele>264.326423</ele>
        <time>2020-09-18T10:25:54.896Z</time>
      </trkpt>
      <trkpt lat="48.574352" lon="16.785205">
        <ele>264.319625</ele>
        <time>2020-09-18T10:25:56.906Z</time>
      </trkpt>
      <trkpt lat="48.574354" lon="16.785399">
        <ele>264.310341</ele>
        <time>2020-09-18T10:25:59.912Z</time>
      </trkpt>
      <trkpt lat="48.574351" lon="16.785577">
        <ele>264.301821</ele>
        <time>2020-09-18T10:26:02.903Z</time>
      </trkpt>
      <trkpt lat="48.574344" lon="16.785761">
        <ele>264.293003</ele>
        <time>2020-09-18T10:26:05.898Z</time>
      </trkpt>
      <trkpt lat="48.574334" lon="16.785949">
        <ele>264.283978</ele>
        <time>2020-09-18T10:26:08.901Z</time>
      </trkpt>
      <trkpt lat="48.574318" lon="16.786139">
        <ele>264.274814</ele>
        <time>2020-09-18T10:26:11.889Z</time>
      </trkpt>
      <trkpt lat="48.574306" lon="16.786337">
        <ele>264.265300</ele>
        <time>2020-09-18T10:26:14.903Z</time>
      </trkpt>
      <trkpt lat="48.574292" lon="16.786541">
        <ele>264.255486</ele>
        <time>2020-09-18T10:26:17.891Z</time>
      </trkpt>
      <trkpt lat="48.574272" lon="16.786679">
        <ele>264.244741</ele>
        <time>2020-09-18T10:26:19.891Z</time>
      </trkpt>
      <trkpt lat="48.574252" lon="16.786816">
        <ele>264.232162</ele>
        <time>2020-09-18T10:26:21.897Z</time>
      </trkpt>
      <trkpt lat="48.574234" lon="16.786953">
        <ele>264.219638</ele>
        <time>2020-09-18T10:26:23.895Z</time>
      </trkpt>
      <trkpt lat="48.574217" lon="16.787088">
        <ele>264.207316</ele>
        <time>2020-09-18T10:26:25.894Z</time>
      </trkpt>
      <trkpt lat="48.574200" lon="16.787226">
        <ele>264.194730</ele>
        <time>2020-09-18T10:26:27.936Z</time>
      </trkpt>
      <trkpt lat="48.574175" lon="16.787366">
        <ele>264.181728</ele>
        <time>2020-09-18T10:26:29.903Z</time>
      </trkpt>
      <trkpt lat="48.574152" lon="16.787502">
        <ele>264.169142</ele>
        <time>2020-09-18T10:26:31.891Z</time>
      </trkpt>
      <trkpt lat="48.574131" lon="16.787641">
        <ele>264.156358</ele>
        <time>2020-09-18T10:26:33.895Z</time>
      </trkpt>
      <trkpt lat="48.574115" lon="16.787785">
        <ele>264.143266</ele>
        <time>2020-09-18T10:26:35.893Z</time>
      </trkpt>
      <trkpt lat="48.574098" lon="16.787932">
        <ele>264.129886</ele>
        <time>2020-09-18T10:26:37.908Z</time>
      </trkpt>
      <trkpt lat="48.574076" lon="16.788081">
        <ele>264.116198</ele>
        <time>2020-09-18T10:26:39.902Z</time>
      </trkpt>
      <trkpt lat="48.574049" lon="16.788227">
        <ele>264.102605</ele>
        <time>2020-09-18T10:26:41.896Z</time>
      </trkpt>
      <trkpt lat="48.574029" lon="16.788372">
        <ele>264.089325</ele>
        <time>2020-09-18T10:26:43.938Z</time>
      </trkpt>
      <trkpt lat="48.574011" lon="16.788513">
        <ele>264.076449</ele>
        <time>2020-09-18T10:26:45.920Z</time>
      </trkpt>
      <trkpt lat="48.573993" lon="16.788656">
        <ele>264.063397</ele>
        <time>2020-09-18T10:26:47.901Z</time>
      </trkpt>
      <trkpt lat="48.573974" lon="16.788803">
        <ele>264.049968</ele>
        <time>2020-09-18T10:26:49.903Z</time>
      </trkpt>
      <trkpt lat="48.573949" lon="16.788955">
        <ele>264.035924</ele>
        <time>2020-09-18T10:26:51.920Z</time>
      </trkpt>
      <trkpt lat="48.573926" lon="16.789107">
        <ele>264.021944</ele>
        <time>2020-09-18T10:26:53.900Z</time>
      </trkpt>
      <trkpt lat="48.573903" lon="16.789261">
        <ele>264.008399</ele>
        <time>2020-09-18T10:26:55.903Z</time>
      </trkpt>
      <trkpt lat="48.573881" lon="16.789412">
        <ele>263.999350</ele>
        <time>2020-09-18T10:26:57.940Z</time>
      </trkpt>
      <trkpt lat="48.573863" lon="16.789563">
        <ele>263.990370</ele>
        <time>2020-09-18T10:26:59.915Z</time>
      </trkpt>
      <trkpt lat="48.573844" lon="16.789709">
        <ele>263.981662</ele>
        <time>2020-09-18T10:27:01.934Z</time>
      </trkpt>
      <trkpt lat="48.573821" lon="16.789855">
        <ele>263.972878</ele>
        <time>2020-09-18T10:27:03.916Z</time>
      </trkpt>
      <trkpt lat="48.573798" lon="16.790002">
        <ele>263.964037</ele>
        <time>2020-09-18T10:27:05.915Z</time>
      </trkpt>
      <trkpt lat="48.573776" lon="16.790145">
        <ele>263.955445</ele>
        <time>2020-09-18T10:27:07.913Z</time>
      </trkpt>
      <trkpt lat="48.573755" lon="16.790282">
        <ele>263.947214</ele>
        <time>2020-09-18T10:27:09.887Z</time>
      </trkpt>
      <trkpt lat="48.573733" lon="16.790417">
        <ele>263.939077</ele>
        <time>2020-09-18T10:27:11.913Z</time>
      </trkpt>
      <trkpt lat="48.573711" lon="16.790551">
        <ele>263.930996</ele>
        <time>2020-09-18T10:27:13.920Z</time>
      </trkpt>
      <trkpt lat="48.573695" lon="16.790688">
        <ele>263.922854</ele>
        <time>2020-09-18T10:27:15.920Z</time>
      </trkpt>
      <trkpt lat="48.573676" lon="16.790823">
        <ele>263.914777</ele>
        <time>2020-09-18T10:27:17.913Z</time>
      </trkpt>
      <trkpt lat="48.573654" lon="16.790957">
        <ele>263.906696</ele>
        <time>2020-09-18T10:27:19.909Z</time>
      </trkpt>
      <trkpt lat="48.573634" lon="16.791096">
        <ele>263.898371</ele>
        <time>2020-09-18T10:27:21.918Z</time>
      </trkpt>
      <trkpt lat="48.573615" lon="16.791236">
        <ele>263.890006</ele>
        <time>2020-09-18T10:27:23.923Z</time>
      </trkpt>
      <trkpt lat="48.573596" lon="16.791379">
        <ele>263.881470</ele>
        <time>2020-09-18T10:27:25.902Z</time>
      </trkpt>
      <trkpt lat="48.573579" lon="16.791524">
        <ele>263.872851</ele>
        <time>2020-09-18T10:27:27.921Z</time>
      </trkpt>
      <trkpt lat="48.573558" lon="16.791675">
        <ele>263.863821</ele>
        <time>2020-09-18T10:27:29.911Z</time>
      </trkpt>
      <trkpt lat="48.573537" lon="16.791817">
        <ele>263.855305</ele>
        <time>2020-09-18T10:27:31.896Z</time>
      </trkpt>
      <trkpt lat="48.573516" lon="16.791959">
        <ele>263.849028</ele>
        <time>2020-09-18T10:27:33.921Z</time>
      </trkpt>
      <trkpt lat="48.573498" lon="16.792102">
        <ele>263.845719</ele>
        <time>2020-09-18T10:27:35.909Z</time>
      </trkpt>
      <trkpt lat="48.573481" lon="16.792245">
        <ele>263.842417</ele>
        <time>2020-09-18T10:27:37.929Z</time>
      </trkpt>
      <trkpt lat="48.573458" lon="16.792389">
        <ele>263.839050</ele>
        <time>2020-09-18T10:27:39.918Z</time>
      </trkpt>
      <trkpt lat="48.573436" lon="16.792530">
        <ele>263.835757</ele>
        <time>2020-09-18T10:27:41.893Z</time>
      </trkpt>
      <trkpt lat="48.573416" lon="16.792663">
        <ele>263.832657</ele>
        <time>2020-09-18T10:27:43.898Z</time>
      </trkpt>
      <trkpt lat="48.573395" lon="16.792797">
        <ele>263.829527</ele>
        <time>2020-09-18T10:27:45.901Z</time>
      </trkpt>
      <trkpt lat="48.573374" lon="16.792931">
        <ele>263.826397</ele>
        <time>2020-09-18T10:27:47.919Z</time>
      </trkpt>
      <trkpt lat="48.573355" lon="16.793066">
        <ele>263.823260</ele>
        <time>2020-09-18T10:27:49.927Z</time>
      </trkpt>
      <trkpt lat="48.573337" lon="16.793201">
        <ele>263.820130</ele>
        <time>2020-09-18T10:27:51.913Z</time>
      </trkpt>
      <trkpt lat="48.573318" lon="16.793337">
        <ele>263.816971</ele>
        <time>2020-09-18T10:27:53.909Z</time>
      </trkpt>
      <trkpt lat="48.573300" lon="16.793472">
        <ele>263.813841</ele>
        <time>2020-09-18T10:27:55.903Z</time>
      </trkpt>
      <trkpt lat="48.573283" lon="16.793608">
        <ele>263.810695</ele>
        <time>2020-09-18T10:27:57.900Z</time>
      </trkpt>
      <trkpt lat="48.573262" lon="16.793744">
        <ele>263.807521</ele>
        <time>2020-09-18T10:27:59.930Z</time>
      </trkpt>
      <trkpt lat="48.573242" lon="16.793882">
        <ele>263.804310</ele>
        <time>2020-09-18T10:28:01.906Z</time>
      </trkpt>
      <trkpt lat="48.573217" lon="16.794020">
        <ele>263.801058</ele>
        <time>2020-09-18T10:28:03.918Z</time>
      </trkpt>
      <trkpt lat="48.573186" lon="16.794159">
        <ele>263.797724</ele>
        <time>2020-09-18T10:28:05.894Z</time>
      </trkpt>
      <trkpt lat="48.573156" lon="16.794296">
        <ele>263.794444</ele>
        <time>2020-09-18T10:28:07.939Z</time>
      </trkpt>
      <trkpt lat="48.573128" lon="16.794430">
        <ele>263.791250</ele>
        <time>2020-09-18T10:28:09.907Z</time>
      </trkpt>
      <trkpt lat="48.573104" lon="16.794567">
        <ele>263.787447</ele>
        <time>2020-09-18T10:28:11.918Z</time>
      </trkpt>
      <trkpt lat="48.573082" lon="16.794704">
        <ele>263.781307</ele>
        <time>2020-09-18T10:28:13.893Z</time>
      </trkpt>
      <trkpt lat="48.573060" lon="16.794839">
        <ele>263.775251</ele>
        <time>2020-09-18T10:28:15.900Z</time>
      </trkpt>
      <trkpt lat="48.573037" lon="16.794977">
        <ele>263.769052</ele>
        <time>2020-09-18T10:28:17.893Z</time>
      </trkpt>
      <trkpt lat="48.573016" lon="16.795114">
        <ele>263.762927</ele>
        <time>2020-09-18T10:28:19.898Z</time>
      </trkpt>
      <trkpt lat="48.572993" lon="16.795253">
        <ele>263.756686</ele>
        <time>2020-09-18T10:28:21.932Z</time>
      </trkpt>
      <trkpt lat="48.572969" lon="16.795395">
        <ele>263.750302</ele>
        <time>2020-09-18T10:28:23.893Z</time>
      </trkpt>
      <trkpt lat="48.572938" lon="16.795539">
        <ele>263.743706</ele>
        <time>2020-09-18T10:28:25.918Z</time>
      </trkpt>
      <trkpt lat="48.572907" lon="16.795685">
        <ele>263.737027</ele>
        <time>2020-09-18T10:28:27.899Z</time>
      </trkpt>
      <trkpt lat="48.572883" lon="16.795834">
        <ele>263.730347</ele>
        <time>2020-09-18T10:28:29.891Z</time>
      </trkpt>
      <trkpt lat="48.572861" lon="16.795975">
        <ele>263.724037</ele>
        <time>2020-09-18T10:28:31.904Z</time>
      </trkpt>
      <trkpt lat="48.572838" lon="16.796113">
        <ele>263.717838</ele>
        <time>2020-09-18T10:28:33.924Z</time>
      </trkpt>
      <trkpt lat="48.572812" lon="16.796254">
        <ele>263.711463</ele>
        <time>2020-09-18T10:28:35.918Z</time>
      </trkpt>
      <trkpt lat="48.572787" lon="16.796389">
        <ele>263.705356</ele>
        <time>2020-09-18T10:28:37.883Z</time>
      </trkpt>
      <trkpt lat="48.572761" lon="16.796521">
        <ele>263.699357</ele>
        <time>2020-09-18T10:28:39.912Z</time>
      </trkpt>
      <trkpt lat="48.572735" lon="16.796652">
        <ele>263.693400</ele>
        <time>2020-09-18T10:28:41.880Z</time>
      </trkpt>
      <trkpt lat="48.572710" lon="16.796782">
        <ele>263.687503</ele>
        <time>2020-09-18T10:28:43.915Z</time>
      </trkpt>
      <trkpt lat="48.572675" lon="16.796976">
        <ele>263.678744</ele>
        <time>2020-09-18T10:28:46.893Z</time>
      </trkpt>
      <trkpt lat="48.572636" lon="16.797170">
        <ele>263.669406</ele>
        <time>2020-09-18T10:28:49.900Z</time>
      </trkpt>
      <trkpt lat="48.572610" lon="16.797304">
        <ele>263.654386</ele>
        <time>2020-09-18T10:28:51.932Z</time>
      </trkpt>
      <trkpt lat="48.572588" lon="16.797439">
        <ele>263.639431</ele>
        <time>2020-09-18T10:28:53.904Z</time>
      </trkpt>
      <trkpt lat="48.572568" lon="16.797572">
        <ele>263.624761</ele>
        <time>2020-09-18T10:28:55.908Z</time>
      </trkpt>
      <trkpt lat="48.572534" lon="16.797763">
        <ele>263.603486</ele>
        <time>2020-09-18T10:28:58.933Z</time>
      </trkpt>
      <trkpt lat="48.572511" lon="16.797937">
        <ele>263.584401</ele>
        <time>2020-09-18T10:29:01.894Z</time>
      </trkpt>
      <trkpt lat="48.572473" lon="16.798095">
        <ele>263.566318</ele>
        <time>2020-09-18T10:29:04.926Z</time>
      </trkpt>
      <trkpt lat="48.572434" lon="16.798264">
        <ele>263.547066</ele>
        <time>2020-09-18T10:29:07.904Z</time>
      </trkpt>
      <trkpt lat="48.572392" lon="16.798435">
        <ele>263.527447</ele>
        <time>2020-09-18T10:29:10.892Z</time>
      </trkpt>
      <trkpt lat="48.572352" lon="16.798611">
        <ele>263.507430</ele>
        <time>2020-09-18T10:29:13.927Z</time>
      </trkpt>
      <trkpt lat="48.572316" lon="16.798787">
        <ele>263.487616</ele>
        <time>2020-09-18T10:29:16.907Z</time>
      </trkpt>
      <trkpt lat="48.572280" lon="16.798948">
        <ele>263.469336</ele>
        <time>2020-09-18T10:29:19.916Z</time>
      </trkpt>
      <trkpt lat="48.572246" lon="16.799117">
        <ele>263.450336</ele>
        <time>2020-09-18T10:29:22.940Z</time>
      </trkpt>
      <trkpt lat="48.572206" lon="16.799290">
        <ele>263.430625</ele>
        <time>2020-09-18T10:29:25.899Z</time>
      </trkpt>
      <trkpt lat="48.572169" lon="16.799466">
        <ele>263.410761</ele>
        <time>2020-09-18T10:29:28.918Z</time>
      </trkpt>
      <trkpt lat="48.572132" lon="16.799649">
        <ele>263.390179</ele>
        <time>2020-09-18T10:29:31.894Z</time>
      </trkpt>
      <trkpt lat="48.572099" lon="16.799776">
        <ele>263.375375</ele>
        <time>2020-09-18T10:29:33.905Z</time>
      </trkpt>
      <trkpt lat="48.572061" lon="16.799966">
        <ele>263.352866</ele>
        <time>2020-09-18T10:29:36.910Z</time>
      </trkpt>
      <trkpt lat="48.572024" lon="16.800152">
        <ele>263.330841</ele>
        <time>2020-09-18T10:29:39.910Z</time>
      </trkpt>
      <trkpt lat="48.571988" lon="16.800336">
        <ele>263.309083</ele>
        <time>2020-09-18T10:29:42.933Z</time>
      </trkpt>
      <trkpt lat="48.571949" lon="16.800521">
        <ele>263.287065</ele>
        <time>2020-09-18T10:29:45.932Z</time>
      </trkpt>
      <trkpt lat="48.571913" lon="16.800702">
        <ele>263.265632</ele>
        <time>2020-09-18T10:29:48.910Z</time>
      </trkpt>
      <trkpt lat="48.571865" lon="16.800874">
        <ele>263.244463</ele>
        <time>2020-09-18T10:29:51.948Z</time>
      </trkpt>
      <trkpt lat="48.571815" lon="16.801052">
        <ele>263.222535</ele>
        <time>2020-09-18T10:29:54.905Z</time>
      </trkpt>
      <trkpt lat="48.571779" lon="16.801237">
        <ele>263.200667</ele>
        <time>2020-09-18T10:29:57.899Z</time>
      </trkpt>
      <trkpt lat="48.571740" lon="16.801423">
        <ele>263.178541</ele>
        <time>2020-09-18T10:30:00.918Z</time>
      </trkpt>
      <trkpt lat="48.571709" lon="16.801552">
        <ele>263.162978</ele>
        <time>2020-09-18T10:30:02.890Z</time>
      </trkpt>
      <trkpt lat="48.571666" lon="16.801736">
        <ele>263.140849</ele>
        <time>2020-09-18T10:30:05.899Z</time>
      </trkpt>
      <trkpt lat="48.571631" lon="16.801910">
        <ele>263.120225</ele>
        <time>2020-09-18T10:30:08.895Z</time>
      </trkpt>
      <trkpt lat="48.571600" lon="16.802076">
        <ele>263.100666</ele>
        <time>2020-09-18T10:30:11.906Z</time>
      </trkpt>
      <trkpt lat="48.571571" lon="16.802241">
        <ele>263.081306</ele>
        <time>2020-09-18T10:30:14.886Z</time>
      </trkpt>
      <trkpt lat="48.571543" lon="16.802409">
        <ele>263.062923</ele>
        <time>2020-09-18T10:30:17.921Z</time>
      </trkpt>
      <trkpt lat="48.571515" lon="16.802572">
        <ele>263.046859</ele>
        <time>2020-09-18T10:30:20.898Z</time>
      </trkpt>
      <trkpt lat="48.571488" lon="16.802726">
        <ele>263.031663</ele>
        <time>2020-09-18T10:30:23.890Z</time>
      </trkpt>
      <trkpt lat="48.571460" lon="16.802872">
        <ele>263.017163</ele>
        <time>2020-09-18T10:30:26.917Z</time>
      </trkpt>
      <trkpt lat="48.571431" lon="16.803019">
        <ele>263.002531</ele>
        <time>2020-09-18T10:30:29.921Z</time>
      </trkpt>
      <trkpt lat="48.571393" lon="16.803180">
        <ele>262.986226</ele>
        <time>2020-09-18T10:30:32.915Z</time>
      </trkpt>
      <trkpt lat="48.571353" lon="16.803346">
        <ele>262.969374</ele>
        <time>2020-09-18T10:30:35.903Z</time>
      </trkpt>
      <trkpt lat="48.571322" lon="16.803515">
        <ele>262.952646</ele>
        <time>2020-09-18T10:30:38.889Z</time>
      </trkpt>
      <trkpt lat="48.571290" lon="16.803684">
        <ele>262.935878</ele>
        <time>2020-09-18T10:30:41.889Z</time>
      </trkpt>
      <trkpt lat="48.571249" lon="16.803850">
        <ele>262.918976</ele>
        <time>2020-09-18T10:30:44.920Z</time>
      </trkpt>
      <trkpt lat="48.571207" lon="16.804018">
        <ele>262.901846</ele>
        <time>2020-09-18T10:30:47.887Z</time>
      </trkpt>
      <trkpt lat="48.571169" lon="16.804189">
        <ele>262.884639</ele>
        <time>2020-09-18T10:30:50.888Z</time>
      </trkpt>
      <trkpt lat="48.571142" lon="16.804355">
        <ele>262.868333</ele>
        <time>2020-09-18T10:30:53.928Z</time>
      </trkpt>
      <trkpt lat="48.571107" lon="16.804515">
        <ele>262.852259</ele>
        <time>2020-09-18T10:30:56.910Z</time>
      </trkpt>
      <trkpt lat="48.571063" lon="16.804678">
        <ele>262.835466</ele>
        <time>2020-09-18T10:30:59.894Z</time>
      </trkpt>
      <trkpt lat="48.571019" lon="16.804848">
        <ele>262.818054</ele>
        <time>2020-09-18T10:31:02.889Z</time>
      </trkpt>
      <trkpt lat="48.570980" lon="16.805020">
        <ele>262.800369</ele>
        <time>2020-09-18T10:31:05.883Z</time>
      </trkpt>
      <trkpt lat="48.570944" lon="16.805184">
        <ele>262.783303</ele>
        <time>2020-09-18T10:31:08.909Z</time>
      </trkpt>
      <trkpt lat="48.570915" lon="16.805354">
        <ele>262.765963</ele>
        <time>2020-09-18T10:31:11.912Z</time>
      </trkpt>
      <trkpt lat="48.570878" lon="16.805524">
        <ele>262.748287</ele>
        <time>2020-09-18T10:31:14.902Z</time>
      </trkpt>
      <trkpt lat="48.570828" lon="16.805690">
        <ele>262.730272</ele>
        <time>2020-09-18T10:31:17.900Z</time>
      </trkpt>
      <trkpt lat="48.570786" lon="16.805867">
        <ele>262.711700</ele>
        <time>2020-09-18T10:31:20.903Z</time>
      </trkpt>
      <trkpt lat="48.570745" lon="16.806049">
        <ele>262.692710</ele>
        <time>2020-09-18T10:31:23.901Z</time>
      </trkpt>
      <trkpt lat="48.570695" lon="16.806232">
        <ele>262.673155</ele>
        <time>2020-09-18T10:31:26.931Z</time>
      </trkpt>
      <trkpt lat="48.570653" lon="16.806413">
        <ele>262.654210</ele>
        <time>2020-09-18T10:31:29.925Z</time>
      </trkpt>
      <trkpt lat="48.570644" lon="16.806599">
        <ele>262.635789</ele>
        <time>2020-09-18T10:31:32.919Z</time>
      </trkpt>
      <trkpt lat="48.570725" lon="16.806722">
        <ele>262.618649</ele>
        <time>2020-09-18T10:31:35.902Z</time>
      </trkpt>
      <trkpt lat="48.570806" lon="16.806795">
        <ele>262.604572</ele>
        <time>2020-09-18T10:31:37.895Z</time>
      </trkpt>
      <trkpt lat="48.570890" lon="16.806869">
        <ele>262.590058</ele>
        <time>2020-09-18T10:31:39.884Z</time>
      </trkpt>
      <trkpt lat="48.570977" lon="16.806940">
        <ele>262.575300</ele>
        <time>2020-09-18T10:31:41.883Z</time>
      </trkpt>
      <trkpt lat="48.571061" lon="16.807012">
        <ele>262.560885</ele>
        <time>2020-09-18T10:31:43.918Z</time>
      </trkpt>
      <trkpt lat="48.571146" lon="16.807089">
        <ele>262.546092</ele>
        <time>2020-09-18T10:31:45.929Z</time>
      </trkpt>
      <trkpt lat="48.571231" lon="16.807162">
        <ele>262.515431</ele>
        <time>2020-09-18T10:31:47.925Z</time>
      </trkpt>
      <trkpt lat="48.571317" lon="16.807237">
        <ele>262.477588</ele>
        <time>2020-09-18T10:31:49.906Z</time>
      </trkpt>
      <trkpt lat="48.571398" lon="16.807314">
        <ele>262.441117</ele>
        <time>2020-09-18T10:31:51.911Z</time>
      </trkpt>
      <trkpt lat="48.571482" lon="16.807389">
        <ele>262.403932</ele>
        <time>2020-09-18T10:31:53.914Z</time>
      </trkpt>
      <trkpt lat="48.571570" lon="16.807458">
        <ele>262.366147</ele>
        <time>2020-09-18T10:31:55.897Z</time>
      </trkpt>
      <trkpt lat="48.571656" lon="16.807526">
        <ele>262.329154</ele>
        <time>2020-09-18T10:31:57.900Z</time>
      </trkpt>
      <trkpt lat="48.571745" lon="16.807595">
        <ele>262.291031</ele>
        <time>2020-09-18T10:31:59.887Z</time>
      </trkpt>
      <trkpt lat="48.571832" lon="16.807673">
        <ele>262.252477</ele>
        <time>2020-09-18T10:32:01.936Z</time>
      </trkpt>
      <trkpt lat="48.571912" lon="16.807750">
        <ele>262.216328</ele>
        <time>2020-09-18T10:32:03.912Z</time>
      </trkpt>
      <trkpt lat="48.571991" lon="16.807831">
        <ele>262.179943</ele>
        <time>2020-09-18T10:32:05.886Z</time>
      </trkpt>
      <trkpt lat="48.572073" lon="16.807909">
        <ele>262.143015</ele>
        <time>2020-09-18T10:32:07.895Z</time>
      </trkpt>
      <trkpt lat="48.572158" lon="16.807980">
        <ele>262.106000</ele>
        <time>2020-09-18T10:32:09.885Z</time>
      </trkpt>
      <trkpt lat="48.572249" lon="16.808053">
        <ele>262.066734</ele>
        <time>2020-09-18T10:32:11.890Z</time>
      </trkpt>
      <trkpt lat="48.572337" lon="16.808134">
        <ele>262.027463</ele>
        <time>2020-09-18T10:32:13.912Z</time>
      </trkpt>
      <trkpt lat="48.572426" lon="16.808221">
        <ele>261.987066</ele>
        <time>2020-09-18T10:32:15.905Z</time>
      </trkpt>
      <trkpt lat="48.572515" lon="16.808311">
        <ele>261.946252</ele>
        <time>2020-09-18T10:32:17.917Z</time>
      </trkpt>
      <trkpt lat="48.572603" lon="16.808394">
        <ele>261.906717</ele>
        <time>2020-09-18T10:32:19.942Z</time>
      </trkpt>
      <trkpt lat="48.572693" lon="16.808474">
        <ele>261.866922</ele>
        <time>2020-09-18T10:32:21.894Z</time>
      </trkpt>
      <trkpt lat="48.572788" lon="16.808554">
        <ele>261.818018</ele>
        <time>2020-09-18T10:32:23.901Z</time>
      </trkpt>
      <trkpt lat="48.572883" lon="16.808631">
        <ele>261.767004</ele>
        <time>2020-09-18T10:32:25.904Z</time>
      </trkpt>
      <trkpt lat="48.572978" lon="16.808709">
        <ele>261.715841</ele>
        <time>2020-09-18T10:32:27.897Z</time>
      </trkpt>
      <trkpt lat="48.573076" lon="16.808790">
        <ele>261.662982</ele>
        <time>2020-09-18T10:32:29.902Z</time>
      </trkpt>
      <trkpt lat="48.573173" lon="16.808880">
        <ele>261.609118</ele>
        <time>2020-09-18T10:32:31.892Z</time>
      </trkpt>
      <trkpt lat="48.573265" lon="16.808970">
        <ele>261.557256</ele>
        <time>2020-09-18T10:32:33.898Z</time>
      </trkpt>
      <trkpt lat="48.573359" lon="16.809064">
        <ele>261.503916</ele>
        <time>2020-09-18T10:32:35.893Z</time>
      </trkpt>
      <trkpt lat="48.573450" lon="16.809158">
        <ele>261.451755</ele>
        <time>2020-09-18T10:32:37.899Z</time>
      </trkpt>
      <trkpt lat="48.573547" lon="16.809244">
        <ele>261.398535</ele>
        <time>2020-09-18T10:32:39.899Z</time>
      </trkpt>
      <trkpt lat="48.573644" lon="16.809326">
        <ele>261.345939</ele>
        <time>2020-09-18T10:32:41.883Z</time>
      </trkpt>
      <trkpt lat="48.573750" lon="16.809411">
        <ele>261.289153</ele>
        <time>2020-09-18T10:32:43.892Z</time>
      </trkpt>
      <trkpt lat="48.573857" lon="16.809496">
        <ele>261.231948</ele>
        <time>2020-09-18T10:32:45.928Z</time>
      </trkpt>
      <trkpt lat="48.573963" lon="16.809590">
        <ele>261.173788</ele>
        <time>2020-09-18T10:32:47.894Z</time>
      </trkpt>
      <trkpt lat="48.574065" lon="16.809681">
        <ele>261.117736</ele>
        <time>2020-09-18T10:32:49.904Z</time>
      </trkpt>
      <trkpt lat="48.574166" lon="16.809773">
        <ele>261.061930</ele>
        <time>2020-09-18T10:32:51.910Z</time>
      </trkpt>
      <trkpt lat="48.574268" lon="16.809866">
        <ele>261.005557</ele>
        <time>2020-09-18T10:32:53.877Z</time>
      </trkpt>
      <trkpt lat="48.574366" lon="16.809959">
        <ele>260.873982</ele>
        <time>2020-09-18T10:32:55.882Z</time>
      </trkpt>
      <trkpt lat="48.574465" lon="16.810046">
        <ele>260.743192</ele>
        <time>2020-09-18T10:32:57.924Z</time>
      </trkpt>
      <trkpt lat="48.574570" lon="16.810133">
        <ele>260.606435</ele>
        <time>2020-09-18T10:32:59.904Z</time>
      </trkpt>
      <trkpt lat="48.574674" lon="16.810221">
        <ele>260.470310</ele>
        <time>2020-09-18T10:33:01.890Z</time>
      </trkpt>
      <trkpt lat="48.574773" lon="16.810303">
        <ele>260.341378</ele>
        <time>2020-09-18T10:33:03.892Z</time>
      </trkpt>
      <trkpt lat="48.574872" lon="16.810393">
        <ele>260.209434</ele>
        <time>2020-09-18T10:33:05.887Z</time>
      </trkpt>
      <trkpt lat="48.574971" lon="16.810486">
        <ele>260.076307</ele>
        <time>2020-09-18T10:33:07.897Z</time>
      </trkpt>
      <trkpt lat="48.575073" lon="16.810587">
        <ele>259.937040</ele>
        <time>2020-09-18T10:33:09.898Z</time>
      </trkpt>
      <trkpt lat="48.575179" lon="16.810686">
        <ele>259.794729</ele>
        <time>2020-09-18T10:33:11.902Z</time>
      </trkpt>
      <trkpt lat="48.575289" lon="16.810787">
        <ele>259.647734</ele>
        <time>2020-09-18T10:33:13.905Z</time>
      </trkpt>
      <trkpt lat="48.575397" lon="16.810889">
        <ele>259.502288</ele>
        <time>2020-09-18T10:33:15.923Z</time>
      </trkpt>
      <trkpt lat="48.575501" lon="16.810988">
        <ele>259.361916</ele>
        <time>2020-09-18T10:33:17.909Z</time>
      </trkpt>
      <trkpt lat="48.575579" lon="16.811059">
        <ele>259.257925</ele>
        <time>2020-09-18T10:33:19.926Z</time>
      </trkpt>
      <trkpt lat="48.575803" lon="16.811235">
        <ele>258.969594</ele>
        <time>2020-09-18T10:33:57.883Z</time>
      </trkpt>
      <trkpt lat="48.575876" lon="16.811317">
        <ele>258.748341</ele>
        <time>2020-09-18T10:33:59.893Z</time>
      </trkpt>
      <trkpt lat="48.575994" lon="16.811441">
        <ele>258.358127</ele>
        <time>2020-09-18T10:34:02.909Z</time>
      </trkpt>
      <trkpt lat="48.576097" lon="16.811531">
        <ele>258.035097</ele>
        <time>2020-09-18T10:34:04.897Z</time>
      </trkpt>
      <trkpt lat="48.576213" lon="16.811632">
        <ele>257.671619</ele>
        <time>2020-09-18T10:34:06.902Z</time>
      </trkpt>
      <trkpt lat="48.576337" lon="16.811741">
        <ele>257.282143</ele>
        <time>2020-09-18T10:34:08.894Z</time>
      </trkpt>
      <trkpt lat="48.576460" lon="16.811851">
        <ele>256.894100</ele>
        <time>2020-09-18T10:34:10.892Z</time>
      </trkpt>
      <trkpt lat="48.576584" lon="16.811967">
        <ele>256.498153</ele>
        <time>2020-09-18T10:34:12.896Z</time>
      </trkpt>
      <trkpt lat="48.576713" lon="16.812083">
        <ele>256.090600</ele>
        <time>2020-09-18T10:34:14.925Z</time>
      </trkpt>
      <trkpt lat="48.576844" lon="16.812199">
        <ele>255.678372</ele>
        <time>2020-09-18T10:34:16.932Z</time>
      </trkpt>
      <trkpt lat="48.576974" lon="16.812318">
        <ele>255.265718</ele>
        <time>2020-09-18T10:34:18.890Z</time>
      </trkpt>
      <trkpt lat="48.577102" lon="16.812442">
        <ele>254.852923</ele>
        <time>2020-09-18T10:34:20.912Z</time>
      </trkpt>
      <trkpt lat="48.577233" lon="16.812592">
        <ele>254.406699</ele>
        <time>2020-09-18T10:34:22.899Z</time>
      </trkpt>
      <trkpt lat="48.577364" lon="16.812766">
        <ele>254.000323</ele>
        <time>2020-09-18T10:34:24.898Z</time>
      </trkpt>
      <trkpt lat="48.577503" lon="16.812935">
        <ele>253.758289</ele>
        <time>2020-09-18T10:34:26.911Z</time>
      </trkpt>
      <trkpt lat="48.577575" lon="16.813018">
        <ele>253.635431</ele>
        <time>2020-09-18T10:34:27.946Z</time>
      </trkpt>
      <trkpt lat="48.577648" lon="16.813099">
        <ele>253.512563</ele>
        <time>2020-09-18T10:34:28.898Z</time>
      </trkpt>
      <trkpt lat="48.577785" lon="16.813273">
        <ele>253.269774</ele>
        <time>2020-09-18T10:34:30.901Z</time>
      </trkpt>
      <trkpt lat="48.577916" lon="16.813455">
        <ele>253.028360</ele>
        <time>2020-09-18T10:34:32.899Z</time>
      </trkpt>
      <trkpt lat="48.578051" lon="16.813617">
        <ele>252.794488</ele>
        <time>2020-09-18T10:34:34.922Z</time>
      </trkpt>
      <trkpt lat="48.578186" lon="16.813777">
        <ele>252.561729</ele>
        <time>2020-09-18T10:34:36.900Z</time>
      </trkpt>
      <trkpt lat="48.578324" lon="16.813921">
        <ele>252.334210</ele>
        <time>2020-09-18T10:34:38.926Z</time>
      </trkpt>
      <trkpt lat="48.578464" lon="16.814060">
        <ele>252.106947</ele>
        <time>2020-09-18T10:34:40.882Z</time>
      </trkpt>
      <trkpt lat="48.578593" lon="16.814209">
        <ele>251.886670</ele>
        <time>2020-09-18T10:34:42.900Z</time>
      </trkpt>
      <trkpt lat="48.578719" lon="16.814363">
        <ele>251.666819</ele>
        <time>2020-09-18T10:34:44.929Z</time>
      </trkpt>
      <trkpt lat="48.578844" lon="16.814511">
        <ele>251.509210</ele>
        <time>2020-09-18T10:34:46.899Z</time>
      </trkpt>
      <trkpt lat="48.578964" lon="16.814658">
        <ele>251.368639</ele>
        <time>2020-09-18T10:34:48.895Z</time>
      </trkpt>
      <trkpt lat="48.579081" lon="16.814806">
        <ele>251.229792</ele>
        <time>2020-09-18T10:34:50.903Z</time>
      </trkpt>
      <trkpt lat="48.579199" lon="16.814964">
        <ele>251.086327</ele>
        <time>2020-09-18T10:34:52.908Z</time>
      </trkpt>
      <trkpt lat="48.579322" lon="16.815116">
        <ele>250.941739</ele>
        <time>2020-09-18T10:34:54.940Z</time>
      </trkpt>
      <trkpt lat="48.579447" lon="16.815256">
        <ele>250.800153</ele>
        <time>2020-09-18T10:34:56.937Z</time>
      </trkpt>
      <trkpt lat="48.579567" lon="16.815407">
        <ele>250.658054</ele>
        <time>2020-09-18T10:34:58.915Z</time>
      </trkpt>
      <trkpt lat="48.579689" lon="16.815558">
        <ele>250.514552</ele>
        <time>2020-09-18T10:35:00.914Z</time>
      </trkpt>
      <trkpt lat="48.579810" lon="16.815703">
        <ele>250.374024</ele>
        <time>2020-09-18T10:35:02.932Z</time>
      </trkpt>
      <trkpt lat="48.579934" lon="16.815833">
        <ele>250.236688</ele>
        <time>2020-09-18T10:35:04.889Z</time>
      </trkpt>
      <trkpt lat="48.580046" lon="16.815982">
        <ele>250.100904</ele>
        <time>2020-09-18T10:35:06.892Z</time>
      </trkpt>
      <trkpt lat="48.580159" lon="16.816126">
        <ele>249.962604</ele>
        <time>2020-09-18T10:35:08.912Z</time>
      </trkpt>
      <trkpt lat="48.580273" lon="16.816269">
        <ele>249.806239</ele>
        <time>2020-09-18T10:35:10.900Z</time>
      </trkpt>
      <trkpt lat="48.580389" lon="16.816408">
        <ele>249.649993</ele>
        <time>2020-09-18T10:35:12.899Z</time>
      </trkpt>
      <trkpt lat="48.580504" lon="16.816547">
        <ele>249.494574</ele>
        <time>2020-09-18T10:35:14.915Z</time>
      </trkpt>
      <trkpt lat="48.580618" lon="16.816676">
        <ele>249.344264</ele>
        <time>2020-09-18T10:35:16.904Z</time>
      </trkpt>
      <trkpt lat="48.580727" lon="16.816811">
        <ele>249.195524</ele>
        <time>2020-09-18T10:35:18.895Z</time>
      </trkpt>
      <trkpt lat="48.580833" lon="16.816946">
        <ele>249.049221</ele>
        <time>2020-09-18T10:35:20.902Z</time>
      </trkpt>
      <trkpt lat="48.580934" lon="16.817081">
        <ele>248.906913</ele>
        <time>2020-09-18T10:35:22.914Z</time>
      </trkpt>
      <trkpt lat="48.581033" lon="16.817210">
        <ele>248.768951</ele>
        <time>2020-09-18T10:35:24.918Z</time>
      </trkpt>
      <trkpt lat="48.581136" lon="16.817318">
        <ele>248.636637</ele>
        <time>2020-09-18T10:35:26.930Z</time>
      </trkpt>
      <trkpt lat="48.581229" lon="16.817434">
        <ele>248.509370</ele>
        <time>2020-09-18T10:35:28.895Z</time>
      </trkpt>
      <trkpt lat="48.581313" lon="16.817539">
        <ele>248.394318</ele>
        <time>2020-09-18T10:35:30.900Z</time>
      </trkpt>
      <trkpt lat="48.581402" lon="16.817642">
        <ele>248.276006</ele>
        <time>2020-09-18T10:35:32.890Z</time>
      </trkpt>
      <trkpt lat="48.581492" lon="16.817756">
        <ele>248.152067</ele>
        <time>2020-09-18T10:35:34.900Z</time>
      </trkpt>
      <trkpt lat="48.581589" lon="16.817874">
        <ele>248.065551</ele>
        <time>2020-09-18T10:35:36.921Z</time>
      </trkpt>
      <trkpt lat="48.581675" lon="16.817984">
        <ele>248.021866</ele>
        <time>2020-09-18T10:35:38.903Z</time>
      </trkpt>
      <trkpt lat="48.581762" lon="16.818102">
        <ele>247.976540</ele>
        <time>2020-09-18T10:35:40.896Z</time>
      </trkpt>
      <trkpt lat="48.581852" lon="16.818215">
        <ele>247.931171</ele>
        <time>2020-09-18T10:35:42.925Z</time>
      </trkpt>
      <trkpt lat="48.581944" lon="16.818322">
        <ele>247.886159</ele>
        <time>2020-09-18T10:35:44.918Z</time>
      </trkpt>
      <trkpt lat="48.582034" lon="16.818429">
        <ele>247.841758</ele>
        <time>2020-09-18T10:35:46.904Z</time>
      </trkpt>
      <trkpt lat="48.582123" lon="16.818533">
        <ele>247.798137</ele>
        <time>2020-09-18T10:35:48.898Z</time>
      </trkpt>
      <trkpt lat="48.582209" lon="16.818638">
        <ele>247.755269</ele>
        <time>2020-09-18T10:35:50.895Z</time>
      </trkpt>
      <trkpt lat="48.582294" lon="16.818738">
        <ele>247.713502</ele>
        <time>2020-09-18T10:35:52.900Z</time>
      </trkpt>
      <trkpt lat="48.582378" lon="16.818834">
        <ele>247.672668</ele>
        <time>2020-09-18T10:35:54.903Z</time>
      </trkpt>
      <trkpt lat="48.582460" lon="16.818935">
        <ele>247.631651</ele>
        <time>2020-09-18T10:35:56.910Z</time>
      </trkpt>
      <trkpt lat="48.582544" lon="16.819040">
        <ele>247.589384</ele>
        <time>2020-09-18T10:35:58.887Z</time>
      </trkpt>
      <trkpt lat="48.582622" lon="16.819139">
        <ele>247.549890</ele>
        <time>2020-09-18T10:36:00.901Z</time>
      </trkpt>
      <trkpt lat="48.582697" lon="16.819237">
        <ele>247.511447</ele>
        <time>2020-09-18T10:36:02.882Z</time>
      </trkpt>
      <trkpt lat="48.582768" lon="16.819326">
        <ele>247.475681</ele>
        <time>2020-09-18T10:36:04.893Z</time>
      </trkpt>
      <trkpt lat="48.582846" lon="16.819421">
        <ele>247.436839</ele>
        <time>2020-09-18T10:36:06.893Z</time>
      </trkpt>
      <trkpt lat="48.582924" lon="16.819513">
        <ele>247.398474</ele>
        <time>2020-09-18T10:36:08.882Z</time>
      </trkpt>
      <trkpt lat="48.583000" lon="16.819600">
        <ele>247.193466</ele>
        <time>2020-09-18T10:36:10.904Z</time>
      </trkpt>
      <trkpt lat="48.583078" lon="16.819697">
        <ele>246.952776</ele>
        <time>2020-09-18T10:36:12.922Z</time>
      </trkpt>
      <trkpt lat="48.583157" lon="16.819783">
        <ele>246.720783</ele>
        <time>2020-09-18T10:36:14.935Z</time>
      </trkpt>
      <trkpt lat="48.583237" lon="16.819875">
        <ele>246.481246</ele>
        <time>2020-09-18T10:36:16.899Z</time>
      </trkpt>
      <trkpt lat="48.583317" lon="16.819967">
        <ele>246.241709</ele>
        <time>2020-09-18T10:36:18.934Z</time>
      </trkpt>
      <trkpt lat="48.583394" lon="16.820059">
        <ele>246.007823</ele>
        <time>2020-09-18T10:36:20.910Z</time>
      </trkpt>
      <trkpt lat="48.583471" lon="16.820158">
        <ele>245.766938</ele>
        <time>2020-09-18T10:36:22.914Z</time>
      </trkpt>
      <trkpt lat="48.583548" lon="16.820254">
        <ele>245.529090</ele>
        <time>2020-09-18T10:36:24.891Z</time>
      </trkpt>
      <trkpt lat="48.583631" lon="16.820351">
        <ele>245.279084</ele>
        <time>2020-09-18T10:36:26.893Z</time>
      </trkpt>
      <trkpt lat="48.583720" lon="16.820457">
        <ele>245.009078</ele>
        <time>2020-09-18T10:36:28.888Z</time>
      </trkpt>
      <trkpt lat="48.583806" lon="16.820551">
        <ele>244.756179</ele>
        <time>2020-09-18T10:36:30.924Z</time>
      </trkpt>
      <trkpt lat="48.583895" lon="16.820643">
        <ele>244.499246</ele>
        <time>2020-09-18T10:36:32.898Z</time>
      </trkpt>
      <trkpt lat="48.583991" lon="16.820749">
        <ele>244.215950</ele>
        <time>2020-09-18T10:36:34.899Z</time>
      </trkpt>
      <trkpt lat="48.584098" lon="16.820872">
        <ele>243.895619</ele>
        <time>2020-09-18T10:36:36.887Z</time>
      </trkpt>
      <trkpt lat="48.584196" lon="16.821001">
        <ele>243.585955</ele>
        <time>2020-09-18T10:36:38.943Z</time>
      </trkpt>
      <trkpt lat="48.584283" lon="16.821155">
        <ele>243.266711</ele>
        <time>2020-09-18T10:36:40.908Z</time>
      </trkpt>
      <trkpt lat="48.584351" lon="16.821340">
        <ele>242.830777</ele>
        <time>2020-09-18T10:36:42.899Z</time>
      </trkpt>
      <trkpt lat="48.584425" lon="16.821520">
        <ele>242.301294</ele>
        <time>2020-09-18T10:36:44.902Z</time>
      </trkpt>
      <trkpt lat="48.584495" lon="16.821701">
        <ele>241.777474</ele>
        <time>2020-09-18T10:36:46.893Z</time>
      </trkpt>
      <trkpt lat="48.584561" lon="16.821882">
        <ele>241.261113</ele>
        <time>2020-09-18T10:36:48.910Z</time>
      </trkpt>
      <trkpt lat="48.584622" lon="16.822066">
        <ele>240.746910</ele>
        <time>2020-09-18T10:36:50.906Z</time>
      </trkpt>
      <trkpt lat="48.584691" lon="16.822236">
        <ele>240.248610</ele>
        <time>2020-09-18T10:36:52.909Z</time>
      </trkpt>
      <trkpt lat="48.584758" lon="16.822406">
        <ele>239.754218</ele>
        <time>2020-09-18T10:36:54.936Z</time>
      </trkpt>
      <trkpt lat="48.584821" lon="16.822579">
        <ele>239.260833</ele>
        <time>2020-09-18T10:36:56.911Z</time>
      </trkpt>
      <trkpt lat="48.584889" lon="16.822762">
        <ele>238.736436</ele>
        <time>2020-09-18T10:36:58.889Z</time>
      </trkpt>
      <trkpt lat="48.584955" lon="16.822955">
        <ele>238.193630</ele>
        <time>2020-09-18T10:37:00.902Z</time>
      </trkpt>
      <trkpt lat="48.585020" lon="16.823151">
        <ele>237.645859</ele>
        <time>2020-09-18T10:37:02.908Z</time>
      </trkpt>
      <trkpt lat="48.585082" lon="16.823352">
        <ele>237.091776</ele>
        <time>2020-09-18T10:37:04.887Z</time>
      </trkpt>
      <trkpt lat="48.585130" lon="16.823546">
        <ele>236.574299</ele>
        <time>2020-09-18T10:37:06.901Z</time>
      </trkpt>
      <trkpt lat="48.585215" lon="16.823694">
        <ele>236.102785</ele>
        <time>2020-09-18T10:37:08.890Z</time>
      </trkpt>
      <trkpt lat="48.585301" lon="16.823832">
        <ele>235.666460</ele>
        <time>2020-09-18T10:37:10.899Z</time>
      </trkpt>
      <trkpt lat="48.585388" lon="16.823963">
        <ele>235.239261</ele>
        <time>2020-09-18T10:37:12.922Z</time>
      </trkpt>
      <trkpt lat="48.585465" lon="16.824097">
        <ele>234.830776</ele>
        <time>2020-09-18T10:37:14.890Z</time>
      </trkpt>
      <trkpt lat="48.585540" lon="16.824220">
        <ele>234.445798</ele>
        <time>2020-09-18T10:37:16.896Z</time>
      </trkpt>
      <trkpt lat="48.585616" lon="16.824328">
        <ele>234.082915</ele>
        <time>2020-09-18T10:37:18.915Z</time>
      </trkpt>
      <trkpt lat="48.585683" lon="16.824445">
        <ele>233.726781</ele>
        <time>2020-09-18T10:37:20.908Z</time>
      </trkpt>
      <trkpt lat="48.585741" lon="16.824556">
        <ele>233.401250</ele>
        <time>2020-09-18T10:37:22.939Z</time>
      </trkpt>
      <trkpt lat="48.585826" lon="16.824639">
        <ele>233.049210</ele>
        <time>2020-09-18T10:37:25.918Z</time>
      </trkpt>
      <trkpt lat="48.585948" lon="16.824622">
        <ele>232.622975</ele>
        <time>2020-09-18T10:37:29.916Z</time>
      </trkpt>
      <trkpt lat="48.586014" lon="16.824727">
        <ele>232.289640</ele>
        <time>2020-09-18T10:37:33.896Z</time>
      </trkpt>
      <trkpt lat="48.586040" lon="16.824906">
        <ele>231.867888</ele>
        <time>2020-09-18T10:37:37.912Z</time>
      </trkpt>
      <trkpt lat="48.586072" lon="16.825056">
        <ele>231.505181</ele>
        <time>2020-09-18T10:37:40.897Z</time>
      </trkpt>
      <trkpt lat="48.586113" lon="16.825231">
        <ele>231.077935</ele>
        <time>2020-09-18T10:37:43.899Z</time>
      </trkpt>
      <trkpt lat="48.586173" lon="16.825392">
        <ele>230.652668</ele>
        <time>2020-09-18T10:37:46.888Z</time>
      </trkpt>
      <trkpt lat="48.586246" lon="16.825557">
        <ele>230.195847</ele>
        <time>2020-09-18T10:37:49.901Z</time>
      </trkpt>
      <trkpt lat="48.586311" lon="16.825735">
        <ele>229.796726</ele>
        <time>2020-09-18T10:37:52.890Z</time>
      </trkpt>
      <trkpt lat="48.586354" lon="16.825859">
        <ele>229.541786</ele>
        <time>2020-09-18T10:37:54.914Z</time>
      </trkpt>
      <trkpt lat="48.586401" lon="16.825985">
        <ele>229.278385</ele>
        <time>2020-09-18T10:37:56.916Z</time>
      </trkpt>
      <trkpt lat="48.586453" lon="16.826111">
        <ele>229.007957</ele>
        <time>2020-09-18T10:37:58.903Z</time>
      </trkpt>
      <trkpt lat="48.586503" lon="16.826237">
        <ele>228.740403</ele>
        <time>2020-09-18T10:38:00.894Z</time>
      </trkpt>
      <trkpt lat="48.586552" lon="16.826366">
        <ele>228.469532</ele>
        <time>2020-09-18T10:38:02.898Z</time>
      </trkpt>
      <trkpt lat="48.586601" lon="16.826491">
        <ele>228.204952</ele>
        <time>2020-09-18T10:38:04.903Z</time>
      </trkpt>
      <trkpt lat="48.586648" lon="16.826617">
        <ele>227.941552</ele>
        <time>2020-09-18T10:38:06.931Z</time>
      </trkpt>
      <trkpt lat="48.586697" lon="16.826744">
        <ele>227.673833</ele>
        <time>2020-09-18T10:38:08.913Z</time>
      </trkpt>
      <trkpt lat="48.586772" lon="16.826911">
        <ele>227.306278</ele>
        <time>2020-09-18T10:38:11.926Z</time>
      </trkpt>
      <trkpt lat="48.586839" lon="16.827079">
        <ele>226.949068</ele>
        <time>2020-09-18T10:38:14.914Z</time>
      </trkpt>
      <trkpt lat="48.586899" lon="16.827248">
        <ele>226.599812</ele>
        <time>2020-09-18T10:38:17.930Z</time>
      </trkpt>
      <trkpt lat="48.586963" lon="16.827420">
        <ele>226.240466</ele>
        <time>2020-09-18T10:38:20.915Z</time>
      </trkpt>
      <trkpt lat="48.587029" lon="16.827599">
        <ele>225.867309</ele>
        <time>2020-09-18T10:38:23.897Z</time>
      </trkpt>
      <trkpt lat="48.587071" lon="16.827722">
        <ele>225.615257</ele>
        <time>2020-09-18T10:38:25.912Z</time>
      </trkpt>
      <trkpt lat="48.587133" lon="16.827897">
        <ele>225.253773</ele>
        <time>2020-09-18T10:38:28.924Z</time>
      </trkpt>
      <trkpt lat="48.587197" lon="16.828062">
        <ele>224.790434</ele>
        <time>2020-09-18T10:38:31.884Z</time>
      </trkpt>
      <trkpt lat="48.587266" lon="16.828212">
        <ele>224.267086</ele>
        <time>2020-09-18T10:38:34.903Z</time>
      </trkpt>
      <trkpt lat="48.587339" lon="16.828327">
        <ele>223.810531</ele>
        <time>2020-09-18T10:38:37.894Z</time>
      </trkpt>
      <trkpt lat="48.587471" lon="16.828388">
        <ele>223.212811</ele>
        <time>2020-09-18T10:39:09.903Z</time>
      </trkpt>
      <trkpt lat="48.587564" lon="16.828494">
        <ele>222.708451</ele>
        <time>2020-09-18T10:39:13.913Z</time>
      </trkpt>
      <trkpt lat="48.587655" lon="16.828569">
        <ele>222.259631</ele>
        <time>2020-09-18T10:39:16.913Z</time>
      </trkpt>
      <trkpt lat="48.587758" lon="16.828650">
        <ele>221.756864</ele>
        <time>2020-09-18T10:39:19.898Z</time>
      </trkpt>
      <trkpt lat="48.587855" lon="16.828736">
        <ele>221.269912</ele>
        <time>2020-09-18T10:39:22.917Z</time>
      </trkpt>
      <trkpt lat="48.587959" lon="16.828814">
        <ele>220.767177</ele>
        <time>2020-09-18T10:39:25.893Z</time>
      </trkpt>
      <trkpt lat="48.588060" lon="16.828889">
        <ele>220.279896</ele>
        <time>2020-09-18T10:39:28.924Z</time>
      </trkpt>
      <trkpt lat="48.588155" lon="16.828964">
        <ele>219.815794</ele>
        <time>2020-09-18T10:39:31.905Z</time>
      </trkpt>
      <trkpt lat="48.588245" lon="16.829039">
        <ele>219.370772</ele>
        <time>2020-09-18T10:39:34.928Z</time>
      </trkpt>
      <trkpt lat="48.588344" lon="16.829130">
        <ele>218.869042</ele>
        <time>2020-09-18T10:39:37.922Z</time>
      </trkpt>
      <trkpt lat="48.588463" lon="16.829232">
        <ele>218.276664</ele>
        <time>2020-09-18T10:39:40.902Z</time>
      </trkpt>
      <trkpt lat="48.588549" lon="16.829309">
        <ele>217.843840</ele>
        <time>2020-09-18T10:39:42.916Z</time>
      </trkpt>
      <trkpt lat="48.588632" lon="16.829387">
        <ele>217.420637</ele>
        <time>2020-09-18T10:39:44.893Z</time>
      </trkpt>
      <trkpt lat="48.588713" lon="16.829460">
        <ele>217.215948</ele>
        <time>2020-09-18T10:39:46.898Z</time>
      </trkpt>
      <trkpt lat="48.588800" lon="16.829539">
        <ele>217.069802</ele>
        <time>2020-09-18T10:39:48.893Z</time>
      </trkpt>
      <trkpt lat="48.588890" lon="16.829612">
        <ele>216.922722</ele>
        <time>2020-09-18T10:39:50.912Z</time>
      </trkpt>
      <trkpt lat="48.588980" lon="16.829682">
        <ele>216.776972</ele>
        <time>2020-09-18T10:39:52.897Z</time>
      </trkpt>
      <trkpt lat="48.589068" lon="16.829762">
        <ele>216.629101</ele>
        <time>2020-09-18T10:39:54.906Z</time>
      </trkpt>
      <trkpt lat="48.589151" lon="16.829842">
        <ele>216.487352</ele>
        <time>2020-09-18T10:39:56.913Z</time>
      </trkpt>
      <trkpt lat="48.589236" lon="16.829917">
        <ele>216.345625</ele>
        <time>2020-09-18T10:39:58.932Z</time>
      </trkpt>
      <trkpt lat="48.589324" lon="16.829994">
        <ele>216.199207</ele>
        <time>2020-09-18T10:40:00.927Z</time>
      </trkpt>
      <trkpt lat="48.589411" lon="16.830068">
        <ele>216.055455</ele>
        <time>2020-09-18T10:40:02.913Z</time>
      </trkpt>
      <trkpt lat="48.589504" lon="16.830140">
        <ele>215.904992</ele>
        <time>2020-09-18T10:40:04.896Z</time>
      </trkpt>
      <trkpt lat="48.589596" lon="16.830214">
        <ele>215.754924</ele>
        <time>2020-09-18T10:40:06.900Z</time>
      </trkpt>
      <trkpt lat="48.589680" lon="16.830282">
        <ele>215.617710</ele>
        <time>2020-09-18T10:40:08.904Z</time>
      </trkpt>
      <trkpt lat="48.589843" lon="16.830440">
        <ele>215.338879</ele>
        <time>2020-09-18T10:40:39.928Z</time>
      </trkpt>
      <trkpt lat="48.589925" lon="16.830504">
        <ele>215.205988</ele>
        <time>2020-09-18T10:40:42.877Z</time>
      </trkpt>
      <trkpt lat="48.590019" lon="16.830583">
        <ele>215.051114</ele>
        <time>2020-09-18T10:40:45.914Z</time>
      </trkpt>
      <trkpt lat="48.590116" lon="16.830665">
        <ele>214.891076</ele>
        <time>2020-09-18T10:40:48.892Z</time>
      </trkpt>
      <trkpt lat="48.590213" lon="16.830746">
        <ele>214.731500</ele>
        <time>2020-09-18T10:40:51.907Z</time>
      </trkpt>
      <trkpt lat="48.590309" lon="16.830829">
        <ele>214.633388</ele>
        <time>2020-09-18T10:40:54.904Z</time>
      </trkpt>
      <trkpt lat="48.590395" lon="16.830903">
        <ele>214.547085</ele>
        <time>2020-09-18T10:40:57.893Z</time>
      </trkpt>
      <trkpt lat="48.590489" lon="16.830984">
        <ele>214.452722</ele>
        <time>2020-09-18T10:41:00.924Z</time>
      </trkpt>
      <trkpt lat="48.590595" lon="16.831077">
        <ele>214.345834</ele>
        <time>2020-09-18T10:41:03.891Z</time>
      </trkpt>
      <trkpt lat="48.590700" lon="16.831161">
        <ele>214.242228</ele>
        <time>2020-09-18T10:41:06.880Z</time>
      </trkpt>
      <trkpt lat="48.590800" lon="16.831238">
        <ele>214.144352</ele>
        <time>2020-09-18T10:41:09.881Z</time>
      </trkpt>
      <trkpt lat="48.590907" lon="16.831328">
        <ele>214.037562</ele>
        <time>2020-09-18T10:41:12.903Z</time>
      </trkpt>
      <trkpt lat="48.591016" lon="16.831423">
        <ele>213.927832</ele>
        <time>2020-09-18T10:41:15.904Z</time>
      </trkpt>
      <trkpt lat="48.591122" lon="16.831523">
        <ele>213.818862</ele>
        <time>2020-09-18T10:41:18.899Z</time>
      </trkpt>
      <trkpt lat="48.591230" lon="16.831613">
        <ele>213.711309</ele>
        <time>2020-09-18T10:41:21.950Z</time>
      </trkpt>
      <trkpt lat="48.591348" lon="16.831641">
        <ele>213.607135</ele>
        <time>2020-09-18T10:41:24.895Z</time>
      </trkpt>
      <trkpt lat="48.591421" lon="16.831561">
        <ele>213.528501</ele>
        <time>2020-09-18T10:41:26.896Z</time>
      </trkpt>
      <trkpt lat="48.591487" lon="16.831452">
        <ele>213.443254</ele>
        <time>2020-09-18T10:41:28.889Z</time>
      </trkpt>
      <trkpt lat="48.591537" lon="16.831325">
        <ele>213.357996</ele>
        <time>2020-09-18T10:41:30.880Z</time>
      </trkpt>
      <trkpt lat="48.591585" lon="16.831199">
        <ele>213.274118</ele>
        <time>2020-09-18T10:41:32.886Z</time>
      </trkpt>
      <trkpt lat="48.591628" lon="16.831077">
        <ele>213.194372</ele>
        <time>2020-09-18T10:41:34.893Z</time>
      </trkpt>
      <trkpt lat="48.591690" lon="16.830896">
        <ele>213.115146</ele>
        <time>2020-09-18T10:41:37.886Z</time>
      </trkpt>
      <trkpt lat="48.591736" lon="16.830775">
        <ele>213.072388</ele>
        <time>2020-09-18T10:41:39.906Z</time>
      </trkpt>
      <trkpt lat="48.591784" lon="16.830656">
        <ele>213.029684</ele>
        <time>2020-09-18T10:41:41.920Z</time>
      </trkpt>
      <trkpt lat="48.591833" lon="16.830539">
        <ele>212.987257</ele>
        <time>2020-09-18T10:41:43.937Z</time>
      </trkpt>
      <trkpt lat="48.591880" lon="16.830414">
        <ele>212.943205</ele>
        <time>2020-09-18T10:41:45.884Z</time>
      </trkpt>
      <trkpt lat="48.591926" lon="16.830291">
        <ele>212.899914</ele>
        <time>2020-09-18T10:41:47.899Z</time>
      </trkpt>
      <trkpt lat="48.591971" lon="16.830169">
        <ele>212.857117</ele>
        <time>2020-09-18T10:41:49.899Z</time>
      </trkpt>
      <trkpt lat="48.592016" lon="16.830048">
        <ele>212.814587</ele>
        <time>2020-09-18T10:41:51.910Z</time>
      </trkpt>
      <trkpt lat="48.592061" lon="16.829927">
        <ele>212.772058</ele>
        <time>2020-09-18T10:41:53.899Z</time>
      </trkpt>
      <trkpt lat="48.592113" lon="16.829810">
        <ele>212.728871</ele>
        <time>2020-09-18T10:41:55.924Z</time>
      </trkpt>
      <trkpt lat="48.592186" lon="16.829640">
        <ele>212.666774</ele>
        <time>2020-09-18T10:41:58.922Z</time>
      </trkpt>
      <trkpt lat="48.592234" lon="16.829524">
        <ele>212.624853</ele>
        <time>2020-09-18T10:42:00.913Z</time>
      </trkpt>
      <trkpt lat="48.592278" lon="16.829403">
        <ele>212.582548</ele>
        <time>2020-09-18T10:42:02.923Z</time>
      </trkpt>
      <trkpt lat="48.592326" lon="16.829282">
        <ele>212.539321</ele>
        <time>2020-09-18T10:42:04.901Z</time>
      </trkpt>
      <trkpt lat="48.592375" lon="16.829158">
        <ele>212.495067</ele>
        <time>2020-09-18T10:42:06.881Z</time>
      </trkpt>
      <trkpt lat="48.592419" lon="16.829033">
        <ele>212.451685</ele>
        <time>2020-09-18T10:42:08.891Z</time>
      </trkpt>
      <trkpt lat="48.592469" lon="16.828904">
        <ele>212.405877</ele>
        <time>2020-09-18T10:42:10.885Z</time>
      </trkpt>
      <trkpt lat="48.592518" lon="16.828779">
        <ele>212.361360</ele>
        <time>2020-09-18T10:42:12.915Z</time>
      </trkpt>
      <trkpt lat="48.592567" lon="16.828659">
        <ele>212.320302</ele>
        <time>2020-09-18T10:42:14.914Z</time>
      </trkpt>
      <trkpt lat="48.592612" lon="16.828524">
        <ele>212.287627</ele>
        <time>2020-09-18T10:42:16.888Z</time>
      </trkpt>
      <trkpt lat="48.592655" lon="16.828394">
        <ele>212.256211</ele>
        <time>2020-09-18T10:42:18.930Z</time>
      </trkpt>
      <trkpt lat="48.592704" lon="16.828261">
        <ele>212.223306</ele>
        <time>2020-09-18T10:42:20.893Z</time>
      </trkpt>
      <trkpt lat="48.592756" lon="16.828129">
        <ele>212.190098</ele>
        <time>2020-09-18T10:42:22.885Z</time>
      </trkpt>
      <trkpt lat="48.592808" lon="16.827998">
        <ele>212.157076</ele>
        <time>2020-09-18T10:42:24.890Z</time>
      </trkpt>
      <trkpt lat="48.592860" lon="16.827866">
        <ele>212.123869</ele>
        <time>2020-09-18T10:42:26.897Z</time>
      </trkpt>
      <trkpt lat="48.592914" lon="16.827732">
        <ele>212.089954</ele>
        <time>2020-09-18T10:42:28.895Z</time>
      </trkpt>
      <trkpt lat="48.592964" lon="16.827594">
        <ele>212.055944</ele>
        <time>2020-09-18T10:42:30.896Z</time>
      </trkpt>
      <trkpt lat="48.593018" lon="16.827461">
        <ele>212.022214</ele>
        <time>2020-09-18T10:42:32.935Z</time>
      </trkpt>
      <trkpt lat="48.593072" lon="16.827330">
        <ele>211.988851</ele>
        <time>2020-09-18T10:42:34.898Z</time>
      </trkpt>
      <trkpt lat="48.593122" lon="16.827197">
        <ele>211.955786</ele>
        <time>2020-09-18T10:42:36.921Z</time>
      </trkpt>
      <trkpt lat="48.593172" lon="16.827061">
        <ele>211.922155</ele>
        <time>2020-09-18T10:42:38.884Z</time>
      </trkpt>
      <trkpt lat="48.593220" lon="16.826924">
        <ele>211.888646</ele>
        <time>2020-09-18T10:42:40.907Z</time>
      </trkpt>
      <trkpt lat="48.593268" lon="16.826788">
        <ele>211.855328</ele>
        <time>2020-09-18T10:42:42.914Z</time>
      </trkpt>
      <trkpt lat="48.593319" lon="16.826657">
        <ele>211.822474</ele>
        <time>2020-09-18T10:42:44.890Z</time>
      </trkpt>
      <trkpt lat="48.593371" lon="16.826524">
        <ele>211.789080</ele>
        <time>2020-09-18T10:42:46.887Z</time>
      </trkpt>
      <trkpt lat="48.593424" lon="16.826392">
        <ele>211.755705</ele>
        <time>2020-09-18T10:42:48.888Z</time>
      </trkpt>
      <trkpt lat="48.593475" lon="16.826264">
        <ele>211.725749</ele>
        <time>2020-09-18T10:42:50.914Z</time>
      </trkpt>
      <trkpt lat="48.593523" lon="16.826131">
        <ele>211.698376</ele>
        <time>2020-09-18T10:42:52.902Z</time>
      </trkpt>
      <trkpt lat="48.593573" lon="16.826003">
        <ele>211.671518</ele>
        <time>2020-09-18T10:42:54.915Z</time>
      </trkpt>
      <trkpt lat="48.593622" lon="16.825878">
        <ele>211.645267</ele>
        <time>2020-09-18T10:42:56.926Z</time>
      </trkpt>
      <trkpt lat="48.593672" lon="16.825753">
        <ele>211.618875</ele>
        <time>2020-09-18T10:42:58.906Z</time>
      </trkpt>
      <trkpt lat="48.593728" lon="16.825632">
        <ele>211.592194</ele>
        <time>2020-09-18T10:43:00.906Z</time>
      </trkpt>
      <trkpt lat="48.593791" lon="16.825517">
        <ele>211.565216</ele>
        <time>2020-09-18T10:43:02.926Z</time>
      </trkpt>
      <trkpt lat="48.593858" lon="16.825400">
        <ele>211.537256</ele>
        <time>2020-09-18T10:43:04.894Z</time>
      </trkpt>
      <trkpt lat="48.593925" lon="16.825287">
        <ele>211.509838</ele>
        <time>2020-09-18T10:43:06.889Z</time>
      </trkpt>
      <trkpt lat="48.593987" lon="16.825178">
        <ele>211.483865</ele>
        <time>2020-09-18T10:43:08.888Z</time>
      </trkpt>
      <trkpt lat="48.594049" lon="16.825076">
        <ele>211.458837</ele>
        <time>2020-09-18T10:43:10.890Z</time>
      </trkpt>
      <trkpt lat="48.594135" lon="16.824921">
        <ele>211.422285</ele>
        <time>2020-09-18T10:43:13.928Z</time>
      </trkpt>
      <trkpt lat="48.594221" lon="16.824761">
        <ele>211.385037</ele>
        <time>2020-09-18T10:43:16.909Z</time>
      </trkpt>
      <trkpt lat="48.594276" lon="16.824644">
        <ele>211.359104</ele>
        <time>2020-09-18T10:43:18.915Z</time>
      </trkpt>
      <trkpt lat="48.594332" lon="16.824538">
        <ele>211.334595</ele>
        <time>2020-09-18T10:43:20.908Z</time>
      </trkpt>
      <trkpt lat="48.594389" lon="16.824426">
        <ele>211.309063</ele>
        <time>2020-09-18T10:43:22.895Z</time>
      </trkpt>
      <trkpt lat="48.594447" lon="16.824310">
        <ele>211.282792</ele>
        <time>2020-09-18T10:43:24.891Z</time>
      </trkpt>
      <trkpt lat="48.594510" lon="16.824199">
        <ele>211.256366</ele>
        <time>2020-09-18T10:43:26.894Z</time>
      </trkpt>
      <trkpt lat="48.594589" lon="16.824095">
        <ele>211.241455</ele>
        <time>2020-09-18T10:43:28.893Z</time>
      </trkpt>
      <trkpt lat="48.594666" lon="16.823992">
        <ele>211.234051</ele>
        <time>2020-09-18T10:43:30.910Z</time>
      </trkpt>
      <trkpt lat="48.594743" lon="16.823897">
        <ele>211.226893</ele>
        <time>2020-09-18T10:43:32.891Z</time>
      </trkpt>
      <trkpt lat="48.594813" lon="16.823800">
        <ele>211.220055</ele>
        <time>2020-09-18T10:43:34.921Z</time>
      </trkpt>
      <trkpt lat="48.594881" lon="16.823704">
        <ele>211.213355</ele>
        <time>2020-09-18T10:43:36.911Z</time>
      </trkpt>
      <trkpt lat="48.594973" lon="16.823570">
        <ele>211.204155</ele>
        <time>2020-09-18T10:43:39.923Z</time>
      </trkpt>
      <trkpt lat="48.595062" lon="16.823456">
        <ele>211.195754</ele>
        <time>2020-09-18T10:43:42.911Z</time>
      </trkpt>
      <trkpt lat="48.595141" lon="16.823347">
        <ele>211.188052</ele>
        <time>2020-09-18T10:43:45.898Z</time>
      </trkpt>
      <trkpt lat="48.595227" lon="16.823296">
        <ele>211.181399</ele>
        <time>2020-09-18T10:43:54.893Z</time>
      </trkpt>
      <trkpt lat="48.595302" lon="16.823390">
        <ele>211.174383</ele>
        <time>2020-09-18T10:43:57.906Z</time>
      </trkpt>
      <trkpt lat="48.595395" lon="16.823476">
        <ele>211.166532</ele>
        <time>2020-09-18T10:44:00.911Z</time>
      </trkpt>
      <trkpt lat="48.595510" lon="16.823491">
        <ele>211.158219</ele>
        <time>2020-09-18T10:44:03.894Z</time>
      </trkpt>
      <trkpt lat="48.595593" lon="16.823410">
        <ele>211.151104</ele>
        <time>2020-09-18T10:44:05.882Z</time>
      </trkpt>
      <trkpt lat="48.595683" lon="16.823304">
        <ele>211.142888</ele>
        <time>2020-09-18T10:44:07.895Z</time>
      </trkpt>
      <trkpt lat="48.595777" lon="16.823208">
        <ele>211.134719</ele>
        <time>2020-09-18T10:44:09.895Z</time>
      </trkpt>
      <trkpt lat="48.595875" lon="16.823120">
        <ele>211.126510</ele>
        <time>2020-09-18T10:44:11.918Z</time>
      </trkpt>
      <trkpt lat="48.595977" lon="16.823045">
        <ele>211.118341</ele>
        <time>2020-09-18T10:44:13.896Z</time>
      </trkpt>
      <trkpt lat="48.596077" lon="16.822964">
        <ele>211.125555</ele>
        <time>2020-09-18T10:44:15.918Z</time>
      </trkpt>
      <trkpt lat="48.596168" lon="16.822888">
        <ele>211.135382</ele>
        <time>2020-09-18T10:44:17.913Z</time>
      </trkpt>
      <trkpt lat="48.596254" lon="16.822801">
        <ele>211.145163</ele>
        <time>2020-09-18T10:44:19.911Z</time>
      </trkpt>
      <trkpt lat="48.596338" lon="16.822712">
        <ele>211.154859</ele>
        <time>2020-09-18T10:44:21.895Z</time>
      </trkpt>
      <trkpt lat="48.596422" lon="16.822623">
        <ele>211.164554</ele>
        <time>2020-09-18T10:44:23.911Z</time>
      </trkpt>
      <trkpt lat="48.596503" lon="16.822531">
        <ele>211.174130</ele>
        <time>2020-09-18T10:44:25.893Z</time>
      </trkpt>
      <trkpt lat="48.596580" lon="16.822441">
        <ele>211.183330</ele>
        <time>2020-09-18T10:44:27.894Z</time>
      </trkpt>
      <trkpt lat="48.596656" lon="16.822348">
        <ele>211.192572</ele>
        <time>2020-09-18T10:44:29.919Z</time>
      </trkpt>
      <trkpt lat="48.596732" lon="16.822265">
        <ele>211.201434</ele>
        <time>2020-09-18T10:44:31.914Z</time>
      </trkpt>
      <trkpt lat="48.596813" lon="16.822191">
        <ele>211.210380</ele>
        <time>2020-09-18T10:44:33.914Z</time>
      </trkpt>
      <trkpt lat="48.596891" lon="16.822114">
        <ele>211.219185</ele>
        <time>2020-09-18T10:44:35.898Z</time>
      </trkpt>
      <trkpt lat="48.596972" lon="16.822037">
        <ele>211.228229</ele>
        <time>2020-09-18T10:44:37.894Z</time>
      </trkpt>
      <trkpt lat="48.597056" lon="16.821965">
        <ele>211.237356</ele>
        <time>2020-09-18T10:44:39.897Z</time>
      </trkpt>
      <trkpt lat="48.597143" lon="16.821893">
        <ele>211.246731</ele>
        <time>2020-09-18T10:44:41.934Z</time>
      </trkpt>
      <trkpt lat="48.597234" lon="16.821817">
        <ele>211.256558</ele>
        <time>2020-09-18T10:44:43.892Z</time>
      </trkpt>
      <trkpt lat="48.597325" lon="16.821740">
        <ele>211.266415</ele>
        <time>2020-09-18T10:44:45.918Z</time>
      </trkpt>
      <trkpt lat="48.597408" lon="16.821668">
        <ele>211.275460</ele>
        <time>2020-09-18T10:44:47.902Z</time>
      </trkpt>
      <trkpt lat="48.597494" lon="16.821585">
        <ele>211.285104</ele>
        <time>2020-09-18T10:44:49.915Z</time>
      </trkpt>
      <trkpt lat="48.597587" lon="16.821500">
        <ele>211.334952</ele>
        <time>2020-09-18T10:44:51.908Z</time>
      </trkpt>
      <trkpt lat="48.597680" lon="16.821423">
        <ele>211.391456</ele>
        <time>2020-09-18T10:44:53.901Z</time>
      </trkpt>
      <trkpt lat="48.597767" lon="16.821348">
        <ele>211.444824</ele>
        <time>2020-09-18T10:44:55.890Z</time>
      </trkpt>
      <trkpt lat="48.597851" lon="16.821274">
        <ele>211.496631</ele>
        <time>2020-09-18T10:44:57.892Z</time>
      </trkpt>
      <trkpt lat="48.597937" lon="16.821203">
        <ele>211.548847</ele>
        <time>2020-09-18T10:44:59.892Z</time>
      </trkpt>
      <trkpt lat="48.598023" lon="16.821140">
        <ele>211.599772</ele>
        <time>2020-09-18T10:45:01.935Z</time>
      </trkpt>
      <trkpt lat="48.598110" lon="16.821084">
        <ele>211.650161</ele>
        <time>2020-09-18T10:45:03.896Z</time>
      </trkpt>
      <trkpt lat="48.598197" lon="16.821032">
        <ele>211.700015</ele>
        <time>2020-09-18T10:45:05.903Z</time>
      </trkpt>
      <trkpt lat="48.598287" lon="16.820984">
        <ele>211.750872</ele>
        <time>2020-09-18T10:45:07.939Z</time>
      </trkpt>
      <trkpt lat="48.598376" lon="16.820936">
        <ele>211.801228</ele>
        <time>2020-09-18T10:45:09.923Z</time>
      </trkpt>
      <trkpt lat="48.598466" lon="16.820891">
        <ele>211.851743</ele>
        <time>2020-09-18T10:45:11.929Z</time>
      </trkpt>
      <trkpt lat="48.598558" lon="16.820844">
        <ele>211.903493</ele>
        <time>2020-09-18T10:45:13.901Z</time>
      </trkpt>
      <trkpt lat="48.598652" lon="16.820802">
        <ele>211.955728</ele>
        <time>2020-09-18T10:45:15.900Z</time>
      </trkpt>
      <trkpt lat="48.598749" lon="16.820764">
        <ele>212.009126</ele>
        <time>2020-09-18T10:45:17.912Z</time>
      </trkpt>
      <trkpt lat="48.598843" lon="16.820723">
        <ele>212.061262</ele>
        <time>2020-09-18T10:45:19.888Z</time>
      </trkpt>
      <trkpt lat="48.598926" lon="16.820671">
        <ele>212.109139</ele>
        <time>2020-09-18T10:45:22.890Z</time>
      </trkpt>
      <trkpt lat="48.598928" lon="16.820658">
        <ele>212.113843</ele>
        <time>2020-09-18T10:45:33.979Z</time>
      </trkpt>
      <trkpt lat="48.598936" lon="16.820845">
        <ele>212.179884</ele>
        <time>2020-09-18T10:49:47.677Z</time>
      </trkpt>
      <trkpt lat="48.599009" lon="16.820742">
        <ele>212.233092</ele>
        <time>2020-09-18T10:49:56.910Z</time>
      </trkpt>
      <trkpt lat="48.599091" lon="16.820687">
        <ele>212.266069</ele>
        <time>2020-09-18T10:49:59.911Z</time>
      </trkpt>
      <trkpt lat="48.599191" lon="16.820641">
        <ele>212.298536</ele>
        <time>2020-09-18T10:50:02.916Z</time>
      </trkpt>
      <trkpt lat="48.599302" lon="16.820594">
        <ele>212.334340</ele>
        <time>2020-09-18T10:50:05.914Z</time>
      </trkpt>
      <trkpt lat="48.599417" lon="16.820549">
        <ele>212.371237</ele>
        <time>2020-09-18T10:50:08.939Z</time>
      </trkpt>
      <trkpt lat="48.599537" lon="16.820487">
        <ele>212.410627</ele>
        <time>2020-09-18T10:50:11.909Z</time>
      </trkpt>
      <trkpt lat="48.599656" lon="16.820427">
        <ele>212.449590</ele>
        <time>2020-09-18T10:50:14.903Z</time>
      </trkpt>
      <trkpt lat="48.599776" lon="16.820368">
        <ele>212.488784</ele>
        <time>2020-09-18T10:50:17.906Z</time>
      </trkpt>
      <trkpt lat="48.599903" lon="16.820302">
        <ele>212.530497</ele>
        <time>2020-09-18T10:50:20.916Z</time>
      </trkpt>
      <trkpt lat="48.600023" lon="16.820229">
        <ele>212.570673</ele>
        <time>2020-09-18T10:50:23.906Z</time>
      </trkpt>
      <trkpt lat="48.600109" lon="16.820187">
        <ele>212.598745</ele>
        <time>2020-09-18T10:50:25.899Z</time>
      </trkpt>
      <trkpt lat="48.600197" lon="16.820146">
        <ele>212.627347</ele>
        <time>2020-09-18T10:50:27.895Z</time>
      </trkpt>
      <trkpt lat="48.600318" lon="16.820069">
        <ele>212.668123</ele>
        <time>2020-09-18T10:50:30.902Z</time>
      </trkpt>
      <trkpt lat="48.600400" lon="16.820012">
        <ele>212.696156</ele>
        <time>2020-09-18T10:50:32.916Z</time>
      </trkpt>
      <trkpt lat="48.600506" lon="16.819885">
        <ele>212.738163</ele>
        <time>2020-09-18T10:50:35.896Z</time>
      </trkpt>
      <trkpt lat="48.600580" lon="16.819794">
        <ele>212.767789</ele>
        <time>2020-09-18T10:50:37.913Z</time>
      </trkpt>
      <trkpt lat="48.600653" lon="16.819706">
        <ele>212.796787</ele>
        <time>2020-09-18T10:50:39.893Z</time>
      </trkpt>
      <trkpt lat="48.600728" lon="16.819626">
        <ele>212.786015</ele>
        <time>2020-09-18T10:50:41.922Z</time>
      </trkpt>
      <trkpt lat="48.600798" lon="16.819532">
        <ele>212.761373</ele>
        <time>2020-09-18T10:50:43.910Z</time>
      </trkpt>
      <trkpt lat="48.600873" lon="16.819443">
        <ele>212.736279</ele>
        <time>2020-09-18T10:50:45.884Z</time>
      </trkpt>
      <trkpt lat="48.600951" lon="16.819366">
        <ele>212.711761</ele>
        <time>2020-09-18T10:50:47.901Z</time>
      </trkpt>
      <trkpt lat="48.601037" lon="16.819289">
        <ele>212.685454</ele>
        <time>2020-09-18T10:50:49.913Z</time>
      </trkpt>
      <trkpt lat="48.601128" lon="16.819218">
        <ele>212.658501</ele>
        <time>2020-09-18T10:50:51.926Z</time>
      </trkpt>
      <trkpt lat="48.601226" lon="16.819142">
        <ele>212.629511</ele>
        <time>2020-09-18T10:50:53.898Z</time>
      </trkpt>
      <trkpt lat="48.601318" lon="16.819066">
        <ele>212.601917</ele>
        <time>2020-09-18T10:50:55.918Z</time>
      </trkpt>
      <trkpt lat="48.601406" lon="16.818989">
        <ele>212.575156</ele>
        <time>2020-09-18T10:50:57.904Z</time>
      </trkpt>
      <trkpt lat="48.601485" lon="16.818906">
        <ele>212.549836</ele>
        <time>2020-09-18T10:50:59.919Z</time>
      </trkpt>
      <trkpt lat="48.601557" lon="16.818808">
        <ele>212.524338</ele>
        <time>2020-09-18T10:51:01.909Z</time>
      </trkpt>
      <trkpt lat="48.601620" lon="16.818699">
        <ele>212.499140</ele>
        <time>2020-09-18T10:51:03.902Z</time>
      </trkpt>
      <trkpt lat="48.601681" lon="16.818582">
        <ele>212.473206</ele>
        <time>2020-09-18T10:51:05.927Z</time>
      </trkpt>
      <trkpt lat="48.601758" lon="16.818485">
        <ele>212.446827</ele>
        <time>2020-09-18T10:51:07.910Z</time>
      </trkpt>
      <trkpt lat="48.601810" lon="16.818368">
        <ele>212.422290</ele>
        <time>2020-09-18T10:51:09.906Z</time>
      </trkpt>
      <trkpt lat="48.601743" lon="16.818260">
        <ele>212.396514</ele>
        <time>2020-09-18T10:51:11.904Z</time>
      </trkpt>
      <trkpt lat="48.601640" lon="16.818190">
        <ele>212.366790</ele>
        <time>2020-09-18T10:51:13.920Z</time>
      </trkpt>
      <trkpt lat="48.601531" lon="16.818119">
        <ele>212.335551</ele>
        <time>2020-09-18T10:51:15.943Z</time>
      </trkpt>
      <trkpt lat="48.601427" lon="16.818055">
        <ele>212.342841</ele>
        <time>2020-09-18T10:51:17.907Z</time>
      </trkpt>
      <trkpt lat="48.601317" lon="16.817980">
        <ele>212.358642</ele>
        <time>2020-09-18T10:51:19.900Z</time>
      </trkpt>
      <trkpt lat="48.601216" lon="16.817909">
        <ele>212.373228</ele>
        <time>2020-09-18T10:51:21.911Z</time>
      </trkpt>
      <trkpt lat="48.601119" lon="16.817804">
        <ele>212.388849</ele>
        <time>2020-09-18T10:51:23.931Z</time>
      </trkpt>
      <trkpt lat="48.601037" lon="16.817677">
        <ele>212.404220</ele>
        <time>2020-09-18T10:51:25.915Z</time>
      </trkpt>
      <trkpt lat="48.600942" lon="16.817559">
        <ele>212.420319</ele>
        <time>2020-09-18T10:51:27.922Z</time>
      </trkpt>
      <trkpt lat="48.600880" lon="16.817395">
        <ele>212.436678</ele>
        <time>2020-09-18T10:51:29.912Z</time>
      </trkpt>
      <trkpt lat="48.600882" lon="16.817212">
        <ele>212.452528</ele>
        <time>2020-09-18T10:51:31.893Z</time>
      </trkpt>
      <trkpt lat="48.600895" lon="16.817039">
        <ele>212.467606</ele>
        <time>2020-09-18T10:51:33.893Z</time>
      </trkpt>
      <trkpt lat="48.600913" lon="16.816867">
        <ele>212.482686</ele>
        <time>2020-09-18T10:51:35.894Z</time>
      </trkpt>
      <trkpt lat="48.600935" lon="16.816699">
        <ele>212.497517</ele>
        <time>2020-09-18T10:51:37.895Z</time>
      </trkpt>
      <trkpt lat="48.600955" lon="16.816535">
        <ele>212.511959</ele>
        <time>2020-09-18T10:51:39.930Z</time>
      </trkpt>
      <trkpt lat="48.600971" lon="16.816376">
        <ele>212.525886</ele>
        <time>2020-09-18T10:51:41.911Z</time>
      </trkpt>
      <trkpt lat="48.600993" lon="16.816216">
        <ele>212.540038</ele>
        <time>2020-09-18T10:51:43.923Z</time>
      </trkpt>
      <trkpt lat="48.601015" lon="16.816051">
        <ele>212.554615</ele>
        <time>2020-09-18T10:51:45.909Z</time>
      </trkpt>
      <trkpt lat="48.601030" lon="16.815882">
        <ele>212.571914</ele>
        <time>2020-09-18T10:51:47.894Z</time>
      </trkpt>
      <trkpt lat="48.601044" lon="16.815715">
        <ele>212.597874</ele>
        <time>2020-09-18T10:51:49.914Z</time>
      </trkpt>
      <trkpt lat="48.601054" lon="16.815550">
        <ele>212.623426</ele>
        <time>2020-09-18T10:51:51.917Z</time>
      </trkpt>
      <trkpt lat="48.601066" lon="16.815379">
        <ele>212.649944</ele>
        <time>2020-09-18T10:51:53.909Z</time>
      </trkpt>
      <trkpt lat="48.601083" lon="16.815211">
        <ele>212.676153</ele>
        <time>2020-09-18T10:51:55.920Z</time>
      </trkpt>
      <trkpt lat="48.601100" lon="16.815042">
        <ele>212.702515</ele>
        <time>2020-09-18T10:51:57.919Z</time>
      </trkpt>
      <trkpt lat="48.601116" lon="16.814867">
        <ele>212.729759</ele>
        <time>2020-09-18T10:51:59.899Z</time>
      </trkpt>
      <trkpt lat="48.601129" lon="16.814686">
        <ele>212.757835</ele>
        <time>2020-09-18T10:52:01.913Z</time>
      </trkpt>
      <trkpt lat="48.601143" lon="16.814512">
        <ele>212.784866</ele>
        <time>2020-09-18T10:52:03.899Z</time>
      </trkpt>
      <trkpt lat="48.601157" lon="16.814344">
        <ele>212.810979</ele>
        <time>2020-09-18T10:52:05.909Z</time>
      </trkpt>
      <trkpt lat="48.601173" lon="16.814171">
        <ele>212.837917</ele>
        <time>2020-09-18T10:52:07.899Z</time>
      </trkpt>
      <trkpt lat="48.601199" lon="16.813997">
        <ele>212.865426</ele>
        <time>2020-09-18T10:52:09.908Z</time>
      </trkpt>
      <trkpt lat="48.601223" lon="16.813822">
        <ele>212.892987</ele>
        <time>2020-09-18T10:52:11.902Z</time>
      </trkpt>
      <trkpt lat="48.601246" lon="16.813645">
        <ele>212.920805</ele>
        <time>2020-09-18T10:52:13.908Z</time>
      </trkpt>
      <trkpt lat="48.601265" lon="16.813474">
        <ele>212.947545</ele>
        <time>2020-09-18T10:52:15.919Z</time>
      </trkpt>
      <trkpt lat="48.601283" lon="16.813301">
        <ele>212.974552</ele>
        <time>2020-09-18T10:52:17.889Z</time>
      </trkpt>
      <trkpt lat="48.601300" lon="16.813125">
        <ele>213.011849</ele>
        <time>2020-09-18T10:52:19.919Z</time>
      </trkpt>
      <trkpt lat="48.601318" lon="16.812954">
        <ele>213.054611</ele>
        <time>2020-09-18T10:52:21.924Z</time>
      </trkpt>
      <trkpt lat="48.601325" lon="16.812800">
        <ele>213.092733</ele>
        <time>2020-09-18T10:52:23.914Z</time>
      </trkpt>
      <trkpt lat="48.601332" lon="16.812615">
        <ele>213.138496</ele>
        <time>2020-09-18T10:52:26.922Z</time>
      </trkpt>
      <trkpt lat="48.601344" lon="16.812477">
        <ele>213.172870</ele>
        <time>2020-09-18T10:52:29.911Z</time>
      </trkpt>
      <trkpt lat="48.601354" lon="16.812341">
        <ele>213.206664</ele>
        <time>2020-09-18T10:52:32.918Z</time>
      </trkpt>
      <trkpt lat="48.601377" lon="16.812202">
        <ele>213.242050</ele>
        <time>2020-09-18T10:52:34.929Z</time>
      </trkpt>
      <trkpt lat="48.601420" lon="16.812030">
        <ele>213.287461</ele>
        <time>2020-09-18T10:52:36.909Z</time>
      </trkpt>
      <trkpt lat="48.601469" lon="16.811840">
        <ele>213.337826</ele>
        <time>2020-09-18T10:52:38.917Z</time>
      </trkpt>
      <trkpt lat="48.601519" lon="16.811643">
        <ele>213.389937</ele>
        <time>2020-09-18T10:52:40.909Z</time>
      </trkpt>
      <trkpt lat="48.601567" lon="16.811459">
        <ele>213.438786</ele>
        <time>2020-09-18T10:52:42.929Z</time>
      </trkpt>
      <trkpt lat="48.601615" lon="16.811290">
        <ele>213.484209</ele>
        <time>2020-09-18T10:52:44.894Z</time>
      </trkpt>
      <trkpt lat="48.601663" lon="16.811126">
        <ele>213.528500</ele>
        <time>2020-09-18T10:52:46.915Z</time>
      </trkpt>
      <trkpt lat="48.601710" lon="16.810962">
        <ele>213.572641</ele>
        <time>2020-09-18T10:52:48.923Z</time>
      </trkpt>
      <trkpt lat="48.601756" lon="16.810802">
        <ele>213.615728</ele>
        <time>2020-09-18T10:52:50.923Z</time>
      </trkpt>
      <trkpt lat="48.601808" lon="16.810648">
        <ele>213.658283</ele>
        <time>2020-09-18T10:52:52.919Z</time>
      </trkpt>
      <trkpt lat="48.601861" lon="16.810494">
        <ele>213.695663</ele>
        <time>2020-09-18T10:52:54.911Z</time>
      </trkpt>
      <trkpt lat="48.601911" lon="16.810342">
        <ele>213.732216</ele>
        <time>2020-09-18T10:52:56.933Z</time>
      </trkpt>
      <trkpt lat="48.601955" lon="16.810189">
        <ele>213.768139</ele>
        <time>2020-09-18T10:52:58.934Z</time>
      </trkpt>
      <trkpt lat="48.601999" lon="16.810043">
        <ele>213.802686</ele>
        <time>2020-09-18T10:53:00.915Z</time>
      </trkpt>
      <trkpt lat="48.602042" lon="16.809896">
        <ele>213.837295</ele>
        <time>2020-09-18T10:53:02.907Z</time>
      </trkpt>
      <trkpt lat="48.602083" lon="16.809748">
        <ele>213.871845</ele>
        <time>2020-09-18T10:53:04.913Z</time>
      </trkpt>
      <trkpt lat="48.602125" lon="16.809603">
        <ele>213.905929</ele>
        <time>2020-09-18T10:53:06.891Z</time>
      </trkpt>
      <trkpt lat="48.602165" lon="16.809466">
        <ele>213.938174</ele>
        <time>2020-09-18T10:53:08.932Z</time>
      </trkpt>
      <trkpt lat="48.602190" lon="16.809325">
        <ele>213.969605</ele>
        <time>2020-09-18T10:53:10.900Z</time>
      </trkpt>
      <trkpt lat="48.602212" lon="16.809183">
        <ele>214.001007</ele>
        <time>2020-09-18T10:53:12.909Z</time>
      </trkpt>
      <trkpt lat="48.602230" lon="16.809039">
        <ele>214.032561</ele>
        <time>2020-09-18T10:53:14.919Z</time>
      </trkpt>
      <trkpt lat="48.602254" lon="16.808886">
        <ele>214.066418</ele>
        <time>2020-09-18T10:53:16.891Z</time>
      </trkpt>
      <trkpt lat="48.602276" lon="16.808718">
        <ele>214.103293</ele>
        <time>2020-09-18T10:53:18.944Z</time>
      </trkpt>
      <trkpt lat="48.602295" lon="16.808543">
        <ele>214.141477</ele>
        <time>2020-09-18T10:53:20.922Z</time>
      </trkpt>
      <trkpt lat="48.602320" lon="16.808366">
        <ele>214.180447</ele>
        <time>2020-09-18T10:53:22.926Z</time>
      </trkpt>
      <trkpt lat="48.602347" lon="16.808182">
        <ele>214.221028</ele>
        <time>2020-09-18T10:53:24.927Z</time>
      </trkpt>
      <trkpt lat="48.602368" lon="16.808001">
        <ele>214.247621</ele>
        <time>2020-09-18T10:53:26.895Z</time>
      </trkpt>
      <trkpt lat="48.602391" lon="16.807821">
        <ele>214.258130</ele>
        <time>2020-09-18T10:53:28.930Z</time>
      </trkpt>
      <trkpt lat="48.602413" lon="16.807646">
        <ele>214.268342</ele>
        <time>2020-09-18T10:53:30.962Z</time>
      </trkpt>
      <trkpt lat="48.602433" lon="16.807471">
        <ele>214.278522</ele>
        <time>2020-09-18T10:53:32.932Z</time>
      </trkpt>
      <trkpt lat="48.602451" lon="16.807302">
        <ele>214.288335</ele>
        <time>2020-09-18T10:53:34.929Z</time>
      </trkpt>
      <trkpt lat="48.602474" lon="16.807137">
        <ele>214.298002</ele>
        <time>2020-09-18T10:53:36.949Z</time>
      </trkpt>
      <trkpt lat="48.602493" lon="16.806973">
        <ele>214.307546</ele>
        <time>2020-09-18T10:53:38.906Z</time>
      </trkpt>
      <trkpt lat="48.602513" lon="16.806811">
        <ele>214.316993</ele>
        <time>2020-09-18T10:53:40.898Z</time>
      </trkpt>
      <trkpt lat="48.602536" lon="16.806648">
        <ele>214.326547</ele>
        <time>2020-09-18T10:53:42.945Z</time>
      </trkpt>
      <trkpt lat="48.602556" lon="16.806490">
        <ele>214.335769</ele>
        <time>2020-09-18T10:53:44.920Z</time>
      </trkpt>
      <trkpt lat="48.602575" lon="16.806339">
        <ele>214.344580</ele>
        <time>2020-09-18T10:53:46.915Z</time>
      </trkpt>
      <trkpt lat="48.602592" lon="16.806194">
        <ele>214.353022</ele>
        <time>2020-09-18T10:53:48.925Z</time>
      </trkpt>
      <trkpt lat="48.602617" lon="16.806050">
        <ele>214.361556</ele>
        <time>2020-09-18T10:53:50.929Z</time>
      </trkpt>
      <trkpt lat="48.602632" lon="16.805900">
        <ele>214.370253</ele>
        <time>2020-09-18T10:53:52.932Z</time>
      </trkpt>
      <trkpt lat="48.602649" lon="16.805742">
        <ele>214.379429</ele>
        <time>2020-09-18T10:53:54.908Z</time>
      </trkpt>
      <trkpt lat="48.602671" lon="16.805583">
        <ele>214.388741</ele>
        <time>2020-09-18T10:53:56.906Z</time>
      </trkpt>
      <trkpt lat="48.602697" lon="16.805426">
        <ele>214.398019</ele>
        <time>2020-09-18T10:53:58.924Z</time>
      </trkpt>
      <trkpt lat="48.602716" lon="16.805269">
        <ele>214.386996</ele>
        <time>2020-09-18T10:54:00.914Z</time>
      </trkpt>
      <trkpt lat="48.602733" lon="16.805100">
        <ele>214.373080</ele>
        <time>2020-09-18T10:54:02.909Z</time>
      </trkpt>
      <trkpt lat="48.602749" lon="16.804933">
        <ele>214.359343</ele>
        <time>2020-09-18T10:54:04.936Z</time>
      </trkpt>
      <trkpt lat="48.602767" lon="16.804769">
        <ele>214.345809</ele>
        <time>2020-09-18T10:54:06.913Z</time>
      </trkpt>
      <trkpt lat="48.602786" lon="16.804598">
        <ele>214.331693</ele>
        <time>2020-09-18T10:54:08.904Z</time>
      </trkpt>
      <trkpt lat="48.602808" lon="16.804425">
        <ele>214.317351</ele>
        <time>2020-09-18T10:54:10.939Z</time>
      </trkpt>
      <trkpt lat="48.602834" lon="16.804246">
        <ele>214.302431</ele>
        <time>2020-09-18T10:54:12.899Z</time>
      </trkpt>
      <trkpt lat="48.602855" lon="16.804065">
        <ele>214.287471</ele>
        <time>2020-09-18T10:54:14.894Z</time>
      </trkpt>
      <trkpt lat="48.602875" lon="16.803882">
        <ele>214.272371</ele>
        <time>2020-09-18T10:54:16.919Z</time>
      </trkpt>
      <trkpt lat="48.602893" lon="16.803699">
        <ele>214.257310</ele>
        <time>2020-09-18T10:54:18.915Z</time>
      </trkpt>
      <trkpt lat="48.602912" lon="16.803523">
        <ele>214.242792</ele>
        <time>2020-09-18T10:54:20.908Z</time>
      </trkpt>
      <trkpt lat="48.602931" lon="16.803351">
        <ele>214.228596</ele>
        <time>2020-09-18T10:54:22.894Z</time>
      </trkpt>
      <trkpt lat="48.602948" lon="16.803179">
        <ele>214.214438</ele>
        <time>2020-09-18T10:54:24.917Z</time>
      </trkpt>
      <trkpt lat="48.602969" lon="16.803007">
        <ele>214.200199</ele>
        <time>2020-09-18T10:54:26.943Z</time>
      </trkpt>
      <trkpt lat="48.602991" lon="16.802843">
        <ele>214.186576</ele>
        <time>2020-09-18T10:54:28.899Z</time>
      </trkpt>
      <trkpt lat="48.603015" lon="16.802678">
        <ele>214.188660</ele>
        <time>2020-09-18T10:54:30.926Z</time>
      </trkpt>
      <trkpt lat="48.603034" lon="16.802512">
        <ele>214.222356</ele>
        <time>2020-09-18T10:54:32.905Z</time>
      </trkpt>
      <trkpt lat="48.603054" lon="16.802349">
        <ele>214.255515</ele>
        <time>2020-09-18T10:54:34.938Z</time>
      </trkpt>
      <trkpt lat="48.603072" lon="16.802188">
        <ele>214.288174</ele>
        <time>2020-09-18T10:54:36.903Z</time>
      </trkpt>
      <trkpt lat="48.603086" lon="16.802028">
        <ele>214.320455</ele>
        <time>2020-09-18T10:54:38.896Z</time>
      </trkpt>
      <trkpt lat="48.603101" lon="16.801870">
        <ele>214.352381</ele>
        <time>2020-09-18T10:54:40.903Z</time>
      </trkpt>
      <trkpt lat="48.603113" lon="16.801713">
        <ele>214.383993</ele>
        <time>2020-09-18T10:54:42.902Z</time>
      </trkpt>
      <trkpt lat="48.603125" lon="16.801556">
        <ele>214.415604</ele>
        <time>2020-09-18T10:54:44.933Z</time>
      </trkpt>
      <trkpt lat="48.603137" lon="16.801403">
        <ele>214.446421</ele>
        <time>2020-09-18T10:54:46.905Z</time>
      </trkpt>
      <trkpt lat="48.603150" lon="16.801247">
        <ele>214.477870</ele>
        <time>2020-09-18T10:54:48.919Z</time>
      </trkpt>
      <trkpt lat="48.603162" lon="16.801094">
        <ele>214.508686</ele>
        <time>2020-09-18T10:54:50.929Z</time>
      </trkpt>
      <trkpt lat="48.603172" lon="16.800941">
        <ele>214.539438</ele>
        <time>2020-09-18T10:54:52.923Z</time>
      </trkpt>
      <trkpt lat="48.603182" lon="16.800794">
        <ele>214.568995</ele>
        <time>2020-09-18T10:54:54.908Z</time>
      </trkpt>
      <trkpt lat="48.603191" lon="16.800636">
        <ele>214.600714</ele>
        <time>2020-09-18T10:54:56.906Z</time>
      </trkpt>
      <trkpt lat="48.603199" lon="16.800480">
        <ele>214.632010</ele>
        <time>2020-09-18T10:54:58.916Z</time>
      </trkpt>
      <trkpt lat="48.603201" lon="16.800325">
        <ele>214.663018</ele>
        <time>2020-09-18T10:55:00.933Z</time>
      </trkpt>
      <trkpt lat="48.603207" lon="16.800166">
        <ele>214.694872</ele>
        <time>2020-09-18T10:55:02.903Z</time>
      </trkpt>
      <trkpt lat="48.603210" lon="16.800010">
        <ele>214.723031</ele>
        <time>2020-09-18T10:55:04.892Z</time>
      </trkpt>
      <trkpt lat="48.603219" lon="16.799849">
        <ele>214.734103</ele>
        <time>2020-09-18T10:55:06.905Z</time>
      </trkpt>
      <trkpt lat="48.603230" lon="16.799692">
        <ele>214.744921</ele>
        <time>2020-09-18T10:55:08.922Z</time>
      </trkpt>
      <trkpt lat="48.603236" lon="16.799539">
        <ele>214.755424</ele>
        <time>2020-09-18T10:55:10.931Z</time>
      </trkpt>
      <trkpt lat="48.603244" lon="16.799383">
        <ele>214.766146</ele>
        <time>2020-09-18T10:55:12.904Z</time>
      </trkpt>
      <trkpt lat="48.603244" lon="16.799226">
        <ele>214.776904</ele>
        <time>2020-09-18T10:55:14.904Z</time>
      </trkpt>
      <trkpt lat="48.603236" lon="16.799068">
        <ele>214.787763</ele>
        <time>2020-09-18T10:55:16.902Z</time>
      </trkpt>
      <trkpt lat="48.603232" lon="16.798916">
        <ele>214.798187</ele>
        <time>2020-09-18T10:55:18.898Z</time>
      </trkpt>
      <trkpt lat="48.603229" lon="16.798756">
        <ele>214.809155</ele>
        <time>2020-09-18T10:55:20.955Z</time>
      </trkpt>
      <trkpt lat="48.603233" lon="16.798596">
        <ele>214.820127</ele>
        <time>2020-09-18T10:55:22.907Z</time>
      </trkpt>
      <trkpt lat="48.603237" lon="16.798430">
        <ele>214.831510</ele>
        <time>2020-09-18T10:55:24.897Z</time>
      </trkpt>
      <trkpt lat="48.603244" lon="16.798263">
        <ele>214.842976</ele>
        <time>2020-09-18T10:55:26.894Z</time>
      </trkpt>
      <trkpt lat="48.603254" lon="16.798097">
        <ele>214.854399</ele>
        <time>2020-09-18T10:55:28.907Z</time>
      </trkpt>
      <trkpt lat="48.603264" lon="16.797928">
        <ele>214.866026</ele>
        <time>2020-09-18T10:55:30.908Z</time>
      </trkpt>
      <trkpt lat="48.603273" lon="16.797758">
        <ele>214.877712</ele>
        <time>2020-09-18T10:55:32.903Z</time>
      </trkpt>
      <trkpt lat="48.603282" lon="16.797588">
        <ele>214.889399</ele>
        <time>2020-09-18T10:55:34.900Z</time>
      </trkpt>
      <trkpt lat="48.603287" lon="16.797422">
        <ele>214.900785</ele>
        <time>2020-09-18T10:55:36.924Z</time>
      </trkpt>
      <trkpt lat="48.603295" lon="16.797261">
        <ele>214.913802</ele>
        <time>2020-09-18T10:55:38.913Z</time>
      </trkpt>
      <trkpt lat="48.603300" lon="16.797094">
        <ele>214.930818</ele>
        <time>2020-09-18T10:55:40.897Z</time>
      </trkpt>
      <trkpt lat="48.603306" lon="16.796931">
        <ele>214.947434</ele>
        <time>2020-09-18T10:55:42.921Z</time>
      </trkpt>
      <trkpt lat="48.603312" lon="16.796763">
        <ele>214.964559</ele>
        <time>2020-09-18T10:55:44.913Z</time>
      </trkpt>
      <trkpt lat="48.603319" lon="16.796597">
        <ele>214.981489</ele>
        <time>2020-09-18T10:55:46.908Z</time>
      </trkpt>
      <trkpt lat="48.603330" lon="16.796433">
        <ele>214.998267</ele>
        <time>2020-09-18T10:55:48.900Z</time>
      </trkpt>
      <trkpt lat="48.603342" lon="16.796278">
        <ele>215.014151</ele>
        <time>2020-09-18T10:55:50.904Z</time>
      </trkpt>
      <trkpt lat="48.603352" lon="16.796127">
        <ele>215.029598</ele>
        <time>2020-09-18T10:55:52.895Z</time>
      </trkpt>
      <trkpt lat="48.603360" lon="16.795974">
        <ele>215.045219</ele>
        <time>2020-09-18T10:55:54.898Z</time>
      </trkpt>
      <trkpt lat="48.603364" lon="16.795825">
        <ele>215.060397</ele>
        <time>2020-09-18T10:55:56.906Z</time>
      </trkpt>
      <trkpt lat="48.603374" lon="16.795683">
        <ele>215.074932</ele>
        <time>2020-09-18T10:55:58.894Z</time>
      </trkpt>
      <trkpt lat="48.603382" lon="16.795523">
        <ele>215.091264</ele>
        <time>2020-09-18T10:56:00.906Z</time>
      </trkpt>
      <trkpt lat="48.603389" lon="16.795368">
        <ele>215.107077</ele>
        <time>2020-09-18T10:56:02.897Z</time>
      </trkpt>
      <trkpt lat="48.603398" lon="16.795214">
        <ele>215.122813</ele>
        <time>2020-09-18T10:56:04.892Z</time>
      </trkpt>
      <trkpt lat="48.603405" lon="16.795052">
        <ele>215.139337</ele>
        <time>2020-09-18T10:56:06.898Z</time>
      </trkpt>
      <trkpt lat="48.603409" lon="16.794892">
        <ele>215.155634</ele>
        <time>2020-09-18T10:56:08.890Z</time>
      </trkpt>
      <trkpt lat="48.603418" lon="16.794725">
        <ele>215.172688</ele>
        <time>2020-09-18T10:56:10.889Z</time>
      </trkpt>
      <trkpt lat="48.603429" lon="16.794556">
        <ele>215.191494</ele>
        <time>2020-09-18T10:56:12.914Z</time>
      </trkpt>
      <trkpt lat="48.603441" lon="16.794391">
        <ele>215.213241</ele>
        <time>2020-09-18T10:56:14.892Z</time>
      </trkpt>
      <trkpt lat="48.603455" lon="16.794226">
        <ele>215.235034</ele>
        <time>2020-09-18T10:56:16.909Z</time>
      </trkpt>
      <trkpt lat="48.603465" lon="16.794066">
        <ele>215.256089</ele>
        <time>2020-09-18T10:56:18.917Z</time>
      </trkpt>
      <trkpt lat="48.603472" lon="16.793896">
        <ele>215.278403</ele>
        <time>2020-09-18T10:56:20.912Z</time>
      </trkpt>
      <trkpt lat="48.603482" lon="16.793720">
        <ele>215.301546</ele>
        <time>2020-09-18T10:56:22.919Z</time>
      </trkpt>
      <trkpt lat="48.603489" lon="16.793546">
        <ele>215.324383</ele>
        <time>2020-09-18T10:56:24.937Z</time>
      </trkpt>
      <trkpt lat="48.603499" lon="16.793373">
        <ele>215.347134</ele>
        <time>2020-09-18T10:56:26.895Z</time>
      </trkpt>
      <trkpt lat="48.603512" lon="16.793200">
        <ele>215.369944</ele>
        <time>2020-09-18T10:56:28.915Z</time>
      </trkpt>
      <trkpt lat="48.603526" lon="16.793035">
        <ele>215.391738</ele>
        <time>2020-09-18T10:56:30.907Z</time>
      </trkpt>
      <trkpt lat="48.603541" lon="16.792859">
        <ele>215.414986</ele>
        <time>2020-09-18T10:56:32.978Z</time>
      </trkpt>
      <trkpt lat="48.603552" lon="16.792686">
        <ele>215.437755</ele>
        <time>2020-09-18T10:56:34.952Z</time>
      </trkpt>
      <trkpt lat="48.603560" lon="16.792507">
        <ele>215.461258</ele>
        <time>2020-09-18T10:56:36.917Z</time>
      </trkpt>
      <trkpt lat="48.603569" lon="16.792331">
        <ele>215.484385</ele>
        <time>2020-09-18T10:56:38.890Z</time>
      </trkpt>
      <trkpt lat="48.603578" lon="16.792163">
        <ele>215.506466</ele>
        <time>2020-09-18T10:56:40.906Z</time>
      </trkpt>
      <trkpt lat="48.603588" lon="16.791988">
        <ele>215.529478</ele>
        <time>2020-09-18T10:56:42.911Z</time>
      </trkpt>
      <trkpt lat="48.603598" lon="16.791825">
        <ele>215.549149</ele>
        <time>2020-09-18T10:56:44.916Z</time>
      </trkpt>
      <trkpt lat="48.603614" lon="16.791668">
        <ele>215.566231</ele>
        <time>2020-09-18T10:56:46.917Z</time>
      </trkpt>
      <trkpt lat="48.603630" lon="16.791504">
        <ele>215.584058</ele>
        <time>2020-09-18T10:56:48.914Z</time>
      </trkpt>
      <trkpt lat="48.603647" lon="16.791341">
        <ele>215.601803</ele>
        <time>2020-09-18T10:56:50.911Z</time>
      </trkpt>
      <trkpt lat="48.603659" lon="16.791172">
        <ele>215.620081</ele>
        <time>2020-09-18T10:56:52.916Z</time>
      </trkpt>
      <trkpt lat="48.603676" lon="16.791001">
        <ele>215.638676</ele>
        <time>2020-09-18T10:56:54.920Z</time>
      </trkpt>
      <trkpt lat="48.603697" lon="16.790835">
        <ele>215.656851</ele>
        <time>2020-09-18T10:56:56.928Z</time>
      </trkpt>
      <trkpt lat="48.603716" lon="16.790677">
        <ele>215.674120</ele>
        <time>2020-09-18T10:56:58.905Z</time>
      </trkpt>
      <trkpt lat="48.603738" lon="16.790524">
        <ele>215.690958</ele>
        <time>2020-09-18T10:57:00.932Z</time>
      </trkpt>
      <trkpt lat="48.603762" lon="16.790369">
        <ele>215.708077</ele>
        <time>2020-09-18T10:57:02.930Z</time>
      </trkpt>
      <trkpt lat="48.603786" lon="16.790213">
        <ele>215.725300</ele>
        <time>2020-09-18T10:57:04.908Z</time>
      </trkpt>
      <trkpt lat="48.603813" lon="16.790060">
        <ele>215.742329</ele>
        <time>2020-09-18T10:57:06.917Z</time>
      </trkpt>
      <trkpt lat="48.603838" lon="16.789909">
        <ele>215.759068</ele>
        <time>2020-09-18T10:57:08.920Z</time>
      </trkpt>
      <trkpt lat="48.603868" lon="16.789756">
        <ele>215.776229</ele>
        <time>2020-09-18T10:57:10.922Z</time>
      </trkpt>
      <trkpt lat="48.603895" lon="16.789610">
        <ele>215.792532</ele>
        <time>2020-09-18T10:57:12.907Z</time>
      </trkpt>
      <trkpt lat="48.603920" lon="16.789470">
        <ele>215.808126</ele>
        <time>2020-09-18T10:57:14.902Z</time>
      </trkpt>
      <trkpt lat="48.603950" lon="16.789333">
        <ele>215.823645</ele>
        <time>2020-09-18T10:57:16.926Z</time>
      </trkpt>
      <trkpt lat="48.603978" lon="16.789198">
        <ele>215.839244</ele>
        <time>2020-09-18T10:57:18.922Z</time>
      </trkpt>
      <trkpt lat="48.604004" lon="16.789065">
        <ele>215.855228</ele>
        <time>2020-09-18T10:57:20.919Z</time>
      </trkpt>
      <trkpt lat="48.604032" lon="16.788928">
        <ele>215.871755</ele>
        <time>2020-09-18T10:57:22.894Z</time>
      </trkpt>
      <trkpt lat="48.604059" lon="16.788797">
        <ele>215.887569</ele>
        <time>2020-09-18T10:57:24.899Z</time>
      </trkpt>
      <trkpt lat="48.604100" lon="16.788606">
        <ele>215.910713</ele>
        <time>2020-09-18T10:57:27.937Z</time>
      </trkpt>
      <trkpt lat="48.604142" lon="16.788421">
        <ele>215.933256</ele>
        <time>2020-09-18T10:57:30.900Z</time>
      </trkpt>
      <trkpt lat="48.604183" lon="16.788239">
        <ele>215.955416</ele>
        <time>2020-09-18T10:57:33.906Z</time>
      </trkpt>
      <trkpt lat="48.604219" lon="16.788058">
        <ele>215.977200</ele>
        <time>2020-09-18T10:57:36.893Z</time>
      </trkpt>
      <trkpt lat="48.604264" lon="16.787888">
        <ele>215.998304</ele>
        <time>2020-09-18T10:57:39.923Z</time>
      </trkpt>
      <trkpt lat="48.604305" lon="16.787732">
        <ele>216.017652</ele>
        <time>2020-09-18T10:57:42.907Z</time>
      </trkpt>
      <trkpt lat="48.604347" lon="16.787590">
        <ele>216.035580</ele>
        <time>2020-09-18T10:57:45.898Z</time>
      </trkpt>
      <trkpt lat="48.604393" lon="16.787429">
        <ele>216.055794</ele>
        <time>2020-09-18T10:57:49.905Z</time>
      </trkpt>
      <trkpt lat="48.604322" lon="16.787318">
        <ele>216.073592</ele>
        <time>2020-09-18T10:57:53.900Z</time>
      </trkpt>
      <trkpt lat="48.604223" lon="16.787280">
        <ele>216.091394</ele>
        <time>2020-09-18T10:57:56.913Z</time>
      </trkpt>
      <trkpt lat="48.604104" lon="16.787233">
        <ele>216.112831</ele>
        <time>2020-09-18T10:57:59.899Z</time>
      </trkpt>
      <trkpt lat="48.604009" lon="16.787200">
        <ele>216.129820</ele>
        <time>2020-09-18T10:58:01.904Z</time>
      </trkpt>
      <trkpt lat="48.603901" lon="16.787164">
        <ele>216.154204</ele>
        <time>2020-09-18T10:58:03.913Z</time>
      </trkpt>
      <trkpt lat="48.603777" lon="16.787124">
        <ele>216.230295</ele>
        <time>2020-09-18T10:58:05.914Z</time>
      </trkpt>
      <trkpt lat="48.603646" lon="16.787082">
        <ele>216.310660</ele>
        <time>2020-09-18T10:58:07.903Z</time>
      </trkpt>
      <trkpt lat="48.603512" lon="16.787040">
        <ele>216.392787</ele>
        <time>2020-09-18T10:58:09.901Z</time>
      </trkpt>
      <trkpt lat="48.603380" lon="16.787007">
        <ele>216.473080</ele>
        <time>2020-09-18T10:58:11.910Z</time>
      </trkpt>
      <trkpt lat="48.603254" lon="16.786961">
        <ele>216.550869</ele>
        <time>2020-09-18T10:58:13.897Z</time>
      </trkpt>
      <trkpt lat="48.603129" lon="16.786913">
        <ele>216.628267</ele>
        <time>2020-09-18T10:58:15.908Z</time>
      </trkpt>
      <trkpt lat="48.603006" lon="16.786879">
        <ele>216.703306</ele>
        <time>2020-09-18T10:58:17.925Z</time>
      </trkpt>
      <trkpt lat="48.602885" lon="16.786839">
        <ele>216.777638</ele>
        <time>2020-09-18T10:58:19.896Z</time>
      </trkpt>
      <trkpt lat="48.602764" lon="16.786807">
        <ele>216.851356</ele>
        <time>2020-09-18T10:58:21.894Z</time>
      </trkpt>
      <trkpt lat="48.602643" lon="16.786772">
        <ele>216.925289</ele>
        <time>2020-09-18T10:58:23.903Z</time>
      </trkpt>
      <trkpt lat="48.602528" lon="16.786740">
        <ele>216.995463</ele>
        <time>2020-09-18T10:58:25.919Z</time>
      </trkpt>
      <trkpt lat="48.602418" lon="16.786701">
        <ele>217.063268</ele>
        <time>2020-09-18T10:58:27.900Z</time>
      </trkpt>
      <trkpt lat="48.602308" lon="16.786666">
        <ele>217.130728</ele>
        <time>2020-09-18T10:58:29.932Z</time>
      </trkpt>
      <trkpt lat="48.602202" lon="16.786632">
        <ele>217.195758</ele>
        <time>2020-09-18T10:58:31.939Z</time>
      </trkpt>
      <trkpt lat="48.602096" lon="16.786592">
        <ele>217.259355</ele>
        <time>2020-09-18T10:58:33.934Z</time>
      </trkpt>
      <trkpt lat="48.601991" lon="16.786531">
        <ele>217.323051</ele>
        <time>2020-09-18T10:58:35.924Z</time>
      </trkpt>
      <trkpt lat="48.601891" lon="16.786464">
        <ele>217.384989</ele>
        <time>2020-09-18T10:58:37.908Z</time>
      </trkpt>
      <trkpt lat="48.601792" lon="16.786400">
        <ele>217.445959</ele>
        <time>2020-09-18T10:58:39.914Z</time>
      </trkpt>
      <trkpt lat="48.601695" lon="16.786342">
        <ele>217.505026</ele>
        <time>2020-09-18T10:58:41.899Z</time>
      </trkpt>
      <trkpt lat="48.601591" lon="16.786297">
        <ele>217.566283</ele>
        <time>2020-09-18T10:58:43.893Z</time>
      </trkpt>
      <trkpt lat="48.601483" lon="16.786255">
        <ele>217.629432</ele>
        <time>2020-09-18T10:58:45.905Z</time>
      </trkpt>
      <trkpt lat="48.601378" lon="16.786206">
        <ele>217.691658</ele>
        <time>2020-09-18T10:58:47.888Z</time>
      </trkpt>
      <trkpt lat="48.601296" lon="16.786105">
        <ele>217.751548</ele>
        <time>2020-09-18T10:58:49.890Z</time>
      </trkpt>
      <trkpt lat="48.601275" lon="16.785938">
        <ele>217.815206</ele>
        <time>2020-09-18T10:58:51.913Z</time>
      </trkpt>
      <trkpt lat="48.601307" lon="16.785793">
        <ele>217.872450</ele>
        <time>2020-09-18T10:58:53.913Z</time>
      </trkpt>
      <trkpt lat="48.601345" lon="16.785649">
        <ele>217.930510</ele>
        <time>2020-09-18T10:58:55.906Z</time>
      </trkpt>
      <trkpt lat="48.601385" lon="16.785515">
        <ele>217.985566</ele>
        <time>2020-09-18T10:58:57.899Z</time>
      </trkpt>
      <trkpt lat="48.601423" lon="16.785379">
        <ele>218.040854</ele>
        <time>2020-09-18T10:58:59.894Z</time>
      </trkpt>
      <trkpt lat="48.601458" lon="16.785245">
        <ele>218.094807</ele>
        <time>2020-09-18T10:59:01.916Z</time>
      </trkpt>
      <trkpt lat="48.601507" lon="16.785058">
        <ele>218.170131</ele>
        <time>2020-09-18T10:59:04.904Z</time>
      </trkpt>
      <trkpt lat="48.601558" lon="16.784870">
        <ele>218.244533</ele>
        <time>2020-09-18T10:59:07.928Z</time>
      </trkpt>
      <trkpt lat="48.601598" lon="16.784735">
        <ele>218.225088</ele>
        <time>2020-09-18T10:59:09.929Z</time>
      </trkpt>
      <trkpt lat="48.601640" lon="16.784598">
        <ele>218.205238</ele>
        <time>2020-09-18T10:59:11.923Z</time>
      </trkpt>
      <trkpt lat="48.601682" lon="16.784472">
        <ele>218.186691</ele>
        <time>2020-09-18T10:59:13.903Z</time>
      </trkpt>
      <trkpt lat="48.601724" lon="16.784345">
        <ele>218.168026</ele>
        <time>2020-09-18T10:59:15.919Z</time>
      </trkpt>
      <trkpt lat="48.601759" lon="16.784206">
        <ele>218.148475</ele>
        <time>2020-09-18T10:59:17.903Z</time>
      </trkpt>
      <trkpt lat="48.601789" lon="16.784068">
        <ele>218.129380</ele>
        <time>2020-09-18T10:59:19.908Z</time>
      </trkpt>
      <trkpt lat="48.601810" lon="16.783925">
        <ele>218.110125</ele>
        <time>2020-09-18T10:59:21.914Z</time>
      </trkpt>
      <trkpt lat="48.601835" lon="16.783784">
        <ele>218.090936</ele>
        <time>2020-09-18T10:59:23.919Z</time>
      </trkpt>
      <trkpt lat="48.601869" lon="16.783614">
        <ele>218.067591</ele>
        <time>2020-09-18T10:59:26.934Z</time>
      </trkpt>
      <trkpt lat="48.601822" lon="16.783479">
        <ele>218.047536</ele>
        <time>2020-09-18T10:59:30.894Z</time>
      </trkpt>
      <trkpt lat="48.601713" lon="16.783419">
        <ele>218.024479</ele>
        <time>2020-09-18T10:59:33.903Z</time>
      </trkpt>
      <trkpt lat="48.601600" lon="16.783374">
        <ele>218.001252</ele>
        <time>2020-09-18T10:59:36.912Z</time>
      </trkpt>
      <trkpt lat="48.601490" lon="16.783321">
        <ele>217.978303</ele>
        <time>2020-09-18T10:59:39.923Z</time>
      </trkpt>
      <trkpt lat="48.601372" lon="16.783257">
        <ele>217.953385</ele>
        <time>2020-09-18T10:59:42.919Z</time>
      </trkpt>
      <trkpt lat="48.601253" lon="16.783184">
        <ele>217.927858</ele>
        <time>2020-09-18T10:59:45.899Z</time>
      </trkpt>
      <trkpt lat="48.601131" lon="16.783119">
        <ele>217.902147</ele>
        <time>2020-09-18T10:59:48.925Z</time>
      </trkpt>
      <trkpt lat="48.601012" lon="16.783054">
        <ele>217.928141</ele>
        <time>2020-09-18T10:59:51.900Z</time>
      </trkpt>
      <trkpt lat="48.600893" lon="16.782984">
        <ele>218.026962</ele>
        <time>2020-09-18T10:59:54.918Z</time>
      </trkpt>
      <trkpt lat="48.600779" lon="16.782916">
        <ele>218.121806</ele>
        <time>2020-09-18T10:59:57.927Z</time>
      </trkpt>
      <trkpt lat="48.600667" lon="16.782834">
        <ele>218.218112</ele>
        <time>2020-09-18T11:00:00.943Z</time>
      </trkpt>
      <trkpt lat="48.600552" lon="16.782776">
        <ele>218.311935</ele>
        <time>2020-09-18T11:00:03.942Z</time>
      </trkpt>
      <trkpt lat="48.600439" lon="16.782738">
        <ele>218.401526</ele>
        <time>2020-09-18T11:00:06.908Z</time>
      </trkpt>
      <trkpt lat="48.600327" lon="16.782721">
        <ele>218.488642</ele>
        <time>2020-09-18T11:00:09.926Z</time>
      </trkpt>
      <trkpt lat="48.600211" lon="16.782716">
        <ele>218.578455</ele>
        <time>2020-09-18T11:00:12.922Z</time>
      </trkpt>
      <trkpt lat="48.600102" lon="16.782705">
        <ele>218.663001</ele>
        <time>2020-09-18T11:00:15.924Z</time>
      </trkpt>
      <trkpt lat="48.599995" lon="16.782696">
        <ele>218.745940</ele>
        <time>2020-09-18T11:00:18.889Z</time>
      </trkpt>
      <trkpt lat="48.599895" lon="16.782698">
        <ele>218.823341</ele>
        <time>2020-09-18T11:00:21.930Z</time>
      </trkpt>
      <trkpt lat="48.599789" lon="16.782716">
        <ele>218.905893</ele>
        <time>2020-09-18T11:00:24.930Z</time>
      </trkpt>
      <trkpt lat="48.599686" lon="16.782745">
        <ele>218.986979</ele>
        <time>2020-09-18T11:00:27.904Z</time>
      </trkpt>
      <trkpt lat="48.599585" lon="16.782785">
        <ele>219.067783</ele>
        <time>2020-09-18T11:00:30.912Z</time>
      </trkpt>
      <trkpt lat="48.599485" lon="16.782834">
        <ele>219.149138</ele>
        <time>2020-09-18T11:00:33.922Z</time>
      </trkpt>
      <trkpt lat="48.599378" lon="16.782853">
        <ele>219.232518</ele>
        <time>2020-09-18T11:00:36.945Z</time>
      </trkpt>
      <trkpt lat="48.599274" lon="16.782893">
        <ele>219.359420</ele>
        <time>2020-09-18T11:00:39.907Z</time>
      </trkpt>
      <trkpt lat="48.599166" lon="16.782938">
        <ele>219.551461</ele>
        <time>2020-09-18T11:00:42.922Z</time>
      </trkpt>
      <trkpt lat="48.599061" lon="16.782954">
        <ele>219.732371</ele>
        <time>2020-09-18T11:00:45.899Z</time>
      </trkpt>
      <trkpt lat="48.598955" lon="16.782941">
        <ele>219.914680</ele>
        <time>2020-09-18T11:00:48.940Z</time>
      </trkpt>
      <trkpt lat="48.598839" lon="16.782926">
        <ele>220.114261</ele>
        <time>2020-09-18T11:00:51.925Z</time>
      </trkpt>
      <trkpt lat="48.598715" lon="16.782882">
        <ele>220.332604</ele>
        <time>2020-09-18T11:00:54.922Z</time>
      </trkpt>
      <trkpt lat="48.598599" lon="16.782841">
        <ele>220.536820</ele>
        <time>2020-09-18T11:00:57.902Z</time>
      </trkpt>
      <trkpt lat="48.598489" lon="16.782814">
        <ele>220.727858</ele>
        <time>2020-09-18T11:01:00.935Z</time>
      </trkpt>
      <trkpt lat="48.598387" lon="16.782794">
        <ele>220.904177</ele>
        <time>2020-09-18T11:01:03.901Z</time>
      </trkpt>
      <trkpt lat="48.598284" lon="16.782774">
        <ele>221.082197</ele>
        <time>2020-09-18T11:01:06.903Z</time>
      </trkpt>
      <trkpt lat="48.598187" lon="16.782751">
        <ele>221.250513</ele>
        <time>2020-09-18T11:01:09.896Z</time>
      </trkpt>
      <trkpt lat="48.598080" lon="16.782733">
        <ele>221.435071</ele>
        <time>2020-09-18T11:01:13.935Z</time>
      </trkpt>
      <trkpt lat="48.597983" lon="16.782698">
        <ele>221.606024</ele>
        <time>2020-09-18T11:01:17.918Z</time>
      </trkpt>
      <trkpt lat="48.597880" lon="16.782689">
        <ele>221.782888</ele>
        <time>2020-09-18T11:01:20.926Z</time>
      </trkpt>
      <trkpt lat="48.597773" lon="16.782682">
        <ele>221.966487</ele>
        <time>2020-09-18T11:01:23.915Z</time>
      </trkpt>
      <trkpt lat="48.597659" lon="16.782680">
        <ele>222.161926</ele>
        <time>2020-09-18T11:01:26.900Z</time>
      </trkpt>
      <trkpt lat="48.597525" lon="16.782683">
        <ele>222.387779</ele>
        <time>2020-09-18T11:01:29.910Z</time>
      </trkpt>
      <trkpt lat="48.597430" lon="16.782683">
        <ele>222.528686</ele>
        <time>2020-09-18T11:01:31.926Z</time>
      </trkpt>
      <trkpt lat="48.597332" lon="16.782687">
        <ele>222.674096</ele>
        <time>2020-09-18T11:01:33.937Z</time>
      </trkpt>
      <trkpt lat="48.597236" lon="16.782697">
        <ele>222.816824</ele>
        <time>2020-09-18T11:01:35.935Z</time>
      </trkpt>
      <trkpt lat="48.597139" lon="16.782702">
        <ele>222.960781</ele>
        <time>2020-09-18T11:01:37.934Z</time>
      </trkpt>
      <trkpt lat="48.597040" lon="16.782698">
        <ele>223.107674</ele>
        <time>2020-09-18T11:01:39.930Z</time>
      </trkpt>
      <trkpt lat="48.596940" lon="16.782695">
        <ele>223.256026</ele>
        <time>2020-09-18T11:01:41.908Z</time>
      </trkpt>
      <trkpt lat="48.596841" lon="16.782703">
        <ele>223.403076</ele>
        <time>2020-09-18T11:01:43.907Z</time>
      </trkpt>
      <trkpt lat="48.596748" lon="16.782705">
        <ele>223.541031</ele>
        <time>2020-09-18T11:01:45.933Z</time>
      </trkpt>
      <trkpt lat="48.596648" lon="16.782711">
        <ele>223.689471</ele>
        <time>2020-09-18T11:01:47.944Z</time>
      </trkpt>
      <trkpt lat="48.596547" lon="16.782707">
        <ele>223.839329</ele>
        <time>2020-09-18T11:01:49.896Z</time>
      </trkpt>
      <trkpt lat="48.596447" lon="16.782700">
        <ele>223.987811</ele>
        <time>2020-09-18T11:01:51.908Z</time>
      </trkpt>
      <trkpt lat="48.596345" lon="16.782688">
        <ele>224.139558</ele>
        <time>2020-09-18T11:01:53.902Z</time>
      </trkpt>
      <trkpt lat="48.596236" lon="16.782667">
        <ele>224.302538</ele>
        <time>2020-09-18T11:01:55.897Z</time>
      </trkpt>
      <trkpt lat="48.596115" lon="16.782623">
        <ele>224.487126</ele>
        <time>2020-09-18T11:01:57.938Z</time>
      </trkpt>
      <trkpt lat="48.595981" lon="16.782569">
        <ele>224.692818</ele>
        <time>2020-09-18T11:01:59.924Z</time>
      </trkpt>
      <trkpt lat="48.595843" lon="16.782491">
        <ele>224.911338</ele>
        <time>2020-09-18T11:02:01.913Z</time>
      </trkpt>
      <trkpt lat="48.595701" lon="16.782400">
        <ele>225.067180</ele>
        <time>2020-09-18T11:02:03.908Z</time>
      </trkpt>
      <trkpt lat="48.595555" lon="16.782296">
        <ele>225.147084</ele>
        <time>2020-09-18T11:02:05.894Z</time>
      </trkpt>
      <trkpt lat="48.595404" lon="16.782184">
        <ele>225.230354</ele>
        <time>2020-09-18T11:02:07.902Z</time>
      </trkpt>
      <trkpt lat="48.595249" lon="16.782050">
        <ele>225.318752</ele>
        <time>2020-09-18T11:02:09.924Z</time>
      </trkpt>
      <trkpt lat="48.595166" lon="16.781982">
        <ele>225.365490</ele>
        <time>2020-09-18T11:02:10.895Z</time>
      </trkpt>
      <trkpt lat="48.595082" lon="16.781902">
        <ele>225.414641</ele>
        <time>2020-09-18T11:02:11.904Z</time>
      </trkpt>
      <trkpt lat="48.594988" lon="16.781836">
        <ele>225.465953</ele>
        <time>2020-09-18T11:02:12.894Z</time>
      </trkpt>
      <trkpt lat="48.594903" lon="16.781741">
        <ele>225.518285</ele>
        <time>2020-09-18T11:02:13.901Z</time>
      </trkpt>
      <trkpt lat="48.594828" lon="16.781627">
        <ele>225.570937</ele>
        <time>2020-09-18T11:02:14.902Z</time>
      </trkpt>
      <trkpt lat="48.594749" lon="16.781517">
        <ele>225.624109</ele>
        <time>2020-09-18T11:02:15.953Z</time>
      </trkpt>
      <trkpt lat="48.594661" lon="16.781427">
        <ele>225.676708</ele>
        <time>2020-09-18T11:02:16.918Z</time>
      </trkpt>
      <trkpt lat="48.594574" lon="16.781346">
        <ele>225.727293</ele>
        <time>2020-09-18T11:02:17.899Z</time>
      </trkpt>
      <trkpt lat="48.594491" lon="16.781271">
        <ele>225.775165</ele>
        <time>2020-09-18T11:02:18.914Z</time>
      </trkpt>
      <trkpt lat="48.594413" lon="16.781191">
        <ele>225.821829</ele>
        <time>2020-09-18T11:02:19.904Z</time>
      </trkpt>
      <trkpt lat="48.594254" lon="16.781079">
        <ele>225.908673</ele>
        <time>2020-09-18T11:02:21.940Z</time>
      </trkpt>
      <trkpt lat="48.594088" lon="16.781038">
        <ele>226.269914</ele>
        <time>2020-09-18T11:02:23.919Z</time>
      </trkpt>
      <trkpt lat="48.593935" lon="16.780991">
        <ele>226.650688</ele>
        <time>2020-09-18T11:02:25.913Z</time>
      </trkpt>
      <trkpt lat="48.593794" lon="16.780928">
        <ele>227.009273</ele>
        <time>2020-09-18T11:02:27.910Z</time>
      </trkpt>
      <trkpt lat="48.593661" lon="16.780869">
        <ele>227.347318</ele>
        <time>2020-09-18T11:02:29.892Z</time>
      </trkpt>
      <trkpt lat="48.593539" lon="16.780805">
        <ele>227.662264</ele>
        <time>2020-09-18T11:02:31.923Z</time>
      </trkpt>
      <trkpt lat="48.593423" lon="16.780753">
        <ele>227.957347</ele>
        <time>2020-09-18T11:02:33.911Z</time>
      </trkpt>
      <trkpt lat="48.593309" lon="16.780705">
        <ele>228.245961</ele>
        <time>2020-09-18T11:02:35.927Z</time>
      </trkpt>
      <trkpt lat="48.593205" lon="16.780653">
        <ele>228.513115</ele>
        <time>2020-09-18T11:02:37.924Z</time>
      </trkpt>
      <trkpt lat="48.593108" lon="16.780604">
        <ele>228.762542</ele>
        <time>2020-09-18T11:02:39.914Z</time>
      </trkpt>
      <trkpt lat="48.593014" lon="16.780560">
        <ele>229.002533</ele>
        <time>2020-09-18T11:02:41.900Z</time>
      </trkpt>
      <trkpt lat="48.592927" lon="16.780521">
        <ele>229.223846</ele>
        <time>2020-09-18T11:02:43.912Z</time>
      </trkpt>
      <trkpt lat="48.592809" lon="16.780459">
        <ele>229.528518</ele>
        <time>2020-09-18T11:02:46.939Z</time>
      </trkpt>
      <trkpt lat="48.592699" lon="16.780389">
        <ele>229.819590</ele>
        <time>2020-09-18T11:02:49.929Z</time>
      </trkpt>
      <trkpt lat="48.592585" lon="16.780322">
        <ele>230.117891</ele>
        <time>2020-09-18T11:02:52.940Z</time>
      </trkpt>
      <trkpt lat="48.592472" lon="16.780268">
        <ele>230.439635</ele>
        <time>2020-09-18T11:02:55.918Z</time>
      </trkpt>
      <trkpt lat="48.592362" lon="16.780229">
        <ele>230.806159</ele>
        <time>2020-09-18T11:02:58.911Z</time>
      </trkpt>
      <trkpt lat="48.592253" lon="16.780207">
        <ele>231.162895</ele>
        <time>2020-09-18T11:03:01.916Z</time>
      </trkpt>
      <trkpt lat="48.592160" lon="16.780188">
        <ele>231.467332</ele>
        <time>2020-09-18T11:03:04.909Z</time>
      </trkpt>
      <trkpt lat="48.592040" lon="16.780174">
        <ele>231.857774</ele>
        <time>2020-09-18T11:03:08.903Z</time>
      </trkpt>
      <trkpt lat="48.591945" lon="16.780180">
        <ele>232.166226</ele>
        <time>2020-09-18T11:03:11.913Z</time>
      </trkpt>
      <trkpt lat="48.591851" lon="16.780194">
        <ele>232.472641</ele>
        <time>2020-09-18T11:03:14.936Z</time>
      </trkpt>
      <trkpt lat="48.591736" lon="16.780213">
        <ele>232.847926</ele>
        <time>2020-09-18T11:03:18.900Z</time>
      </trkpt>
      <trkpt lat="48.591626" lon="16.780235">
        <ele>233.207879</ele>
        <time>2020-09-18T11:03:22.903Z</time>
      </trkpt>
      <trkpt lat="48.591513" lon="16.780253">
        <ele>233.576484</ele>
        <time>2020-09-18T11:03:26.909Z</time>
      </trkpt>
      <trkpt lat="48.591411" lon="16.780258">
        <ele>233.907549</ele>
        <time>2020-09-18T11:03:30.890Z</time>
      </trkpt>
      <trkpt lat="48.591292" lon="16.780287">
        <ele>234.298572</ele>
        <time>2020-09-18T11:03:34.929Z</time>
      </trkpt>
      <trkpt lat="48.591199" lon="16.780312">
        <ele>234.604999</ele>
        <time>2020-09-18T11:03:37.905Z</time>
      </trkpt>
      <trkpt lat="48.591109" lon="16.780329">
        <ele>234.899232</ele>
        <time>2020-09-18T11:03:40.892Z</time>
      </trkpt>
      <trkpt lat="48.590999" lon="16.780341">
        <ele>235.257003</ele>
        <time>2020-09-18T11:03:44.898Z</time>
      </trkpt>
      <trkpt lat="48.590879" lon="16.780364">
        <ele>235.649403</ele>
        <time>2020-09-18T11:03:48.942Z</time>
      </trkpt>
      <trkpt lat="48.590783" lon="16.780387">
        <ele>235.964717</ele>
        <time>2020-09-18T11:03:51.913Z</time>
      </trkpt>
      <trkpt lat="48.590688" lon="16.780409">
        <ele>236.262435</ele>
        <time>2020-09-18T11:03:54.924Z</time>
      </trkpt>
      <trkpt lat="48.590590" lon="16.780420">
        <ele>236.547726</ele>
        <time>2020-09-18T11:03:57.914Z</time>
      </trkpt>
      <trkpt lat="48.590487" lon="16.780430">
        <ele>236.847366</ele>
        <time>2020-09-18T11:04:00.897Z</time>
      </trkpt>
      <trkpt lat="48.590364" lon="16.780439">
        <ele>237.204871</ele>
        <time>2020-09-18T11:04:03.940Z</time>
      </trkpt>
      <trkpt lat="48.590231" lon="16.780444">
        <ele>237.591109</ele>
        <time>2020-09-18T11:04:06.930Z</time>
      </trkpt>
      <trkpt lat="48.590137" lon="16.780440">
        <ele>237.864112</ele>
        <time>2020-09-18T11:04:08.917Z</time>
      </trkpt>
      <trkpt lat="48.590034" lon="16.780443">
        <ele>238.163192</ele>
        <time>2020-09-18T11:04:10.913Z</time>
      </trkpt>
      <trkpt lat="48.589922" lon="16.780445">
        <ele>238.488367</ele>
        <time>2020-09-18T11:04:12.903Z</time>
      </trkpt>
      <trkpt lat="48.589807" lon="16.780446">
        <ele>238.822234</ele>
        <time>2020-09-18T11:04:14.902Z</time>
      </trkpt>
      <trkpt lat="48.589695" lon="16.780443">
        <ele>239.147437</ele>
        <time>2020-09-18T11:04:16.908Z</time>
      </trkpt>
      <trkpt lat="48.589580" lon="16.780444">
        <ele>239.481304</ele>
        <time>2020-09-18T11:04:18.925Z</time>
      </trkpt>
      <trkpt lat="48.589464" lon="16.780447">
        <ele>239.818118</ele>
        <time>2020-09-18T11:04:20.896Z</time>
      </trkpt>
      <trkpt lat="48.589350" lon="16.780454">
        <ele>240.149350</ele>
        <time>2020-09-18T11:04:22.944Z</time>
      </trkpt>
      <trkpt lat="48.589237" lon="16.780458">
        <ele>240.477495</ele>
        <time>2020-09-18T11:04:24.925Z</time>
      </trkpt>
      <trkpt lat="48.589129" lon="16.780472">
        <ele>240.792185</ele>
        <time>2020-09-18T11:04:26.915Z</time>
      </trkpt>
      <trkpt lat="48.589027" lon="16.780485">
        <ele>241.089356</ele>
        <time>2020-09-18T11:04:28.918Z</time>
      </trkpt>
      <trkpt lat="48.588934" lon="16.780497">
        <ele>241.360330</ele>
        <time>2020-09-18T11:04:30.913Z</time>
      </trkpt>
      <trkpt lat="48.588804" lon="16.780518">
        <ele>241.585654</ele>
        <time>2020-09-18T11:04:33.896Z</time>
      </trkpt>
      <trkpt lat="48.588674" lon="16.780536">
        <ele>241.808960</ele>
        <time>2020-09-18T11:04:36.911Z</time>
      </trkpt>
      <trkpt lat="48.588545" lon="16.780546">
        <ele>242.029916</ele>
        <time>2020-09-18T11:04:39.922Z</time>
      </trkpt>
      <trkpt lat="48.588418" lon="16.780554">
        <ele>242.247349</ele>
        <time>2020-09-18T11:04:42.899Z</time>
      </trkpt>
      <trkpt lat="48.588296" lon="16.780563">
        <ele>242.456288</ele>
        <time>2020-09-18T11:04:45.914Z</time>
      </trkpt>
      <trkpt lat="48.588179" lon="16.780579">
        <ele>242.657244</ele>
        <time>2020-09-18T11:04:48.902Z</time>
      </trkpt>
      <trkpt lat="48.588058" lon="16.780592">
        <ele>242.864747</ele>
        <time>2020-09-18T11:04:51.909Z</time>
      </trkpt>
      <trkpt lat="48.587934" lon="16.780615">
        <ele>243.078450</ele>
        <time>2020-09-18T11:04:54.898Z</time>
      </trkpt>
      <trkpt lat="48.587812" lon="16.780636">
        <ele>243.288490</ele>
        <time>2020-09-18T11:04:57.926Z</time>
      </trkpt>
      <trkpt lat="48.587685" lon="16.780654">
        <ele>243.506687</ele>
        <time>2020-09-18T11:05:00.916Z</time>
      </trkpt>
      <trkpt lat="48.587563" lon="16.780668">
        <ele>243.715978</ele>
        <time>2020-09-18T11:05:03.915Z</time>
      </trkpt>
      <trkpt lat="48.587443" lon="16.780679">
        <ele>243.921626</ele>
        <time>2020-09-18T11:05:06.898Z</time>
      </trkpt>
      <trkpt lat="48.587324" lon="16.780683">
        <ele>244.125236</ele>
        <time>2020-09-18T11:05:09.917Z</time>
      </trkpt>
      <trkpt lat="48.587205" lon="16.780676">
        <ele>244.328949</ele>
        <time>2020-09-18T11:05:12.908Z</time>
      </trkpt>
      <trkpt lat="48.587080" lon="16.780659">
        <ele>244.540495</ele>
        <time>2020-09-18T11:05:15.911Z</time>
      </trkpt>
      <trkpt lat="48.586954" lon="16.780641">
        <ele>244.750353</ele>
        <time>2020-09-18T11:05:18.905Z</time>
      </trkpt>
      <trkpt lat="48.586825" lon="16.780615">
        <ele>244.966147</ele>
        <time>2020-09-18T11:05:21.901Z</time>
      </trkpt>
      <trkpt lat="48.586695" lon="16.780595">
        <ele>245.182821</ele>
        <time>2020-09-18T11:05:24.918Z</time>
      </trkpt>
      <trkpt lat="48.586566" lon="16.780573">
        <ele>245.398079</ele>
        <time>2020-09-18T11:05:27.909Z</time>
      </trkpt>
      <trkpt lat="48.586437" lon="16.780550">
        <ele>245.613464</ele>
        <time>2020-09-18T11:05:30.916Z</time>
      </trkpt>
      <trkpt lat="48.586306" lon="16.780529">
        <ele>245.831900</ele>
        <time>2020-09-18T11:05:33.932Z</time>
      </trkpt>
      <trkpt lat="48.586179" lon="16.780518">
        <ele>246.042830</ele>
        <time>2020-09-18T11:05:36.904Z</time>
      </trkpt>
      <trkpt lat="48.586089" lon="16.780504">
        <ele>246.192852</ele>
        <time>2020-09-18T11:05:38.908Z</time>
      </trkpt>
      <trkpt lat="48.585961" lon="16.780479">
        <ele>246.406860</ele>
        <time>2020-09-18T11:05:41.915Z</time>
      </trkpt>
      <trkpt lat="48.585833" lon="16.780460">
        <ele>246.620124</ele>
        <time>2020-09-18T11:05:44.897Z</time>
      </trkpt>
      <trkpt lat="48.585714" lon="16.780445">
        <ele>246.818129</ele>
        <time>2020-09-18T11:05:47.921Z</time>
      </trkpt>
      <trkpt lat="48.585598" lon="16.780428">
        <ele>247.011377</ele>
        <time>2020-09-18T11:05:50.891Z</time>
      </trkpt>
      <trkpt lat="48.585479" lon="16.780411">
        <ele>247.209576</ele>
        <time>2020-09-18T11:05:53.904Z</time>
      </trkpt>
      <trkpt lat="48.585367" lon="16.780390">
        <ele>247.396712</ele>
        <time>2020-09-18T11:05:56.928Z</time>
      </trkpt>
      <trkpt lat="48.585251" lon="16.780384">
        <ele>247.613849</ele>
        <time>2020-09-18T11:05:59.915Z</time>
      </trkpt>
      <trkpt lat="48.585140" lon="16.780363">
        <ele>247.826984</ele>
        <time>2020-09-18T11:06:02.899Z</time>
      </trkpt>
      <trkpt lat="48.585029" lon="16.780340">
        <ele>248.040447</ele>
        <time>2020-09-18T11:06:05.901Z</time>
      </trkpt>
      <trkpt lat="48.584920" lon="16.780322">
        <ele>248.249357</ele>
        <time>2020-09-18T11:06:08.910Z</time>
      </trkpt>
      <trkpt lat="48.584809" lon="16.780303">
        <ele>248.462194</ele>
        <time>2020-09-18T11:06:11.886Z</time>
      </trkpt>
      <trkpt lat="48.584698" lon="16.780282">
        <ele>248.675330</ele>
        <time>2020-09-18T11:06:14.917Z</time>
      </trkpt>
      <trkpt lat="48.584591" lon="16.780266">
        <ele>248.880189</ele>
        <time>2020-09-18T11:06:17.899Z</time>
      </trkpt>
      <trkpt lat="48.584481" lon="16.780250">
        <ele>249.090737</ele>
        <time>2020-09-18T11:06:20.888Z</time>
      </trkpt>
      <trkpt lat="48.584369" lon="16.780228">
        <ele>249.305922</ele>
        <time>2020-09-18T11:06:23.916Z</time>
      </trkpt>
      <trkpt lat="48.584257" lon="16.780217">
        <ele>249.519762</ele>
        <time>2020-09-18T11:06:26.912Z</time>
      </trkpt>
      <trkpt lat="48.584144" lon="16.780198">
        <ele>249.736386</ele>
        <time>2020-09-18T11:06:29.935Z</time>
      </trkpt>
      <trkpt lat="48.584026" lon="16.780177">
        <ele>249.962761</ele>
        <time>2020-09-18T11:06:32.918Z</time>
      </trkpt>
      <trkpt lat="48.583908" lon="16.780158">
        <ele>250.188855</ele>
        <time>2020-09-18T11:06:35.890Z</time>
      </trkpt>
      <trkpt lat="48.583785" lon="16.780128">
        <ele>250.426235</ele>
        <time>2020-09-18T11:06:38.915Z</time>
      </trkpt>
      <trkpt lat="48.583654" lon="16.780119">
        <ele>250.676083</ele>
        <time>2020-09-18T11:06:41.908Z</time>
      </trkpt>
      <trkpt lat="48.583563" lon="16.780098">
        <ele>250.851137</ele>
        <time>2020-09-18T11:06:43.905Z</time>
      </trkpt>
      <trkpt lat="48.583473" lon="16.780079">
        <ele>250.965116</ele>
        <time>2020-09-18T11:06:45.939Z</time>
      </trkpt>
      <trkpt lat="48.583382" lon="16.780061">
        <ele>251.080226</ele>
        <time>2020-09-18T11:06:47.915Z</time>
      </trkpt>
      <trkpt lat="48.583291" lon="16.780050">
        <ele>251.194728</ele>
        <time>2020-09-18T11:06:49.927Z</time>
      </trkpt>
      <trkpt lat="48.583162" lon="16.780054">
        <ele>251.356562</ele>
        <time>2020-09-18T11:06:52.904Z</time>
      </trkpt>
      <trkpt lat="48.583071" lon="16.780064">
        <ele>251.471001</ele>
        <time>2020-09-18T11:06:54.922Z</time>
      </trkpt>
      <trkpt lat="48.582976" lon="16.780064">
        <ele>251.590156</ele>
        <time>2020-09-18T11:06:56.932Z</time>
      </trkpt>
      <trkpt lat="48.582882" lon="16.780087">
        <ele>251.709591</ele>
        <time>2020-09-18T11:06:58.919Z</time>
      </trkpt>
      <trkpt lat="48.582788" lon="16.780118">
        <ele>251.830264</ele>
        <time>2020-09-18T11:07:00.903Z</time>
      </trkpt>
      <trkpt lat="48.582691" lon="16.780148">
        <ele>251.954448</ele>
        <time>2020-09-18T11:07:02.918Z</time>
      </trkpt>
      <trkpt lat="48.582589" lon="16.780174">
        <ele>252.084189</ele>
        <time>2020-09-18T11:07:04.913Z</time>
      </trkpt>
      <trkpt lat="48.582487" lon="16.780201">
        <ele>252.214070</ele>
        <time>2020-09-18T11:07:06.915Z</time>
      </trkpt>
      <trkpt lat="48.582381" lon="16.780228">
        <ele>252.348896</ele>
        <time>2020-09-18T11:07:08.913Z</time>
      </trkpt>
      <trkpt lat="48.582273" lon="16.780262">
        <ele>252.487263</ele>
        <time>2020-09-18T11:07:10.892Z</time>
      </trkpt>
      <trkpt lat="48.582164" lon="16.780293">
        <ele>252.626376</ele>
        <time>2020-09-18T11:07:12.898Z</time>
      </trkpt>
      <trkpt lat="48.582054" lon="16.780324">
        <ele>252.766722</ele>
        <time>2020-09-18T11:07:14.893Z</time>
      </trkpt>
      <trkpt lat="48.581942" lon="16.780358">
        <ele>252.910004</ele>
        <time>2020-09-18T11:07:16.900Z</time>
      </trkpt>
      <trkpt lat="48.581832" lon="16.780391">
        <ele>253.050663</ele>
        <time>2020-09-18T11:07:18.890Z</time>
      </trkpt>
      <trkpt lat="48.581726" lon="16.780423">
        <ele>253.114931</ele>
        <time>2020-09-18T11:07:20.936Z</time>
      </trkpt>
      <trkpt lat="48.581619" lon="16.780444">
        <ele>253.129303</ele>
        <time>2020-09-18T11:07:22.919Z</time>
      </trkpt>
      <trkpt lat="48.581508" lon="16.780474">
        <ele>253.144323</ele>
        <time>2020-09-18T11:07:24.900Z</time>
      </trkpt>
      <trkpt lat="48.581394" lon="16.780508">
        <ele>253.159801</ele>
        <time>2020-09-18T11:07:26.933Z</time>
      </trkpt>
      <trkpt lat="48.581277" lon="16.780539">
        <ele>253.175624</ele>
        <time>2020-09-18T11:07:28.902Z</time>
      </trkpt>
      <trkpt lat="48.581154" lon="16.780575">
        <ele>253.192312</ele>
        <time>2020-09-18T11:07:30.897Z</time>
      </trkpt>
      <trkpt lat="48.581017" lon="16.780625">
        <ele>253.211085</ele>
        <time>2020-09-18T11:07:32.903Z</time>
      </trkpt>
      <trkpt lat="48.580864" lon="16.780675">
        <ele>253.231936</ele>
        <time>2020-09-18T11:07:34.906Z</time>
      </trkpt>
      <trkpt lat="48.580690" lon="16.780722">
        <ele>253.255480</ele>
        <time>2020-09-18T11:07:36.936Z</time>
      </trkpt>
      <trkpt lat="48.580599" lon="16.780743">
        <ele>253.267742</ele>
        <time>2020-09-18T11:07:37.927Z</time>
      </trkpt>
      <trkpt lat="48.580505" lon="16.780774">
        <ele>253.280558</ele>
        <time>2020-09-18T11:07:38.918Z</time>
      </trkpt>
      <trkpt lat="48.580405" lon="16.780794">
        <ele>253.293994</ele>
        <time>2020-09-18T11:07:39.899Z</time>
      </trkpt>
      <trkpt lat="48.580304" lon="16.780831">
        <ele>253.307837</ele>
        <time>2020-09-18T11:07:40.940Z</time>
      </trkpt>
      <trkpt lat="48.580197" lon="16.780855">
        <ele>253.322246</ele>
        <time>2020-09-18T11:07:41.930Z</time>
      </trkpt>
      <trkpt lat="48.580092" lon="16.780894">
        <ele>253.336648</ele>
        <time>2020-09-18T11:07:42.900Z</time>
      </trkpt>
      <trkpt lat="48.579985" lon="16.780928">
        <ele>253.384439</ele>
        <time>2020-09-18T11:07:43.926Z</time>
      </trkpt>
      <trkpt lat="48.579871" lon="16.780943">
        <ele>253.497640</ele>
        <time>2020-09-18T11:07:44.894Z</time>
      </trkpt>
      <trkpt lat="48.579759" lon="16.780961">
        <ele>253.609062</ele>
        <time>2020-09-18T11:07:45.921Z</time>
      </trkpt>
      <trkpt lat="48.579651" lon="16.780985">
        <ele>253.717050</ele>
        <time>2020-09-18T11:07:46.912Z</time>
      </trkpt>
      <trkpt lat="48.579547" lon="16.781006">
        <ele>253.820846</ele>
        <time>2020-09-18T11:07:47.894Z</time>
      </trkpt>
      <trkpt lat="48.579447" lon="16.781032">
        <ele>253.921224</ele>
        <time>2020-09-18T11:07:48.898Z</time>
      </trkpt>
      <trkpt lat="48.579348" lon="16.781056">
        <ele>254.020412</ele>
        <time>2020-09-18T11:07:49.925Z</time>
      </trkpt>
      <trkpt lat="48.579250" lon="16.781064">
        <ele>254.117501</ele>
        <time>2020-09-18T11:07:50.901Z</time>
      </trkpt>
      <trkpt lat="48.579155" lon="16.781055">
        <ele>254.211664</ele>
        <time>2020-09-18T11:07:51.920Z</time>
      </trkpt>
      <trkpt lat="48.579063" lon="16.781033">
        <ele>254.303808</ele>
        <time>2020-09-18T11:07:52.916Z</time>
      </trkpt>
      <trkpt lat="48.578974" lon="16.781013">
        <ele>254.392819</ele>
        <time>2020-09-18T11:07:53.910Z</time>
      </trkpt>
      <trkpt lat="48.578810" lon="16.780979">
        <ele>254.556576</ele>
        <time>2020-09-18T11:07:55.907Z</time>
      </trkpt>
      <trkpt lat="48.578663" lon="16.780949">
        <ele>254.703316</ele>
        <time>2020-09-18T11:07:57.944Z</time>
      </trkpt>
      <trkpt lat="48.578528" lon="16.780921">
        <ele>254.838117</ele>
        <time>2020-09-18T11:07:59.914Z</time>
      </trkpt>
      <trkpt lat="48.578408" lon="16.780896">
        <ele>254.957950</ele>
        <time>2020-09-18T11:08:01.911Z</time>
      </trkpt>
      <trkpt lat="48.578300" lon="16.780871">
        <ele>255.066035</ele>
        <time>2020-09-18T11:08:03.902Z</time>
      </trkpt>
      <trkpt lat="48.578204" lon="16.780849">
        <ele>255.185321</ele>
        <time>2020-09-18T11:08:05.923Z</time>
      </trkpt>
      <trkpt lat="48.578112" lon="16.780827">
        <ele>255.335747</ele>
        <time>2020-09-18T11:08:07.905Z</time>
      </trkpt>
      <trkpt lat="48.577998" lon="16.780801">
        <ele>255.521939</ele>
        <time>2020-09-18T11:08:10.905Z</time>
      </trkpt>
      <trkpt lat="48.577894" lon="16.780775">
        <ele>255.692180</ele>
        <time>2020-09-18T11:08:13.910Z</time>
      </trkpt>
      <trkpt lat="48.577793" lon="16.780751">
        <ele>255.857296</ele>
        <time>2020-09-18T11:08:16.928Z</time>
      </trkpt>
      <trkpt lat="48.577701" lon="16.780732">
        <ele>256.007255</ele>
        <time>2020-09-18T11:08:19.909Z</time>
      </trkpt>
      <trkpt lat="48.577609" lon="16.780714">
        <ele>256.157073</ele>
        <time>2020-09-18T11:08:22.938Z</time>
      </trkpt>
      <trkpt lat="48.577518" lon="16.780699">
        <ele>256.304908</ele>
        <time>2020-09-18T11:08:25.889Z</time>
      </trkpt>
      <trkpt lat="48.577429" lon="16.780678">
        <ele>256.450382</ele>
        <time>2020-09-18T11:08:28.917Z</time>
      </trkpt>
      <trkpt lat="48.577333" lon="16.780659">
        <ele>256.606744</ele>
        <time>2020-09-18T11:08:31.930Z</time>
      </trkpt>
      <trkpt lat="48.577236" lon="16.780636">
        <ele>256.765314</ele>
        <time>2020-09-18T11:08:34.903Z</time>
      </trkpt>
      <trkpt lat="48.577144" lon="16.780610">
        <ele>256.916467</ele>
        <time>2020-09-18T11:08:37.922Z</time>
      </trkpt>
      <trkpt lat="48.577052" lon="16.780576">
        <ele>257.069422</ele>
        <time>2020-09-18T11:08:40.933Z</time>
      </trkpt>
      <trkpt lat="48.576950" lon="16.780556">
        <ele>257.235531</ele>
        <time>2020-09-18T11:08:43.942Z</time>
      </trkpt>
      <trkpt lat="48.576845" lon="16.780535">
        <ele>257.406582</ele>
        <time>2020-09-18T11:08:46.892Z</time>
      </trkpt>
      <trkpt lat="48.576734" lon="16.780511">
        <ele>257.587670</ele>
        <time>2020-09-18T11:08:49.895Z</time>
      </trkpt>
      <trkpt lat="48.576616" lon="16.780486">
        <ele>257.780101</ele>
        <time>2020-09-18T11:08:52.896Z</time>
      </trkpt>
      <trkpt lat="48.576493" lon="16.780459">
        <ele>257.980828</ele>
        <time>2020-09-18T11:08:55.900Z</time>
      </trkpt>
      <trkpt lat="48.576367" lon="16.780422">
        <ele>258.195008</ele>
        <time>2020-09-18T11:08:58.909Z</time>
      </trkpt>
      <trkpt lat="48.576235" lon="16.780403">
        <ele>258.418486</ele>
        <time>2020-09-18T11:09:01.899Z</time>
      </trkpt>
      <trkpt lat="48.576145" lon="16.780388">
        <ele>258.571090</ele>
        <time>2020-09-18T11:09:03.920Z</time>
      </trkpt>
      <trkpt lat="48.576054" lon="16.780361">
        <ele>258.727388</ele>
        <time>2020-09-18T11:09:05.922Z</time>
      </trkpt>
      <trkpt lat="48.575964" lon="16.780333">
        <ele>258.882253</ele>
        <time>2020-09-18T11:09:07.899Z</time>
      </trkpt>
      <trkpt lat="48.575874" lon="16.780314">
        <ele>259.035410</ele>
        <time>2020-09-18T11:09:09.915Z</time>
      </trkpt>
      <trkpt lat="48.575783" lon="16.780298">
        <ele>259.189815</ele>
        <time>2020-09-18T11:09:11.927Z</time>
      </trkpt>
      <trkpt lat="48.575689" lon="16.780279">
        <ele>259.349652</ele>
        <time>2020-09-18T11:09:13.920Z</time>
      </trkpt>
      <trkpt lat="48.575596" lon="16.780250">
        <ele>259.509694</ele>
        <time>2020-09-18T11:09:15.908Z</time>
      </trkpt>
      <trkpt lat="48.575503" lon="16.780221">
        <ele>259.669736</ele>
        <time>2020-09-18T11:09:17.932Z</time>
      </trkpt>
      <trkpt lat="48.575407" lon="16.780204">
        <ele>259.832640</ele>
        <time>2020-09-18T11:09:19.908Z</time>
      </trkpt>
      <trkpt lat="48.575313" lon="16.780191">
        <ele>259.991729</ele>
        <time>2020-09-18T11:09:21.912Z</time>
      </trkpt>
      <trkpt lat="48.575215" lon="16.780171">
        <ele>260.158396</ele>
        <time>2020-09-18T11:09:23.906Z</time>
      </trkpt>
      <trkpt lat="48.575117" lon="16.780147">
        <ele>260.325718</ele>
        <time>2020-09-18T11:09:25.918Z</time>
      </trkpt>
      <trkpt lat="48.575018" lon="16.780126">
        <ele>260.494207</ele>
        <time>2020-09-18T11:09:27.918Z</time>
      </trkpt>
      <trkpt lat="48.574917" lon="16.780107">
        <ele>260.665744</ele>
        <time>2020-09-18T11:09:29.925Z</time>
      </trkpt>
      <trkpt lat="48.574819" lon="16.780083">
        <ele>260.833066</ele>
        <time>2020-09-18T11:09:31.899Z</time>
      </trkpt>
      <trkpt lat="48.574716" lon="16.780058">
        <ele>261.008886</ele>
        <time>2020-09-18T11:09:33.903Z</time>
      </trkpt>
      <trkpt lat="48.574619" lon="16.780031">
        <ele>261.131084</ele>
        <time>2020-09-18T11:09:35.891Z</time>
      </trkpt>
      <trkpt lat="48.574543" lon="16.779956">
        <ele>261.224747</ele>
        <time>2020-09-18T11:09:37.898Z</time>
      </trkpt>
      <trkpt lat="48.574506" lon="16.779765">
        <ele>261.360628</ele>
        <time>2020-09-18T11:09:40.898Z</time>
      </trkpt>
      <trkpt lat="48.574511" lon="16.779579">
        <ele>261.487726</ele>
        <time>2020-09-18T11:09:43.910Z</time>
      </trkpt>
      <trkpt lat="48.574515" lon="16.779384">
        <ele>261.620928</ele>
        <time>2020-09-18T11:09:46.899Z</time>
      </trkpt>
      <trkpt lat="48.574517" lon="16.779197">
        <ele>261.748621</ele>
        <time>2020-09-18T11:09:49.900Z</time>
      </trkpt>
      <trkpt lat="48.574519" lon="16.779004">
        <ele>261.880410</ele>
        <time>2020-09-18T11:09:52.899Z</time>
      </trkpt>
      <trkpt lat="48.574518" lon="16.778805">
        <ele>262.016283</ele>
        <time>2020-09-18T11:09:55.908Z</time>
      </trkpt>
      <trkpt lat="48.574509" lon="16.778608">
        <ele>262.151107</ele>
        <time>2020-09-18T11:09:58.921Z</time>
      </trkpt>
      <trkpt lat="48.574505" lon="16.778414">
        <ele>262.283626</ele>
        <time>2020-09-18T11:10:01.935Z</time>
      </trkpt>
      <trkpt lat="48.574503" lon="16.778218">
        <ele>262.417463</ele>
        <time>2020-09-18T11:10:04.914Z</time>
      </trkpt>
      <trkpt lat="48.574506" lon="16.778026">
        <ele>262.548590</ele>
        <time>2020-09-18T11:10:07.904Z</time>
      </trkpt>
      <trkpt lat="48.574502" lon="16.777829">
        <ele>262.683157</ele>
        <time>2020-09-18T11:10:10.923Z</time>
      </trkpt>
      <trkpt lat="48.574496" lon="16.777627">
        <ele>262.821213</ele>
        <time>2020-09-18T11:10:13.921Z</time>
      </trkpt>
      <trkpt lat="48.574493" lon="16.777489">
        <ele>262.915485</ele>
        <time>2020-09-18T11:10:15.923Z</time>
      </trkpt>
      <trkpt lat="48.574493" lon="16.777292">
        <ele>263.024442</ele>
        <time>2020-09-18T11:10:18.911Z</time>
      </trkpt>
      <trkpt lat="48.574487" lon="16.777097">
        <ele>263.132006</ele>
        <time>2020-09-18T11:10:21.933Z</time>
      </trkpt>
      <trkpt lat="48.574480" lon="16.776901">
        <ele>263.240163</ele>
        <time>2020-09-18T11:10:24.916Z</time>
      </trkpt>
      <trkpt lat="48.574475" lon="16.776701">
        <ele>263.350445</ele>
        <time>2020-09-18T11:10:27.907Z</time>
      </trkpt>
      <trkpt lat="48.574473" lon="16.776502">
        <ele>263.460111</ele>
        <time>2020-09-18T11:10:30.926Z</time>
      </trkpt>
      <trkpt lat="48.574473" lon="16.776306">
        <ele>263.568110</ele>
        <time>2020-09-18T11:10:33.915Z</time>
      </trkpt>
      <trkpt lat="48.574468" lon="16.776113">
        <ele>263.674538</ele>
        <time>2020-09-18T11:10:36.899Z</time>
      </trkpt>
      <trkpt lat="48.574457" lon="16.775921">
        <ele>263.780730</ele>
        <time>2020-09-18T11:10:39.914Z</time>
      </trkpt>
      <trkpt lat="48.574447" lon="16.775728">
        <ele>263.887402</ele>
        <time>2020-09-18T11:10:42.904Z</time>
      </trkpt>
      <trkpt lat="48.574440" lon="16.775535">
        <ele>263.993908</ele>
        <time>2020-09-18T11:10:45.931Z</time>
      </trkpt>
      <trkpt lat="48.574438" lon="16.775340">
        <ele>264.101370</ele>
        <time>2020-09-18T11:10:48.923Z</time>
      </trkpt>
      <trkpt lat="48.574438" lon="16.775148">
        <ele>264.207165</ele>
        <time>2020-09-18T11:10:51.921Z</time>
      </trkpt>
      <trkpt lat="48.574442" lon="16.774961">
        <ele>264.310260</ele>
        <time>2020-09-18T11:10:54.926Z</time>
      </trkpt>
      <trkpt lat="48.574441" lon="16.774768">
        <ele>264.416715</ele>
        <time>2020-09-18T11:10:57.912Z</time>
      </trkpt>
      <trkpt lat="48.574441" lon="16.774572">
        <ele>264.535025</ele>
        <time>2020-09-18T11:11:00.933Z</time>
      </trkpt>
      <trkpt lat="48.574439" lon="16.774376">
        <ele>264.653349</ele>
        <time>2020-09-18T11:11:03.903Z</time>
      </trkpt>
      <trkpt lat="48.574439" lon="16.774182">
        <ele>264.770452</ele>
        <time>2020-09-18T11:11:06.938Z</time>
      </trkpt>
      <trkpt lat="48.574447" lon="16.773988">
        <ele>264.887781</ele>
        <time>2020-09-18T11:11:09.915Z</time>
      </trkpt>
      <trkpt lat="48.574454" lon="16.773792">
        <ele>265.006263</ele>
        <time>2020-09-18T11:11:12.951Z</time>
      </trkpt>
      <trkpt lat="48.574462" lon="16.773607">
        <ele>265.118171</ele>
        <time>2020-09-18T11:11:15.898Z</time>
      </trkpt>
      <trkpt lat="48.574467" lon="16.773416">
        <ele>265.233553</ele>
        <time>2020-09-18T11:11:18.913Z</time>
      </trkpt>
      <trkpt lat="48.574473" lon="16.773227">
        <ele>265.347769</ele>
        <time>2020-09-18T11:11:21.899Z</time>
      </trkpt>
      <trkpt lat="48.574480" lon="16.773044">
        <ele>265.458416</ele>
        <time>2020-09-18T11:11:24.922Z</time>
      </trkpt>
      <trkpt lat="48.574484" lon="16.772862">
        <ele>265.568336</ele>
        <time>2020-09-18T11:11:27.905Z</time>
      </trkpt>
      <trkpt lat="48.574488" lon="16.772681">
        <ele>265.677652</ele>
        <time>2020-09-18T11:11:30.940Z</time>
      </trkpt>
      <trkpt lat="48.574491" lon="16.772503">
        <ele>265.785131</ele>
        <time>2020-09-18T11:11:33.931Z</time>
      </trkpt>
      <trkpt lat="48.574498" lon="16.772319">
        <ele>265.896381</ele>
        <time>2020-09-18T11:11:36.918Z</time>
      </trkpt>
      <trkpt lat="48.574503" lon="16.772183">
        <ele>265.978600</ele>
        <time>2020-09-18T11:11:38.905Z</time>
      </trkpt>
      <trkpt lat="48.574509" lon="16.772038">
        <ele>266.066817</ele>
        <time>2020-09-18T11:11:40.900Z</time>
      </trkpt>
      <trkpt lat="48.574514" lon="16.771892">
        <ele>266.159709</ele>
        <time>2020-09-18T11:11:42.909Z</time>
      </trkpt>
      <trkpt lat="48.574519" lon="16.771745">
        <ele>266.253237</ele>
        <time>2020-09-18T11:11:44.925Z</time>
      </trkpt>
      <trkpt lat="48.574526" lon="16.771599">
        <ele>266.346248</ele>
        <time>2020-09-18T11:11:46.913Z</time>
      </trkpt>
      <trkpt lat="48.574543" lon="16.771461">
        <ele>266.435441</ele>
        <time>2020-09-18T11:11:48.917Z</time>
      </trkpt>
      <trkpt lat="48.574562" lon="16.771324">
        <ele>266.524382</ele>
        <time>2020-09-18T11:11:50.932Z</time>
      </trkpt>
      <trkpt lat="48.574578" lon="16.771177">
        <ele>266.619042</ele>
        <time>2020-09-18T11:11:52.905Z</time>
      </trkpt>
      <trkpt lat="48.574592" lon="16.771029">
        <ele>266.714037</ele>
        <time>2020-09-18T11:11:54.905Z</time>
      </trkpt>
      <trkpt lat="48.574609" lon="16.770882">
        <ele>266.808857</ele>
        <time>2020-09-18T11:11:56.928Z</time>
      </trkpt>
      <trkpt lat="48.574630" lon="16.770738">
        <ele>266.902551</ele>
        <time>2020-09-18T11:11:58.897Z</time>
      </trkpt>
      <trkpt lat="48.574650" lon="16.770589">
        <ele>266.999154</ele>
        <time>2020-09-18T11:12:00.913Z</time>
      </trkpt>
      <trkpt lat="48.574667" lon="16.770445">
        <ele>267.092096</ele>
        <time>2020-09-18T11:12:02.940Z</time>
      </trkpt>
      <trkpt lat="48.574681" lon="16.770303">
        <ele>267.183319</ele>
        <time>2020-09-18T11:12:04.914Z</time>
      </trkpt>
      <trkpt lat="48.574701" lon="16.770168">
        <ele>267.271222</ele>
        <time>2020-09-18T11:12:06.894Z</time>
      </trkpt>
      <trkpt lat="48.574719" lon="16.770026">
        <ele>267.363090</ele>
        <time>2020-09-18T11:12:08.889Z</time>
      </trkpt>
      <trkpt lat="48.574741" lon="16.769885">
        <ele>267.455138</ele>
        <time>2020-09-18T11:12:10.917Z</time>
      </trkpt>
      <trkpt lat="48.574766" lon="16.769751">
        <ele>267.543602</ele>
        <time>2020-09-18T11:12:12.942Z</time>
      </trkpt>
      <trkpt lat="48.574791" lon="16.769616">
        <ele>267.632677</ele>
        <time>2020-09-18T11:12:14.915Z</time>
      </trkpt>
      <trkpt lat="48.574830" lon="16.769421">
        <ele>267.762117</ele>
        <time>2020-09-18T11:12:17.901Z</time>
      </trkpt>
      <trkpt lat="48.574854" lon="16.769290">
        <ele>267.870598</ele>
        <time>2020-09-18T11:12:19.916Z</time>
      </trkpt>
      <trkpt lat="48.574889" lon="16.769098">
        <ele>268.040334</ele>
        <time>2020-09-18T11:12:22.922Z</time>
      </trkpt>
      <trkpt lat="48.574924" lon="16.768926">
        <ele>268.193703</ele>
        <time>2020-09-18T11:12:25.922Z</time>
      </trkpt>
      <trkpt lat="48.574952" lon="16.768762">
        <ele>268.338056</ele>
        <time>2020-09-18T11:12:28.926Z</time>
      </trkpt>
      <trkpt lat="48.574968" lon="16.768589">
        <ele>268.486935</ele>
        <time>2020-09-18T11:12:31.910Z</time>
      </trkpt>
      <trkpt lat="48.574983" lon="16.768427">
        <ele>268.626350</ele>
        <time>2020-09-18T11:12:34.898Z</time>
      </trkpt>
      <trkpt lat="48.574985" lon="16.768264">
        <ele>268.765297</ele>
        <time>2020-09-18T11:12:37.896Z</time>
      </trkpt>
      <trkpt lat="48.574973" lon="16.768089">
        <ele>268.915245</ele>
        <time>2020-09-18T11:12:40.925Z</time>
      </trkpt>
      <trkpt lat="48.574946" lon="16.767913">
        <ele>269.069226</ele>
        <time>2020-09-18T11:12:43.889Z</time>
      </trkpt>
      <trkpt lat="48.574903" lon="16.767740">
        <ele>269.226732</ele>
        <time>2020-09-18T11:12:46.900Z</time>
      </trkpt>
      <trkpt lat="48.574859" lon="16.767568">
        <ele>269.383901</ele>
        <time>2020-09-18T11:12:49.904Z</time>
      </trkpt>
      <trkpt lat="48.574833" lon="16.767394">
        <ele>269.535933</ele>
        <time>2020-09-18T11:12:52.944Z</time>
      </trkpt>
      <trkpt lat="48.574812" lon="16.767218">
        <ele>269.688355</ele>
        <time>2020-09-18T11:12:55.926Z</time>
      </trkpt>
      <trkpt lat="48.574804" lon="16.767025">
        <ele>269.853169</ele>
        <time>2020-09-18T11:12:58.943Z</time>
      </trkpt>
      <trkpt lat="48.574811" lon="16.766851">
        <ele>270.001741</ele>
        <time>2020-09-18T11:13:01.919Z</time>
      </trkpt>
      <trkpt lat="48.574831" lon="16.766677">
        <ele>270.155229</ele>
        <time>2020-09-18T11:13:04.903Z</time>
      </trkpt>
      <trkpt lat="48.574853" lon="16.766517">
        <ele>270.302516</ele>
        <time>2020-09-18T11:13:07.903Z</time>
      </trkpt>
      <trkpt lat="48.574878" lon="16.766365">
        <ele>270.443681</ele>
        <time>2020-09-18T11:13:10.901Z</time>
      </trkpt>
      <trkpt lat="48.574902" lon="16.766222">
        <ele>270.576647</ele>
        <time>2020-09-18T11:13:13.933Z</time>
      </trkpt>
      <trkpt lat="48.574928" lon="16.766080">
        <ele>270.709439</ele>
        <time>2020-09-18T11:13:16.921Z</time>
      </trkpt>
      <trkpt lat="48.574955" lon="16.765937">
        <ele>270.843468</ele>
        <time>2020-09-18T11:13:19.915Z</time>
      </trkpt>
      <trkpt lat="48.574983" lon="16.765798">
        <ele>270.974424</ele>
        <time>2020-09-18T11:13:22.903Z</time>
      </trkpt>
      <trkpt lat="48.575009" lon="16.765657">
        <ele>271.106348</ele>
        <time>2020-09-18T11:13:25.901Z</time>
      </trkpt>
      <trkpt lat="48.575037" lon="16.765517">
        <ele>271.238167</ele>
        <time>2020-09-18T11:13:28.922Z</time>
      </trkpt>
      <trkpt lat="48.575071" lon="16.765374">
        <ele>271.375119</ele>
        <time>2020-09-18T11:13:31.906Z</time>
      </trkpt>
      <trkpt lat="48.575104" lon="16.765218">
        <ele>271.522731</ele>
        <time>2020-09-18T11:13:34.939Z</time>
      </trkpt>
      <trkpt lat="48.575130" lon="16.765055">
        <ele>271.673848</ele>
        <time>2020-09-18T11:13:37.936Z</time>
      </trkpt>
      <trkpt lat="48.575153" lon="16.764893">
        <ele>271.823180</ele>
        <time>2020-09-18T11:13:40.928Z</time>
      </trkpt>
      <trkpt lat="48.575175" lon="16.764726">
        <ele>271.976648</ele>
        <time>2020-09-18T11:13:43.921Z</time>
      </trkpt>
      <trkpt lat="48.575186" lon="16.764559">
        <ele>272.127906</ele>
        <time>2020-09-18T11:13:46.924Z</time>
      </trkpt>
      <trkpt lat="48.575202" lon="16.764390">
        <ele>272.281774</ele>
        <time>2020-09-18T11:13:49.917Z</time>
      </trkpt>
      <trkpt lat="48.575222" lon="16.764227">
        <ele>272.431187</ele>
        <time>2020-09-18T11:13:52.899Z</time>
      </trkpt>
      <trkpt lat="48.575237" lon="16.764056">
        <ele>272.598515</ele>
        <time>2020-09-18T11:13:55.909Z</time>
      </trkpt>
      <trkpt lat="48.575250" lon="16.763877">
        <ele>272.814379</ele>
        <time>2020-09-18T11:13:58.912Z</time>
      </trkpt>
      <trkpt lat="48.575271" lon="16.763703">
        <ele>273.026401</ele>
        <time>2020-09-18T11:14:01.908Z</time>
      </trkpt>
      <trkpt lat="48.575287" lon="16.763515">
        <ele>273.253620</ele>
        <time>2020-09-18T11:14:04.897Z</time>
      </trkpt>
      <trkpt lat="48.575299" lon="16.763340">
        <ele>273.464523</ele>
        <time>2020-09-18T11:14:07.920Z</time>
      </trkpt>
      <trkpt lat="48.575316" lon="16.763153">
        <ele>273.690793</ele>
        <time>2020-09-18T11:14:10.907Z</time>
      </trkpt>
      <trkpt lat="48.575331" lon="16.762970">
        <ele>273.911839</ele>
        <time>2020-09-18T11:14:13.896Z</time>
      </trkpt>
      <trkpt lat="48.575346" lon="16.762792">
        <ele>274.126938</ele>
        <time>2020-09-18T11:14:16.916Z</time>
      </trkpt>
      <trkpt lat="48.575360" lon="16.762608">
        <ele>274.348959</ele>
        <time>2020-09-18T11:14:19.944Z</time>
      </trkpt>
      <trkpt lat="48.575384" lon="16.762431">
        <ele>274.565545</ele>
        <time>2020-09-18T11:14:22.915Z</time>
      </trkpt>
      <trkpt lat="48.575406" lon="16.762258">
        <ele>274.776722</ele>
        <time>2020-09-18T11:14:25.892Z</time>
      </trkpt>
      <trkpt lat="48.575420" lon="16.762079">
        <ele>274.992790</ele>
        <time>2020-09-18T11:14:28.913Z</time>
      </trkpt>
      <trkpt lat="48.575434" lon="16.761899">
        <ele>275.210048</ele>
        <time>2020-09-18T11:14:31.914Z</time>
      </trkpt>
      <trkpt lat="48.575452" lon="16.761720">
        <ele>275.427085</ele>
        <time>2020-09-18T11:14:34.920Z</time>
      </trkpt>
      <trkpt lat="48.575470" lon="16.761542">
        <ele>275.642938</ele>
        <time>2020-09-18T11:14:37.920Z</time>
      </trkpt>
      <trkpt lat="48.575488" lon="16.761354">
        <ele>275.857021</ele>
        <time>2020-09-18T11:14:40.922Z</time>
      </trkpt>
      <trkpt lat="48.575504" lon="16.761165">
        <ele>276.034562</ele>
        <time>2020-09-18T11:14:43.906Z</time>
      </trkpt>
      <trkpt lat="48.575523" lon="16.760974">
        <ele>276.214531</ele>
        <time>2020-09-18T11:14:46.922Z</time>
      </trkpt>
      <trkpt lat="48.575536" lon="16.760783">
        <ele>276.393439</ele>
        <time>2020-09-18T11:14:49.918Z</time>
      </trkpt>
      <trkpt lat="48.575548" lon="16.760582">
        <ele>276.581486</ele>
        <time>2020-09-18T11:14:52.906Z</time>
      </trkpt>
      <trkpt lat="48.575556" lon="16.760441">
        <ele>276.713348</ele>
        <time>2020-09-18T11:14:54.903Z</time>
      </trkpt>
      <trkpt lat="48.575571" lon="16.760241">
        <ele>276.900896</ele>
        <time>2020-09-18T11:14:57.935Z</time>
      </trkpt>
      <trkpt lat="48.575579" lon="16.760064">
        <ele>277.066203</ele>
        <time>2020-09-18T11:15:00.917Z</time>
      </trkpt>
      <trkpt lat="48.575591" lon="16.759926">
        <ele>277.195894</ele>
        <time>2020-09-18T11:15:02.929Z</time>
      </trkpt>
      <trkpt lat="48.575601" lon="16.759783">
        <ele>277.329879</ele>
        <time>2020-09-18T11:15:04.928Z</time>
      </trkpt>
      <trkpt lat="48.575618" lon="16.759590">
        <ele>277.511297</ele>
        <time>2020-09-18T11:15:07.955Z</time>
      </trkpt>
      <trkpt lat="48.575632" lon="16.759393">
        <ele>277.695912</ele>
        <time>2020-09-18T11:15:10.925Z</time>
      </trkpt>
      <trkpt lat="48.575644" lon="16.759201">
        <ele>277.875608</ele>
        <time>2020-09-18T11:15:13.916Z</time>
      </trkpt>
      <trkpt lat="48.575658" lon="16.759002">
        <ele>278.062076</ele>
        <time>2020-09-18T11:15:16.917Z</time>
      </trkpt>
      <trkpt lat="48.575675" lon="16.758809">
        <ele>278.243494</ele>
        <time>2020-09-18T11:15:19.915Z</time>
      </trkpt>
      <trkpt lat="48.575691" lon="16.758615">
        <ele>278.441498</ele>
        <time>2020-09-18T11:15:22.917Z</time>
      </trkpt>
      <trkpt lat="48.575704" lon="16.758430">
        <ele>278.647860</ele>
        <time>2020-09-18T11:15:25.906Z</time>
      </trkpt>
      <trkpt lat="48.575716" lon="16.758259">
        <ele>278.838602</ele>
        <time>2020-09-18T11:15:28.910Z</time>
      </trkpt>
      <trkpt lat="48.575732" lon="16.758079">
        <ele>279.040057</ele>
        <time>2020-09-18T11:15:31.922Z</time>
      </trkpt>
      <trkpt lat="48.575746" lon="16.757901">
        <ele>279.238890</ele>
        <time>2020-09-18T11:15:34.905Z</time>
      </trkpt>
      <trkpt lat="48.575760" lon="16.757718">
        <ele>279.443232</ele>
        <time>2020-09-18T11:15:37.906Z</time>
      </trkpt>
      <trkpt lat="48.575770" lon="16.757524">
        <ele>279.659074</ele>
        <time>2020-09-18T11:15:40.923Z</time>
      </trkpt>
      <trkpt lat="48.575777" lon="16.757338">
        <ele>279.865725</ele>
        <time>2020-09-18T11:15:43.908Z</time>
      </trkpt>
      <trkpt lat="48.575782" lon="16.757145">
        <ele>280.079970</ele>
        <time>2020-09-18T11:15:46.920Z</time>
      </trkpt>
      <trkpt lat="48.575791" lon="16.756963">
        <ele>280.282413</ele>
        <time>2020-09-18T11:15:49.920Z</time>
      </trkpt>
      <trkpt lat="48.575796" lon="16.756788">
        <ele>280.476709</ele>
        <time>2020-09-18T11:15:52.927Z</time>
      </trkpt>
      <trkpt lat="48.575797" lon="16.756632">
        <ele>280.649756</ele>
        <time>2020-09-18T11:15:55.922Z</time>
      </trkpt>
      <trkpt lat="48.575801" lon="16.756460">
        <ele>280.840661</ele>
        <time>2020-09-18T11:15:58.912Z</time>
      </trkpt>
      <trkpt lat="48.575808" lon="16.756295">
        <ele>281.024060</ele>
        <time>2020-09-18T11:16:01.921Z</time>
      </trkpt>
      <trkpt lat="48.575817" lon="16.756132">
        <ele>281.205493</ele>
        <time>2020-09-18T11:16:04.928Z</time>
      </trkpt>
      <trkpt lat="48.575827" lon="16.755949">
        <ele>281.400308</ele>
        <time>2020-09-18T11:16:07.897Z</time>
      </trkpt>
      <trkpt lat="48.575838" lon="16.755778">
        <ele>281.557913</ele>
        <time>2020-09-18T11:16:10.923Z</time>
      </trkpt>
      <trkpt lat="48.575845" lon="16.755606">
        <ele>281.715993</ele>
        <time>2020-09-18T11:16:13.910Z</time>
      </trkpt>
      <trkpt lat="48.575850" lon="16.755449">
        <ele>281.860182</ele>
        <time>2020-09-18T11:16:16.900Z</time>
      </trkpt>
      <trkpt lat="48.575853" lon="16.755298">
        <ele>281.998763</ele>
        <time>2020-09-18T11:16:19.928Z</time>
      </trkpt>
      <trkpt lat="48.575865" lon="16.755121">
        <ele>282.161982</ele>
        <time>2020-09-18T11:16:22.907Z</time>
      </trkpt>
      <trkpt lat="48.575875" lon="16.754979">
        <ele>282.292980</ele>
        <time>2020-09-18T11:16:25.897Z</time>
      </trkpt>
      <trkpt lat="48.575885" lon="16.754825">
        <ele>282.434929</ele>
        <time>2020-09-18T11:16:28.931Z</time>
      </trkpt>
      <trkpt lat="48.575895" lon="16.754650">
        <ele>282.596060</ele>
        <time>2020-09-18T11:16:32.892Z</time>
      </trkpt>
      <trkpt lat="48.575901" lon="16.754493">
        <ele>282.740322</ele>
        <time>2020-09-18T11:16:35.895Z</time>
      </trkpt>
      <trkpt lat="48.575908" lon="16.754327">
        <ele>282.892909</ele>
        <time>2020-09-18T11:16:38.930Z</time>
      </trkpt>
      <trkpt lat="48.575922" lon="16.754172">
        <ele>283.036416</ele>
        <time>2020-09-18T11:16:41.939Z</time>
      </trkpt>
      <trkpt lat="48.575940" lon="16.754020">
        <ele>283.178067</ele>
        <time>2020-09-18T11:16:44.907Z</time>
      </trkpt>
      <trkpt lat="48.575961" lon="16.753860">
        <ele>283.327701</ele>
        <time>2020-09-18T11:16:47.903Z</time>
      </trkpt>
      <trkpt lat="48.575984" lon="16.753695">
        <ele>283.482384</ele>
        <time>2020-09-18T11:16:50.910Z</time>
      </trkpt>
      <trkpt lat="48.576010" lon="16.753544">
        <ele>283.625516</ele>
        <time>2020-09-18T11:16:53.896Z</time>
      </trkpt>
      <trkpt lat="48.576035" lon="16.753387">
        <ele>283.773650</ele>
        <time>2020-09-18T11:16:56.923Z</time>
      </trkpt>
      <trkpt lat="48.576059" lon="16.753238">
        <ele>283.902171</ele>
        <time>2020-09-18T11:16:59.897Z</time>
      </trkpt>
      <trkpt lat="48.576079" lon="16.753085">
        <ele>284.017461</ele>
        <time>2020-09-18T11:17:02.924Z</time>
      </trkpt>
      <trkpt lat="48.576095" lon="16.752930">
        <ele>284.133429</ele>
        <time>2020-09-18T11:17:05.919Z</time>
      </trkpt>
      <trkpt lat="48.576113" lon="16.752784">
        <ele>284.243215</ele>
        <time>2020-09-18T11:17:08.915Z</time>
      </trkpt>
      <trkpt lat="48.576140" lon="16.752606">
        <ele>284.378212</ele>
        <time>2020-09-18T11:17:12.900Z</time>
      </trkpt>
      <trkpt lat="48.576158" lon="16.752470">
        <ele>284.480740</ele>
        <time>2020-09-18T11:17:15.924Z</time>
      </trkpt>
      <trkpt lat="48.576180" lon="16.752334">
        <ele>284.584237</ele>
        <time>2020-09-18T11:17:18.905Z</time>
      </trkpt>
      <trkpt lat="48.576210" lon="16.752167">
        <ele>284.712159</ele>
        <time>2020-09-18T11:17:22.911Z</time>
      </trkpt>
      <trkpt lat="48.576231" lon="16.752034">
        <ele>284.813238</ele>
        <time>2020-09-18T11:17:25.914Z</time>
      </trkpt>
      <trkpt lat="48.576247" lon="16.751892">
        <ele>284.919721</ele>
        <time>2020-09-18T11:17:28.892Z</time>
      </trkpt>
      <trkpt lat="48.576258" lon="16.751755">
        <ele>285.021739</ele>
        <time>2020-09-18T11:17:31.929Z</time>
      </trkpt>
      <trkpt lat="48.576278" lon="16.751585">
        <ele>285.149379</ele>
        <time>2020-09-18T11:17:35.908Z</time>
      </trkpt>
      <trkpt lat="48.576328" lon="16.751424">
        <ele>285.280855</ele>
        <time>2020-09-18T11:17:39.914Z</time>
      </trkpt>
      <trkpt lat="48.576393" lon="16.751275">
        <ele>285.412788</ele>
        <time>2020-09-18T11:17:43.916Z</time>
      </trkpt>
      <trkpt lat="48.576455" lon="16.751173">
        <ele>285.515180</ele>
        <time>2020-09-18T11:17:46.909Z</time>
      </trkpt>
      <trkpt lat="48.576538" lon="16.751048">
        <ele>285.646094</ele>
        <time>2020-09-18T11:17:50.886Z</time>
      </trkpt>
      <trkpt lat="48.576605" lon="16.750955">
        <ele>285.747732</ele>
        <time>2020-09-18T11:17:53.909Z</time>
      </trkpt>
      <trkpt lat="48.576693" lon="16.750846">
        <ele>285.945436</ele>
        <time>2020-09-18T11:17:57.928Z</time>
      </trkpt>
      <trkpt lat="48.576777" lon="16.750727">
        <ele>286.746719</ele>
        <time>2020-09-18T11:18:01.940Z</time>
      </trkpt>
      <trkpt lat="48.576868" lon="16.750637">
        <ele>287.503605</ele>
        <time>2020-09-18T11:18:05.895Z</time>
      </trkpt>
      <trkpt lat="48.576948" lon="16.750534">
        <ele>288.235015</ele>
        <time>2020-09-18T11:18:09.913Z</time>
      </trkpt>
      <trkpt lat="48.577022" lon="16.750416">
        <ele>288.983675</ele>
        <time>2020-09-18T11:18:13.920Z</time>
      </trkpt>
      <trkpt lat="48.577080" lon="16.750299">
        <ele>289.656880</ele>
        <time>2020-09-18T11:18:16.929Z</time>
      </trkpt>
      <trkpt lat="48.577140" lon="16.750190">
        <ele>290.309796</ele>
        <time>2020-09-18T11:18:19.946Z</time>
      </trkpt>
      <trkpt lat="48.577218" lon="16.750063">
        <ele>291.107727</ele>
        <time>2020-09-18T11:18:23.895Z</time>
      </trkpt>
      <trkpt lat="48.577278" lon="16.749961">
        <ele>291.736202</ele>
        <time>2020-09-18T11:18:26.904Z</time>
      </trkpt>
      <trkpt lat="48.577338" lon="16.749820">
        <ele>292.508163</ele>
        <time>2020-09-18T11:18:30.903Z</time>
      </trkpt>
      <trkpt lat="48.577395" lon="16.749675">
        <ele>293.284807</ele>
        <time>2020-09-18T11:18:34.925Z</time>
      </trkpt>
      <trkpt lat="48.577439" lon="16.749539">
        <ele>293.981910</ele>
        <time>2020-09-18T11:18:38.907Z</time>
      </trkpt>
      <trkpt lat="48.577462" lon="16.749357">
        <ele>294.835113</ele>
        <time>2020-09-18T11:18:42.929Z</time>
      </trkpt>
      <trkpt lat="48.577488" lon="16.749206">
        <ele>295.553581</ele>
        <time>2020-09-18T11:18:45.918Z</time>
      </trkpt>
      <trkpt lat="48.577503" lon="16.749038">
        <ele>296.334180</ele>
        <time>2020-09-18T11:18:48.916Z</time>
      </trkpt>
      <trkpt lat="48.577524" lon="16.748856">
        <ele>297.184881</ele>
        <time>2020-09-18T11:18:51.925Z</time>
      </trkpt>
      <trkpt lat="48.577549" lon="16.748680">
        <ele>298.013771</ele>
        <time>2020-09-18T11:18:54.915Z</time>
      </trkpt>
      <trkpt lat="48.577575" lon="16.748494">
        <ele>298.964656</ele>
        <time>2020-09-18T11:18:57.913Z</time>
      </trkpt>
      <trkpt lat="48.577595" lon="16.748308">
        <ele>299.960953</ele>
        <time>2020-09-18T11:19:00.924Z</time>
      </trkpt>
      <trkpt lat="48.577617" lon="16.748126">
        <ele>300.939126</ele>
        <time>2020-09-18T11:19:03.954Z</time>
      </trkpt>
      <trkpt lat="48.577636" lon="16.747935">
        <ele>301.960305</ele>
        <time>2020-09-18T11:19:06.893Z</time>
      </trkpt>
      <trkpt lat="48.577652" lon="16.747743">
        <ele>302.983441</ele>
        <time>2020-09-18T11:19:09.947Z</time>
      </trkpt>
      <trkpt lat="48.577685" lon="16.747557">
        <ele>304.001578</ele>
        <time>2020-09-18T11:19:12.920Z</time>
      </trkpt>
      <trkpt lat="48.577711" lon="16.747368">
        <ele>305.022203</ele>
        <time>2020-09-18T11:19:15.906Z</time>
      </trkpt>
      <trkpt lat="48.577735" lon="16.747175">
        <ele>306.060471</ele>
        <time>2020-09-18T11:19:18.908Z</time>
      </trkpt>
      <trkpt lat="48.577771" lon="16.746978">
        <ele>307.141019</ele>
        <time>2020-09-18T11:19:21.923Z</time>
      </trkpt>
      <trkpt lat="48.577808" lon="16.746785">
        <ele>308.203394</ele>
        <time>2020-09-18T11:19:24.929Z</time>
      </trkpt>
      <trkpt lat="48.577839" lon="16.746607">
        <ele>309.176546</ele>
        <time>2020-09-18T11:19:27.937Z</time>
      </trkpt>
      <trkpt lat="48.577868" lon="16.746457">
        <ele>310.002768</ele>
        <time>2020-09-18T11:19:30.897Z</time>
      </trkpt>
      <trkpt lat="48.577881" lon="16.746298">
        <ele>310.849801</ele>
        <time>2020-09-18T11:19:34.895Z</time>
      </trkpt>
      <trkpt lat="48.577869" lon="16.746128">
        <ele>311.753698</ele>
        <time>2020-09-18T11:19:37.891Z</time>
      </trkpt>
      <trkpt lat="48.577875" lon="16.745930">
        <ele>312.777044</ele>
        <time>2020-09-18T11:19:40.912Z</time>
      </trkpt>
      <trkpt lat="48.577876" lon="16.745791">
        <ele>313.139926</ele>
        <time>2020-09-18T11:19:42.900Z</time>
      </trkpt>
      <trkpt lat="48.577881" lon="16.745651">
        <ele>313.505929</ele>
        <time>2020-09-18T11:19:44.896Z</time>
      </trkpt>
      <trkpt lat="48.577885" lon="16.745507">
        <ele>313.882173</ele>
        <time>2020-09-18T11:19:46.906Z</time>
      </trkpt>
      <trkpt lat="48.577884" lon="16.745356">
        <ele>314.276379</ele>
        <time>2020-09-18T11:19:48.900Z</time>
      </trkpt>
      <trkpt lat="48.577883" lon="16.745205">
        <ele>314.670584</ele>
        <time>2020-09-18T11:19:50.931Z</time>
      </trkpt>
      <trkpt lat="48.577887" lon="16.745051">
        <ele>315.072912</ele>
        <time>2020-09-18T11:19:52.942Z</time>
      </trkpt>
      <trkpt lat="48.577892" lon="16.744900">
        <ele>315.467591</ele>
        <time>2020-09-18T11:19:54.913Z</time>
      </trkpt>
      <trkpt lat="48.577896" lon="16.744747">
        <ele>315.867310</ele>
        <time>2020-09-18T11:19:56.925Z</time>
      </trkpt>
      <trkpt lat="48.577896" lon="16.744594">
        <ele>316.266717</ele>
        <time>2020-09-18T11:19:58.927Z</time>
      </trkpt>
      <trkpt lat="48.577900" lon="16.744440">
        <ele>316.669044</ele>
        <time>2020-09-18T11:20:00.909Z</time>
      </trkpt>
      <trkpt lat="48.577905" lon="16.744286">
        <ele>317.071546</ele>
        <time>2020-09-18T11:20:02.941Z</time>
      </trkpt>
      <trkpt lat="48.577910" lon="16.744137">
        <ele>317.461011</ele>
        <time>2020-09-18T11:20:04.910Z</time>
      </trkpt>
      <trkpt lat="48.577914" lon="16.743988">
        <ele>317.850296</ele>
        <time>2020-09-18T11:20:06.940Z</time>
      </trkpt>
      <trkpt lat="48.577916" lon="16.743841">
        <ele>318.234121</ele>
        <time>2020-09-18T11:20:08.912Z</time>
      </trkpt>
      <trkpt lat="48.577915" lon="16.743695">
        <ele>318.615275</ele>
        <time>2020-09-18T11:20:10.923Z</time>
      </trkpt>
      <trkpt lat="48.577923" lon="16.743551">
        <ele>318.992510</ele>
        <time>2020-09-18T11:20:12.914Z</time>
      </trkpt>
      <trkpt lat="48.577929" lon="16.743405">
        <ele>319.374378</ele>
        <time>2020-09-18T11:20:14.931Z</time>
      </trkpt>
      <trkpt lat="48.577933" lon="16.743257">
        <ele>319.761054</ele>
        <time>2020-09-18T11:20:16.902Z</time>
      </trkpt>
      <trkpt lat="48.577938" lon="16.743108">
        <ele>320.063123</ele>
        <time>2020-09-18T11:20:18.910Z</time>
      </trkpt>
      <trkpt lat="48.577939" lon="16.742959">
        <ele>320.338970</ele>
        <time>2020-09-18T11:20:20.921Z</time>
      </trkpt>
      <trkpt lat="48.577944" lon="16.742820">
        <ele>320.596670</ele>
        <time>2020-09-18T11:20:22.898Z</time>
      </trkpt>
      <trkpt lat="48.577947" lon="16.742684">
        <ele>320.848577</ele>
        <time>2020-09-18T11:20:24.905Z</time>
      </trkpt>
      <trkpt lat="48.577961" lon="16.742493">
        <ele>321.204324</ele>
        <time>2020-09-18T11:20:27.922Z</time>
      </trkpt>
      <trkpt lat="48.577965" lon="16.742294">
        <ele>321.572888</ele>
        <time>2020-09-18T11:20:30.913Z</time>
      </trkpt>
      <trkpt lat="48.577966" lon="16.742156">
        <ele>321.828372</ele>
        <time>2020-09-18T11:20:32.922Z</time>
      </trkpt>
      <trkpt lat="48.577968" lon="16.742013">
        <ele>322.093156</ele>
        <time>2020-09-18T11:20:34.948Z</time>
      </trkpt>
      <trkpt lat="48.577970" lon="16.741869">
        <ele>322.359791</ele>
        <time>2020-09-18T11:20:36.926Z</time>
      </trkpt>
      <trkpt lat="48.577974" lon="16.741726">
        <ele>322.624753</ele>
        <time>2020-09-18T11:20:38.917Z</time>
      </trkpt>
      <trkpt lat="48.577985" lon="16.741580">
        <ele>322.896778</ele>
        <time>2020-09-18T11:20:40.913Z</time>
      </trkpt>
      <trkpt lat="48.577986" lon="16.741434">
        <ele>323.167071</ele>
        <time>2020-09-18T11:20:42.919Z</time>
      </trkpt>
      <trkpt lat="48.577989" lon="16.741287">
        <ele>323.439331</ele>
        <time>2020-09-18T11:20:44.913Z</time>
      </trkpt>
      <trkpt lat="48.577992" lon="16.741142">
        <ele>323.707889</ele>
        <time>2020-09-18T11:20:46.907Z</time>
      </trkpt>
      <trkpt lat="48.577997" lon="16.741000">
        <ele>323.971135</ele>
        <time>2020-09-18T11:20:48.899Z</time>
      </trkpt>
      <trkpt lat="48.578005" lon="16.740856">
        <ele>324.238649</ele>
        <time>2020-09-18T11:20:50.923Z</time>
      </trkpt>
      <trkpt lat="48.578013" lon="16.740704">
        <ele>324.520924</ele>
        <time>2020-09-18T11:20:52.916Z</time>
      </trkpt>
      <trkpt lat="48.578020" lon="16.740545">
        <ele>324.815919</ele>
        <time>2020-09-18T11:20:54.911Z</time>
      </trkpt>
      <trkpt lat="48.578026" lon="16.740384">
        <ele>325.421220</ele>
        <time>2020-09-18T11:20:56.945Z</time>
      </trkpt>
      <trkpt lat="48.578034" lon="16.740220">
        <ele>326.128865</ele>
        <time>2020-09-18T11:20:58.922Z</time>
      </trkpt>
      <trkpt lat="48.578038" lon="16.740054">
        <ele>326.843674</ele>
        <time>2020-09-18T11:21:00.893Z</time>
      </trkpt>
      <trkpt lat="48.578043" lon="16.739888">
        <ele>327.558750</ele>
        <time>2020-09-18T11:21:02.913Z</time>
      </trkpt>
      <trkpt lat="48.578049" lon="16.739716">
        <ele>328.299933</ele>
        <time>2020-09-18T11:21:04.912Z</time>
      </trkpt>
      <trkpt lat="48.578049" lon="16.739541">
        <ele>329.052998</ele>
        <time>2020-09-18T11:21:06.911Z</time>
      </trkpt>
      <trkpt lat="48.578051" lon="16.739364">
        <ele>329.814780</ele>
        <time>2020-09-18T11:21:08.911Z</time>
      </trkpt>
      <trkpt lat="48.578036" lon="16.739179">
        <ele>330.616833</ele>
        <time>2020-09-18T11:21:10.933Z</time>
      </trkpt>
      <trkpt lat="48.578025" lon="16.738982">
        <ele>331.467582</ele>
        <time>2020-09-18T11:21:12.912Z</time>
      </trkpt>
      <trkpt lat="48.578030" lon="16.738793">
        <ele>332.281542</ele>
        <time>2020-09-18T11:21:14.904Z</time>
      </trkpt>
      <trkpt lat="48.578032" lon="16.738577">
        <ele>333.211130</ele>
        <time>2020-09-18T11:21:16.942Z</time>
      </trkpt>
      <trkpt lat="48.578047" lon="16.738344">
        <ele>334.218518</ele>
        <time>2020-09-18T11:21:18.929Z</time>
      </trkpt>
      <trkpt lat="48.578057" lon="16.738097">
        <ele>335.283403</ele>
        <time>2020-09-18T11:21:20.921Z</time>
      </trkpt>
      <trkpt lat="48.578074" lon="16.737846">
        <ele>336.369157</ele>
        <time>2020-09-18T11:21:22.909Z</time>
      </trkpt>
      <trkpt lat="48.578090" lon="16.737584">
        <ele>336.831759</ele>
        <time>2020-09-18T11:21:24.913Z</time>
      </trkpt>
      <trkpt lat="48.578096" lon="16.737446">
        <ele>336.993569</ele>
        <time>2020-09-18T11:21:25.917Z</time>
      </trkpt>
      <trkpt lat="48.578101" lon="16.737307">
        <ele>337.156441</ele>
        <time>2020-09-18T11:21:26.899Z</time>
      </trkpt>
      <trkpt lat="48.578105" lon="16.737165">
        <ele>337.322733</ele>
        <time>2020-09-18T11:21:27.893Z</time>
      </trkpt>
      <trkpt lat="48.578108" lon="16.737022">
        <ele>337.490129</ele>
        <time>2020-09-18T11:21:28.898Z</time>
      </trkpt>
      <trkpt lat="48.578110" lon="16.736877">
        <ele>337.659817</ele>
        <time>2020-09-18T11:21:29.899Z</time>
      </trkpt>
      <trkpt lat="48.578116" lon="16.736728">
        <ele>337.834472</ele>
        <time>2020-09-18T11:21:30.928Z</time>
      </trkpt>
      <trkpt lat="48.578124" lon="16.736574">
        <ele>338.015208</ele>
        <time>2020-09-18T11:21:31.900Z</time>
      </trkpt>
      <trkpt lat="48.578130" lon="16.736418">
        <ele>338.198038</ele>
        <time>2020-09-18T11:21:32.910Z</time>
      </trkpt>
      <trkpt lat="48.578136" lon="16.736259">
        <ele>338.384372</ele>
        <time>2020-09-18T11:21:33.932Z</time>
      </trkpt>
      <trkpt lat="48.578148" lon="16.736098">
        <ele>338.573935</ele>
        <time>2020-09-18T11:21:34.918Z</time>
      </trkpt>
      <trkpt lat="48.578157" lon="16.735936">
        <ele>338.764144</ele>
        <time>2020-09-18T11:21:35.909Z</time>
      </trkpt>
      <trkpt lat="48.578170" lon="16.735774">
        <ele>338.955075</ele>
        <time>2020-09-18T11:21:36.901Z</time>
      </trkpt>
      <trkpt lat="48.578179" lon="16.735611">
        <ele>339.146450</ele>
        <time>2020-09-18T11:21:37.899Z</time>
      </trkpt>
      <trkpt lat="48.578185" lon="16.735445">
        <ele>339.340961</ele>
        <time>2020-09-18T11:21:38.900Z</time>
      </trkpt>
      <trkpt lat="48.578192" lon="16.735278">
        <ele>339.536744</ele>
        <time>2020-09-18T11:21:39.898Z</time>
      </trkpt>
      <trkpt lat="48.578208" lon="16.735104">
        <ele>339.742283</ele>
        <time>2020-09-18T11:21:40.918Z</time>
      </trkpt>
      <trkpt lat="48.578220" lon="16.734929">
        <ele>339.786528</ele>
        <time>2020-09-18T11:21:41.906Z</time>
      </trkpt>
      <trkpt lat="48.578229" lon="16.734752">
        <ele>339.813380</ele>
        <time>2020-09-18T11:21:42.922Z</time>
      </trkpt>
      <trkpt lat="48.578236" lon="16.734571">
        <ele>339.840805</ele>
        <time>2020-09-18T11:21:43.908Z</time>
      </trkpt>
      <trkpt lat="48.578242" lon="16.734389">
        <ele>339.868368</ele>
        <time>2020-09-18T11:21:44.900Z</time>
      </trkpt>
      <trkpt lat="48.578247" lon="16.734205">
        <ele>339.896224</ele>
        <time>2020-09-18T11:21:45.906Z</time>
      </trkpt>
      <trkpt lat="48.578253" lon="16.734020">
        <ele>339.924240</ele>
        <time>2020-09-18T11:21:46.911Z</time>
      </trkpt>
      <trkpt lat="48.578260" lon="16.733834">
        <ele>339.952420</ele>
        <time>2020-09-18T11:21:47.926Z</time>
      </trkpt>
      <trkpt lat="48.578267" lon="16.733649">
        <ele>339.980449</ele>
        <time>2020-09-18T11:21:48.906Z</time>
      </trkpt>
      <trkpt lat="48.578272" lon="16.733464">
        <ele>340.008455</ele>
        <time>2020-09-18T11:21:49.935Z</time>
      </trkpt>
      <trkpt lat="48.578276" lon="16.733281">
        <ele>340.036151</ele>
        <time>2020-09-18T11:21:50.906Z</time>
      </trkpt>
      <trkpt lat="48.578281" lon="16.733100">
        <ele>340.063553</ele>
        <time>2020-09-18T11:21:51.897Z</time>
      </trkpt>
      <trkpt lat="48.578279" lon="16.732917">
        <ele>340.091237</ele>
        <time>2020-09-18T11:21:52.903Z</time>
      </trkpt>
      <trkpt lat="48.578281" lon="16.732734">
        <ele>340.118922</ele>
        <time>2020-09-18T11:21:53.918Z</time>
      </trkpt>
      <trkpt lat="48.578283" lon="16.732553">
        <ele>340.146303</ele>
        <time>2020-09-18T11:21:54.903Z</time>
      </trkpt>
      <trkpt lat="48.578281" lon="16.732370">
        <ele>340.172316</ele>
        <time>2020-09-18T11:21:55.928Z</time>
      </trkpt>
      <trkpt lat="48.578283" lon="16.732191">
        <ele>340.004728</ele>
        <time>2020-09-18T11:21:56.903Z</time>
      </trkpt>
      <trkpt lat="48.578284" lon="16.732030">
        <ele>339.854007</ele>
        <time>2020-09-18T11:21:57.950Z</time>
      </trkpt>
      <trkpt lat="48.578283" lon="16.731787">
        <ele>339.626527</ele>
        <time>2020-09-18T11:21:59.902Z</time>
      </trkpt>
      <trkpt lat="48.578288" lon="16.731582">
        <ele>339.434494</ele>
        <time>2020-09-18T11:22:01.892Z</time>
      </trkpt>
      <trkpt lat="48.578296" lon="16.731362">
        <ele>339.228238</ele>
        <time>2020-09-18T11:22:03.906Z</time>
      </trkpt>
      <trkpt lat="48.578306" lon="16.731154">
        <ele>339.033013</ele>
        <time>2020-09-18T11:22:05.902Z</time>
      </trkpt>
      <trkpt lat="48.578348" lon="16.731007">
        <ele>338.883121</ele>
        <time>2020-09-18T11:22:07.891Z</time>
      </trkpt>
      <trkpt lat="48.578438" lon="16.730955">
        <ele>338.746790</ele>
        <time>2020-09-18T11:22:09.895Z</time>
      </trkpt>
      <trkpt lat="48.578530" lon="16.730973">
        <ele>338.615530</ele>
        <time>2020-09-18T11:22:11.897Z</time>
      </trkpt>
      <trkpt lat="48.578653" lon="16.731028">
        <ele>338.434038</ele>
        <time>2020-09-18T11:22:14.907Z</time>
      </trkpt>
      <trkpt lat="48.578772" lon="16.731055">
        <ele>338.263775</ele>
        <time>2020-09-18T11:22:17.906Z</time>
      </trkpt>
      <trkpt lat="48.578882" lon="16.731093">
        <ele>338.104119</ele>
        <time>2020-09-18T11:22:20.911Z</time>
      </trkpt>
      <trkpt lat="48.579004" lon="16.731118">
        <ele>337.929918</ele>
        <time>2020-09-18T11:22:23.903Z</time>
      </trkpt>
      <trkpt lat="48.579134" lon="16.731155">
        <ele>337.742745</ele>
        <time>2020-09-18T11:22:26.905Z</time>
      </trkpt>
      <trkpt lat="48.579263" lon="16.731185">
        <ele>337.614828</ele>
        <time>2020-09-18T11:22:29.900Z</time>
      </trkpt>
      <trkpt lat="48.579397" lon="16.731212">
        <ele>337.577047</ele>
        <time>2020-09-18T11:22:32.912Z</time>
      </trkpt>
      <trkpt lat="48.579487" lon="16.731233">
        <ele>337.551596</ele>
        <time>2020-09-18T11:22:34.898Z</time>
      </trkpt>
      <trkpt lat="48.579580" lon="16.731269">
        <ele>337.524766</ele>
        <time>2020-09-18T11:22:36.916Z</time>
      </trkpt>
      <trkpt lat="48.579688" lon="16.731307">
        <ele>337.493776</ele>
        <time>2020-09-18T11:22:38.932Z</time>
      </trkpt>
      <trkpt lat="48.579795" lon="16.731340">
        <ele>337.463256</ele>
        <time>2020-09-18T11:22:40.921Z</time>
      </trkpt>
      <trkpt lat="48.579899" lon="16.731366">
        <ele>337.433796</ele>
        <time>2020-09-18T11:22:42.926Z</time>
      </trkpt>
      <trkpt lat="48.579989" lon="16.731401">
        <ele>337.407824</ele>
        <time>2020-09-18T11:22:44.923Z</time>
      </trkpt>
      <trkpt lat="48.580121" lon="16.731438">
        <ele>337.370304</ele>
        <time>2020-09-18T11:22:47.910Z</time>
      </trkpt>
      <trkpt lat="48.580210" lon="16.731467">
        <ele>337.344859</ele>
        <time>2020-09-18T11:22:49.928Z</time>
      </trkpt>
      <trkpt lat="48.580297" lon="16.731502">
        <ele>337.319699</ele>
        <time>2020-09-18T11:22:51.923Z</time>
      </trkpt>
      <trkpt lat="48.580385" lon="16.731532">
        <ele>337.294487</ele>
        <time>2020-09-18T11:22:53.918Z</time>
      </trkpt>
      <trkpt lat="48.580514" lon="16.731563">
        <ele>337.257982</ele>
        <time>2020-09-18T11:22:56.926Z</time>
      </trkpt>
      <trkpt lat="48.580639" lon="16.731603">
        <ele>337.222273</ele>
        <time>2020-09-18T11:22:59.921Z</time>
      </trkpt>
      <trkpt lat="48.580762" lon="16.731641">
        <ele>337.187187</ele>
        <time>2020-09-18T11:23:02.940Z</time>
      </trkpt>
      <trkpt lat="48.580886" lon="16.731681">
        <ele>337.151752</ele>
        <time>2020-09-18T11:23:05.921Z</time>
      </trkpt>
      <trkpt lat="48.581019" lon="16.731716">
        <ele>337.145364</ele>
        <time>2020-09-18T11:23:08.900Z</time>
      </trkpt>
      <trkpt lat="48.581112" lon="16.731739">
        <ele>337.187251</ele>
        <time>2020-09-18T11:23:10.922Z</time>
      </trkpt>
      <trkpt lat="48.581206" lon="16.731766">
        <ele>337.229781</ele>
        <time>2020-09-18T11:23:12.937Z</time>
      </trkpt>
      <trkpt lat="48.581296" lon="16.731798">
        <ele>337.270876</ele>
        <time>2020-09-18T11:23:14.907Z</time>
      </trkpt>
      <trkpt lat="48.581386" lon="16.731827">
        <ele>337.311779</ele>
        <time>2020-09-18T11:23:16.931Z</time>
      </trkpt>
      <trkpt lat="48.581515" lon="16.731861">
        <ele>337.369983</ele>
        <time>2020-09-18T11:23:19.923Z</time>
      </trkpt>
      <trkpt lat="48.581636" lon="16.731889">
        <ele>337.424393</ele>
        <time>2020-09-18T11:23:22.914Z</time>
      </trkpt>
      <trkpt lat="48.581766" lon="16.731931">
        <ele>337.483481</ele>
        <time>2020-09-18T11:23:25.895Z</time>
      </trkpt>
      <trkpt lat="48.581857" lon="16.731960">
        <ele>337.524819</ele>
        <time>2020-09-18T11:23:27.925Z</time>
      </trkpt>
      <trkpt lat="48.581951" lon="16.731987">
        <ele>337.567349</ele>
        <time>2020-09-18T11:23:29.938Z</time>
      </trkpt>
      <trkpt lat="48.582048" lon="16.732006">
        <ele>337.610824</ele>
        <time>2020-09-18T11:23:31.905Z</time>
      </trkpt>
      <trkpt lat="48.582144" lon="16.732033">
        <ele>337.654228</ele>
        <time>2020-09-18T11:23:33.917Z</time>
      </trkpt>
      <trkpt lat="48.582243" lon="16.732061">
        <ele>337.698996</ele>
        <time>2020-09-18T11:23:35.916Z</time>
      </trkpt>
      <trkpt lat="48.582344" lon="16.732089">
        <ele>337.744638</ele>
        <time>2020-09-18T11:23:37.902Z</time>
      </trkpt>
      <trkpt lat="48.582446" lon="16.732115">
        <ele>337.790616</ele>
        <time>2020-09-18T11:23:39.926Z</time>
      </trkpt>
      <trkpt lat="48.582542" lon="16.732140">
        <ele>337.833915</ele>
        <time>2020-09-18T11:23:41.917Z</time>
      </trkpt>
      <trkpt lat="48.582662" lon="16.732168">
        <ele>337.887885</ele>
        <time>2020-09-18T11:23:44.922Z</time>
      </trkpt>
      <trkpt lat="48.582786" lon="16.732188">
        <ele>337.898344</ele>
        <time>2020-09-18T11:23:47.895Z</time>
      </trkpt>
      <trkpt lat="48.582913" lon="16.732213">
        <ele>337.810775</ele>
        <time>2020-09-18T11:23:50.935Z</time>
      </trkpt>
      <trkpt lat="48.583047" lon="16.732237">
        <ele>337.718512</ele>
        <time>2020-09-18T11:23:53.908Z</time>
      </trkpt>
      <trkpt lat="48.583140" lon="16.732259">
        <ele>337.654149</ele>
        <time>2020-09-18T11:23:55.918Z</time>
      </trkpt>
      <trkpt lat="48.583235" lon="16.732282">
        <ele>337.588366</ele>
        <time>2020-09-18T11:23:57.905Z</time>
      </trkpt>
      <trkpt lat="48.583334" lon="16.732298">
        <ele>337.520289</ele>
        <time>2020-09-18T11:23:59.899Z</time>
      </trkpt>
      <trkpt lat="48.583434" lon="16.732316">
        <ele>337.451431</ele>
        <time>2020-09-18T11:24:01.938Z</time>
      </trkpt>
      <trkpt lat="48.583530" lon="16.732333">
        <ele>337.385343</ele>
        <time>2020-09-18T11:24:03.900Z</time>
      </trkpt>
      <trkpt lat="48.583619" lon="16.732357">
        <ele>337.323529</ele>
        <time>2020-09-18T11:24:05.892Z</time>
      </trkpt>
      <trkpt lat="48.583709" lon="16.732378">
        <ele>337.261263</ele>
        <time>2020-09-18T11:24:09.903Z</time>
      </trkpt>
      <trkpt lat="48.583843" lon="16.732396">
        <ele>337.169280</ele>
        <time>2020-09-18T11:25:08.894Z</time>
      </trkpt>
      <trkpt lat="48.583945" lon="16.732410">
        <ele>337.099251</ele>
        <time>2020-09-18T11:25:10.905Z</time>
      </trkpt>
      <trkpt lat="48.584072" lon="16.732421">
        <ele>337.012273</ele>
        <time>2020-09-18T11:25:12.893Z</time>
      </trkpt>
      <trkpt lat="48.584213" lon="16.732437">
        <ele>336.915593</ele>
        <time>2020-09-18T11:25:14.886Z</time>
      </trkpt>
      <trkpt lat="48.584348" lon="16.732454">
        <ele>336.822968</ele>
        <time>2020-09-18T11:25:16.889Z</time>
      </trkpt>
      <trkpt lat="48.584454" lon="16.732475">
        <ele>336.749871</ele>
        <time>2020-09-18T11:25:18.889Z</time>
      </trkpt>
      <trkpt lat="48.584577" lon="16.732499">
        <ele>336.643766</ele>
        <time>2020-09-18T11:25:21.884Z</time>
      </trkpt>
      <trkpt lat="48.584707" lon="16.732521">
        <ele>336.492271</ele>
        <time>2020-09-18T11:25:24.888Z</time>
      </trkpt>
      <trkpt lat="48.584832" lon="16.732547">
        <ele>336.346142</ele>
        <time>2020-09-18T11:25:27.885Z</time>
      </trkpt>
      <trkpt lat="48.584958" lon="16.732576">
        <ele>336.198538</ele>
        <time>2020-09-18T11:25:30.894Z</time>
      </trkpt>
      <trkpt lat="48.585073" lon="16.732599">
        <ele>336.064194</ele>
        <time>2020-09-18T11:25:33.890Z</time>
      </trkpt>
      <trkpt lat="48.585189" lon="16.732621">
        <ele>335.928799</ele>
        <time>2020-09-18T11:25:36.886Z</time>
      </trkpt>
      <trkpt lat="48.585313" lon="16.732644">
        <ele>335.784115</ele>
        <time>2020-09-18T11:25:39.886Z</time>
      </trkpt>
      <trkpt lat="48.585436" lon="16.732672">
        <ele>335.640061</ele>
        <time>2020-09-18T11:25:42.885Z</time>
      </trkpt>
      <trkpt lat="48.585558" lon="16.732697">
        <ele>335.497478</ele>
        <time>2020-09-18T11:25:45.882Z</time>
      </trkpt>
      <trkpt lat="48.585688" lon="16.732713">
        <ele>335.346425</ele>
        <time>2020-09-18T11:25:48.887Z</time>
      </trkpt>
      <trkpt lat="48.585822" lon="16.732729">
        <ele>335.190754</ele>
        <time>2020-09-18T11:25:51.878Z</time>
      </trkpt>
      <trkpt lat="48.585915" lon="16.732747">
        <ele>335.082170</ele>
        <time>2020-09-18T11:25:53.889Z</time>
      </trkpt>
      <trkpt lat="48.586007" lon="16.732773">
        <ele>334.973777</ele>
        <time>2020-09-18T11:25:55.881Z</time>
      </trkpt>
      <trkpt lat="48.586105" lon="16.732791">
        <ele>334.859447</ele>
        <time>2020-09-18T11:25:57.890Z</time>
      </trkpt>
      <trkpt lat="48.586199" lon="16.732806">
        <ele>334.749979</ele>
        <time>2020-09-18T11:25:59.884Z</time>
      </trkpt>
      <trkpt lat="48.586319" lon="16.732821">
        <ele>334.608687</ele>
        <time>2020-09-18T11:26:02.888Z</time>
      </trkpt>
      <trkpt lat="48.586584" lon="16.732730">
        <ele>334.031531</ele>
        <time>2020-09-18T11:26:46.897Z</time>
      </trkpt>
      <trkpt lat="48.586707" lon="16.732680">
        <ele>333.761019</ele>
        <time>2020-09-18T11:26:49.901Z</time>
      </trkpt>
      <trkpt lat="48.586798" lon="16.732650">
        <ele>333.563207</ele>
        <time>2020-09-18T11:26:51.899Z</time>
      </trkpt>
      <trkpt lat="48.586893" lon="16.732616">
        <ele>333.355865</ele>
        <time>2020-09-18T11:26:53.926Z</time>
      </trkpt>
      <trkpt lat="48.586989" lon="16.732587">
        <ele>333.147945</ele>
        <time>2020-09-18T11:26:55.908Z</time>
      </trkpt>
      <trkpt lat="48.587086" lon="16.732563">
        <ele>332.939192</ele>
        <time>2020-09-18T11:26:57.899Z</time>
      </trkpt>
      <trkpt lat="48.587187" lon="16.732530">
        <ele>332.719731</ele>
        <time>2020-09-18T11:26:59.914Z</time>
      </trkpt>
      <trkpt lat="48.587285" lon="16.732496">
        <ele>332.506184</ele>
        <time>2020-09-18T11:27:01.898Z</time>
      </trkpt>
      <trkpt lat="48.587390" lon="16.732457">
        <ele>332.276548</ele>
        <time>2020-09-18T11:27:03.924Z</time>
      </trkpt>
      <trkpt lat="48.587495" lon="16.732412">
        <ele>332.044757</ele>
        <time>2020-09-18T11:27:05.892Z</time>
      </trkpt>
      <trkpt lat="48.587601" lon="16.732366">
        <ele>331.810538</ele>
        <time>2020-09-18T11:27:07.891Z</time>
      </trkpt>
      <trkpt lat="48.587713" lon="16.732326">
        <ele>331.566120</ele>
        <time>2020-09-18T11:27:09.909Z</time>
      </trkpt>
      <trkpt lat="48.587831" lon="16.732272">
        <ele>331.304276</ele>
        <time>2020-09-18T11:27:11.911Z</time>
      </trkpt>
      <trkpt lat="48.587944" lon="16.732227">
        <ele>331.056095</ele>
        <time>2020-09-18T11:27:13.932Z</time>
      </trkpt>
      <trkpt lat="48.588059" lon="16.732182">
        <ele>330.803804</ele>
        <time>2020-09-18T11:27:15.922Z</time>
      </trkpt>
      <trkpt lat="48.588177" lon="16.732144">
        <ele>330.455018</ele>
        <time>2020-09-18T11:27:17.898Z</time>
      </trkpt>
      <trkpt lat="48.588291" lon="16.732092">
        <ele>330.106640</ele>
        <time>2020-09-18T11:27:19.923Z</time>
      </trkpt>
      <trkpt lat="48.588409" lon="16.732046">
        <ele>329.750117</ele>
        <time>2020-09-18T11:27:21.898Z</time>
      </trkpt>
      <trkpt lat="48.588531" lon="16.732013">
        <ele>329.387516</ele>
        <time>2020-09-18T11:27:23.900Z</time>
      </trkpt>
      <trkpt lat="48.588657" lon="16.731974">
        <ele>329.011234</ele>
        <time>2020-09-18T11:27:25.932Z</time>
      </trkpt>
      <trkpt lat="48.588785" lon="16.731926">
        <ele>328.625398</ele>
        <time>2020-09-18T11:27:27.954Z</time>
      </trkpt>
      <trkpt lat="48.588909" lon="16.731882">
        <ele>328.252755</ele>
        <time>2020-09-18T11:27:29.918Z</time>
      </trkpt>
      <trkpt lat="48.589032" lon="16.731841">
        <ele>327.884254</ele>
        <time>2020-09-18T11:27:31.919Z</time>
      </trkpt>
      <trkpt lat="48.589160" lon="16.731798">
        <ele>327.500633</ele>
        <time>2020-09-18T11:27:33.919Z</time>
      </trkpt>
      <trkpt lat="48.589290" lon="16.731753">
        <ele>327.110453</ele>
        <time>2020-09-18T11:27:35.915Z</time>
      </trkpt>
      <trkpt lat="48.589424" lon="16.731694">
        <ele>326.702124</ele>
        <time>2020-09-18T11:27:37.939Z</time>
      </trkpt>
      <trkpt lat="48.589572" lon="16.731642">
        <ele>326.257584</ele>
        <time>2020-09-18T11:27:39.919Z</time>
      </trkpt>
      <trkpt lat="48.589721" lon="16.731587">
        <ele>325.808853</ele>
        <time>2020-09-18T11:27:41.910Z</time>
      </trkpt>
      <trkpt lat="48.589861" lon="16.731531">
        <ele>325.303500</ele>
        <time>2020-09-18T11:27:43.935Z</time>
      </trkpt>
      <trkpt lat="48.590000" lon="16.731481">
        <ele>324.650521</ele>
        <time>2020-09-18T11:27:45.928Z</time>
      </trkpt>
      <trkpt lat="48.590140" lon="16.731423">
        <ele>323.987117</ele>
        <time>2020-09-18T11:27:47.912Z</time>
      </trkpt>
      <trkpt lat="48.590285" lon="16.731387">
        <ele>323.315575</ele>
        <time>2020-09-18T11:27:49.899Z</time>
      </trkpt>
      <trkpt lat="48.590433" lon="16.731339">
        <ele>322.623809</ele>
        <time>2020-09-18T11:27:51.909Z</time>
      </trkpt>
      <trkpt lat="48.590579" lon="16.731281">
        <ele>321.933923</ele>
        <time>2020-09-18T11:27:53.894Z</time>
      </trkpt>
      <trkpt lat="48.590723" lon="16.731231">
        <ele>321.258693</ele>
        <time>2020-09-18T11:27:55.902Z</time>
      </trkpt>
      <trkpt lat="48.590870" lon="16.731179">
        <ele>320.568742</ele>
        <time>2020-09-18T11:27:57.932Z</time>
      </trkpt>
      <trkpt lat="48.591019" lon="16.731123">
        <ele>319.867070</ele>
        <time>2020-09-18T11:27:59.908Z</time>
      </trkpt>
      <trkpt lat="48.591168" lon="16.731059">
        <ele>319.159175</ele>
        <time>2020-09-18T11:28:01.932Z</time>
      </trkpt>
      <trkpt lat="48.591321" lon="16.731003">
        <ele>318.439748</ele>
        <time>2020-09-18T11:28:03.888Z</time>
      </trkpt>
      <trkpt lat="48.591477" lon="16.730950">
        <ele>317.709032</ele>
        <time>2020-09-18T11:28:05.899Z</time>
      </trkpt>
      <trkpt lat="48.591636" lon="16.730889">
        <ele>317.005311</ele>
        <time>2020-09-18T11:28:07.897Z</time>
      </trkpt>
      <trkpt lat="48.591797" lon="16.730821">
        <ele>316.341352</ele>
        <time>2020-09-18T11:28:09.890Z</time>
      </trkpt>
      <trkpt lat="48.591957" lon="16.730746">
        <ele>315.676005</ele>
        <time>2020-09-18T11:28:11.903Z</time>
      </trkpt>
      <trkpt lat="48.592120" lon="16.730665">
        <ele>314.994513</ele>
        <time>2020-09-18T11:28:13.909Z</time>
      </trkpt>
      <trkpt lat="48.592286" lon="16.730586">
        <ele>314.303286</ele>
        <time>2020-09-18T11:28:15.923Z</time>
      </trkpt>
      <trkpt lat="48.592459" lon="16.730528">
        <ele>313.599457</ele>
        <time>2020-09-18T11:28:17.914Z</time>
      </trkpt>
      <trkpt lat="48.592630" lon="16.730568">
        <ele>312.912182</ele>
        <time>2020-09-18T11:28:19.917Z</time>
      </trkpt>
      <trkpt lat="48.592800" lon="16.730602">
        <ele>312.231078</ele>
        <time>2020-09-18T11:28:21.926Z</time>
      </trkpt>
      <trkpt lat="48.592963" lon="16.730632">
        <ele>311.578879</ele>
        <time>2020-09-18T11:28:23.904Z</time>
      </trkpt>
      <trkpt lat="48.593119" lon="16.730673">
        <ele>310.949972</ele>
        <time>2020-09-18T11:28:25.905Z</time>
      </trkpt>
      <trkpt lat="48.593271" lon="16.730732">
        <ele>310.326665</ele>
        <time>2020-09-18T11:28:27.930Z</time>
      </trkpt>
      <trkpt lat="48.593421" lon="16.730789">
        <ele>309.792024</ele>
        <time>2020-09-18T11:28:29.900Z</time>
      </trkpt>
      <trkpt lat="48.593570" lon="16.730841">
        <ele>309.291220</ele>
        <time>2020-09-18T11:28:31.912Z</time>
      </trkpt>
      <trkpt lat="48.593717" lon="16.730875">
        <ele>308.804197</ele>
        <time>2020-09-18T11:28:33.897Z</time>
      </trkpt>
      <trkpt lat="48.593860" lon="16.730924">
        <ele>308.323998</ele>
        <time>2020-09-18T11:28:35.901Z</time>
      </trkpt>
      <trkpt lat="48.594002" lon="16.730987">
        <ele>307.839343</ele>
        <time>2020-09-18T11:28:37.900Z</time>
      </trkpt>
      <trkpt lat="48.594148" lon="16.731063">
        <ele>307.333651</ele>
        <time>2020-09-18T11:28:39.924Z</time>
      </trkpt>
      <trkpt lat="48.594301" lon="16.731131">
        <ele>306.811379</ele>
        <time>2020-09-18T11:28:41.897Z</time>
      </trkpt>
      <trkpt lat="48.594472" lon="16.731156">
        <ele>306.248744</ele>
        <time>2020-09-18T11:28:43.914Z</time>
      </trkpt>
      <trkpt lat="48.594647" lon="16.731140">
        <ele>305.674575</ele>
        <time>2020-09-18T11:28:45.889Z</time>
      </trkpt>
      <trkpt lat="48.594822" lon="16.731137">
        <ele>305.101416</ele>
        <time>2020-09-18T11:28:47.898Z</time>
      </trkpt>
      <trkpt lat="48.595001" lon="16.731128">
        <ele>304.514870</ele>
        <time>2020-09-18T11:28:49.933Z</time>
      </trkpt>
      <trkpt lat="48.595093" lon="16.731115">
        <ele>304.208705</ele>
        <time>2020-09-18T11:28:50.930Z</time>
      </trkpt>
      <trkpt lat="48.595184" lon="16.731077">
        <ele>303.882256</ele>
        <time>2020-09-18T11:28:51.915Z</time>
      </trkpt>
      <trkpt lat="48.595278" lon="16.731038">
        <ele>303.545200</ele>
        <time>2020-09-18T11:28:52.911Z</time>
      </trkpt>
      <trkpt lat="48.595376" lon="16.731010">
        <ele>303.200330</ele>
        <time>2020-09-18T11:28:53.933Z</time>
      </trkpt>
      <trkpt lat="48.595476" lon="16.730980">
        <ele>302.847800</ele>
        <time>2020-09-18T11:28:54.898Z</time>
      </trkpt>
      <trkpt lat="48.595579" lon="16.730986">
        <ele>302.491373</ele>
        <time>2020-09-18T11:28:55.900Z</time>
      </trkpt>
      <trkpt lat="48.595686" lon="16.730985">
        <ele>302.121372</ele>
        <time>2020-09-18T11:28:56.905Z</time>
      </trkpt>
      <trkpt lat="48.595796" lon="16.731017">
        <ele>301.734028</ele>
        <time>2020-09-18T11:28:57.919Z</time>
      </trkpt>
      <trkpt lat="48.595907" lon="16.731044">
        <ele>301.345267</ele>
        <time>2020-09-18T11:28:58.893Z</time>
      </trkpt>
      <trkpt lat="48.596019" lon="16.731071">
        <ele>300.953092</ele>
        <time>2020-09-18T11:28:59.909Z</time>
      </trkpt>
      <trkpt lat="48.596133" lon="16.731067">
        <ele>300.558786</ele>
        <time>2020-09-18T11:29:00.914Z</time>
      </trkpt>
      <trkpt lat="48.596247" lon="16.731068">
        <ele>300.164580</ele>
        <time>2020-09-18T11:29:01.914Z</time>
      </trkpt>
      <trkpt lat="48.596363" lon="16.731064">
        <ele>299.763361</ele>
        <time>2020-09-18T11:29:02.898Z</time>
      </trkpt>
      <trkpt lat="48.596478" lon="16.731069">
        <ele>299.365539</ele>
        <time>2020-09-18T11:29:03.915Z</time>
      </trkpt>
      <trkpt lat="48.596594" lon="16.731075">
        <ele>298.964189</ele>
        <time>2020-09-18T11:29:04.901Z</time>
      </trkpt>
      <trkpt lat="48.596711" lon="16.731072">
        <ele>298.559558</ele>
        <time>2020-09-18T11:29:05.928Z</time>
      </trkpt>
      <trkpt lat="48.596828" lon="16.731060">
        <ele>298.154055</ele>
        <time>2020-09-18T11:29:06.914Z</time>
      </trkpt>
      <trkpt lat="48.596943" lon="16.731046">
        <ele>297.950759</ele>
        <time>2020-09-18T11:29:07.901Z</time>
      </trkpt>
      <trkpt lat="48.597058" lon="16.731032">
        <ele>297.810889</ele>
        <time>2020-09-18T11:29:08.917Z</time>
      </trkpt>
      <trkpt lat="48.597174" lon="16.731023">
        <ele>297.670073</ele>
        <time>2020-09-18T11:29:09.924Z</time>
      </trkpt>
      <trkpt lat="48.597289" lon="16.731010">
        <ele>297.530265</ele>
        <time>2020-09-18T11:29:10.924Z</time>
      </trkpt>
      <trkpt lat="48.597404" lon="16.730999">
        <ele>297.390568</ele>
        <time>2020-09-18T11:29:11.908Z</time>
      </trkpt>
      <trkpt lat="48.597518" lon="16.730977">
        <ele>297.251240</ele>
        <time>2020-09-18T11:29:12.897Z</time>
      </trkpt>
      <trkpt lat="48.597632" lon="16.730955">
        <ele>297.111913</ele>
        <time>2020-09-18T11:29:13.900Z</time>
      </trkpt>
      <trkpt lat="48.597745" lon="16.730928">
        <ele>296.973219</ele>
        <time>2020-09-18T11:29:14.901Z</time>
      </trkpt>
      <trkpt lat="48.597856" lon="16.730897">
        <ele>296.836374</ele>
        <time>2020-09-18T11:29:15.892Z</time>
      </trkpt>
      <trkpt lat="48.597967" lon="16.730870">
        <ele>296.700074</ele>
        <time>2020-09-18T11:29:16.915Z</time>
      </trkpt>
      <trkpt lat="48.598076" lon="16.730847">
        <ele>296.566649</ele>
        <time>2020-09-18T11:29:17.885Z</time>
      </trkpt>
      <trkpt lat="48.598183" lon="16.730829">
        <ele>296.436129</ele>
        <time>2020-09-18T11:29:18.923Z</time>
      </trkpt>
      <trkpt lat="48.598287" lon="16.730813">
        <ele>296.309395</ele>
        <time>2020-09-18T11:29:19.912Z</time>
      </trkpt>
      <trkpt lat="48.598390" lon="16.730802">
        <ele>296.184213</ele>
        <time>2020-09-18T11:29:20.926Z</time>
      </trkpt>
      <trkpt lat="48.598490" lon="16.730795">
        <ele>296.062850</ele>
        <time>2020-09-18T11:29:21.905Z</time>
      </trkpt>
      <trkpt lat="48.598590" lon="16.730796">
        <ele>295.941613</ele>
        <time>2020-09-18T11:29:22.899Z</time>
      </trkpt>
      <trkpt lat="48.598689" lon="16.730798">
        <ele>295.653879</ele>
        <time>2020-09-18T11:29:23.902Z</time>
      </trkpt>
      <trkpt lat="48.598786" lon="16.730795">
        <ele>295.172616</ele>
        <time>2020-09-18T11:29:24.916Z</time>
      </trkpt>
      <trkpt lat="48.598882" lon="16.730778">
        <ele>294.693159</ele>
        <time>2020-09-18T11:29:25.901Z</time>
      </trkpt>
      <trkpt lat="48.599030" lon="16.730793">
        <ele>293.957366</ele>
        <time>2020-09-18T11:29:27.932Z</time>
      </trkpt>
      <trkpt lat="48.599131" lon="16.730795">
        <ele>293.456318</ele>
        <time>2020-09-18T11:29:29.893Z</time>
      </trkpt>
      <trkpt lat="48.599218" lon="16.730641">
        <ele>292.791894</ele>
        <time>2020-09-18T11:29:32.898Z</time>
      </trkpt>
      <trkpt lat="48.599247" lon="16.730457">
        <ele>292.171387</ele>
        <time>2020-09-18T11:29:34.903Z</time>
      </trkpt>
      <trkpt lat="48.599273" lon="16.730263">
        <ele>291.522043</ele>
        <time>2020-09-18T11:29:36.898Z</time>
      </trkpt>
      <trkpt lat="48.599306" lon="16.730051">
        <ele>290.807583</ele>
        <time>2020-09-18T11:29:38.927Z</time>
      </trkpt>
      <trkpt lat="48.599356" lon="16.729833">
        <ele>290.050658</ele>
        <time>2020-09-18T11:29:40.910Z</time>
      </trkpt>
      <trkpt lat="48.599404" lon="16.729612">
        <ele>289.287583</ele>
        <time>2020-09-18T11:29:42.946Z</time>
      </trkpt>
      <trkpt lat="48.599449" lon="16.729383">
        <ele>288.503900</ele>
        <time>2020-09-18T11:29:44.908Z</time>
      </trkpt>
      <trkpt lat="48.599491" lon="16.729139">
        <ele>287.676804</ele>
        <time>2020-09-18T11:29:46.939Z</time>
      </trkpt>
      <trkpt lat="48.599532" lon="16.728889">
        <ele>286.821889</ele>
        <time>2020-09-18T11:29:48.957Z</time>
      </trkpt>
      <trkpt lat="48.599590" lon="16.728641">
        <ele>285.888421</ele>
        <time>2020-09-18T11:29:50.907Z</time>
      </trkpt>
      <trkpt lat="48.599638" lon="16.728390">
        <ele>284.961227</ele>
        <time>2020-09-18T11:29:52.916Z</time>
      </trkpt>
      <trkpt lat="48.599685" lon="16.728133">
        <ele>284.015005</ele>
        <time>2020-09-18T11:29:54.905Z</time>
      </trkpt>
      <trkpt lat="48.599736" lon="16.727879">
        <ele>283.073031</ele>
        <time>2020-09-18T11:29:56.892Z</time>
      </trkpt>
      <trkpt lat="48.599790" lon="16.727627">
        <ele>282.133009</ele>
        <time>2020-09-18T11:29:58.920Z</time>
      </trkpt>
      <trkpt lat="48.599839" lon="16.727367">
        <ele>281.173640</ele>
        <time>2020-09-18T11:30:00.903Z</time>
      </trkpt>
      <trkpt lat="48.599871" lon="16.727101">
        <ele>280.214222</ele>
        <time>2020-09-18T11:30:02.912Z</time>
      </trkpt>
      <trkpt lat="48.599893" lon="16.726842">
        <ele>279.287586</ele>
        <time>2020-09-18T11:30:04.914Z</time>
      </trkpt>
      <trkpt lat="48.599898" lon="16.726589">
        <ele>278.389392</ele>
        <time>2020-09-18T11:30:06.910Z</time>
      </trkpt>
      <trkpt lat="48.599899" lon="16.726344">
        <ele>277.519970</ele>
        <time>2020-09-18T11:30:08.892Z</time>
      </trkpt>
      <trkpt lat="48.599900" lon="16.726109">
        <ele>276.862626</ele>
        <time>2020-09-18T11:30:10.903Z</time>
      </trkpt>
      <trkpt lat="48.599883" lon="16.725885">
        <ele>276.291801</ele>
        <time>2020-09-18T11:30:12.905Z</time>
      </trkpt>
      <trkpt lat="48.599864" lon="16.725668">
        <ele>275.737626</ele>
        <time>2020-09-18T11:30:14.905Z</time>
      </trkpt>
      <trkpt lat="48.599849" lon="16.725459">
        <ele>275.205392</ele>
        <time>2020-09-18T11:30:16.901Z</time>
      </trkpt>
      <trkpt lat="48.599828" lon="16.725261">
        <ele>274.697708</ele>
        <time>2020-09-18T11:30:18.915Z</time>
      </trkpt>
      <trkpt lat="48.599823" lon="16.725067">
        <ele>274.206183</ele>
        <time>2020-09-18T11:30:20.896Z</time>
      </trkpt>
      <trkpt lat="48.599805" lon="16.724877">
        <ele>273.720248</ele>
        <time>2020-09-18T11:30:22.912Z</time>
      </trkpt>
      <trkpt lat="48.599787" lon="16.724690">
        <ele>273.241829</ele>
        <time>2020-09-18T11:30:24.911Z</time>
      </trkpt>
      <trkpt lat="48.599775" lon="16.724500">
        <ele>272.758615</ele>
        <time>2020-09-18T11:30:26.892Z</time>
      </trkpt>
      <trkpt lat="48.599772" lon="16.724313">
        <ele>272.285045</ele>
        <time>2020-09-18T11:30:28.912Z</time>
      </trkpt>
      <trkpt lat="48.599774" lon="16.724130">
        <ele>271.821678</ele>
        <time>2020-09-18T11:30:30.926Z</time>
      </trkpt>
      <trkpt lat="48.599775" lon="16.723949">
        <ele>271.363423</ele>
        <time>2020-09-18T11:30:32.901Z</time>
      </trkpt>
      <trkpt lat="48.599774" lon="16.723767">
        <ele>270.902635</ele>
        <time>2020-09-18T11:30:34.899Z</time>
      </trkpt>
      <trkpt lat="48.599775" lon="16.723591">
        <ele>270.457037</ele>
        <time>2020-09-18T11:30:36.902Z</time>
      </trkpt>
      <trkpt lat="48.599774" lon="16.723412">
        <ele>269.841191</ele>
        <time>2020-09-18T11:30:38.907Z</time>
      </trkpt>
      <trkpt lat="48.599774" lon="16.723240">
        <ele>269.234109</ele>
        <time>2020-09-18T11:30:40.908Z</time>
      </trkpt>
      <trkpt lat="48.599777" lon="16.723071">
        <ele>268.637402</ele>
        <time>2020-09-18T11:30:42.906Z</time>
      </trkpt>
      <trkpt lat="48.599778" lon="16.722892">
        <ele>268.005591</ele>
        <time>2020-09-18T11:30:44.898Z</time>
      </trkpt>
      <trkpt lat="48.599771" lon="16.722712">
        <ele>267.369175</ele>
        <time>2020-09-18T11:30:46.910Z</time>
      </trkpt>
      <trkpt lat="48.599778" lon="16.722539">
        <ele>266.757423</ele>
        <time>2020-09-18T11:30:48.886Z</time>
      </trkpt>
      <trkpt lat="48.599797" lon="16.722342">
        <ele>266.054747</ele>
        <time>2020-09-18T11:30:50.892Z</time>
      </trkpt>
      <trkpt lat="48.599845" lon="16.722161">
        <ele>265.366448</ele>
        <time>2020-09-18T11:30:52.892Z</time>
      </trkpt>
      <trkpt lat="48.599900" lon="16.721998">
        <ele>264.720573</ele>
        <time>2020-09-18T11:30:54.921Z</time>
      </trkpt>
      <trkpt lat="48.599982" lon="16.721855">
        <ele>264.052531</ele>
        <time>2020-09-18T11:30:56.899Z</time>
      </trkpt>
      <trkpt lat="48.600054" lon="16.721683">
        <ele>263.334052</ele>
        <time>2020-09-18T11:30:58.924Z</time>
      </trkpt>
      <trkpt lat="48.600078" lon="16.721500">
        <ele>262.675570</ele>
        <time>2020-09-18T11:31:00.916Z</time>
      </trkpt>
      <trkpt lat="48.600077" lon="16.721308">
        <ele>261.997881</ele>
        <time>2020-09-18T11:31:02.900Z</time>
      </trkpt>
      <trkpt lat="48.600049" lon="16.721143">
        <ele>261.396641</ele>
        <time>2020-09-18T11:31:04.898Z</time>
      </trkpt>
      <trkpt lat="48.600016" lon="16.720955">
        <ele>260.722934</ele>
        <time>2020-09-18T11:31:06.918Z</time>
      </trkpt>
      <trkpt lat="48.599995" lon="16.720769">
        <ele>260.136911</ele>
        <time>2020-09-18T11:31:08.914Z</time>
      </trkpt>
      <trkpt lat="48.599988" lon="16.720577">
        <ele>259.539705</ele>
        <time>2020-09-18T11:31:10.893Z</time>
      </trkpt>
      <trkpt lat="48.599975" lon="16.720392">
        <ele>258.961911</ele>
        <time>2020-09-18T11:31:12.889Z</time>
      </trkpt>
      <trkpt lat="48.599964" lon="16.720208">
        <ele>258.388127</ele>
        <time>2020-09-18T11:31:14.885Z</time>
      </trkpt>
      <trkpt lat="48.599942" lon="16.720032">
        <ele>257.831839</ele>
        <time>2020-09-18T11:31:16.915Z</time>
      </trkpt>
      <trkpt lat="48.599935" lon="16.719850">
        <ele>257.265641</ele>
        <time>2020-09-18T11:31:18.902Z</time>
      </trkpt>
      <trkpt lat="48.599931" lon="16.719672">
        <ele>256.712502</ele>
        <time>2020-09-18T11:31:20.916Z</time>
      </trkpt>
      <trkpt lat="48.599919" lon="16.719501">
        <ele>256.178440</ele>
        <time>2020-09-18T11:31:22.900Z</time>
      </trkpt>
      <trkpt lat="48.599904" lon="16.719327">
        <ele>255.633471</ele>
        <time>2020-09-18T11:31:24.920Z</time>
      </trkpt>
      <trkpt lat="48.599889" lon="16.719159">
        <ele>255.106974</ele>
        <time>2020-09-18T11:31:26.894Z</time>
      </trkpt>
      <trkpt lat="48.599881" lon="16.718978">
        <ele>254.543582</ele>
        <time>2020-09-18T11:31:28.908Z</time>
      </trkpt>
      <trkpt lat="48.599883" lon="16.718797">
        <ele>253.981365</ele>
        <time>2020-09-18T11:31:30.908Z</time>
      </trkpt>
      <trkpt lat="48.599891" lon="16.718650">
        <ele>253.523279</ele>
        <time>2020-09-18T11:31:32.894Z</time>
      </trkpt>
      <trkpt lat="48.599894" lon="16.718474">
        <ele>252.976488</ele>
        <time>2020-09-18T11:31:34.930Z</time>
      </trkpt>
      <trkpt lat="48.599898" lon="16.718309">
        <ele>252.463698</ele>
        <time>2020-09-18T11:31:36.913Z</time>
      </trkpt>
      <trkpt lat="48.599906" lon="16.718139">
        <ele>251.905501</ele>
        <time>2020-09-18T11:31:38.910Z</time>
      </trkpt>
      <trkpt lat="48.599907" lon="16.717968">
        <ele>251.339170</ele>
        <time>2020-09-18T11:31:40.920Z</time>
      </trkpt>
      <trkpt lat="48.599903" lon="16.717801">
        <ele>250.785747</ele>
        <time>2020-09-18T11:31:42.901Z</time>
      </trkpt>
      <trkpt lat="48.599899" lon="16.717623">
        <ele>250.195916</ele>
        <time>2020-09-18T11:31:44.896Z</time>
      </trkpt>
      <trkpt lat="48.599914" lon="16.717451">
        <ele>249.621365</ele>
        <time>2020-09-18T11:31:46.885Z</time>
      </trkpt>
      <trkpt lat="48.599962" lon="16.717293">
        <ele>249.045538</ele>
        <time>2020-09-18T11:31:48.895Z</time>
      </trkpt>
      <trkpt lat="48.600008" lon="16.717141">
        <ele>248.491949</ele>
        <time>2020-09-18T11:31:50.896Z</time>
      </trkpt>
      <trkpt lat="48.600050" lon="16.716984">
        <ele>247.931076</ele>
        <time>2020-09-18T11:31:52.909Z</time>
      </trkpt>
      <trkpt lat="48.600113" lon="16.716847">
        <ele>247.378458</ele>
        <time>2020-09-18T11:31:54.896Z</time>
      </trkpt>
      <trkpt lat="48.600191" lon="16.716743">
        <ele>246.857688</ele>
        <time>2020-09-18T11:31:56.897Z</time>
      </trkpt>
      <trkpt lat="48.600207" lon="16.716597">
        <ele>246.367582</ele>
        <time>2020-09-18T11:31:58.906Z</time>
      </trkpt>
      <trkpt lat="48.600182" lon="16.716440">
        <ele>245.832781</ele>
        <time>2020-09-18T11:32:00.904Z</time>
      </trkpt>
      <trkpt lat="48.600160" lon="16.716277">
        <ele>245.281842</ele>
        <time>2020-09-18T11:32:02.926Z</time>
      </trkpt>
      <trkpt lat="48.600141" lon="16.716130">
        <ele>244.785807</ele>
        <time>2020-09-18T11:32:04.903Z</time>
      </trkpt>
      <trkpt lat="48.600126" lon="16.715980">
        <ele>244.283400</ele>
        <time>2020-09-18T11:32:06.901Z</time>
      </trkpt>
      <trkpt lat="48.600122" lon="16.715840">
        <ele>243.819326</ele>
        <time>2020-09-18T11:32:08.915Z</time>
      </trkpt>
      <trkpt lat="48.600122" lon="16.715692">
        <ele>243.353485</ele>
        <time>2020-09-18T11:32:10.917Z</time>
      </trkpt>
      <trkpt lat="48.600115" lon="16.715542">
        <ele>243.217666</ele>
        <time>2020-09-18T11:32:12.901Z</time>
      </trkpt>
      <trkpt lat="48.600107" lon="16.715389">
        <ele>243.079043</ele>
        <time>2020-09-18T11:32:14.908Z</time>
      </trkpt>
      <trkpt lat="48.600101" lon="16.715241">
        <ele>242.945116</ele>
        <time>2020-09-18T11:32:16.918Z</time>
      </trkpt>
      <trkpt lat="48.600088" lon="16.715085">
        <ele>242.803100</ele>
        <time>2020-09-18T11:32:18.896Z</time>
      </trkpt>
      <trkpt lat="48.600069" lon="16.714931">
        <ele>242.661605</ele>
        <time>2020-09-18T11:32:20.896Z</time>
      </trkpt>
      <trkpt lat="48.600055" lon="16.714784">
        <ele>242.527463</ele>
        <time>2020-09-18T11:32:22.887Z</time>
      </trkpt>
      <trkpt lat="48.600032" lon="16.714578">
        <ele>242.338767</ele>
        <time>2020-09-18T11:32:25.920Z</time>
      </trkpt>
      <trkpt lat="48.600016" lon="16.714438">
        <ele>242.210442</ele>
        <time>2020-09-18T11:32:27.883Z</time>
      </trkpt>
      <trkpt lat="48.599996" lon="16.714299">
        <ele>242.081958</ele>
        <time>2020-09-18T11:32:29.899Z</time>
      </trkpt>
      <trkpt lat="48.599972" lon="16.714153">
        <ele>241.946075</ele>
        <time>2020-09-18T11:32:31.900Z</time>
      </trkpt>
      <trkpt lat="48.599949" lon="16.714010">
        <ele>241.813150</ele>
        <time>2020-09-18T11:32:33.886Z</time>
      </trkpt>
      <trkpt lat="48.599919" lon="16.713862">
        <ele>241.673335</ele>
        <time>2020-09-18T11:32:35.887Z</time>
      </trkpt>
      <trkpt lat="48.599889" lon="16.713715">
        <ele>241.534384</ele>
        <time>2020-09-18T11:32:37.912Z</time>
      </trkpt>
      <trkpt lat="48.599856" lon="16.713564">
        <ele>241.390743</ele>
        <time>2020-09-18T11:32:39.926Z</time>
      </trkpt>
      <trkpt lat="48.599832" lon="16.713429">
        <ele>241.264480</ele>
        <time>2020-09-18T11:32:41.892Z</time>
      </trkpt>
      <trkpt lat="48.599803" lon="16.713284">
        <ele>241.127654</ele>
        <time>2020-09-18T11:32:43.913Z</time>
      </trkpt>
      <trkpt lat="48.599776" lon="16.713144">
        <ele>240.995936</ele>
        <time>2020-09-18T11:32:45.897Z</time>
      </trkpt>
      <trkpt lat="48.599743" lon="16.713012">
        <ele>240.881590</ele>
        <time>2020-09-18T11:32:47.901Z</time>
      </trkpt>
      <trkpt lat="48.599708" lon="16.712873">
        <ele>240.794177</ele>
        <time>2020-09-18T11:32:49.910Z</time>
      </trkpt>
      <trkpt lat="48.599676" lon="16.712736">
        <ele>240.708786</ele>
        <time>2020-09-18T11:32:51.924Z</time>
      </trkpt>
      <trkpt lat="48.599642" lon="16.712598">
        <ele>240.622236</ele>
        <time>2020-09-18T11:32:53.902Z</time>
      </trkpt>
      <trkpt lat="48.599609" lon="16.712463">
        <ele>240.537649</ele>
        <time>2020-09-18T11:32:55.927Z</time>
      </trkpt>
      <trkpt lat="48.599581" lon="16.712327">
        <ele>240.453936</ele>
        <time>2020-09-18T11:32:57.899Z</time>
      </trkpt>
      <trkpt lat="48.599566" lon="16.712135">
        <ele>240.340311</ele>
        <time>2020-09-18T11:33:00.912Z</time>
      </trkpt>
      <trkpt lat="48.599557" lon="16.711971">
        <ele>240.243595</ele>
        <time>2020-09-18T11:33:03.911Z</time>
      </trkpt>
      <trkpt lat="48.599545" lon="16.711780">
        <ele>240.130837</ele>
        <time>2020-09-18T11:33:06.908Z</time>
      </trkpt>
      <trkpt lat="48.599546" lon="16.711626">
        <ele>240.040325</ele>
        <time>2020-09-18T11:33:08.899Z</time>
      </trkpt>
      <trkpt lat="48.599552" lon="16.711464">
        <ele>239.944966</ele>
        <time>2020-09-18T11:33:10.903Z</time>
      </trkpt>
      <trkpt lat="48.599550" lon="16.711298">
        <ele>239.847390</ele>
        <time>2020-09-18T11:33:12.884Z</time>
      </trkpt>
      <trkpt lat="48.599539" lon="16.711131">
        <ele>239.748756</ele>
        <time>2020-09-18T11:33:14.889Z</time>
      </trkpt>
      <trkpt lat="48.599534" lon="16.710970">
        <ele>239.654030</ele>
        <time>2020-09-18T11:33:16.900Z</time>
      </trkpt>
      <trkpt lat="48.599528" lon="16.710809">
        <ele>239.559258</ele>
        <time>2020-09-18T11:33:18.894Z</time>
      </trkpt>
      <trkpt lat="48.599513" lon="16.710646">
        <ele>239.462538</ele>
        <time>2020-09-18T11:33:20.905Z</time>
      </trkpt>
      <trkpt lat="48.599496" lon="16.710488">
        <ele>239.368459</ele>
        <time>2020-09-18T11:33:22.907Z</time>
      </trkpt>
      <trkpt lat="48.599479" lon="16.710338">
        <ele>239.293751</ele>
        <time>2020-09-18T11:33:24.933Z</time>
      </trkpt>
      <trkpt lat="48.599461" lon="16.710180">
        <ele>239.248153</ele>
        <time>2020-09-18T11:33:26.904Z</time>
      </trkpt>
      <trkpt lat="48.599451" lon="16.710028">
        <ele>239.204711</ele>
        <time>2020-09-18T11:33:28.901Z</time>
      </trkpt>
      <trkpt lat="48.599439" lon="16.709873">
        <ele>239.160327</ele>
        <time>2020-09-18T11:33:30.911Z</time>
      </trkpt>
      <trkpt lat="48.599426" lon="16.709725">
        <ele>239.117866</ele>
        <time>2020-09-18T11:33:32.920Z</time>
      </trkpt>
      <trkpt lat="48.599414" lon="16.709571">
        <ele>239.073765</ele>
        <time>2020-09-18T11:33:34.914Z</time>
      </trkpt>
      <trkpt lat="48.599398" lon="16.709417">
        <ele>239.029430</ele>
        <time>2020-09-18T11:33:36.910Z</time>
      </trkpt>
      <trkpt lat="48.599375" lon="16.709264">
        <ele>238.984806</ele>
        <time>2020-09-18T11:33:38.894Z</time>
      </trkpt>
      <trkpt lat="48.599350" lon="16.709117">
        <ele>238.941638</ele>
        <time>2020-09-18T11:33:40.895Z</time>
      </trkpt>
      <trkpt lat="48.599320" lon="16.708970">
        <ele>238.897886</ele>
        <time>2020-09-18T11:33:42.902Z</time>
      </trkpt>
      <trkpt lat="48.599288" lon="16.708826">
        <ele>238.854681</ele>
        <time>2020-09-18T11:33:44.925Z</time>
      </trkpt>
      <trkpt lat="48.599250" lon="16.708690">
        <ele>238.812692</ele>
        <time>2020-09-18T11:33:46.900Z</time>
      </trkpt>
      <trkpt lat="48.599209" lon="16.708558">
        <ele>238.771216</ele>
        <time>2020-09-18T11:33:48.898Z</time>
      </trkpt>
      <trkpt lat="48.599167" lon="16.708425">
        <ele>238.729299</ele>
        <time>2020-09-18T11:33:50.913Z</time>
      </trkpt>
      <trkpt lat="48.599125" lon="16.708292">
        <ele>238.687382</ele>
        <time>2020-09-18T11:33:52.927Z</time>
      </trkpt>
      <trkpt lat="48.599063" lon="16.708110">
        <ele>238.629156</ele>
        <time>2020-09-18T11:33:55.920Z</time>
      </trkpt>
      <trkpt lat="48.599022" lon="16.707989">
        <ele>238.590489</ele>
        <time>2020-09-18T11:33:57.899Z</time>
      </trkpt>
      <trkpt lat="48.598999" lon="16.707856">
        <ele>238.551392</ele>
        <time>2020-09-18T11:33:59.907Z</time>
      </trkpt>
      <trkpt lat="48.598976" lon="16.707719">
        <ele>238.495824</ele>
        <time>2020-09-18T11:34:01.896Z</time>
      </trkpt>
      <trkpt lat="48.598946" lon="16.707520">
        <ele>238.398753</ele>
        <time>2020-09-18T11:34:04.905Z</time>
      </trkpt>
      <trkpt lat="48.598922" lon="16.707383">
        <ele>238.331350</ele>
        <time>2020-09-18T11:34:06.898Z</time>
      </trkpt>
      <trkpt lat="48.598884" lon="16.707195">
        <ele>238.237855</ele>
        <time>2020-09-18T11:34:09.920Z</time>
      </trkpt>
      <trkpt lat="48.598847" lon="16.707027">
        <ele>238.153642</ele>
        <time>2020-09-18T11:34:12.902Z</time>
      </trkpt>
      <trkpt lat="48.598823" lon="16.706865">
        <ele>238.074686</ele>
        <time>2020-09-18T11:34:15.931Z</time>
      </trkpt>
      <trkpt lat="48.598784" lon="16.706702">
        <ele>237.992246</ele>
        <time>2020-09-18T11:34:18.926Z</time>
      </trkpt>
      <trkpt lat="48.598746" lon="16.706535">
        <ele>237.908252</ele>
        <time>2020-09-18T11:34:21.906Z</time>
      </trkpt>
      <trkpt lat="48.598724" lon="16.706356">
        <ele>237.821663</ele>
        <time>2020-09-18T11:34:24.903Z</time>
      </trkpt>
      <trkpt lat="48.598719" lon="16.706155">
        <ele>237.726001</ele>
        <time>2020-09-18T11:34:27.887Z</time>
      </trkpt>
      <trkpt lat="48.598715" lon="16.706004">
        <ele>237.654129</ele>
        <time>2020-09-18T11:34:29.910Z</time>
      </trkpt>
      <trkpt lat="48.598710" lon="16.705852">
        <ele>237.581749</ele>
        <time>2020-09-18T11:34:31.913Z</time>
      </trkpt>
      <trkpt lat="48.598699" lon="16.705704">
        <ele>237.510918</ele>
        <time>2020-09-18T11:34:33.935Z</time>
      </trkpt>
      <trkpt lat="48.598672" lon="16.705559">
        <ele>237.439275</ele>
        <time>2020-09-18T11:34:35.931Z</time>
      </trkpt>
      <trkpt lat="48.598645" lon="16.705418">
        <ele>237.369462</ele>
        <time>2020-09-18T11:34:37.912Z</time>
      </trkpt>
      <trkpt lat="48.598615" lon="16.705273">
        <ele>237.297204</ele>
        <time>2020-09-18T11:34:39.926Z</time>
      </trkpt>
      <trkpt lat="48.598592" lon="16.705129">
        <ele>237.233002</ele>
        <time>2020-09-18T11:34:41.905Z</time>
      </trkpt>
      <trkpt lat="48.598563" lon="16.704979">
        <ele>237.192331</ele>
        <time>2020-09-18T11:34:43.903Z</time>
      </trkpt>
      <trkpt lat="48.598523" lon="16.704837">
        <ele>237.152163</ele>
        <time>2020-09-18T11:34:45.898Z</time>
      </trkpt>
      <trkpt lat="48.598496" lon="16.704688">
        <ele>237.111956</ele>
        <time>2020-09-18T11:34:47.903Z</time>
      </trkpt>
      <trkpt lat="48.598470" lon="16.704540">
        <ele>237.072104</ele>
        <time>2020-09-18T11:34:49.903Z</time>
      </trkpt>
      <trkpt lat="48.598441" lon="16.704400">
        <ele>237.033923</ele>
        <time>2020-09-18T11:34:51.916Z</time>
      </trkpt>
      <trkpt lat="48.598409" lon="16.704270">
        <ele>236.997823</ele>
        <time>2020-09-18T11:34:53.899Z</time>
      </trkpt>
      <trkpt lat="48.598342" lon="16.704106">
        <ele>236.947655</ele>
        <time>2020-09-18T11:34:56.914Z</time>
      </trkpt>
      <trkpt lat="48.598289" lon="16.703959">
        <ele>236.904083</ele>
        <time>2020-09-18T11:34:59.900Z</time>
      </trkpt>
      <trkpt lat="48.598266" lon="16.703816">
        <ele>236.865782</ele>
        <time>2020-09-18T11:35:02.933Z</time>
      </trkpt>
      <trkpt lat="48.598250" lon="16.703663">
        <ele>236.825469</ele>
        <time>2020-09-18T11:35:05.900Z</time>
      </trkpt>
      <trkpt lat="48.598235" lon="16.703519">
        <ele>236.787531</ele>
        <time>2020-09-18T11:35:08.909Z</time>
      </trkpt>
      <trkpt lat="48.598231" lon="16.703375">
        <ele>236.750022</ele>
        <time>2020-09-18T11:35:11.895Z</time>
      </trkpt>
      <trkpt lat="48.598233" lon="16.703203">
        <ele>236.705252</ele>
        <time>2020-09-18T11:35:14.904Z</time>
      </trkpt>
      <trkpt lat="48.598233" lon="16.702991">
        <ele>236.650079</ele>
        <time>2020-09-18T11:35:17.907Z</time>
      </trkpt>
      <trkpt lat="48.598228" lon="16.702814">
        <ele>236.603972</ele>
        <time>2020-09-18T11:35:19.911Z</time>
      </trkpt>
      <trkpt lat="48.598223" lon="16.702623">
        <ele>236.554226</ele>
        <time>2020-09-18T11:35:21.931Z</time>
      </trkpt>
      <trkpt lat="48.598214" lon="16.702417">
        <ele>236.555579</ele>
        <time>2020-09-18T11:35:23.916Z</time>
      </trkpt>
      <trkpt lat="48.598206" lon="16.702184">
        <ele>236.598554</ele>
        <time>2020-09-18T11:35:25.938Z</time>
      </trkpt>
      <trkpt lat="48.598204" lon="16.701997">
        <ele>236.633003</ele>
        <time>2020-09-18T11:35:27.899Z</time>
      </trkpt>
      <trkpt lat="48.598204" lon="16.701825">
        <ele>236.664684</ele>
        <time>2020-09-18T11:35:29.917Z</time>
      </trkpt>
      <trkpt lat="48.598207" lon="16.701671">
        <ele>236.693062</ele>
        <time>2020-09-18T11:35:31.900Z</time>
      </trkpt>
      <trkpt lat="48.598209" lon="16.701524">
        <ele>236.720145</ele>
        <time>2020-09-18T11:35:33.922Z</time>
      </trkpt>
      <trkpt lat="48.598210" lon="16.701378">
        <ele>236.747038</ele>
        <time>2020-09-18T11:35:35.898Z</time>
      </trkpt>
      <trkpt lat="48.598214" lon="16.701232">
        <ele>236.773954</ele>
        <time>2020-09-18T11:35:37.905Z</time>
      </trkpt>
      <trkpt lat="48.598216" lon="16.701056">
        <ele>236.806377</ele>
        <time>2020-09-18T11:35:39.942Z</time>
      </trkpt>
      <trkpt lat="48.598216" lon="16.700847">
        <ele>236.844873</ele>
        <time>2020-09-18T11:35:41.915Z</time>
      </trkpt>
      <trkpt lat="48.598213" lon="16.700619">
        <ele>236.886877</ele>
        <time>2020-09-18T11:35:43.897Z</time>
      </trkpt>
      <trkpt lat="48.598214" lon="16.700420">
        <ele>236.923533</ele>
        <time>2020-09-18T11:35:45.905Z</time>
      </trkpt>
      <trkpt lat="48.598222" lon="16.700251">
        <ele>236.954741</ele>
        <time>2020-09-18T11:35:47.900Z</time>
      </trkpt>
      <trkpt lat="48.598236" lon="16.700096">
        <ele>236.983556</ele>
        <time>2020-09-18T11:35:49.928Z</time>
      </trkpt>
      <trkpt lat="48.598256" lon="16.699913">
        <ele>237.017721</ele>
        <time>2020-09-18T11:35:52.918Z</time>
      </trkpt>
      <trkpt lat="48.598286" lon="16.699771">
        <ele>236.984174</ele>
        <time>2020-09-18T11:35:55.946Z</time>
      </trkpt>
      <trkpt lat="48.598317" lon="16.699623">
        <ele>236.860725</ele>
        <time>2020-09-18T11:35:58.916Z</time>
      </trkpt>
      <trkpt lat="48.598367" lon="16.699468">
        <ele>236.723592</ele>
        <time>2020-09-18T11:36:01.940Z</time>
      </trkpt>
      <trkpt lat="48.598429" lon="16.699324">
        <ele>236.586958</ele>
        <time>2020-09-18T11:36:04.909Z</time>
      </trkpt>
      <trkpt lat="48.598491" lon="16.699180">
        <ele>236.450323</ele>
        <time>2020-09-18T11:36:07.914Z</time>
      </trkpt>
      <trkpt lat="48.598559" lon="16.699023">
        <ele>236.301090</ele>
        <time>2020-09-18T11:36:10.929Z</time>
      </trkpt>
      <trkpt lat="48.598636" lon="16.698854">
        <ele>236.137900</ele>
        <time>2020-09-18T11:36:13.902Z</time>
      </trkpt>
      <trkpt lat="48.598684" lon="16.698721">
        <ele>236.017418</ele>
        <time>2020-09-18T11:36:15.902Z</time>
      </trkpt>
      <trkpt lat="48.598720" lon="16.698570">
        <ele>235.889783</ele>
        <time>2020-09-18T11:36:17.894Z</time>
      </trkpt>
      <trkpt lat="48.598748" lon="16.698401">
        <ele>235.751246</ele>
        <time>2020-09-18T11:36:19.891Z</time>
      </trkpt>
      <trkpt lat="48.598767" lon="16.698219">
        <ele>235.604732</ele>
        <time>2020-09-18T11:36:21.904Z</time>
      </trkpt>
      <trkpt lat="48.598786" lon="16.698027">
        <ele>235.450360</ele>
        <time>2020-09-18T11:36:23.894Z</time>
      </trkpt>
      <trkpt lat="48.598808" lon="16.697808">
        <ele>235.274219</ele>
        <time>2020-09-18T11:36:25.892Z</time>
      </trkpt>
      <trkpt lat="48.598810" lon="16.697552">
        <ele>235.070641</ele>
        <time>2020-09-18T11:36:27.913Z</time>
      </trkpt>
      <trkpt lat="48.598799" lon="16.697407">
        <ele>234.954585</ele>
        <time>2020-09-18T11:36:28.882Z</time>
      </trkpt>
      <trkpt lat="48.598770" lon="16.697269">
        <ele>234.895652</ele>
        <time>2020-09-18T11:36:29.895Z</time>
      </trkpt>
      <trkpt lat="48.598734" lon="16.697136">
        <ele>234.984667</ele>
        <time>2020-09-18T11:36:30.911Z</time>
      </trkpt>
      <trkpt lat="48.598687" lon="16.696916">
        <ele>235.127872</ele>
        <time>2020-09-18T11:36:32.896Z</time>
      </trkpt>
      <trkpt lat="48.598680" lon="16.696753">
        <ele>235.229049</ele>
        <time>2020-09-18T11:36:34.899Z</time>
      </trkpt>
      <trkpt lat="48.598608" lon="16.696649">
        <ele>235.322309</ele>
        <time>2020-09-18T11:36:36.894Z</time>
      </trkpt>
      <trkpt lat="48.598531" lon="16.696567">
        <ele>235.410519</ele>
        <time>2020-09-18T11:36:38.904Z</time>
      </trkpt>
      <trkpt lat="48.598442" lon="16.696424">
        <ele>235.532152</ele>
        <time>2020-09-18T11:36:41.901Z</time>
      </trkpt>
      <trkpt lat="48.598368" lon="16.696268">
        <ele>235.651068</ele>
        <time>2020-09-18T11:36:44.895Z</time>
      </trkpt>
      <trkpt lat="48.598324" lon="16.696149">
        <ele>235.735517</ele>
        <time>2020-09-18T11:36:46.893Z</time>
      </trkpt>
      <trkpt lat="48.598283" lon="16.696018">
        <ele>235.825289</ele>
        <time>2020-09-18T11:36:48.884Z</time>
      </trkpt>
      <trkpt lat="48.598247" lon="16.695891">
        <ele>235.910877</ele>
        <time>2020-09-18T11:36:50.913Z</time>
      </trkpt>
      <trkpt lat="48.598199" lon="16.695722">
        <ele>236.024804</ele>
        <time>2020-09-18T11:36:53.888Z</time>
      </trkpt>
      <trkpt lat="48.598131" lon="16.695441">
        <ele>236.210148</ele>
        <time>2020-09-18T11:37:41.930Z</time>
      </trkpt>
      <trkpt lat="48.598090" lon="16.695304">
        <ele>236.303293</ele>
        <time>2020-09-18T11:37:44.900Z</time>
      </trkpt>
      <trkpt lat="48.598048" lon="16.695160">
        <ele>236.400779</ele>
        <time>2020-09-18T11:37:47.917Z</time>
      </trkpt>
      <trkpt lat="48.598004" lon="16.695008">
        <ele>236.503555</ele>
        <time>2020-09-18T11:37:50.928Z</time>
      </trkpt>
      <trkpt lat="48.597959" lon="16.694847">
        <ele>236.583448</ele>
        <time>2020-09-18T11:37:53.916Z</time>
      </trkpt>
      <trkpt lat="48.597915" lon="16.694666">
        <ele>236.642525</ele>
        <time>2020-09-18T11:37:56.897Z</time>
      </trkpt>
      <trkpt lat="48.597885" lon="16.694529">
        <ele>236.686736</ele>
        <time>2020-09-18T11:37:58.919Z</time>
      </trkpt>
      <trkpt lat="48.597851" lon="16.694394">
        <ele>236.730991</ele>
        <time>2020-09-18T11:38:00.904Z</time>
      </trkpt>
      <trkpt lat="48.597812" lon="16.694259">
        <ele>236.776123</ele>
        <time>2020-09-18T11:38:02.899Z</time>
      </trkpt>
      <trkpt lat="48.597773" lon="16.694116">
        <ele>236.823510</ele>
        <time>2020-09-18T11:38:04.898Z</time>
      </trkpt>
      <trkpt lat="48.597711" lon="16.693985">
        <ele>236.872860</ele>
        <time>2020-09-18T11:38:06.911Z</time>
      </trkpt>
      <trkpt lat="48.597618" lon="16.693867">
        <ele>236.929098</ele>
        <time>2020-09-18T11:38:08.909Z</time>
      </trkpt>
      <trkpt lat="48.597509" lon="16.693753">
        <ele>236.990492</ele>
        <time>2020-09-18T11:38:10.901Z</time>
      </trkpt>
      <trkpt lat="48.597393" lon="16.693652">
        <ele>237.052498</ele>
        <time>2020-09-18T11:38:12.928Z</time>
      </trkpt>
      <trkpt lat="48.597296" lon="16.693530">
        <ele>237.110944</ele>
        <time>2020-09-18T11:38:14.940Z</time>
      </trkpt>
      <trkpt lat="48.597200" lon="16.693416">
        <ele>237.167489</ele>
        <time>2020-09-18T11:38:16.895Z</time>
      </trkpt>
      <trkpt lat="48.597101" lon="16.693325">
        <ele>237.221157</ele>
        <time>2020-09-18T11:38:18.903Z</time>
      </trkpt>
      <trkpt lat="48.596998" lon="16.693274">
        <ele>237.271363</ele>
        <time>2020-09-18T11:38:20.914Z</time>
      </trkpt>
      <trkpt lat="48.596887" lon="16.693250">
        <ele>237.323305</ele>
        <time>2020-09-18T11:38:22.902Z</time>
      </trkpt>
      <trkpt lat="48.596769" lon="16.693220">
        <ele>237.378733</ele>
        <time>2020-09-18T11:38:24.895Z</time>
      </trkpt>
      <trkpt lat="48.596651" lon="16.693180">
        <ele>237.315695</ele>
        <time>2020-09-18T11:38:26.906Z</time>
      </trkpt>
      <trkpt lat="48.596556" lon="16.693109">
        <ele>237.237409</ele>
        <time>2020-09-18T11:38:28.915Z</time>
      </trkpt>
      <trkpt lat="48.596481" lon="16.692989">
        <ele>237.156742</ele>
        <time>2020-09-18T11:38:30.903Z</time>
      </trkpt>
      <trkpt lat="48.596422" lon="16.692830">
        <ele>237.067667</ele>
        <time>2020-09-18T11:38:32.909Z</time>
      </trkpt>
      <trkpt lat="48.596391" lon="16.692652">
        <ele>236.977735</ele>
        <time>2020-09-18T11:38:34.914Z</time>
      </trkpt>
      <trkpt lat="48.596387" lon="16.692438">
        <ele>236.873139</ele>
        <time>2020-09-18T11:38:36.894Z</time>
      </trkpt>
      <trkpt lat="48.596388" lon="16.692246">
        <ele>236.779329</ele>
        <time>2020-09-18T11:38:38.891Z</time>
      </trkpt>
      <trkpt lat="48.596391" lon="16.692071">
        <ele>236.693800</ele>
        <time>2020-09-18T11:38:40.896Z</time>
      </trkpt>
      <trkpt lat="48.596393" lon="16.691904">
        <ele>236.612194</ele>
        <time>2020-09-18T11:38:42.895Z</time>
      </trkpt>
      <trkpt lat="48.596395" lon="16.691745">
        <ele>236.534497</ele>
        <time>2020-09-18T11:38:44.917Z</time>
      </trkpt>
      <trkpt lat="48.596403" lon="16.691593">
        <ele>236.459999</ele>
        <time>2020-09-18T11:38:46.919Z</time>
      </trkpt>
      <trkpt lat="48.596432" lon="16.691419">
        <ele>236.372329</ele>
        <time>2020-09-18T11:38:48.913Z</time>
      </trkpt>
      <trkpt lat="48.596462" lon="16.691242">
        <ele>236.283056</ele>
        <time>2020-09-18T11:38:50.909Z</time>
      </trkpt>
      <trkpt lat="48.596493" lon="16.691069">
        <ele>236.195485</ele>
        <time>2020-09-18T11:38:52.911Z</time>
      </trkpt>
      <trkpt lat="48.596522" lon="16.690896">
        <ele>236.108289</ele>
        <time>2020-09-18T11:38:54.894Z</time>
      </trkpt>
      <trkpt lat="48.596552" lon="16.690726">
        <ele>236.090008</ele>
        <time>2020-09-18T11:38:56.925Z</time>
      </trkpt>
      <trkpt lat="48.596568" lon="16.690553">
        <ele>236.157460</ele>
        <time>2020-09-18T11:38:58.936Z</time>
      </trkpt>
      <trkpt lat="48.596553" lon="16.690374">
        <ele>236.227131</ele>
        <time>2020-09-18T11:39:00.916Z</time>
      </trkpt>
      <trkpt lat="48.596537" lon="16.690189">
        <ele>236.299174</ele>
        <time>2020-09-18T11:39:02.927Z</time>
      </trkpt>
      <trkpt lat="48.596521" lon="16.689997">
        <ele>236.373899</ele>
        <time>2020-09-18T11:39:04.927Z</time>
      </trkpt>
      <trkpt lat="48.596500" lon="16.689805">
        <ele>236.449044</ele>
        <time>2020-09-18T11:39:06.904Z</time>
      </trkpt>
      <trkpt lat="48.596477" lon="16.689618">
        <ele>236.522490</ele>
        <time>2020-09-18T11:39:08.894Z</time>
      </trkpt>
      <trkpt lat="48.596443" lon="16.689440">
        <ele>236.594031</ele>
        <time>2020-09-18T11:39:10.914Z</time>
      </trkpt>
      <trkpt lat="48.596399" lon="16.689272">
        <ele>236.663804</ele>
        <time>2020-09-18T11:39:12.893Z</time>
      </trkpt>
      <trkpt lat="48.596359" lon="16.689110">
        <ele>236.730575</ele>
        <time>2020-09-18T11:39:14.911Z</time>
      </trkpt>
      <trkpt lat="48.596317" lon="16.688956">
        <ele>236.794898</ele>
        <time>2020-09-18T11:39:16.920Z</time>
      </trkpt>
      <trkpt lat="48.596272" lon="16.688808">
        <ele>236.857797</ele>
        <time>2020-09-18T11:39:18.894Z</time>
      </trkpt>
      <trkpt lat="48.596220" lon="16.688668">
        <ele>236.919798</ele>
        <time>2020-09-18T11:39:20.920Z</time>
      </trkpt>
      <trkpt lat="48.596165" lon="16.688529">
        <ele>236.982344</ele>
        <time>2020-09-18T11:39:22.903Z</time>
      </trkpt>
      <trkpt lat="48.596109" lon="16.688387">
        <ele>237.046184</ele>
        <time>2020-09-18T11:39:24.919Z</time>
      </trkpt>
      <trkpt lat="48.596054" lon="16.688244">
        <ele>237.110061</ele>
        <time>2020-09-18T11:39:26.915Z</time>
      </trkpt>
      <trkpt lat="48.595995" lon="16.688110">
        <ele>237.162239</ele>
        <time>2020-09-18T11:39:28.893Z</time>
      </trkpt>
      <trkpt lat="48.595938" lon="16.687984">
        <ele>237.211686</ele>
        <time>2020-09-18T11:39:30.915Z</time>
      </trkpt>
      <trkpt lat="48.595889" lon="16.687854">
        <ele>237.260153</ele>
        <time>2020-09-18T11:39:32.909Z</time>
      </trkpt>
      <trkpt lat="48.595840" lon="16.687722">
        <ele>237.309184</ele>
        <time>2020-09-18T11:39:34.901Z</time>
      </trkpt>
      <trkpt lat="48.595790" lon="16.687596">
        <ele>237.356780</ele>
        <time>2020-09-18T11:39:36.915Z</time>
      </trkpt>
      <trkpt lat="48.595737" lon="16.687478">
        <ele>237.402982</ele>
        <time>2020-09-18T11:39:38.924Z</time>
      </trkpt>
      <trkpt lat="48.595684" lon="16.687363">
        <ele>237.448385</ele>
        <time>2020-09-18T11:39:40.903Z</time>
      </trkpt>
      <trkpt lat="48.595634" lon="16.687248">
        <ele>237.492963</ele>
        <time>2020-09-18T11:39:42.908Z</time>
      </trkpt>
      <trkpt lat="48.595588" lon="16.687122">
        <ele>237.539581</ele>
        <time>2020-09-18T11:39:44.911Z</time>
      </trkpt>
      <trkpt lat="48.595538" lon="16.686984">
        <ele>237.590550</ele>
        <time>2020-09-18T11:39:46.909Z</time>
      </trkpt>
      <trkpt lat="48.595490" lon="16.686839">
        <ele>237.643072</ele>
        <time>2020-09-18T11:39:48.901Z</time>
      </trkpt>
      <trkpt lat="48.595440" lon="16.686693">
        <ele>237.696328</ele>
        <time>2020-09-18T11:39:50.906Z</time>
      </trkpt>
      <trkpt lat="48.595384" lon="16.686540">
        <ele>237.752970</ele>
        <time>2020-09-18T11:39:52.900Z</time>
      </trkpt>
      <trkpt lat="48.595331" lon="16.686382">
        <ele>237.810355</ele>
        <time>2020-09-18T11:39:54.897Z</time>
      </trkpt>
      <trkpt lat="48.595293" lon="16.686212">
        <ele>237.868481</ele>
        <time>2020-09-18T11:39:56.899Z</time>
      </trkpt>
      <trkpt lat="48.595258" lon="16.686047">
        <ele>237.924609</ele>
        <time>2020-09-18T11:39:58.912Z</time>
      </trkpt>
      <trkpt lat="48.595225" lon="16.685891">
        <ele>237.977662</ele>
        <time>2020-09-18T11:40:00.936Z</time>
      </trkpt>
      <trkpt lat="48.595201" lon="16.685739">
        <ele>238.013222</ele>
        <time>2020-09-18T11:40:02.938Z</time>
      </trkpt>
      <trkpt lat="48.595181" lon="16.685589">
        <ele>238.042667</ele>
        <time>2020-09-18T11:40:04.927Z</time>
      </trkpt>
      <trkpt lat="48.595174" lon="16.685436">
        <ele>238.072180</ele>
        <time>2020-09-18T11:40:06.893Z</time>
      </trkpt>
      <trkpt lat="48.595175" lon="16.685279">
        <ele>238.102392</ele>
        <time>2020-09-18T11:40:08.938Z</time>
      </trkpt>
      <trkpt lat="48.595176" lon="16.685120">
        <ele>238.132990</ele>
        <time>2020-09-18T11:40:10.912Z</time>
      </trkpt>
      <trkpt lat="48.595179" lon="16.684959">
        <ele>238.163983</ele>
        <time>2020-09-18T11:40:12.932Z</time>
      </trkpt>
      <trkpt lat="48.595183" lon="16.684789">
        <ele>238.196717</ele>
        <time>2020-09-18T11:40:14.900Z</time>
      </trkpt>
      <trkpt lat="48.595191" lon="16.684617">
        <ele>238.229897</ele>
        <time>2020-09-18T11:40:16.905Z</time>
      </trkpt>
      <trkpt lat="48.595198" lon="16.684439">
        <ele>238.264210</ele>
        <time>2020-09-18T11:40:18.913Z</time>
      </trkpt>
      <trkpt lat="48.595197" lon="16.684273">
        <ele>238.296154</ele>
        <time>2020-09-18T11:40:20.903Z</time>
      </trkpt>
      <trkpt lat="48.595194" lon="16.684111">
        <ele>238.327340</ele>
        <time>2020-09-18T11:40:22.923Z</time>
      </trkpt>
      <trkpt lat="48.595195" lon="16.683951">
        <ele>238.358130</ele>
        <time>2020-09-18T11:40:24.899Z</time>
      </trkpt>
      <trkpt lat="48.595196" lon="16.683798">
        <ele>238.387573</ele>
        <time>2020-09-18T11:40:26.896Z</time>
      </trkpt>
      <trkpt lat="48.595199" lon="16.683638">
        <ele>238.418374</ele>
        <time>2020-09-18T11:40:28.904Z</time>
      </trkpt>
      <trkpt lat="48.595206" lon="16.683473">
        <ele>238.450190</ele>
        <time>2020-09-18T11:40:30.906Z</time>
      </trkpt>
      <trkpt lat="48.595209" lon="16.683333">
        <ele>238.477145</ele>
        <time>2020-09-18T11:40:32.899Z</time>
      </trkpt>
      <trkpt lat="48.595203" lon="16.683186">
        <ele>238.505486</ele>
        <time>2020-09-18T11:40:34.902Z</time>
      </trkpt>
      <trkpt lat="48.595190" lon="16.683035">
        <ele>238.472170</ele>
        <time>2020-09-18T11:40:36.923Z</time>
      </trkpt>
      <trkpt lat="48.595170" lon="16.682887">
        <ele>238.411490</ele>
        <time>2020-09-18T11:40:38.891Z</time>
      </trkpt>
      <trkpt lat="48.595141" lon="16.682746">
        <ele>238.352176</ele>
        <time>2020-09-18T11:40:40.923Z</time>
      </trkpt>
      <trkpt lat="48.595103" lon="16.682605">
        <ele>238.291015</ele>
        <time>2020-09-18T11:40:42.911Z</time>
      </trkpt>
      <trkpt lat="48.595063" lon="16.682459">
        <ele>238.227534</ele>
        <time>2020-09-18T11:40:44.897Z</time>
      </trkpt>
      <trkpt lat="48.595018" lon="16.682316">
        <ele>238.163921</ele>
        <time>2020-09-18T11:40:46.938Z</time>
      </trkpt>
      <trkpt lat="48.594975" lon="16.682178">
        <ele>238.102643</ele>
        <time>2020-09-18T11:40:48.923Z</time>
      </trkpt>
      <trkpt lat="48.594931" lon="16.682046">
        <ele>238.043265</ele>
        <time>2020-09-18T11:40:50.898Z</time>
      </trkpt>
      <trkpt lat="48.594886" lon="16.681918">
        <ele>237.985035</ele>
        <time>2020-09-18T11:40:52.907Z</time>
      </trkpt>
      <trkpt lat="48.594852" lon="16.681786">
        <ele>237.928131</ele>
        <time>2020-09-18T11:40:54.922Z</time>
      </trkpt>
      <trkpt lat="48.594826" lon="16.681643">
        <ele>237.868557</ele>
        <time>2020-09-18T11:40:56.918Z</time>
      </trkpt>
      <trkpt lat="48.594812" lon="16.681486">
        <ele>237.804920</ele>
        <time>2020-09-18T11:40:58.918Z</time>
      </trkpt>
      <trkpt lat="48.594804" lon="16.681327">
        <ele>237.740866</ele>
        <time>2020-09-18T11:41:00.919Z</time>
      </trkpt>
      <trkpt lat="48.594801" lon="16.681159">
        <ele>237.673356</ele>
        <time>2020-09-18T11:41:02.917Z</time>
      </trkpt>
      <trkpt lat="48.594801" lon="16.680986">
        <ele>237.603862</ele>
        <time>2020-09-18T11:41:04.894Z</time>
      </trkpt>
      <trkpt lat="48.594798" lon="16.680809">
        <ele>237.532738</ele>
        <time>2020-09-18T11:41:06.901Z</time>
      </trkpt>
      <trkpt lat="48.594793" lon="16.680630">
        <ele>237.460770</ele>
        <time>2020-09-18T11:41:08.918Z</time>
      </trkpt>
      <trkpt lat="48.594786" lon="16.680449">
        <ele>237.415121</ele>
        <time>2020-09-18T11:41:10.900Z</time>
      </trkpt>
      <trkpt lat="48.594773" lon="16.680270">
        <ele>237.400386</ele>
        <time>2020-09-18T11:41:12.923Z</time>
      </trkpt>
      <trkpt lat="48.594753" lon="16.680092">
        <ele>237.385613</ele>
        <time>2020-09-18T11:41:14.900Z</time>
      </trkpt>
      <trkpt lat="48.594728" lon="16.679895">
        <ele>237.369199</ele>
        <time>2020-09-18T11:41:16.897Z</time>
      </trkpt>
      <trkpt lat="48.594679" lon="16.679715">
        <ele>237.353272</ele>
        <time>2020-09-18T11:41:18.910Z</time>
      </trkpt>
      <trkpt lat="48.594632" lon="16.679538">
        <ele>237.337665</ele>
        <time>2020-09-18T11:41:20.907Z</time>
      </trkpt>
      <trkpt lat="48.594590" lon="16.679375">
        <ele>237.323351</ele>
        <time>2020-09-18T11:41:22.906Z</time>
      </trkpt>
      <trkpt lat="48.594557" lon="16.679238">
        <ele>237.311420</ele>
        <time>2020-09-18T11:41:24.924Z</time>
      </trkpt>
      <trkpt lat="48.594512" lon="16.679065">
        <ele>237.296209</ele>
        <time>2020-09-18T11:41:27.894Z</time>
      </trkpt>
      <trkpt lat="48.594482" lon="16.678935">
        <ele>237.284943</ele>
        <time>2020-09-18T11:41:29.917Z</time>
      </trkpt>
      <trkpt lat="48.594452" lon="16.678795">
        <ele>237.272901</ele>
        <time>2020-09-18T11:41:31.904Z</time>
      </trkpt>
      <trkpt lat="48.594418" lon="16.678656">
        <ele>237.260774</ele>
        <time>2020-09-18T11:41:33.916Z</time>
      </trkpt>
      <trkpt lat="48.594399" lon="16.678510">
        <ele>237.248598</ele>
        <time>2020-09-18T11:41:35.903Z</time>
      </trkpt>
      <trkpt lat="48.594375" lon="16.678362">
        <ele>237.236129</ele>
        <time>2020-09-18T11:41:37.939Z</time>
      </trkpt>
      <trkpt lat="48.594359" lon="16.678205">
        <ele>237.223131</ele>
        <time>2020-09-18T11:41:39.898Z</time>
      </trkpt>
      <trkpt lat="48.594353" lon="16.678054">
        <ele>237.210753</ele>
        <time>2020-09-18T11:41:41.899Z</time>
      </trkpt>
      <trkpt lat="48.594351" lon="16.677906">
        <ele>237.208482</ele>
        <time>2020-09-18T11:41:43.893Z</time>
      </trkpt>
      <trkpt lat="48.594353" lon="16.677763">
        <ele>237.323669</ele>
        <time>2020-09-18T11:41:45.890Z</time>
      </trkpt>
      <trkpt lat="48.594352" lon="16.677614">
        <ele>237.443669</ele>
        <time>2020-09-18T11:41:47.883Z</time>
      </trkpt>
      <trkpt lat="48.594352" lon="16.677456">
        <ele>237.570911</ele>
        <time>2020-09-18T11:41:49.888Z</time>
      </trkpt>
      <trkpt lat="48.594354" lon="16.677301">
        <ele>237.695761</ele>
        <time>2020-09-18T11:41:51.901Z</time>
      </trkpt>
      <trkpt lat="48.594351" lon="16.677140">
        <ele>237.825470</ele>
        <time>2020-09-18T11:41:53.887Z</time>
      </trkpt>
      <trkpt lat="48.594345" lon="16.676987">
        <ele>237.948902</ele>
        <time>2020-09-18T11:41:55.891Z</time>
      </trkpt>
      <trkpt lat="48.594338" lon="16.676833">
        <ele>238.073215</ele>
        <time>2020-09-18T11:41:57.913Z</time>
      </trkpt>
      <trkpt lat="48.594324" lon="16.676676">
        <ele>238.200795</ele>
        <time>2020-09-18T11:41:59.918Z</time>
      </trkpt>
      <trkpt lat="48.594304" lon="16.676530">
        <ele>238.320869</ele>
        <time>2020-09-18T11:42:01.892Z</time>
      </trkpt>
      <trkpt lat="48.594278" lon="16.676393">
        <ele>238.435651</ele>
        <time>2020-09-18T11:42:03.925Z</time>
      </trkpt>
      <trkpt lat="48.594261" lon="16.676257">
        <ele>238.547115</ele>
        <time>2020-09-18T11:42:05.885Z</time>
      </trkpt>
      <trkpt lat="48.594255" lon="16.676114">
        <ele>238.662508</ele>
        <time>2020-09-18T11:42:07.883Z</time>
      </trkpt>
      <trkpt lat="48.594251" lon="16.675969">
        <ele>238.779382</ele>
        <time>2020-09-18T11:42:09.905Z</time>
      </trkpt>
      <trkpt lat="48.594237" lon="16.675822">
        <ele>238.898987</ele>
        <time>2020-09-18T11:42:11.887Z</time>
      </trkpt>
      <trkpt lat="48.594220" lon="16.675676">
        <ele>239.018373</ele>
        <time>2020-09-18T11:42:13.937Z</time>
      </trkpt>
      <trkpt lat="48.594204" lon="16.675533">
        <ele>239.135172</ele>
        <time>2020-09-18T11:42:15.899Z</time>
      </trkpt>
      <trkpt lat="48.594184" lon="16.675375">
        <ele>239.264723</ele>
        <time>2020-09-18T11:42:17.923Z</time>
      </trkpt>
      <trkpt lat="48.594163" lon="16.675222">
        <ele>239.389261</ele>
        <time>2020-09-18T11:42:19.909Z</time>
      </trkpt>
      <trkpt lat="48.594134" lon="16.675054">
        <ele>239.331473</ele>
        <time>2020-09-18T11:42:21.909Z</time>
      </trkpt>
      <trkpt lat="48.594097" lon="16.674885">
        <ele>239.272223</ele>
        <time>2020-09-18T11:42:23.932Z</time>
      </trkpt>
      <trkpt lat="48.594062" lon="16.674705">
        <ele>239.209778</ele>
        <time>2020-09-18T11:42:25.907Z</time>
      </trkpt>
      <trkpt lat="48.594034" lon="16.674536">
        <ele>239.151792</ele>
        <time>2020-09-18T11:42:27.909Z</time>
      </trkpt>
      <trkpt lat="48.593999" lon="16.674362">
        <ele>239.091260</ele>
        <time>2020-09-18T11:42:29.909Z</time>
      </trkpt>
      <trkpt lat="48.593963" lon="16.674195">
        <ele>239.032799</ele>
        <time>2020-09-18T11:42:31.910Z</time>
      </trkpt>
      <trkpt lat="48.593929" lon="16.674010">
        <ele>238.968893</ele>
        <time>2020-09-18T11:42:33.901Z</time>
      </trkpt>
      <trkpt lat="48.593890" lon="16.673836">
        <ele>238.907745</ele>
        <time>2020-09-18T11:42:35.918Z</time>
      </trkpt>
      <trkpt lat="48.593856" lon="16.673665">
        <ele>238.848315</ele>
        <time>2020-09-18T11:42:37.893Z</time>
      </trkpt>
      <trkpt lat="48.593826" lon="16.673500">
        <ele>238.791360</ele>
        <time>2020-09-18T11:42:39.913Z</time>
      </trkpt>
      <trkpt lat="48.593797" lon="16.673325">
        <ele>238.731314</ele>
        <time>2020-09-18T11:42:41.927Z</time>
      </trkpt>
      <trkpt lat="48.593775" lon="16.673150">
        <ele>238.672026</ele>
        <time>2020-09-18T11:42:43.892Z</time>
      </trkpt>
      <trkpt lat="48.593756" lon="16.672979">
        <ele>238.614314</ele>
        <time>2020-09-18T11:42:45.909Z</time>
      </trkpt>
      <trkpt lat="48.593742" lon="16.672808">
        <ele>238.556965</ele>
        <time>2020-09-18T11:42:47.904Z</time>
      </trkpt>
      <trkpt lat="48.593736" lon="16.672637">
        <ele>238.499971</ele>
        <time>2020-09-18T11:42:49.907Z</time>
      </trkpt>
      <trkpt lat="48.593754" lon="16.672463">
        <ele>238.429338</ele>
        <time>2020-09-18T11:42:51.910Z</time>
      </trkpt>
      <trkpt lat="48.593795" lon="16.672303">
        <ele>238.356327</ele>
        <time>2020-09-18T11:42:53.901Z</time>
      </trkpt>
      <trkpt lat="48.593813" lon="16.672158">
        <ele>238.293552</ele>
        <time>2020-09-18T11:42:55.902Z</time>
      </trkpt>
      <trkpt lat="48.593811" lon="16.672009">
        <ele>238.230140</ele>
        <time>2020-09-18T11:42:57.894Z</time>
      </trkpt>
      <trkpt lat="48.593796" lon="16.671854">
        <ele>238.163486</ele>
        <time>2020-09-18T11:42:59.888Z</time>
      </trkpt>
      <trkpt lat="48.593766" lon="16.671693">
        <ele>238.092314</ele>
        <time>2020-09-18T11:43:01.912Z</time>
      </trkpt>
      <trkpt lat="48.593722" lon="16.671514">
        <ele>238.011059</ele>
        <time>2020-09-18T11:43:03.887Z</time>
      </trkpt>
      <trkpt lat="48.593671" lon="16.671336">
        <ele>237.928519</ele>
        <time>2020-09-18T11:43:05.899Z</time>
      </trkpt>
      <trkpt lat="48.593634" lon="16.671161">
        <ele>237.850345</ele>
        <time>2020-09-18T11:43:07.891Z</time>
      </trkpt>
      <trkpt lat="48.593606" lon="16.670960">
        <ele>237.762943</ele>
        <time>2020-09-18T11:43:09.898Z</time>
      </trkpt>
      <trkpt lat="48.593593" lon="16.670765">
        <ele>237.679550</ele>
        <time>2020-09-18T11:43:11.921Z</time>
      </trkpt>
      <trkpt lat="48.593572" lon="16.670576">
        <ele>237.598004</ele>
        <time>2020-09-18T11:43:13.893Z</time>
      </trkpt>
      <trkpt lat="48.593525" lon="16.670393">
        <ele>237.514473</ele>
        <time>2020-09-18T11:43:15.896Z</time>
      </trkpt>
      <trkpt lat="48.593453" lon="16.670237">
        <ele>237.433531</ele>
        <time>2020-09-18T11:43:17.894Z</time>
      </trkpt>
      <trkpt lat="48.593374" lon="16.670103">
        <ele>237.357151</ele>
        <time>2020-09-18T11:43:19.893Z</time>
      </trkpt>
      <trkpt lat="48.593309" lon="16.669964">
        <ele>237.250173</ele>
        <time>2020-09-18T11:43:21.919Z</time>
      </trkpt>
      <trkpt lat="48.593249" lon="16.669834">
        <ele>237.128112</ele>
        <time>2020-09-18T11:43:23.919Z</time>
      </trkpt>
      <trkpt lat="48.593196" lon="16.669703">
        <ele>237.009867</ele>
        <time>2020-09-18T11:43:25.920Z</time>
      </trkpt>
      <trkpt lat="48.593143" lon="16.669574">
        <ele>236.892934</ele>
        <time>2020-09-18T11:43:27.901Z</time>
      </trkpt>
      <trkpt lat="48.593095" lon="16.669452">
        <ele>236.783630</ele>
        <time>2020-09-18T11:43:29.914Z</time>
      </trkpt>
      <trkpt lat="48.593038" lon="16.669275">
        <ele>236.632044</ele>
        <time>2020-09-18T11:43:32.887Z</time>
      </trkpt>
      <trkpt lat="48.592991" lon="16.669098">
        <ele>236.485181</ele>
        <time>2020-09-18T11:43:35.899Z</time>
      </trkpt>
      <trkpt lat="48.592953" lon="16.668975">
        <ele>236.380648</ele>
        <time>2020-09-18T11:43:37.898Z</time>
      </trkpt>
      <trkpt lat="48.592891" lon="16.668808">
        <ele>236.233186</ele>
        <time>2020-09-18T11:43:40.896Z</time>
      </trkpt>
      <trkpt lat="48.592821" lon="16.668641">
        <ele>236.080947</ele>
        <time>2020-09-18T11:43:43.885Z</time>
      </trkpt>
      <trkpt lat="48.592753" lon="16.668474">
        <ele>235.929942</ele>
        <time>2020-09-18T11:43:46.894Z</time>
      </trkpt>
      <trkpt lat="48.592692" lon="16.668302">
        <ele>235.779664</ele>
        <time>2020-09-18T11:43:49.901Z</time>
      </trkpt>
      <trkpt lat="48.592643" lon="16.668181">
        <ele>235.670417</ele>
        <time>2020-09-18T11:43:51.913Z</time>
      </trkpt>
      <trkpt lat="48.592585" lon="16.668045">
        <ele>235.545815</ele>
        <time>2020-09-18T11:43:53.886Z</time>
      </trkpt>
      <trkpt lat="48.592514" lon="16.667912">
        <ele>235.414209</ele>
        <time>2020-09-18T11:43:55.891Z</time>
      </trkpt>
      <trkpt lat="48.592420" lon="16.667777">
        <ele>235.263273</ele>
        <time>2020-09-18T11:43:57.890Z</time>
      </trkpt>
      <trkpt lat="48.592312" lon="16.667649">
        <ele>235.035221</ele>
        <time>2020-09-18T11:43:59.896Z</time>
      </trkpt>
      <trkpt lat="48.592197" lon="16.667521">
        <ele>234.781575</ele>
        <time>2020-09-18T11:44:01.888Z</time>
      </trkpt>
      <trkpt lat="48.592080" lon="16.667425">
        <ele>234.545128</ele>
        <time>2020-09-18T11:44:03.938Z</time>
      </trkpt>
      <trkpt lat="48.591976" lon="16.667331">
        <ele>234.329910</ele>
        <time>2020-09-18T11:44:05.900Z</time>
      </trkpt>
      <trkpt lat="48.591883" lon="16.667242">
        <ele>234.134413</ele>
        <time>2020-09-18T11:44:07.908Z</time>
      </trkpt>
      <trkpt lat="48.591802" lon="16.667153">
        <ele>233.956559</ele>
        <time>2020-09-18T11:44:09.893Z</time>
      </trkpt>
      <trkpt lat="48.591721" lon="16.667078">
        <ele>233.787850</ele>
        <time>2020-09-18T11:44:11.911Z</time>
      </trkpt>
      <trkpt lat="48.591637" lon="16.667005">
        <ele>233.615757</ele>
        <time>2020-09-18T11:44:13.902Z</time>
      </trkpt>
      <trkpt lat="48.591549" lon="16.666926">
        <ele>233.433973</ele>
        <time>2020-09-18T11:44:15.896Z</time>
      </trkpt>
      <trkpt lat="48.591450" lon="16.666844">
        <ele>233.233469</ele>
        <time>2020-09-18T11:44:17.931Z</time>
      </trkpt>
      <trkpt lat="48.591345" lon="16.666761">
        <ele>233.023014</ele>
        <time>2020-09-18T11:44:19.935Z</time>
      </trkpt>
      <trkpt lat="48.591247" lon="16.666658">
        <ele>232.811018</ele>
        <time>2020-09-18T11:44:21.885Z</time>
      </trkpt>
      <trkpt lat="48.591156" lon="16.666531">
        <ele>232.591047</ele>
        <time>2020-09-18T11:44:23.889Z</time>
      </trkpt>
      <trkpt lat="48.591078" lon="16.666375">
        <ele>232.361300</ele>
        <time>2020-09-18T11:44:25.933Z</time>
      </trkpt>
      <trkpt lat="48.591027" lon="16.666183">
        <ele>232.118222</ele>
        <time>2020-09-18T11:44:27.909Z</time>
      </trkpt>
      <trkpt lat="48.590967" lon="16.665990">
        <ele>231.947428</ele>
        <time>2020-09-18T11:44:29.902Z</time>
      </trkpt>
      <trkpt lat="48.590916" lon="16.665800">
        <ele>231.818883</ele>
        <time>2020-09-18T11:44:31.885Z</time>
      </trkpt>
      <trkpt lat="48.590860" lon="16.665610">
        <ele>231.688482</ele>
        <time>2020-09-18T11:44:33.917Z</time>
      </trkpt>
      <trkpt lat="48.590799" lon="16.665422">
        <ele>231.557208</ele>
        <time>2020-09-18T11:44:35.924Z</time>
      </trkpt>
      <trkpt lat="48.590739" lon="16.665233">
        <ele>231.425783</ele>
        <time>2020-09-18T11:44:37.906Z</time>
      </trkpt>
      <trkpt lat="48.590680" lon="16.665043">
        <ele>231.294199</ele>
        <time>2020-09-18T11:44:39.906Z</time>
      </trkpt>
      <trkpt lat="48.590616" lon="16.664859">
        <ele>231.163872</ele>
        <time>2020-09-18T11:44:41.898Z</time>
      </trkpt>
      <trkpt lat="48.590562" lon="16.664673">
        <ele>231.036530</ele>
        <time>2020-09-18T11:44:43.919Z</time>
      </trkpt>
      <trkpt lat="48.590510" lon="16.664492">
        <ele>230.912819</ele>
        <time>2020-09-18T11:44:45.897Z</time>
      </trkpt>
      <trkpt lat="48.590462" lon="16.664312">
        <ele>230.791151</ele>
        <time>2020-09-18T11:44:47.924Z</time>
      </trkpt>
      <trkpt lat="48.590409" lon="16.664134">
        <ele>230.668777</ele>
        <time>2020-09-18T11:44:49.924Z</time>
      </trkpt>
      <trkpt lat="48.590357" lon="16.663959">
        <ele>230.548506</ele>
        <time>2020-09-18T11:44:51.902Z</time>
      </trkpt>
      <trkpt lat="48.590308" lon="16.663792">
        <ele>230.433974</ele>
        <time>2020-09-18T11:44:53.915Z</time>
      </trkpt>
      <trkpt lat="48.590259" lon="16.663629">
        <ele>230.331525</ele>
        <time>2020-09-18T11:44:55.928Z</time>
      </trkpt>
      <trkpt lat="48.590210" lon="16.663459">
        <ele>230.308637</ele>
        <time>2020-09-18T11:44:57.902Z</time>
      </trkpt>
      <trkpt lat="48.590155" lon="16.663285">
        <ele>230.284834</ele>
        <time>2020-09-18T11:44:59.896Z</time>
      </trkpt>
      <trkpt lat="48.590107" lon="16.663112">
        <ele>230.261678</ele>
        <time>2020-09-18T11:45:01.927Z</time>
      </trkpt>
      <trkpt lat="48.590058" lon="16.662938">
        <ele>230.238335</ele>
        <time>2020-09-18T11:45:03.933Z</time>
      </trkpt>
      <trkpt lat="48.590004" lon="16.662757">
        <ele>230.213827</ele>
        <time>2020-09-18T11:45:05.899Z</time>
      </trkpt>
      <trkpt lat="48.589956" lon="16.662589">
        <ele>230.191239</ele>
        <time>2020-09-18T11:45:07.906Z</time>
      </trkpt>
      <trkpt lat="48.589912" lon="16.662424">
        <ele>230.169280</ele>
        <time>2020-09-18T11:45:09.921Z</time>
      </trkpt>
      <trkpt lat="48.589872" lon="16.662262">
        <ele>230.147937</ele>
        <time>2020-09-18T11:45:11.897Z</time>
      </trkpt>
      <trkpt lat="48.589834" lon="16.662106">
        <ele>230.127417</ele>
        <time>2020-09-18T11:45:13.908Z</time>
      </trkpt>
      <trkpt lat="48.589802" lon="16.661960">
        <ele>230.108433</ele>
        <time>2020-09-18T11:45:15.899Z</time>
      </trkpt>
      <trkpt lat="48.589777" lon="16.661823">
        <ele>230.090891</ele>
        <time>2020-09-18T11:45:17.907Z</time>
      </trkpt>
      <trkpt lat="48.589765" lon="16.661688">
        <ele>230.074078</ele>
        <time>2020-09-18T11:45:19.888Z</time>
      </trkpt>
      <trkpt lat="48.589763" lon="16.661490">
        <ele>230.049636</ele>
        <time>2020-09-18T11:45:22.926Z</time>
      </trkpt>
      <trkpt lat="48.589766" lon="16.661352">
        <ele>230.032593</ele>
        <time>2020-09-18T11:45:24.905Z</time>
      </trkpt>
      <trkpt lat="48.589778" lon="16.661206">
        <ele>230.014434</ele>
        <time>2020-09-18T11:45:26.926Z</time>
      </trkpt>
      <trkpt lat="48.589792" lon="16.661066">
        <ele>229.990908</ele>
        <time>2020-09-18T11:45:28.885Z</time>
      </trkpt>
      <trkpt lat="48.589804" lon="16.660927">
        <ele>229.894870</ele>
        <time>2020-09-18T11:45:30.915Z</time>
      </trkpt>
      <trkpt lat="48.589753" lon="16.660742">
        <ele>229.757557</ele>
        <time>2020-09-18T11:45:33.911Z</time>
      </trkpt>
      <trkpt lat="48.589683" lon="16.660615">
        <ele>229.644299</ele>
        <time>2020-09-18T11:45:35.907Z</time>
      </trkpt>
      <trkpt lat="48.589590" lon="16.660474">
        <ele>229.507878</ele>
        <time>2020-09-18T11:45:37.918Z</time>
      </trkpt>
      <trkpt lat="48.589490" lon="16.660323">
        <ele>229.361486</ele>
        <time>2020-09-18T11:45:39.909Z</time>
      </trkpt>
      <trkpt lat="48.589395" lon="16.660159">
        <ele>229.212132</ele>
        <time>2020-09-18T11:45:41.905Z</time>
      </trkpt>
      <trkpt lat="48.589310" lon="16.659985">
        <ele>229.063935</ele>
        <time>2020-09-18T11:45:43.921Z</time>
      </trkpt>
      <trkpt lat="48.589237" lon="16.659800">
        <ele>228.916349</ele>
        <time>2020-09-18T11:45:45.926Z</time>
      </trkpt>
      <trkpt lat="48.589167" lon="16.659619">
        <ele>228.772702</ele>
        <time>2020-09-18T11:45:47.899Z</time>
      </trkpt>
      <trkpt lat="48.589100" lon="16.659438">
        <ele>228.630598</ele>
        <time>2020-09-18T11:45:49.902Z</time>
      </trkpt>
      <trkpt lat="48.589035" lon="16.659255">
        <ele>228.488289</ele>
        <time>2020-09-18T11:45:51.917Z</time>
      </trkpt>
      <trkpt lat="48.588971" lon="16.659070">
        <ele>228.345253</ele>
        <time>2020-09-18T11:45:53.924Z</time>
      </trkpt>
      <trkpt lat="48.588917" lon="16.658880">
        <ele>228.203573</ele>
        <time>2020-09-18T11:45:55.905Z</time>
      </trkpt>
      <trkpt lat="48.588868" lon="16.658687">
        <ele>228.111499</ele>
        <time>2020-09-18T11:45:57.908Z</time>
      </trkpt>
      <trkpt lat="48.588830" lon="16.658490">
        <ele>228.065892</ele>
        <time>2020-09-18T11:45:59.905Z</time>
      </trkpt>
      <trkpt lat="48.588794" lon="16.658295">
        <ele>228.020896</ele>
        <time>2020-09-18T11:46:01.916Z</time>
      </trkpt>
      <trkpt lat="48.588762" lon="16.658100">
        <ele>227.976243</ele>
        <time>2020-09-18T11:46:03.905Z</time>
      </trkpt>
      <trkpt lat="48.588737" lon="16.657905">
        <ele>227.932097</ele>
        <time>2020-09-18T11:46:05.909Z</time>
      </trkpt>
      <trkpt lat="48.588705" lon="16.657713">
        <ele>227.888091</ele>
        <time>2020-09-18T11:46:07.892Z</time>
      </trkpt>
      <trkpt lat="48.588677" lon="16.657515">
        <ele>227.843090</ele>
        <time>2020-09-18T11:46:09.912Z</time>
      </trkpt>
      <trkpt lat="48.588667" lon="16.657313">
        <ele>227.798069</ele>
        <time>2020-09-18T11:46:11.891Z</time>
      </trkpt>
      <trkpt lat="48.588658" lon="16.657112">
        <ele>227.753294</ele>
        <time>2020-09-18T11:46:13.927Z</time>
      </trkpt>
      <trkpt lat="48.588651" lon="16.656918">
        <ele>227.710113</ele>
        <time>2020-09-18T11:46:15.905Z</time>
      </trkpt>
      <trkpt lat="48.588640" lon="16.656723">
        <ele>227.666616</ele>
        <time>2020-09-18T11:46:17.922Z</time>
      </trkpt>
      <trkpt lat="48.588632" lon="16.656529">
        <ele>227.623415</ele>
        <time>2020-09-18T11:46:19.903Z</time>
      </trkpt>
      <trkpt lat="48.588621" lon="16.656335">
        <ele>227.580140</ele>
        <time>2020-09-18T11:46:21.913Z</time>
      </trkpt>
      <trkpt lat="48.588611" lon="16.656139">
        <ele>227.536449</ele>
        <time>2020-09-18T11:46:23.944Z</time>
      </trkpt>
      <trkpt lat="48.588601" lon="16.655946">
        <ele>227.495480</ele>
        <time>2020-09-18T11:46:25.917Z</time>
      </trkpt>
      <trkpt lat="48.588590" lon="16.655757">
        <ele>227.455625</ele>
        <time>2020-09-18T11:46:27.899Z</time>
      </trkpt>
      <trkpt lat="48.588582" lon="16.655573">
        <ele>227.416889</ele>
        <time>2020-09-18T11:46:29.910Z</time>
      </trkpt>
      <trkpt lat="48.588573" lon="16.655387">
        <ele>227.377712</ele>
        <time>2020-09-18T11:46:31.906Z</time>
      </trkpt>
      <trkpt lat="48.588564" lon="16.655207">
        <ele>227.339793</ele>
        <time>2020-09-18T11:46:33.925Z</time>
      </trkpt>
      <trkpt lat="48.588554" lon="16.655021">
        <ele>227.300592</ele>
        <time>2020-09-18T11:46:35.908Z</time>
      </trkpt>
      <trkpt lat="48.588542" lon="16.654836">
        <ele>227.261543</ele>
        <time>2020-09-18T11:46:37.903Z</time>
      </trkpt>
      <trkpt lat="48.588524" lon="16.654652">
        <ele>227.222470</ele>
        <time>2020-09-18T11:46:39.937Z</time>
      </trkpt>
      <trkpt lat="48.588496" lon="16.654474">
        <ele>227.184036</ele>
        <time>2020-09-18T11:46:41.920Z</time>
      </trkpt>
      <trkpt lat="48.588460" lon="16.654293">
        <ele>227.144332</ele>
        <time>2020-09-18T11:46:43.918Z</time>
      </trkpt>
      <trkpt lat="48.588422" lon="16.654106">
        <ele>227.103238</ele>
        <time>2020-09-18T11:46:45.918Z</time>
      </trkpt>
      <trkpt lat="48.588374" lon="16.653924">
        <ele>227.062079</ele>
        <time>2020-09-18T11:46:47.897Z</time>
      </trkpt>
      <trkpt lat="48.588323" lon="16.653750">
        <ele>227.022099</ele>
        <time>2020-09-18T11:46:49.891Z</time>
      </trkpt>
      <trkpt lat="48.588263" lon="16.653588">
        <ele>226.983097</ele>
        <time>2020-09-18T11:46:51.894Z</time>
      </trkpt>
      <trkpt lat="48.588203" lon="16.653432">
        <ele>226.984335</ele>
        <time>2020-09-18T11:46:53.887Z</time>
      </trkpt>
      <trkpt lat="48.588147" lon="16.653285">
        <ele>227.044604</ele>
        <time>2020-09-18T11:46:55.912Z</time>
      </trkpt>
      <trkpt lat="48.588085" lon="16.653095">
        <ele>227.119876</ele>
        <time>2020-09-18T11:46:57.912Z</time>
      </trkpt>
      <trkpt lat="48.588035" lon="16.652976">
        <ele>227.169963</ele>
        <time>2020-09-18T11:46:59.900Z</time>
      </trkpt>
      <trkpt lat="48.587973" lon="16.652869">
        <ele>227.220502</ele>
        <time>2020-09-18T11:47:01.913Z</time>
      </trkpt>
      <trkpt lat="48.587893" lon="16.652763">
        <ele>227.277639</ele>
        <time>2020-09-18T11:47:03.918Z</time>
      </trkpt>
      <trkpt lat="48.587816" lon="16.652671">
        <ele>227.330354</ele>
        <time>2020-09-18T11:47:05.908Z</time>
      </trkpt>
      <trkpt lat="48.587737" lon="16.652556">
        <ele>227.389260</ele>
        <time>2020-09-18T11:47:07.895Z</time>
      </trkpt>
      <trkpt lat="48.587664" lon="16.652443">
        <ele>227.445378</ele>
        <time>2020-09-18T11:47:09.908Z</time>
      </trkpt>
      <trkpt lat="48.587591" lon="16.652315">
        <ele>227.505424</ele>
        <time>2020-09-18T11:47:11.917Z</time>
      </trkpt>
      <trkpt lat="48.587518" lon="16.652181">
        <ele>227.567100</ele>
        <time>2020-09-18T11:47:13.908Z</time>
      </trkpt>
      <trkpt lat="48.587442" lon="16.652055">
        <ele>227.627684</ele>
        <time>2020-09-18T11:47:15.909Z</time>
      </trkpt>
      <trkpt lat="48.587362" lon="16.651925">
        <ele>227.690768</ele>
        <time>2020-09-18T11:47:17.896Z</time>
      </trkpt>
      <trkpt lat="48.587280" lon="16.651797">
        <ele>227.754077</ele>
        <time>2020-09-18T11:47:19.909Z</time>
      </trkpt>
      <trkpt lat="48.587193" lon="16.651667">
        <ele>227.819781</ele>
        <time>2020-09-18T11:47:21.922Z</time>
      </trkpt>
      <trkpt lat="48.587103" lon="16.651533">
        <ele>227.887629</ele>
        <time>2020-09-18T11:47:23.915Z</time>
      </trkpt>
      <trkpt lat="48.587023" lon="16.651389">
        <ele>227.924867</ele>
        <time>2020-09-18T11:47:25.916Z</time>
      </trkpt>
      <trkpt lat="48.586943" lon="16.651252">
        <ele>227.922714</ele>
        <time>2020-09-18T11:47:27.933Z</time>
      </trkpt>
      <trkpt lat="48.586858" lon="16.651121">
        <ele>227.920553</ele>
        <time>2020-09-18T11:47:29.912Z</time>
      </trkpt>
      <trkpt lat="48.586772" lon="16.651001">
        <ele>227.918469</ele>
        <time>2020-09-18T11:47:31.908Z</time>
      </trkpt>
      <trkpt lat="48.586680" lon="16.650893">
        <ele>227.916394</ele>
        <time>2020-09-18T11:47:33.879Z</time>
      </trkpt>
      <trkpt lat="48.586589" lon="16.650795">
        <ele>227.914405</ele>
        <time>2020-09-18T11:47:35.895Z</time>
      </trkpt>
      <trkpt lat="48.586494" lon="16.650702">
        <ele>227.912389</ele>
        <time>2020-09-18T11:47:37.888Z</time>
      </trkpt>
      <trkpt lat="48.586399" lon="16.650610">
        <ele>227.910380</ele>
        <time>2020-09-18T11:47:39.903Z</time>
      </trkpt>
      <trkpt lat="48.586302" lon="16.650517">
        <ele>227.908335</ele>
        <time>2020-09-18T11:47:41.897Z</time>
      </trkpt>
      <trkpt lat="48.586196" lon="16.650440">
        <ele>227.906241</ele>
        <time>2020-09-18T11:47:43.888Z</time>
      </trkpt>
      <trkpt lat="48.586089" lon="16.650367">
        <ele>227.904150</ele>
        <time>2020-09-18T11:47:45.912Z</time>
      </trkpt>
      <trkpt lat="48.585984" lon="16.650294">
        <ele>227.902092</ele>
        <time>2020-09-18T11:47:47.911Z</time>
      </trkpt>
      <trkpt lat="48.585875" lon="16.650215">
        <ele>227.899940</ele>
        <time>2020-09-18T11:47:49.911Z</time>
      </trkpt>
      <trkpt lat="48.585764" lon="16.650133">
        <ele>227.897740</ele>
        <time>2020-09-18T11:47:51.900Z</time>
      </trkpt>
      <trkpt lat="48.585656" lon="16.650054">
        <ele>227.895603</ele>
        <time>2020-09-18T11:47:53.920Z</time>
      </trkpt>
      <trkpt lat="48.585548" lon="16.649971">
        <ele>227.893787</ele>
        <time>2020-09-18T11:47:55.910Z</time>
      </trkpt>
      <trkpt lat="48.585444" lon="16.649884">
        <ele>227.893787</ele>
        <time>2020-09-18T11:47:57.889Z</time>
      </trkpt>
      <trkpt lat="48.585343" lon="16.649795">
        <ele>227.893787</ele>
        <time>2020-09-18T11:47:59.898Z</time>
      </trkpt>
      <trkpt lat="48.585244" lon="16.649707">
        <ele>227.893787</ele>
        <time>2020-09-18T11:48:01.914Z</time>
      </trkpt>
      <trkpt lat="48.585150" lon="16.649613">
        <ele>227.893787</ele>
        <time>2020-09-18T11:48:03.916Z</time>
      </trkpt>
      <trkpt lat="48.585059" lon="16.649509">
        <ele>227.893787</ele>
        <time>2020-09-18T11:48:05.888Z</time>
      </trkpt>
      <trkpt lat="48.584971" lon="16.649400">
        <ele>227.893787</ele>
        <time>2020-09-18T11:48:07.893Z</time>
      </trkpt>
      <trkpt lat="48.584887" lon="16.649281">
        <ele>227.893787</ele>
        <time>2020-09-18T11:48:09.892Z</time>
      </trkpt>
      <trkpt lat="48.584808" lon="16.649156">
        <ele>227.893787</ele>
        <time>2020-09-18T11:48:11.889Z</time>
      </trkpt>
      <trkpt lat="48.584729" lon="16.649030">
        <ele>227.893787</ele>
        <time>2020-09-18T11:48:13.909Z</time>
      </trkpt>
      <trkpt lat="48.584649" lon="16.648904">
        <ele>227.893787</ele>
        <time>2020-09-18T11:48:15.904Z</time>
      </trkpt>
      <trkpt lat="48.584566" lon="16.648782">
        <ele>227.893787</ele>
        <time>2020-09-18T11:48:17.919Z</time>
      </trkpt>
      <trkpt lat="48.584437" lon="16.648711">
        <ele>227.893787</ele>
        <time>2020-09-18T11:48:19.902Z</time>
      </trkpt>
      <trkpt lat="48.584316" lon="16.648773">
        <ele>227.893787</ele>
        <time>2020-09-18T11:48:21.905Z</time>
      </trkpt>
      <trkpt lat="48.584216" lon="16.648864">
        <ele>227.893787</ele>
        <time>2020-09-18T11:48:23.889Z</time>
      </trkpt>
      <trkpt lat="48.584118" lon="16.648959">
        <ele>227.893787</ele>
        <time>2020-09-18T11:48:25.903Z</time>
      </trkpt>
      <trkpt lat="48.584024" lon="16.649048">
        <ele>227.893787</ele>
        <time>2020-09-18T11:48:27.897Z</time>
      </trkpt>
      <trkpt lat="48.583921" lon="16.649076">
        <ele>227.893787</ele>
        <time>2020-09-18T11:48:30.900Z</time>
      </trkpt>
      <trkpt lat="48.583908" lon="16.649060">
        <ele>227.893787</ele>
        <time>2020-09-18T11:48:50.467Z</time>
      </trkpt>
    </trkseg>
  </trk>
</gpx>